<?xml version="1.0" encoding="UTF-8" standalone="no" ?>
<gpx xmlns="http://www.topografix.com/GPX/1/1" creator="RoadTrip 2.0.2" version="1.1" xmlns:xsi="http://www.w3.org/2001/XMLSchema-instance" xsi:schemaLocation="http://www.topografix.com/GPX/1/1 http://www.topografix.com/GPX/1/1/gpx.xsd">

  <metadata>
    <link href="http://www.garmin.com">
      <text>Garmin International</text>
    </link>
    <time>2010-12-06T11:22:13Z</time>
    <bounds maxlat="59.6619760" maxlon="18.0339970" minlat="59.1885800" minlon="15.9847480"/>
  </metadata>

  <trk>
    <name>MälarenRuntOetzi2010</name>
    <extensions>
      <gpxx:TrackExtension xmlns:gpxx="http://www.garmin.com/xmlschemas/GpxExtensions/v3">
        <gpxx:DisplayColor>White</gpxx:DisplayColor>
      </gpxx:TrackExtension>
    </extensions>
    <trkseg>
      <trkpt lat="59.4026180" lon="17.8676450">
        <ele>30.9000000</ele>
        <time>2010-12-03T20:04:16Z</time>
      </trkpt>
      <trkpt lat="59.4026030" lon="17.8676550">
        <ele>27.5300000</ele>
        <time>2010-12-03T20:04:20Z</time>
      </trkpt>
      <trkpt lat="59.4023860" lon="17.8672750">
        <ele>24.6500000</ele>
        <time>2010-12-03T20:06:04Z</time>
      </trkpt>
      <trkpt lat="59.4022450" lon="17.8669340">
        <ele>25.6100000</ele>
        <time>2010-12-03T20:06:13Z</time>
      </trkpt>
      <trkpt lat="59.4021910" lon="17.8667890">
        <ele>-4.1900000</ele>
        <time>2010-12-03T20:06:16Z</time>
      </trkpt>
      <trkpt lat="59.4021720" lon="17.8667340">
        <ele>27.5300000</ele>
        <time>2010-12-03T20:06:17Z</time>
      </trkpt>
      <trkpt lat="59.4019240" lon="17.8662240">
        <ele>27.5300000</ele>
        <time>2010-12-03T20:06:28Z</time>
      </trkpt>
      <trkpt lat="59.4018360" lon="17.8656580">
        <ele>28.0200000</ele>
        <time>2010-12-03T20:06:39Z</time>
      </trkpt>
      <trkpt lat="59.4019700" lon="17.8653010">
        <ele>27.5300000</ele>
        <time>2010-12-03T20:06:47Z</time>
      </trkpt>
      <trkpt lat="59.4023930" lon="17.8645740">
        <ele>25.6100000</ele>
        <time>2010-12-03T20:07:00Z</time>
      </trkpt>
      <trkpt lat="59.4026760" lon="17.8641240">
        <ele>24.1700000</ele>
        <time>2010-12-03T20:07:10Z</time>
      </trkpt>
      <trkpt lat="59.4027940" lon="17.8639660">
        <ele>24.6500000</ele>
        <time>2010-12-03T20:07:17Z</time>
      </trkpt>
      <trkpt lat="59.4028020" lon="17.8639350">
        <ele>24.6500000</ele>
        <time>2010-12-03T20:07:20Z</time>
      </trkpt>
      <trkpt lat="59.4028050" lon="17.8639090">
        <ele>23.6900000</ele>
        <time>2010-12-03T20:07:21Z</time>
      </trkpt>
      <trkpt lat="59.4028050" lon="17.8638740">
        <ele>23.6900000</ele>
        <time>2010-12-03T20:07:22Z</time>
      </trkpt>
      <trkpt lat="59.4027980" lon="17.8638340">
        <ele>24.1700000</ele>
        <time>2010-12-03T20:07:23Z</time>
      </trkpt>
      <trkpt lat="59.4027790" lon="17.8637910">
        <ele>24.1700000</ele>
        <time>2010-12-03T20:07:24Z</time>
      </trkpt>
      <trkpt lat="59.4027560" lon="17.8637500">
        <ele>23.6900000</ele>
        <time>2010-12-03T20:07:25Z</time>
      </trkpt>
      <trkpt lat="59.4027250" lon="17.8637200">
        <ele>24.1700000</ele>
        <time>2010-12-03T20:07:26Z</time>
      </trkpt>
      <trkpt lat="59.4026870" lon="17.8636890">
        <ele>24.1700000</ele>
        <time>2010-12-03T20:07:27Z</time>
      </trkpt>
      <trkpt lat="59.4026450" lon="17.8636630">
        <ele>24.1700000</ele>
        <time>2010-12-03T20:07:28Z</time>
      </trkpt>
      <trkpt lat="59.4024580" lon="17.8635120">
        <ele>24.1700000</ele>
        <time>2010-12-03T20:07:32Z</time>
      </trkpt>
      <trkpt lat="59.4018750" lon="17.8631130">
        <ele>26.5700000</ele>
        <time>2010-12-03T20:07:44Z</time>
      </trkpt>
      <trkpt lat="59.4016720" lon="17.8630680">
        <ele>27.5300000</ele>
        <time>2010-12-03T20:07:48Z</time>
      </trkpt>
      <trkpt lat="59.4016270" lon="17.8630540">
        <ele>28.0200000</ele>
        <time>2010-12-03T20:07:49Z</time>
      </trkpt>
      <trkpt lat="59.4010200" lon="17.8629260">
        <ele>30.9000000</ele>
        <time>2010-12-03T20:08:02Z</time>
      </trkpt>
      <trkpt lat="59.4003910" lon="17.8626980">
        <ele>31.3800000</ele>
        <time>2010-12-03T20:08:15Z</time>
      </trkpt>
      <trkpt lat="59.3998300" lon="17.8622360">
        <ele>30.4200000</ele>
        <time>2010-12-03T20:08:26Z</time>
      </trkpt>
      <trkpt lat="59.3992350" lon="17.8617460">
        <ele>32.8200000</ele>
        <time>2010-12-03T20:08:38Z</time>
      </trkpt>
      <trkpt lat="59.3985860" lon="17.8613590">
        <ele>36.1900000</ele>
        <time>2010-12-03T20:08:50Z</time>
      </trkpt>
      <trkpt lat="59.3978200" lon="17.8609430">
        <ele>35.2300000</ele>
        <time>2010-12-03T20:09:04Z</time>
      </trkpt>
      <trkpt lat="59.3969460" lon="17.8604640">
        <ele>32.8200000</ele>
        <time>2010-12-03T20:09:19Z</time>
      </trkpt>
      <trkpt lat="59.3963740" lon="17.8601510">
        <ele>29.9400000</ele>
        <time>2010-12-03T20:09:28Z</time>
      </trkpt>
      <trkpt lat="59.3960150" lon="17.8599150">
        <ele>27.5300000</ele>
        <time>2010-12-03T20:09:33Z</time>
      </trkpt>
      <trkpt lat="59.3955380" lon="17.8593200">
        <ele>24.1700000</ele>
        <time>2010-12-03T20:09:40Z</time>
      </trkpt>
      <trkpt lat="59.3954810" lon="17.8592090">
        <ele>24.1700000</ele>
        <time>2010-12-03T20:09:41Z</time>
      </trkpt>
      <trkpt lat="59.3952900" lon="17.8587890">
        <ele>22.7300000</ele>
        <time>2010-12-03T20:09:45Z</time>
      </trkpt>
      <trkpt lat="59.3952560" lon="17.8586850">
        <ele>18.8800000</ele>
        <time>2010-12-03T20:09:46Z</time>
      </trkpt>
      <trkpt lat="59.3952180" lon="17.8585780">
        <ele>22.7300000</ele>
        <time>2010-12-03T20:09:47Z</time>
      </trkpt>
      <trkpt lat="59.3951840" lon="17.8584710">
        <ele>18.8800000</ele>
        <time>2010-12-03T20:09:48Z</time>
      </trkpt>
      <trkpt lat="59.3951450" lon="17.8583600">
        <ele>22.2500000</ele>
        <time>2010-12-03T20:09:49Z</time>
      </trkpt>
      <trkpt lat="59.3948780" lon="17.8575840">
        <ele>20.8100000</ele>
        <time>2010-12-03T20:09:58Z</time>
      </trkpt>
      <trkpt lat="59.3947830" lon="17.8573250">
        <ele>20.3200000</ele>
        <time>2010-12-03T20:10:07Z</time>
      </trkpt>
      <trkpt lat="59.3947790" lon="17.8573150">
        <ele>19.8400000</ele>
        <time>2010-12-03T20:10:16Z</time>
      </trkpt>
      <trkpt lat="59.3947680" lon="17.8572900">
        <ele>19.3600000</ele>
        <time>2010-12-03T20:10:38Z</time>
      </trkpt>
      <trkpt lat="59.3945960" lon="17.8571190">
        <ele>19.3600000</ele>
        <time>2010-12-03T20:10:45Z</time>
      </trkpt>
      <trkpt lat="59.3945660" lon="17.8571490">
        <ele>19.3600000</ele>
        <time>2010-12-03T20:10:46Z</time>
      </trkpt>
      <trkpt lat="59.3945390" lon="17.8572080">
        <ele>19.3600000</ele>
        <time>2010-12-03T20:10:47Z</time>
      </trkpt>
      <trkpt lat="59.3945120" lon="17.8572860">
        <ele>19.3600000</ele>
        <time>2010-12-03T20:10:48Z</time>
      </trkpt>
      <trkpt lat="59.3944850" lon="17.8573760">
        <ele>19.3600000</ele>
        <time>2010-12-03T20:10:49Z</time>
      </trkpt>
      <trkpt lat="59.3944660" lon="17.8574730">
        <ele>18.8800000</ele>
        <time>2010-12-03T20:10:50Z</time>
      </trkpt>
      <trkpt lat="59.3944510" lon="17.8575800">
        <ele>18.8800000</ele>
        <time>2010-12-03T20:10:51Z</time>
      </trkpt>
      <trkpt lat="59.3944440" lon="17.8576910">
        <ele>19.3600000</ele>
        <time>2010-12-03T20:10:52Z</time>
      </trkpt>
      <trkpt lat="59.3944360" lon="17.8578030">
        <ele>19.3600000</ele>
        <time>2010-12-03T20:10:53Z</time>
      </trkpt>
      <trkpt lat="59.3944320" lon="17.8579160">
        <ele>19.8400000</ele>
        <time>2010-12-03T20:10:54Z</time>
      </trkpt>
      <trkpt lat="59.3943820" lon="17.8591370">
        <ele>19.8400000</ele>
        <time>2010-12-03T20:11:05Z</time>
      </trkpt>
      <trkpt lat="59.3942910" lon="17.8606070">
        <ele>20.8100000</ele>
        <time>2010-12-03T20:11:18Z</time>
      </trkpt>
      <trkpt lat="59.3941310" lon="17.8621670">
        <ele>21.7700000</ele>
        <time>2010-12-03T20:11:32Z</time>
      </trkpt>
      <trkpt lat="59.3938940" lon="17.8635640">
        <ele>24.1700000</ele>
        <time>2010-12-03T20:11:46Z</time>
      </trkpt>
      <trkpt lat="59.3936270" lon="17.8650150">
        <ele>23.6900000</ele>
        <time>2010-12-03T20:11:59Z</time>
      </trkpt>
      <trkpt lat="59.3933530" lon="17.8664820">
        <ele>23.2100000</ele>
        <time>2010-12-03T20:12:12Z</time>
      </trkpt>
      <trkpt lat="59.3931430" lon="17.8673480">
        <ele>23.2100000</ele>
        <time>2010-12-03T20:12:20Z</time>
      </trkpt>
      <trkpt lat="59.3930280" lon="17.8676490">
        <ele>22.2500000</ele>
        <time>2010-12-03T20:12:23Z</time>
      </trkpt>
      <trkpt lat="59.3925860" lon="17.8686870">
        <ele>21.7700000</ele>
        <time>2010-12-03T20:12:34Z</time>
      </trkpt>
      <trkpt lat="59.3922650" lon="17.8695050">
        <ele>22.7300000</ele>
        <time>2010-12-03T20:12:45Z</time>
      </trkpt>
      <trkpt lat="59.3921810" lon="17.8697010">
        <ele>23.2100000</ele>
        <time>2010-12-03T20:12:52Z</time>
      </trkpt>
      <trkpt lat="59.3921050" lon="17.8698860">
        <ele>23.2100000</ele>
        <time>2010-12-03T20:13:03Z</time>
      </trkpt>
      <trkpt lat="59.3918800" lon="17.8704590">
        <ele>22.7300000</ele>
        <time>2010-12-03T20:13:11Z</time>
      </trkpt>
      <trkpt lat="59.3913690" lon="17.8713570">
        <ele>22.2500000</ele>
        <time>2010-12-03T20:13:22Z</time>
      </trkpt>
      <trkpt lat="59.3906480" lon="17.8718340">
        <ele>21.2900000</ele>
        <time>2010-12-03T20:13:34Z</time>
      </trkpt>
      <trkpt lat="59.3898700" lon="17.8723530">
        <ele>23.2100000</ele>
        <time>2010-12-03T20:13:47Z</time>
      </trkpt>
      <trkpt lat="59.3892970" lon="17.8732680">
        <ele>24.1700000</ele>
        <time>2010-12-03T20:13:59Z</time>
      </trkpt>
      <trkpt lat="59.3887100" lon="17.8746570">
        <ele>22.7300000</ele>
        <time>2010-12-03T20:14:13Z</time>
      </trkpt>
      <trkpt lat="59.3882830" lon="17.8757670">
        <ele>20.8100000</ele>
        <time>2010-12-03T20:14:25Z</time>
      </trkpt>
      <trkpt lat="59.3878250" lon="17.8772090">
        <ele>18.4000000</ele>
        <time>2010-12-03T20:14:37Z</time>
      </trkpt>
      <trkpt lat="59.3875200" lon="17.8785610">
        <ele>17.4400000</ele>
        <time>2010-12-03T20:14:48Z</time>
      </trkpt>
      <trkpt lat="59.3873940" lon="17.8797280">
        <ele>16.0000000</ele>
        <time>2010-12-03T20:14:58Z</time>
      </trkpt>
      <trkpt lat="59.3873670" lon="17.8798260">
        <ele>15.5200000</ele>
        <time>2010-12-03T20:14:59Z</time>
      </trkpt>
      <trkpt lat="59.3873140" lon="17.8800180">
        <ele>15.5200000</ele>
        <time>2010-12-03T20:15:01Z</time>
      </trkpt>
      <trkpt lat="59.3873020" lon="17.8801190">
        <ele>15.5200000</ele>
        <time>2010-12-03T20:15:02Z</time>
      </trkpt>
      <trkpt lat="59.3873020" lon="17.8802280">
        <ele>15.5200000</ele>
        <time>2010-12-03T20:15:03Z</time>
      </trkpt>
      <trkpt lat="59.3873180" lon="17.8803350">
        <ele>15.5200000</ele>
        <time>2010-12-03T20:15:04Z</time>
      </trkpt>
      <trkpt lat="59.3873440" lon="17.8804450">
        <ele>15.5200000</ele>
        <time>2010-12-03T20:15:05Z</time>
      </trkpt>
      <trkpt lat="59.3873710" lon="17.8805620">
        <ele>15.0400000</ele>
        <time>2010-12-03T20:15:06Z</time>
      </trkpt>
      <trkpt lat="59.3875160" lon="17.8818190">
        <ele>14.0800000</ele>
        <time>2010-12-03T20:15:15Z</time>
      </trkpt>
      <trkpt lat="59.3874660" lon="17.8834710">
        <ele>12.6300000</ele>
        <time>2010-12-03T20:15:27Z</time>
      </trkpt>
      <trkpt lat="59.3871880" lon="17.8851760">
        <ele>11.1900000</ele>
        <time>2010-12-03T20:15:40Z</time>
      </trkpt>
      <trkpt lat="59.3869820" lon="17.8871560">
        <ele>11.1900000</ele>
        <time>2010-12-03T20:15:55Z</time>
      </trkpt>
      <trkpt lat="59.3867800" lon="17.8892750">
        <ele>9.2700000</ele>
        <time>2010-12-03T20:16:10Z</time>
      </trkpt>
      <trkpt lat="59.3864360" lon="17.8910010">
        <ele>7.8300000</ele>
        <time>2010-12-03T20:16:23Z</time>
      </trkpt>
      <trkpt lat="59.3862000" lon="17.8917060">
        <ele>6.8700000</ele>
        <time>2010-12-03T20:16:30Z</time>
      </trkpt>
      <trkpt lat="59.3861580" lon="17.8917770">
        <ele>6.8700000</ele>
        <time>2010-12-03T20:16:31Z</time>
      </trkpt>
      <trkpt lat="59.3861160" lon="17.8918400">
        <ele>6.8700000</ele>
        <time>2010-12-03T20:16:32Z</time>
      </trkpt>
      <trkpt lat="59.3860700" lon="17.8919070">
        <ele>6.8700000</ele>
        <time>2010-12-03T20:16:33Z</time>
      </trkpt>
      <trkpt lat="59.3860280" lon="17.8919890">
        <ele>6.3900000</ele>
        <time>2010-12-03T20:16:34Z</time>
      </trkpt>
      <trkpt lat="59.3859940" lon="17.8920880">
        <ele>6.3900000</ele>
        <time>2010-12-03T20:16:35Z</time>
      </trkpt>
      <trkpt lat="59.3859710" lon="17.8922020">
        <ele>6.8700000</ele>
        <time>2010-12-03T20:16:36Z</time>
      </trkpt>
      <trkpt lat="59.3859520" lon="17.8923260">
        <ele>6.8700000</ele>
        <time>2010-12-03T20:16:37Z</time>
      </trkpt>
      <trkpt lat="59.3856770" lon="17.8932700">
        <ele>7.3500000</ele>
        <time>2010-12-03T20:16:45Z</time>
      </trkpt>
      <trkpt lat="59.3851740" lon="17.8943350">
        <ele>6.8700000</ele>
        <time>2010-12-03T20:16:56Z</time>
      </trkpt>
      <trkpt lat="59.3845290" lon="17.8955100">
        <ele>6.3900000</ele>
        <time>2010-12-03T20:17:09Z</time>
      </trkpt>
      <trkpt lat="59.3838420" lon="17.8967480">
        <ele>7.3500000</ele>
        <time>2010-12-03T20:17:23Z</time>
      </trkpt>
      <trkpt lat="59.3832470" lon="17.8976550">
        <ele>6.8700000</ele>
        <time>2010-12-03T20:17:35Z</time>
      </trkpt>
      <trkpt lat="59.3829040" lon="17.8983120">
        <ele>7.8300000</ele>
        <time>2010-12-03T20:17:45Z</time>
      </trkpt>
      <trkpt lat="59.3826370" lon="17.8988420">
        <ele>8.3100000</ele>
        <time>2010-12-03T20:17:52Z</time>
      </trkpt>
      <trkpt lat="59.3822140" lon="17.8998110">
        <ele>7.8300000</ele>
        <time>2010-12-03T20:18:03Z</time>
      </trkpt>
      <trkpt lat="59.3818400" lon="17.9008060">
        <ele>7.3500000</ele>
        <time>2010-12-03T20:18:13Z</time>
      </trkpt>
      <trkpt lat="59.3817440" lon="17.9010580">
        <ele>6.8700000</ele>
        <time>2010-12-03T20:18:16Z</time>
      </trkpt>
      <trkpt lat="59.3815920" lon="17.9013940">
        <ele>7.8300000</ele>
        <time>2010-12-03T20:18:24Z</time>
      </trkpt>
      <trkpt lat="59.3815460" lon="17.9014760">
        <ele>7.8300000</ele>
        <time>2010-12-03T20:18:32Z</time>
      </trkpt>
      <trkpt lat="59.3815080" lon="17.9015830">
        <ele>7.3500000</ele>
        <time>2010-12-03T20:18:34Z</time>
      </trkpt>
      <trkpt lat="59.3814770" lon="17.9016460">
        <ele>7.8300000</ele>
        <time>2010-12-03T20:18:35Z</time>
      </trkpt>
      <trkpt lat="59.3811150" lon="17.9024930">
        <ele>8.7900000</ele>
        <time>2010-12-03T20:18:45Z</time>
      </trkpt>
      <trkpt lat="59.3806300" lon="17.9036290">
        <ele>9.2700000</ele>
        <time>2010-12-03T20:18:57Z</time>
      </trkpt>
      <trkpt lat="59.3801310" lon="17.9044040">
        <ele>7.3500000</ele>
        <time>2010-12-03T20:19:07Z</time>
      </trkpt>
      <trkpt lat="59.3800090" lon="17.9045180">
        <ele>7.3500000</ele>
        <time>2010-12-03T20:19:09Z</time>
      </trkpt>
      <trkpt lat="59.3792650" lon="17.9048770">
        <ele>7.8300000</ele>
        <time>2010-12-03T20:19:21Z</time>
      </trkpt>
      <trkpt lat="59.3787610" lon="17.9050830">
        <ele>8.7900000</ele>
        <time>2010-12-03T20:19:31Z</time>
      </trkpt>
      <trkpt lat="59.3786810" lon="17.9050850">
        <ele>8.7900000</ele>
        <time>2010-12-03T20:19:33Z</time>
      </trkpt>
      <trkpt lat="59.3786350" lon="17.9050450">
        <ele>8.7900000</ele>
        <time>2010-12-03T20:19:34Z</time>
      </trkpt>
      <trkpt lat="59.3785930" lon="17.9049780">
        <ele>8.3100000</ele>
        <time>2010-12-03T20:19:35Z</time>
      </trkpt>
      <trkpt lat="59.3785550" lon="17.9048980">
        <ele>8.3100000</ele>
        <time>2010-12-03T20:19:36Z</time>
      </trkpt>
      <trkpt lat="59.3785130" lon="17.9048180">
        <ele>8.7900000</ele>
        <time>2010-12-03T20:19:37Z</time>
      </trkpt>
      <trkpt lat="59.3784750" lon="17.9047430">
        <ele>8.3100000</ele>
        <time>2010-12-03T20:19:38Z</time>
      </trkpt>
      <trkpt lat="59.3783300" lon="17.9044930">
        <ele>8.7900000</ele>
        <time>2010-12-03T20:19:42Z</time>
      </trkpt>
      <trkpt lat="59.3782880" lon="17.9044650">
        <ele>9.2700000</ele>
        <time>2010-12-03T20:19:43Z</time>
      </trkpt>
      <trkpt lat="59.3782460" lon="17.9044630">
        <ele>8.7900000</ele>
        <time>2010-12-03T20:19:44Z</time>
      </trkpt>
      <trkpt lat="59.3781970" lon="17.9044930">
        <ele>8.3100000</ele>
        <time>2010-12-03T20:19:45Z</time>
      </trkpt>
      <trkpt lat="59.3781550" lon="17.9045470">
        <ele>8.7900000</ele>
        <time>2010-12-03T20:19:46Z</time>
      </trkpt>
      <trkpt lat="59.3781130" lon="17.9046130">
        <ele>8.7900000</ele>
        <time>2010-12-03T20:19:47Z</time>
      </trkpt>
      <trkpt lat="59.3780750" lon="17.9046960">
        <ele>8.7900000</ele>
        <time>2010-12-03T20:19:48Z</time>
      </trkpt>
      <trkpt lat="59.3780360" lon="17.9047890">
        <ele>8.3100000</ele>
        <time>2010-12-03T20:19:49Z</time>
      </trkpt>
      <trkpt lat="59.3779980" lon="17.9048900">
        <ele>8.7900000</ele>
        <time>2010-12-03T20:19:50Z</time>
      </trkpt>
      <trkpt lat="59.3778150" lon="17.9055540">
        <ele>7.8300000</ele>
        <time>2010-12-03T20:19:56Z</time>
      </trkpt>
      <trkpt lat="59.3778000" lon="17.9056800">
        <ele>8.3100000</ele>
        <time>2010-12-03T20:19:57Z</time>
      </trkpt>
      <trkpt lat="59.3777890" lon="17.9058060">
        <ele>7.8300000</ele>
        <time>2010-12-03T20:19:58Z</time>
      </trkpt>
      <trkpt lat="59.3777200" lon="17.9067340">
        <ele>7.8300000</ele>
        <time>2010-12-03T20:20:06Z</time>
      </trkpt>
      <trkpt lat="59.3774070" lon="17.9077490">
        <ele>8.3100000</ele>
        <time>2010-12-03T20:20:17Z</time>
      </trkpt>
      <trkpt lat="59.3773610" lon="17.9078750">
        <ele>8.7900000</ele>
        <time>2010-12-03T20:20:23Z</time>
      </trkpt>
      <trkpt lat="59.3773540" lon="17.9078980">
        <ele>9.2700000</ele>
        <time>2010-12-03T20:20:25Z</time>
      </trkpt>
      <trkpt lat="59.3773460" lon="17.9079320">
        <ele>8.7900000</ele>
        <time>2010-12-03T20:20:26Z</time>
      </trkpt>
      <trkpt lat="59.3773310" lon="17.9079740">
        <ele>8.7900000</ele>
        <time>2010-12-03T20:20:27Z</time>
      </trkpt>
      <trkpt lat="59.3773160" lon="17.9080200">
        <ele>8.7900000</ele>
        <time>2010-12-03T20:20:28Z</time>
      </trkpt>
      <trkpt lat="59.3772960" lon="17.9080720">
        <ele>8.7900000</ele>
        <time>2010-12-03T20:20:29Z</time>
      </trkpt>
      <trkpt lat="59.3772810" lon="17.9081270">
        <ele>8.3100000</ele>
        <time>2010-12-03T20:20:30Z</time>
      </trkpt>
      <trkpt lat="59.3771480" lon="17.9086400">
        <ele>8.7900000</ele>
        <time>2010-12-03T20:20:40Z</time>
      </trkpt>
      <trkpt lat="59.3769870" lon="17.9091490">
        <ele>8.7900000</ele>
        <time>2010-12-03T20:20:49Z</time>
      </trkpt>
      <trkpt lat="59.3768310" lon="17.9096030">
        <ele>10.2300000</ele>
        <time>2010-12-03T20:20:59Z</time>
      </trkpt>
      <trkpt lat="59.3768230" lon="17.9096340">
        <ele>10.2300000</ele>
        <time>2010-12-03T20:21:09Z</time>
      </trkpt>
      <trkpt lat="59.3767970" lon="17.9096550">
        <ele>9.7500000</ele>
        <time>2010-12-03T20:21:23Z</time>
      </trkpt>
      <trkpt lat="59.3767850" lon="17.9096740">
        <ele>9.7500000</ele>
        <time>2010-12-03T20:21:24Z</time>
      </trkpt>
      <trkpt lat="59.3767740" lon="17.9096980">
        <ele>9.7500000</ele>
        <time>2010-12-03T20:21:25Z</time>
      </trkpt>
      <trkpt lat="59.3765530" lon="17.9102310">
        <ele>9.2700000</ele>
        <time>2010-12-03T20:21:36Z</time>
      </trkpt>
      <trkpt lat="59.3761370" lon="17.9112420">
        <ele>6.8700000</ele>
        <time>2010-12-03T20:21:48Z</time>
      </trkpt>
      <trkpt lat="59.3756220" lon="17.9124970">
        <ele>3.9800000</ele>
        <time>2010-12-03T20:22:01Z</time>
      </trkpt>
      <trkpt lat="59.3750420" lon="17.9139040">
        <ele>3.9800000</ele>
        <time>2010-12-03T20:22:16Z</time>
      </trkpt>
      <trkpt lat="59.3745730" lon="17.9151020">
        <ele>3.9800000</ele>
        <time>2010-12-03T20:22:28Z</time>
      </trkpt>
      <trkpt lat="59.3741110" lon="17.9162520">
        <ele>4.4600000</ele>
        <time>2010-12-03T20:22:40Z</time>
      </trkpt>
      <trkpt lat="59.3735580" lon="17.9175430">
        <ele>3.9800000</ele>
        <time>2010-12-03T20:22:55Z</time>
      </trkpt>
      <trkpt lat="59.3734280" lon="17.9177930">
        <ele>3.9800000</ele>
        <time>2010-12-03T20:22:58Z</time>
      </trkpt>
      <trkpt lat="59.3727990" lon="17.9188750">
        <ele>3.0200000</ele>
        <time>2010-12-03T20:23:11Z</time>
      </trkpt>
      <trkpt lat="59.3720930" lon="17.9198420">
        <ele>3.9800000</ele>
        <time>2010-12-03T20:23:25Z</time>
      </trkpt>
      <trkpt lat="59.3715590" lon="17.9202840">
        <ele>2.0600000</ele>
        <time>2010-12-03T20:23:36Z</time>
      </trkpt>
      <trkpt lat="59.3713840" lon="17.9203470">
        <ele>2.0600000</ele>
        <time>2010-12-03T20:23:40Z</time>
      </trkpt>
      <trkpt lat="59.3713460" lon="17.9203950">
        <ele>2.5400000</ele>
        <time>2010-12-03T20:23:41Z</time>
      </trkpt>
      <trkpt lat="59.3713150" lon="17.9204670">
        <ele>2.0600000</ele>
        <time>2010-12-03T20:23:42Z</time>
      </trkpt>
      <trkpt lat="59.3712920" lon="17.9205470">
        <ele>2.5400000</ele>
        <time>2010-12-03T20:23:43Z</time>
      </trkpt>
      <trkpt lat="59.3712690" lon="17.9206310">
        <ele>3.0200000</ele>
        <time>2010-12-03T20:23:44Z</time>
      </trkpt>
      <trkpt lat="59.3712430" lon="17.9207130">
        <ele>2.5400000</ele>
        <time>2010-12-03T20:23:45Z</time>
      </trkpt>
      <trkpt lat="59.3712040" lon="17.9207820">
        <ele>2.0600000</ele>
        <time>2010-12-03T20:23:46Z</time>
      </trkpt>
      <trkpt lat="59.3711550" lon="17.9208370">
        <ele>2.0600000</ele>
        <time>2010-12-03T20:23:47Z</time>
      </trkpt>
      <trkpt lat="59.3710980" lon="17.9208870">
        <ele>2.5400000</ele>
        <time>2010-12-03T20:23:48Z</time>
      </trkpt>
      <trkpt lat="59.3710400" lon="17.9209380">
        <ele>2.0600000</ele>
        <time>2010-12-03T20:23:49Z</time>
      </trkpt>
      <trkpt lat="59.3704910" lon="17.9216670">
        <ele>1.5800000</ele>
        <time>2010-12-03T20:24:00Z</time>
      </trkpt>
      <trkpt lat="59.3699840" lon="17.9227010">
        <ele>1.5800000</ele>
        <time>2010-12-03T20:24:12Z</time>
      </trkpt>
      <trkpt lat="59.3693580" lon="17.9241870">
        <ele>1.5800000</ele>
        <time>2010-12-03T20:24:28Z</time>
      </trkpt>
      <trkpt lat="59.3688280" lon="17.9248100">
        <ele>2.0600000</ele>
        <time>2010-12-03T20:24:38Z</time>
      </trkpt>
      <trkpt lat="59.3679280" lon="17.9256080">
        <ele>3.5000000</ele>
        <time>2010-12-03T20:24:54Z</time>
      </trkpt>
      <trkpt lat="59.3676720" lon="17.9259170">
        <ele>3.5000000</ele>
        <time>2010-12-03T20:24:59Z</time>
      </trkpt>
      <trkpt lat="59.3676300" lon="17.9259970">
        <ele>3.9800000</ele>
        <time>2010-12-03T20:25:00Z</time>
      </trkpt>
      <trkpt lat="59.3675880" lon="17.9260860">
        <ele>3.5000000</ele>
        <time>2010-12-03T20:25:01Z</time>
      </trkpt>
      <trkpt lat="59.3675580" lon="17.9261820">
        <ele>3.5000000</ele>
        <time>2010-12-03T20:25:02Z</time>
      </trkpt>
      <trkpt lat="59.3675230" lon="17.9262770">
        <ele>3.5000000</ele>
        <time>2010-12-03T20:25:03Z</time>
      </trkpt>
      <trkpt lat="59.3674810" lon="17.9263710">
        <ele>3.9800000</ele>
        <time>2010-12-03T20:25:04Z</time>
      </trkpt>
      <trkpt lat="59.3674430" lon="17.9264560">
        <ele>3.5000000</ele>
        <time>2010-12-03T20:25:05Z</time>
      </trkpt>
      <trkpt lat="59.3669930" lon="17.9276200">
        <ele>3.5000000</ele>
        <time>2010-12-03T20:25:17Z</time>
      </trkpt>
      <trkpt lat="59.3665540" lon="17.9288080">
        <ele>3.5000000</ele>
        <time>2010-12-03T20:25:30Z</time>
      </trkpt>
      <trkpt lat="59.3664320" lon="17.9292010">
        <ele>3.0200000</ele>
        <time>2010-12-03T20:25:35Z</time>
      </trkpt>
      <trkpt lat="59.3660550" lon="17.9301380">
        <ele>2.5400000</ele>
        <time>2010-12-03T20:25:45Z</time>
      </trkpt>
      <trkpt lat="59.3656390" lon="17.9311280">
        <ele>3.0200000</ele>
        <time>2010-12-03T20:25:56Z</time>
      </trkpt>
      <trkpt lat="59.3651700" lon="17.9321350">
        <ele>3.5000000</ele>
        <time>2010-12-03T20:26:08Z</time>
      </trkpt>
      <trkpt lat="59.3646510" lon="17.9331930">
        <ele>3.5000000</ele>
        <time>2010-12-03T20:26:21Z</time>
      </trkpt>
      <trkpt lat="59.3642230" lon="17.9339160">
        <ele>4.4600000</ele>
        <time>2010-12-03T20:26:31Z</time>
      </trkpt>
      <trkpt lat="59.3636050" lon="17.9349370">
        <ele>4.9400000</ele>
        <time>2010-12-03T20:26:45Z</time>
      </trkpt>
      <trkpt lat="59.3630220" lon="17.9357620">
        <ele>5.4200000</ele>
        <time>2010-12-03T20:26:58Z</time>
      </trkpt>
      <trkpt lat="59.3625220" lon="17.9364700">
        <ele>6.3900000</ele>
        <time>2010-12-03T20:27:09Z</time>
      </trkpt>
      <trkpt lat="59.3617940" lon="17.9374240">
        <ele>3.9800000</ele>
        <time>2010-12-03T20:27:23Z</time>
      </trkpt>
      <trkpt lat="59.3614390" lon="17.9378150">
        <ele>3.9800000</ele>
        <time>2010-12-03T20:27:31Z</time>
      </trkpt>
      <trkpt lat="59.3614080" lon="17.9378850">
        <ele>4.4600000</ele>
        <time>2010-12-03T20:27:32Z</time>
      </trkpt>
      <trkpt lat="59.3613850" lon="17.9379710">
        <ele>4.4600000</ele>
        <time>2010-12-03T20:27:33Z</time>
      </trkpt>
      <trkpt lat="59.3613740" lon="17.9380660">
        <ele>4.4600000</ele>
        <time>2010-12-03T20:27:34Z</time>
      </trkpt>
      <trkpt lat="59.3613700" lon="17.9381710">
        <ele>4.4600000</ele>
        <time>2010-12-03T20:27:35Z</time>
      </trkpt>
      <trkpt lat="59.3613740" lon="17.9382920">
        <ele>3.9800000</ele>
        <time>2010-12-03T20:27:36Z</time>
      </trkpt>
      <trkpt lat="59.3613820" lon="17.9384120">
        <ele>4.4600000</ele>
        <time>2010-12-03T20:27:37Z</time>
      </trkpt>
      <trkpt lat="59.3614010" lon="17.9395710">
        <ele>6.3900000</ele>
        <time>2010-12-03T20:27:48Z</time>
      </trkpt>
      <trkpt lat="59.3613930" lon="17.9396630">
        <ele>6.3900000</ele>
        <time>2010-12-03T20:27:49Z</time>
      </trkpt>
      <trkpt lat="59.3613700" lon="17.9397470">
        <ele>6.3900000</ele>
        <time>2010-12-03T20:27:50Z</time>
      </trkpt>
      <trkpt lat="59.3613550" lon="17.9398380">
        <ele>6.8700000</ele>
        <time>2010-12-03T20:27:51Z</time>
      </trkpt>
      <trkpt lat="59.3612980" lon="17.9408320">
        <ele>9.2700000</ele>
        <time>2010-12-03T20:28:01Z</time>
      </trkpt>
      <trkpt lat="59.3612750" lon="17.9415260">
        <ele>11.1900000</ele>
        <time>2010-12-03T20:28:08Z</time>
      </trkpt>
      <trkpt lat="59.3612630" lon="17.9417840">
        <ele>10.7100000</ele>
        <time>2010-12-03T20:28:11Z</time>
      </trkpt>
      <trkpt lat="59.3612480" lon="17.9418560">
        <ele>11.1900000</ele>
        <time>2010-12-03T20:28:12Z</time>
      </trkpt>
      <trkpt lat="59.3611150" lon="17.9426100">
        <ele>9.2700000</ele>
        <time>2010-12-03T20:28:21Z</time>
      </trkpt>
      <trkpt lat="59.3609960" lon="17.9433780">
        <ele>6.8700000</ele>
        <time>2010-12-03T20:28:30Z</time>
      </trkpt>
      <trkpt lat="59.3609580" lon="17.9434150">
        <ele>6.8700000</ele>
        <time>2010-12-03T20:28:31Z</time>
      </trkpt>
      <trkpt lat="59.3609160" lon="17.9434450">
        <ele>6.8700000</ele>
        <time>2010-12-03T20:28:32Z</time>
      </trkpt>
      <trkpt lat="59.3604550" lon="17.9437470">
        <ele>7.3500000</ele>
        <time>2010-12-03T20:28:43Z</time>
      </trkpt>
      <trkpt lat="59.3598630" lon="17.9441390">
        <ele>7.8300000</ele>
        <time>2010-12-03T20:28:57Z</time>
      </trkpt>
      <trkpt lat="59.3593330" lon="17.9445860">
        <ele>7.3500000</ele>
        <time>2010-12-03T20:29:10Z</time>
      </trkpt>
      <trkpt lat="59.3588370" lon="17.9452720">
        <ele>6.3900000</ele>
        <time>2010-12-03T20:29:22Z</time>
      </trkpt>
      <trkpt lat="59.3583490" lon="17.9465070">
        <ele>5.4200000</ele>
        <time>2010-12-03T20:29:36Z</time>
      </trkpt>
      <trkpt lat="59.3580550" lon="17.9478760">
        <ele>5.4200000</ele>
        <time>2010-12-03T20:29:49Z</time>
      </trkpt>
      <trkpt lat="59.3580440" lon="17.9480000">
        <ele>4.9400000</ele>
        <time>2010-12-03T20:29:50Z</time>
      </trkpt>
      <trkpt lat="59.3580250" lon="17.9481120">
        <ele>4.9400000</ele>
        <time>2010-12-03T20:29:51Z</time>
      </trkpt>
      <trkpt lat="59.3578680" lon="17.9487920">
        <ele>5.4200000</ele>
        <time>2010-12-03T20:29:59Z</time>
      </trkpt>
      <trkpt lat="59.3578410" lon="17.9489170">
        <ele>4.9400000</ele>
        <time>2010-12-03T20:30:01Z</time>
      </trkpt>
      <trkpt lat="59.3577840" lon="17.9492910">
        <ele>4.4600000</ele>
        <time>2010-12-03T20:30:05Z</time>
      </trkpt>
      <trkpt lat="59.3575400" lon="17.9505080">
        <ele>3.9800000</ele>
        <time>2010-12-03T20:30:17Z</time>
      </trkpt>
      <trkpt lat="59.3572240" lon="17.9521240">
        <ele>3.0200000</ele>
        <time>2010-12-03T20:30:31Z</time>
      </trkpt>
      <trkpt lat="59.3568120" lon="17.9540330">
        <ele>3.0200000</ele>
        <time>2010-12-03T20:30:48Z</time>
      </trkpt>
      <trkpt lat="59.3564800" lon="17.9551870">
        <ele>3.0200000</ele>
        <time>2010-12-03T20:30:59Z</time>
      </trkpt>
      <trkpt lat="59.3564570" lon="17.9552630">
        <ele>2.5400000</ele>
        <time>2010-12-03T20:31:00Z</time>
      </trkpt>
      <trkpt lat="59.3564380" lon="17.9553300">
        <ele>2.5400000</ele>
        <time>2010-12-03T20:31:01Z</time>
      </trkpt>
      <trkpt lat="59.3564110" lon="17.9554040">
        <ele>2.5400000</ele>
        <time>2010-12-03T20:31:02Z</time>
      </trkpt>
      <trkpt lat="59.3563840" lon="17.9554820">
        <ele>2.5400000</ele>
        <time>2010-12-03T20:31:03Z</time>
      </trkpt>
      <trkpt lat="59.3563540" lon="17.9555570">
        <ele>2.5400000</ele>
        <time>2010-12-03T20:31:04Z</time>
      </trkpt>
      <trkpt lat="59.3563160" lon="17.9556330">
        <ele>2.5400000</ele>
        <time>2010-12-03T20:31:05Z</time>
      </trkpt>
      <trkpt lat="59.3559800" lon="17.9564510">
        <ele>2.0600000</ele>
        <time>2010-12-03T20:31:13Z</time>
      </trkpt>
      <trkpt lat="59.3553580" lon="17.9576760">
        <ele>1.5800000</ele>
        <time>2010-12-03T20:31:27Z</time>
      </trkpt>
      <trkpt lat="59.3552630" lon="17.9578150">
        <ele>1.5800000</ele>
        <time>2010-12-03T20:31:29Z</time>
      </trkpt>
      <trkpt lat="59.3552060" lon="17.9578780">
        <ele>1.5800000</ele>
        <time>2010-12-03T20:31:30Z</time>
      </trkpt>
      <trkpt lat="59.3546370" lon="17.9583870">
        <ele>2.0600000</ele>
        <time>2010-12-03T20:31:40Z</time>
      </trkpt>
      <trkpt lat="59.3542790" lon="17.9585320">
        <ele>3.0200000</ele>
        <time>2010-12-03T20:31:49Z</time>
      </trkpt>
      <trkpt lat="59.3539390" lon="17.9586330">
        <ele>3.0200000</ele>
        <time>2010-12-03T20:31:57Z</time>
      </trkpt>
      <trkpt lat="59.3538890" lon="17.9586280">
        <ele>3.5000000</ele>
        <time>2010-12-03T20:31:58Z</time>
      </trkpt>
      <trkpt lat="59.3533210" lon="17.9582480">
        <ele>3.5000000</ele>
        <time>2010-12-03T20:32:10Z</time>
      </trkpt>
      <trkpt lat="59.3527030" lon="17.9573920">
        <ele>4.9400000</ele>
        <time>2010-12-03T20:32:25Z</time>
      </trkpt>
      <trkpt lat="59.3522190" lon="17.9566820">
        <ele>6.8700000</ele>
        <time>2010-12-03T20:32:37Z</time>
      </trkpt>
      <trkpt lat="59.3517910" lon="17.9560910">
        <ele>8.3100000</ele>
        <time>2010-12-03T20:32:48Z</time>
      </trkpt>
      <trkpt lat="59.3517420" lon="17.9560600">
        <ele>8.7900000</ele>
        <time>2010-12-03T20:32:49Z</time>
      </trkpt>
      <trkpt lat="59.3511390" lon="17.9559210">
        <ele>8.7900000</ele>
        <time>2010-12-03T20:33:01Z</time>
      </trkpt>
      <trkpt lat="59.3509750" lon="17.9559520">
        <ele>9.2700000</ele>
        <time>2010-12-03T20:33:04Z</time>
      </trkpt>
      <trkpt lat="59.3502850" lon="17.9562110">
        <ele>10.2300000</ele>
        <time>2010-12-03T20:33:17Z</time>
      </trkpt>
      <trkpt lat="59.3494910" lon="17.9564760">
        <ele>12.6300000</ele>
        <time>2010-12-03T20:33:32Z</time>
      </trkpt>
      <trkpt lat="59.3488160" lon="17.9567340">
        <ele>14.0800000</ele>
        <time>2010-12-03T20:33:45Z</time>
      </trkpt>
      <trkpt lat="59.3479730" lon="17.9571740">
        <ele>13.1200000</ele>
        <time>2010-12-03T20:34:00Z</time>
      </trkpt>
      <trkpt lat="59.3470920" lon="17.9576840">
        <ele>12.1500000</ele>
        <time>2010-12-03T20:34:15Z</time>
      </trkpt>
      <trkpt lat="59.3463710" lon="17.9581010">
        <ele>11.6700000</ele>
        <time>2010-12-03T20:34:27Z</time>
      </trkpt>
      <trkpt lat="59.3456040" lon="17.9585780">
        <ele>11.1900000</ele>
        <time>2010-12-03T20:34:40Z</time>
      </trkpt>
      <trkpt lat="59.3449060" lon="17.9589770">
        <ele>11.1900000</ele>
        <time>2010-12-03T20:34:52Z</time>
      </trkpt>
      <trkpt lat="59.3444670" lon="17.9592440">
        <ele>10.7100000</ele>
        <time>2010-12-03T20:35:00Z</time>
      </trkpt>
      <trkpt lat="59.3444140" lon="17.9592530">
        <ele>10.7100000</ele>
        <time>2010-12-03T20:35:01Z</time>
      </trkpt>
      <trkpt lat="59.3443030" lon="17.9592760">
        <ele>10.2300000</ele>
        <time>2010-12-03T20:35:03Z</time>
      </trkpt>
      <trkpt lat="59.3442460" lon="17.9593110">
        <ele>9.7500000</ele>
        <time>2010-12-03T20:35:04Z</time>
      </trkpt>
      <trkpt lat="59.3440970" lon="17.9594520">
        <ele>9.2700000</ele>
        <time>2010-12-03T20:35:07Z</time>
      </trkpt>
      <trkpt lat="59.3440590" lon="17.9595180">
        <ele>9.7500000</ele>
        <time>2010-12-03T20:35:08Z</time>
      </trkpt>
      <trkpt lat="59.3440210" lon="17.9595830">
        <ele>9.2700000</ele>
        <time>2010-12-03T20:35:09Z</time>
      </trkpt>
      <trkpt lat="59.3439750" lon="17.9596330">
        <ele>9.2700000</ele>
        <time>2010-12-03T20:35:10Z</time>
      </trkpt>
      <trkpt lat="59.3439220" lon="17.9596710">
        <ele>9.2700000</ele>
        <time>2010-12-03T20:35:11Z</time>
      </trkpt>
      <trkpt lat="59.3438640" lon="17.9597070">
        <ele>9.2700000</ele>
        <time>2010-12-03T20:35:12Z</time>
      </trkpt>
      <trkpt lat="59.3431090" lon="17.9602030">
        <ele>7.3500000</ele>
        <time>2010-12-03T20:35:25Z</time>
      </trkpt>
      <trkpt lat="59.3424950" lon="17.9605770">
        <ele>5.9100000</ele>
        <time>2010-12-03T20:35:36Z</time>
      </trkpt>
      <trkpt lat="59.3417280" lon="17.9610610">
        <ele>4.9400000</ele>
        <time>2010-12-03T20:35:49Z</time>
      </trkpt>
      <trkpt lat="59.3412780" lon="17.9613740">
        <ele>4.9400000</ele>
        <time>2010-12-03T20:35:58Z</time>
      </trkpt>
      <trkpt lat="59.3412320" lon="17.9613880">
        <ele>5.4200000</ele>
        <time>2010-12-03T20:35:59Z</time>
      </trkpt>
      <trkpt lat="59.3411410" lon="17.9614050">
        <ele>4.9400000</ele>
        <time>2010-12-03T20:36:01Z</time>
      </trkpt>
      <trkpt lat="59.3410950" lon="17.9614330">
        <ele>5.4200000</ele>
        <time>2010-12-03T20:36:02Z</time>
      </trkpt>
      <trkpt lat="59.3410450" lon="17.9614730">
        <ele>5.4200000</ele>
        <time>2010-12-03T20:36:03Z</time>
      </trkpt>
      <trkpt lat="59.3410000" lon="17.9615080">
        <ele>5.4200000</ele>
        <time>2010-12-03T20:36:04Z</time>
      </trkpt>
      <trkpt lat="59.3409460" lon="17.9615360">
        <ele>4.9400000</ele>
        <time>2010-12-03T20:36:05Z</time>
      </trkpt>
      <trkpt lat="59.3404350" lon="17.9619200">
        <ele>6.3900000</ele>
        <time>2010-12-03T20:36:15Z</time>
      </trkpt>
      <trkpt lat="59.3402100" lon="17.9621430">
        <ele>7.3500000</ele>
        <time>2010-12-03T20:36:20Z</time>
      </trkpt>
      <trkpt lat="59.3401300" lon="17.9622500">
        <ele>7.8300000</ele>
        <time>2010-12-03T20:36:22Z</time>
      </trkpt>
      <trkpt lat="59.3398590" lon="17.9625510">
        <ele>8.7900000</ele>
        <time>2010-12-03T20:36:29Z</time>
      </trkpt>
      <trkpt lat="59.3397250" lon="17.9626850">
        <ele>9.7500000</ele>
        <time>2010-12-03T20:36:32Z</time>
      </trkpt>
      <trkpt lat="59.3391950" lon="17.9633580">
        <ele>10.7100000</ele>
        <time>2010-12-03T20:36:43Z</time>
      </trkpt>
      <trkpt lat="59.3385810" lon="17.9640710">
        <ele>10.7100000</ele>
        <time>2010-12-03T20:36:55Z</time>
      </trkpt>
      <trkpt lat="59.3380280" lon="17.9647430">
        <ele>12.1500000</ele>
        <time>2010-12-03T20:37:07Z</time>
      </trkpt>
      <trkpt lat="59.3378260" lon="17.9649930">
        <ele>11.6700000</ele>
        <time>2010-12-03T20:37:12Z</time>
      </trkpt>
      <trkpt lat="59.3374290" lon="17.9654540">
        <ele>10.7100000</ele>
        <time>2010-12-03T20:37:21Z</time>
      </trkpt>
      <trkpt lat="59.3369940" lon="17.9659770">
        <ele>8.7900000</ele>
        <time>2010-12-03T20:37:30Z</time>
      </trkpt>
      <trkpt lat="59.3369520" lon="17.9660300">
        <ele>9.2700000</ele>
        <time>2010-12-03T20:37:31Z</time>
      </trkpt>
      <trkpt lat="59.3367000" lon="17.9663140">
        <ele>10.2300000</ele>
        <time>2010-12-03T20:37:38Z</time>
      </trkpt>
      <trkpt lat="59.3364180" lon="17.9666500">
        <ele>11.1900000</ele>
        <time>2010-12-03T20:37:46Z</time>
      </trkpt>
      <trkpt lat="59.3363840" lon="17.9666860">
        <ele>10.7100000</ele>
        <time>2010-12-03T20:37:47Z</time>
      </trkpt>
      <trkpt lat="59.3363530" lon="17.9667190">
        <ele>10.7100000</ele>
        <time>2010-12-03T20:37:48Z</time>
      </trkpt>
      <trkpt lat="59.3363230" lon="17.9667570">
        <ele>11.1900000</ele>
        <time>2010-12-03T20:37:49Z</time>
      </trkpt>
      <trkpt lat="59.3362960" lon="17.9667950">
        <ele>11.1900000</ele>
        <time>2010-12-03T20:37:50Z</time>
      </trkpt>
      <trkpt lat="59.3362690" lon="17.9668330">
        <ele>11.1900000</ele>
        <time>2010-12-03T20:37:51Z</time>
      </trkpt>
      <trkpt lat="59.3362350" lon="17.9668690">
        <ele>11.1900000</ele>
        <time>2010-12-03T20:37:52Z</time>
      </trkpt>
      <trkpt lat="59.3360940" lon="17.9670510">
        <ele>11.1900000</ele>
        <time>2010-12-03T20:37:57Z</time>
      </trkpt>
      <trkpt lat="59.3360630" lon="17.9670640">
        <ele>11.1900000</ele>
        <time>2010-12-03T20:37:58Z</time>
      </trkpt>
      <trkpt lat="59.3360330" lon="17.9670910">
        <ele>11.1900000</ele>
        <time>2010-12-03T20:37:59Z</time>
      </trkpt>
      <trkpt lat="59.3360020" lon="17.9671250">
        <ele>11.6700000</ele>
        <time>2010-12-03T20:38:00Z</time>
      </trkpt>
      <trkpt lat="59.3359760" lon="17.9671650">
        <ele>11.1900000</ele>
        <time>2010-12-03T20:38:01Z</time>
      </trkpt>
      <trkpt lat="59.3359490" lon="17.9672090">
        <ele>11.6700000</ele>
        <time>2010-12-03T20:38:02Z</time>
      </trkpt>
      <trkpt lat="59.3359220" lon="17.9672530">
        <ele>10.7100000</ele>
        <time>2010-12-03T20:38:03Z</time>
      </trkpt>
      <trkpt lat="59.3358990" lon="17.9672910">
        <ele>11.1900000</ele>
        <time>2010-12-03T20:38:04Z</time>
      </trkpt>
      <trkpt lat="59.3356630" lon="17.9675710">
        <ele>11.1900000</ele>
        <time>2010-12-03T20:38:12Z</time>
      </trkpt>
      <trkpt lat="59.3353500" lon="17.9679410">
        <ele>11.1900000</ele>
        <time>2010-12-03T20:38:21Z</time>
      </trkpt>
      <trkpt lat="59.3353120" lon="17.9679810">
        <ele>11.6700000</ele>
        <time>2010-12-03T20:38:22Z</time>
      </trkpt>
      <trkpt lat="59.3349420" lon="17.9682750">
        <ele>11.1900000</ele>
        <time>2010-12-03T20:38:32Z</time>
      </trkpt>
      <trkpt lat="59.3347850" lon="17.9681740">
        <ele>11.6700000</ele>
        <time>2010-12-03T20:38:38Z</time>
      </trkpt>
      <trkpt lat="59.3347780" lon="17.9681720">
        <ele>11.6700000</ele>
        <time>2010-12-03T20:38:48Z</time>
      </trkpt>
      <trkpt lat="59.3347780" lon="17.9681720">
        <ele>11.6700000</ele>
        <time>2010-12-03T20:38:50Z</time>
      </trkpt>
      <trkpt lat="59.3347660" lon="17.9681680">
        <ele>12.1500000</ele>
        <time>2010-12-03T20:38:51Z</time>
      </trkpt>
      <trkpt lat="59.3347590" lon="17.9681610">
        <ele>11.6700000</ele>
        <time>2010-12-03T20:38:52Z</time>
      </trkpt>
      <trkpt lat="59.3347430" lon="17.9681470">
        <ele>11.6700000</ele>
        <time>2010-12-03T20:38:53Z</time>
      </trkpt>
      <trkpt lat="59.3347240" lon="17.9681280">
        <ele>11.6700000</ele>
        <time>2010-12-03T20:38:54Z</time>
      </trkpt>
      <trkpt lat="59.3347050" lon="17.9681090">
        <ele>12.1500000</ele>
        <time>2010-12-03T20:38:55Z</time>
      </trkpt>
      <trkpt lat="59.3345570" lon="17.9679780">
        <ele>11.6700000</ele>
        <time>2010-12-03T20:39:02Z</time>
      </trkpt>
      <trkpt lat="59.3345450" lon="17.9679870">
        <ele>11.6700000</ele>
        <time>2010-12-03T20:39:03Z</time>
      </trkpt>
      <trkpt lat="59.3345300" lon="17.9680190">
        <ele>11.6700000</ele>
        <time>2010-12-03T20:39:13Z</time>
      </trkpt>
      <trkpt lat="59.3345300" lon="17.9680190">
        <ele>11.6700000</ele>
        <time>2010-12-03T20:39:36Z</time>
      </trkpt>
      <trkpt lat="59.3345300" lon="17.9680210">
        <ele>12.1500000</ele>
        <time>2010-12-03T20:39:55Z</time>
      </trkpt>
      <trkpt lat="59.3345300" lon="17.9680210">
        <ele>12.1500000</ele>
        <time>2010-12-03T20:40:14Z</time>
      </trkpt>
      <trkpt lat="59.3345300" lon="17.9680210">
        <ele>12.1500000</ele>
        <time>2010-12-03T20:40:31Z</time>
      </trkpt>
      <trkpt lat="59.3345300" lon="17.9680210">
        <ele>13.6000000</ele>
        <time>2010-12-03T20:40:48Z</time>
      </trkpt>
      <trkpt lat="59.3345300" lon="17.9680180">
        <ele>13.1200000</ele>
        <time>2010-12-03T20:41:10Z</time>
      </trkpt>
      <trkpt lat="59.3345300" lon="17.9680180">
        <ele>12.6300000</ele>
        <time>2010-12-03T20:41:31Z</time>
      </trkpt>
      <trkpt lat="59.3345260" lon="17.9680190">
        <ele>13.1200000</ele>
        <time>2010-12-03T20:42:01Z</time>
      </trkpt>
      <trkpt lat="59.3345260" lon="17.9680140">
        <ele>13.1200000</ele>
        <time>2010-12-03T20:42:32Z</time>
      </trkpt>
      <trkpt lat="59.3345260" lon="17.9680140">
        <ele>13.6000000</ele>
        <time>2010-12-03T20:42:58Z</time>
      </trkpt>
      <trkpt lat="59.3345300" lon="17.9680100">
        <ele>13.1200000</ele>
        <time>2010-12-03T20:43:25Z</time>
      </trkpt>
      <trkpt lat="59.3345300" lon="17.9679970">
        <ele>13.1200000</ele>
        <time>2010-12-03T20:43:49Z</time>
      </trkpt>
      <trkpt lat="59.3345300" lon="17.9679970">
        <ele>13.6000000</ele>
        <time>2010-12-03T20:44:11Z</time>
      </trkpt>
      <trkpt lat="59.3345340" lon="17.9679930">
        <ele>13.1200000</ele>
        <time>2010-12-03T20:44:31Z</time>
      </trkpt>
      <trkpt lat="59.3345340" lon="17.9679930">
        <ele>13.6000000</ele>
        <time>2010-12-03T20:44:51Z</time>
      </trkpt>
      <trkpt lat="59.3345340" lon="17.9679970">
        <ele>13.6000000</ele>
        <time>2010-12-03T20:45:11Z</time>
      </trkpt>
      <trkpt lat="59.3345340" lon="17.9679970">
        <ele>10.7100000</ele>
        <time>2010-12-03T20:45:31Z</time>
      </trkpt>
      <trkpt lat="59.3345340" lon="17.9679970">
        <ele>13.1200000</ele>
        <time>2010-12-03T20:45:33Z</time>
      </trkpt>
      <trkpt lat="59.3345340" lon="17.9680000">
        <ele>7.8300000</ele>
        <time>2010-12-03T20:45:56Z</time>
      </trkpt>
      <trkpt lat="59.3345340" lon="17.9680000">
        <ele>12.6300000</ele>
        <time>2010-12-03T20:45:57Z</time>
      </trkpt>
      <trkpt lat="59.3345340" lon="17.9680000">
        <ele>12.1500000</ele>
        <time>2010-12-03T20:46:18Z</time>
      </trkpt>
      <trkpt lat="59.3345340" lon="17.9680060">
        <ele>12.6300000</ele>
        <time>2010-12-03T20:46:38Z</time>
      </trkpt>
      <trkpt lat="59.3345340" lon="17.9680060">
        <ele>12.6300000</ele>
        <time>2010-12-03T20:46:58Z</time>
      </trkpt>
      <trkpt lat="59.3345340" lon="17.9680160">
        <ele>12.6300000</ele>
        <time>2010-12-03T20:47:24Z</time>
      </trkpt>
      <trkpt lat="59.3345340" lon="17.9680140">
        <ele>12.6300000</ele>
        <time>2010-12-03T20:47:46Z</time>
      </trkpt>
      <trkpt lat="59.3345340" lon="17.9680140">
        <ele>13.1200000</ele>
        <time>2010-12-03T20:48:15Z</time>
      </trkpt>
      <trkpt lat="59.3345380" lon="17.9680060">
        <ele>13.1200000</ele>
        <time>2010-12-03T20:48:34Z</time>
      </trkpt>
      <trkpt lat="59.3345380" lon="17.9680060">
        <ele>13.1200000</ele>
        <time>2010-12-03T20:48:58Z</time>
      </trkpt>
      <trkpt lat="59.3345380" lon="17.9680060">
        <ele>13.1200000</ele>
        <time>2010-12-03T20:49:24Z</time>
      </trkpt>
      <trkpt lat="59.3345380" lon="17.9680040">
        <ele>13.6000000</ele>
        <time>2010-12-03T20:49:49Z</time>
      </trkpt>
      <trkpt lat="59.3345380" lon="17.9680040">
        <ele>13.6000000</ele>
        <time>2010-12-03T20:50:12Z</time>
      </trkpt>
      <trkpt lat="59.3345380" lon="17.9680060">
        <ele>13.6000000</ele>
        <time>2010-12-03T20:50:32Z</time>
      </trkpt>
      <trkpt lat="59.3345380" lon="17.9680060">
        <ele>13.1200000</ele>
        <time>2010-12-03T20:50:49Z</time>
      </trkpt>
      <trkpt lat="59.3345380" lon="17.9680000">
        <ele>14.0800000</ele>
        <time>2010-12-03T20:51:19Z</time>
      </trkpt>
      <trkpt lat="59.3345380" lon="17.9680000">
        <ele>13.6000000</ele>
        <time>2010-12-03T20:51:40Z</time>
      </trkpt>
      <trkpt lat="59.3345410" lon="17.9679970">
        <ele>13.6000000</ele>
        <time>2010-12-03T20:52:09Z</time>
      </trkpt>
      <trkpt lat="59.3345450" lon="17.9679930">
        <ele>14.0800000</ele>
        <time>2010-12-03T20:52:31Z</time>
      </trkpt>
      <trkpt lat="59.3345450" lon="17.9679930">
        <ele>14.0800000</ele>
        <time>2010-12-03T20:52:51Z</time>
      </trkpt>
      <trkpt lat="59.3345410" lon="17.9679890">
        <ele>14.0800000</ele>
        <time>2010-12-03T20:53:18Z</time>
      </trkpt>
      <trkpt lat="59.3345410" lon="17.9679890">
        <ele>14.5600000</ele>
        <time>2010-12-03T20:53:44Z</time>
      </trkpt>
      <trkpt lat="59.3345410" lon="17.9679910">
        <ele>14.0800000</ele>
        <time>2010-12-03T20:54:08Z</time>
      </trkpt>
      <trkpt lat="59.3345380" lon="17.9679930">
        <ele>14.0800000</ele>
        <time>2010-12-03T20:54:40Z</time>
      </trkpt>
      <trkpt lat="59.3345410" lon="17.9679910">
        <ele>14.0800000</ele>
        <time>2010-12-03T20:55:13Z</time>
      </trkpt>
      <trkpt lat="59.3345410" lon="17.9679910">
        <ele>14.0800000</ele>
        <time>2010-12-03T20:55:29Z</time>
      </trkpt>
      <trkpt lat="59.3345450" lon="17.9679930">
        <ele>14.0800000</ele>
        <time>2010-12-03T20:55:47Z</time>
      </trkpt>
      <trkpt lat="59.3345450" lon="17.9680310">
        <ele>14.0800000</ele>
        <time>2010-12-03T20:56:00Z</time>
      </trkpt>
      <trkpt lat="59.3345450" lon="17.9680310">
        <ele>14.0800000</ele>
        <time>2010-12-03T20:56:31Z</time>
      </trkpt>
      <trkpt lat="59.3345490" lon="17.9680330">
        <ele>13.6000000</ele>
        <time>2010-12-03T20:57:01Z</time>
      </trkpt>
      <trkpt lat="59.3345490" lon="17.9680400">
        <ele>13.6000000</ele>
        <time>2010-12-03T20:57:30Z</time>
      </trkpt>
      <trkpt lat="59.3345450" lon="17.9680460">
        <ele>14.5600000</ele>
        <time>2010-12-03T20:58:03Z</time>
      </trkpt>
      <trkpt lat="59.3345450" lon="17.9680460">
        <ele>14.0800000</ele>
        <time>2010-12-03T20:58:31Z</time>
      </trkpt>
      <trkpt lat="59.3345450" lon="17.9680540">
        <ele>14.5600000</ele>
        <time>2010-12-03T20:58:55Z</time>
      </trkpt>
      <trkpt lat="59.3345450" lon="17.9680540">
        <ele>14.0800000</ele>
        <time>2010-12-03T20:59:15Z</time>
      </trkpt>
      <trkpt lat="59.3345490" lon="17.9680600">
        <ele>14.0800000</ele>
        <time>2010-12-03T20:59:38Z</time>
      </trkpt>
      <trkpt lat="59.3345450" lon="17.9680650">
        <ele>14.0800000</ele>
        <time>2010-12-03T21:00:04Z</time>
      </trkpt>
      <trkpt lat="59.3345450" lon="17.9680650">
        <ele>14.5600000</ele>
        <time>2010-12-03T21:00:29Z</time>
      </trkpt>
      <trkpt lat="59.3345450" lon="17.9680600">
        <ele>14.5600000</ele>
        <time>2010-12-03T21:00:51Z</time>
      </trkpt>
      <trkpt lat="59.3345410" lon="17.9680600">
        <ele>14.5600000</ele>
        <time>2010-12-03T21:01:16Z</time>
      </trkpt>
      <trkpt lat="59.3345410" lon="17.9680600">
        <ele>14.5600000</ele>
        <time>2010-12-03T21:01:42Z</time>
      </trkpt>
      <trkpt lat="59.3345450" lon="17.9680650">
        <ele>14.0800000</ele>
        <time>2010-12-03T21:02:13Z</time>
      </trkpt>
      <trkpt lat="59.3345530" lon="17.9680670">
        <ele>14.0800000</ele>
        <time>2010-12-03T21:02:40Z</time>
      </trkpt>
      <trkpt lat="59.3345530" lon="17.9680670">
        <ele>14.5600000</ele>
        <time>2010-12-03T21:03:07Z</time>
      </trkpt>
      <trkpt lat="59.3345490" lon="17.9680650">
        <ele>14.5600000</ele>
        <time>2010-12-03T21:03:37Z</time>
      </trkpt>
      <trkpt lat="59.3345490" lon="17.9680710">
        <ele>14.5600000</ele>
        <time>2010-12-03T21:04:03Z</time>
      </trkpt>
      <trkpt lat="59.3345490" lon="17.9680710">
        <ele>14.0800000</ele>
        <time>2010-12-03T21:04:34Z</time>
      </trkpt>
      <trkpt lat="59.3345490" lon="17.9680650">
        <ele>15.0400000</ele>
        <time>2010-12-03T21:04:59Z</time>
      </trkpt>
      <trkpt lat="59.3345490" lon="17.9680580">
        <ele>15.0400000</ele>
        <time>2010-12-03T21:05:33Z</time>
      </trkpt>
      <trkpt lat="59.3345450" lon="17.9680610">
        <ele>15.0400000</ele>
        <time>2010-12-03T21:05:56Z</time>
      </trkpt>
      <trkpt lat="59.3345150" lon="17.9680900">
        <ele>14.5600000</ele>
        <time>2010-12-03T21:06:07Z</time>
      </trkpt>
      <trkpt lat="59.3345030" lon="17.9681170">
        <ele>14.5600000</ele>
        <time>2010-12-03T21:06:08Z</time>
      </trkpt>
      <trkpt lat="59.3344880" lon="17.9681430">
        <ele>15.0400000</ele>
        <time>2010-12-03T21:06:09Z</time>
      </trkpt>
      <trkpt lat="59.3344730" lon="17.9681820">
        <ele>15.0400000</ele>
        <time>2010-12-03T21:06:10Z</time>
      </trkpt>
      <trkpt lat="59.3344570" lon="17.9682240">
        <ele>15.0400000</ele>
        <time>2010-12-03T21:06:11Z</time>
      </trkpt>
      <trkpt lat="59.3344350" lon="17.9682670">
        <ele>15.0400000</ele>
        <time>2010-12-03T21:06:12Z</time>
      </trkpt>
      <trkpt lat="59.3344150" lon="17.9683210">
        <ele>15.0400000</ele>
        <time>2010-12-03T21:06:13Z</time>
      </trkpt>
      <trkpt lat="59.3343960" lon="17.9683820">
        <ele>14.5600000</ele>
        <time>2010-12-03T21:06:14Z</time>
      </trkpt>
      <trkpt lat="59.3343770" lon="17.9684510">
        <ele>15.0400000</ele>
        <time>2010-12-03T21:06:15Z</time>
      </trkpt>
      <trkpt lat="59.3343050" lon="17.9692630">
        <ele>14.5600000</ele>
        <time>2010-12-03T21:06:25Z</time>
      </trkpt>
      <trkpt lat="59.3341790" lon="17.9703850">
        <ele>14.5600000</ele>
        <time>2010-12-03T21:06:36Z</time>
      </trkpt>
      <trkpt lat="59.3338810" lon="17.9719470">
        <ele>15.0400000</ele>
        <time>2010-12-03T21:06:48Z</time>
      </trkpt>
      <trkpt lat="59.3335460" lon="17.9736880">
        <ele>16.0000000</ele>
        <time>2010-12-03T21:07:02Z</time>
      </trkpt>
      <trkpt lat="59.3333550" lon="17.9745500">
        <ele>16.0000000</ele>
        <time>2010-12-03T21:07:10Z</time>
      </trkpt>
      <trkpt lat="59.3331830" lon="17.9755690">
        <ele>15.5200000</ele>
        <time>2010-12-03T21:07:21Z</time>
      </trkpt>
      <trkpt lat="59.3331180" lon="17.9758420">
        <ele>16.9600000</ele>
        <time>2010-12-03T21:07:28Z</time>
      </trkpt>
      <trkpt lat="59.3331110" lon="17.9758720">
        <ele>16.4800000</ele>
        <time>2010-12-03T21:07:44Z</time>
      </trkpt>
      <trkpt lat="59.3331110" lon="17.9758720">
        <ele>16.4800000</ele>
        <time>2010-12-03T21:08:01Z</time>
      </trkpt>
      <trkpt lat="59.3330840" lon="17.9758780">
        <ele>16.4800000</ele>
        <time>2010-12-03T21:08:10Z</time>
      </trkpt>
      <trkpt lat="59.3330840" lon="17.9758780">
        <ele>16.4800000</ele>
        <time>2010-12-03T21:08:38Z</time>
      </trkpt>
      <trkpt lat="59.3330800" lon="17.9758820">
        <ele>16.4800000</ele>
        <time>2010-12-03T21:09:10Z</time>
      </trkpt>
      <trkpt lat="59.3330840" lon="17.9758870">
        <ele>16.0000000</ele>
        <time>2010-12-03T21:09:37Z</time>
      </trkpt>
      <trkpt lat="59.3330840" lon="17.9758870">
        <ele>16.4800000</ele>
        <time>2010-12-03T21:09:58Z</time>
      </trkpt>
      <trkpt lat="59.3330840" lon="17.9758820">
        <ele>16.9600000</ele>
        <time>2010-12-03T21:10:25Z</time>
      </trkpt>
      <trkpt lat="59.3330840" lon="17.9758630">
        <ele>16.9600000</ele>
        <time>2010-12-03T21:10:57Z</time>
      </trkpt>
      <trkpt lat="59.3330840" lon="17.9758630">
        <ele>16.9600000</ele>
        <time>2010-12-03T21:11:25Z</time>
      </trkpt>
      <trkpt lat="59.3330840" lon="17.9758640">
        <ele>16.9600000</ele>
        <time>2010-12-03T21:11:44Z</time>
      </trkpt>
      <trkpt lat="59.3330840" lon="17.9758760">
        <ele>16.9600000</ele>
        <time>2010-12-03T21:12:14Z</time>
      </trkpt>
      <trkpt lat="59.3330840" lon="17.9758760">
        <ele>16.4800000</ele>
        <time>2010-12-03T21:12:38Z</time>
      </trkpt>
      <trkpt lat="59.3330840" lon="17.9758830">
        <ele>16.9600000</ele>
        <time>2010-12-03T21:13:04Z</time>
      </trkpt>
      <trkpt lat="59.3330840" lon="17.9758680">
        <ele>16.4800000</ele>
        <time>2010-12-03T21:13:29Z</time>
      </trkpt>
      <trkpt lat="59.3330840" lon="17.9758680">
        <ele>16.4800000</ele>
        <time>2010-12-03T21:13:58Z</time>
      </trkpt>
      <trkpt lat="59.3330800" lon="17.9758680">
        <ele>16.4800000</ele>
        <time>2010-12-03T21:14:23Z</time>
      </trkpt>
      <trkpt lat="59.3330800" lon="17.9758930">
        <ele>16.4800000</ele>
        <time>2010-12-03T21:14:48Z</time>
      </trkpt>
      <trkpt lat="59.3330800" lon="17.9758930">
        <ele>16.0000000</ele>
        <time>2010-12-03T21:15:15Z</time>
      </trkpt>
      <trkpt lat="59.3330800" lon="17.9758910">
        <ele>16.4800000</ele>
        <time>2010-12-03T21:15:41Z</time>
      </trkpt>
      <trkpt lat="59.3331110" lon="17.9758820">
        <ele>16.4800000</ele>
        <time>2010-12-03T21:16:02Z</time>
      </trkpt>
      <trkpt lat="59.3330990" lon="17.9759390">
        <ele>16.0000000</ele>
        <time>2010-12-03T21:16:10Z</time>
      </trkpt>
      <trkpt lat="59.3330880" lon="17.9759790">
        <ele>16.0000000</ele>
        <time>2010-12-03T21:16:12Z</time>
      </trkpt>
      <trkpt lat="59.3330840" lon="17.9760210">
        <ele>16.4800000</ele>
        <time>2010-12-03T21:16:13Z</time>
      </trkpt>
      <trkpt lat="59.3330760" lon="17.9760700">
        <ele>16.0000000</ele>
        <time>2010-12-03T21:16:14Z</time>
      </trkpt>
      <trkpt lat="59.3330650" lon="17.9761280">
        <ele>16.0000000</ele>
        <time>2010-12-03T21:16:15Z</time>
      </trkpt>
      <trkpt lat="59.3330570" lon="17.9761870">
        <ele>16.4800000</ele>
        <time>2010-12-03T21:16:16Z</time>
      </trkpt>
      <trkpt lat="59.3330690" lon="17.9767060">
        <ele>15.5200000</ele>
        <time>2010-12-03T21:16:24Z</time>
      </trkpt>
      <trkpt lat="59.3332410" lon="17.9770580">
        <ele>14.5600000</ele>
        <time>2010-12-03T21:16:29Z</time>
      </trkpt>
      <trkpt lat="59.3333210" lon="17.9771790">
        <ele>15.0400000</ele>
        <time>2010-12-03T21:16:31Z</time>
      </trkpt>
      <trkpt lat="59.3333590" lon="17.9772320">
        <ele>15.0400000</ele>
        <time>2010-12-03T21:16:32Z</time>
      </trkpt>
      <trkpt lat="59.3335340" lon="17.9776730">
        <ele>15.5200000</ele>
        <time>2010-12-03T21:16:40Z</time>
      </trkpt>
      <trkpt lat="59.3335150" lon="17.9779320">
        <ele>15.5200000</ele>
        <time>2010-12-03T21:16:44Z</time>
      </trkpt>
      <trkpt lat="59.3334010" lon="17.9789850">
        <ele>15.5200000</ele>
        <time>2010-12-03T21:16:55Z</time>
      </trkpt>
      <trkpt lat="59.3332710" lon="17.9803100">
        <ele>16.0000000</ele>
        <time>2010-12-03T21:17:08Z</time>
      </trkpt>
      <trkpt lat="59.3332290" lon="17.9806210">
        <ele>16.0000000</ele>
        <time>2010-12-03T21:17:11Z</time>
      </trkpt>
      <trkpt lat="59.3332180" lon="17.9807260">
        <ele>16.0000000</ele>
        <time>2010-12-03T21:17:12Z</time>
      </trkpt>
      <trkpt lat="59.3330990" lon="17.9817790">
        <ele>16.0000000</ele>
        <time>2010-12-03T21:17:22Z</time>
      </trkpt>
      <trkpt lat="59.3330420" lon="17.9821910">
        <ele>16.4800000</ele>
        <time>2010-12-03T21:17:26Z</time>
      </trkpt>
      <trkpt lat="59.3330350" lon="17.9822920">
        <ele>16.0000000</ele>
        <time>2010-12-03T21:17:27Z</time>
      </trkpt>
      <trkpt lat="59.3330230" lon="17.9823950">
        <ele>16.0000000</ele>
        <time>2010-12-03T21:17:28Z</time>
      </trkpt>
      <trkpt lat="59.3329850" lon="17.9828130">
        <ele>16.0000000</ele>
        <time>2010-12-03T21:17:32Z</time>
      </trkpt>
      <trkpt lat="59.3329770" lon="17.9829220">
        <ele>16.0000000</ele>
        <time>2010-12-03T21:17:33Z</time>
      </trkpt>
      <trkpt lat="59.3329700" lon="17.9830320">
        <ele>16.0000000</ele>
        <time>2010-12-03T21:17:34Z</time>
      </trkpt>
      <trkpt lat="59.3329620" lon="17.9831410">
        <ele>16.4800000</ele>
        <time>2010-12-03T21:17:35Z</time>
      </trkpt>
      <trkpt lat="59.3329540" lon="17.9832420">
        <ele>16.9600000</ele>
        <time>2010-12-03T21:17:36Z</time>
      </trkpt>
      <trkpt lat="59.3328480" lon="17.9847600">
        <ele>19.3600000</ele>
        <time>2010-12-03T21:17:52Z</time>
      </trkpt>
      <trkpt lat="59.3328170" lon="17.9850310">
        <ele>18.4000000</ele>
        <time>2010-12-03T21:17:55Z</time>
      </trkpt>
      <trkpt lat="59.3327940" lon="17.9861050">
        <ele>21.2900000</ele>
        <time>2010-12-03T21:18:07Z</time>
      </trkpt>
      <trkpt lat="59.3327900" lon="17.9863510">
        <ele>21.7700000</ele>
        <time>2010-12-03T21:18:10Z</time>
      </trkpt>
      <trkpt lat="59.3328020" lon="17.9869790">
        <ele>22.7300000</ele>
        <time>2010-12-03T21:18:17Z</time>
      </trkpt>
      <trkpt lat="59.3329160" lon="17.9881320">
        <ele>24.6500000</ele>
        <time>2010-12-03T21:18:30Z</time>
      </trkpt>
      <trkpt lat="59.3329540" lon="17.9884570">
        <ele>25.1300000</ele>
        <time>2010-12-03T21:18:34Z</time>
      </trkpt>
      <trkpt lat="59.3329540" lon="17.9885430">
        <ele>25.1300000</ele>
        <time>2010-12-03T21:18:35Z</time>
      </trkpt>
      <trkpt lat="59.3329470" lon="17.9886300">
        <ele>25.6100000</ele>
        <time>2010-12-03T21:18:36Z</time>
      </trkpt>
      <trkpt lat="59.3329320" lon="17.9887180">
        <ele>25.1300000</ele>
        <time>2010-12-03T21:18:37Z</time>
      </trkpt>
      <trkpt lat="59.3329120" lon="17.9887980">
        <ele>25.6100000</ele>
        <time>2010-12-03T21:18:38Z</time>
      </trkpt>
      <trkpt lat="59.3328900" lon="17.9888760">
        <ele>25.6100000</ele>
        <time>2010-12-03T21:18:39Z</time>
      </trkpt>
      <trkpt lat="59.3327710" lon="17.9893570">
        <ele>26.0900000</ele>
        <time>2010-12-03T21:18:45Z</time>
      </trkpt>
      <trkpt lat="59.3327600" lon="17.9894470">
        <ele>26.5700000</ele>
        <time>2010-12-03T21:18:46Z</time>
      </trkpt>
      <trkpt lat="59.3327560" lon="17.9895360">
        <ele>26.5700000</ele>
        <time>2010-12-03T21:18:47Z</time>
      </trkpt>
      <trkpt lat="59.3327560" lon="17.9896240">
        <ele>27.0500000</ele>
        <time>2010-12-03T21:18:48Z</time>
      </trkpt>
      <trkpt lat="59.3327640" lon="17.9897040">
        <ele>27.0500000</ele>
        <time>2010-12-03T21:18:49Z</time>
      </trkpt>
      <trkpt lat="59.3327750" lon="17.9897860">
        <ele>27.0500000</ele>
        <time>2010-12-03T21:18:50Z</time>
      </trkpt>
      <trkpt lat="59.3327940" lon="17.9898660">
        <ele>27.0500000</ele>
        <time>2010-12-03T21:18:51Z</time>
      </trkpt>
      <trkpt lat="59.3328130" lon="17.9899440">
        <ele>27.5300000</ele>
        <time>2010-12-03T21:18:52Z</time>
      </trkpt>
      <trkpt lat="59.3328400" lon="17.9900190">
        <ele>27.5300000</ele>
        <time>2010-12-03T21:18:53Z</time>
      </trkpt>
      <trkpt lat="59.3328700" lon="17.9900860">
        <ele>27.5300000</ele>
        <time>2010-12-03T21:18:54Z</time>
      </trkpt>
      <trkpt lat="59.3329050" lon="17.9901430">
        <ele>28.0200000</ele>
        <time>2010-12-03T21:18:55Z</time>
      </trkpt>
      <trkpt lat="59.3329430" lon="17.9901910">
        <ele>27.5300000</ele>
        <time>2010-12-03T21:18:56Z</time>
      </trkpt>
      <trkpt lat="59.3329810" lon="17.9902320">
        <ele>28.0200000</ele>
        <time>2010-12-03T21:18:57Z</time>
      </trkpt>
      <trkpt lat="59.3330230" lon="17.9902650">
        <ele>28.5000000</ele>
        <time>2010-12-03T21:18:58Z</time>
      </trkpt>
      <trkpt lat="59.3331830" lon="17.9903870">
        <ele>28.9800000</ele>
        <time>2010-12-03T21:19:02Z</time>
      </trkpt>
      <trkpt lat="59.3332210" lon="17.9904330">
        <ele>28.9800000</ele>
        <time>2010-12-03T21:19:03Z</time>
      </trkpt>
      <trkpt lat="59.3332520" lon="17.9904860">
        <ele>28.5000000</ele>
        <time>2010-12-03T21:19:04Z</time>
      </trkpt>
      <trkpt lat="59.3332820" lon="17.9905490">
        <ele>29.4600000</ele>
        <time>2010-12-03T21:19:05Z</time>
      </trkpt>
      <trkpt lat="59.3333050" lon="17.9906200">
        <ele>29.4600000</ele>
        <time>2010-12-03T21:19:06Z</time>
      </trkpt>
      <trkpt lat="59.3333280" lon="17.9906940">
        <ele>29.4600000</ele>
        <time>2010-12-03T21:19:07Z</time>
      </trkpt>
      <trkpt lat="59.3333470" lon="17.9907740">
        <ele>29.4600000</ele>
        <time>2010-12-03T21:19:08Z</time>
      </trkpt>
      <trkpt lat="59.3334730" lon="17.9916650">
        <ele>31.3800000</ele>
        <time>2010-12-03T21:19:19Z</time>
      </trkpt>
      <trkpt lat="59.3335300" lon="17.9929200">
        <ele>34.7400000</ele>
        <time>2010-12-03T21:19:35Z</time>
      </trkpt>
      <trkpt lat="59.3335150" lon="17.9934750">
        <ele>35.7100000</ele>
        <time>2010-12-03T21:19:42Z</time>
      </trkpt>
      <trkpt lat="59.3334660" lon="17.9947360">
        <ele>37.1500000</ele>
        <time>2010-12-03T21:19:57Z</time>
      </trkpt>
      <trkpt lat="59.3334050" lon="17.9960920">
        <ele>36.6700000</ele>
        <time>2010-12-03T21:20:12Z</time>
      </trkpt>
      <trkpt lat="59.3333320" lon="17.9975530">
        <ele>33.7800000</ele>
        <time>2010-12-03T21:20:25Z</time>
      </trkpt>
      <trkpt lat="59.3332560" lon="17.9982990">
        <ele>31.8600000</ele>
        <time>2010-12-03T21:20:31Z</time>
      </trkpt>
      <trkpt lat="59.3330500" lon="17.9996240">
        <ele>28.5000000</ele>
        <time>2010-12-03T21:20:41Z</time>
      </trkpt>
      <trkpt lat="59.3330270" lon="17.9997650">
        <ele>28.5000000</ele>
        <time>2010-12-03T21:20:42Z</time>
      </trkpt>
      <trkpt lat="59.3328170" lon="18.0011010">
        <ele>25.1300000</ele>
        <time>2010-12-03T21:20:52Z</time>
      </trkpt>
      <trkpt lat="59.3324930" lon="18.0029370">
        <ele>22.2500000</ele>
        <time>2010-12-03T21:21:06Z</time>
      </trkpt>
      <trkpt lat="59.3321690" lon="18.0047510">
        <ele>20.3200000</ele>
        <time>2010-12-03T21:21:21Z</time>
      </trkpt>
      <trkpt lat="59.3318520" lon="18.0065100">
        <ele>18.8800000</ele>
        <time>2010-12-03T21:21:36Z</time>
      </trkpt>
      <trkpt lat="59.3315120" lon="18.0077060">
        <ele>15.5200000</ele>
        <time>2010-12-03T21:21:47Z</time>
      </trkpt>
      <trkpt lat="59.3310740" lon="18.0091670">
        <ele>12.6300000</ele>
        <time>2010-12-03T21:22:00Z</time>
      </trkpt>
      <trkpt lat="59.3310390" lon="18.0093960">
        <ele>13.1200000</ele>
        <time>2010-12-03T21:22:02Z</time>
      </trkpt>
      <trkpt lat="59.3310090" lon="18.0106750">
        <ele>15.0400000</ele>
        <time>2010-12-03T21:22:12Z</time>
      </trkpt>
      <trkpt lat="59.3309900" lon="18.0111120">
        <ele>16.0000000</ele>
        <time>2010-12-03T21:22:16Z</time>
      </trkpt>
      <trkpt lat="59.3309590" lon="18.0113930">
        <ele>16.4800000</ele>
        <time>2010-12-03T21:22:19Z</time>
      </trkpt>
      <trkpt lat="59.3309520" lon="18.0116730">
        <ele>17.4400000</ele>
        <time>2010-12-03T21:22:22Z</time>
      </trkpt>
      <trkpt lat="59.3309520" lon="18.0120200">
        <ele>18.4000000</ele>
        <time>2010-12-03T21:22:26Z</time>
      </trkpt>
      <trkpt lat="59.3310360" lon="18.0130770">
        <ele>20.8100000</ele>
        <time>2010-12-03T21:22:38Z</time>
      </trkpt>
      <trkpt lat="59.3310740" lon="18.0144860">
        <ele>19.3600000</ele>
        <time>2010-12-03T21:22:52Z</time>
      </trkpt>
      <trkpt lat="59.3310970" lon="18.0149880">
        <ele>16.9600000</ele>
        <time>2010-12-03T21:22:56Z</time>
      </trkpt>
      <trkpt lat="59.3311040" lon="18.0152400">
        <ele>16.0000000</ele>
        <time>2010-12-03T21:22:58Z</time>
      </trkpt>
      <trkpt lat="59.3311230" lon="18.0156250">
        <ele>14.5600000</ele>
        <time>2010-12-03T21:23:01Z</time>
      </trkpt>
      <trkpt lat="59.3312380" lon="18.0172100">
        <ele>12.1500000</ele>
        <time>2010-12-03T21:23:12Z</time>
      </trkpt>
      <trkpt lat="59.3313220" lon="18.0183450">
        <ele>11.6700000</ele>
        <time>2010-12-03T21:23:21Z</time>
      </trkpt>
      <trkpt lat="59.3313180" lon="18.0184460">
        <ele>11.6700000</ele>
        <time>2010-12-03T21:23:22Z</time>
      </trkpt>
      <trkpt lat="59.3313060" lon="18.0185410">
        <ele>12.1500000</ele>
        <time>2010-12-03T21:23:23Z</time>
      </trkpt>
      <trkpt lat="59.3312720" lon="18.0187030">
        <ele>11.6700000</ele>
        <time>2010-12-03T21:23:25Z</time>
      </trkpt>
      <trkpt lat="59.3312530" lon="18.0187700">
        <ele>11.1900000</ele>
        <time>2010-12-03T21:23:26Z</time>
      </trkpt>
      <trkpt lat="59.3312380" lon="18.0188220">
        <ele>11.1900000</ele>
        <time>2010-12-03T21:23:27Z</time>
      </trkpt>
      <trkpt lat="59.3312190" lon="18.0188520">
        <ele>10.7100000</ele>
        <time>2010-12-03T21:23:28Z</time>
      </trkpt>
      <trkpt lat="59.3311880" lon="18.0188640">
        <ele>11.1900000</ele>
        <time>2010-12-03T21:23:29Z</time>
      </trkpt>
      <trkpt lat="59.3311420" lon="18.0188670">
        <ele>10.7100000</ele>
        <time>2010-12-03T21:23:30Z</time>
      </trkpt>
      <trkpt lat="59.3310280" lon="18.0188660">
        <ele>9.7500000</ele>
        <time>2010-12-03T21:23:32Z</time>
      </trkpt>
      <trkpt lat="59.3308490" lon="18.0188940">
        <ele>8.3100000</ele>
        <time>2010-12-03T21:23:35Z</time>
      </trkpt>
      <trkpt lat="59.3307950" lon="18.0189380">
        <ele>7.8300000</ele>
        <time>2010-12-03T21:23:36Z</time>
      </trkpt>
      <trkpt lat="59.3307460" lon="18.0190110">
        <ele>7.8300000</ele>
        <time>2010-12-03T21:23:37Z</time>
      </trkpt>
      <trkpt lat="59.3307040" lon="18.0190930">
        <ele>7.8300000</ele>
        <time>2010-12-03T21:23:38Z</time>
      </trkpt>
      <trkpt lat="59.3306660" lon="18.0191710">
        <ele>8.3100000</ele>
        <time>2010-12-03T21:23:39Z</time>
      </trkpt>
      <trkpt lat="59.3306240" lon="18.0192430">
        <ele>8.3100000</ele>
        <time>2010-12-03T21:23:40Z</time>
      </trkpt>
      <trkpt lat="59.3305820" lon="18.0193040">
        <ele>8.3100000</ele>
        <time>2010-12-03T21:23:41Z</time>
      </trkpt>
      <trkpt lat="59.3305320" lon="18.0193480">
        <ele>7.8300000</ele>
        <time>2010-12-03T21:23:42Z</time>
      </trkpt>
      <trkpt lat="59.3304790" lon="18.0193840">
        <ele>8.3100000</ele>
        <time>2010-12-03T21:23:43Z</time>
      </trkpt>
      <trkpt lat="59.3304210" lon="18.0194090">
        <ele>7.8300000</ele>
        <time>2010-12-03T21:23:44Z</time>
      </trkpt>
      <trkpt lat="59.3303640" lon="18.0194300">
        <ele>8.3100000</ele>
        <time>2010-12-03T21:23:45Z</time>
      </trkpt>
      <trkpt lat="59.3303150" lon="18.0194530">
        <ele>8.3100000</ele>
        <time>2010-12-03T21:23:46Z</time>
      </trkpt>
      <trkpt lat="59.3302190" lon="18.0195010">
        <ele>8.7900000</ele>
        <time>2010-12-03T21:23:48Z</time>
      </trkpt>
      <trkpt lat="59.3301770" lon="18.0195060">
        <ele>9.2700000</ele>
        <time>2010-12-03T21:23:49Z</time>
      </trkpt>
      <trkpt lat="59.3301390" lon="18.0194950">
        <ele>9.7500000</ele>
        <time>2010-12-03T21:23:50Z</time>
      </trkpt>
      <trkpt lat="59.3301120" lon="18.0194660">
        <ele>9.7500000</ele>
        <time>2010-12-03T21:23:51Z</time>
      </trkpt>
      <trkpt lat="59.3300970" lon="18.0194210">
        <ele>9.7500000</ele>
        <time>2010-12-03T21:23:52Z</time>
      </trkpt>
      <trkpt lat="59.3300820" lon="18.0193750">
        <ele>10.2300000</ele>
        <time>2010-12-03T21:23:53Z</time>
      </trkpt>
      <trkpt lat="59.3300550" lon="18.0192870">
        <ele>11.1900000</ele>
        <time>2010-12-03T21:23:55Z</time>
      </trkpt>
      <trkpt lat="59.3300400" lon="18.0192490">
        <ele>11.1900000</ele>
        <time>2010-12-03T21:23:56Z</time>
      </trkpt>
      <trkpt lat="59.3300170" lon="18.0192260">
        <ele>11.6700000</ele>
        <time>2010-12-03T21:23:57Z</time>
      </trkpt>
      <trkpt lat="59.3299900" lon="18.0192090">
        <ele>11.6700000</ele>
        <time>2010-12-03T21:23:58Z</time>
      </trkpt>
      <trkpt lat="59.3299710" lon="18.0191990">
        <ele>11.6700000</ele>
        <time>2010-12-03T21:23:59Z</time>
      </trkpt>
      <trkpt lat="59.3299520" lon="18.0191960">
        <ele>11.6700000</ele>
        <time>2010-12-03T21:24:00Z</time>
      </trkpt>
      <trkpt lat="59.3298260" lon="18.0191150">
        <ele>12.6300000</ele>
        <time>2010-12-03T21:24:06Z</time>
      </trkpt>
      <trkpt lat="59.3298000" lon="18.0191120">
        <ele>12.6300000</ele>
        <time>2010-12-03T21:24:07Z</time>
      </trkpt>
      <trkpt lat="59.3297690" lon="18.0191190">
        <ele>12.6300000</ele>
        <time>2010-12-03T21:24:08Z</time>
      </trkpt>
      <trkpt lat="59.3297390" lon="18.0191190">
        <ele>12.6300000</ele>
        <time>2010-12-03T21:24:09Z</time>
      </trkpt>
      <trkpt lat="59.3297120" lon="18.0191190">
        <ele>13.1200000</ele>
        <time>2010-12-03T21:24:10Z</time>
      </trkpt>
      <trkpt lat="59.3296780" lon="18.0191210">
        <ele>13.1200000</ele>
        <time>2010-12-03T21:24:11Z</time>
      </trkpt>
      <trkpt lat="59.3296510" lon="18.0191150">
        <ele>13.1200000</ele>
        <time>2010-12-03T21:24:12Z</time>
      </trkpt>
      <trkpt lat="59.3296240" lon="18.0191040">
        <ele>13.6000000</ele>
        <time>2010-12-03T21:24:13Z</time>
      </trkpt>
      <trkpt lat="59.3295140" lon="18.0191230">
        <ele>14.0800000</ele>
        <time>2010-12-03T21:24:18Z</time>
      </trkpt>
      <trkpt lat="59.3294940" lon="18.0191590">
        <ele>14.0800000</ele>
        <time>2010-12-03T21:24:19Z</time>
      </trkpt>
      <trkpt lat="59.3293000" lon="18.0193440">
        <ele>14.5600000</ele>
        <time>2010-12-03T21:24:28Z</time>
      </trkpt>
      <trkpt lat="59.3291590" lon="18.0191590">
        <ele>15.0400000</ele>
        <time>2010-12-03T21:24:33Z</time>
      </trkpt>
      <trkpt lat="59.3290330" lon="18.0190530">
        <ele>15.5200000</ele>
        <time>2010-12-03T21:24:36Z</time>
      </trkpt>
      <trkpt lat="59.3289870" lon="18.0190320">
        <ele>15.5200000</ele>
        <time>2010-12-03T21:24:37Z</time>
      </trkpt>
      <trkpt lat="59.3289410" lon="18.0190140">
        <ele>16.0000000</ele>
        <time>2010-12-03T21:24:38Z</time>
      </trkpt>
      <trkpt lat="59.3286360" lon="18.0189530">
        <ele>7.8300000</ele>
        <time>2010-12-03T21:24:46Z</time>
      </trkpt>
      <trkpt lat="59.3286130" lon="18.0189420">
        <ele>18.4000000</ele>
        <time>2010-12-03T21:24:47Z</time>
      </trkpt>
      <trkpt lat="59.3284420" lon="18.0189080">
        <ele>17.9200000</ele>
        <time>2010-12-03T21:24:58Z</time>
      </trkpt>
      <trkpt lat="59.3282660" lon="18.0190260">
        <ele>17.9200000</ele>
        <time>2010-12-03T21:25:06Z</time>
      </trkpt>
      <trkpt lat="59.3282360" lon="18.0190830">
        <ele>17.9200000</ele>
        <time>2010-12-03T21:25:07Z</time>
      </trkpt>
      <trkpt lat="59.3282090" lon="18.0191520">
        <ele>17.9200000</ele>
        <time>2010-12-03T21:25:08Z</time>
      </trkpt>
      <trkpt lat="59.3281860" lon="18.0192380">
        <ele>18.4000000</ele>
        <time>2010-12-03T21:25:09Z</time>
      </trkpt>
      <trkpt lat="59.3281670" lon="18.0193410">
        <ele>17.4400000</ele>
        <time>2010-12-03T21:25:10Z</time>
      </trkpt>
      <trkpt lat="59.3281590" lon="18.0194570">
        <ele>17.9200000</ele>
        <time>2010-12-03T21:25:11Z</time>
      </trkpt>
      <trkpt lat="59.3281480" lon="18.0195790">
        <ele>17.9200000</ele>
        <time>2010-12-03T21:25:12Z</time>
      </trkpt>
      <trkpt lat="59.3281440" lon="18.0197050">
        <ele>17.9200000</ele>
        <time>2010-12-03T21:25:13Z</time>
      </trkpt>
      <trkpt lat="59.3280790" lon="18.0209960">
        <ele>17.4400000</ele>
        <time>2010-12-03T21:25:25Z</time>
      </trkpt>
      <trkpt lat="59.3280560" lon="18.0213090">
        <ele>17.9200000</ele>
        <time>2010-12-03T21:25:28Z</time>
      </trkpt>
      <trkpt lat="59.3280410" lon="18.0214060">
        <ele>17.9200000</ele>
        <time>2010-12-03T21:25:29Z</time>
      </trkpt>
      <trkpt lat="59.3280180" lon="18.0214940">
        <ele>17.9200000</ele>
        <time>2010-12-03T21:25:30Z</time>
      </trkpt>
      <trkpt lat="59.3279720" lon="18.0216600">
        <ele>17.9200000</ele>
        <time>2010-12-03T21:25:32Z</time>
      </trkpt>
      <trkpt lat="59.3278310" lon="18.0222150">
        <ele>18.4000000</ele>
        <time>2010-12-03T21:25:42Z</time>
      </trkpt>
      <trkpt lat="59.3277820" lon="18.0223030">
        <ele>18.8800000</ele>
        <time>2010-12-03T21:25:47Z</time>
      </trkpt>
      <trkpt lat="59.3277740" lon="18.0223370">
        <ele>18.8800000</ele>
        <time>2010-12-03T21:25:48Z</time>
      </trkpt>
      <trkpt lat="59.3277630" lon="18.0223790">
        <ele>18.4000000</ele>
        <time>2010-12-03T21:25:49Z</time>
      </trkpt>
      <trkpt lat="59.3275680" lon="18.0229400">
        <ele>19.8400000</ele>
        <time>2010-12-03T21:25:59Z</time>
      </trkpt>
      <trkpt lat="59.3273660" lon="18.0233800">
        <ele>21.2900000</ele>
        <time>2010-12-03T21:26:07Z</time>
      </trkpt>
      <trkpt lat="59.3272590" lon="18.0235690">
        <ele>22.2500000</ele>
        <time>2010-12-03T21:26:10Z</time>
      </trkpt>
      <trkpt lat="59.3268780" lon="18.0240780">
        <ele>24.6500000</ele>
        <time>2010-12-03T21:26:20Z</time>
      </trkpt>
      <trkpt lat="59.3263590" lon="18.0247170">
        <ele>27.5300000</ele>
        <time>2010-12-03T21:26:34Z</time>
      </trkpt>
      <trkpt lat="59.3259200" lon="18.0252590">
        <ele>28.9800000</ele>
        <time>2010-12-03T21:26:47Z</time>
      </trkpt>
      <trkpt lat="59.3253860" lon="18.0259230">
        <ele>31.3800000</ele>
        <time>2010-12-03T21:27:03Z</time>
      </trkpt>
      <trkpt lat="59.3248290" lon="18.0266020">
        <ele>33.7800000</ele>
        <time>2010-12-03T21:27:19Z</time>
      </trkpt>
      <trkpt lat="59.3242300" lon="18.0273400">
        <ele>35.2300000</ele>
        <time>2010-12-03T21:27:36Z</time>
      </trkpt>
      <trkpt lat="59.3237880" lon="18.0278570">
        <ele>36.1900000</ele>
        <time>2010-12-03T21:27:48Z</time>
      </trkpt>
      <trkpt lat="59.3231200" lon="18.0286640">
        <ele>32.8200000</ele>
        <time>2010-12-03T21:28:03Z</time>
      </trkpt>
      <trkpt lat="59.3228910" lon="18.0289310">
        <ele>31.8600000</ele>
        <time>2010-12-03T21:28:07Z</time>
      </trkpt>
      <trkpt lat="59.3223380" lon="18.0296040">
        <ele>28.0200000</ele>
        <time>2010-12-03T21:28:16Z</time>
      </trkpt>
      <trkpt lat="59.3217320" lon="18.0302450">
        <ele>25.1300000</ele>
        <time>2010-12-03T21:28:25Z</time>
      </trkpt>
      <trkpt lat="59.3208890" lon="18.0308020">
        <ele>23.2100000</ele>
        <time>2010-12-03T21:28:37Z</time>
      </trkpt>
      <trkpt lat="59.3199500" lon="18.0313030">
        <ele>20.8100000</ele>
        <time>2010-12-03T21:28:51Z</time>
      </trkpt>
      <trkpt lat="59.3191410" lon="18.0317230">
        <ele>19.8400000</ele>
        <time>2010-12-03T21:29:04Z</time>
      </trkpt>
      <trkpt lat="59.3185010" lon="18.0319040">
        <ele>18.4000000</ele>
        <time>2010-12-03T21:29:15Z</time>
      </trkpt>
      <trkpt lat="59.3184550" lon="18.0319080">
        <ele>18.4000000</ele>
        <time>2010-12-03T21:29:16Z</time>
      </trkpt>
      <trkpt lat="59.3184090" lon="18.0319230">
        <ele>18.4000000</ele>
        <time>2010-12-03T21:29:17Z</time>
      </trkpt>
      <trkpt lat="59.3183630" lon="18.0319520">
        <ele>17.9200000</ele>
        <time>2010-12-03T21:29:18Z</time>
      </trkpt>
      <trkpt lat="59.3179240" lon="18.0321920">
        <ele>17.9200000</ele>
        <time>2010-12-03T21:29:28Z</time>
      </trkpt>
      <trkpt lat="59.3177800" lon="18.0324150">
        <ele>17.4400000</ele>
        <time>2010-12-03T21:29:36Z</time>
      </trkpt>
      <trkpt lat="59.3177800" lon="18.0325240">
        <ele>17.9200000</ele>
        <time>2010-12-03T21:29:40Z</time>
      </trkpt>
      <trkpt lat="59.3177570" lon="18.0325790">
        <ele>17.9200000</ele>
        <time>2010-12-03T21:29:42Z</time>
      </trkpt>
      <trkpt lat="59.3177340" lon="18.0325970">
        <ele>17.9200000</ele>
        <time>2010-12-03T21:29:43Z</time>
      </trkpt>
      <trkpt lat="59.3175390" lon="18.0326880">
        <ele>17.4400000</ele>
        <time>2010-12-03T21:29:55Z</time>
      </trkpt>
      <trkpt lat="59.3175160" lon="18.0326920">
        <ele>16.9600000</ele>
        <time>2010-12-03T21:29:57Z</time>
      </trkpt>
      <trkpt lat="59.3175010" lon="18.0326960">
        <ele>16.9600000</ele>
        <time>2010-12-03T21:29:58Z</time>
      </trkpt>
      <trkpt lat="59.3174930" lon="18.0327110">
        <ele>16.9600000</ele>
        <time>2010-12-03T21:29:59Z</time>
      </trkpt>
      <trkpt lat="59.3172530" lon="18.0328200">
        <ele>16.9600000</ele>
        <time>2010-12-03T21:30:08Z</time>
      </trkpt>
      <trkpt lat="59.3170780" lon="18.0329190">
        <ele>16.4800000</ele>
        <time>2010-12-03T21:30:11Z</time>
      </trkpt>
      <trkpt lat="59.3167690" lon="18.0331290">
        <ele>15.5200000</ele>
        <time>2010-12-03T21:30:17Z</time>
      </trkpt>
      <trkpt lat="59.3161240" lon="18.0334740">
        <ele>14.5600000</ele>
        <time>2010-12-03T21:30:27Z</time>
      </trkpt>
      <trkpt lat="59.3159450" lon="18.0335810">
        <ele>14.5600000</ele>
        <time>2010-12-03T21:30:30Z</time>
      </trkpt>
      <trkpt lat="59.3154790" lon="18.0338060">
        <ele>14.5600000</ele>
        <time>2010-12-03T21:30:39Z</time>
      </trkpt>
      <trkpt lat="59.3153720" lon="18.0338230">
        <ele>14.5600000</ele>
        <time>2010-12-03T21:30:45Z</time>
      </trkpt>
      <trkpt lat="59.3153530" lon="18.0338100">
        <ele>14.5600000</ele>
        <time>2010-12-03T21:30:46Z</time>
      </trkpt>
      <trkpt lat="59.3152430" lon="18.0337830">
        <ele>14.5600000</ele>
        <time>2010-12-03T21:30:51Z</time>
      </trkpt>
      <trkpt lat="59.3152470" lon="18.0337830">
        <ele>15.5200000</ele>
        <time>2010-12-03T21:30:59Z</time>
      </trkpt>
      <trkpt lat="59.3152470" lon="18.0337830">
        <ele>15.5200000</ele>
        <time>2010-12-03T21:31:17Z</time>
      </trkpt>
      <trkpt lat="59.3152470" lon="18.0337850">
        <ele>16.0000000</ele>
        <time>2010-12-03T21:31:43Z</time>
      </trkpt>
      <trkpt lat="59.3152470" lon="18.0337850">
        <ele>16.4800000</ele>
        <time>2010-12-03T21:32:05Z</time>
      </trkpt>
      <trkpt lat="59.3152500" lon="18.0337870">
        <ele>17.4400000</ele>
        <time>2010-12-03T21:32:19Z</time>
      </trkpt>
      <trkpt lat="59.3152350" lon="18.0337980">
        <ele>18.4000000</ele>
        <time>2010-12-03T21:32:26Z</time>
      </trkpt>
      <trkpt lat="59.3152310" lon="18.0338150">
        <ele>18.4000000</ele>
        <time>2010-12-03T21:32:27Z</time>
      </trkpt>
      <trkpt lat="59.3152240" lon="18.0338360">
        <ele>18.4000000</ele>
        <time>2010-12-03T21:32:28Z</time>
      </trkpt>
      <trkpt lat="59.3151890" lon="18.0338750">
        <ele>18.4000000</ele>
        <time>2010-12-03T21:32:29Z</time>
      </trkpt>
      <trkpt lat="59.3151470" lon="18.0339160">
        <ele>19.3600000</ele>
        <time>2010-12-03T21:32:30Z</time>
      </trkpt>
      <trkpt lat="59.3149640" lon="18.0339970">
        <ele>19.3600000</ele>
        <time>2010-12-03T21:32:33Z</time>
      </trkpt>
      <trkpt lat="59.3149150" lon="18.0339970">
        <ele>19.8400000</ele>
        <time>2010-12-03T21:32:34Z</time>
      </trkpt>
      <trkpt lat="59.3148770" lon="18.0339720">
        <ele>20.3200000</ele>
        <time>2010-12-03T21:32:35Z</time>
      </trkpt>
      <trkpt lat="59.3148420" lon="18.0339390">
        <ele>20.3200000</ele>
        <time>2010-12-03T21:32:36Z</time>
      </trkpt>
      <trkpt lat="59.3148080" lon="18.0339010">
        <ele>20.3200000</ele>
        <time>2010-12-03T21:32:37Z</time>
      </trkpt>
      <trkpt lat="59.3144720" lon="18.0335160">
        <ele>22.7300000</ele>
        <time>2010-12-03T21:32:47Z</time>
      </trkpt>
      <trkpt lat="59.3140980" lon="18.0328560">
        <ele>25.6100000</ele>
        <time>2010-12-03T21:32:59Z</time>
      </trkpt>
      <trkpt lat="59.3136330" lon="18.0320300">
        <ele>27.0500000</ele>
        <time>2010-12-03T21:33:12Z</time>
      </trkpt>
      <trkpt lat="59.3131480" lon="18.0311680">
        <ele>24.1700000</ele>
        <time>2010-12-03T21:33:24Z</time>
      </trkpt>
      <trkpt lat="59.3126450" lon="18.0302260">
        <ele>20.8100000</ele>
        <time>2010-12-03T21:33:35Z</time>
      </trkpt>
      <trkpt lat="59.3120770" lon="18.0291400">
        <ele>17.4400000</ele>
        <time>2010-12-03T21:33:47Z</time>
      </trkpt>
      <trkpt lat="59.3119510" lon="18.0287930">
        <ele>17.4400000</ele>
        <time>2010-12-03T21:33:51Z</time>
      </trkpt>
      <trkpt lat="59.3119320" lon="18.0287230">
        <ele>17.9200000</ele>
        <time>2010-12-03T21:33:52Z</time>
      </trkpt>
      <trkpt lat="59.3117330" lon="18.0283680">
        <ele>17.4400000</ele>
        <time>2010-12-03T21:34:00Z</time>
      </trkpt>
      <trkpt lat="59.3116570" lon="18.0283090">
        <ele>17.4400000</ele>
        <time>2010-12-03T21:34:02Z</time>
      </trkpt>
      <trkpt lat="59.3116110" lon="18.0282920">
        <ele>16.9600000</ele>
        <time>2010-12-03T21:34:03Z</time>
      </trkpt>
      <trkpt lat="59.3115270" lon="18.0282590">
        <ele>16.9600000</ele>
        <time>2010-12-03T21:34:05Z</time>
      </trkpt>
      <trkpt lat="59.3114850" lon="18.0282340">
        <ele>17.4400000</ele>
        <time>2010-12-03T21:34:06Z</time>
      </trkpt>
      <trkpt lat="59.3114400" lon="18.0282020">
        <ele>16.9600000</ele>
        <time>2010-12-03T21:34:07Z</time>
      </trkpt>
      <trkpt lat="59.3113980" lon="18.0281620">
        <ele>16.9600000</ele>
        <time>2010-12-03T21:34:08Z</time>
      </trkpt>
      <trkpt lat="59.3113520" lon="18.0281140">
        <ele>16.9600000</ele>
        <time>2010-12-03T21:34:09Z</time>
      </trkpt>
      <trkpt lat="59.3113020" lon="18.0280630">
        <ele>16.9600000</ele>
        <time>2010-12-03T21:34:10Z</time>
      </trkpt>
      <trkpt lat="59.3108750" lon="18.0275330">
        <ele>17.4400000</ele>
        <time>2010-12-03T21:34:19Z</time>
      </trkpt>
      <trkpt lat="59.3105740" lon="18.0270480">
        <ele>17.9200000</ele>
        <time>2010-12-03T21:34:26Z</time>
      </trkpt>
      <trkpt lat="59.3099520" lon="18.0262580">
        <ele>17.4400000</ele>
        <time>2010-12-03T21:34:39Z</time>
      </trkpt>
      <trkpt lat="59.3093800" lon="18.0254730">
        <ele>17.9200000</ele>
        <time>2010-12-03T21:34:52Z</time>
      </trkpt>
      <trkpt lat="59.3093030" lon="18.0250820">
        <ele>15.0400000</ele>
        <time>2010-12-03T21:34:59Z</time>
      </trkpt>
      <trkpt lat="59.3093150" lon="18.0250400">
        <ele>19.3600000</ele>
        <time>2010-12-03T21:35:00Z</time>
      </trkpt>
      <trkpt lat="59.3092160" lon="18.0247540">
        <ele>19.8400000</ele>
        <time>2010-12-03T21:35:08Z</time>
      </trkpt>
      <trkpt lat="59.3091390" lon="18.0247310">
        <ele>19.8400000</ele>
        <time>2010-12-03T21:35:11Z</time>
      </trkpt>
      <trkpt lat="59.3091130" lon="18.0247650">
        <ele>19.8400000</ele>
        <time>2010-12-03T21:35:12Z</time>
      </trkpt>
      <trkpt lat="59.3090820" lon="18.0248050">
        <ele>19.3600000</ele>
        <time>2010-12-03T21:35:13Z</time>
      </trkpt>
      <trkpt lat="59.3090480" lon="18.0248360">
        <ele>18.8800000</ele>
        <time>2010-12-03T21:35:14Z</time>
      </trkpt>
      <trkpt lat="59.3090060" lon="18.0248470">
        <ele>18.8800000</ele>
        <time>2010-12-03T21:35:15Z</time>
      </trkpt>
      <trkpt lat="59.3089640" lon="18.0248390">
        <ele>19.3600000</ele>
        <time>2010-12-03T21:35:16Z</time>
      </trkpt>
      <trkpt lat="59.3089220" lon="18.0248070">
        <ele>18.4000000</ele>
        <time>2010-12-03T21:35:17Z</time>
      </trkpt>
      <trkpt lat="59.3088800" lon="18.0247630">
        <ele>19.3600000</ele>
        <time>2010-12-03T21:35:18Z</time>
      </trkpt>
      <trkpt lat="59.3084530" lon="18.0242100">
        <ele>19.3600000</ele>
        <time>2010-12-03T21:35:27Z</time>
      </trkpt>
      <trkpt lat="59.3078500" lon="18.0233960">
        <ele>18.8800000</ele>
        <time>2010-12-03T21:35:39Z</time>
      </trkpt>
      <trkpt lat="59.3073500" lon="18.0224950">
        <ele>18.8800000</ele>
        <time>2010-12-03T21:35:51Z</time>
      </trkpt>
      <trkpt lat="59.3071590" lon="18.0219940">
        <ele>20.3200000</ele>
        <time>2010-12-03T21:35:57Z</time>
      </trkpt>
      <trkpt lat="59.3071330" lon="18.0219190">
        <ele>19.8400000</ele>
        <time>2010-12-03T21:35:58Z</time>
      </trkpt>
      <trkpt lat="59.3071100" lon="18.0218410">
        <ele>19.8400000</ele>
        <time>2010-12-03T21:35:59Z</time>
      </trkpt>
      <trkpt lat="59.3069950" lon="18.0212380">
        <ele>20.3200000</ele>
        <time>2010-12-03T21:36:08Z</time>
      </trkpt>
      <trkpt lat="59.3069880" lon="18.0211030">
        <ele>21.2900000</ele>
        <time>2010-12-03T21:36:10Z</time>
      </trkpt>
      <trkpt lat="59.3069230" lon="18.0203150">
        <ele>21.7700000</ele>
        <time>2010-12-03T21:36:20Z</time>
      </trkpt>
      <trkpt lat="59.3068080" lon="18.0189990">
        <ele>24.1700000</ele>
        <time>2010-12-03T21:36:34Z</time>
      </trkpt>
      <trkpt lat="59.3067050" lon="18.0178510">
        <ele>26.0900000</ele>
        <time>2010-12-03T21:36:46Z</time>
      </trkpt>
      <trkpt lat="59.3066180" lon="18.0167350">
        <ele>28.0200000</ele>
        <time>2010-12-03T21:36:59Z</time>
      </trkpt>
      <trkpt lat="59.3065300" lon="18.0157340">
        <ele>28.5000000</ele>
        <time>2010-12-03T21:37:11Z</time>
      </trkpt>
      <trkpt lat="59.3064540" lon="18.0147320">
        <ele>28.9800000</ele>
        <time>2010-12-03T21:37:23Z</time>
      </trkpt>
      <trkpt lat="59.3064690" lon="18.0144350">
        <ele>28.9800000</ele>
        <time>2010-12-03T21:37:28Z</time>
      </trkpt>
      <trkpt lat="59.3064610" lon="18.0143910">
        <ele>28.9800000</ele>
        <time>2010-12-03T21:37:29Z</time>
      </trkpt>
      <trkpt lat="59.3064420" lon="18.0143570">
        <ele>28.9800000</ele>
        <time>2010-12-03T21:37:30Z</time>
      </trkpt>
      <trkpt lat="59.3064230" lon="18.0143220">
        <ele>28.9800000</ele>
        <time>2010-12-03T21:37:31Z</time>
      </trkpt>
      <trkpt lat="59.3064000" lon="18.0142820">
        <ele>28.9800000</ele>
        <time>2010-12-03T21:37:32Z</time>
      </trkpt>
      <trkpt lat="59.3063890" lon="18.0142360">
        <ele>29.4600000</ele>
        <time>2010-12-03T21:37:33Z</time>
      </trkpt>
      <trkpt lat="59.3063850" lon="18.0141810">
        <ele>29.4600000</ele>
        <time>2010-12-03T21:37:34Z</time>
      </trkpt>
      <trkpt lat="59.3063770" lon="18.0141200">
        <ele>28.9800000</ele>
        <time>2010-12-03T21:37:35Z</time>
      </trkpt>
      <trkpt lat="59.3062820" lon="18.0134010">
        <ele>29.9400000</ele>
        <time>2010-12-03T21:37:46Z</time>
      </trkpt>
      <trkpt lat="59.3062550" lon="18.0128920">
        <ele>30.4200000</ele>
        <time>2010-12-03T21:37:55Z</time>
      </trkpt>
      <trkpt lat="59.3062520" lon="18.0123200">
        <ele>30.9000000</ele>
        <time>2010-12-03T21:38:05Z</time>
      </trkpt>
      <trkpt lat="59.3062480" lon="18.0121310">
        <ele>31.8600000</ele>
        <time>2010-12-03T21:38:13Z</time>
      </trkpt>
      <trkpt lat="59.3062480" lon="18.0121170">
        <ele>31.3800000</ele>
        <time>2010-12-03T21:38:14Z</time>
      </trkpt>
      <trkpt lat="59.3062440" lon="18.0120850">
        <ele>31.8600000</ele>
        <time>2010-12-03T21:38:16Z</time>
      </trkpt>
      <trkpt lat="59.3062360" lon="18.0120560">
        <ele>31.3800000</ele>
        <time>2010-12-03T21:38:17Z</time>
      </trkpt>
      <trkpt lat="59.3062290" lon="18.0120160">
        <ele>31.8600000</ele>
        <time>2010-12-03T21:38:18Z</time>
      </trkpt>
      <trkpt lat="59.3061330" lon="18.0114290">
        <ele>32.3400000</ele>
        <time>2010-12-03T21:38:27Z</time>
      </trkpt>
      <trkpt lat="59.3060380" lon="18.0105150">
        <ele>33.7800000</ele>
        <time>2010-12-03T21:38:40Z</time>
      </trkpt>
      <trkpt lat="59.3059430" lon="18.0096910">
        <ele>34.7400000</ele>
        <time>2010-12-03T21:38:55Z</time>
      </trkpt>
      <trkpt lat="59.3058890" lon="18.0091380">
        <ele>35.2300000</ele>
        <time>2010-12-03T21:39:03Z</time>
      </trkpt>
      <trkpt lat="59.3058200" lon="18.0079040">
        <ele>36.1900000</ele>
        <time>2010-12-03T21:39:15Z</time>
      </trkpt>
      <trkpt lat="59.3057980" lon="18.0067290">
        <ele>35.2300000</ele>
        <time>2010-12-03T21:39:27Z</time>
      </trkpt>
      <trkpt lat="59.3057900" lon="18.0064770">
        <ele>35.2300000</ele>
        <time>2010-12-03T21:39:30Z</time>
      </trkpt>
      <trkpt lat="59.3057900" lon="18.0063900">
        <ele>35.7100000</ele>
        <time>2010-12-03T21:39:31Z</time>
      </trkpt>
      <trkpt lat="59.3057860" lon="18.0061020">
        <ele>35.2300000</ele>
        <time>2010-12-03T21:39:34Z</time>
      </trkpt>
      <trkpt lat="59.3057860" lon="18.0059970">
        <ele>35.2300000</ele>
        <time>2010-12-03T21:39:35Z</time>
      </trkpt>
      <trkpt lat="59.3057860" lon="18.0058860">
        <ele>34.7400000</ele>
        <time>2010-12-03T21:39:36Z</time>
      </trkpt>
      <trkpt lat="59.3057750" lon="18.0055580">
        <ele>34.7400000</ele>
        <time>2010-12-03T21:39:39Z</time>
      </trkpt>
      <trkpt lat="59.3057710" lon="18.0051540">
        <ele>34.2600000</ele>
        <time>2010-12-03T21:39:43Z</time>
      </trkpt>
      <trkpt lat="59.3057250" lon="18.0048520">
        <ele>33.7800000</ele>
        <time>2010-12-03T21:39:46Z</time>
      </trkpt>
      <trkpt lat="59.3057210" lon="18.0047470">
        <ele>33.7800000</ele>
        <time>2010-12-03T21:39:47Z</time>
      </trkpt>
      <trkpt lat="59.3057060" lon="18.0042570">
        <ele>33.3000000</ele>
        <time>2010-12-03T21:39:52Z</time>
      </trkpt>
      <trkpt lat="59.3057020" lon="18.0041730">
        <ele>33.3000000</ele>
        <time>2010-12-03T21:39:53Z</time>
      </trkpt>
      <trkpt lat="59.3057020" lon="18.0040110">
        <ele>32.8200000</ele>
        <time>2010-12-03T21:39:55Z</time>
      </trkpt>
      <trkpt lat="59.3057140" lon="18.0039100">
        <ele>32.8200000</ele>
        <time>2010-12-03T21:39:56Z</time>
      </trkpt>
      <trkpt lat="59.3057020" lon="18.0036050">
        <ele>32.8200000</ele>
        <time>2010-12-03T21:39:59Z</time>
      </trkpt>
      <trkpt lat="59.3056980" lon="18.0034850">
        <ele>32.8200000</ele>
        <time>2010-12-03T21:40:00Z</time>
      </trkpt>
      <trkpt lat="59.3056560" lon="18.0018710">
        <ele>30.9000000</ele>
        <time>2010-12-03T21:40:11Z</time>
      </trkpt>
      <trkpt lat="59.3056110" lon="18.0003640">
        <ele>30.4200000</ele>
        <time>2010-12-03T21:40:22Z</time>
      </trkpt>
      <trkpt lat="59.3055920" lon="17.9992520">
        <ele>29.9400000</ele>
        <time>2010-12-03T21:40:32Z</time>
      </trkpt>
      <trkpt lat="59.3055760" lon="17.9983350">
        <ele>29.4600000</ele>
        <time>2010-12-03T21:40:40Z</time>
      </trkpt>
      <trkpt lat="59.3055840" lon="17.9982240">
        <ele>29.9400000</ele>
        <time>2010-12-03T21:40:41Z</time>
      </trkpt>
      <trkpt lat="59.3055950" lon="17.9981170">
        <ele>29.9400000</ele>
        <time>2010-12-03T21:40:42Z</time>
      </trkpt>
      <trkpt lat="59.3056030" lon="17.9980180">
        <ele>29.9400000</ele>
        <time>2010-12-03T21:40:43Z</time>
      </trkpt>
      <trkpt lat="59.3056030" lon="17.9979230">
        <ele>29.4600000</ele>
        <time>2010-12-03T21:40:44Z</time>
      </trkpt>
      <trkpt lat="59.3055920" lon="17.9978280">
        <ele>29.9400000</ele>
        <time>2010-12-03T21:40:45Z</time>
      </trkpt>
      <trkpt lat="59.3055690" lon="17.9977280">
        <ele>29.4600000</ele>
        <time>2010-12-03T21:40:46Z</time>
      </trkpt>
      <trkpt lat="59.3055460" lon="17.9976220">
        <ele>29.4600000</ele>
        <time>2010-12-03T21:40:47Z</time>
      </trkpt>
      <trkpt lat="59.3055340" lon="17.9975050">
        <ele>29.4600000</ele>
        <time>2010-12-03T21:40:48Z</time>
      </trkpt>
      <trkpt lat="59.3054280" lon="17.9957890">
        <ele>27.5300000</ele>
        <time>2010-12-03T21:41:01Z</time>
      </trkpt>
      <trkpt lat="59.3053470" lon="17.9944520">
        <ele>25.6100000</ele>
        <time>2010-12-03T21:41:12Z</time>
      </trkpt>
      <trkpt lat="59.3052980" lon="17.9932940">
        <ele>24.1700000</ele>
        <time>2010-12-03T21:41:22Z</time>
      </trkpt>
      <trkpt lat="59.3052900" lon="17.9931160">
        <ele>24.1700000</ele>
        <time>2010-12-03T21:41:24Z</time>
      </trkpt>
      <trkpt lat="59.3052860" lon="17.9930290">
        <ele>24.1700000</ele>
        <time>2010-12-03T21:41:25Z</time>
      </trkpt>
      <trkpt lat="59.3052020" lon="17.9918100">
        <ele>22.7300000</ele>
        <time>2010-12-03T21:41:36Z</time>
      </trkpt>
      <trkpt lat="59.3050990" lon="17.9901430">
        <ele>21.7700000</ele>
        <time>2010-12-03T21:41:49Z</time>
      </trkpt>
      <trkpt lat="59.3050310" lon="17.9885600">
        <ele>20.8100000</ele>
        <time>2010-12-03T21:42:03Z</time>
      </trkpt>
      <trkpt lat="59.3048930" lon="17.9872740">
        <ele>18.4000000</ele>
        <time>2010-12-03T21:42:13Z</time>
      </trkpt>
      <trkpt lat="59.3047710" lon="17.9854910">
        <ele>16.0000000</ele>
        <time>2010-12-03T21:42:27Z</time>
      </trkpt>
      <trkpt lat="59.3046880" lon="17.9840470">
        <ele>16.0000000</ele>
        <time>2010-12-03T21:42:39Z</time>
      </trkpt>
      <trkpt lat="59.3046420" lon="17.9828510">
        <ele>16.9600000</ele>
        <time>2010-12-03T21:42:50Z</time>
      </trkpt>
      <trkpt lat="59.3045880" lon="17.9816280">
        <ele>17.9200000</ele>
        <time>2010-12-03T21:43:01Z</time>
      </trkpt>
      <trkpt lat="59.3045270" lon="17.9802630">
        <ele>20.8100000</ele>
        <time>2010-12-03T21:43:13Z</time>
      </trkpt>
      <trkpt lat="59.3044930" lon="17.9792630">
        <ele>24.1700000</ele>
        <time>2010-12-03T21:43:24Z</time>
      </trkpt>
      <trkpt lat="59.3044280" lon="17.9785900">
        <ele>25.6100000</ele>
        <time>2010-12-03T21:43:32Z</time>
      </trkpt>
      <trkpt lat="59.3041950" lon="17.9777720">
        <ele>28.0200000</ele>
        <time>2010-12-03T21:43:44Z</time>
      </trkpt>
      <trkpt lat="59.3041080" lon="17.9771670">
        <ele>28.9800000</ele>
        <time>2010-12-03T21:43:53Z</time>
      </trkpt>
      <trkpt lat="59.3040580" lon="17.9770510">
        <ele>28.9800000</ele>
        <time>2010-12-03T21:43:55Z</time>
      </trkpt>
      <trkpt lat="59.3039970" lon="17.9769250">
        <ele>28.5000000</ele>
        <time>2010-12-03T21:43:57Z</time>
      </trkpt>
      <trkpt lat="59.3039700" lon="17.9768450">
        <ele>28.5000000</ele>
        <time>2010-12-03T21:43:58Z</time>
      </trkpt>
      <trkpt lat="59.3039470" lon="17.9767530">
        <ele>28.5000000</ele>
        <time>2010-12-03T21:43:59Z</time>
      </trkpt>
      <trkpt lat="59.3036310" lon="17.9754330">
        <ele>29.4600000</ele>
        <time>2010-12-03T21:44:13Z</time>
      </trkpt>
      <trkpt lat="59.3032990" lon="17.9743120">
        <ele>30.4200000</ele>
        <time>2010-12-03T21:44:26Z</time>
      </trkpt>
      <trkpt lat="59.3027950" lon="17.9733090">
        <ele>31.8600000</ele>
        <time>2010-12-03T21:44:40Z</time>
      </trkpt>
      <trkpt lat="59.3023950" lon="17.9725380">
        <ele>33.7800000</ele>
        <time>2010-12-03T21:44:51Z</time>
      </trkpt>
      <trkpt lat="59.3022580" lon="17.9722580">
        <ele>34.2600000</ele>
        <time>2010-12-03T21:44:55Z</time>
      </trkpt>
      <trkpt lat="59.3017960" lon="17.9712720">
        <ele>35.2300000</ele>
        <time>2010-12-03T21:45:08Z</time>
      </trkpt>
      <trkpt lat="59.3016010" lon="17.9705470">
        <ele>35.2300000</ele>
        <time>2010-12-03T21:45:16Z</time>
      </trkpt>
      <trkpt lat="59.3013110" lon="17.9692670">
        <ele>36.6700000</ele>
        <time>2010-12-03T21:45:30Z</time>
      </trkpt>
      <trkpt lat="59.3010220" lon="17.9680180">
        <ele>37.1500000</ele>
        <time>2010-12-03T21:45:44Z</time>
      </trkpt>
      <trkpt lat="59.3009220" lon="17.9676000">
        <ele>38.5900000</ele>
        <time>2010-12-03T21:45:49Z</time>
      </trkpt>
      <trkpt lat="59.3008460" lon="17.9670850">
        <ele>38.5900000</ele>
        <time>2010-12-03T21:45:55Z</time>
      </trkpt>
      <trkpt lat="59.3007390" lon="17.9659520">
        <ele>39.5500000</ele>
        <time>2010-12-03T21:46:06Z</time>
      </trkpt>
      <trkpt lat="59.3006320" lon="17.9643860">
        <ele>40.5100000</ele>
        <time>2010-12-03T21:46:21Z</time>
      </trkpt>
      <trkpt lat="59.3005290" lon="17.9630660">
        <ele>40.0300000</ele>
        <time>2010-12-03T21:46:33Z</time>
      </trkpt>
      <trkpt lat="59.3004990" lon="17.9615150">
        <ele>39.0700000</ele>
        <time>2010-12-03T21:46:47Z</time>
      </trkpt>
      <trkpt lat="59.3007050" lon="17.9601550">
        <ele>37.6300000</ele>
        <time>2010-12-03T21:46:59Z</time>
      </trkpt>
      <trkpt lat="59.3010060" lon="17.9587210">
        <ele>37.6300000</ele>
        <time>2010-12-03T21:47:12Z</time>
      </trkpt>
      <trkpt lat="59.3011050" lon="17.9580570">
        <ele>39.0700000</ele>
        <time>2010-12-03T21:47:19Z</time>
      </trkpt>
      <trkpt lat="59.3010860" lon="17.9573210">
        <ele>40.0300000</ele>
        <time>2010-12-03T21:47:28Z</time>
      </trkpt>
      <trkpt lat="59.3010640" lon="17.9572750">
        <ele>39.5500000</ele>
        <time>2010-12-03T21:47:29Z</time>
      </trkpt>
      <trkpt lat="59.3010290" lon="17.9572470">
        <ele>39.5500000</ele>
        <time>2010-12-03T21:47:30Z</time>
      </trkpt>
      <trkpt lat="59.3009410" lon="17.9572070">
        <ele>39.5500000</ele>
        <time>2010-12-03T21:47:32Z</time>
      </trkpt>
      <trkpt lat="59.3008960" lon="17.9572050">
        <ele>39.0700000</ele>
        <time>2010-12-03T21:47:33Z</time>
      </trkpt>
      <trkpt lat="59.3008460" lon="17.9572030">
        <ele>39.5500000</ele>
        <time>2010-12-03T21:47:34Z</time>
      </trkpt>
      <trkpt lat="59.3001170" lon="17.9571990">
        <ele>40.5100000</ele>
        <time>2010-12-03T21:47:48Z</time>
      </trkpt>
      <trkpt lat="59.2995340" lon="17.9569760">
        <ele>41.9500000</ele>
        <time>2010-12-03T21:48:00Z</time>
      </trkpt>
      <trkpt lat="59.2991070" lon="17.9567790">
        <ele>41.9500000</ele>
        <time>2010-12-03T21:48:08Z</time>
      </trkpt>
      <trkpt lat="59.2990530" lon="17.9567550">
        <ele>41.9500000</ele>
        <time>2010-12-03T21:48:09Z</time>
      </trkpt>
      <trkpt lat="59.2984580" lon="17.9566100">
        <ele>43.4000000</ele>
        <time>2010-12-03T21:48:20Z</time>
      </trkpt>
      <trkpt lat="59.2979130" lon="17.9564760">
        <ele>44.3600000</ele>
        <time>2010-12-03T21:48:31Z</time>
      </trkpt>
      <trkpt lat="59.2978630" lon="17.9564590">
        <ele>44.3600000</ele>
        <time>2010-12-03T21:48:32Z</time>
      </trkpt>
      <trkpt lat="59.2974430" lon="17.9563030">
        <ele>44.8400000</ele>
        <time>2010-12-03T21:48:40Z</time>
      </trkpt>
      <trkpt lat="59.2966880" lon="17.9559570">
        <ele>46.2800000</ele>
        <time>2010-12-03T21:48:55Z</time>
      </trkpt>
      <trkpt lat="59.2961270" lon="17.9556810">
        <ele>45.3200000</ele>
        <time>2010-12-03T21:49:05Z</time>
      </trkpt>
      <trkpt lat="59.2953990" lon="17.9552230">
        <ele>45.8000000</ele>
        <time>2010-12-03T21:49:18Z</time>
      </trkpt>
      <trkpt lat="59.2946970" lon="17.9545460">
        <ele>45.8000000</ele>
        <time>2010-12-03T21:49:31Z</time>
      </trkpt>
      <trkpt lat="59.2940410" lon="17.9539170">
        <ele>46.2800000</ele>
        <time>2010-12-03T21:49:43Z</time>
      </trkpt>
      <trkpt lat="59.2932470" lon="17.9531860">
        <ele>44.8400000</ele>
        <time>2010-12-03T21:49:57Z</time>
      </trkpt>
      <trkpt lat="59.2926330" lon="17.9524800">
        <ele>44.3600000</ele>
        <time>2010-12-03T21:50:08Z</time>
      </trkpt>
      <trkpt lat="59.2917820" lon="17.9515020">
        <ele>43.4000000</ele>
        <time>2010-12-03T21:50:22Z</time>
      </trkpt>
      <trkpt lat="59.2909050" lon="17.9504950">
        <ele>33.3000000</ele>
        <time>2010-12-03T21:50:36Z</time>
      </trkpt>
      <trkpt lat="59.2908480" lon="17.9504260">
        <ele>41.4700000</ele>
        <time>2010-12-03T21:50:37Z</time>
      </trkpt>
      <trkpt lat="59.2904780" lon="17.9499660">
        <ele>40.5100000</ele>
        <time>2010-12-03T21:50:44Z</time>
      </trkpt>
      <trkpt lat="59.2900050" lon="17.9492490">
        <ele>40.9900000</ele>
        <time>2010-12-03T21:50:54Z</time>
      </trkpt>
      <trkpt lat="59.2899320" lon="17.9490640">
        <ele>37.6300000</ele>
        <time>2010-12-03T21:50:56Z</time>
      </trkpt>
      <trkpt lat="59.2899060" lon="17.9489630">
        <ele>40.9900000</ele>
        <time>2010-12-03T21:50:57Z</time>
      </trkpt>
      <trkpt lat="59.2898790" lon="17.9488540">
        <ele>40.9900000</ele>
        <time>2010-12-03T21:50:58Z</time>
      </trkpt>
      <trkpt lat="59.2897680" lon="17.9481220">
        <ele>41.4700000</ele>
        <time>2010-12-03T21:51:06Z</time>
      </trkpt>
      <trkpt lat="59.2897450" lon="17.9477100">
        <ele>41.4700000</ele>
        <time>2010-12-03T21:51:10Z</time>
      </trkpt>
      <trkpt lat="59.2897150" lon="17.9473380">
        <ele>38.1100000</ele>
        <time>2010-12-03T21:51:15Z</time>
      </trkpt>
      <trkpt lat="59.2897150" lon="17.9472900">
        <ele>41.9500000</ele>
        <time>2010-12-03T21:51:16Z</time>
      </trkpt>
      <trkpt lat="59.2897110" lon="17.9472200">
        <ele>41.9500000</ele>
        <time>2010-12-03T21:51:24Z</time>
      </trkpt>
      <trkpt lat="59.2896880" lon="17.9468080">
        <ele>41.4700000</ele>
        <time>2010-12-03T21:51:32Z</time>
      </trkpt>
      <trkpt lat="59.2896840" lon="17.9467200">
        <ele>38.1100000</ele>
        <time>2010-12-03T21:51:33Z</time>
      </trkpt>
      <trkpt lat="59.2896800" lon="17.9466230">
        <ele>42.4400000</ele>
        <time>2010-12-03T21:51:34Z</time>
      </trkpt>
      <trkpt lat="59.2895090" lon="17.9455760">
        <ele>40.9900000</ele>
        <time>2010-12-03T21:51:44Z</time>
      </trkpt>
      <trkpt lat="59.2890550" lon="17.9444350">
        <ele>39.5500000</ele>
        <time>2010-12-03T21:51:56Z</time>
      </trkpt>
      <trkpt lat="59.2885280" lon="17.9427300">
        <ele>40.5100000</ele>
        <time>2010-12-03T21:52:13Z</time>
      </trkpt>
      <trkpt lat="59.2882190" lon="17.9408990">
        <ele>38.1100000</ele>
        <time>2010-12-03T21:52:28Z</time>
      </trkpt>
      <trkpt lat="59.2880630" lon="17.9390110">
        <ele>35.2300000</ele>
        <time>2010-12-03T21:52:42Z</time>
      </trkpt>
      <trkpt lat="59.2880670" lon="17.9374750">
        <ele>35.2300000</ele>
        <time>2010-12-03T21:52:54Z</time>
      </trkpt>
      <trkpt lat="59.2883260" lon="17.9357590">
        <ele>34.2600000</ele>
        <time>2010-12-03T21:53:08Z</time>
      </trkpt>
      <trkpt lat="59.2887690" lon="17.9342520">
        <ele>34.2600000</ele>
        <time>2010-12-03T21:53:22Z</time>
      </trkpt>
      <trkpt lat="59.2892380" lon="17.9325310">
        <ele>34.2600000</ele>
        <time>2010-12-03T21:53:38Z</time>
      </trkpt>
      <trkpt lat="59.2892880" lon="17.9310680">
        <ele>33.7800000</ele>
        <time>2010-12-03T21:53:50Z</time>
      </trkpt>
      <trkpt lat="59.2890930" lon="17.9297290">
        <ele>35.2300000</ele>
        <time>2010-12-03T21:54:02Z</time>
      </trkpt>
      <trkpt lat="59.2886890" lon="17.9286820">
        <ele>34.2600000</ele>
        <time>2010-12-03T21:54:13Z</time>
      </trkpt>
      <trkpt lat="59.2880780" lon="17.9279630">
        <ele>35.2300000</ele>
        <time>2010-12-03T21:54:25Z</time>
      </trkpt>
      <trkpt lat="59.2874410" lon="17.9274100">
        <ele>38.1100000</ele>
        <time>2010-12-03T21:54:38Z</time>
      </trkpt>
      <trkpt lat="59.2869110" lon="17.9269750">
        <ele>40.0300000</ele>
        <time>2010-12-03T21:54:49Z</time>
      </trkpt>
      <trkpt lat="59.2863160" lon="17.9264790">
        <ele>40.0300000</ele>
        <time>2010-12-03T21:55:01Z</time>
      </trkpt>
      <trkpt lat="59.2855640" lon="17.9258100">
        <ele>40.5100000</ele>
        <time>2010-12-03T21:55:16Z</time>
      </trkpt>
      <trkpt lat="59.2849540" lon="17.9250640">
        <ele>41.4700000</ele>
        <time>2010-12-03T21:55:29Z</time>
      </trkpt>
      <trkpt lat="59.2842750" lon="17.9241100">
        <ele>41.4700000</ele>
        <time>2010-12-03T21:55:44Z</time>
      </trkpt>
      <trkpt lat="59.2836230" lon="17.9230670">
        <ele>42.9200000</ele>
        <time>2010-12-03T21:55:59Z</time>
      </trkpt>
      <trkpt lat="59.2830160" lon="17.9219630">
        <ele>44.8400000</ele>
        <time>2010-12-03T21:56:14Z</time>
      </trkpt>
      <trkpt lat="59.2829780" lon="17.9218900">
        <ele>44.8400000</ele>
        <time>2010-12-03T21:56:15Z</time>
      </trkpt>
      <trkpt lat="59.2823830" lon="17.9207290">
        <ele>44.3600000</ele>
        <time>2010-12-03T21:56:30Z</time>
      </trkpt>
      <trkpt lat="59.2818950" lon="17.9195040">
        <ele>44.3600000</ele>
        <time>2010-12-03T21:56:44Z</time>
      </trkpt>
      <trkpt lat="59.2816660" lon="17.9182170">
        <ele>43.8800000</ele>
        <time>2010-12-03T21:56:56Z</time>
      </trkpt>
      <trkpt lat="59.2816090" lon="17.9164960">
        <ele>42.4400000</ele>
        <time>2010-12-03T21:57:10Z</time>
      </trkpt>
      <trkpt lat="59.2815480" lon="17.9144880">
        <ele>40.5100000</ele>
        <time>2010-12-03T21:57:26Z</time>
      </trkpt>
      <trkpt lat="59.2813380" lon="17.9129680">
        <ele>38.1100000</ele>
        <time>2010-12-03T21:57:38Z</time>
      </trkpt>
      <trkpt lat="59.2808880" lon="17.9117980">
        <ele>36.6700000</ele>
        <time>2010-12-03T21:57:49Z</time>
      </trkpt>
      <trkpt lat="59.2802930" lon="17.9110220">
        <ele>37.1500000</ele>
        <time>2010-12-03T21:58:00Z</time>
      </trkpt>
      <trkpt lat="59.2795790" lon="17.9106540">
        <ele>39.0700000</ele>
        <time>2010-12-03T21:58:12Z</time>
      </trkpt>
      <trkpt lat="59.2787400" lon="17.9106370">
        <ele>40.5100000</ele>
        <time>2010-12-03T21:58:26Z</time>
      </trkpt>
      <trkpt lat="59.2777480" lon="17.9107250">
        <ele>40.5100000</ele>
        <time>2010-12-03T21:58:42Z</time>
      </trkpt>
      <trkpt lat="59.2768360" lon="17.9108910">
        <ele>37.6300000</ele>
        <time>2010-12-03T21:58:55Z</time>
      </trkpt>
      <trkpt lat="59.2758480" lon="17.9110950">
        <ele>34.2600000</ele>
        <time>2010-12-03T21:59:08Z</time>
      </trkpt>
      <trkpt lat="59.2745820" lon="17.9113270">
        <ele>32.3400000</ele>
        <time>2010-12-03T21:59:24Z</time>
      </trkpt>
      <trkpt lat="59.2740520" lon="17.9113480">
        <ele>31.8600000</ele>
        <time>2010-12-03T21:59:31Z</time>
      </trkpt>
      <trkpt lat="59.2738910" lon="17.9113620">
        <ele>31.3800000</ele>
        <time>2010-12-03T21:59:33Z</time>
      </trkpt>
      <trkpt lat="59.2730480" lon="17.9111440">
        <ele>30.9000000</ele>
        <time>2010-12-03T21:59:45Z</time>
      </trkpt>
      <trkpt lat="59.2723240" lon="17.9108560">
        <ele>31.8600000</ele>
        <time>2010-12-03T21:59:57Z</time>
      </trkpt>
      <trkpt lat="59.2717360" lon="17.9104650">
        <ele>33.3000000</ele>
        <time>2010-12-03T22:00:08Z</time>
      </trkpt>
      <trkpt lat="59.2711830" lon="17.9099140">
        <ele>36.1900000</ele>
        <time>2010-12-03T22:00:20Z</time>
      </trkpt>
      <trkpt lat="59.2707440" lon="17.9094600">
        <ele>39.0700000</ele>
        <time>2010-12-03T22:00:31Z</time>
      </trkpt>
      <trkpt lat="59.2706300" lon="17.9093340">
        <ele>40.0300000</ele>
        <time>2010-12-03T22:00:34Z</time>
      </trkpt>
      <trkpt lat="59.2705500" lon="17.9092560">
        <ele>40.0300000</ele>
        <time>2010-12-03T22:00:36Z</time>
      </trkpt>
      <trkpt lat="59.2702520" lon="17.9089200">
        <ele>41.9500000</ele>
        <time>2010-12-03T22:00:44Z</time>
      </trkpt>
      <trkpt lat="59.2696910" lon="17.9082810">
        <ele>44.3600000</ele>
        <time>2010-12-03T22:00:58Z</time>
      </trkpt>
      <trkpt lat="59.2692220" lon="17.9073960">
        <ele>42.9200000</ele>
        <time>2010-12-03T22:01:10Z</time>
      </trkpt>
      <trkpt lat="59.2688180" lon="17.9060610">
        <ele>42.9200000</ele>
        <time>2010-12-03T22:01:23Z</time>
      </trkpt>
      <trkpt lat="59.2686610" lon="17.9046630">
        <ele>42.9200000</ele>
        <time>2010-12-03T22:01:35Z</time>
      </trkpt>
      <trkpt lat="59.2686160" lon="17.9031940">
        <ele>44.3600000</ele>
        <time>2010-12-03T22:01:48Z</time>
      </trkpt>
      <trkpt lat="59.2685700" lon="17.9015670">
        <ele>45.8000000</ele>
        <time>2010-12-03T22:02:03Z</time>
      </trkpt>
      <trkpt lat="59.2683940" lon="17.8998620">
        <ele>44.8400000</ele>
        <time>2010-12-03T22:02:18Z</time>
      </trkpt>
      <trkpt lat="59.2680240" lon="17.8985290">
        <ele>45.8000000</ele>
        <time>2010-12-03T22:02:31Z</time>
      </trkpt>
      <trkpt lat="59.2674600" lon="17.8973560">
        <ele>47.7200000</ele>
        <time>2010-12-03T22:02:46Z</time>
      </trkpt>
      <trkpt lat="59.2669640" lon="17.8967630">
        <ele>47.7200000</ele>
        <time>2010-12-03T22:02:57Z</time>
      </trkpt>
      <trkpt lat="59.2664530" lon="17.8963870">
        <ele>48.2000000</ele>
        <time>2010-12-03T22:03:08Z</time>
      </trkpt>
      <trkpt lat="59.2659450" lon="17.8961300">
        <ele>49.1600000</ele>
        <time>2010-12-03T22:03:18Z</time>
      </trkpt>
      <trkpt lat="59.2659030" lon="17.8960740">
        <ele>49.1600000</ele>
        <time>2010-12-03T22:03:19Z</time>
      </trkpt>
      <trkpt lat="59.2658650" lon="17.8960020">
        <ele>49.6500000</ele>
        <time>2010-12-03T22:03:20Z</time>
      </trkpt>
      <trkpt lat="59.2658350" lon="17.8959180">
        <ele>49.6500000</ele>
        <time>2010-12-03T22:03:21Z</time>
      </trkpt>
      <trkpt lat="59.2658120" lon="17.8958230">
        <ele>49.6500000</ele>
        <time>2010-12-03T22:03:22Z</time>
      </trkpt>
      <trkpt lat="59.2657970" lon="17.8957230">
        <ele>49.6500000</ele>
        <time>2010-12-03T22:03:23Z</time>
      </trkpt>
      <trkpt lat="59.2657810" lon="17.8956220">
        <ele>49.6500000</ele>
        <time>2010-12-03T22:03:24Z</time>
      </trkpt>
      <trkpt lat="59.2656970" lon="17.8952240">
        <ele>49.1600000</ele>
        <time>2010-12-03T22:03:28Z</time>
      </trkpt>
      <trkpt lat="59.2656670" lon="17.8951340">
        <ele>48.6800000</ele>
        <time>2010-12-03T22:03:29Z</time>
      </trkpt>
      <trkpt lat="59.2656290" lon="17.8950480">
        <ele>48.6800000</ele>
        <time>2010-12-03T22:03:30Z</time>
      </trkpt>
      <trkpt lat="59.2655870" lon="17.8949700">
        <ele>48.6800000</ele>
        <time>2010-12-03T22:03:31Z</time>
      </trkpt>
      <trkpt lat="59.2655370" lon="17.8948990">
        <ele>48.2000000</ele>
        <time>2010-12-03T22:03:32Z</time>
      </trkpt>
      <trkpt lat="59.2654880" lon="17.8948350">
        <ele>48.2000000</ele>
        <time>2010-12-03T22:03:33Z</time>
      </trkpt>
      <trkpt lat="59.2654340" lon="17.8947790">
        <ele>47.7200000</ele>
        <time>2010-12-03T22:03:34Z</time>
      </trkpt>
      <trkpt lat="59.2653730" lon="17.8947390">
        <ele>48.2000000</ele>
        <time>2010-12-03T22:03:35Z</time>
      </trkpt>
      <trkpt lat="59.2653120" lon="17.8947090">
        <ele>47.2400000</ele>
        <time>2010-12-03T22:03:36Z</time>
      </trkpt>
      <trkpt lat="59.2652470" lon="17.8946880">
        <ele>46.7600000</ele>
        <time>2010-12-03T22:03:37Z</time>
      </trkpt>
      <trkpt lat="59.2651820" lon="17.8946700">
        <ele>46.7600000</ele>
        <time>2010-12-03T22:03:38Z</time>
      </trkpt>
      <trkpt lat="59.2649190" lon="17.8946040">
        <ele>38.1100000</ele>
        <time>2010-12-03T22:03:42Z</time>
      </trkpt>
      <trkpt lat="59.2648540" lon="17.8945870">
        <ele>45.8000000</ele>
        <time>2010-12-03T22:03:43Z</time>
      </trkpt>
      <trkpt lat="59.2640270" lon="17.8942910">
        <ele>46.2800000</ele>
        <time>2010-12-03T22:03:55Z</time>
      </trkpt>
      <trkpt lat="59.2637750" lon="17.8940530">
        <ele>46.7600000</ele>
        <time>2010-12-03T22:03:59Z</time>
      </trkpt>
      <trkpt lat="59.2633930" lon="17.8931940">
        <ele>46.2800000</ele>
        <time>2010-12-03T22:04:08Z</time>
      </trkpt>
      <trkpt lat="59.2629850" lon="17.8918690">
        <ele>44.8400000</ele>
        <time>2010-12-03T22:04:20Z</time>
      </trkpt>
      <trkpt lat="59.2628020" lon="17.8911060">
        <ele>43.4000000</ele>
        <time>2010-12-03T22:04:26Z</time>
      </trkpt>
      <trkpt lat="59.2627830" lon="17.8909590">
        <ele>42.9200000</ele>
        <time>2010-12-03T22:04:27Z</time>
      </trkpt>
      <trkpt lat="59.2627750" lon="17.8908080">
        <ele>42.9200000</ele>
        <time>2010-12-03T22:04:28Z</time>
      </trkpt>
      <trkpt lat="59.2627750" lon="17.8906560">
        <ele>42.4400000</ele>
        <time>2010-12-03T22:04:29Z</time>
      </trkpt>
      <trkpt lat="59.2627830" lon="17.8905070">
        <ele>41.9500000</ele>
        <time>2010-12-03T22:04:30Z</time>
      </trkpt>
      <trkpt lat="59.2627980" lon="17.8903620">
        <ele>41.9500000</ele>
        <time>2010-12-03T22:04:31Z</time>
      </trkpt>
      <trkpt lat="59.2628250" lon="17.8902260">
        <ele>41.4700000</ele>
        <time>2010-12-03T22:04:32Z</time>
      </trkpt>
      <trkpt lat="59.2628560" lon="17.8901000">
        <ele>41.4700000</ele>
        <time>2010-12-03T22:04:33Z</time>
      </trkpt>
      <trkpt lat="59.2628940" lon="17.8899780">
        <ele>40.5100000</ele>
        <time>2010-12-03T22:04:34Z</time>
      </trkpt>
      <trkpt lat="59.2634430" lon="17.8885330">
        <ele>38.1100000</ele>
        <time>2010-12-03T22:04:46Z</time>
      </trkpt>
      <trkpt lat="59.2635380" lon="17.8881300">
        <ele>37.6300000</ele>
        <time>2010-12-03T22:04:49Z</time>
      </trkpt>
      <trkpt lat="59.2635540" lon="17.8879850">
        <ele>37.1500000</ele>
        <time>2010-12-03T22:04:50Z</time>
      </trkpt>
      <trkpt lat="59.2635650" lon="17.8878380">
        <ele>37.6300000</ele>
        <time>2010-12-03T22:04:51Z</time>
      </trkpt>
      <trkpt lat="59.2635690" lon="17.8876880">
        <ele>37.6300000</ele>
        <time>2010-12-03T22:04:52Z</time>
      </trkpt>
      <trkpt lat="59.2635730" lon="17.8875430">
        <ele>37.1500000</ele>
        <time>2010-12-03T22:04:53Z</time>
      </trkpt>
      <trkpt lat="59.2635770" lon="17.8856200">
        <ele>35.2300000</ele>
        <time>2010-12-03T22:05:07Z</time>
      </trkpt>
      <trkpt lat="59.2635730" lon="17.8846470">
        <ele>32.3400000</ele>
        <time>2010-12-03T22:05:14Z</time>
      </trkpt>
      <trkpt lat="59.2635730" lon="17.8842120">
        <ele>30.4200000</ele>
        <time>2010-12-03T22:05:17Z</time>
      </trkpt>
      <trkpt lat="59.2635690" lon="17.8837380">
        <ele>27.5300000</ele>
        <time>2010-12-03T22:05:20Z</time>
      </trkpt>
      <trkpt lat="59.2635690" lon="17.8829210">
        <ele>24.6500000</ele>
        <time>2010-12-03T22:05:25Z</time>
      </trkpt>
      <trkpt lat="59.2635690" lon="17.8827550">
        <ele>24.1700000</ele>
        <time>2010-12-03T22:05:26Z</time>
      </trkpt>
      <trkpt lat="59.2635730" lon="17.8819050">
        <ele>21.2900000</ele>
        <time>2010-12-03T22:05:31Z</time>
      </trkpt>
      <trkpt lat="59.2635690" lon="17.8813650">
        <ele>18.8800000</ele>
        <time>2010-12-03T22:05:34Z</time>
      </trkpt>
      <trkpt lat="59.2635000" lon="17.8806320">
        <ele>15.5200000</ele>
        <time>2010-12-03T22:05:38Z</time>
      </trkpt>
      <trkpt lat="59.2633860" lon="17.8801020">
        <ele>12.1500000</ele>
        <time>2010-12-03T22:05:41Z</time>
      </trkpt>
      <trkpt lat="59.2633320" lon="17.8799360">
        <ele>11.6700000</ele>
        <time>2010-12-03T22:05:42Z</time>
      </trkpt>
      <trkpt lat="59.2632140" lon="17.8796220">
        <ele>10.2300000</ele>
        <time>2010-12-03T22:05:44Z</time>
      </trkpt>
      <trkpt lat="59.2631450" lon="17.8794800">
        <ele>9.7500000</ele>
        <time>2010-12-03T22:05:45Z</time>
      </trkpt>
      <trkpt lat="59.2630730" lon="17.8793510">
        <ele>9.2700000</ele>
        <time>2010-12-03T22:05:46Z</time>
      </trkpt>
      <trkpt lat="59.2629170" lon="17.8791160">
        <ele>7.8300000</ele>
        <time>2010-12-03T22:05:48Z</time>
      </trkpt>
      <trkpt lat="59.2627530" lon="17.8789290">
        <ele>6.8700000</ele>
        <time>2010-12-03T22:05:50Z</time>
      </trkpt>
      <trkpt lat="59.2623210" lon="17.8786680">
        <ele>3.9800000</ele>
        <time>2010-12-03T22:05:55Z</time>
      </trkpt>
      <trkpt lat="59.2619360" lon="17.8786450">
        <ele>2.0600000</ele>
        <time>2010-12-03T22:05:59Z</time>
      </trkpt>
      <trkpt lat="59.2606540" lon="17.8788780">
        <ele>0.6200000</ele>
        <time>2010-12-03T22:06:12Z</time>
      </trkpt>
      <trkpt lat="59.2596130" lon="17.8795050">
        <ele>1.5800000</ele>
        <time>2010-12-03T22:06:24Z</time>
      </trkpt>
      <trkpt lat="59.2590070" lon="17.8799000">
        <ele>2.0600000</ele>
        <time>2010-12-03T22:06:32Z</time>
      </trkpt>
      <trkpt lat="59.2587970" lon="17.8800540">
        <ele>2.0600000</ele>
        <time>2010-12-03T22:06:35Z</time>
      </trkpt>
      <trkpt lat="59.2587240" lon="17.8800910">
        <ele>2.0600000</ele>
        <time>2010-12-03T22:06:36Z</time>
      </trkpt>
      <trkpt lat="59.2577970" lon="17.8805260">
        <ele>2.5400000</ele>
        <time>2010-12-03T22:06:49Z</time>
      </trkpt>
      <trkpt lat="59.2571070" lon="17.8808500">
        <ele>3.9800000</ele>
        <time>2010-12-03T22:07:00Z</time>
      </trkpt>
      <trkpt lat="59.2569050" lon="17.8809510">
        <ele>4.9400000</ele>
        <time>2010-12-03T22:07:04Z</time>
      </trkpt>
      <trkpt lat="59.2563360" lon="17.8812220">
        <ele>7.8300000</ele>
        <time>2010-12-03T22:07:16Z</time>
      </trkpt>
      <trkpt lat="59.2559130" lon="17.8812980">
        <ele>10.7100000</ele>
        <time>2010-12-03T22:07:26Z</time>
      </trkpt>
      <trkpt lat="59.2554820" lon="17.8811590">
        <ele>14.0800000</ele>
        <time>2010-12-03T22:07:37Z</time>
      </trkpt>
      <trkpt lat="59.2554020" lon="17.8811090">
        <ele>14.5600000</ele>
        <time>2010-12-03T22:07:39Z</time>
      </trkpt>
      <trkpt lat="59.2553600" lon="17.8810730">
        <ele>14.5600000</ele>
        <time>2010-12-03T22:07:40Z</time>
      </trkpt>
      <trkpt lat="59.2549630" lon="17.8803860">
        <ele>15.0400000</ele>
        <time>2010-12-03T22:07:51Z</time>
      </trkpt>
      <trkpt lat="59.2549170" lon="17.8801960">
        <ele>15.0400000</ele>
        <time>2010-12-03T22:07:53Z</time>
      </trkpt>
      <trkpt lat="59.2549020" lon="17.8800930">
        <ele>15.0400000</ele>
        <time>2010-12-03T22:07:54Z</time>
      </trkpt>
      <trkpt lat="59.2548900" lon="17.8799880">
        <ele>15.0400000</ele>
        <time>2010-12-03T22:07:55Z</time>
      </trkpt>
      <trkpt lat="59.2548790" lon="17.8798830">
        <ele>14.5600000</ele>
        <time>2010-12-03T22:07:56Z</time>
      </trkpt>
      <trkpt lat="59.2548750" lon="17.8797760">
        <ele>14.5600000</ele>
        <time>2010-12-03T22:07:57Z</time>
      </trkpt>
      <trkpt lat="59.2548710" lon="17.8796630">
        <ele>14.5600000</ele>
        <time>2010-12-03T22:07:58Z</time>
      </trkpt>
      <trkpt lat="59.2548790" lon="17.8795470">
        <ele>14.0800000</ele>
        <time>2010-12-03T22:07:59Z</time>
      </trkpt>
      <trkpt lat="59.2548900" lon="17.8794250">
        <ele>13.6000000</ele>
        <time>2010-12-03T22:08:00Z</time>
      </trkpt>
      <trkpt lat="59.2549060" lon="17.8793030">
        <ele>13.6000000</ele>
        <time>2010-12-03T22:08:01Z</time>
      </trkpt>
      <trkpt lat="59.2550700" lon="17.8782420">
        <ele>10.2300000</ele>
        <time>2010-12-03T22:08:09Z</time>
      </trkpt>
      <trkpt lat="59.2551650" lon="17.8773350">
        <ele>7.8300000</ele>
        <time>2010-12-03T22:08:15Z</time>
      </trkpt>
      <trkpt lat="59.2551460" lon="17.8758300">
        <ele>5.4200000</ele>
        <time>2010-12-03T22:08:25Z</time>
      </trkpt>
      <trkpt lat="59.2550240" lon="17.8748000">
        <ele>2.5400000</ele>
        <time>2010-12-03T22:08:32Z</time>
      </trkpt>
      <trkpt lat="59.2549860" lon="17.8746680">
        <ele>2.0600000</ele>
        <time>2010-12-03T22:08:33Z</time>
      </trkpt>
      <trkpt lat="59.2549400" lon="17.8745420">
        <ele>1.5800000</ele>
        <time>2010-12-03T22:08:34Z</time>
      </trkpt>
      <trkpt lat="59.2548870" lon="17.8744220">
        <ele>1.5800000</ele>
        <time>2010-12-03T22:08:35Z</time>
      </trkpt>
      <trkpt lat="59.2548260" lon="17.8743170">
        <ele>1.1000000</ele>
        <time>2010-12-03T22:08:36Z</time>
      </trkpt>
      <trkpt lat="59.2547570" lon="17.8742310">
        <ele>1.1000000</ele>
        <time>2010-12-03T22:08:37Z</time>
      </trkpt>
      <trkpt lat="59.2546840" lon="17.8741650">
        <ele>1.1000000</ele>
        <time>2010-12-03T22:08:38Z</time>
      </trkpt>
      <trkpt lat="59.2546040" lon="17.8741190">
        <ele>1.1000000</ele>
        <time>2010-12-03T22:08:39Z</time>
      </trkpt>
      <trkpt lat="59.2545280" lon="17.8740840">
        <ele>1.1000000</ele>
        <time>2010-12-03T22:08:40Z</time>
      </trkpt>
      <trkpt lat="59.2543830" lon="17.8740220">
        <ele>1.1000000</ele>
        <time>2010-12-03T22:08:42Z</time>
      </trkpt>
      <trkpt lat="59.2540360" lon="17.8739780">
        <ele>2.0600000</ele>
        <time>2010-12-03T22:08:47Z</time>
      </trkpt>
      <trkpt lat="59.2539750" lon="17.8739950">
        <ele>2.0600000</ele>
        <time>2010-12-03T22:08:48Z</time>
      </trkpt>
      <trkpt lat="59.2539140" lon="17.8740160">
        <ele>2.0600000</ele>
        <time>2010-12-03T22:08:49Z</time>
      </trkpt>
      <trkpt lat="59.2533490" lon="17.8743920">
        <ele>3.5000000</ele>
        <time>2010-12-03T22:08:59Z</time>
      </trkpt>
      <trkpt lat="59.2527050" lon="17.8753590">
        <ele>3.0200000</ele>
        <time>2010-12-03T22:09:12Z</time>
      </trkpt>
      <trkpt lat="59.2521710" lon="17.8759230">
        <ele>3.5000000</ele>
        <time>2010-12-03T22:09:22Z</time>
      </trkpt>
      <trkpt lat="59.2516590" lon="17.8759770">
        <ele>-1.3000000</ele>
        <time>2010-12-03T22:09:30Z</time>
      </trkpt>
      <trkpt lat="59.2515980" lon="17.8759590">
        <ele>3.5000000</ele>
        <time>2010-12-03T22:09:31Z</time>
      </trkpt>
      <trkpt lat="59.2507820" lon="17.8756410">
        <ele>3.9800000</ele>
        <time>2010-12-03T22:09:45Z</time>
      </trkpt>
      <trkpt lat="59.2507320" lon="17.8755870">
        <ele>4.4600000</ele>
        <time>2010-12-03T22:09:46Z</time>
      </trkpt>
      <trkpt lat="59.2506900" lon="17.8755110">
        <ele>4.4600000</ele>
        <time>2010-12-03T22:09:47Z</time>
      </trkpt>
      <trkpt lat="59.2506600" lon="17.8754140">
        <ele>3.9800000</ele>
        <time>2010-12-03T22:09:48Z</time>
      </trkpt>
      <trkpt lat="59.2506370" lon="17.8752990">
        <ele>3.9800000</ele>
        <time>2010-12-03T22:09:49Z</time>
      </trkpt>
      <trkpt lat="59.2506260" lon="17.8751740">
        <ele>3.9800000</ele>
        <time>2010-12-03T22:09:50Z</time>
      </trkpt>
      <trkpt lat="59.2506220" lon="17.8750440">
        <ele>4.4600000</ele>
        <time>2010-12-03T22:09:51Z</time>
      </trkpt>
      <trkpt lat="59.2506180" lon="17.8749120">
        <ele>3.9800000</ele>
        <time>2010-12-03T22:09:52Z</time>
      </trkpt>
      <trkpt lat="59.2504430" lon="17.8735100">
        <ele>5.4200000</ele>
        <time>2010-12-03T22:10:04Z</time>
      </trkpt>
      <trkpt lat="59.2500340" lon="17.8722040">
        <ele>6.8700000</ele>
        <time>2010-12-03T22:10:17Z</time>
      </trkpt>
      <trkpt lat="59.2496640" lon="17.8706190">
        <ele>4.9400000</ele>
        <time>2010-12-03T22:10:31Z</time>
      </trkpt>
      <trkpt lat="59.2496220" lon="17.8690680">
        <ele>3.9800000</ele>
        <time>2010-12-03T22:10:43Z</time>
      </trkpt>
      <trkpt lat="59.2498550" lon="17.8674660">
        <ele>5.9100000</ele>
        <time>2010-12-03T22:10:57Z</time>
      </trkpt>
      <trkpt lat="59.2500340" lon="17.8663850">
        <ele>8.3100000</ele>
        <time>2010-12-03T22:11:08Z</time>
      </trkpt>
      <trkpt lat="59.2500610" lon="17.8662010">
        <ele>8.7900000</ele>
        <time>2010-12-03T22:11:10Z</time>
      </trkpt>
      <trkpt lat="59.2501110" lon="17.8657230">
        <ele>10.2300000</ele>
        <time>2010-12-03T22:11:15Z</time>
      </trkpt>
      <trkpt lat="59.2501560" lon="17.8655490">
        <ele>10.2300000</ele>
        <time>2010-12-03T22:11:17Z</time>
      </trkpt>
      <trkpt lat="59.2501910" lon="17.8654790">
        <ele>10.7100000</ele>
        <time>2010-12-03T22:11:18Z</time>
      </trkpt>
      <trkpt lat="59.2503010" lon="17.8652800">
        <ele>11.1900000</ele>
        <time>2010-12-03T22:11:21Z</time>
      </trkpt>
      <trkpt lat="59.2503320" lon="17.8652040">
        <ele>11.1900000</ele>
        <time>2010-12-03T22:11:22Z</time>
      </trkpt>
      <trkpt lat="59.2503510" lon="17.8651180">
        <ele>11.1900000</ele>
        <time>2010-12-03T22:11:23Z</time>
      </trkpt>
      <trkpt lat="59.2503590" lon="17.8650230">
        <ele>11.6700000</ele>
        <time>2010-12-03T22:11:24Z</time>
      </trkpt>
      <trkpt lat="59.2503620" lon="17.8649230">
        <ele>11.6700000</ele>
        <time>2010-12-03T22:11:25Z</time>
      </trkpt>
      <trkpt lat="59.2503590" lon="17.8648240">
        <ele>11.6700000</ele>
        <time>2010-12-03T22:11:26Z</time>
      </trkpt>
      <trkpt lat="59.2503550" lon="17.8647310">
        <ele>12.1500000</ele>
        <time>2010-12-03T22:11:27Z</time>
      </trkpt>
      <trkpt lat="59.2503550" lon="17.8646370">
        <ele>12.1500000</ele>
        <time>2010-12-03T22:11:28Z</time>
      </trkpt>
      <trkpt lat="59.2503590" lon="17.8645460">
        <ele>12.6300000</ele>
        <time>2010-12-03T22:11:29Z</time>
      </trkpt>
      <trkpt lat="59.2503620" lon="17.8644540">
        <ele>13.1200000</ele>
        <time>2010-12-03T22:11:30Z</time>
      </trkpt>
      <trkpt lat="59.2503740" lon="17.8643670">
        <ele>13.1200000</ele>
        <time>2010-12-03T22:11:31Z</time>
      </trkpt>
      <trkpt lat="59.2503890" lon="17.8642850">
        <ele>13.1200000</ele>
        <time>2010-12-03T22:11:32Z</time>
      </trkpt>
      <trkpt lat="59.2505800" lon="17.8633170">
        <ele>16.0000000</ele>
        <time>2010-12-03T22:11:44Z</time>
      </trkpt>
      <trkpt lat="59.2508240" lon="17.8621730">
        <ele>18.8800000</ele>
        <time>2010-12-03T22:11:59Z</time>
      </trkpt>
      <trkpt lat="59.2510870" lon="17.8610400">
        <ele>21.7700000</ele>
        <time>2010-12-03T22:12:15Z</time>
      </trkpt>
      <trkpt lat="59.2512470" lon="17.8601400">
        <ele>24.1700000</ele>
        <time>2010-12-03T22:12:27Z</time>
      </trkpt>
      <trkpt lat="59.2514040" lon="17.8596990">
        <ele>24.6500000</ele>
        <time>2010-12-03T22:12:34Z</time>
      </trkpt>
      <trkpt lat="59.2515300" lon="17.8594910">
        <ele>25.1300000</ele>
        <time>2010-12-03T22:12:38Z</time>
      </trkpt>
      <trkpt lat="59.2515560" lon="17.8594260">
        <ele>25.6100000</ele>
        <time>2010-12-03T22:12:39Z</time>
      </trkpt>
      <trkpt lat="59.2515750" lon="17.8593600">
        <ele>25.6100000</ele>
        <time>2010-12-03T22:12:40Z</time>
      </trkpt>
      <trkpt lat="59.2515910" lon="17.8592890">
        <ele>28.0200000</ele>
        <time>2010-12-03T22:12:41Z</time>
      </trkpt>
      <trkpt lat="59.2516020" lon="17.8592190">
        <ele>26.5700000</ele>
        <time>2010-12-03T22:12:42Z</time>
      </trkpt>
      <trkpt lat="59.2516060" lon="17.8591520">
        <ele>26.5700000</ele>
        <time>2010-12-03T22:12:43Z</time>
      </trkpt>
      <trkpt lat="59.2516060" lon="17.8590870">
        <ele>26.5700000</ele>
        <time>2010-12-03T22:12:44Z</time>
      </trkpt>
      <trkpt lat="59.2514270" lon="17.8587950">
        <ele>26.5700000</ele>
        <time>2010-12-03T22:12:50Z</time>
      </trkpt>
      <trkpt lat="59.2513690" lon="17.8587650">
        <ele>26.5700000</ele>
        <time>2010-12-03T22:12:51Z</time>
      </trkpt>
      <trkpt lat="59.2512590" lon="17.8586520">
        <ele>26.0900000</ele>
        <time>2010-12-03T22:12:53Z</time>
      </trkpt>
      <trkpt lat="59.2512170" lon="17.8585800">
        <ele>26.5700000</ele>
        <time>2010-12-03T22:12:54Z</time>
      </trkpt>
      <trkpt lat="59.2509420" lon="17.8575000">
        <ele>26.0900000</ele>
        <time>2010-12-03T22:13:05Z</time>
      </trkpt>
      <trkpt lat="59.2508390" lon="17.8561900">
        <ele>26.0900000</ele>
        <time>2010-12-03T22:13:17Z</time>
      </trkpt>
      <trkpt lat="59.2506410" lon="17.8543090">
        <ele>25.1300000</ele>
        <time>2010-12-03T22:13:33Z</time>
      </trkpt>
      <trkpt lat="59.2502520" lon="17.8525640">
        <ele>24.1700000</ele>
        <time>2010-12-03T22:13:47Z</time>
      </trkpt>
      <trkpt lat="59.2495770" lon="17.8506220">
        <ele>20.8100000</ele>
        <time>2010-12-03T22:14:03Z</time>
      </trkpt>
      <trkpt lat="59.2489090" lon="17.8488310">
        <ele>17.9200000</ele>
        <time>2010-12-03T22:14:17Z</time>
      </trkpt>
      <trkpt lat="59.2482870" lon="17.8471490">
        <ele>14.5600000</ele>
        <time>2010-12-03T22:14:30Z</time>
      </trkpt>
      <trkpt lat="59.2476230" lon="17.8453060">
        <ele>13.1200000</ele>
        <time>2010-12-03T22:14:45Z</time>
      </trkpt>
      <trkpt lat="59.2469750" lon="17.8436620">
        <ele>14.5600000</ele>
        <time>2010-12-03T22:15:00Z</time>
      </trkpt>
      <trkpt lat="59.2463650" lon="17.8427890">
        <ele>15.0400000</ele>
        <time>2010-12-03T22:15:11Z</time>
      </trkpt>
      <trkpt lat="59.2456360" lon="17.8422930">
        <ele>15.5200000</ele>
        <time>2010-12-03T22:15:23Z</time>
      </trkpt>
      <trkpt lat="59.2449760" lon="17.8419820">
        <ele>18.8800000</ele>
        <time>2010-12-03T22:15:36Z</time>
      </trkpt>
      <trkpt lat="59.2445450" lon="17.8415970">
        <ele>20.8100000</ele>
        <time>2010-12-03T22:15:46Z</time>
      </trkpt>
      <trkpt lat="59.2444610" lon="17.8415240">
        <ele>21.2900000</ele>
        <time>2010-12-03T22:15:48Z</time>
      </trkpt>
      <trkpt lat="59.2440380" lon="17.8409540">
        <ele>23.6900000</ele>
        <time>2010-12-03T22:15:59Z</time>
      </trkpt>
      <trkpt lat="59.2435420" lon="17.8399770">
        <ele>25.1300000</ele>
        <time>2010-12-03T22:16:13Z</time>
      </trkpt>
      <trkpt lat="59.2431760" lon="17.8386480">
        <ele>24.6500000</ele>
        <time>2010-12-03T22:16:27Z</time>
      </trkpt>
      <trkpt lat="59.2430270" lon="17.8375530">
        <ele>25.1300000</ele>
        <time>2010-12-03T22:16:38Z</time>
      </trkpt>
      <trkpt lat="59.2430000" lon="17.8371070">
        <ele>25.1300000</ele>
        <time>2010-12-03T22:16:46Z</time>
      </trkpt>
      <trkpt lat="59.2429280" lon="17.8369060">
        <ele>24.6500000</ele>
        <time>2010-12-03T22:16:50Z</time>
      </trkpt>
      <trkpt lat="59.2428930" lon="17.8368550">
        <ele>24.1700000</ele>
        <time>2010-12-03T22:16:51Z</time>
      </trkpt>
      <trkpt lat="59.2428550" lon="17.8368110">
        <ele>25.1300000</ele>
        <time>2010-12-03T22:16:52Z</time>
      </trkpt>
      <trkpt lat="59.2428130" lon="17.8367810">
        <ele>25.1300000</ele>
        <time>2010-12-03T22:16:53Z</time>
      </trkpt>
      <trkpt lat="59.2427670" lon="17.8367650">
        <ele>24.6500000</ele>
        <time>2010-12-03T22:16:54Z</time>
      </trkpt>
      <trkpt lat="59.2427220" lon="17.8367580">
        <ele>25.6100000</ele>
        <time>2010-12-03T22:16:55Z</time>
      </trkpt>
      <trkpt lat="59.2426720" lon="17.8367520">
        <ele>23.6900000</ele>
        <time>2010-12-03T22:16:56Z</time>
      </trkpt>
      <trkpt lat="59.2420850" lon="17.8366010">
        <ele>27.0500000</ele>
        <time>2010-12-03T22:17:07Z</time>
      </trkpt>
      <trkpt lat="59.2419320" lon="17.8364810">
        <ele>27.0500000</ele>
        <time>2010-12-03T22:17:10Z</time>
      </trkpt>
      <trkpt lat="59.2418860" lon="17.8364260">
        <ele>27.0500000</ele>
        <time>2010-12-03T22:17:11Z</time>
      </trkpt>
      <trkpt lat="59.2414930" lon="17.8358400">
        <ele>30.4200000</ele>
        <time>2010-12-03T22:17:21Z</time>
      </trkpt>
      <trkpt lat="59.2414210" lon="17.8357120">
        <ele>31.3800000</ele>
        <time>2010-12-03T22:17:23Z</time>
      </trkpt>
      <trkpt lat="59.2412640" lon="17.8353980">
        <ele>33.3000000</ele>
        <time>2010-12-03T22:17:28Z</time>
      </trkpt>
      <trkpt lat="59.2411690" lon="17.8351900">
        <ele>34.7400000</ele>
        <time>2010-12-03T22:17:31Z</time>
      </trkpt>
      <trkpt lat="59.2409290" lon="17.8346900">
        <ele>36.6700000</ele>
        <time>2010-12-03T22:17:38Z</time>
      </trkpt>
      <trkpt lat="59.2408910" lon="17.8346290">
        <ele>36.1900000</ele>
        <time>2010-12-03T22:17:39Z</time>
      </trkpt>
      <trkpt lat="59.2407300" lon="17.8343600">
        <ele>36.6700000</ele>
        <time>2010-12-03T22:17:43Z</time>
      </trkpt>
      <trkpt lat="59.2407000" lon="17.8342700">
        <ele>36.6700000</ele>
        <time>2010-12-03T22:17:44Z</time>
      </trkpt>
      <trkpt lat="59.2406730" lon="17.8341750">
        <ele>36.6700000</ele>
        <time>2010-12-03T22:17:45Z</time>
      </trkpt>
      <trkpt lat="59.2404750" lon="17.8332080">
        <ele>37.1500000</ele>
        <time>2010-12-03T22:17:56Z</time>
      </trkpt>
      <trkpt lat="59.2404370" lon="17.8327270">
        <ele>36.6700000</ele>
        <time>2010-12-03T22:18:01Z</time>
      </trkpt>
      <trkpt lat="59.2404750" lon="17.8312400">
        <ele>36.6700000</ele>
        <time>2010-12-03T22:18:14Z</time>
      </trkpt>
      <trkpt lat="59.2405400" lon="17.8294330">
        <ele>36.6700000</ele>
        <time>2010-12-03T22:18:29Z</time>
      </trkpt>
      <trkpt lat="59.2406650" lon="17.8277650">
        <ele>38.1100000</ele>
        <time>2010-12-03T22:18:43Z</time>
      </trkpt>
      <trkpt lat="59.2405200" lon="17.8265060">
        <ele>39.0700000</ele>
        <time>2010-12-03T22:18:54Z</time>
      </trkpt>
      <trkpt lat="59.2402460" lon="17.8249780">
        <ele>39.5500000</ele>
        <time>2010-12-03T22:19:07Z</time>
      </trkpt>
      <trkpt lat="59.2400550" lon="17.8237710">
        <ele>40.0300000</ele>
        <time>2010-12-03T22:19:17Z</time>
      </trkpt>
      <trkpt lat="59.2398300" lon="17.8226530">
        <ele>39.0700000</ele>
        <time>2010-12-03T22:19:26Z</time>
      </trkpt>
      <trkpt lat="59.2395320" lon="17.8211570">
        <ele>36.1900000</ele>
        <time>2010-12-03T22:19:37Z</time>
      </trkpt>
      <trkpt lat="59.2394830" lon="17.8195690">
        <ele>35.7100000</ele>
        <time>2010-12-03T22:19:48Z</time>
      </trkpt>
      <trkpt lat="59.2395820" lon="17.8179660">
        <ele>36.6700000</ele>
        <time>2010-12-03T22:20:00Z</time>
      </trkpt>
      <trkpt lat="59.2397310" lon="17.8167060">
        <ele>37.6300000</ele>
        <time>2010-12-03T22:20:11Z</time>
      </trkpt>
      <trkpt lat="59.2397040" lon="17.8151570">
        <ele>39.0700000</ele>
        <time>2010-12-03T22:20:26Z</time>
      </trkpt>
      <trkpt lat="59.2396700" lon="17.8142890">
        <ele>40.0300000</ele>
        <time>2010-12-03T22:20:35Z</time>
      </trkpt>
      <trkpt lat="59.2396200" lon="17.8130720">
        <ele>41.4700000</ele>
        <time>2010-12-03T22:20:47Z</time>
      </trkpt>
      <trkpt lat="59.2395780" lon="17.8115730">
        <ele>42.4400000</ele>
        <time>2010-12-03T22:21:03Z</time>
      </trkpt>
      <trkpt lat="59.2395740" lon="17.8114910">
        <ele>42.9200000</ele>
        <time>2010-12-03T22:21:04Z</time>
      </trkpt>
      <trkpt lat="59.2395860" lon="17.8108650">
        <ele>42.9200000</ele>
        <time>2010-12-03T22:21:15Z</time>
      </trkpt>
      <trkpt lat="59.2396010" lon="17.8108370">
        <ele>43.4000000</ele>
        <time>2010-12-03T22:21:25Z</time>
      </trkpt>
      <trkpt lat="59.2396010" lon="17.8108370">
        <ele>43.4000000</ele>
        <time>2010-12-03T22:21:48Z</time>
      </trkpt>
      <trkpt lat="59.2396010" lon="17.8108410">
        <ele>43.4000000</ele>
        <time>2010-12-03T22:22:10Z</time>
      </trkpt>
      <trkpt lat="59.2396010" lon="17.8108410">
        <ele>43.4000000</ele>
        <time>2010-12-03T22:22:32Z</time>
      </trkpt>
      <trkpt lat="59.2396050" lon="17.8108440">
        <ele>43.4000000</ele>
        <time>2010-12-03T22:23:02Z</time>
      </trkpt>
      <trkpt lat="59.2396050" lon="17.8108500">
        <ele>42.9200000</ele>
        <time>2010-12-03T22:23:27Z</time>
      </trkpt>
      <trkpt lat="59.2396050" lon="17.8108500">
        <ele>42.9200000</ele>
        <time>2010-12-03T22:23:47Z</time>
      </trkpt>
      <trkpt lat="59.2395970" lon="17.8108370">
        <ele>42.9200000</ele>
        <time>2010-12-03T22:23:48Z</time>
      </trkpt>
      <trkpt lat="59.2395940" lon="17.8107640">
        <ele>42.9200000</ele>
        <time>2010-12-03T22:23:58Z</time>
      </trkpt>
      <trkpt lat="59.2395940" lon="17.8107640">
        <ele>42.9200000</ele>
        <time>2010-12-03T22:24:11Z</time>
      </trkpt>
      <trkpt lat="59.2395940" lon="17.8107640">
        <ele>43.4000000</ele>
        <time>2010-12-03T22:24:31Z</time>
      </trkpt>
      <trkpt lat="59.2395940" lon="17.8107590">
        <ele>43.4000000</ele>
        <time>2010-12-03T22:24:56Z</time>
      </trkpt>
      <trkpt lat="59.2395970" lon="17.8107260">
        <ele>42.9200000</ele>
        <time>2010-12-03T22:25:08Z</time>
      </trkpt>
      <trkpt lat="59.2396160" lon="17.8102800">
        <ele>42.4400000</ele>
        <time>2010-12-03T22:25:17Z</time>
      </trkpt>
      <trkpt lat="59.2397190" lon="17.8095300">
        <ele>42.4400000</ele>
        <time>2010-12-03T22:25:26Z</time>
      </trkpt>
      <trkpt lat="59.2400470" lon="17.8081280">
        <ele>41.4700000</ele>
        <time>2010-12-03T22:25:39Z</time>
      </trkpt>
      <trkpt lat="59.2402690" lon="17.8066330">
        <ele>41.9500000</ele>
        <time>2010-12-03T22:25:52Z</time>
      </trkpt>
      <trkpt lat="59.2402760" lon="17.8058070">
        <ele>40.5100000</ele>
        <time>2010-12-03T22:25:59Z</time>
      </trkpt>
      <trkpt lat="59.2402270" lon="17.8050990">
        <ele>38.5900000</ele>
        <time>2010-12-03T22:26:04Z</time>
      </trkpt>
      <trkpt lat="59.2402110" lon="17.8049430">
        <ele>37.6300000</ele>
        <time>2010-12-03T22:26:05Z</time>
      </trkpt>
      <trkpt lat="59.2400740" lon="17.8037430">
        <ele>33.7800000</ele>
        <time>2010-12-03T22:26:12Z</time>
      </trkpt>
      <trkpt lat="59.2399560" lon="17.8026700">
        <ele>30.4200000</ele>
        <time>2010-12-03T22:26:18Z</time>
      </trkpt>
      <trkpt lat="59.2398870" lon="17.8019290">
        <ele>28.0200000</ele>
        <time>2010-12-03T22:26:22Z</time>
      </trkpt>
      <trkpt lat="59.2399020" lon="17.8009780">
        <ele>24.6500000</ele>
        <time>2010-12-03T22:26:27Z</time>
      </trkpt>
      <trkpt lat="59.2401310" lon="17.7990040">
        <ele>22.7300000</ele>
        <time>2010-12-03T22:26:38Z</time>
      </trkpt>
      <trkpt lat="59.2403640" lon="17.7968540">
        <ele>22.7300000</ele>
        <time>2010-12-03T22:26:52Z</time>
      </trkpt>
      <trkpt lat="59.2405470" lon="17.7947620">
        <ele>23.6900000</ele>
        <time>2010-12-03T22:27:07Z</time>
      </trkpt>
      <trkpt lat="59.2406850" lon="17.7933200">
        <ele>23.6900000</ele>
        <time>2010-12-03T22:27:18Z</time>
      </trkpt>
      <trkpt lat="59.2409670" lon="17.7918760">
        <ele>23.6900000</ele>
        <time>2010-12-03T22:27:30Z</time>
      </trkpt>
      <trkpt lat="59.2413290" lon="17.7902570">
        <ele>24.1700000</ele>
        <time>2010-12-03T22:27:44Z</time>
      </trkpt>
      <trkpt lat="59.2416920" lon="17.7886850">
        <ele>23.6900000</ele>
        <time>2010-12-03T22:27:58Z</time>
      </trkpt>
      <trkpt lat="59.2420160" lon="17.7870240">
        <ele>22.7300000</ele>
        <time>2010-12-03T22:28:12Z</time>
      </trkpt>
      <trkpt lat="59.2419780" lon="17.7857780">
        <ele>23.2100000</ele>
        <time>2010-12-03T22:28:22Z</time>
      </trkpt>
      <trkpt lat="59.2416340" lon="17.7843720">
        <ele>23.2100000</ele>
        <time>2010-12-03T22:28:34Z</time>
      </trkpt>
      <trkpt lat="59.2411840" lon="17.7835500">
        <ele>23.2100000</ele>
        <time>2010-12-03T22:28:43Z</time>
      </trkpt>
      <trkpt lat="59.2411270" lon="17.7834820">
        <ele>23.2100000</ele>
        <time>2010-12-03T22:28:44Z</time>
      </trkpt>
      <trkpt lat="59.2410700" lon="17.7834280">
        <ele>23.2100000</ele>
        <time>2010-12-03T22:28:45Z</time>
      </trkpt>
      <trkpt lat="59.2403600" lon="17.7830890">
        <ele>22.7300000</ele>
        <time>2010-12-03T22:28:56Z</time>
      </trkpt>
      <trkpt lat="59.2395820" lon="17.7828140">
        <ele>24.6500000</ele>
        <time>2010-12-03T22:29:09Z</time>
      </trkpt>
      <trkpt lat="59.2391010" lon="17.7826230">
        <ele>28.0200000</ele>
        <time>2010-12-03T22:29:19Z</time>
      </trkpt>
      <trkpt lat="59.2387850" lon="17.7824800">
        <ele>29.9400000</ele>
        <time>2010-12-03T22:29:28Z</time>
      </trkpt>
      <trkpt lat="59.2386550" lon="17.7824230">
        <ele>30.4200000</ele>
        <time>2010-12-03T22:29:31Z</time>
      </trkpt>
      <trkpt lat="59.2386090" lon="17.7824100">
        <ele>30.9000000</ele>
        <time>2010-12-03T22:29:32Z</time>
      </trkpt>
      <trkpt lat="59.2379950" lon="17.7821750">
        <ele>31.3800000</ele>
        <time>2010-12-03T22:29:43Z</time>
      </trkpt>
      <trkpt lat="59.2379380" lon="17.7821460">
        <ele>31.8600000</ele>
        <time>2010-12-03T22:29:44Z</time>
      </trkpt>
      <trkpt lat="59.2378770" lon="17.7821250">
        <ele>31.8600000</ele>
        <time>2010-12-03T22:29:45Z</time>
      </trkpt>
      <trkpt lat="59.2371060" lon="17.7818910">
        <ele>28.5000000</ele>
        <time>2010-12-03T22:29:56Z</time>
      </trkpt>
      <trkpt lat="59.2370300" lon="17.7818660">
        <ele>28.0200000</ele>
        <time>2010-12-03T22:29:57Z</time>
      </trkpt>
      <trkpt lat="59.2359920" lon="17.7815000">
        <ele>28.0200000</ele>
        <time>2010-12-03T22:30:11Z</time>
      </trkpt>
      <trkpt lat="59.2351460" lon="17.7812040">
        <ele>28.9800000</ele>
        <time>2010-12-03T22:30:23Z</time>
      </trkpt>
      <trkpt lat="59.2342910" lon="17.7810480">
        <ele>30.4200000</ele>
        <time>2010-12-03T22:30:36Z</time>
      </trkpt>
      <trkpt lat="59.2337270" lon="17.7810970">
        <ele>32.8200000</ele>
        <time>2010-12-03T22:30:47Z</time>
      </trkpt>
      <trkpt lat="59.2333180" lon="17.7812330">
        <ele>35.7100000</ele>
        <time>2010-12-03T22:30:56Z</time>
      </trkpt>
      <trkpt lat="59.2329370" lon="17.7814200">
        <ele>39.0700000</ele>
        <time>2010-12-03T22:31:05Z</time>
      </trkpt>
      <trkpt lat="59.2324870" lon="17.7817330">
        <ele>41.4700000</ele>
        <time>2010-12-03T22:31:16Z</time>
      </trkpt>
      <trkpt lat="59.2319490" lon="17.7822570">
        <ele>43.4000000</ele>
        <time>2010-12-03T22:31:29Z</time>
      </trkpt>
      <trkpt lat="59.2313580" lon="17.7829060">
        <ele>42.9200000</ele>
        <time>2010-12-03T22:31:41Z</time>
      </trkpt>
      <trkpt lat="59.2305110" lon="17.7838270">
        <ele>43.8800000</ele>
        <time>2010-12-03T22:31:56Z</time>
      </trkpt>
      <trkpt lat="59.2298390" lon="17.7844490">
        <ele>42.9200000</ele>
        <time>2010-12-03T22:32:07Z</time>
      </trkpt>
      <trkpt lat="59.2291790" lon="17.7847390">
        <ele>43.8800000</ele>
        <time>2010-12-03T22:32:17Z</time>
      </trkpt>
      <trkpt lat="59.2283900" lon="17.7850070">
        <ele>42.9200000</ele>
        <time>2010-12-03T22:32:29Z</time>
      </trkpt>
      <trkpt lat="59.2277180" lon="17.7852440">
        <ele>39.0700000</ele>
        <time>2010-12-03T22:32:37Z</time>
      </trkpt>
      <trkpt lat="59.2273480" lon="17.7853870">
        <ele>36.6700000</ele>
        <time>2010-12-03T22:32:41Z</time>
      </trkpt>
      <trkpt lat="59.2267460" lon="17.7855490">
        <ele>33.3000000</ele>
        <time>2010-12-03T22:32:47Z</time>
      </trkpt>
      <trkpt lat="59.2265400" lon="17.7855720">
        <ele>32.3400000</ele>
        <time>2010-12-03T22:32:49Z</time>
      </trkpt>
      <trkpt lat="59.2262380" lon="17.7855640">
        <ele>29.9400000</ele>
        <time>2010-12-03T22:32:52Z</time>
      </trkpt>
      <trkpt lat="59.2260320" lon="17.7855150">
        <ele>28.9800000</ele>
        <time>2010-12-03T22:32:54Z</time>
      </trkpt>
      <trkpt lat="59.2256280" lon="17.7853280">
        <ele>26.5700000</ele>
        <time>2010-12-03T22:32:58Z</time>
      </trkpt>
      <trkpt lat="59.2247200" lon="17.7845060">
        <ele>24.6500000</ele>
        <time>2010-12-03T22:33:08Z</time>
      </trkpt>
      <trkpt lat="59.2237590" lon="17.7835390">
        <ele>23.2100000</ele>
        <time>2010-12-03T22:33:19Z</time>
      </trkpt>
      <trkpt lat="59.2228010" lon="17.7825950">
        <ele>21.7700000</ele>
        <time>2010-12-03T22:33:32Z</time>
      </trkpt>
      <trkpt lat="59.2217410" lon="17.7815860">
        <ele>20.3200000</ele>
        <time>2010-12-03T22:33:47Z</time>
      </trkpt>
      <trkpt lat="59.2208060" lon="17.7809070">
        <ele>18.4000000</ele>
        <time>2010-12-03T22:34:00Z</time>
      </trkpt>
      <trkpt lat="59.2200050" lon="17.7804180">
        <ele>15.0400000</ele>
        <time>2010-12-03T22:34:10Z</time>
      </trkpt>
      <trkpt lat="59.2187230" lon="17.7796340">
        <ele>13.1200000</ele>
        <time>2010-12-03T22:34:26Z</time>
      </trkpt>
      <trkpt lat="59.2176170" lon="17.7789760">
        <ele>13.1200000</ele>
        <time>2010-12-03T22:34:41Z</time>
      </trkpt>
      <trkpt lat="59.2167630" lon="17.7782420">
        <ele>12.6300000</ele>
        <time>2010-12-03T22:34:54Z</time>
      </trkpt>
      <trkpt lat="59.2161870" lon="17.7773840">
        <ele>13.6000000</ele>
        <time>2010-12-03T22:35:05Z</time>
      </trkpt>
      <trkpt lat="59.2155570" lon="17.7760330">
        <ele>14.0800000</ele>
        <time>2010-12-03T22:35:19Z</time>
      </trkpt>
      <trkpt lat="59.2151600" lon="17.7746470">
        <ele>14.0800000</ele>
        <time>2010-12-03T22:35:31Z</time>
      </trkpt>
      <trkpt lat="59.2150730" lon="17.7732160">
        <ele>14.0800000</ele>
        <time>2010-12-03T22:35:42Z</time>
      </trkpt>
      <trkpt lat="59.2152180" lon="17.7721210">
        <ele>15.0400000</ele>
        <time>2010-12-03T22:35:51Z</time>
      </trkpt>
      <trkpt lat="59.2155650" lon="17.7709410">
        <ele>17.4400000</ele>
        <time>2010-12-03T22:36:04Z</time>
      </trkpt>
      <trkpt lat="59.2160490" lon="17.7696610">
        <ele>18.8800000</ele>
        <time>2010-12-03T22:36:18Z</time>
      </trkpt>
      <trkpt lat="59.2165070" lon="17.7681620">
        <ele>18.8800000</ele>
        <time>2010-12-03T22:36:32Z</time>
      </trkpt>
      <trkpt lat="59.2168660" lon="17.7664430">
        <ele>19.8400000</ele>
        <time>2010-12-03T22:36:47Z</time>
      </trkpt>
      <trkpt lat="59.2170260" lon="17.7651900">
        <ele>22.2500000</ele>
        <time>2010-12-03T22:37:00Z</time>
      </trkpt>
      <trkpt lat="59.2170520" lon="17.7650050">
        <ele>22.7300000</ele>
        <time>2010-12-03T22:37:02Z</time>
      </trkpt>
      <trkpt lat="59.2170680" lon="17.7649060">
        <ele>23.2100000</ele>
        <time>2010-12-03T22:37:03Z</time>
      </trkpt>
      <trkpt lat="59.2171780" lon="17.7639810">
        <ele>25.1300000</ele>
        <time>2010-12-03T22:37:12Z</time>
      </trkpt>
      <trkpt lat="59.2173840" lon="17.7626710">
        <ele>26.0900000</ele>
        <time>2010-12-03T22:37:25Z</time>
      </trkpt>
      <trkpt lat="59.2177200" lon="17.7614400">
        <ele>27.0500000</ele>
        <time>2010-12-03T22:37:38Z</time>
      </trkpt>
      <trkpt lat="59.2181630" lon="17.7600880">
        <ele>28.0200000</ele>
        <time>2010-12-03T22:37:53Z</time>
      </trkpt>
      <trkpt lat="59.2186550" lon="17.7585620">
        <ele>28.9800000</ele>
        <time>2010-12-03T22:38:10Z</time>
      </trkpt>
      <trkpt lat="59.2191660" lon="17.7569900">
        <ele>27.5300000</ele>
        <time>2010-12-03T22:38:25Z</time>
      </trkpt>
      <trkpt lat="59.2196580" lon="17.7554590">
        <ele>27.0500000</ele>
        <time>2010-12-03T22:38:39Z</time>
      </trkpt>
      <trkpt lat="59.2201580" lon="17.7538590">
        <ele>26.0900000</ele>
        <time>2010-12-03T22:38:54Z</time>
      </trkpt>
      <trkpt lat="59.2206080" lon="17.7521990">
        <ele>25.6100000</ele>
        <time>2010-12-03T22:39:09Z</time>
      </trkpt>
      <trkpt lat="59.2208790" lon="17.7505110">
        <ele>26.5700000</ele>
        <time>2010-12-03T22:39:24Z</time>
      </trkpt>
      <trkpt lat="59.2211490" lon="17.7486710">
        <ele>28.0200000</ele>
        <time>2010-12-03T22:39:41Z</time>
      </trkpt>
      <trkpt lat="59.2213750" lon="17.7470720">
        <ele>28.5000000</ele>
        <time>2010-12-03T22:39:56Z</time>
      </trkpt>
      <trkpt lat="59.2215960" lon="17.7453980">
        <ele>28.5000000</ele>
        <time>2010-12-03T22:40:11Z</time>
      </trkpt>
      <trkpt lat="59.2219010" lon="17.7439900">
        <ele>29.4600000</ele>
        <time>2010-12-03T22:40:24Z</time>
      </trkpt>
      <trkpt lat="59.2222820" lon="17.7426150">
        <ele>28.0200000</ele>
        <time>2010-12-03T22:40:37Z</time>
      </trkpt>
      <trkpt lat="59.2227210" lon="17.7411860">
        <ele>24.6500000</ele>
        <time>2010-12-03T22:40:49Z</time>
      </trkpt>
      <trkpt lat="59.2234270" lon="17.7393550">
        <ele>22.7300000</ele>
        <time>2010-12-03T22:41:04Z</time>
      </trkpt>
      <trkpt lat="59.2241130" lon="17.7376710">
        <ele>19.3600000</ele>
        <time>2010-12-03T22:41:18Z</time>
      </trkpt>
      <trkpt lat="59.2247390" lon="17.7362000">
        <ele>18.8800000</ele>
        <time>2010-12-03T22:41:31Z</time>
      </trkpt>
      <trkpt lat="59.2254370" lon="17.7344230">
        <ele>17.9200000</ele>
        <time>2010-12-03T22:41:47Z</time>
      </trkpt>
      <trkpt lat="59.2260130" lon="17.7326870">
        <ele>17.9200000</ele>
        <time>2010-12-03T22:42:02Z</time>
      </trkpt>
      <trkpt lat="59.2266620" lon="17.7306710">
        <ele>17.9200000</ele>
        <time>2010-12-03T22:42:20Z</time>
      </trkpt>
      <trkpt lat="59.2270930" lon="17.7289410">
        <ele>18.4000000</ele>
        <time>2010-12-03T22:42:35Z</time>
      </trkpt>
      <trkpt lat="59.2274400" lon="17.7274480">
        <ele>19.8400000</ele>
        <time>2010-12-03T22:42:49Z</time>
      </trkpt>
      <trkpt lat="59.2277220" lon="17.7261220">
        <ele>22.7300000</ele>
        <time>2010-12-03T22:43:03Z</time>
      </trkpt>
      <trkpt lat="59.2279550" lon="17.7249580">
        <ele>25.6100000</ele>
        <time>2010-12-03T22:43:17Z</time>
      </trkpt>
      <trkpt lat="59.2279740" lon="17.7248760">
        <ele>25.6100000</ele>
        <time>2010-12-03T22:43:18Z</time>
      </trkpt>
      <trkpt lat="59.2282560" lon="17.7236310">
        <ele>28.0200000</ele>
        <time>2010-12-03T22:43:33Z</time>
      </trkpt>
      <trkpt lat="59.2286000" lon="17.7225630">
        <ele>28.9800000</ele>
        <time>2010-12-03T22:43:46Z</time>
      </trkpt>
      <trkpt lat="59.2290840" lon="17.7213420">
        <ele>30.9000000</ele>
        <time>2010-12-03T22:44:02Z</time>
      </trkpt>
      <trkpt lat="59.2295610" lon="17.7201160">
        <ele>32.3400000</ele>
        <time>2010-12-03T22:44:17Z</time>
      </trkpt>
      <trkpt lat="59.2299390" lon="17.7187820">
        <ele>32.3400000</ele>
        <time>2010-12-03T22:44:30Z</time>
      </trkpt>
      <trkpt lat="59.2301710" lon="17.7170930">
        <ele>30.4200000</ele>
        <time>2010-12-03T22:44:43Z</time>
      </trkpt>
      <trkpt lat="59.2303430" lon="17.7156960">
        <ele>29.9400000</ele>
        <time>2010-12-03T22:44:54Z</time>
      </trkpt>
      <trkpt lat="59.2305910" lon="17.7141300">
        <ele>29.4600000</ele>
        <time>2010-12-03T22:45:06Z</time>
      </trkpt>
      <trkpt lat="59.2308770" lon="17.7127480">
        <ele>28.9800000</ele>
        <time>2010-12-03T22:45:17Z</time>
      </trkpt>
      <trkpt lat="59.2313540" lon="17.7109810">
        <ele>27.5300000</ele>
        <time>2010-12-03T22:45:32Z</time>
      </trkpt>
      <trkpt lat="59.2319300" lon="17.7091850">
        <ele>25.6100000</ele>
        <time>2010-12-03T22:45:48Z</time>
      </trkpt>
      <trkpt lat="59.2323990" lon="17.7074180">
        <ele>26.0900000</ele>
        <time>2010-12-03T22:46:03Z</time>
      </trkpt>
      <trkpt lat="59.2325130" lon="17.7059020">
        <ele>25.1300000</ele>
        <time>2010-12-03T22:46:15Z</time>
      </trkpt>
      <trkpt lat="59.2323680" lon="17.7045100">
        <ele>23.2100000</ele>
        <time>2010-12-03T22:46:25Z</time>
      </trkpt>
      <trkpt lat="59.2319180" lon="17.7028680">
        <ele>19.3600000</ele>
        <time>2010-12-03T22:46:37Z</time>
      </trkpt>
      <trkpt lat="59.2316020" lon="17.7017520">
        <ele>16.9600000</ele>
        <time>2010-12-03T22:46:45Z</time>
      </trkpt>
      <trkpt lat="59.2313730" lon="17.7005960">
        <ele>18.4000000</ele>
        <time>2010-12-03T22:46:54Z</time>
      </trkpt>
      <trkpt lat="59.2312580" lon="17.6996540">
        <ele>22.2500000</ele>
        <time>2010-12-03T22:47:04Z</time>
      </trkpt>
      <trkpt lat="59.2311520" lon="17.6987110">
        <ele>23.6900000</ele>
        <time>2010-12-03T22:47:16Z</time>
      </trkpt>
      <trkpt lat="59.2310560" lon="17.6978990">
        <ele>26.5700000</ele>
        <time>2010-12-03T22:47:27Z</time>
      </trkpt>
      <trkpt lat="59.2309800" lon="17.6971170">
        <ele>28.9800000</ele>
        <time>2010-12-03T22:47:38Z</time>
      </trkpt>
      <trkpt lat="59.2309490" lon="17.6967490">
        <ele>29.9400000</ele>
        <time>2010-12-03T22:47:43Z</time>
      </trkpt>
      <trkpt lat="59.2308650" lon="17.6959340">
        <ele>32.3400000</ele>
        <time>2010-12-03T22:47:55Z</time>
      </trkpt>
      <trkpt lat="59.2307930" lon="17.6953200">
        <ele>35.2300000</ele>
        <time>2010-12-03T22:48:04Z</time>
      </trkpt>
      <trkpt lat="59.2307130" lon="17.6946560">
        <ele>37.1500000</ele>
        <time>2010-12-03T22:48:14Z</time>
      </trkpt>
      <trkpt lat="59.2306250" lon="17.6938440">
        <ele>39.5500000</ele>
        <time>2010-12-03T22:48:26Z</time>
      </trkpt>
      <trkpt lat="59.2304500" lon="17.6926380">
        <ele>41.9500000</ele>
        <time>2010-12-03T22:48:42Z</time>
      </trkpt>
      <trkpt lat="59.2301860" lon="17.6913490">
        <ele>43.8800000</ele>
        <time>2010-12-03T22:48:58Z</time>
      </trkpt>
      <trkpt lat="59.2297820" lon="17.6901380">
        <ele>44.8400000</ele>
        <time>2010-12-03T22:49:13Z</time>
      </trkpt>
      <trkpt lat="59.2292860" lon="17.6890140">
        <ele>47.7200000</ele>
        <time>2010-12-03T22:49:29Z</time>
      </trkpt>
      <trkpt lat="59.2290990" lon="17.6886120">
        <ele>49.6500000</ele>
        <time>2010-12-03T22:49:36Z</time>
      </trkpt>
      <trkpt lat="59.2287100" lon="17.6877440">
        <ele>51.5700000</ele>
        <time>2010-12-03T22:49:49Z</time>
      </trkpt>
      <trkpt lat="59.2286110" lon="17.6875190">
        <ele>51.0900000</ele>
        <time>2010-12-03T22:49:52Z</time>
      </trkpt>
      <trkpt lat="59.2282410" lon="17.6866820">
        <ele>48.6800000</ele>
        <time>2010-12-03T22:50:01Z</time>
      </trkpt>
      <trkpt lat="59.2277720" lon="17.6855750">
        <ele>46.7600000</ele>
        <time>2010-12-03T22:50:11Z</time>
      </trkpt>
      <trkpt lat="59.2274060" lon="17.6847550">
        <ele>43.4000000</ele>
        <time>2010-12-03T22:50:18Z</time>
      </trkpt>
      <trkpt lat="59.2270510" lon="17.6839830">
        <ele>40.0300000</ele>
        <time>2010-12-03T22:50:24Z</time>
      </trkpt>
      <trkpt lat="59.2263790" lon="17.6826170">
        <ele>37.1500000</ele>
        <time>2010-12-03T22:50:35Z</time>
      </trkpt>
      <trkpt lat="59.2255590" lon="17.6812440">
        <ele>35.2300000</ele>
        <time>2010-12-03T22:50:48Z</time>
      </trkpt>
      <trkpt lat="59.2249490" lon="17.6803170">
        <ele>34.7400000</ele>
        <time>2010-12-03T22:50:58Z</time>
      </trkpt>
      <trkpt lat="59.2241550" lon="17.6791360">
        <ele>32.8200000</ele>
        <time>2010-12-03T22:51:11Z</time>
      </trkpt>
      <trkpt lat="59.2233160" lon="17.6778620">
        <ele>32.8200000</ele>
        <time>2010-12-03T22:51:26Z</time>
      </trkpt>
      <trkpt lat="59.2224660" lon="17.6765590">
        <ele>33.7800000</ele>
        <time>2010-12-03T22:51:43Z</time>
      </trkpt>
      <trkpt lat="59.2220690" lon="17.6755730">
        <ele>36.1900000</ele>
        <time>2010-12-03T22:51:55Z</time>
      </trkpt>
      <trkpt lat="59.2217370" lon="17.6744580">
        <ele>37.1500000</ele>
        <time>2010-12-03T22:52:08Z</time>
      </trkpt>
      <trkpt lat="59.2213480" lon="17.6731110">
        <ele>38.5900000</ele>
        <time>2010-12-03T22:52:23Z</time>
      </trkpt>
      <trkpt lat="59.2209320" lon="17.6717000">
        <ele>39.5500000</ele>
        <time>2010-12-03T22:52:38Z</time>
      </trkpt>
      <trkpt lat="59.2205890" lon="17.6705230">
        <ele>40.5100000</ele>
        <time>2010-12-03T22:52:51Z</time>
      </trkpt>
      <trkpt lat="59.2202610" lon="17.6694260">
        <ele>41.9500000</ele>
        <time>2010-12-03T22:53:04Z</time>
      </trkpt>
      <trkpt lat="59.2199750" lon="17.6685770">
        <ele>45.3200000</ele>
        <time>2010-12-03T22:53:15Z</time>
      </trkpt>
      <trkpt lat="59.2195550" lon="17.6677340">
        <ele>47.2400000</ele>
        <time>2010-12-03T22:53:28Z</time>
      </trkpt>
      <trkpt lat="59.2191050" lon="17.6672080">
        <ele>47.2400000</ele>
        <time>2010-12-03T22:53:39Z</time>
      </trkpt>
      <trkpt lat="59.2183950" lon="17.6667820">
        <ele>45.3200000</ele>
        <time>2010-12-03T22:53:52Z</time>
      </trkpt>
      <trkpt lat="59.2176780" lon="17.6664160">
        <ele>41.9500000</ele>
        <time>2010-12-03T22:54:02Z</time>
      </trkpt>
      <trkpt lat="59.2169720" lon="17.6659510">
        <ele>39.0700000</ele>
        <time>2010-12-03T22:54:11Z</time>
      </trkpt>
      <trkpt lat="59.2163200" lon="17.6651710">
        <ele>37.6300000</ele>
        <time>2010-12-03T22:54:21Z</time>
      </trkpt>
      <trkpt lat="59.2159580" lon="17.6641960">
        <ele>38.5900000</ele>
        <time>2010-12-03T22:54:30Z</time>
      </trkpt>
      <trkpt lat="59.2158280" lon="17.6633470">
        <ele>40.5100000</ele>
        <time>2010-12-03T22:54:39Z</time>
      </trkpt>
      <trkpt lat="59.2157940" lon="17.6628170">
        <ele>41.4700000</ele>
        <time>2010-12-03T22:54:45Z</time>
      </trkpt>
      <trkpt lat="59.2158320" lon="17.6615830">
        <ele>42.4400000</ele>
        <time>2010-12-03T22:54:58Z</time>
      </trkpt>
      <trkpt lat="59.2159230" lon="17.6606350">
        <ele>43.8800000</ele>
        <time>2010-12-03T22:55:08Z</time>
      </trkpt>
      <trkpt lat="59.2159690" lon="17.6594520">
        <ele>45.8000000</ele>
        <time>2010-12-03T22:55:21Z</time>
      </trkpt>
      <trkpt lat="59.2158740" lon="17.6582830">
        <ele>44.8400000</ele>
        <time>2010-12-03T22:55:32Z</time>
      </trkpt>
      <trkpt lat="59.2157860" lon="17.6578850">
        <ele>44.3600000</ele>
        <time>2010-12-03T22:55:36Z</time>
      </trkpt>
      <trkpt lat="59.2157590" lon="17.6578010">
        <ele>43.8800000</ele>
        <time>2010-12-03T22:55:37Z</time>
      </trkpt>
      <trkpt lat="59.2157290" lon="17.6577150">
        <ele>44.3600000</ele>
        <time>2010-12-03T22:55:38Z</time>
      </trkpt>
      <trkpt lat="59.2153630" lon="17.6564710">
        <ele>43.8800000</ele>
        <time>2010-12-03T22:55:51Z</time>
      </trkpt>
      <trkpt lat="59.2148320" lon="17.6553730">
        <ele>42.9200000</ele>
        <time>2010-12-03T22:56:04Z</time>
      </trkpt>
      <trkpt lat="59.2142300" lon="17.6547810">
        <ele>42.9200000</ele>
        <time>2010-12-03T22:56:15Z</time>
      </trkpt>
      <trkpt lat="59.2133870" lon="17.6542470">
        <ele>42.9200000</ele>
        <time>2010-12-03T22:56:30Z</time>
      </trkpt>
      <trkpt lat="59.2125850" lon="17.6537420">
        <ele>42.9200000</ele>
        <time>2010-12-03T22:56:44Z</time>
      </trkpt>
      <trkpt lat="59.2117540" lon="17.6530840">
        <ele>42.9200000</ele>
        <time>2010-12-03T22:56:59Z</time>
      </trkpt>
      <trkpt lat="59.2109790" lon="17.6524050">
        <ele>42.9200000</ele>
        <time>2010-12-03T22:57:13Z</time>
      </trkpt>
      <trkpt lat="59.2101020" lon="17.6519870">
        <ele>42.4400000</ele>
        <time>2010-12-03T22:57:28Z</time>
      </trkpt>
      <trkpt lat="59.2095640" lon="17.6517490">
        <ele>42.4400000</ele>
        <time>2010-12-03T22:57:37Z</time>
      </trkpt>
      <trkpt lat="59.2088360" lon="17.6512530">
        <ele>44.3600000</ele>
        <time>2010-12-03T22:57:50Z</time>
      </trkpt>
      <trkpt lat="59.2082250" lon="17.6505680">
        <ele>45.3200000</ele>
        <time>2010-12-03T22:58:03Z</time>
      </trkpt>
      <trkpt lat="59.2077180" lon="17.6498390">
        <ele>47.7200000</ele>
        <time>2010-12-03T22:58:16Z</time>
      </trkpt>
      <trkpt lat="59.2075200" lon="17.6493550">
        <ele>37.6300000</ele>
        <time>2010-12-03T22:58:22Z</time>
      </trkpt>
      <trkpt lat="59.2074930" lon="17.6492610">
        <ele>48.2000000</ele>
        <time>2010-12-03T22:58:23Z</time>
      </trkpt>
      <trkpt lat="59.2071610" lon="17.6481170">
        <ele>45.8000000</ele>
        <time>2010-12-03T22:58:36Z</time>
      </trkpt>
      <trkpt lat="59.2070200" lon="17.6476590">
        <ele>45.3200000</ele>
        <time>2010-12-03T22:58:42Z</time>
      </trkpt>
      <trkpt lat="59.2069320" lon="17.6472230">
        <ele>44.8400000</ele>
        <time>2010-12-03T22:58:48Z</time>
      </trkpt>
      <trkpt lat="59.2068940" lon="17.6471770">
        <ele>44.8400000</ele>
        <time>2010-12-03T22:58:49Z</time>
      </trkpt>
      <trkpt lat="59.2068480" lon="17.6471420">
        <ele>44.8400000</ele>
        <time>2010-12-03T22:58:50Z</time>
      </trkpt>
      <trkpt lat="59.2067490" lon="17.6470700">
        <ele>44.8400000</ele>
        <time>2010-12-03T22:58:52Z</time>
      </trkpt>
      <trkpt lat="59.2061610" lon="17.6465610">
        <ele>42.9200000</ele>
        <time>2010-12-03T22:59:02Z</time>
      </trkpt>
      <trkpt lat="59.2051540" lon="17.6460150">
        <ele>41.9500000</ele>
        <time>2010-12-03T22:59:17Z</time>
      </trkpt>
      <trkpt lat="59.2044830" lon="17.6454070">
        <ele>40.9900000</ele>
        <time>2010-12-03T22:59:28Z</time>
      </trkpt>
      <trkpt lat="59.2043040" lon="17.6450750">
        <ele>40.9900000</ele>
        <time>2010-12-03T22:59:32Z</time>
      </trkpt>
      <trkpt lat="59.2042730" lon="17.6449810">
        <ele>40.9900000</ele>
        <time>2010-12-03T22:59:33Z</time>
      </trkpt>
      <trkpt lat="59.2042500" lon="17.6448800">
        <ele>40.9900000</ele>
        <time>2010-12-03T22:59:34Z</time>
      </trkpt>
      <trkpt lat="59.2042350" lon="17.6447750">
        <ele>40.9900000</ele>
        <time>2010-12-03T22:59:35Z</time>
      </trkpt>
      <trkpt lat="59.2042200" lon="17.6446690">
        <ele>40.9900000</ele>
        <time>2010-12-03T22:59:36Z</time>
      </trkpt>
      <trkpt lat="59.2041970" lon="17.6445690">
        <ele>40.9900000</ele>
        <time>2010-12-03T22:59:37Z</time>
      </trkpt>
      <trkpt lat="59.2041630" lon="17.6444850">
        <ele>40.9900000</ele>
        <time>2010-12-03T22:59:38Z</time>
      </trkpt>
      <trkpt lat="59.2041170" lon="17.6444240">
        <ele>40.9900000</ele>
        <time>2010-12-03T22:59:39Z</time>
      </trkpt>
      <trkpt lat="59.2040670" lon="17.6443790">
        <ele>40.9900000</ele>
        <time>2010-12-03T22:59:40Z</time>
      </trkpt>
      <trkpt lat="59.2040140" lon="17.6443410">
        <ele>40.5100000</ele>
        <time>2010-12-03T22:59:41Z</time>
      </trkpt>
      <trkpt lat="59.2039600" lon="17.6443060">
        <ele>40.9900000</ele>
        <time>2010-12-03T22:59:42Z</time>
      </trkpt>
      <trkpt lat="59.2034870" lon="17.6441380">
        <ele>41.4700000</ele>
        <time>2010-12-03T22:59:53Z</time>
      </trkpt>
      <trkpt lat="59.2031710" lon="17.6439650">
        <ele>42.4400000</ele>
        <time>2010-12-03T23:12:34Z</time>
      </trkpt>
      <trkpt lat="59.2026940" lon="17.6436690">
        <ele>43.8800000</ele>
        <time>2010-12-03T23:12:46Z</time>
      </trkpt>
      <trkpt lat="59.2023740" lon="17.6432590">
        <ele>44.8400000</ele>
        <time>2010-12-03T23:12:55Z</time>
      </trkpt>
      <trkpt lat="59.2023390" lon="17.6431880">
        <ele>44.8400000</ele>
        <time>2010-12-03T23:12:56Z</time>
      </trkpt>
      <trkpt lat="59.2021790" lon="17.6426830">
        <ele>45.3200000</ele>
        <time>2010-12-03T23:13:02Z</time>
      </trkpt>
      <trkpt lat="59.2020950" lon="17.6421410">
        <ele>41.4700000</ele>
        <time>2010-12-03T23:13:08Z</time>
      </trkpt>
      <trkpt lat="59.2020840" lon="17.6420560">
        <ele>45.8000000</ele>
        <time>2010-12-03T23:13:09Z</time>
      </trkpt>
      <trkpt lat="59.2019460" lon="17.6409400">
        <ele>45.8000000</ele>
        <time>2010-12-03T23:13:20Z</time>
      </trkpt>
      <trkpt lat="59.2017330" lon="17.6392380">
        <ele>43.4000000</ele>
        <time>2010-12-03T23:13:35Z</time>
      </trkpt>
      <trkpt lat="59.2016030" lon="17.6380310">
        <ele>38.5900000</ele>
        <time>2010-12-03T23:13:44Z</time>
      </trkpt>
      <trkpt lat="59.2015150" lon="17.6371210">
        <ele>39.0700000</ele>
        <time>2010-12-03T23:13:50Z</time>
      </trkpt>
      <trkpt lat="59.2014350" lon="17.6361240">
        <ele>35.7100000</ele>
        <time>2010-12-03T23:13:56Z</time>
      </trkpt>
      <trkpt lat="59.2013970" lon="17.6355990">
        <ele>34.2600000</ele>
        <time>2010-12-03T23:13:59Z</time>
      </trkpt>
      <trkpt lat="59.2013700" lon="17.6352520">
        <ele>32.3400000</ele>
        <time>2010-12-03T23:14:01Z</time>
      </trkpt>
      <trkpt lat="59.2013090" lon="17.6345580">
        <ele>30.4200000</ele>
        <time>2010-12-03T23:14:05Z</time>
      </trkpt>
      <trkpt lat="59.2012370" lon="17.6338940">
        <ele>28.5000000</ele>
        <time>2010-12-03T23:14:09Z</time>
      </trkpt>
      <trkpt lat="59.2010460" lon="17.6327920">
        <ele>25.6100000</ele>
        <time>2010-12-03T23:14:17Z</time>
      </trkpt>
      <trkpt lat="59.2008320" lon="17.6319660">
        <ele>22.7300000</ele>
        <time>2010-12-03T23:14:23Z</time>
      </trkpt>
      <trkpt lat="59.2007140" lon="17.6315230">
        <ele>20.8100000</ele>
        <time>2010-12-03T23:14:26Z</time>
      </trkpt>
      <trkpt lat="59.2004130" lon="17.6302810">
        <ele>18.8800000</ele>
        <time>2010-12-03T23:14:36Z</time>
      </trkpt>
      <trkpt lat="59.2003630" lon="17.6300050">
        <ele>18.8800000</ele>
        <time>2010-12-03T23:14:43Z</time>
      </trkpt>
      <trkpt lat="59.2003630" lon="17.6300050">
        <ele>18.8800000</ele>
        <time>2010-12-03T23:14:56Z</time>
      </trkpt>
      <trkpt lat="59.2003630" lon="17.6300050">
        <ele>17.9200000</ele>
        <time>2010-12-03T23:15:12Z</time>
      </trkpt>
      <trkpt lat="59.2003630" lon="17.6300030">
        <ele>18.4000000</ele>
        <time>2010-12-03T23:15:32Z</time>
      </trkpt>
      <trkpt lat="59.2003630" lon="17.6300030">
        <ele>18.4000000</ele>
        <time>2010-12-03T23:15:57Z</time>
      </trkpt>
      <trkpt lat="59.2003590" lon="17.6299990">
        <ele>18.4000000</ele>
        <time>2010-12-03T23:16:19Z</time>
      </trkpt>
      <trkpt lat="59.2003590" lon="17.6299990">
        <ele>18.4000000</ele>
        <time>2010-12-03T23:16:41Z</time>
      </trkpt>
      <trkpt lat="59.2003400" lon="17.6298290">
        <ele>18.4000000</ele>
        <time>2010-12-03T23:16:58Z</time>
      </trkpt>
      <trkpt lat="59.2001910" lon="17.6290780">
        <ele>17.9200000</ele>
        <time>2010-12-03T23:17:07Z</time>
      </trkpt>
      <trkpt lat="59.1998440" lon="17.6276470">
        <ele>16.0000000</ele>
        <time>2010-12-03T23:17:22Z</time>
      </trkpt>
      <trkpt lat="59.1994360" lon="17.6261250">
        <ele>13.6000000</ele>
        <time>2010-12-03T23:17:35Z</time>
      </trkpt>
      <trkpt lat="59.1989440" lon="17.6244320">
        <ele>14.0800000</ele>
        <time>2010-12-03T23:17:49Z</time>
      </trkpt>
      <trkpt lat="59.1984670" lon="17.6228430">
        <ele>15.0400000</ele>
        <time>2010-12-03T23:18:04Z</time>
      </trkpt>
      <trkpt lat="59.1982840" lon="17.6220760">
        <ele>16.4800000</ele>
        <time>2010-12-03T23:18:12Z</time>
      </trkpt>
      <trkpt lat="59.1982650" lon="17.6219810">
        <ele>16.9600000</ele>
        <time>2010-12-03T23:18:13Z</time>
      </trkpt>
      <trkpt lat="59.1981350" lon="17.6213440">
        <ele>18.8800000</ele>
        <time>2010-12-03T23:18:20Z</time>
      </trkpt>
      <trkpt lat="59.1981160" lon="17.6212540">
        <ele>18.8800000</ele>
        <time>2010-12-03T23:18:21Z</time>
      </trkpt>
      <trkpt lat="59.1979940" lon="17.6205860">
        <ele>20.3200000</ele>
        <time>2010-12-03T23:18:29Z</time>
      </trkpt>
      <trkpt lat="59.1979790" lon="17.6205180">
        <ele>20.8100000</ele>
        <time>2010-12-03T23:18:30Z</time>
      </trkpt>
      <trkpt lat="59.1979560" lon="17.6202660">
        <ele>21.2900000</ele>
        <time>2010-12-03T23:18:34Z</time>
      </trkpt>
      <trkpt lat="59.1979680" lon="17.6202130">
        <ele>20.8100000</ele>
        <time>2010-12-03T23:18:35Z</time>
      </trkpt>
      <trkpt lat="59.1979870" lon="17.6201570">
        <ele>20.8100000</ele>
        <time>2010-12-03T23:18:36Z</time>
      </trkpt>
      <trkpt lat="59.1980170" lon="17.6201080">
        <ele>21.2900000</ele>
        <time>2010-12-03T23:18:37Z</time>
      </trkpt>
      <trkpt lat="59.1980510" lon="17.6200600">
        <ele>21.2900000</ele>
        <time>2010-12-03T23:18:38Z</time>
      </trkpt>
      <trkpt lat="59.1980900" lon="17.6200160">
        <ele>21.7700000</ele>
        <time>2010-12-03T23:18:39Z</time>
      </trkpt>
      <trkpt lat="59.1981280" lon="17.6199720">
        <ele>21.2900000</ele>
        <time>2010-12-03T23:18:40Z</time>
      </trkpt>
      <trkpt lat="59.1986660" lon="17.6194440">
        <ele>20.3200000</ele>
        <time>2010-12-03T23:18:51Z</time>
      </trkpt>
      <trkpt lat="59.1994860" lon="17.6186580">
        <ele>19.8400000</ele>
        <time>2010-12-03T23:19:05Z</time>
      </trkpt>
      <trkpt lat="59.2002940" lon="17.6178470">
        <ele>20.8100000</ele>
        <time>2010-12-03T23:19:19Z</time>
      </trkpt>
      <trkpt lat="59.2011450" lon="17.6168040">
        <ele>19.8400000</ele>
        <time>2010-12-03T23:19:34Z</time>
      </trkpt>
      <trkpt lat="59.2017060" lon="17.6156690">
        <ele>19.3600000</ele>
        <time>2010-12-03T23:19:46Z</time>
      </trkpt>
      <trkpt lat="59.2021450" lon="17.6141450">
        <ele>19.8400000</ele>
        <time>2010-12-03T23:20:00Z</time>
      </trkpt>
      <trkpt lat="59.2022210" lon="17.6138190">
        <ele>23.6900000</ele>
        <time>2010-12-03T23:20:03Z</time>
      </trkpt>
      <trkpt lat="59.2022440" lon="17.6137120">
        <ele>20.8100000</ele>
        <time>2010-12-03T23:20:04Z</time>
      </trkpt>
      <trkpt lat="59.2025030" lon="17.6120570">
        <ele>20.8100000</ele>
        <time>2010-12-03T23:20:19Z</time>
      </trkpt>
      <trkpt lat="59.2027360" lon="17.6103420">
        <ele>20.8100000</ele>
        <time>2010-12-03T23:20:34Z</time>
      </trkpt>
      <trkpt lat="59.2029380" lon="17.6086410">
        <ele>17.4400000</ele>
        <time>2010-12-03T23:20:50Z</time>
      </trkpt>
      <trkpt lat="59.2029460" lon="17.6085410">
        <ele>23.6900000</ele>
        <time>2010-12-03T23:20:51Z</time>
      </trkpt>
      <trkpt lat="59.2030300" lon="17.6069600">
        <ele>25.6100000</ele>
        <time>2010-12-03T23:21:06Z</time>
      </trkpt>
      <trkpt lat="59.2029760" lon="17.6050610">
        <ele>25.6100000</ele>
        <time>2010-12-03T23:21:22Z</time>
      </trkpt>
      <trkpt lat="59.2029690" lon="17.6049370">
        <ele>15.0400000</ele>
        <time>2010-12-03T23:21:23Z</time>
      </trkpt>
      <trkpt lat="59.2029610" lon="17.6048110">
        <ele>25.1300000</ele>
        <time>2010-12-03T23:21:24Z</time>
      </trkpt>
      <trkpt lat="59.2028690" lon="17.6038250">
        <ele>24.1700000</ele>
        <time>2010-12-03T23:21:32Z</time>
      </trkpt>
      <trkpt lat="59.2026980" lon="17.6024300">
        <ele>23.2100000</ele>
        <time>2010-12-03T23:21:43Z</time>
      </trkpt>
      <trkpt lat="59.2022780" lon="17.6012330">
        <ele>24.6500000</ele>
        <time>2010-12-03T23:21:55Z</time>
      </trkpt>
      <trkpt lat="59.2015720" lon="17.5999810">
        <ele>27.0500000</ele>
        <time>2010-12-03T23:22:12Z</time>
      </trkpt>
      <trkpt lat="59.2009240" lon="17.5989800">
        <ele>29.4600000</ele>
        <time>2010-12-03T23:22:27Z</time>
      </trkpt>
      <trkpt lat="59.2001230" lon="17.5978070">
        <ele>30.4200000</ele>
        <time>2010-12-03T23:22:44Z</time>
      </trkpt>
      <trkpt lat="59.1998670" lon="17.5973550">
        <ele>30.9000000</ele>
        <time>2010-12-03T23:22:50Z</time>
      </trkpt>
      <trkpt lat="59.1998330" lon="17.5972630">
        <ele>30.9000000</ele>
        <time>2010-12-03T23:22:51Z</time>
      </trkpt>
      <trkpt lat="59.1998020" lon="17.5971680">
        <ele>30.9000000</ele>
        <time>2010-12-03T23:22:52Z</time>
      </trkpt>
      <trkpt lat="59.1997640" lon="17.5970860">
        <ele>30.9000000</ele>
        <time>2010-12-03T23:22:53Z</time>
      </trkpt>
      <trkpt lat="59.1997220" lon="17.5970170">
        <ele>30.9000000</ele>
        <time>2010-12-03T23:22:54Z</time>
      </trkpt>
      <trkpt lat="59.1996770" lon="17.5969640">
        <ele>31.3800000</ele>
        <time>2010-12-03T23:22:55Z</time>
      </trkpt>
      <trkpt lat="59.1996230" lon="17.5969220">
        <ele>30.9000000</ele>
        <time>2010-12-03T23:22:56Z</time>
      </trkpt>
      <trkpt lat="59.1995660" lon="17.5968800">
        <ele>30.9000000</ele>
        <time>2010-12-03T23:22:57Z</time>
      </trkpt>
      <trkpt lat="59.1995090" lon="17.5968250">
        <ele>31.3800000</ele>
        <time>2010-12-03T23:22:58Z</time>
      </trkpt>
      <trkpt lat="59.1994590" lon="17.5967620">
        <ele>31.8600000</ele>
        <time>2010-12-03T23:22:59Z</time>
      </trkpt>
      <trkpt lat="59.1989860" lon="17.5959000">
        <ele>32.3400000</ele>
        <time>2010-12-03T23:23:10Z</time>
      </trkpt>
      <trkpt lat="59.1984410" lon="17.5942960">
        <ele>33.3000000</ele>
        <time>2010-12-03T23:23:27Z</time>
      </trkpt>
      <trkpt lat="59.1980710" lon="17.5929830">
        <ele>33.7800000</ele>
        <time>2010-12-03T23:23:40Z</time>
      </trkpt>
      <trkpt lat="59.1977160" lon="17.5914250">
        <ele>35.2300000</ele>
        <time>2010-12-03T23:23:55Z</time>
      </trkpt>
      <trkpt lat="59.1974180" lon="17.5899370">
        <ele>36.1900000</ele>
        <time>2010-12-03T23:24:09Z</time>
      </trkpt>
      <trkpt lat="59.1971780" lon="17.5883580">
        <ele>37.6300000</ele>
        <time>2010-12-03T23:24:23Z</time>
      </trkpt>
      <trkpt lat="59.1970440" lon="17.5867690">
        <ele>37.6300000</ele>
        <time>2010-12-03T23:24:37Z</time>
      </trkpt>
      <trkpt lat="59.1970290" lon="17.5852600">
        <ele>38.1100000</ele>
        <time>2010-12-03T23:24:50Z</time>
      </trkpt>
      <trkpt lat="59.1970290" lon="17.5833090">
        <ele>35.7100000</ele>
        <time>2010-12-03T23:25:05Z</time>
      </trkpt>
      <trkpt lat="59.1970250" lon="17.5822390">
        <ele>34.7400000</ele>
        <time>2010-12-03T23:25:13Z</time>
      </trkpt>
      <trkpt lat="59.1970370" lon="17.5821170">
        <ele>34.2600000</ele>
        <time>2010-12-03T23:25:14Z</time>
      </trkpt>
      <trkpt lat="59.1970600" lon="17.5820030">
        <ele>34.2600000</ele>
        <time>2010-12-03T23:25:15Z</time>
      </trkpt>
      <trkpt lat="59.1970940" lon="17.5819000">
        <ele>34.2600000</ele>
        <time>2010-12-03T23:25:16Z</time>
      </trkpt>
      <trkpt lat="59.1971400" lon="17.5818100">
        <ele>33.7800000</ele>
        <time>2010-12-03T23:25:17Z</time>
      </trkpt>
      <trkpt lat="59.1971970" lon="17.5817390">
        <ele>33.3000000</ele>
        <time>2010-12-03T23:25:18Z</time>
      </trkpt>
      <trkpt lat="59.1972540" lon="17.5816900">
        <ele>33.3000000</ele>
        <time>2010-12-03T23:25:19Z</time>
      </trkpt>
      <trkpt lat="59.1973150" lon="17.5816610">
        <ele>33.7800000</ele>
        <time>2010-12-03T23:25:20Z</time>
      </trkpt>
      <trkpt lat="59.1973760" lon="17.5816520">
        <ele>34.2600000</ele>
        <time>2010-12-03T23:25:21Z</time>
      </trkpt>
      <trkpt lat="59.1974300" lon="17.5816520">
        <ele>34.7400000</ele>
        <time>2010-12-03T23:25:22Z</time>
      </trkpt>
      <trkpt lat="59.1974870" lon="17.5816610">
        <ele>35.2300000</ele>
        <time>2010-12-03T23:25:23Z</time>
      </trkpt>
      <trkpt lat="59.1979480" lon="17.5818180">
        <ele>37.6300000</ele>
        <time>2010-12-03T23:25:33Z</time>
      </trkpt>
      <trkpt lat="59.1981510" lon="17.5819050">
        <ele>39.0700000</ele>
        <time>2010-12-03T23:25:39Z</time>
      </trkpt>
      <trkpt lat="59.1981770" lon="17.5818770">
        <ele>39.0700000</ele>
        <time>2010-12-03T23:25:40Z</time>
      </trkpt>
      <trkpt lat="59.1982080" lon="17.5818270">
        <ele>39.0700000</ele>
        <time>2010-12-03T23:25:41Z</time>
      </trkpt>
      <trkpt lat="59.1982350" lon="17.5817640">
        <ele>39.0700000</ele>
        <time>2010-12-03T23:25:42Z</time>
      </trkpt>
      <trkpt lat="59.1982610" lon="17.5816940">
        <ele>39.0700000</ele>
        <time>2010-12-03T23:25:43Z</time>
      </trkpt>
      <trkpt lat="59.1982800" lon="17.5816170">
        <ele>39.5500000</ele>
        <time>2010-12-03T23:25:44Z</time>
      </trkpt>
      <trkpt lat="59.1983030" lon="17.5815370">
        <ele>39.5500000</ele>
        <time>2010-12-03T23:25:45Z</time>
      </trkpt>
      <trkpt lat="59.1983180" lon="17.5814510">
        <ele>39.0700000</ele>
        <time>2010-12-03T23:25:46Z</time>
      </trkpt>
      <trkpt lat="59.1985970" lon="17.5802020">
        <ele>38.1100000</ele>
        <time>2010-12-03T23:25:58Z</time>
      </trkpt>
      <trkpt lat="59.1989290" lon="17.5786990">
        <ele>39.5500000</ele>
        <time>2010-12-03T23:26:11Z</time>
      </trkpt>
      <trkpt lat="59.1991580" lon="17.5776330">
        <ele>41.9500000</ele>
        <time>2010-12-03T23:26:22Z</time>
      </trkpt>
      <trkpt lat="59.1992570" lon="17.5771730">
        <ele>43.4000000</ele>
        <time>2010-12-03T23:26:27Z</time>
      </trkpt>
      <trkpt lat="59.1993060" lon="17.5769820">
        <ele>43.8800000</ele>
        <time>2010-12-03T23:26:29Z</time>
      </trkpt>
      <trkpt lat="59.1995810" lon="17.5757540">
        <ele>43.8800000</ele>
        <time>2010-12-03T23:26:41Z</time>
      </trkpt>
      <trkpt lat="59.1998710" lon="17.5744060">
        <ele>40.5100000</ele>
        <time>2010-12-03T23:26:52Z</time>
      </trkpt>
      <trkpt lat="59.1999050" lon="17.5742650">
        <ele>40.5100000</ele>
        <time>2010-12-03T23:26:53Z</time>
      </trkpt>
      <trkpt lat="59.2003360" lon="17.5725290">
        <ele>37.1500000</ele>
        <time>2010-12-03T23:27:05Z</time>
      </trkpt>
      <trkpt lat="59.2009430" lon="17.5707210">
        <ele>36.6700000</ele>
        <time>2010-12-03T23:27:19Z</time>
      </trkpt>
      <trkpt lat="59.2016260" lon="17.5687140">
        <ele>36.6700000</ele>
        <time>2010-12-03T23:27:36Z</time>
      </trkpt>
      <trkpt lat="59.2021680" lon="17.5667720">
        <ele>35.2300000</ele>
        <time>2010-12-03T23:27:52Z</time>
      </trkpt>
      <trkpt lat="59.2024040" lon="17.5650330">
        <ele>34.2600000</ele>
        <time>2010-12-03T23:28:04Z</time>
      </trkpt>
      <trkpt lat="59.2024270" lon="17.5633740">
        <ele>34.7400000</ele>
        <time>2010-12-03T23:28:16Z</time>
      </trkpt>
      <trkpt lat="59.2023430" lon="17.5620370">
        <ele>37.6300000</ele>
        <time>2010-12-03T23:28:27Z</time>
      </trkpt>
      <trkpt lat="59.2022400" lon="17.5607220">
        <ele>40.5100000</ele>
        <time>2010-12-03T23:28:40Z</time>
      </trkpt>
      <trkpt lat="59.2021330" lon="17.5593530">
        <ele>41.9500000</ele>
        <time>2010-12-03T23:28:53Z</time>
      </trkpt>
      <trkpt lat="59.2021140" lon="17.5591340">
        <ele>42.4400000</ele>
        <time>2010-12-03T23:28:55Z</time>
      </trkpt>
      <trkpt lat="59.2020230" lon="17.5578900">
        <ele>43.4000000</ele>
        <time>2010-12-03T23:29:06Z</time>
      </trkpt>
      <trkpt lat="59.2019460" lon="17.5563390">
        <ele>43.4000000</ele>
        <time>2010-12-03T23:29:19Z</time>
      </trkpt>
      <trkpt lat="59.2019460" lon="17.5559620">
        <ele>42.9200000</ele>
        <time>2010-12-03T23:29:22Z</time>
      </trkpt>
      <trkpt lat="59.2020260" lon="17.5550310">
        <ele>41.9500000</ele>
        <time>2010-12-03T23:29:29Z</time>
      </trkpt>
      <trkpt lat="59.2020490" lon="17.5549030">
        <ele>42.4400000</ele>
        <time>2010-12-03T23:29:30Z</time>
      </trkpt>
      <trkpt lat="59.2023850" lon="17.5535930">
        <ele>39.5500000</ele>
        <time>2010-12-03T23:29:40Z</time>
      </trkpt>
      <trkpt lat="59.2029300" lon="17.5515610">
        <ele>36.1900000</ele>
        <time>2010-12-03T23:29:54Z</time>
      </trkpt>
      <trkpt lat="59.2031060" lon="17.5499940">
        <ele>36.6700000</ele>
        <time>2010-12-03T23:30:05Z</time>
      </trkpt>
      <trkpt lat="59.2030370" lon="17.5483890">
        <ele>38.1100000</ele>
        <time>2010-12-03T23:30:17Z</time>
      </trkpt>
      <trkpt lat="59.2028080" lon="17.5471460">
        <ele>40.5100000</ele>
        <time>2010-12-03T23:30:28Z</time>
      </trkpt>
      <trkpt lat="59.2024420" lon="17.5459440">
        <ele>41.4700000</ele>
        <time>2010-12-03T23:30:40Z</time>
      </trkpt>
      <trkpt lat="59.2019770" lon="17.5445690">
        <ele>43.4000000</ele>
        <time>2010-12-03T23:30:54Z</time>
      </trkpt>
      <trkpt lat="59.2014880" lon="17.5435470">
        <ele>41.9500000</ele>
        <time>2010-12-03T23:31:05Z</time>
      </trkpt>
      <trkpt lat="59.2006840" lon="17.5426240">
        <ele>40.5100000</ele>
        <time>2010-12-03T23:31:17Z</time>
      </trkpt>
      <trkpt lat="59.2001270" lon="17.5419520">
        <ele>42.9200000</ele>
        <time>2010-12-03T23:31:28Z</time>
      </trkpt>
      <trkpt lat="59.1998100" lon="17.5411010">
        <ele>43.8800000</ele>
        <time>2010-12-03T23:31:38Z</time>
      </trkpt>
      <trkpt lat="59.1994210" lon="17.5393730">
        <ele>43.4000000</ele>
        <time>2010-12-03T23:31:53Z</time>
      </trkpt>
      <trkpt lat="59.1990010" lon="17.5380670">
        <ele>42.4400000</ele>
        <time>2010-12-03T23:32:05Z</time>
      </trkpt>
      <trkpt lat="59.1984410" lon="17.5369010">
        <ele>39.0700000</ele>
        <time>2010-12-03T23:32:16Z</time>
      </trkpt>
      <trkpt lat="59.1976430" lon="17.5353050">
        <ele>39.0700000</ele>
        <time>2010-12-03T23:32:32Z</time>
      </trkpt>
      <trkpt lat="59.1970100" lon="17.5340820">
        <ele>40.9900000</ele>
        <time>2010-12-03T23:32:46Z</time>
      </trkpt>
      <trkpt lat="59.1964450" lon="17.5332950">
        <ele>42.4400000</ele>
        <time>2010-12-03T23:32:58Z</time>
      </trkpt>
      <trkpt lat="59.1958390" lon="17.5325580">
        <ele>40.5100000</ele>
        <time>2010-12-03T23:33:09Z</time>
      </trkpt>
      <trkpt lat="59.1951680" lon="17.5313910">
        <ele>39.0700000</ele>
        <time>2010-12-03T23:33:21Z</time>
      </trkpt>
      <trkpt lat="59.1944580" lon="17.5297950">
        <ele>35.7100000</ele>
        <time>2010-12-03T23:33:35Z</time>
      </trkpt>
      <trkpt lat="59.1941600" lon="17.5291060">
        <ele>32.3400000</ele>
        <time>2010-12-03T23:33:40Z</time>
      </trkpt>
      <trkpt lat="59.1937790" lon="17.5282500">
        <ele>28.9800000</ele>
        <time>2010-12-03T23:33:46Z</time>
      </trkpt>
      <trkpt lat="59.1930730" lon="17.5266280">
        <ele>28.0200000</ele>
        <time>2010-12-03T23:33:58Z</time>
      </trkpt>
      <trkpt lat="59.1925740" lon="17.5255410">
        <ele>29.9400000</ele>
        <time>2010-12-03T23:34:09Z</time>
      </trkpt>
      <trkpt lat="59.1918980" lon="17.5243020">
        <ele>32.8200000</ele>
        <time>2010-12-03T23:34:23Z</time>
      </trkpt>
      <trkpt lat="59.1911010" lon="17.5230310">
        <ele>32.8200000</ele>
        <time>2010-12-03T23:34:38Z</time>
      </trkpt>
      <trkpt lat="59.1902500" lon="17.5215930">
        <ele>32.3400000</ele>
        <time>2010-12-03T23:34:54Z</time>
      </trkpt>
      <trkpt lat="59.1896400" lon="17.5200730">
        <ele>32.3400000</ele>
        <time>2010-12-03T23:35:08Z</time>
      </trkpt>
      <trkpt lat="59.1892550" lon="17.5183070">
        <ele>31.8600000</ele>
        <time>2010-12-03T23:35:22Z</time>
      </trkpt>
      <trkpt lat="59.1890450" lon="17.5165670">
        <ele>31.3800000</ele>
        <time>2010-12-03T23:35:35Z</time>
      </trkpt>
      <trkpt lat="59.1890450" lon="17.5147650">
        <ele>30.4200000</ele>
        <time>2010-12-03T23:35:48Z</time>
      </trkpt>
      <trkpt lat="59.1891440" lon="17.5128970">
        <ele>32.3400000</ele>
        <time>2010-12-03T23:36:02Z</time>
      </trkpt>
      <trkpt lat="59.1892050" lon="17.5117840">
        <ele>35.2300000</ele>
        <time>2010-12-03T23:36:12Z</time>
      </trkpt>
      <trkpt lat="59.1892280" lon="17.5112440">
        <ele>37.1500000</ele>
        <time>2010-12-03T23:36:17Z</time>
      </trkpt>
      <trkpt lat="59.1893080" lon="17.5098930">
        <ele>40.0300000</ele>
        <time>2010-12-03T23:36:30Z</time>
      </trkpt>
      <trkpt lat="59.1894040" lon="17.5082040">
        <ele>41.9500000</ele>
        <time>2010-12-03T23:36:46Z</time>
      </trkpt>
      <trkpt lat="59.1894570" lon="17.5071510">
        <ele>44.8400000</ele>
        <time>2010-12-03T23:36:56Z</time>
      </trkpt>
      <trkpt lat="59.1894650" lon="17.5070530">
        <ele>44.8400000</ele>
        <time>2010-12-03T23:36:57Z</time>
      </trkpt>
      <trkpt lat="59.1894720" lon="17.5059810">
        <ele>48.2000000</ele>
        <time>2010-12-03T23:37:09Z</time>
      </trkpt>
      <trkpt lat="59.1893960" lon="17.5047820">
        <ele>50.6100000</ele>
        <time>2010-12-03T23:37:22Z</time>
      </trkpt>
      <trkpt lat="59.1893080" lon="17.5037160">
        <ele>53.0100000</ele>
        <time>2010-12-03T23:37:34Z</time>
      </trkpt>
      <trkpt lat="59.1890980" lon="17.5023800">
        <ele>53.0100000</ele>
        <time>2010-12-03T23:37:48Z</time>
      </trkpt>
      <trkpt lat="59.1889340" lon="17.5014860">
        <ele>49.6500000</ele>
        <time>2010-12-03T23:37:55Z</time>
      </trkpt>
      <trkpt lat="59.1888240" lon="17.5008890">
        <ele>48.2000000</ele>
        <time>2010-12-03T23:37:59Z</time>
      </trkpt>
      <trkpt lat="59.1885800" lon="17.4990220">
        <ele>44.8400000</ele>
        <time>2010-12-03T23:38:11Z</time>
      </trkpt>
      <trkpt lat="59.1885950" lon="17.4973560">
        <ele>43.8800000</ele>
        <time>2010-12-03T23:38:22Z</time>
      </trkpt>
      <trkpt lat="59.1887590" lon="17.4961400">
        <ele>41.4700000</ele>
        <time>2010-12-03T23:38:30Z</time>
      </trkpt>
      <trkpt lat="59.1889720" lon="17.4948060">
        <ele>38.1100000</ele>
        <time>2010-12-03T23:38:38Z</time>
      </trkpt>
      <trkpt lat="59.1890720" lon="17.4935570">
        <ele>38.5900000</ele>
        <time>2010-12-03T23:38:46Z</time>
      </trkpt>
      <trkpt lat="59.1890750" lon="17.4931640">
        <ele>40.0300000</ele>
        <time>2010-12-03T23:38:49Z</time>
      </trkpt>
      <trkpt lat="59.1890110" lon="17.4914880">
        <ele>39.5500000</ele>
        <time>2010-12-03T23:39:01Z</time>
      </trkpt>
      <trkpt lat="59.1889720" lon="17.4895710">
        <ele>38.1100000</ele>
        <time>2010-12-03T23:39:14Z</time>
      </trkpt>
      <trkpt lat="59.1889570" lon="17.4879280">
        <ele>38.1100000</ele>
        <time>2010-12-03T23:39:25Z</time>
      </trkpt>
      <trkpt lat="59.1889460" lon="17.4859710">
        <ele>38.5900000</ele>
        <time>2010-12-03T23:39:39Z</time>
      </trkpt>
      <trkpt lat="59.1889340" lon="17.4840410">
        <ele>40.0300000</ele>
        <time>2010-12-03T23:39:54Z</time>
      </trkpt>
      <trkpt lat="59.1889760" lon="17.4821360">
        <ele>40.5100000</ele>
        <time>2010-12-03T23:40:09Z</time>
      </trkpt>
      <trkpt lat="59.1890750" lon="17.4805620">
        <ele>39.0700000</ele>
        <time>2010-12-03T23:40:21Z</time>
      </trkpt>
      <trkpt lat="59.1891250" lon="17.4784200">
        <ele>37.1500000</ele>
        <time>2010-12-03T23:40:36Z</time>
      </trkpt>
      <trkpt lat="59.1891670" lon="17.4767170">
        <ele>35.7100000</ele>
        <time>2010-12-03T23:40:48Z</time>
      </trkpt>
      <trkpt lat="59.1892740" lon="17.4743690">
        <ele>35.7100000</ele>
        <time>2010-12-03T23:41:05Z</time>
      </trkpt>
      <trkpt lat="59.1893540" lon="17.4722310">
        <ele>33.7800000</ele>
        <time>2010-12-03T23:41:20Z</time>
      </trkpt>
      <trkpt lat="59.1893650" lon="17.4720800">
        <ele>33.3000000</ele>
        <time>2010-12-03T23:41:21Z</time>
      </trkpt>
      <trkpt lat="59.1895290" lon="17.4694630">
        <ele>31.3800000</ele>
        <time>2010-12-03T23:41:39Z</time>
      </trkpt>
      <trkpt lat="59.1896210" lon="17.4671860">
        <ele>29.4600000</ele>
        <time>2010-12-03T23:41:55Z</time>
      </trkpt>
      <trkpt lat="59.1899110" lon="17.4652710">
        <ele>26.5700000</ele>
        <time>2010-12-03T23:42:08Z</time>
      </trkpt>
      <trkpt lat="59.1904260" lon="17.4633310">
        <ele>25.6100000</ele>
        <time>2010-12-03T23:42:22Z</time>
      </trkpt>
      <trkpt lat="59.1910440" lon="17.4613610">
        <ele>26.5700000</ele>
        <time>2010-12-03T23:42:38Z</time>
      </trkpt>
      <trkpt lat="59.1916430" lon="17.4594270">
        <ele>25.6100000</ele>
        <time>2010-12-03T23:42:54Z</time>
      </trkpt>
      <trkpt lat="59.1920550" lon="17.4579980">
        <ele>24.6500000</ele>
        <time>2010-12-03T23:43:07Z</time>
      </trkpt>
      <trkpt lat="59.1925540" lon="17.4559960">
        <ele>22.7300000</ele>
        <time>2010-12-03T23:43:23Z</time>
      </trkpt>
      <trkpt lat="59.1929050" lon="17.4545650">
        <ele>21.7700000</ele>
        <time>2010-12-03T23:43:34Z</time>
      </trkpt>
      <trkpt lat="59.1934470" lon="17.4523940">
        <ele>20.8100000</ele>
        <time>2010-12-03T23:43:50Z</time>
      </trkpt>
      <trkpt lat="59.1939350" lon="17.4504700">
        <ele>19.3600000</ele>
        <time>2010-12-03T23:44:04Z</time>
      </trkpt>
      <trkpt lat="59.1945150" lon="17.4486240">
        <ele>17.4400000</ele>
        <time>2010-12-03T23:44:18Z</time>
      </trkpt>
      <trkpt lat="59.1953470" lon="17.4465080">
        <ele>14.5600000</ele>
        <time>2010-12-03T23:44:35Z</time>
      </trkpt>
      <trkpt lat="59.1962470" lon="17.4441830">
        <ele>14.5600000</ele>
        <time>2010-12-03T23:44:54Z</time>
      </trkpt>
      <trkpt lat="59.1966210" lon="17.4426060">
        <ele>13.6000000</ele>
        <time>2010-12-03T23:45:06Z</time>
      </trkpt>
      <trkpt lat="59.1966970" lon="17.4411410">
        <ele>12.1500000</ele>
        <time>2010-12-03T23:45:16Z</time>
      </trkpt>
      <trkpt lat="59.1965980" lon="17.4389650">
        <ele>8.7900000</ele>
        <time>2010-12-03T23:45:30Z</time>
      </trkpt>
      <trkpt lat="59.1966320" lon="17.4385030">
        <ele>6.8700000</ele>
        <time>2010-12-03T23:45:33Z</time>
      </trkpt>
      <trkpt lat="59.1966590" lon="17.4383600">
        <ele>6.8700000</ele>
        <time>2010-12-03T23:45:34Z</time>
      </trkpt>
      <trkpt lat="59.1966930" lon="17.4382310">
        <ele>7.3500000</ele>
        <time>2010-12-03T23:45:35Z</time>
      </trkpt>
      <trkpt lat="59.1967350" lon="17.4381080">
        <ele>7.3500000</ele>
        <time>2010-12-03T23:45:36Z</time>
      </trkpt>
      <trkpt lat="59.1967770" lon="17.4379980">
        <ele>7.8300000</ele>
        <time>2010-12-03T23:45:37Z</time>
      </trkpt>
      <trkpt lat="59.1968230" lon="17.4378930">
        <ele>7.3500000</ele>
        <time>2010-12-03T23:45:38Z</time>
      </trkpt>
      <trkpt lat="59.1975980" lon="17.4364410">
        <ele>6.8700000</ele>
        <time>2010-12-03T23:45:53Z</time>
      </trkpt>
      <trkpt lat="59.1983910" lon="17.4349270">
        <ele>7.8300000</ele>
        <time>2010-12-03T23:46:09Z</time>
      </trkpt>
      <trkpt lat="59.1991650" lon="17.4336200">
        <ele>8.7900000</ele>
        <time>2010-12-03T23:46:24Z</time>
      </trkpt>
      <trkpt lat="59.1999020" lon="17.4328590">
        <ele>8.3100000</ele>
        <time>2010-12-03T23:46:36Z</time>
      </trkpt>
      <trkpt lat="59.2006680" lon="17.4322660">
        <ele>9.2700000</ele>
        <time>2010-12-03T23:46:48Z</time>
      </trkpt>
      <trkpt lat="59.2012670" lon="17.4313680">
        <ele>8.7900000</ele>
        <time>2010-12-03T23:46:59Z</time>
      </trkpt>
      <trkpt lat="59.2014660" lon="17.4308190">
        <ele>8.7900000</ele>
        <time>2010-12-03T23:47:04Z</time>
      </trkpt>
      <trkpt lat="59.2017860" lon="17.4294470">
        <ele>8.7900000</ele>
        <time>2010-12-03T23:47:15Z</time>
      </trkpt>
      <trkpt lat="59.2019960" lon="17.4275420">
        <ele>8.3100000</ele>
        <time>2010-12-03T23:47:29Z</time>
      </trkpt>
      <trkpt lat="59.2022250" lon="17.4251270">
        <ele>5.4200000</ele>
        <time>2010-12-03T23:47:46Z</time>
      </trkpt>
      <trkpt lat="59.2023660" lon="17.4236390">
        <ele>9.2700000</ele>
        <time>2010-12-03T23:47:57Z</time>
      </trkpt>
      <trkpt lat="59.2025070" lon="17.4221690">
        <ele>9.7500000</ele>
        <time>2010-12-03T23:48:09Z</time>
      </trkpt>
      <trkpt lat="59.2026820" lon="17.4204180">
        <ele>10.2300000</ele>
        <time>2010-12-03T23:48:24Z</time>
      </trkpt>
      <trkpt lat="59.2028960" lon="17.4182010">
        <ele>10.7100000</ele>
        <time>2010-12-03T23:48:43Z</time>
      </trkpt>
      <trkpt lat="59.2030220" lon="17.4168800">
        <ele>11.1900000</ele>
        <time>2010-12-03T23:48:55Z</time>
      </trkpt>
      <trkpt lat="59.2031710" lon="17.4153670">
        <ele>11.1900000</ele>
        <time>2010-12-03T23:49:07Z</time>
      </trkpt>
      <trkpt lat="59.2033270" lon="17.4135880">
        <ele>13.1200000</ele>
        <time>2010-12-03T23:49:23Z</time>
      </trkpt>
      <trkpt lat="59.2034190" lon="17.4120310">
        <ele>15.0400000</ele>
        <time>2010-12-03T23:49:38Z</time>
      </trkpt>
      <trkpt lat="59.2035750" lon="17.4103660">
        <ele>12.1500000</ele>
        <time>2010-12-03T23:49:51Z</time>
      </trkpt>
      <trkpt lat="59.2037960" lon="17.4084210">
        <ele>12.6300000</ele>
        <time>2010-12-03T23:50:06Z</time>
      </trkpt>
      <trkpt lat="59.2039640" lon="17.4069100">
        <ele>15.5200000</ele>
        <time>2010-12-03T23:50:20Z</time>
      </trkpt>
      <trkpt lat="59.2041170" lon="17.4055840">
        <ele>17.4400000</ele>
        <time>2010-12-03T23:50:34Z</time>
      </trkpt>
      <trkpt lat="59.2042960" lon="17.4040320">
        <ele>19.8400000</ele>
        <time>2010-12-03T23:50:50Z</time>
      </trkpt>
      <trkpt lat="59.2044530" lon="17.4026930">
        <ele>21.2900000</ele>
        <time>2010-12-03T23:51:04Z</time>
      </trkpt>
      <trkpt lat="59.2046130" lon="17.4013580">
        <ele>23.2100000</ele>
        <time>2010-12-03T23:51:18Z</time>
      </trkpt>
      <trkpt lat="59.2048420" lon="17.4002400">
        <ele>23.6900000</ele>
        <time>2010-12-03T23:51:30Z</time>
      </trkpt>
      <trkpt lat="59.2052040" lon="17.3988080">
        <ele>23.2100000</ele>
        <time>2010-12-03T23:51:44Z</time>
      </trkpt>
      <trkpt lat="59.2054180" lon="17.3971000">
        <ele>22.2500000</ele>
        <time>2010-12-03T23:51:58Z</time>
      </trkpt>
      <trkpt lat="59.2055360" lon="17.3956970">
        <ele>23.6900000</ele>
        <time>2010-12-03T23:52:11Z</time>
      </trkpt>
      <trkpt lat="59.2056310" lon="17.3945260">
        <ele>27.0500000</ele>
        <time>2010-12-03T23:52:24Z</time>
      </trkpt>
      <trkpt lat="59.2056960" lon="17.3936560">
        <ele>30.9000000</ele>
        <time>2010-12-03T23:52:35Z</time>
      </trkpt>
      <trkpt lat="59.2057040" lon="17.3935780">
        <ele>30.4200000</ele>
        <time>2010-12-03T23:52:36Z</time>
      </trkpt>
      <trkpt lat="59.2057880" lon="17.3927170">
        <ele>32.8200000</ele>
        <time>2010-12-03T23:52:48Z</time>
      </trkpt>
      <trkpt lat="59.2058490" lon="17.3919830">
        <ele>35.2300000</ele>
        <time>2010-12-03T23:52:58Z</time>
      </trkpt>
      <trkpt lat="59.2059210" lon="17.3910470">
        <ele>38.1100000</ele>
        <time>2010-12-03T23:53:11Z</time>
      </trkpt>
      <trkpt lat="59.2059820" lon="17.3903330">
        <ele>40.0300000</ele>
        <time>2010-12-03T23:53:21Z</time>
      </trkpt>
      <trkpt lat="59.2060550" lon="17.3893660">
        <ele>41.9500000</ele>
        <time>2010-12-03T23:53:33Z</time>
      </trkpt>
      <trkpt lat="59.2062300" lon="17.3880210">
        <ele>43.4000000</ele>
        <time>2010-12-03T23:53:48Z</time>
      </trkpt>
      <trkpt lat="59.2064700" lon="17.3869690">
        <ele>46.2800000</ele>
        <time>2010-12-03T23:54:02Z</time>
      </trkpt>
      <trkpt lat="59.2067110" lon="17.3860190">
        <ele>49.6500000</ele>
        <time>2010-12-03T23:54:16Z</time>
      </trkpt>
      <trkpt lat="59.2067260" lon="17.3859630">
        <ele>49.6500000</ele>
        <time>2010-12-03T23:54:17Z</time>
      </trkpt>
      <trkpt lat="59.2068330" lon="17.3853260">
        <ele>51.5700000</ele>
        <time>2010-12-03T23:54:26Z</time>
      </trkpt>
      <trkpt lat="59.2069320" lon="17.3842450">
        <ele>52.0500000</ele>
        <time>2010-12-03T23:54:37Z</time>
      </trkpt>
      <trkpt lat="59.2070660" lon="17.3825090">
        <ele>51.0900000</ele>
        <time>2010-12-03T23:54:51Z</time>
      </trkpt>
      <trkpt lat="59.2073900" lon="17.3812080">
        <ele>49.1600000</ele>
        <time>2010-12-03T23:55:01Z</time>
      </trkpt>
      <trkpt lat="59.2077060" lon="17.3803730">
        <ele>48.6800000</ele>
        <time>2010-12-03T23:55:08Z</time>
      </trkpt>
      <trkpt lat="59.2079240" lon="17.3790440">
        <ele>49.1600000</ele>
        <time>2010-12-03T23:55:18Z</time>
      </trkpt>
      <trkpt lat="59.2078170" lon="17.3777290">
        <ele>49.6500000</ele>
        <time>2010-12-03T23:55:28Z</time>
      </trkpt>
      <trkpt lat="59.2074810" lon="17.3758910">
        <ele>49.6500000</ele>
        <time>2010-12-03T23:55:43Z</time>
      </trkpt>
      <trkpt lat="59.2071910" lon="17.3743520">
        <ele>51.0900000</ele>
        <time>2010-12-03T23:55:56Z</time>
      </trkpt>
      <trkpt lat="59.2069740" lon="17.3731840">
        <ele>53.0100000</ele>
        <time>2010-12-03T23:56:08Z</time>
      </trkpt>
      <trkpt lat="59.2068290" lon="17.3721370">
        <ele>55.8900000</ele>
        <time>2010-12-03T23:56:20Z</time>
      </trkpt>
      <trkpt lat="59.2067720" lon="17.3710250">
        <ele>59.2600000</ele>
        <time>2010-12-03T23:56:33Z</time>
      </trkpt>
      <trkpt lat="59.2068410" lon="17.3698790">
        <ele>59.2600000</ele>
        <time>2010-12-03T23:56:45Z</time>
      </trkpt>
      <trkpt lat="59.2069090" lon="17.3692000">
        <ele>55.8900000</ele>
        <time>2010-12-03T23:56:50Z</time>
      </trkpt>
      <trkpt lat="59.2069740" lon="17.3685680">
        <ele>53.4900000</ele>
        <time>2010-12-03T23:56:54Z</time>
      </trkpt>
      <trkpt lat="59.2072180" lon="17.3661000">
        <ele>52.5300000</ele>
        <time>2010-12-03T23:57:10Z</time>
      </trkpt>
      <trkpt lat="59.2074050" lon="17.3642250">
        <ele>52.5300000</ele>
        <time>2010-12-03T23:57:24Z</time>
      </trkpt>
      <trkpt lat="59.2075650" lon="17.3624950">
        <ele>54.4500000</ele>
        <time>2010-12-03T23:57:39Z</time>
      </trkpt>
      <trkpt lat="59.2077100" lon="17.3611070">
        <ele>52.0500000</ele>
        <time>2010-12-03T23:57:50Z</time>
      </trkpt>
      <trkpt lat="59.2077670" lon="17.3606870">
        <ele>51.0900000</ele>
        <time>2010-12-03T23:57:53Z</time>
      </trkpt>
      <trkpt lat="59.2079280" lon="17.3598350">
        <ele>49.1600000</ele>
        <time>2010-12-03T23:57:59Z</time>
      </trkpt>
      <trkpt lat="59.2080270" lon="17.3593830">
        <ele>46.7600000</ele>
        <time>2010-12-03T23:58:02Z</time>
      </trkpt>
      <trkpt lat="59.2081260" lon="17.3589150">
        <ele>45.3200000</ele>
        <time>2010-12-03T23:58:05Z</time>
      </trkpt>
      <trkpt lat="59.2082940" lon="17.3581050">
        <ele>43.8800000</ele>
        <time>2010-12-03T23:58:10Z</time>
      </trkpt>
      <trkpt lat="59.2086600" lon="17.3560370">
        <ele>41.9500000</ele>
        <time>2010-12-03T23:58:23Z</time>
      </trkpt>
      <trkpt lat="59.2089420" lon="17.3538150">
        <ele>41.4700000</ele>
        <time>2010-12-03T23:58:38Z</time>
      </trkpt>
      <trkpt lat="59.2089770" lon="17.3518470">
        <ele>41.4700000</ele>
        <time>2010-12-03T23:58:51Z</time>
      </trkpt>
      <trkpt lat="59.2089040" lon="17.3502640">
        <ele>42.4400000</ele>
        <time>2010-12-03T23:59:03Z</time>
      </trkpt>
      <trkpt lat="59.2087970" lon="17.3483220">
        <ele>44.3600000</ele>
        <time>2010-12-03T23:59:19Z</time>
      </trkpt>
      <trkpt lat="59.2087060" lon="17.3467660">
        <ele>46.2800000</ele>
        <time>2010-12-03T23:59:34Z</time>
      </trkpt>
      <trkpt lat="59.2086260" lon="17.3454910">
        <ele>49.1600000</ele>
        <time>2010-12-03T23:59:48Z</time>
      </trkpt>
      <trkpt lat="59.2085460" lon="17.3441280">
        <ele>52.5300000</ele>
        <time>2010-12-04T00:00:03Z</time>
      </trkpt>
      <trkpt lat="59.2084730" lon="17.3427660">
        <ele>52.0500000</ele>
        <time>2010-12-04T00:00:16Z</time>
      </trkpt>
      <trkpt lat="59.2084620" lon="17.3410660">
        <ele>52.0500000</ele>
        <time>2010-12-04T00:00:31Z</time>
      </trkpt>
      <trkpt lat="59.2086560" lon="17.3395980">
        <ele>52.5300000</ele>
        <time>2010-12-04T00:00:44Z</time>
      </trkpt>
      <trkpt lat="59.2089840" lon="17.3383460">
        <ele>52.0500000</ele>
        <time>2010-12-04T00:00:56Z</time>
      </trkpt>
      <trkpt lat="59.2095570" lon="17.3370860">
        <ele>52.5300000</ele>
        <time>2010-12-04T00:01:10Z</time>
      </trkpt>
      <trkpt lat="59.2103730" lon="17.3356930">
        <ele>50.6100000</ele>
        <time>2010-12-04T00:01:26Z</time>
      </trkpt>
      <trkpt lat="59.2107810" lon="17.3346920">
        <ele>47.7200000</ele>
        <time>2010-12-04T00:01:34Z</time>
      </trkpt>
      <trkpt lat="59.2108690" lon="17.3343940">
        <ele>45.8000000</ele>
        <time>2010-12-04T00:01:36Z</time>
      </trkpt>
      <trkpt lat="59.2109110" lon="17.3342340">
        <ele>44.8400000</ele>
        <time>2010-12-04T00:01:37Z</time>
      </trkpt>
      <trkpt lat="59.2111360" lon="17.3332160">
        <ele>41.4700000</ele>
        <time>2010-12-04T00:01:43Z</time>
      </trkpt>
      <trkpt lat="59.2114070" lon="17.3314230">
        <ele>40.9900000</ele>
        <time>2010-12-04T00:01:54Z</time>
      </trkpt>
      <trkpt lat="59.2116810" lon="17.3300320">
        <ele>40.9900000</ele>
        <time>2010-12-04T00:02:05Z</time>
      </trkpt>
      <trkpt lat="59.2120740" lon="17.3287390">
        <ele>40.5100000</ele>
        <time>2010-12-04T00:02:17Z</time>
      </trkpt>
      <trkpt lat="59.2127270" lon="17.3267310">
        <ele>39.0700000</ele>
        <time>2010-12-04T00:02:35Z</time>
      </trkpt>
      <trkpt lat="59.2133640" lon="17.3249020">
        <ele>36.6700000</ele>
        <time>2010-12-04T00:02:50Z</time>
      </trkpt>
      <trkpt lat="59.2140010" lon="17.3235590">
        <ele>37.6300000</ele>
        <time>2010-12-04T00:03:03Z</time>
      </trkpt>
      <trkpt lat="59.2146380" lon="17.3225140">
        <ele>40.5100000</ele>
        <time>2010-12-04T00:03:17Z</time>
      </trkpt>
      <trkpt lat="59.2151450" lon="17.3215680">
        <ele>42.4400000</ele>
        <time>2010-12-04T00:03:30Z</time>
      </trkpt>
      <trkpt lat="59.2156030" lon="17.3202920">
        <ele>42.4400000</ele>
        <time>2010-12-04T00:03:44Z</time>
      </trkpt>
      <trkpt lat="59.2159190" lon="17.3188360">
        <ele>43.8800000</ele>
        <time>2010-12-04T00:03:58Z</time>
      </trkpt>
      <trkpt lat="59.2161450" lon="17.3176560">
        <ele>46.7600000</ele>
        <time>2010-12-04T00:04:10Z</time>
      </trkpt>
      <trkpt lat="59.2163850" lon="17.3163530">
        <ele>50.1300000</ele>
        <time>2010-12-04T00:04:25Z</time>
      </trkpt>
      <trkpt lat="59.2166290" lon="17.3150460">
        <ele>51.5700000</ele>
        <time>2010-12-04T00:04:39Z</time>
      </trkpt>
      <trkpt lat="59.2168730" lon="17.3134380">
        <ele>49.6500000</ele>
        <time>2010-12-04T00:04:53Z</time>
      </trkpt>
      <trkpt lat="59.2170600" lon="17.3115980">
        <ele>46.7600000</ele>
        <time>2010-12-04T00:05:06Z</time>
      </trkpt>
      <trkpt lat="59.2172160" lon="17.3095990">
        <ele>45.8000000</ele>
        <time>2010-12-04T00:05:20Z</time>
      </trkpt>
      <trkpt lat="59.2173540" lon="17.3078310">
        <ele>44.3600000</ele>
        <time>2010-12-04T00:05:32Z</time>
      </trkpt>
      <trkpt lat="59.2175220" lon="17.3055710">
        <ele>41.9500000</ele>
        <time>2010-12-04T00:05:47Z</time>
      </trkpt>
      <trkpt lat="59.2177620" lon="17.3036610">
        <ele>40.5100000</ele>
        <time>2010-12-04T00:06:00Z</time>
      </trkpt>
      <trkpt lat="59.2182010" lon="17.3022210">
        <ele>40.9900000</ele>
        <time>2010-12-04T00:06:12Z</time>
      </trkpt>
      <trkpt lat="59.2188260" lon="17.3008980">
        <ele>40.0300000</ele>
        <time>2010-12-04T00:06:25Z</time>
      </trkpt>
      <trkpt lat="59.2193530" lon="17.2994960">
        <ele>38.5900000</ele>
        <time>2010-12-04T00:06:37Z</time>
      </trkpt>
      <trkpt lat="59.2196160" lon="17.2978530">
        <ele>36.6700000</ele>
        <time>2010-12-04T00:06:49Z</time>
      </trkpt>
      <trkpt lat="59.2195890" lon="17.2961270">
        <ele>34.7400000</ele>
        <time>2010-12-04T00:07:01Z</time>
      </trkpt>
      <trkpt lat="59.2194900" lon="17.2954370">
        <ele>34.2600000</ele>
        <time>2010-12-04T00:07:06Z</time>
      </trkpt>
      <trkpt lat="59.2192420" lon="17.2943100">
        <ele>33.7800000</ele>
        <time>2010-12-04T00:07:15Z</time>
      </trkpt>
      <trkpt lat="59.2192150" lon="17.2941860">
        <ele>33.7800000</ele>
        <time>2010-12-04T00:07:16Z</time>
      </trkpt>
      <trkpt lat="59.2191850" lon="17.2940710">
        <ele>33.7800000</ele>
        <time>2010-12-04T00:07:17Z</time>
      </trkpt>
      <trkpt lat="59.2188220" lon="17.2927000">
        <ele>35.2300000</ele>
        <time>2010-12-04T00:07:29Z</time>
      </trkpt>
      <trkpt lat="59.2186430" lon="17.2914010">
        <ele>37.6300000</ele>
        <time>2010-12-04T00:07:41Z</time>
      </trkpt>
      <trkpt lat="59.2186430" lon="17.2901210">
        <ele>38.5900000</ele>
        <time>2010-12-04T00:07:53Z</time>
      </trkpt>
      <trkpt lat="59.2188220" lon="17.2887040">
        <ele>40.0300000</ele>
        <time>2010-12-04T00:08:07Z</time>
      </trkpt>
      <trkpt lat="59.2190590" lon="17.2872680">
        <ele>40.9900000</ele>
        <time>2010-12-04T00:08:21Z</time>
      </trkpt>
      <trkpt lat="59.2192960" lon="17.2860240">
        <ele>40.0300000</ele>
        <time>2010-12-04T00:08:33Z</time>
      </trkpt>
      <trkpt lat="59.2195630" lon="17.2845570">
        <ele>40.9900000</ele>
        <time>2010-12-04T00:08:47Z</time>
      </trkpt>
      <trkpt lat="59.2198100" lon="17.2832050">
        <ele>42.4400000</ele>
        <time>2010-12-04T00:09:01Z</time>
      </trkpt>
      <trkpt lat="59.2200280" lon="17.2820260">
        <ele>45.8000000</ele>
        <time>2010-12-04T00:09:15Z</time>
      </trkpt>
      <trkpt lat="59.2202340" lon="17.2808690">
        <ele>47.2400000</ele>
        <time>2010-12-04T00:09:29Z</time>
      </trkpt>
      <trkpt lat="59.2204740" lon="17.2795640">
        <ele>47.7200000</ele>
        <time>2010-12-04T00:09:43Z</time>
      </trkpt>
      <trkpt lat="59.2207030" lon="17.2783220">
        <ele>49.6500000</ele>
        <time>2010-12-04T00:09:56Z</time>
      </trkpt>
      <trkpt lat="59.2209050" lon="17.2772050">
        <ele>52.0500000</ele>
        <time>2010-12-04T00:10:09Z</time>
      </trkpt>
      <trkpt lat="59.2211300" lon="17.2759340">
        <ele>52.5300000</ele>
        <time>2010-12-04T00:10:23Z</time>
      </trkpt>
      <trkpt lat="59.2213520" lon="17.2744900">
        <ele>51.5700000</ele>
        <time>2010-12-04T00:10:36Z</time>
      </trkpt>
      <trkpt lat="59.2215500" lon="17.2725890">
        <ele>50.1300000</ele>
        <time>2010-12-04T00:10:51Z</time>
      </trkpt>
      <trkpt lat="59.2217290" lon="17.2709450">
        <ele>50.1300000</ele>
        <time>2010-12-04T00:11:04Z</time>
      </trkpt>
      <trkpt lat="59.2219430" lon="17.2694320">
        <ele>51.0900000</ele>
        <time>2010-12-04T00:11:18Z</time>
      </trkpt>
      <trkpt lat="59.2220990" lon="17.2684730">
        <ele>51.5700000</ele>
        <time>2010-12-04T00:11:27Z</time>
      </trkpt>
      <trkpt lat="59.2223050" lon="17.2670560">
        <ele>51.5700000</ele>
        <time>2010-12-04T00:11:40Z</time>
      </trkpt>
      <trkpt lat="59.2224770" lon="17.2657830">
        <ele>52.0500000</ele>
        <time>2010-12-04T00:11:52Z</time>
      </trkpt>
      <trkpt lat="59.2226140" lon="17.2640880">
        <ele>51.5700000</ele>
        <time>2010-12-04T00:12:07Z</time>
      </trkpt>
      <trkpt lat="59.2225760" lon="17.2623920">
        <ele>50.1300000</ele>
        <time>2010-12-04T00:12:20Z</time>
      </trkpt>
      <trkpt lat="59.2223740" lon="17.2608570">
        <ele>51.0900000</ele>
        <time>2010-12-04T00:12:33Z</time>
      </trkpt>
      <trkpt lat="59.2220690" lon="17.2595200">
        <ele>52.0500000</ele>
        <time>2010-12-04T00:12:46Z</time>
      </trkpt>
      <trkpt lat="59.2216420" lon="17.2580430">
        <ele>51.5700000</ele>
        <time>2010-12-04T00:13:01Z</time>
      </trkpt>
      <trkpt lat="59.2212750" lon="17.2567900">
        <ele>52.0500000</ele>
        <time>2010-12-04T00:13:14Z</time>
      </trkpt>
      <trkpt lat="59.2209320" lon="17.2556590">
        <ele>54.4500000</ele>
        <time>2010-12-04T00:13:27Z</time>
      </trkpt>
      <trkpt lat="59.2206380" lon="17.2546770">
        <ele>57.3400000</ele>
        <time>2010-12-04T00:13:40Z</time>
      </trkpt>
      <trkpt lat="59.2203790" lon="17.2537650">
        <ele>59.7400000</ele>
        <time>2010-12-04T00:13:52Z</time>
      </trkpt>
      <trkpt lat="59.2201230" lon="17.2524510">
        <ele>58.3000000</ele>
        <time>2010-12-04T00:14:05Z</time>
      </trkpt>
      <trkpt lat="59.2198910" lon="17.2509570">
        <ele>55.8900000</ele>
        <time>2010-12-04T00:14:16Z</time>
      </trkpt>
      <trkpt lat="59.2198220" lon="17.2504880">
        <ele>53.9700000</ele>
        <time>2010-12-04T00:14:19Z</time>
      </trkpt>
      <trkpt lat="59.2196920" lon="17.2496470">
        <ele>52.0500000</ele>
        <time>2010-12-04T00:14:24Z</time>
      </trkpt>
      <trkpt lat="59.2195320" lon="17.2486040">
        <ele>48.6800000</ele>
        <time>2010-12-04T00:14:30Z</time>
      </trkpt>
      <trkpt lat="59.2192570" lon="17.2468570">
        <ele>45.3200000</ele>
        <time>2010-12-04T00:14:40Z</time>
      </trkpt>
      <trkpt lat="59.2191700" lon="17.2461470">
        <ele>44.3600000</ele>
        <time>2010-12-04T00:14:44Z</time>
      </trkpt>
      <trkpt lat="59.2190250" lon="17.2441900">
        <ele>40.9900000</ele>
        <time>2010-12-04T00:14:55Z</time>
      </trkpt>
      <trkpt lat="59.2190670" lon="17.2425000">
        <ele>37.6300000</ele>
        <time>2010-12-04T00:15:05Z</time>
      </trkpt>
      <trkpt lat="59.2190780" lon="17.2423340">
        <ele>37.6300000</ele>
        <time>2010-12-04T00:15:06Z</time>
      </trkpt>
      <trkpt lat="59.2192310" lon="17.2400300">
        <ele>36.1900000</ele>
        <time>2010-12-04T00:15:21Z</time>
      </trkpt>
      <trkpt lat="59.2193410" lon="17.2381970">
        <ele>36.6700000</ele>
        <time>2010-12-04T00:15:34Z</time>
      </trkpt>
      <trkpt lat="59.2194180" lon="17.2367570">
        <ele>37.6300000</ele>
        <time>2010-12-04T00:15:46Z</time>
      </trkpt>
      <trkpt lat="59.2195170" lon="17.2351590">
        <ele>39.5500000</ele>
        <time>2010-12-04T00:16:00Z</time>
      </trkpt>
      <trkpt lat="59.2195780" lon="17.2341080">
        <ele>42.9200000</ele>
        <time>2010-12-04T00:16:12Z</time>
      </trkpt>
      <trkpt lat="59.2196200" lon="17.2336220">
        <ele>43.8800000</ele>
        <time>2010-12-04T00:16:18Z</time>
      </trkpt>
      <trkpt lat="59.2197300" lon="17.2326390">
        <ele>47.2400000</ele>
        <time>2010-12-04T00:16:30Z</time>
      </trkpt>
      <trkpt lat="59.2199400" lon="17.2314740">
        <ele>48.6800000</ele>
        <time>2010-12-04T00:16:44Z</time>
      </trkpt>
      <trkpt lat="59.2202380" lon="17.2304040">
        <ele>49.6500000</ele>
        <time>2010-12-04T00:16:56Z</time>
      </trkpt>
      <trkpt lat="59.2207410" lon="17.2291580">
        <ele>47.7200000</ele>
        <time>2010-12-04T00:17:09Z</time>
      </trkpt>
      <trkpt lat="59.2214360" lon="17.2277640">
        <ele>46.2800000</ele>
        <time>2010-12-04T00:17:24Z</time>
      </trkpt>
      <trkpt lat="59.2220040" lon="17.2266580">
        <ele>46.7600000</ele>
        <time>2010-12-04T00:17:38Z</time>
      </trkpt>
      <trkpt lat="59.2225720" lon="17.2255380">
        <ele>46.7600000</ele>
        <time>2010-12-04T00:17:53Z</time>
      </trkpt>
      <trkpt lat="59.2231140" lon="17.2244780">
        <ele>47.7200000</ele>
        <time>2010-12-04T00:18:07Z</time>
      </trkpt>
      <trkpt lat="59.2235980" lon="17.2235370">
        <ele>51.0900000</ele>
        <time>2010-12-04T00:18:21Z</time>
      </trkpt>
      <trkpt lat="59.2236290" lon="17.2234820">
        <ele>51.0900000</ele>
        <time>2010-12-04T00:18:22Z</time>
      </trkpt>
      <trkpt lat="59.2236600" lon="17.2234170">
        <ele>51.0900000</ele>
        <time>2010-12-04T00:18:23Z</time>
      </trkpt>
      <trkpt lat="59.2239300" lon="17.2228660">
        <ele>54.4500000</ele>
        <time>2010-12-04T00:18:33Z</time>
      </trkpt>
      <trkpt lat="59.2242550" lon="17.2222140">
        <ele>56.8600000</ele>
        <time>2010-12-04T00:18:44Z</time>
      </trkpt>
      <trkpt lat="59.2247160" lon="17.2212770">
        <ele>59.2600000</ele>
        <time>2010-12-04T00:18:59Z</time>
      </trkpt>
      <trkpt lat="59.2252010" lon="17.2201840">
        <ele>59.7400000</ele>
        <time>2010-12-04T00:19:13Z</time>
      </trkpt>
      <trkpt lat="59.2256430" lon="17.2188820">
        <ele>57.8200000</ele>
        <time>2010-12-04T00:19:26Z</time>
      </trkpt>
      <trkpt lat="59.2261240" lon="17.2173290">
        <ele>54.9300000</ele>
        <time>2010-12-04T00:19:39Z</time>
      </trkpt>
      <trkpt lat="59.2266650" lon="17.2161120">
        <ele>56.3700000</ele>
        <time>2010-12-04T00:19:52Z</time>
      </trkpt>
      <trkpt lat="59.2271920" lon="17.2153840">
        <ele>60.2200000</ele>
        <time>2010-12-04T00:20:05Z</time>
      </trkpt>
      <trkpt lat="59.2272300" lon="17.2153400">
        <ele>60.2200000</ele>
        <time>2010-12-04T00:20:06Z</time>
      </trkpt>
      <trkpt lat="59.2273520" lon="17.2152210">
        <ele>60.7000000</ele>
        <time>2010-12-04T00:20:09Z</time>
      </trkpt>
      <trkpt lat="59.2273940" lon="17.2151890">
        <ele>60.7000000</ele>
        <time>2010-12-04T00:20:10Z</time>
      </trkpt>
      <trkpt lat="59.2274360" lon="17.2151570">
        <ele>60.7000000</ele>
        <time>2010-12-04T00:20:11Z</time>
      </trkpt>
      <trkpt lat="59.2274740" lon="17.2151170">
        <ele>61.1800000</ele>
        <time>2010-12-04T00:20:12Z</time>
      </trkpt>
      <trkpt lat="59.2275160" lon="17.2150760">
        <ele>61.6600000</ele>
        <time>2010-12-04T00:20:13Z</time>
      </trkpt>
      <trkpt lat="59.2275620" lon="17.2150400">
        <ele>61.6600000</ele>
        <time>2010-12-04T00:20:14Z</time>
      </trkpt>
      <trkpt lat="59.2276040" lon="17.2150060">
        <ele>61.6600000</ele>
        <time>2010-12-04T00:20:15Z</time>
      </trkpt>
      <trkpt lat="59.2283250" lon="17.2144740">
        <ele>62.1400000</ele>
        <time>2010-12-04T00:20:30Z</time>
      </trkpt>
      <trkpt lat="59.2290120" lon="17.2138390">
        <ele>61.1800000</ele>
        <time>2010-12-04T00:20:43Z</time>
      </trkpt>
      <trkpt lat="59.2297170" lon="17.2129020">
        <ele>59.2600000</ele>
        <time>2010-12-04T00:20:56Z</time>
      </trkpt>
      <trkpt lat="59.2303310" lon="17.2119770">
        <ele>62.1400000</ele>
        <time>2010-12-04T00:21:09Z</time>
      </trkpt>
      <trkpt lat="59.2307930" lon="17.2112160">
        <ele>64.0700000</ele>
        <time>2010-12-04T00:21:21Z</time>
      </trkpt>
      <trkpt lat="59.2311210" lon="17.2105030">
        <ele>66.9500000</ele>
        <time>2010-12-04T00:21:31Z</time>
      </trkpt>
      <trkpt lat="59.2316210" lon="17.2092950">
        <ele>67.9100000</ele>
        <time>2010-12-04T00:21:47Z</time>
      </trkpt>
      <trkpt lat="59.2319070" lon="17.2085860">
        <ele>69.3500000</ele>
        <time>2010-12-04T00:21:56Z</time>
      </trkpt>
      <trkpt lat="59.2324710" lon="17.2072300">
        <ele>68.8700000</ele>
        <time>2010-12-04T00:22:12Z</time>
      </trkpt>
      <trkpt lat="59.2329060" lon="17.2062570">
        <ele>65.5100000</ele>
        <time>2010-12-04T00:22:22Z</time>
      </trkpt>
      <trkpt lat="59.2329560" lon="17.2061580">
        <ele>65.5100000</ele>
        <time>2010-12-04T00:22:23Z</time>
      </trkpt>
      <trkpt lat="59.2335890" lon="17.2049690">
        <ele>63.5800000</ele>
        <time>2010-12-04T00:22:35Z</time>
      </trkpt>
      <trkpt lat="59.2343600" lon="17.2035220">
        <ele>63.5800000</ele>
        <time>2010-12-04T00:22:50Z</time>
      </trkpt>
      <trkpt lat="59.2350120" lon="17.2020820">
        <ele>64.0700000</ele>
        <time>2010-12-04T00:23:05Z</time>
      </trkpt>
      <trkpt lat="59.2353710" lon="17.2012650">
        <ele>65.5100000</ele>
        <time>2010-12-04T00:23:14Z</time>
      </trkpt>
      <trkpt lat="59.2359310" lon="17.1999780">
        <ele>61.6600000</ele>
        <time>2010-12-04T00:23:27Z</time>
      </trkpt>
      <trkpt lat="59.2359770" lon="17.1998730">
        <ele>61.1800000</ele>
        <time>2010-12-04T00:23:28Z</time>
      </trkpt>
      <trkpt lat="59.2365040" lon="17.1987080">
        <ele>58.7800000</ele>
        <time>2010-12-04T00:23:39Z</time>
      </trkpt>
      <trkpt lat="59.2372170" lon="17.1971150">
        <ele>56.8600000</ele>
        <time>2010-12-04T00:23:53Z</time>
      </trkpt>
      <trkpt lat="59.2381020" lon="17.1954780">
        <ele>54.4500000</ele>
        <time>2010-12-04T00:24:09Z</time>
      </trkpt>
      <trkpt lat="59.2386280" lon="17.1946850">
        <ele>51.0900000</ele>
        <time>2010-12-04T00:24:17Z</time>
      </trkpt>
      <trkpt lat="59.2389980" lon="17.1941530">
        <ele>48.2000000</ele>
        <time>2010-12-04T00:24:22Z</time>
      </trkpt>
      <trkpt lat="59.2391550" lon="17.1939350">
        <ele>47.2400000</ele>
        <time>2010-12-04T00:24:24Z</time>
      </trkpt>
      <trkpt lat="59.2396390" lon="17.1932560">
        <ele>43.8800000</ele>
        <time>2010-12-04T00:24:30Z</time>
      </trkpt>
      <trkpt lat="59.2403950" lon="17.1921100">
        <ele>41.4700000</ele>
        <time>2010-12-04T00:24:41Z</time>
      </trkpt>
      <trkpt lat="59.2404560" lon="17.1919940">
        <ele>41.4700000</ele>
        <time>2010-12-04T00:24:42Z</time>
      </trkpt>
      <trkpt lat="59.2411990" lon="17.1903170">
        <ele>39.5500000</ele>
        <time>2010-12-04T00:24:56Z</time>
      </trkpt>
      <trkpt lat="59.2415920" lon="17.1889060">
        <ele>36.1900000</ele>
        <time>2010-12-04T00:25:06Z</time>
      </trkpt>
      <trkpt lat="59.2417530" lon="17.1880950">
        <ele>32.8200000</ele>
        <time>2010-12-04T00:25:11Z</time>
      </trkpt>
      <trkpt lat="59.2418480" lon="17.1874080">
        <ele>30.9000000</ele>
        <time>2010-12-04T00:25:15Z</time>
      </trkpt>
      <trkpt lat="59.2419240" lon="17.1866890">
        <ele>27.5300000</ele>
        <time>2010-12-04T00:25:19Z</time>
      </trkpt>
      <trkpt lat="59.2419620" lon="17.1859570">
        <ele>26.5700000</ele>
        <time>2010-12-04T00:25:23Z</time>
      </trkpt>
      <trkpt lat="59.2419660" lon="17.1851770">
        <ele>23.2100000</ele>
        <time>2010-12-04T00:25:27Z</time>
      </trkpt>
      <trkpt lat="59.2419280" lon="17.1841910">
        <ele>19.8400000</ele>
        <time>2010-12-04T00:25:32Z</time>
      </trkpt>
      <trkpt lat="59.2419170" lon="17.1839940">
        <ele>19.3600000</ele>
        <time>2010-12-04T00:25:33Z</time>
      </trkpt>
      <trkpt lat="59.2418670" lon="17.1832140">
        <ele>16.9600000</ele>
        <time>2010-12-04T00:25:37Z</time>
      </trkpt>
      <trkpt lat="59.2418020" lon="17.1822490">
        <ele>13.6000000</ele>
        <time>2010-12-04T00:25:42Z</time>
      </trkpt>
      <trkpt lat="59.2417110" lon="17.1807230">
        <ele>10.2300000</ele>
        <time>2010-12-04T00:25:50Z</time>
      </trkpt>
      <trkpt lat="59.2416990" lon="17.1803590">
        <ele>9.2700000</ele>
        <time>2010-12-04T00:25:52Z</time>
      </trkpt>
      <trkpt lat="59.2417830" lon="17.1785560">
        <ele>5.9100000</ele>
        <time>2010-12-04T00:26:02Z</time>
      </trkpt>
      <trkpt lat="59.2419550" lon="17.1774350">
        <ele>3.0200000</ele>
        <time>2010-12-04T00:26:09Z</time>
      </trkpt>
      <trkpt lat="59.2420310" lon="17.1770970">
        <ele>2.0600000</ele>
        <time>2010-12-04T00:26:11Z</time>
      </trkpt>
      <trkpt lat="59.2422600" lon="17.1762920">
        <ele>-0.3400000</ele>
        <time>2010-12-04T00:26:16Z</time>
      </trkpt>
      <trkpt lat="59.2427940" lon="17.1750090">
        <ele>-1.3000000</ele>
        <time>2010-12-04T00:26:26Z</time>
      </trkpt>
      <trkpt lat="59.2434120" lon="17.1738550">
        <ele>-1.7900000</ele>
        <time>2010-12-04T00:26:38Z</time>
      </trkpt>
      <trkpt lat="59.2439420" lon="17.1728630">
        <ele>-0.8200000</ele>
        <time>2010-12-04T00:26:50Z</time>
      </trkpt>
      <trkpt lat="59.2444950" lon="17.1718100">
        <ele>0.1400000</ele>
        <time>2010-12-04T00:27:04Z</time>
      </trkpt>
      <trkpt lat="59.2446520" lon="17.1715180">
        <ele>0.6200000</ele>
        <time>2010-12-04T00:27:08Z</time>
      </trkpt>
      <trkpt lat="59.2452960" lon="17.1703590">
        <ele>1.5800000</ele>
        <time>2010-12-04T00:27:25Z</time>
      </trkpt>
      <trkpt lat="59.2457580" lon="17.1696410">
        <ele>3.0200000</ele>
        <time>2010-12-04T00:27:38Z</time>
      </trkpt>
      <trkpt lat="59.2458610" lon="17.1694910">
        <ele>4.4600000</ele>
        <time>2010-12-04T00:27:41Z</time>
      </trkpt>
      <trkpt lat="59.2458950" lon="17.1694410">
        <ele>4.9400000</ele>
        <time>2010-12-04T00:27:42Z</time>
      </trkpt>
      <trkpt lat="59.2462880" lon="17.1688540">
        <ele>7.8300000</ele>
        <time>2010-12-04T00:27:55Z</time>
      </trkpt>
      <trkpt lat="59.2466050" lon="17.1684230">
        <ele>10.2300000</ele>
        <time>2010-12-04T00:28:06Z</time>
      </trkpt>
      <trkpt lat="59.2468680" lon="17.1679950">
        <ele>12.1500000</ele>
        <time>2010-12-04T00:28:16Z</time>
      </trkpt>
      <trkpt lat="59.2472570" lon="17.1672520">
        <ele>14.0800000</ele>
        <time>2010-12-04T00:28:30Z</time>
      </trkpt>
      <trkpt lat="59.2476230" lon="17.1662560">
        <ele>14.5600000</ele>
        <time>2010-12-04T00:28:45Z</time>
      </trkpt>
      <trkpt lat="59.2479970" lon="17.1651080">
        <ele>15.5200000</ele>
        <time>2010-12-04T00:29:01Z</time>
      </trkpt>
      <trkpt lat="59.2482870" lon="17.1646840">
        <ele>15.5200000</ele>
        <time>2010-12-04T00:29:11Z</time>
      </trkpt>
      <trkpt lat="59.2483290" lon="17.1647090">
        <ele>15.5200000</ele>
        <time>2010-12-04T00:29:12Z</time>
      </trkpt>
      <trkpt lat="59.2483750" lon="17.1647470">
        <ele>15.5200000</ele>
        <time>2010-12-04T00:29:13Z</time>
      </trkpt>
      <trkpt lat="59.2488780" lon="17.1653840">
        <ele>13.1200000</ele>
        <time>2010-12-04T00:29:23Z</time>
      </trkpt>
      <trkpt lat="59.2494930" lon="17.1663570">
        <ele>10.7100000</ele>
        <time>2010-12-04T00:29:34Z</time>
      </trkpt>
      <trkpt lat="59.2500000" lon="17.1677840">
        <ele>8.7900000</ele>
        <time>2010-12-04T00:29:45Z</time>
      </trkpt>
      <trkpt lat="59.2503660" lon="17.1697920">
        <ele>6.3900000</ele>
        <time>2010-12-04T00:29:58Z</time>
      </trkpt>
      <trkpt lat="59.2506260" lon="17.1714460">
        <ele>7.3500000</ele>
        <time>2010-12-04T00:30:10Z</time>
      </trkpt>
      <trkpt lat="59.2507710" lon="17.1721120">
        <ele>7.8300000</ele>
        <time>2010-12-04T00:30:19Z</time>
      </trkpt>
      <trkpt lat="59.2508390" lon="17.1724240">
        <ele>7.8300000</ele>
        <time>2010-12-04T00:30:27Z</time>
      </trkpt>
      <trkpt lat="59.2509920" lon="17.1729490">
        <ele>8.7900000</ele>
        <time>2010-12-04T00:30:39Z</time>
      </trkpt>
      <trkpt lat="59.2511790" lon="17.1734940">
        <ele>8.3100000</ele>
        <time>2010-12-04T00:30:50Z</time>
      </trkpt>
      <trkpt lat="59.2514920" lon="17.1742690">
        <ele>8.7900000</ele>
        <time>2010-12-04T00:31:04Z</time>
      </trkpt>
      <trkpt lat="59.2519340" lon="17.1751500">
        <ele>9.2700000</ele>
        <time>2010-12-04T00:31:18Z</time>
      </trkpt>
      <trkpt lat="59.2524680" lon="17.1761720">
        <ele>8.7900000</ele>
        <time>2010-12-04T00:31:33Z</time>
      </trkpt>
      <trkpt lat="59.2528570" lon="17.1770420">
        <ele>2.5400000</ele>
        <time>2010-12-04T00:31:44Z</time>
      </trkpt>
      <trkpt lat="59.2528920" lon="17.1771240">
        <ele>6.8700000</ele>
        <time>2010-12-04T00:31:45Z</time>
      </trkpt>
      <trkpt lat="59.2533450" lon="17.1783140">
        <ele>3.9800000</ele>
        <time>2010-12-04T00:31:58Z</time>
      </trkpt>
      <trkpt lat="59.2534450" lon="17.1785930">
        <ele>-1.7900000</ele>
        <time>2010-12-04T00:32:01Z</time>
      </trkpt>
      <trkpt lat="59.2534790" lon="17.1786840">
        <ele>3.9800000</ele>
        <time>2010-12-04T00:32:02Z</time>
      </trkpt>
      <trkpt lat="59.2537000" lon="17.1793330">
        <ele>2.5400000</ele>
        <time>2010-12-04T00:32:09Z</time>
      </trkpt>
      <trkpt lat="59.2537190" lon="17.1794340">
        <ele>2.0600000</ele>
        <time>2010-12-04T00:32:10Z</time>
      </trkpt>
      <trkpt lat="59.2537310" lon="17.1795410">
        <ele>2.0600000</ele>
        <time>2010-12-04T00:32:11Z</time>
      </trkpt>
      <trkpt lat="59.2537500" lon="17.1797470">
        <ele>2.5400000</ele>
        <time>2010-12-04T00:32:13Z</time>
      </trkpt>
      <trkpt lat="59.2537730" lon="17.1798380">
        <ele>2.0600000</ele>
        <time>2010-12-04T00:32:14Z</time>
      </trkpt>
      <trkpt lat="59.2538030" lon="17.1799130">
        <ele>2.5400000</ele>
        <time>2010-12-04T00:32:15Z</time>
      </trkpt>
      <trkpt lat="59.2538410" lon="17.1799760">
        <ele>2.5400000</ele>
        <time>2010-12-04T00:32:16Z</time>
      </trkpt>
      <trkpt lat="59.2538830" lon="17.1800310">
        <ele>2.0600000</ele>
        <time>2010-12-04T00:32:17Z</time>
      </trkpt>
      <trkpt lat="59.2541690" lon="17.1806180">
        <ele>2.0600000</ele>
        <time>2010-12-04T00:32:25Z</time>
      </trkpt>
      <trkpt lat="59.2542000" lon="17.1806870">
        <ele>2.0600000</ele>
        <time>2010-12-04T00:32:26Z</time>
      </trkpt>
      <trkpt lat="59.2543180" lon="17.1809350">
        <ele>2.5400000</ele>
        <time>2010-12-04T00:32:30Z</time>
      </trkpt>
      <trkpt lat="59.2543530" lon="17.1809840">
        <ele>2.0600000</ele>
        <time>2010-12-04T00:32:31Z</time>
      </trkpt>
      <trkpt lat="59.2543870" lon="17.1810250">
        <ele>2.0600000</ele>
        <time>2010-12-04T00:32:32Z</time>
      </trkpt>
      <trkpt lat="59.2544290" lon="17.1810510">
        <ele>2.5400000</ele>
        <time>2010-12-04T00:32:33Z</time>
      </trkpt>
      <trkpt lat="59.2544710" lon="17.1810610">
        <ele>2.0600000</ele>
        <time>2010-12-04T00:32:34Z</time>
      </trkpt>
      <trkpt lat="59.2545170" lon="17.1810510">
        <ele>1.5800000</ele>
        <time>2010-12-04T00:32:35Z</time>
      </trkpt>
      <trkpt lat="59.2545660" lon="17.1810280">
        <ele>1.5800000</ele>
        <time>2010-12-04T00:32:36Z</time>
      </trkpt>
      <trkpt lat="59.2546160" lon="17.1809980">
        <ele>1.5800000</ele>
        <time>2010-12-04T00:32:37Z</time>
      </trkpt>
      <trkpt lat="59.2546690" lon="17.1809640">
        <ele>1.1000000</ele>
        <time>2010-12-04T00:32:38Z</time>
      </trkpt>
      <trkpt lat="59.2551500" lon="17.1803720">
        <ele>3.0200000</ele>
        <time>2010-12-04T00:32:49Z</time>
      </trkpt>
      <trkpt lat="59.2556110" lon="17.1791930">
        <ele>3.9800000</ele>
        <time>2010-12-04T00:33:04Z</time>
      </trkpt>
      <trkpt lat="59.2560420" lon="17.1779670">
        <ele>3.9800000</ele>
        <time>2010-12-04T00:33:19Z</time>
      </trkpt>
      <trkpt lat="59.2565190" lon="17.1765900">
        <ele>5.4200000</ele>
        <time>2010-12-04T00:33:36Z</time>
      </trkpt>
      <trkpt lat="59.2568510" lon="17.1756380">
        <ele>5.4200000</ele>
        <time>2010-12-04T00:33:50Z</time>
      </trkpt>
      <trkpt lat="59.2572780" lon="17.1744980">
        <ele>5.9100000</ele>
        <time>2010-12-04T00:34:08Z</time>
      </trkpt>
      <trkpt lat="59.2577400" lon="17.1735740">
        <ele>5.9100000</ele>
        <time>2010-12-04T00:34:24Z</time>
      </trkpt>
      <trkpt lat="59.2581330" lon="17.1729010">
        <ele>5.9100000</ele>
        <time>2010-12-04T00:34:37Z</time>
      </trkpt>
      <trkpt lat="59.2586140" lon="17.1720940">
        <ele>5.9100000</ele>
        <time>2010-12-04T00:34:51Z</time>
      </trkpt>
      <trkpt lat="59.2591290" lon="17.1711880">
        <ele>7.3500000</ele>
        <time>2010-12-04T00:35:07Z</time>
      </trkpt>
      <trkpt lat="59.2597160" lon="17.1701760">
        <ele>8.3100000</ele>
        <time>2010-12-04T00:35:24Z</time>
      </trkpt>
      <trkpt lat="59.2602460" lon="17.1692710">
        <ele>10.2300000</ele>
        <time>2010-12-04T00:35:40Z</time>
      </trkpt>
      <trkpt lat="59.2606510" lon="17.1685890">
        <ele>11.6700000</ele>
        <time>2010-12-04T00:35:53Z</time>
      </trkpt>
      <trkpt lat="59.2609670" lon="17.1679990">
        <ele>14.5600000</ele>
        <time>2010-12-04T00:36:05Z</time>
      </trkpt>
      <trkpt lat="59.2613220" lon="17.1673980">
        <ele>17.4400000</ele>
        <time>2010-12-04T00:36:18Z</time>
      </trkpt>
      <trkpt lat="59.2617450" lon="17.1665940">
        <ele>18.4000000</ele>
        <time>2010-12-04T00:36:34Z</time>
      </trkpt>
      <trkpt lat="59.2621460" lon="17.1657510">
        <ele>18.4000000</ele>
        <time>2010-12-04T00:36:47Z</time>
      </trkpt>
      <trkpt lat="59.2625890" lon="17.1647470">
        <ele>18.8800000</ele>
        <time>2010-12-04T00:37:01Z</time>
      </trkpt>
      <trkpt lat="59.2630390" lon="17.1637950">
        <ele>19.3600000</ele>
        <time>2010-12-04T00:37:15Z</time>
      </trkpt>
      <trkpt lat="59.2636070" lon="17.1629390">
        <ele>20.3200000</ele>
        <time>2010-12-04T00:37:30Z</time>
      </trkpt>
      <trkpt lat="59.2640950" lon="17.1624390">
        <ele>21.2900000</ele>
        <time>2010-12-04T00:37:42Z</time>
      </trkpt>
      <trkpt lat="59.2641750" lon="17.1623630">
        <ele>21.7700000</ele>
        <time>2010-12-04T00:37:44Z</time>
      </trkpt>
      <trkpt lat="59.2646900" lon="17.1619380">
        <ele>22.2500000</ele>
        <time>2010-12-04T00:37:56Z</time>
      </trkpt>
      <trkpt lat="59.2653770" lon="17.1613460">
        <ele>24.1700000</ele>
        <time>2010-12-04T00:38:12Z</time>
      </trkpt>
      <trkpt lat="59.2660100" lon="17.1608620">
        <ele>25.6100000</ele>
        <time>2010-12-04T00:38:28Z</time>
      </trkpt>
      <trkpt lat="59.2667160" lon="17.1602920">
        <ele>26.0900000</ele>
        <time>2010-12-04T00:38:44Z</time>
      </trkpt>
      <trkpt lat="59.2669260" lon="17.1601300">
        <ele>26.5700000</ele>
        <time>2010-12-04T00:38:49Z</time>
      </trkpt>
      <trkpt lat="59.2675060" lon="17.1598240">
        <ele>27.5300000</ele>
        <time>2010-12-04T00:39:02Z</time>
      </trkpt>
      <trkpt lat="59.2683370" lon="17.1594180">
        <ele>25.1300000</ele>
        <time>2010-12-04T00:39:18Z</time>
      </trkpt>
      <trkpt lat="59.2690050" lon="17.1588230">
        <ele>23.2100000</ele>
        <time>2010-12-04T00:39:31Z</time>
      </trkpt>
      <trkpt lat="59.2695010" lon="17.1579780">
        <ele>24.1700000</ele>
        <time>2010-12-04T00:39:43Z</time>
      </trkpt>
      <trkpt lat="59.2699090" lon="17.1569840">
        <ele>26.0900000</ele>
        <time>2010-12-04T00:39:56Z</time>
      </trkpt>
      <trkpt lat="59.2701870" lon="17.1558300">
        <ele>26.5700000</ele>
        <time>2010-12-04T00:40:10Z</time>
      </trkpt>
      <trkpt lat="59.2703700" lon="17.1545560">
        <ele>23.6900000</ele>
        <time>2010-12-04T00:40:22Z</time>
      </trkpt>
      <trkpt lat="59.2705690" lon="17.1530700">
        <ele>21.7700000</ele>
        <time>2010-12-04T00:40:34Z</time>
      </trkpt>
      <trkpt lat="59.2708020" lon="17.1514190">
        <ele>22.7300000</ele>
        <time>2010-12-04T00:40:49Z</time>
      </trkpt>
      <trkpt lat="59.2710110" lon="17.1500820">
        <ele>21.7700000</ele>
        <time>2010-12-04T00:41:02Z</time>
      </trkpt>
      <trkpt lat="59.2713130" lon="17.1488700">
        <ele>18.4000000</ele>
        <time>2010-12-04T00:41:14Z</time>
      </trkpt>
      <trkpt lat="59.2717820" lon="17.1473480">
        <ele>16.0000000</ele>
        <time>2010-12-04T00:41:29Z</time>
      </trkpt>
      <trkpt lat="59.2723200" lon="17.1456430">
        <ele>13.6000000</ele>
        <time>2010-12-04T00:41:45Z</time>
      </trkpt>
      <trkpt lat="59.2726670" lon="17.1444150">
        <ele>16.0000000</ele>
        <time>2010-12-04T00:41:58Z</time>
      </trkpt>
      <trkpt lat="59.2729530" lon="17.1429420">
        <ele>13.1200000</ele>
        <time>2010-12-04T00:42:12Z</time>
      </trkpt>
      <trkpt lat="59.2731740" lon="17.1411270">
        <ele>11.6700000</ele>
        <time>2010-12-04T00:42:27Z</time>
      </trkpt>
      <trkpt lat="59.2733420" lon="17.1392080">
        <ele>11.1900000</ele>
        <time>2010-12-04T00:42:43Z</time>
      </trkpt>
      <trkpt lat="59.2733380" lon="17.1376760">
        <ele>10.7100000</ele>
        <time>2010-12-04T00:42:56Z</time>
      </trkpt>
      <trkpt lat="59.2730870" lon="17.1361350">
        <ele>11.6700000</ele>
        <time>2010-12-04T00:43:10Z</time>
      </trkpt>
      <trkpt lat="59.2727090" lon="17.1347940">
        <ele>11.6700000</ele>
        <time>2010-12-04T00:43:23Z</time>
      </trkpt>
      <trkpt lat="59.2722890" lon="17.1335560">
        <ele>8.3100000</ele>
        <time>2010-12-04T00:43:35Z</time>
      </trkpt>
      <trkpt lat="59.2721480" lon="17.1328280">
        <ele>7.3500000</ele>
        <time>2010-12-04T00:43:41Z</time>
      </trkpt>
      <trkpt lat="59.2721210" lon="17.1322980">
        <ele>6.3900000</ele>
        <time>2010-12-04T00:43:45Z</time>
      </trkpt>
      <trkpt lat="59.2721980" lon="17.1313990">
        <ele>5.4200000</ele>
        <time>2010-12-04T00:43:52Z</time>
      </trkpt>
      <trkpt lat="59.2725910" lon="17.1301960">
        <ele>2.5400000</ele>
        <time>2010-12-04T00:44:03Z</time>
      </trkpt>
      <trkpt lat="59.2732730" lon="17.1284750">
        <ele>1.5800000</ele>
        <time>2010-12-04T00:44:20Z</time>
      </trkpt>
      <trkpt lat="59.2738990" lon="17.1268540">
        <ele>0.1400000</ele>
        <time>2010-12-04T00:44:36Z</time>
      </trkpt>
      <trkpt lat="59.2744900" lon="17.1253280">
        <ele>0.6200000</ele>
        <time>2010-12-04T00:44:52Z</time>
      </trkpt>
      <trkpt lat="59.2750890" lon="17.1238020">
        <ele>2.0600000</ele>
        <time>2010-12-04T00:45:09Z</time>
      </trkpt>
      <trkpt lat="59.2756120" lon="17.1225340">
        <ele>3.5000000</ele>
        <time>2010-12-04T00:45:24Z</time>
      </trkpt>
      <trkpt lat="59.2762950" lon="17.1209870">
        <ele>4.9400000</ele>
        <time>2010-12-04T00:45:43Z</time>
      </trkpt>
      <trkpt lat="59.2769430" lon="17.1196140">
        <ele>6.8700000</ele>
        <time>2010-12-04T00:46:01Z</time>
      </trkpt>
      <trkpt lat="59.2774160" lon="17.1186520">
        <ele>7.8300000</ele>
        <time>2010-12-04T00:46:14Z</time>
      </trkpt>
      <trkpt lat="59.2779770" lon="17.1175690">
        <ele>8.7900000</ele>
        <time>2010-12-04T00:46:29Z</time>
      </trkpt>
      <trkpt lat="59.2785680" lon="17.1165280">
        <ele>10.2300000</ele>
        <time>2010-12-04T00:46:44Z</time>
      </trkpt>
      <trkpt lat="59.2791710" lon="17.1154940">
        <ele>10.2300000</ele>
        <time>2010-12-04T00:46:59Z</time>
      </trkpt>
      <trkpt lat="59.2798160" lon="17.1144100">
        <ele>10.2300000</ele>
        <time>2010-12-04T00:47:14Z</time>
      </trkpt>
      <trkpt lat="59.2805210" lon="17.1132320">
        <ele>10.2300000</ele>
        <time>2010-12-04T00:47:30Z</time>
      </trkpt>
      <trkpt lat="59.2811510" lon="17.1122420">
        <ele>10.2300000</ele>
        <time>2010-12-04T00:47:44Z</time>
      </trkpt>
      <trkpt lat="59.2818070" lon="17.1113550">
        <ele>9.7500000</ele>
        <time>2010-12-04T00:47:58Z</time>
      </trkpt>
      <trkpt lat="59.2824940" lon="17.1105920">
        <ele>9.2700000</ele>
        <time>2010-12-04T00:48:12Z</time>
      </trkpt>
      <trkpt lat="59.2830350" lon="17.1102850">
        <ele>10.2300000</ele>
        <time>2010-12-04T00:48:22Z</time>
      </trkpt>
      <trkpt lat="59.2834320" lon="17.1104220">
        <ele>15.0400000</ele>
        <time>2010-12-04T00:48:29Z</time>
      </trkpt>
      <trkpt lat="59.2834820" lon="17.1104680">
        <ele>10.7100000</ele>
        <time>2010-12-04T00:48:30Z</time>
      </trkpt>
      <trkpt lat="59.2836690" lon="17.1106890">
        <ele>10.7100000</ele>
        <time>2010-12-04T00:48:34Z</time>
      </trkpt>
      <trkpt lat="59.2837100" lon="17.1107600">
        <ele>10.2300000</ele>
        <time>2010-12-04T00:48:35Z</time>
      </trkpt>
      <trkpt lat="59.2837490" lon="17.1108340">
        <ele>10.2300000</ele>
        <time>2010-12-04T00:48:36Z</time>
      </trkpt>
      <trkpt lat="59.2840230" lon="17.1116580">
        <ele>10.7100000</ele>
        <time>2010-12-04T00:48:47Z</time>
      </trkpt>
      <trkpt lat="59.2841530" lon="17.1117970">
        <ele>10.7100000</ele>
        <time>2010-12-04T00:48:51Z</time>
      </trkpt>
      <trkpt lat="59.2841950" lon="17.1118030">
        <ele>10.2300000</ele>
        <time>2010-12-04T00:48:52Z</time>
      </trkpt>
      <trkpt lat="59.2842370" lon="17.1118010">
        <ele>10.2300000</ele>
        <time>2010-12-04T00:48:53Z</time>
      </trkpt>
      <trkpt lat="59.2842750" lon="17.1117880">
        <ele>10.2300000</ele>
        <time>2010-12-04T00:48:54Z</time>
      </trkpt>
      <trkpt lat="59.2843170" lon="17.1117610">
        <ele>10.2300000</ele>
        <time>2010-12-04T00:48:55Z</time>
      </trkpt>
      <trkpt lat="59.2843590" lon="17.1117250">
        <ele>9.7500000</ele>
        <time>2010-12-04T00:48:56Z</time>
      </trkpt>
      <trkpt lat="59.2844010" lon="17.1116830">
        <ele>10.2300000</ele>
        <time>2010-12-04T00:48:57Z</time>
      </trkpt>
      <trkpt lat="59.2846150" lon="17.1114410">
        <ele>10.2300000</ele>
        <time>2010-12-04T00:49:02Z</time>
      </trkpt>
      <trkpt lat="59.2853130" lon="17.1106590">
        <ele>10.2300000</ele>
        <time>2010-12-04T00:49:18Z</time>
      </trkpt>
      <trkpt lat="59.2861630" lon="17.1097240">
        <ele>11.6700000</ele>
        <time>2010-12-04T00:49:37Z</time>
      </trkpt>
      <trkpt lat="59.2869380" lon="17.1090970">
        <ele>13.1200000</ele>
        <time>2010-12-04T00:49:53Z</time>
      </trkpt>
      <trkpt lat="59.2875480" lon="17.1087990">
        <ele>15.0400000</ele>
        <time>2010-12-04T00:50:06Z</time>
      </trkpt>
      <trkpt lat="59.2880100" lon="17.1086440">
        <ele>16.9600000</ele>
        <time>2010-12-04T00:50:16Z</time>
      </trkpt>
      <trkpt lat="59.2883640" lon="17.1085590">
        <ele>18.8800000</ele>
        <time>2010-12-04T00:50:25Z</time>
      </trkpt>
      <trkpt lat="59.2888570" lon="17.1084820">
        <ele>21.2900000</ele>
        <time>2010-12-04T00:50:37Z</time>
      </trkpt>
      <trkpt lat="59.2890360" lon="17.1084580">
        <ele>22.2500000</ele>
        <time>2010-12-04T00:50:41Z</time>
      </trkpt>
      <trkpt lat="59.2891730" lon="17.1084310">
        <ele>22.7300000</ele>
        <time>2010-12-04T00:50:44Z</time>
      </trkpt>
      <trkpt lat="59.2892150" lon="17.1084230">
        <ele>23.2100000</ele>
        <time>2010-12-04T00:50:45Z</time>
      </trkpt>
      <trkpt lat="59.2897910" lon="17.1083720">
        <ele>24.6500000</ele>
        <time>2010-12-04T00:50:57Z</time>
      </trkpt>
      <trkpt lat="59.2904700" lon="17.1082710">
        <ele>26.0900000</ele>
        <time>2010-12-04T00:51:10Z</time>
      </trkpt>
      <trkpt lat="59.2911830" lon="17.1081100">
        <ele>25.1300000</ele>
        <time>2010-12-04T00:51:23Z</time>
      </trkpt>
      <trkpt lat="59.2918890" lon="17.1080070">
        <ele>25.1300000</ele>
        <time>2010-12-04T00:51:36Z</time>
      </trkpt>
      <trkpt lat="59.2926410" lon="17.1075950">
        <ele>26.5700000</ele>
        <time>2010-12-04T00:51:49Z</time>
      </trkpt>
      <trkpt lat="59.2932930" lon="17.1069910">
        <ele>27.0500000</ele>
        <time>2010-12-04T00:52:02Z</time>
      </trkpt>
      <trkpt lat="59.2939870" lon="17.1060490">
        <ele>28.9800000</ele>
        <time>2010-12-04T00:52:17Z</time>
      </trkpt>
      <trkpt lat="59.2945330" lon="17.1051430">
        <ele>28.9800000</ele>
        <time>2010-12-04T00:52:29Z</time>
      </trkpt>
      <trkpt lat="59.2951850" lon="17.1039450">
        <ele>29.4600000</ele>
        <time>2010-12-04T00:52:44Z</time>
      </trkpt>
      <trkpt lat="59.2958370" lon="17.1028820">
        <ele>29.9400000</ele>
        <time>2010-12-04T00:52:58Z</time>
      </trkpt>
      <trkpt lat="59.2963560" lon="17.1022190">
        <ele>31.3800000</ele>
        <time>2010-12-04T00:53:09Z</time>
      </trkpt>
      <trkpt lat="59.2970090" lon="17.1015780">
        <ele>32.8200000</ele>
        <time>2010-12-04T00:53:22Z</time>
      </trkpt>
      <trkpt lat="59.2975690" lon="17.1010880">
        <ele>34.2600000</ele>
        <time>2010-12-04T00:53:33Z</time>
      </trkpt>
      <trkpt lat="59.2983280" lon="17.1005020">
        <ele>34.7400000</ele>
        <time>2010-12-04T00:53:47Z</time>
      </trkpt>
      <trkpt lat="59.2992970" lon="17.0997260">
        <ele>32.8200000</ele>
        <time>2010-12-04T00:54:03Z</time>
      </trkpt>
      <trkpt lat="59.3003350" lon="17.0988940">
        <ele>29.9400000</ele>
        <time>2010-12-04T00:54:18Z</time>
      </trkpt>
      <trkpt lat="59.3012160" lon="17.0981920">
        <ele>27.0500000</ele>
        <time>2010-12-04T00:54:30Z</time>
      </trkpt>
      <trkpt lat="59.3017120" lon="17.0978070">
        <ele>23.6900000</ele>
        <time>2010-12-04T00:54:36Z</time>
      </trkpt>
      <trkpt lat="59.3018000" lon="17.0977400">
        <ele>23.6900000</ele>
        <time>2010-12-04T00:54:37Z</time>
      </trkpt>
      <trkpt lat="59.3022270" lon="17.0973910">
        <ele>21.2900000</ele>
        <time>2010-12-04T00:54:42Z</time>
      </trkpt>
      <trkpt lat="59.3032190" lon="17.0965330">
        <ele>21.2900000</ele>
        <time>2010-12-04T00:54:55Z</time>
      </trkpt>
      <trkpt lat="59.3038830" lon="17.0958790">
        <ele>21.2900000</ele>
        <time>2010-12-04T00:55:06Z</time>
      </trkpt>
      <trkpt lat="59.3048250" lon="17.0949080">
        <ele>18.8800000</ele>
        <time>2010-12-04T00:55:21Z</time>
      </trkpt>
      <trkpt lat="59.3056760" lon="17.0940570">
        <ele>19.3600000</ele>
        <time>2010-12-04T00:55:35Z</time>
      </trkpt>
      <trkpt lat="59.3064990" lon="17.0932200">
        <ele>17.9200000</ele>
        <time>2010-12-04T00:55:49Z</time>
      </trkpt>
      <trkpt lat="59.3073040" lon="17.0922130">
        <ele>17.9200000</ele>
        <time>2010-12-04T00:56:03Z</time>
      </trkpt>
      <trkpt lat="59.3077740" lon="17.0913030">
        <ele>19.8400000</ele>
        <time>2010-12-04T00:56:14Z</time>
      </trkpt>
      <trkpt lat="59.3082200" lon="17.0900340">
        <ele>21.7700000</ele>
        <time>2010-12-04T00:56:29Z</time>
      </trkpt>
      <trkpt lat="59.3086430" lon="17.0886670">
        <ele>21.2900000</ele>
        <time>2010-12-04T00:56:43Z</time>
      </trkpt>
      <trkpt lat="59.3091890" lon="17.0871510">
        <ele>18.8800000</ele>
        <time>2010-12-04T00:56:57Z</time>
      </trkpt>
      <trkpt lat="59.3097610" lon="17.0859010">
        <ele>19.3600000</ele>
        <time>2010-12-04T00:57:10Z</time>
      </trkpt>
      <trkpt lat="59.3104710" lon="17.0847090">
        <ele>18.4000000</ele>
        <time>2010-12-04T00:57:24Z</time>
      </trkpt>
      <trkpt lat="59.3115010" lon="17.0834180">
        <ele>16.4800000</ele>
        <time>2010-12-04T00:57:41Z</time>
      </trkpt>
      <trkpt lat="59.3125110" lon="17.0821650">
        <ele>15.0400000</ele>
        <time>2010-12-04T00:57:57Z</time>
      </trkpt>
      <trkpt lat="59.3134270" lon="17.0811230">
        <ele>15.0400000</ele>
        <time>2010-12-04T00:58:12Z</time>
      </trkpt>
      <trkpt lat="59.3142400" lon="17.0804120">
        <ele>15.5200000</ele>
        <time>2010-12-04T00:58:25Z</time>
      </trkpt>
      <trkpt lat="59.3153380" lon="17.0795920">
        <ele>15.0400000</ele>
        <time>2010-12-04T00:58:42Z</time>
      </trkpt>
      <trkpt lat="59.3163220" lon="17.0789110">
        <ele>16.0000000</ele>
        <time>2010-12-04T00:58:58Z</time>
      </trkpt>
      <trkpt lat="59.3170740" lon="17.0783770">
        <ele>16.4800000</ele>
        <time>2010-12-04T00:59:11Z</time>
      </trkpt>
      <trkpt lat="59.3179700" lon="17.0777340">
        <ele>15.5200000</ele>
        <time>2010-12-04T00:59:26Z</time>
      </trkpt>
      <trkpt lat="59.3188740" lon="17.0770950">
        <ele>15.0400000</ele>
        <time>2010-12-04T00:59:41Z</time>
      </trkpt>
      <trkpt lat="59.3194810" lon="17.0766540">
        <ele>15.5200000</ele>
        <time>2010-12-04T00:59:53Z</time>
      </trkpt>
      <trkpt lat="59.3198620" lon="17.0763800">
        <ele>16.0000000</ele>
        <time>2010-12-04T01:00:04Z</time>
      </trkpt>
      <trkpt lat="59.3200530" lon="17.0761530">
        <ele>16.9600000</ele>
        <time>2010-12-04T01:00:13Z</time>
      </trkpt>
      <trkpt lat="59.3203320" lon="17.0760060">
        <ele>16.9600000</ele>
        <time>2010-12-04T01:00:23Z</time>
      </trkpt>
      <trkpt lat="59.3206140" lon="17.0758500">
        <ele>17.4400000</ele>
        <time>2010-12-04T01:00:31Z</time>
      </trkpt>
      <trkpt lat="59.3210260" lon="17.0755620">
        <ele>17.4400000</ele>
        <time>2010-12-04T01:00:41Z</time>
      </trkpt>
      <trkpt lat="59.3217050" lon="17.0750710">
        <ele>17.4400000</ele>
        <time>2010-12-04T01:00:54Z</time>
      </trkpt>
      <trkpt lat="59.3224140" lon="17.0745910">
        <ele>16.9600000</ele>
        <time>2010-12-04T01:01:06Z</time>
      </trkpt>
      <trkpt lat="59.3232800" lon="17.0740050">
        <ele>15.0400000</ele>
        <time>2010-12-04T01:01:20Z</time>
      </trkpt>
      <trkpt lat="59.3241810" lon="17.0733970">
        <ele>13.6000000</ele>
        <time>2010-12-04T01:01:34Z</time>
      </trkpt>
      <trkpt lat="59.3252560" lon="17.0726910">
        <ele>12.6300000</ele>
        <time>2010-12-04T01:01:51Z</time>
      </trkpt>
      <trkpt lat="59.3259010" lon="17.0722790">
        <ele>12.6300000</ele>
        <time>2010-12-04T01:02:02Z</time>
      </trkpt>
      <trkpt lat="59.3266980" lon="17.0717390">
        <ele>10.7100000</ele>
        <time>2010-12-04T01:02:15Z</time>
      </trkpt>
      <trkpt lat="59.3277630" lon="17.0710490">
        <ele>8.3100000</ele>
        <time>2010-12-04T01:02:32Z</time>
      </trkpt>
      <trkpt lat="59.3284870" lon="17.0705600">
        <ele>7.8300000</ele>
        <time>2010-12-04T01:02:44Z</time>
      </trkpt>
      <trkpt lat="59.3293800" lon="17.0699690">
        <ele>7.3500000</ele>
        <time>2010-12-04T01:02:59Z</time>
      </trkpt>
      <trkpt lat="59.3303410" lon="17.0693660">
        <ele>6.3900000</ele>
        <time>2010-12-04T01:03:14Z</time>
      </trkpt>
      <trkpt lat="59.3312150" lon="17.0686800">
        <ele>5.4200000</ele>
        <time>2010-12-04T01:03:28Z</time>
      </trkpt>
      <trkpt lat="59.3320050" lon="17.0679020">
        <ele>5.4200000</ele>
        <time>2010-12-04T01:03:42Z</time>
      </trkpt>
      <trkpt lat="59.3326680" lon="17.0671220">
        <ele>6.3900000</ele>
        <time>2010-12-04T01:03:55Z</time>
      </trkpt>
      <trkpt lat="59.3333630" lon="17.0660780">
        <ele>5.9100000</ele>
        <time>2010-12-04T01:04:10Z</time>
      </trkpt>
      <trkpt lat="59.3339200" lon="17.0652180">
        <ele>6.3900000</ele>
        <time>2010-12-04T01:04:22Z</time>
      </trkpt>
      <trkpt lat="59.3343580" lon="17.0645220">
        <ele>2.0600000</ele>
        <time>2010-12-04T01:04:32Z</time>
      </trkpt>
      <trkpt lat="59.3344000" lon="17.0644550">
        <ele>7.8300000</ele>
        <time>2010-12-04T01:04:33Z</time>
      </trkpt>
      <trkpt lat="59.3349990" lon="17.0635130">
        <ele>8.7900000</ele>
        <time>2010-12-04T01:04:47Z</time>
      </trkpt>
      <trkpt lat="59.3356130" lon="17.0625740">
        <ele>8.7900000</ele>
        <time>2010-12-04T01:05:01Z</time>
      </trkpt>
      <trkpt lat="59.3363230" lon="17.0613060">
        <ele>8.7900000</ele>
        <time>2010-12-04T01:05:18Z</time>
      </trkpt>
      <trkpt lat="59.3368990" lon="17.0602950">
        <ele>9.7500000</ele>
        <time>2010-12-04T01:05:32Z</time>
      </trkpt>
      <trkpt lat="59.3371350" lon="17.0598750">
        <ele>11.6700000</ele>
        <time>2010-12-04T01:05:38Z</time>
      </trkpt>
      <trkpt lat="59.3377910" lon="17.0586930">
        <ele>13.6000000</ele>
        <time>2010-12-04T01:05:56Z</time>
      </trkpt>
      <trkpt lat="59.3383830" lon="17.0574340">
        <ele>13.6000000</ele>
        <time>2010-12-04T01:06:12Z</time>
      </trkpt>
      <trkpt lat="59.3388790" lon="17.0558130">
        <ele>11.6700000</ele>
        <time>2010-12-04T01:06:28Z</time>
      </trkpt>
      <trkpt lat="59.3391720" lon="17.0541190">
        <ele>11.6700000</ele>
        <time>2010-12-04T01:06:43Z</time>
      </trkpt>
      <trkpt lat="59.3392870" lon="17.0532510">
        <ele>12.1500000</ele>
        <time>2010-12-04T01:06:51Z</time>
      </trkpt>
      <trkpt lat="59.3393780" lon="17.0525670">
        <ele>13.6000000</ele>
        <time>2010-12-04T01:06:58Z</time>
      </trkpt>
      <trkpt lat="59.3394810" lon="17.0518490">
        <ele>15.5200000</ele>
        <time>2010-12-04T01:07:06Z</time>
      </trkpt>
      <trkpt lat="59.3395120" lon="17.0515120">
        <ele>16.0000000</ele>
        <time>2010-12-04T01:07:10Z</time>
      </trkpt>
      <trkpt lat="59.3395270" lon="17.0514320">
        <ele>16.0000000</ele>
        <time>2010-12-04T01:07:11Z</time>
      </trkpt>
      <trkpt lat="59.3396220" lon="17.0508730">
        <ele>17.9200000</ele>
        <time>2010-12-04T01:07:18Z</time>
      </trkpt>
      <trkpt lat="59.3396380" lon="17.0507110">
        <ele>17.9200000</ele>
        <time>2010-12-04T01:07:20Z</time>
      </trkpt>
      <trkpt lat="59.3397790" lon="17.0496250">
        <ele>19.8400000</ele>
        <time>2010-12-04T01:07:32Z</time>
      </trkpt>
      <trkpt lat="59.3399280" lon="17.0482330">
        <ele>18.8800000</ele>
        <time>2010-12-04T01:07:45Z</time>
      </trkpt>
      <trkpt lat="59.3400990" lon="17.0462440">
        <ele>16.4800000</ele>
        <time>2010-12-04T01:08:01Z</time>
      </trkpt>
      <trkpt lat="59.3402710" lon="17.0442050">
        <ele>14.5600000</ele>
        <time>2010-12-04T01:08:17Z</time>
      </trkpt>
      <trkpt lat="59.3404390" lon="17.0422860">
        <ele>12.6300000</ele>
        <time>2010-12-04T01:08:32Z</time>
      </trkpt>
      <trkpt lat="59.3407170" lon="17.0402620">
        <ele>10.7100000</ele>
        <time>2010-12-04T01:08:48Z</time>
      </trkpt>
      <trkpt lat="59.3411560" lon="17.0385380">
        <ele>9.2700000</ele>
        <time>2010-12-04T01:09:03Z</time>
      </trkpt>
      <trkpt lat="59.3417890" lon="17.0370410">
        <ele>7.8300000</ele>
        <time>2010-12-04T01:09:18Z</time>
      </trkpt>
      <trkpt lat="59.3425900" lon="17.0358450">
        <ele>6.3900000</ele>
        <time>2010-12-04T01:09:33Z</time>
      </trkpt>
      <trkpt lat="59.3433950" lon="17.0349600">
        <ele>6.8700000</ele>
        <time>2010-12-04T01:09:47Z</time>
      </trkpt>
      <trkpt lat="59.3436780" lon="17.0344180">
        <ele>3.5000000</ele>
        <time>2010-12-04T01:09:53Z</time>
      </trkpt>
      <trkpt lat="59.3437160" lon="17.0343210">
        <ele>7.8300000</ele>
        <time>2010-12-04T01:09:54Z</time>
      </trkpt>
      <trkpt lat="59.3438990" lon="17.0338310">
        <ele>7.3500000</ele>
        <time>2010-12-04T01:09:59Z</time>
      </trkpt>
      <trkpt lat="59.3439410" lon="17.0337510">
        <ele>7.8300000</ele>
        <time>2010-12-04T01:10:00Z</time>
      </trkpt>
      <trkpt lat="59.3439900" lon="17.0336860">
        <ele>8.3100000</ele>
        <time>2010-12-04T01:10:01Z</time>
      </trkpt>
      <trkpt lat="59.3440440" lon="17.0336340">
        <ele>7.3500000</ele>
        <time>2010-12-04T01:10:02Z</time>
      </trkpt>
      <trkpt lat="59.3440970" lon="17.0335920">
        <ele>7.8300000</ele>
        <time>2010-12-04T01:10:03Z</time>
      </trkpt>
      <trkpt lat="59.3441540" lon="17.0335600">
        <ele>7.3500000</ele>
        <time>2010-12-04T01:10:04Z</time>
      </trkpt>
      <trkpt lat="59.3442150" lon="17.0335390">
        <ele>7.8300000</ele>
        <time>2010-12-04T01:10:05Z</time>
      </trkpt>
      <trkpt lat="59.3442760" lon="17.0335270">
        <ele>7.8300000</ele>
        <time>2010-12-04T01:10:06Z</time>
      </trkpt>
      <trkpt lat="59.3443370" lon="17.0335290">
        <ele>7.8300000</ele>
        <time>2010-12-04T01:10:07Z</time>
      </trkpt>
      <trkpt lat="59.3443950" lon="17.0335370">
        <ele>7.8300000</ele>
        <time>2010-12-04T01:10:08Z</time>
      </trkpt>
      <trkpt lat="59.3451920" lon="17.0335810">
        <ele>8.3100000</ele>
        <time>2010-12-04T01:10:21Z</time>
      </trkpt>
      <trkpt lat="59.3459360" lon="17.0331540">
        <ele>8.7900000</ele>
        <time>2010-12-04T01:10:34Z</time>
      </trkpt>
      <trkpt lat="59.3467560" lon="17.0325760">
        <ele>8.7900000</ele>
        <time>2010-12-04T01:10:49Z</time>
      </trkpt>
      <trkpt lat="59.3469090" lon="17.0325360">
        <ele>8.7900000</ele>
        <time>2010-12-04T01:10:52Z</time>
      </trkpt>
      <trkpt lat="59.3470120" lon="17.0325530">
        <ele>8.3100000</ele>
        <time>2010-12-04T01:10:54Z</time>
      </trkpt>
      <trkpt lat="59.3470610" lon="17.0325870">
        <ele>8.7900000</ele>
        <time>2010-12-04T01:10:55Z</time>
      </trkpt>
      <trkpt lat="59.3471110" lon="17.0326310">
        <ele>8.3100000</ele>
        <time>2010-12-04T01:10:56Z</time>
      </trkpt>
      <trkpt lat="59.3472520" lon="17.0328120">
        <ele>8.3100000</ele>
        <time>2010-12-04T01:10:59Z</time>
      </trkpt>
      <trkpt lat="59.3472940" lon="17.0328880">
        <ele>8.3100000</ele>
        <time>2010-12-04T01:11:00Z</time>
      </trkpt>
      <trkpt lat="59.3473320" lon="17.0329740">
        <ele>8.3100000</ele>
        <time>2010-12-04T01:11:01Z</time>
      </trkpt>
      <trkpt lat="59.3473630" lon="17.0330660">
        <ele>8.3100000</ele>
        <time>2010-12-04T01:11:02Z</time>
      </trkpt>
      <trkpt lat="59.3473930" lon="17.0331610">
        <ele>8.3100000</ele>
        <time>2010-12-04T01:11:03Z</time>
      </trkpt>
      <trkpt lat="59.3478740" lon="17.0342270">
        <ele>8.3100000</ele>
        <time>2010-12-04T01:11:15Z</time>
      </trkpt>
      <trkpt lat="59.3481830" lon="17.0344700">
        <ele>6.8700000</ele>
        <time>2010-12-04T01:11:20Z</time>
      </trkpt>
      <trkpt lat="59.3482480" lon="17.0344910">
        <ele>7.3500000</ele>
        <time>2010-12-04T01:11:21Z</time>
      </trkpt>
      <trkpt lat="59.3489760" lon="17.0344050">
        <ele>4.9400000</ele>
        <time>2010-12-04T01:11:32Z</time>
      </trkpt>
      <trkpt lat="59.3499910" lon="17.0340390">
        <ele>2.0600000</ele>
        <time>2010-12-04T01:11:46Z</time>
      </trkpt>
      <trkpt lat="59.3510060" lon="17.0336360">
        <ele>2.0600000</ele>
        <time>2010-12-04T01:12:01Z</time>
      </trkpt>
      <trkpt lat="59.3517270" lon="17.0333820">
        <ele>3.5000000</ele>
        <time>2010-12-04T01:12:13Z</time>
      </trkpt>
      <trkpt lat="59.3526230" lon="17.0330470">
        <ele>3.5000000</ele>
        <time>2010-12-04T01:12:27Z</time>
      </trkpt>
      <trkpt lat="59.3535080" lon="17.0327150">
        <ele>3.9800000</ele>
        <time>2010-12-04T01:12:41Z</time>
      </trkpt>
      <trkpt lat="59.3543620" lon="17.0323790">
        <ele>4.9400000</ele>
        <time>2010-12-04T01:12:56Z</time>
      </trkpt>
      <trkpt lat="59.3550760" lon="17.0322320">
        <ele>6.3900000</ele>
        <time>2010-12-04T01:13:09Z</time>
      </trkpt>
      <trkpt lat="59.3551290" lon="17.0322480">
        <ele>6.3900000</ele>
        <time>2010-12-04T01:13:10Z</time>
      </trkpt>
      <trkpt lat="59.3557170" lon="17.0326330">
        <ele>7.8300000</ele>
        <time>2010-12-04T01:13:21Z</time>
      </trkpt>
      <trkpt lat="59.3564410" lon="17.0330940">
        <ele>4.9400000</ele>
        <time>2010-12-04T01:13:32Z</time>
      </trkpt>
      <trkpt lat="59.3568000" lon="17.0333000">
        <ele>5.9100000</ele>
        <time>2010-12-04T01:13:38Z</time>
      </trkpt>
      <trkpt lat="59.3568570" lon="17.0332970">
        <ele>5.9100000</ele>
        <time>2010-12-04T01:13:39Z</time>
      </trkpt>
      <trkpt lat="59.3569150" lon="17.0332700">
        <ele>6.3900000</ele>
        <time>2010-12-04T01:13:40Z</time>
      </trkpt>
      <trkpt lat="59.3569720" lon="17.0332200">
        <ele>5.9100000</ele>
        <time>2010-12-04T01:13:41Z</time>
      </trkpt>
      <trkpt lat="59.3570210" lon="17.0331540">
        <ele>6.3900000</ele>
        <time>2010-12-04T01:13:42Z</time>
      </trkpt>
      <trkpt lat="59.3570670" lon="17.0330770">
        <ele>5.9100000</ele>
        <time>2010-12-04T01:13:43Z</time>
      </trkpt>
      <trkpt lat="59.3571090" lon="17.0329970">
        <ele>6.3900000</ele>
        <time>2010-12-04T01:13:44Z</time>
      </trkpt>
      <trkpt lat="59.3575130" lon="17.0322150">
        <ele>7.8300000</ele>
        <time>2010-12-04T01:13:55Z</time>
      </trkpt>
      <trkpt lat="59.3580820" lon="17.0312400">
        <ele>8.3100000</ele>
        <time>2010-12-04T01:14:10Z</time>
      </trkpt>
      <trkpt lat="59.3585210" lon="17.0305940">
        <ele>9.7500000</ele>
        <time>2010-12-04T01:14:22Z</time>
      </trkpt>
      <trkpt lat="59.3589630" lon="17.0303690">
        <ele>10.7100000</ele>
        <time>2010-12-04T01:14:33Z</time>
      </trkpt>
      <trkpt lat="59.3590010" lon="17.0304110">
        <ele>10.7100000</ele>
        <time>2010-12-04T01:14:34Z</time>
      </trkpt>
      <trkpt lat="59.3590350" lon="17.0304700">
        <ele>10.2300000</ele>
        <time>2010-12-04T01:14:35Z</time>
      </trkpt>
      <trkpt lat="59.3590620" lon="17.0305480">
        <ele>10.7100000</ele>
        <time>2010-12-04T01:14:36Z</time>
      </trkpt>
      <trkpt lat="59.3590850" lon="17.0306360">
        <ele>10.7100000</ele>
        <time>2010-12-04T01:14:37Z</time>
      </trkpt>
      <trkpt lat="59.3591120" lon="17.0307310">
        <ele>10.7100000</ele>
        <time>2010-12-04T01:14:38Z</time>
      </trkpt>
      <trkpt lat="59.3594780" lon="17.0321100">
        <ele>10.2300000</ele>
        <time>2010-12-04T01:14:51Z</time>
      </trkpt>
      <trkpt lat="59.3598520" lon="17.0333290">
        <ele>11.1900000</ele>
        <time>2010-12-04T01:15:03Z</time>
      </trkpt>
      <trkpt lat="59.3602680" lon="17.0347120">
        <ele>12.6300000</ele>
        <time>2010-12-04T01:15:17Z</time>
      </trkpt>
      <trkpt lat="59.3607940" lon="17.0358980">
        <ele>13.1200000</ele>
        <time>2010-12-04T01:15:30Z</time>
      </trkpt>
      <trkpt lat="59.3613200" lon="17.0370310">
        <ele>13.1200000</ele>
        <time>2010-12-04T01:15:43Z</time>
      </trkpt>
      <trkpt lat="59.3616030" lon="17.0375210">
        <ele>13.1200000</ele>
        <time>2010-12-04T01:15:49Z</time>
      </trkpt>
      <trkpt lat="59.3616640" lon="17.0375800">
        <ele>12.6300000</ele>
        <time>2010-12-04T01:15:50Z</time>
      </trkpt>
      <trkpt lat="59.3617250" lon="17.0376340">
        <ele>12.6300000</ele>
        <time>2010-12-04T01:15:51Z</time>
      </trkpt>
      <trkpt lat="59.3624530" lon="17.0380310">
        <ele>11.6700000</ele>
        <time>2010-12-04T01:16:02Z</time>
      </trkpt>
      <trkpt lat="59.3631290" lon="17.0382120">
        <ele>12.6300000</ele>
        <time>2010-12-04T01:16:13Z</time>
      </trkpt>
      <trkpt lat="59.3639340" lon="17.0381030">
        <ele>13.1200000</ele>
        <time>2010-12-04T01:16:26Z</time>
      </trkpt>
      <trkpt lat="59.3647880" lon="17.0378550">
        <ele>15.0400000</ele>
        <time>2010-12-04T01:16:40Z</time>
      </trkpt>
      <trkpt lat="59.3656810" lon="17.0374390">
        <ele>12.6300000</ele>
        <time>2010-12-04T01:16:54Z</time>
      </trkpt>
      <trkpt lat="59.3657530" lon="17.0374010">
        <ele>12.6300000</ele>
        <time>2010-12-04T01:16:55Z</time>
      </trkpt>
      <trkpt lat="59.3661770" lon="17.0373210">
        <ele>9.2700000</ele>
        <time>2010-12-04T01:17:00Z</time>
      </trkpt>
      <trkpt lat="59.3666460" lon="17.0374620">
        <ele>5.9100000</ele>
        <time>2010-12-04T01:17:05Z</time>
      </trkpt>
      <trkpt lat="59.3670620" lon="17.0374680">
        <ele>9.2700000</ele>
        <time>2010-12-04T01:17:10Z</time>
      </trkpt>
      <trkpt lat="59.3671300" lon="17.0374430">
        <ele>8.3100000</ele>
        <time>2010-12-04T01:17:11Z</time>
      </trkpt>
      <trkpt lat="59.3678890" lon="17.0369260">
        <ele>7.8300000</ele>
        <time>2010-12-04T01:17:22Z</time>
      </trkpt>
      <trkpt lat="59.3684460" lon="17.0360950">
        <ele>6.8700000</ele>
        <time>2010-12-04T01:17:32Z</time>
      </trkpt>
      <trkpt lat="59.3690070" lon="17.0350720">
        <ele>5.9100000</ele>
        <time>2010-12-04T01:17:43Z</time>
      </trkpt>
      <trkpt lat="59.3695790" lon="17.0340610">
        <ele>6.8700000</ele>
        <time>2010-12-04T01:17:55Z</time>
      </trkpt>
      <trkpt lat="59.3697740" lon="17.0337370">
        <ele>8.3100000</ele>
        <time>2010-12-04T01:18:00Z</time>
      </trkpt>
      <trkpt lat="59.3699870" lon="17.0334450">
        <ele>8.7900000</ele>
        <time>2010-12-04T01:18:05Z</time>
      </trkpt>
      <trkpt lat="59.3701130" lon="17.0333330">
        <ele>9.7500000</ele>
        <time>2010-12-04T01:18:08Z</time>
      </trkpt>
      <trkpt lat="59.3706860" lon="17.0330890">
        <ele>9.2700000</ele>
        <time>2010-12-04T01:18:19Z</time>
      </trkpt>
      <trkpt lat="59.3708500" lon="17.0330300">
        <ele>9.2700000</ele>
        <time>2010-12-04T01:18:22Z</time>
      </trkpt>
      <trkpt lat="59.3709030" lon="17.0330220">
        <ele>9.7500000</ele>
        <time>2010-12-04T01:18:23Z</time>
      </trkpt>
      <trkpt lat="59.3715520" lon="17.0330410">
        <ele>9.7500000</ele>
        <time>2010-12-04T01:18:35Z</time>
      </trkpt>
      <trkpt lat="59.3719860" lon="17.0328960">
        <ele>7.8300000</ele>
        <time>2010-12-04T01:18:42Z</time>
      </trkpt>
      <trkpt lat="59.3728330" lon="17.0325340">
        <ele>5.4200000</ele>
        <time>2010-12-04T01:18:56Z</time>
      </trkpt>
      <trkpt lat="59.3729970" lon="17.0324670">
        <ele>4.4600000</ele>
        <time>2010-12-04T01:18:59Z</time>
      </trkpt>
      <trkpt lat="59.3731690" lon="17.0323120">
        <ele>4.9400000</ele>
        <time>2010-12-04T01:19:03Z</time>
      </trkpt>
      <trkpt lat="59.3732380" lon="17.0322190">
        <ele>6.8700000</ele>
        <time>2010-12-04T01:19:05Z</time>
      </trkpt>
      <trkpt lat="59.3735500" lon="17.0316140">
        <ele>5.4200000</ele>
        <time>2010-12-04T01:19:15Z</time>
      </trkpt>
      <trkpt lat="59.3741300" lon="17.0307200">
        <ele>7.8300000</ele>
        <time>2010-12-04T01:19:29Z</time>
      </trkpt>
      <trkpt lat="59.3742710" lon="17.0305000">
        <ele>7.8300000</ele>
        <time>2010-12-04T01:19:33Z</time>
      </trkpt>
      <trkpt lat="59.3748970" lon="17.0295010">
        <ele>9.2700000</ele>
        <time>2010-12-04T01:19:51Z</time>
      </trkpt>
      <trkpt lat="59.3753550" lon="17.0288110">
        <ele>9.2700000</ele>
        <time>2010-12-04T01:20:03Z</time>
      </trkpt>
      <trkpt lat="59.3758050" lon="17.0281050">
        <ele>7.3500000</ele>
        <time>2010-12-04T01:20:15Z</time>
      </trkpt>
      <trkpt lat="59.3760640" lon="17.0276740">
        <ele>7.8300000</ele>
        <time>2010-12-04T01:20:24Z</time>
      </trkpt>
      <trkpt lat="59.3760640" lon="17.0276740">
        <ele>7.8300000</ele>
        <time>2010-12-04T01:20:36Z</time>
      </trkpt>
      <trkpt lat="59.3760640" lon="17.0276740">
        <ele>7.8300000</ele>
        <time>2010-12-04T01:20:48Z</time>
      </trkpt>
      <trkpt lat="59.3760640" lon="17.0276470">
        <ele>7.8300000</ele>
        <time>2010-12-04T01:21:05Z</time>
      </trkpt>
      <trkpt lat="59.3760640" lon="17.0276470">
        <ele>8.3100000</ele>
        <time>2010-12-04T01:21:18Z</time>
      </trkpt>
      <trkpt lat="59.3760640" lon="17.0276470">
        <ele>7.8300000</ele>
        <time>2010-12-04T01:21:33Z</time>
      </trkpt>
      <trkpt lat="59.3760640" lon="17.0276470">
        <ele>7.8300000</ele>
        <time>2010-12-04T01:21:46Z</time>
      </trkpt>
      <trkpt lat="59.3760640" lon="17.0276470">
        <ele>3.5000000</ele>
        <time>2010-12-04T01:21:54Z</time>
      </trkpt>
      <trkpt lat="59.3760640" lon="17.0276470">
        <ele>9.2700000</ele>
        <time>2010-12-04T01:21:55Z</time>
      </trkpt>
      <trkpt lat="59.3760640" lon="17.0276470">
        <ele>-2.7500000</ele>
        <time>2010-12-04T01:21:56Z</time>
      </trkpt>
      <trkpt lat="59.3760640" lon="17.0276470">
        <ele>12.6300000</ele>
        <time>2010-12-04T01:21:57Z</time>
      </trkpt>
      <trkpt lat="59.3760640" lon="17.0276470">
        <ele>7.8300000</ele>
        <time>2010-12-04T01:21:59Z</time>
      </trkpt>
      <trkpt lat="59.3760640" lon="17.0276470">
        <ele>8.7900000</ele>
        <time>2010-12-04T01:22:00Z</time>
      </trkpt>
      <trkpt lat="59.3760640" lon="17.0276470">
        <ele>4.9400000</ele>
        <time>2010-12-04T01:22:07Z</time>
      </trkpt>
      <trkpt lat="59.3760640" lon="17.0276490">
        <ele>7.3500000</ele>
        <time>2010-12-04T01:22:08Z</time>
      </trkpt>
      <trkpt lat="59.3762700" lon="17.0278760">
        <ele>-19.5700000</ele>
        <time>2010-12-04T01:43:33Z</time>
      </trkpt>
      <trkpt lat="59.3762820" lon="17.0278050">
        <ele>-21.0100000</ele>
        <time>2010-12-04T01:43:35Z</time>
      </trkpt>
      <trkpt lat="59.3763890" lon="17.0275500">
        <ele>-23.4100000</ele>
        <time>2010-12-04T01:43:41Z</time>
      </trkpt>
      <trkpt lat="59.3764420" lon="17.0271220">
        <ele>-23.4100000</ele>
        <time>2010-12-04T01:43:48Z</time>
      </trkpt>
      <trkpt lat="59.3764500" lon="17.0266910">
        <ele>-20.0500000</ele>
        <time>2010-12-04T01:43:55Z</time>
      </trkpt>
      <trkpt lat="59.3764340" lon="17.0266320">
        <ele>-19.5700000</ele>
        <time>2010-12-04T01:43:56Z</time>
      </trkpt>
      <trkpt lat="59.3762470" lon="17.0262150">
        <ele>-15.2400000</ele>
        <time>2010-12-04T01:44:03Z</time>
      </trkpt>
      <trkpt lat="59.3760950" lon="17.0258560">
        <ele>-12.3600000</ele>
        <time>2010-12-04T01:44:09Z</time>
      </trkpt>
      <trkpt lat="59.3759310" lon="17.0254500">
        <ele>-8.5100000</ele>
        <time>2010-12-04T01:44:16Z</time>
      </trkpt>
      <trkpt lat="59.3759270" lon="17.0253850">
        <ele>-9.0000000</ele>
        <time>2010-12-04T01:44:17Z</time>
      </trkpt>
      <trkpt lat="59.3761020" lon="17.0249560">
        <ele>-6.5900000</ele>
        <time>2010-12-04T01:44:24Z</time>
      </trkpt>
      <trkpt lat="59.3767130" lon="17.0240750">
        <ele>-3.2300000</ele>
        <time>2010-12-04T01:44:38Z</time>
      </trkpt>
      <trkpt lat="59.3767660" lon="17.0240210">
        <ele>-3.2300000</ele>
        <time>2010-12-04T01:44:39Z</time>
      </trkpt>
      <trkpt lat="59.3773310" lon="17.0236890">
        <ele>-0.8200000</ele>
        <time>2010-12-04T01:44:49Z</time>
      </trkpt>
      <trkpt lat="59.3777120" lon="17.0235290">
        <ele>-1.7900000</ele>
        <time>2010-12-04T01:44:58Z</time>
      </trkpt>
      <trkpt lat="59.3777430" lon="17.0232600">
        <ele>-1.3000000</ele>
        <time>2010-12-04T01:45:03Z</time>
      </trkpt>
      <trkpt lat="59.3777200" lon="17.0232090">
        <ele>-0.8200000</ele>
        <time>2010-12-04T01:45:04Z</time>
      </trkpt>
      <trkpt lat="59.3776970" lon="17.0231530">
        <ele>-0.3400000</ele>
        <time>2010-12-04T01:45:05Z</time>
      </trkpt>
      <trkpt lat="59.3776740" lon="17.0230900">
        <ele>-0.3400000</ele>
        <time>2010-12-04T01:45:06Z</time>
      </trkpt>
      <trkpt lat="59.3776550" lon="17.0230240">
        <ele>-0.3400000</ele>
        <time>2010-12-04T01:45:07Z</time>
      </trkpt>
      <trkpt lat="59.3776360" lon="17.0229570">
        <ele>0.1400000</ele>
        <time>2010-12-04T01:45:08Z</time>
      </trkpt>
      <trkpt lat="59.3775980" lon="17.0228210">
        <ele>0.1400000</ele>
        <time>2010-12-04T01:45:10Z</time>
      </trkpt>
      <trkpt lat="59.3775790" lon="17.0227530">
        <ele>0.6200000</ele>
        <time>2010-12-04T01:45:11Z</time>
      </trkpt>
      <trkpt lat="59.3775600" lon="17.0226820">
        <ele>1.1000000</ele>
        <time>2010-12-04T01:45:12Z</time>
      </trkpt>
      <trkpt lat="59.3775410" lon="17.0226080">
        <ele>0.6200000</ele>
        <time>2010-12-04T01:45:13Z</time>
      </trkpt>
      <trkpt lat="59.3775250" lon="17.0225300">
        <ele>1.1000000</ele>
        <time>2010-12-04T01:45:14Z</time>
      </trkpt>
      <trkpt lat="59.3775140" lon="17.0224570">
        <ele>1.5800000</ele>
        <time>2010-12-04T01:45:15Z</time>
      </trkpt>
      <trkpt lat="59.3775020" lon="17.0223880">
        <ele>1.1000000</ele>
        <time>2010-12-04T01:45:16Z</time>
      </trkpt>
      <trkpt lat="59.3774910" lon="17.0223180">
        <ele>2.0600000</ele>
        <time>2010-12-04T01:45:17Z</time>
      </trkpt>
      <trkpt lat="59.3773880" lon="17.0216940">
        <ele>3.5000000</ele>
        <time>2010-12-04T01:45:26Z</time>
      </trkpt>
      <trkpt lat="59.3772200" lon="17.0206470">
        <ele>5.4200000</ele>
        <time>2010-12-04T01:45:39Z</time>
      </trkpt>
      <trkpt lat="59.3771860" lon="17.0198990">
        <ele>5.4200000</ele>
        <time>2010-12-04T01:45:49Z</time>
      </trkpt>
      <trkpt lat="59.3770680" lon="17.0194930">
        <ele>4.9400000</ele>
        <time>2010-12-04T01:45:56Z</time>
      </trkpt>
      <trkpt lat="59.3769530" lon="17.0191710">
        <ele>6.3900000</ele>
        <time>2010-12-04T01:46:01Z</time>
      </trkpt>
      <trkpt lat="59.3768040" lon="17.0182170">
        <ele>8.7900000</ele>
        <time>2010-12-04T01:46:14Z</time>
      </trkpt>
      <trkpt lat="59.3767550" lon="17.0175420">
        <ele>11.6700000</ele>
        <time>2010-12-04T01:46:24Z</time>
      </trkpt>
      <trkpt lat="59.3767240" lon="17.0166550">
        <ele>13.6000000</ele>
        <time>2010-12-04T01:46:37Z</time>
      </trkpt>
      <trkpt lat="59.3767170" lon="17.0158820">
        <ele>16.9600000</ele>
        <time>2010-12-04T01:46:49Z</time>
      </trkpt>
      <trkpt lat="59.3766750" lon="17.0148050">
        <ele>20.3200000</ele>
        <time>2010-12-04T01:47:06Z</time>
      </trkpt>
      <trkpt lat="59.3766100" lon="17.0136870">
        <ele>22.2500000</ele>
        <time>2010-12-04T01:47:22Z</time>
      </trkpt>
      <trkpt lat="59.3766900" lon="17.0125960">
        <ele>24.1700000</ele>
        <time>2010-12-04T01:47:36Z</time>
      </trkpt>
      <trkpt lat="59.3768230" lon="17.0114540">
        <ele>26.0900000</ele>
        <time>2010-12-04T01:47:50Z</time>
      </trkpt>
      <trkpt lat="59.3769760" lon="17.0102160">
        <ele>27.5300000</ele>
        <time>2010-12-04T01:48:04Z</time>
      </trkpt>
      <trkpt lat="59.3771250" lon="17.0089210">
        <ele>28.0200000</ele>
        <time>2010-12-04T01:48:18Z</time>
      </trkpt>
      <trkpt lat="59.3772740" lon="17.0076240">
        <ele>29.9400000</ele>
        <time>2010-12-04T01:48:33Z</time>
      </trkpt>
      <trkpt lat="59.3772810" lon="17.0075440">
        <ele>30.4200000</ele>
        <time>2010-12-04T01:48:34Z</time>
      </trkpt>
      <trkpt lat="59.3772960" lon="17.0065100">
        <ele>33.3000000</ele>
        <time>2010-12-04T01:48:47Z</time>
      </trkpt>
      <trkpt lat="59.3772390" lon="17.0058840">
        <ele>35.7100000</ele>
        <time>2010-12-04T01:48:56Z</time>
      </trkpt>
      <trkpt lat="59.3770370" lon="17.0049920">
        <ele>37.6300000</ele>
        <time>2010-12-04T01:49:09Z</time>
      </trkpt>
      <trkpt lat="59.3766560" lon="17.0039540">
        <ele>38.5900000</ele>
        <time>2010-12-04T01:49:23Z</time>
      </trkpt>
      <trkpt lat="59.3762320" lon="17.0026610">
        <ele>38.5900000</ele>
        <time>2010-12-04T01:49:38Z</time>
      </trkpt>
      <trkpt lat="59.3759380" lon="17.0011430">
        <ele>38.5900000</ele>
        <time>2010-12-04T01:49:53Z</time>
      </trkpt>
      <trkpt lat="59.3758620" lon="17.0007720">
        <ele>39.0700000</ele>
        <time>2010-12-04T01:49:57Z</time>
      </trkpt>
      <trkpt lat="59.3758510" lon="17.0006730">
        <ele>39.0700000</ele>
        <time>2010-12-04T01:49:58Z</time>
      </trkpt>
      <trkpt lat="59.3758470" lon="17.0005720">
        <ele>38.5900000</ele>
        <time>2010-12-04T01:49:59Z</time>
      </trkpt>
      <trkpt lat="59.3758510" lon="17.0004670">
        <ele>39.0700000</ele>
        <time>2010-12-04T01:50:00Z</time>
      </trkpt>
      <trkpt lat="59.3758620" lon="17.0003600">
        <ele>38.5900000</ele>
        <time>2010-12-04T01:50:01Z</time>
      </trkpt>
      <trkpt lat="59.3758740" lon="17.0002570">
        <ele>38.5900000</ele>
        <time>2010-12-04T01:50:02Z</time>
      </trkpt>
      <trkpt lat="59.3758930" lon="17.0001510">
        <ele>38.5900000</ele>
        <time>2010-12-04T01:50:03Z</time>
      </trkpt>
      <trkpt lat="59.3761980" lon="16.9985920">
        <ele>36.1900000</ele>
        <time>2010-12-04T01:50:16Z</time>
      </trkpt>
      <trkpt lat="59.3764610" lon="16.9967770">
        <ele>33.7800000</ele>
        <time>2010-12-04T01:50:30Z</time>
      </trkpt>
      <trkpt lat="59.3765950" lon="16.9957330">
        <ele>31.8600000</ele>
        <time>2010-12-04T01:50:37Z</time>
      </trkpt>
      <trkpt lat="59.3768270" lon="16.9938930">
        <ele>28.9800000</ele>
        <time>2010-12-04T01:50:49Z</time>
      </trkpt>
      <trkpt lat="59.3769570" lon="16.9928460">
        <ele>26.0900000</ele>
        <time>2010-12-04T01:50:56Z</time>
      </trkpt>
      <trkpt lat="59.3772010" lon="16.9908850">
        <ele>22.7300000</ele>
        <time>2010-12-04T01:51:09Z</time>
      </trkpt>
      <trkpt lat="59.3774680" lon="16.9889410">
        <ele>19.3600000</ele>
        <time>2010-12-04T01:51:22Z</time>
      </trkpt>
      <trkpt lat="59.3774910" lon="16.9887960">
        <ele>18.8800000</ele>
        <time>2010-12-04T01:51:23Z</time>
      </trkpt>
      <trkpt lat="59.3778530" lon="16.9865720">
        <ele>16.4800000</ele>
        <time>2010-12-04T01:51:38Z</time>
      </trkpt>
      <trkpt lat="59.3781010" lon="16.9846460">
        <ele>14.5600000</ele>
        <time>2010-12-04T01:51:51Z</time>
      </trkpt>
      <trkpt lat="59.3782160" lon="16.9831600">
        <ele>11.6700000</ele>
        <time>2010-12-04T01:52:01Z</time>
      </trkpt>
      <trkpt lat="59.3782310" lon="16.9814220">
        <ele>10.7100000</ele>
        <time>2010-12-04T01:52:13Z</time>
      </trkpt>
      <trkpt lat="59.3781590" lon="16.9800720">
        <ele>11.1900000</ele>
        <time>2010-12-04T01:52:23Z</time>
      </trkpt>
      <trkpt lat="59.3780440" lon="16.9788680">
        <ele>12.6300000</ele>
        <time>2010-12-04T01:52:33Z</time>
      </trkpt>
      <trkpt lat="59.3778420" lon="16.9774270">
        <ele>15.0400000</ele>
        <time>2010-12-04T01:52:47Z</time>
      </trkpt>
      <trkpt lat="59.3775330" lon="16.9759290">
        <ele>17.4400000</ele>
        <time>2010-12-04T01:53:03Z</time>
      </trkpt>
      <trkpt lat="59.3772240" lon="16.9746170">
        <ele>19.8400000</ele>
        <time>2010-12-04T01:53:17Z</time>
      </trkpt>
      <trkpt lat="59.3768500" lon="16.9731310">
        <ele>20.8100000</ele>
        <time>2010-12-04T01:53:33Z</time>
      </trkpt>
      <trkpt lat="59.3767320" lon="16.9725910">
        <ele>20.8100000</ele>
        <time>2010-12-04T01:53:39Z</time>
      </trkpt>
      <trkpt lat="59.3767240" lon="16.9724960">
        <ele>21.2900000</ele>
        <time>2010-12-04T01:53:40Z</time>
      </trkpt>
      <trkpt lat="59.3767320" lon="16.9724010">
        <ele>21.2900000</ele>
        <time>2010-12-04T01:53:41Z</time>
      </trkpt>
      <trkpt lat="59.3767400" lon="16.9723070">
        <ele>20.8100000</ele>
        <time>2010-12-04T01:53:42Z</time>
      </trkpt>
      <trkpt lat="59.3767590" lon="16.9722160">
        <ele>20.8100000</ele>
        <time>2010-12-04T01:53:43Z</time>
      </trkpt>
      <trkpt lat="59.3767780" lon="16.9721200">
        <ele>20.8100000</ele>
        <time>2010-12-04T01:53:44Z</time>
      </trkpt>
      <trkpt lat="59.3768350" lon="16.9718060">
        <ele>19.8400000</ele>
        <time>2010-12-04T01:53:47Z</time>
      </trkpt>
      <trkpt lat="59.3768460" lon="16.9716870">
        <ele>19.8400000</ele>
        <time>2010-12-04T01:53:48Z</time>
      </trkpt>
      <trkpt lat="59.3768420" lon="16.9715670">
        <ele>19.3600000</ele>
        <time>2010-12-04T01:53:49Z</time>
      </trkpt>
      <trkpt lat="59.3768310" lon="16.9714490">
        <ele>19.3600000</ele>
        <time>2010-12-04T01:53:50Z</time>
      </trkpt>
      <trkpt lat="59.3768120" lon="16.9713360">
        <ele>19.3600000</ele>
        <time>2010-12-04T01:53:51Z</time>
      </trkpt>
      <trkpt lat="59.3767850" lon="16.9712300">
        <ele>19.3600000</ele>
        <time>2010-12-04T01:53:52Z</time>
      </trkpt>
      <trkpt lat="59.3767590" lon="16.9711250">
        <ele>18.8800000</ele>
        <time>2010-12-04T01:53:53Z</time>
      </trkpt>
      <trkpt lat="59.3764000" lon="16.9696920">
        <ele>17.9200000</ele>
        <time>2010-12-04T01:54:06Z</time>
      </trkpt>
      <trkpt lat="59.3761750" lon="16.9681470">
        <ele>15.0400000</ele>
        <time>2010-12-04T01:54:18Z</time>
      </trkpt>
      <trkpt lat="59.3759770" lon="16.9662820">
        <ele>11.6700000</ele>
        <time>2010-12-04T01:54:32Z</time>
      </trkpt>
      <trkpt lat="59.3757550" lon="16.9642120">
        <ele>8.3100000</ele>
        <time>2010-12-04T01:54:47Z</time>
      </trkpt>
      <trkpt lat="59.3755420" lon="16.9622710">
        <ele>5.4200000</ele>
        <time>2010-12-04T01:55:01Z</time>
      </trkpt>
      <trkpt lat="59.3753130" lon="16.9604820">
        <ele>2.0600000</ele>
        <time>2010-12-04T01:55:14Z</time>
      </trkpt>
      <trkpt lat="59.3750690" lon="16.9589080">
        <ele>-0.8200000</ele>
        <time>2010-12-04T01:55:25Z</time>
      </trkpt>
      <trkpt lat="59.3747100" lon="16.9566750">
        <ele>-3.7100000</ele>
        <time>2010-12-04T01:55:40Z</time>
      </trkpt>
      <trkpt lat="59.3743710" lon="16.9545880">
        <ele>-4.6700000</ele>
        <time>2010-12-04T01:55:55Z</time>
      </trkpt>
      <trkpt lat="59.3740840" lon="16.9527850">
        <ele>-5.1500000</ele>
        <time>2010-12-04T01:56:09Z</time>
      </trkpt>
      <trkpt lat="59.3738900" lon="16.9515720">
        <ele>-4.1900000</ele>
        <time>2010-12-04T01:56:20Z</time>
      </trkpt>
      <trkpt lat="59.3737790" lon="16.9508610">
        <ele>-2.7500000</ele>
        <time>2010-12-04T01:58:58Z</time>
      </trkpt>
      <trkpt lat="59.3736760" lon="16.9502750">
        <ele>-2.7500000</ele>
        <time>2010-12-04T01:59:10Z</time>
      </trkpt>
      <trkpt lat="59.3735580" lon="16.9495770">
        <ele>-1.7900000</ele>
        <time>2010-12-04T01:59:23Z</time>
      </trkpt>
      <trkpt lat="59.3733600" lon="16.9485030">
        <ele>-0.8200000</ele>
        <time>2010-12-04T01:59:36Z</time>
      </trkpt>
      <trkpt lat="59.3730240" lon="16.9470410">
        <ele>0.1400000</ele>
        <time>2010-12-04T01:59:51Z</time>
      </trkpt>
      <trkpt lat="59.3726690" lon="16.9457820">
        <ele>-1.3000000</ele>
        <time>2010-12-04T02:00:03Z</time>
      </trkpt>
      <trkpt lat="59.3721080" lon="16.9442290">
        <ele>-2.2700000</ele>
        <time>2010-12-04T02:00:18Z</time>
      </trkpt>
      <trkpt lat="59.3714330" lon="16.9427430">
        <ele>-4.1900000</ele>
        <time>2010-12-04T02:00:33Z</time>
      </trkpt>
      <trkpt lat="59.3706320" lon="16.9411660">
        <ele>-4.6700000</ele>
        <time>2010-12-04T02:00:50Z</time>
      </trkpt>
      <trkpt lat="59.3699110" lon="16.9395900">
        <ele>-3.2300000</ele>
        <time>2010-12-04T02:01:07Z</time>
      </trkpt>
      <trkpt lat="59.3693390" lon="16.9380420">
        <ele>-2.2700000</ele>
        <time>2010-12-04T02:01:23Z</time>
      </trkpt>
      <trkpt lat="59.3688700" lon="16.9364680">
        <ele>-0.3400000</ele>
        <time>2010-12-04T02:01:40Z</time>
      </trkpt>
      <trkpt lat="59.3686100" lon="16.9352660">
        <ele>2.0600000</ele>
        <time>2010-12-04T02:01:54Z</time>
      </trkpt>
      <trkpt lat="59.3683930" lon="16.9338320">
        <ele>3.5000000</ele>
        <time>2010-12-04T02:02:10Z</time>
      </trkpt>
      <trkpt lat="59.3682060" lon="16.9324890">
        <ele>4.4600000</ele>
        <time>2010-12-04T02:02:24Z</time>
      </trkpt>
      <trkpt lat="59.3680460" lon="16.9313090">
        <ele>4.4600000</ele>
        <time>2010-12-04T02:02:36Z</time>
      </trkpt>
      <trkpt lat="59.3678280" lon="16.9298550">
        <ele>5.9100000</ele>
        <time>2010-12-04T02:02:51Z</time>
      </trkpt>
      <trkpt lat="59.3674890" lon="16.9284500">
        <ele>6.3900000</ele>
        <time>2010-12-04T02:03:06Z</time>
      </trkpt>
      <trkpt lat="59.3670040" lon="16.9270290">
        <ele>3.9800000</ele>
        <time>2010-12-04T02:03:20Z</time>
      </trkpt>
      <trkpt lat="59.3663640" lon="16.9252590">
        <ele>2.0600000</ele>
        <time>2010-12-04T02:03:37Z</time>
      </trkpt>
      <trkpt lat="59.3657610" lon="16.9238090">
        <ele>1.1000000</ele>
        <time>2010-12-04T02:03:52Z</time>
      </trkpt>
      <trkpt lat="59.3652190" lon="16.9225750">
        <ele>0.1400000</ele>
        <time>2010-12-04T02:04:05Z</time>
      </trkpt>
      <trkpt lat="59.3644980" lon="16.9209310">
        <ele>-1.3000000</ele>
        <time>2010-12-04T02:04:22Z</time>
      </trkpt>
      <trkpt lat="59.3639110" lon="16.9194770">
        <ele>-0.8200000</ele>
        <time>2010-12-04T02:04:37Z</time>
      </trkpt>
      <trkpt lat="59.3632770" lon="16.9175280">
        <ele>-0.8200000</ele>
        <time>2010-12-04T02:04:56Z</time>
      </trkpt>
      <trkpt lat="59.3627510" lon="16.9157920">
        <ele>-0.3400000</ele>
        <time>2010-12-04T02:05:13Z</time>
      </trkpt>
      <trkpt lat="59.3624800" lon="16.9148810">
        <ele>1.5800000</ele>
        <time>2010-12-04T02:05:23Z</time>
      </trkpt>
      <trkpt lat="59.3624150" lon="16.9146230">
        <ele>1.5800000</ele>
        <time>2010-12-04T02:05:26Z</time>
      </trkpt>
      <trkpt lat="59.3621940" lon="16.9137340">
        <ele>3.9800000</ele>
        <time>2010-12-04T02:05:36Z</time>
      </trkpt>
      <trkpt lat="59.3619650" lon="16.9126530">
        <ele>6.3900000</ele>
        <time>2010-12-04T02:05:49Z</time>
      </trkpt>
      <trkpt lat="59.3617940" lon="16.9117600">
        <ele>9.7500000</ele>
        <time>2010-12-04T02:06:01Z</time>
      </trkpt>
      <trkpt lat="59.3616450" lon="16.9108720">
        <ele>13.1200000</ele>
        <time>2010-12-04T02:06:14Z</time>
      </trkpt>
      <trkpt lat="59.3614730" lon="16.9099520">
        <ele>15.5200000</ele>
        <time>2010-12-04T02:06:28Z</time>
      </trkpt>
      <trkpt lat="59.3612940" lon="16.9090480">
        <ele>18.8800000</ele>
        <time>2010-12-04T02:06:42Z</time>
      </trkpt>
      <trkpt lat="59.3611340" lon="16.9081690">
        <ele>21.7700000</ele>
        <time>2010-12-04T02:06:56Z</time>
      </trkpt>
      <trkpt lat="59.3609620" lon="16.9073260">
        <ele>23.2100000</ele>
        <time>2010-12-04T02:07:09Z</time>
      </trkpt>
      <trkpt lat="59.3607750" lon="16.9063010">
        <ele>25.1300000</ele>
        <time>2010-12-04T02:07:25Z</time>
      </trkpt>
      <trkpt lat="59.3606530" lon="16.9056150">
        <ele>26.5700000</ele>
        <time>2010-12-04T02:07:35Z</time>
      </trkpt>
      <trkpt lat="59.3604890" lon="16.9047240">
        <ele>27.5300000</ele>
        <time>2010-12-04T02:07:48Z</time>
      </trkpt>
      <trkpt lat="59.3603100" lon="16.9037970">
        <ele>29.4600000</ele>
        <time>2010-12-04T02:08:01Z</time>
      </trkpt>
      <trkpt lat="59.3601420" lon="16.9029920">
        <ele>31.8600000</ele>
        <time>2010-12-04T02:08:13Z</time>
      </trkpt>
      <trkpt lat="59.3598940" lon="16.9019170">
        <ele>32.8200000</ele>
        <time>2010-12-04T02:08:28Z</time>
      </trkpt>
      <trkpt lat="59.3595890" lon="16.9006370">
        <ele>29.9400000</ele>
        <time>2010-12-04T02:08:41Z</time>
      </trkpt>
      <trkpt lat="59.3594360" lon="16.9000020">
        <ele>28.0200000</ele>
        <time>2010-12-04T02:08:46Z</time>
      </trkpt>
      <trkpt lat="59.3592720" lon="16.8992540">
        <ele>25.1300000</ele>
        <time>2010-12-04T02:08:51Z</time>
      </trkpt>
      <trkpt lat="59.3592070" lon="16.8989280">
        <ele>24.1700000</ele>
        <time>2010-12-04T02:08:53Z</time>
      </trkpt>
      <trkpt lat="59.3590740" lon="16.8980580">
        <ele>21.2900000</ele>
        <time>2010-12-04T02:08:58Z</time>
      </trkpt>
      <trkpt lat="59.3590320" lon="16.8976960">
        <ele>19.8400000</ele>
        <time>2010-12-04T02:09:00Z</time>
      </trkpt>
      <trkpt lat="59.3589940" lon="16.8973310">
        <ele>18.8800000</ele>
        <time>2010-12-04T02:09:02Z</time>
      </trkpt>
      <trkpt lat="59.3587910" lon="16.8954010">
        <ele>17.4400000</ele>
        <time>2010-12-04T02:09:14Z</time>
      </trkpt>
      <trkpt lat="59.3586730" lon="16.8942720">
        <ele>19.8400000</ele>
        <time>2010-12-04T02:09:23Z</time>
      </trkpt>
      <trkpt lat="59.3586010" lon="16.8931960">
        <ele>22.7300000</ele>
        <time>2010-12-04T02:09:35Z</time>
      </trkpt>
      <trkpt lat="59.3585780" lon="16.8922250">
        <ele>24.6500000</ele>
        <time>2010-12-04T02:09:46Z</time>
      </trkpt>
      <trkpt lat="59.3586200" lon="16.8909680">
        <ele>23.6900000</ele>
        <time>2010-12-04T02:09:59Z</time>
      </trkpt>
      <trkpt lat="59.3588260" lon="16.8893510">
        <ele>23.2100000</ele>
        <time>2010-12-04T02:10:14Z</time>
      </trkpt>
      <trkpt lat="59.3590350" lon="16.8883910">
        <ele>22.2500000</ele>
        <time>2010-12-04T02:10:23Z</time>
      </trkpt>
      <trkpt lat="59.3590660" lon="16.8882830">
        <ele>21.7700000</ele>
        <time>2010-12-04T02:10:24Z</time>
      </trkpt>
      <trkpt lat="59.3595240" lon="16.8864900">
        <ele>19.3600000</ele>
        <time>2010-12-04T02:10:40Z</time>
      </trkpt>
      <trkpt lat="59.3599620" lon="16.8848400">
        <ele>18.8800000</ele>
        <time>2010-12-04T02:10:55Z</time>
      </trkpt>
      <trkpt lat="59.3604580" lon="16.8832150">
        <ele>16.0000000</ele>
        <time>2010-12-04T02:11:10Z</time>
      </trkpt>
      <trkpt lat="59.3609310" lon="16.8818890">
        <ele>15.0400000</ele>
        <time>2010-12-04T02:11:23Z</time>
      </trkpt>
      <trkpt lat="59.3615150" lon="16.8802450">
        <ele>13.6000000</ele>
        <time>2010-12-04T02:11:39Z</time>
      </trkpt>
      <trkpt lat="59.3620260" lon="16.8788150">
        <ele>11.1900000</ele>
        <time>2010-12-04T02:11:52Z</time>
      </trkpt>
      <trkpt lat="59.3626790" lon="16.8772560">
        <ele>9.7500000</ele>
        <time>2010-12-04T02:12:07Z</time>
      </trkpt>
      <trkpt lat="59.3632350" lon="16.8760600">
        <ele>10.2300000</ele>
        <time>2010-12-04T02:12:20Z</time>
      </trkpt>
      <trkpt lat="59.3636970" lon="16.8751700">
        <ele>10.7100000</ele>
        <time>2010-12-04T02:12:32Z</time>
      </trkpt>
      <trkpt lat="59.3643380" lon="16.8741280">
        <ele>11.1900000</ele>
        <time>2010-12-04T02:12:47Z</time>
      </trkpt>
      <trkpt lat="59.3649060" lon="16.8732850">
        <ele>10.7100000</ele>
        <time>2010-12-04T02:13:00Z</time>
      </trkpt>
      <trkpt lat="59.3649520" lon="16.8732280">
        <ele>11.1900000</ele>
        <time>2010-12-04T02:13:01Z</time>
      </trkpt>
      <trkpt lat="59.3649940" lon="16.8731630">
        <ele>11.1900000</ele>
        <time>2010-12-04T02:13:02Z</time>
      </trkpt>
      <trkpt lat="59.3655590" lon="16.8723510">
        <ele>12.1500000</ele>
        <time>2010-12-04T02:13:15Z</time>
      </trkpt>
      <trkpt lat="59.3660890" lon="16.8715550">
        <ele>12.6300000</ele>
        <time>2010-12-04T02:13:29Z</time>
      </trkpt>
      <trkpt lat="59.3666760" lon="16.8706990">
        <ele>14.5600000</ele>
        <time>2010-12-04T02:13:44Z</time>
      </trkpt>
      <trkpt lat="59.3671650" lon="16.8699740">
        <ele>14.5600000</ele>
        <time>2010-12-04T02:13:56Z</time>
      </trkpt>
      <trkpt lat="59.3678090" lon="16.8690410">
        <ele>13.1200000</ele>
        <time>2010-12-04T02:14:09Z</time>
      </trkpt>
      <trkpt lat="59.3687860" lon="16.8676190">
        <ele>10.2300000</ele>
        <time>2010-12-04T02:14:27Z</time>
      </trkpt>
      <trkpt lat="59.3695600" lon="16.8663880">
        <ele>6.8700000</ele>
        <time>2010-12-04T02:14:41Z</time>
      </trkpt>
      <trkpt lat="59.3696750" lon="16.8661420">
        <ele>5.9100000</ele>
        <time>2010-12-04T02:14:43Z</time>
      </trkpt>
      <trkpt lat="59.3697810" lon="16.8658790">
        <ele>4.4600000</ele>
        <time>2010-12-04T02:14:45Z</time>
      </trkpt>
      <trkpt lat="59.3701020" lon="16.8648930">
        <ele>1.1000000</ele>
        <time>2010-12-04T02:14:52Z</time>
      </trkpt>
      <trkpt lat="59.3702280" lon="16.8644450">
        <ele>-0.8200000</ele>
        <time>2010-12-04T02:14:55Z</time>
      </trkpt>
      <trkpt lat="59.3707660" lon="16.8624650">
        <ele>-2.2700000</ele>
        <time>2010-12-04T02:15:09Z</time>
      </trkpt>
      <trkpt lat="59.3712310" lon="16.8607790">
        <ele>-2.2700000</ele>
        <time>2010-12-04T02:15:22Z</time>
      </trkpt>
      <trkpt lat="59.3716930" lon="16.8590390">
        <ele>-1.3000000</ele>
        <time>2010-12-04T02:15:37Z</time>
      </trkpt>
      <trkpt lat="59.3720130" lon="16.8577690">
        <ele>1.5800000</ele>
        <time>2010-12-04T02:15:50Z</time>
      </trkpt>
      <trkpt lat="59.3720320" lon="16.8576950">
        <ele>2.0600000</ele>
        <time>2010-12-04T02:15:51Z</time>
      </trkpt>
      <trkpt lat="59.3722230" lon="16.8569830">
        <ele>3.9800000</ele>
        <time>2010-12-04T02:16:01Z</time>
      </trkpt>
      <trkpt lat="59.3722610" lon="16.8568360">
        <ele>3.9800000</ele>
        <time>2010-12-04T02:16:03Z</time>
      </trkpt>
      <trkpt lat="59.3722800" lon="16.8567680">
        <ele>4.4600000</ele>
        <time>2010-12-04T02:16:04Z</time>
      </trkpt>
      <trkpt lat="59.3723070" lon="16.8567010">
        <ele>4.9400000</ele>
        <time>2010-12-04T02:16:05Z</time>
      </trkpt>
      <trkpt lat="59.3723260" lon="16.8566300">
        <ele>4.9400000</ele>
        <time>2010-12-04T02:16:06Z</time>
      </trkpt>
      <trkpt lat="59.3723450" lon="16.8565600">
        <ele>4.9400000</ele>
        <time>2010-12-04T02:16:07Z</time>
      </trkpt>
      <trkpt lat="59.3725590" lon="16.8557680">
        <ele>8.3100000</ele>
        <time>2010-12-04T02:16:19Z</time>
      </trkpt>
      <trkpt lat="59.3727760" lon="16.8549080">
        <ele>10.2300000</ele>
        <time>2010-12-04T02:16:32Z</time>
      </trkpt>
      <trkpt lat="59.3729900" lon="16.8541090">
        <ele>10.2300000</ele>
        <time>2010-12-04T02:16:45Z</time>
      </trkpt>
      <trkpt lat="59.3730130" lon="16.8540290">
        <ele>10.2300000</ele>
        <time>2010-12-04T02:16:52Z</time>
      </trkpt>
      <trkpt lat="59.3730130" lon="16.8540290">
        <ele>6.3900000</ele>
        <time>2010-12-04T02:17:09Z</time>
      </trkpt>
      <trkpt lat="59.3730130" lon="16.8540290">
        <ele>11.1900000</ele>
        <time>2010-12-04T02:17:10Z</time>
      </trkpt>
      <trkpt lat="59.3730130" lon="16.8540310">
        <ele>10.7100000</ele>
        <time>2010-12-04T02:17:40Z</time>
      </trkpt>
      <trkpt lat="59.3730130" lon="16.8539520">
        <ele>10.7100000</ele>
        <time>2010-12-04T02:17:51Z</time>
      </trkpt>
      <trkpt lat="59.3730280" lon="16.8539200">
        <ele>10.2300000</ele>
        <time>2010-12-04T02:18:06Z</time>
      </trkpt>
      <trkpt lat="59.3730280" lon="16.8539200">
        <ele>10.7100000</ele>
        <time>2010-12-04T02:18:34Z</time>
      </trkpt>
      <trkpt lat="59.3730890" lon="16.8537240">
        <ele>10.2300000</ele>
        <time>2010-12-04T02:18:44Z</time>
      </trkpt>
      <trkpt lat="59.3732950" lon="16.8529320">
        <ele>8.3100000</ele>
        <time>2010-12-04T02:18:53Z</time>
      </trkpt>
      <trkpt lat="59.3736840" lon="16.8514560">
        <ele>5.9100000</ele>
        <time>2010-12-04T02:19:06Z</time>
      </trkpt>
      <trkpt lat="59.3740200" lon="16.8498820">
        <ele>6.3900000</ele>
        <time>2010-12-04T02:19:20Z</time>
      </trkpt>
      <trkpt lat="59.3742830" lon="16.8482060">
        <ele>6.3900000</ele>
        <time>2010-12-04T02:19:35Z</time>
      </trkpt>
      <trkpt lat="59.3745540" lon="16.8463630">
        <ele>6.8700000</ele>
        <time>2010-12-04T02:19:51Z</time>
      </trkpt>
      <trkpt lat="59.3748280" lon="16.8444000">
        <ele>3.9800000</ele>
        <time>2010-12-04T02:20:06Z</time>
      </trkpt>
      <trkpt lat="59.3749660" lon="16.8434700">
        <ele>1.1000000</ele>
        <time>2010-12-04T02:20:12Z</time>
      </trkpt>
      <trkpt lat="59.3751910" lon="16.8418830">
        <ele>3.0200000</ele>
        <time>2010-12-04T02:20:23Z</time>
      </trkpt>
      <trkpt lat="59.3752820" lon="16.8412400">
        <ele>4.4600000</ele>
        <time>2010-12-04T02:20:29Z</time>
      </trkpt>
      <trkpt lat="59.3753170" lon="16.8410570">
        <ele>5.4200000</ele>
        <time>2010-12-04T02:20:31Z</time>
      </trkpt>
      <trkpt lat="59.3753360" lon="16.8408740">
        <ele>5.4200000</ele>
        <time>2010-12-04T02:20:33Z</time>
      </trkpt>
      <trkpt lat="59.3754500" lon="16.8400190">
        <ele>8.7900000</ele>
        <time>2010-12-04T02:20:43Z</time>
      </trkpt>
      <trkpt lat="59.3754810" lon="16.8397100">
        <ele>9.2700000</ele>
        <time>2010-12-04T02:20:47Z</time>
      </trkpt>
      <trkpt lat="59.3755490" lon="16.8385790">
        <ele>12.6300000</ele>
        <time>2010-12-04T02:21:02Z</time>
      </trkpt>
      <trkpt lat="59.3755000" lon="16.8375590">
        <ele>13.6000000</ele>
        <time>2010-12-04T02:21:15Z</time>
      </trkpt>
      <trkpt lat="59.3753200" lon="16.8364410">
        <ele>12.6300000</ele>
        <time>2010-12-04T02:21:26Z</time>
      </trkpt>
      <trkpt lat="59.3751980" lon="16.8358400">
        <ele>10.2300000</ele>
        <time>2010-12-04T02:21:31Z</time>
      </trkpt>
      <trkpt lat="59.3749200" lon="16.8345780">
        <ele>7.3500000</ele>
        <time>2010-12-04T02:21:41Z</time>
      </trkpt>
      <trkpt lat="59.3744350" lon="16.8333820">
        <ele>5.9100000</ele>
        <time>2010-12-04T02:21:52Z</time>
      </trkpt>
      <trkpt lat="59.3743860" lon="16.8332880">
        <ele>5.4200000</ele>
        <time>2010-12-04T02:21:53Z</time>
      </trkpt>
      <trkpt lat="59.3738440" lon="16.8323460">
        <ele>5.4200000</ele>
        <time>2010-12-04T02:22:04Z</time>
      </trkpt>
      <trkpt lat="59.3737300" lon="16.8321060">
        <ele>6.8700000</ele>
        <time>2010-12-04T02:22:07Z</time>
      </trkpt>
      <trkpt lat="59.3735810" lon="16.8316970">
        <ele>7.8300000</ele>
        <time>2010-12-04T02:22:12Z</time>
      </trkpt>
      <trkpt lat="59.3735620" lon="16.8316150">
        <ele>8.3100000</ele>
        <time>2010-12-04T02:22:13Z</time>
      </trkpt>
      <trkpt lat="59.3735390" lon="16.8315450">
        <ele>7.8300000</ele>
        <time>2010-12-04T02:22:14Z</time>
      </trkpt>
      <trkpt lat="59.3735160" lon="16.8314760">
        <ele>8.3100000</ele>
        <time>2010-12-04T02:22:15Z</time>
      </trkpt>
      <trkpt lat="59.3734970" lon="16.8314000">
        <ele>8.7900000</ele>
        <time>2010-12-04T02:22:16Z</time>
      </trkpt>
      <trkpt lat="59.3734820" lon="16.8313220">
        <ele>8.7900000</ele>
        <time>2010-12-04T02:22:17Z</time>
      </trkpt>
      <trkpt lat="59.3733520" lon="16.8305260">
        <ele>11.6700000</ele>
        <time>2010-12-04T02:22:28Z</time>
      </trkpt>
      <trkpt lat="59.3733180" lon="16.8293420">
        <ele>13.1200000</ele>
        <time>2010-12-04T02:22:42Z</time>
      </trkpt>
      <trkpt lat="59.3734970" lon="16.8280010">
        <ele>13.1200000</ele>
        <time>2010-12-04T02:22:56Z</time>
      </trkpt>
      <trkpt lat="59.3738750" lon="16.8265170">
        <ele>12.1500000</ele>
        <time>2010-12-04T02:23:10Z</time>
      </trkpt>
      <trkpt lat="59.3741070" lon="16.8249950">
        <ele>11.6700000</ele>
        <time>2010-12-04T02:23:23Z</time>
      </trkpt>
      <trkpt lat="59.3741720" lon="16.8236620">
        <ele>14.0800000</ele>
        <time>2010-12-04T02:23:36Z</time>
      </trkpt>
      <trkpt lat="59.3741610" lon="16.8225120">
        <ele>16.0000000</ele>
        <time>2010-12-04T02:23:50Z</time>
      </trkpt>
      <trkpt lat="59.3741230" lon="16.8215480">
        <ele>18.8800000</ele>
        <time>2010-12-04T02:24:03Z</time>
      </trkpt>
      <trkpt lat="59.3740730" lon="16.8206560">
        <ele>21.2900000</ele>
        <time>2010-12-04T02:24:15Z</time>
      </trkpt>
      <trkpt lat="59.3740230" lon="16.8198680">
        <ele>23.6900000</ele>
        <time>2010-12-04T02:24:27Z</time>
      </trkpt>
      <trkpt lat="59.3739810" lon="16.8190000">
        <ele>26.0900000</ele>
        <time>2010-12-04T02:24:40Z</time>
      </trkpt>
      <trkpt lat="59.3739320" lon="16.8181150">
        <ele>29.4600000</ele>
        <time>2010-12-04T02:24:54Z</time>
      </trkpt>
      <trkpt lat="59.3738860" lon="16.8172090">
        <ele>31.8600000</ele>
        <time>2010-12-04T02:25:09Z</time>
      </trkpt>
      <trkpt lat="59.3738710" lon="16.8163530">
        <ele>34.2600000</ele>
        <time>2010-12-04T02:25:23Z</time>
      </trkpt>
      <trkpt lat="59.3738630" lon="16.8152370">
        <ele>35.7100000</ele>
        <time>2010-12-04T02:25:39Z</time>
      </trkpt>
      <trkpt lat="59.3738980" lon="16.8138750">
        <ele>34.7400000</ele>
        <time>2010-12-04T02:25:54Z</time>
      </trkpt>
      <trkpt lat="59.3739470" lon="16.8128200">
        <ele>33.3000000</ele>
        <time>2010-12-04T02:26:06Z</time>
      </trkpt>
      <trkpt lat="59.3740350" lon="16.8112980">
        <ele>30.4200000</ele>
        <time>2010-12-04T02:26:22Z</time>
      </trkpt>
      <trkpt lat="59.3741260" lon="16.8096470">
        <ele>30.9000000</ele>
        <time>2010-12-04T02:26:39Z</time>
      </trkpt>
      <trkpt lat="59.3741950" lon="16.8082160">
        <ele>32.3400000</ele>
        <time>2010-12-04T02:26:54Z</time>
      </trkpt>
      <trkpt lat="59.3742600" lon="16.8069020">
        <ele>31.8600000</ele>
        <time>2010-12-04T02:27:08Z</time>
      </trkpt>
      <trkpt lat="59.3742750" lon="16.8066020">
        <ele>32.3400000</ele>
        <time>2010-12-04T02:27:11Z</time>
      </trkpt>
      <trkpt lat="59.3742790" lon="16.8065030">
        <ele>32.3400000</ele>
        <time>2010-12-04T02:27:12Z</time>
      </trkpt>
      <trkpt lat="59.3742870" lon="16.8064000">
        <ele>31.8600000</ele>
        <time>2010-12-04T02:27:13Z</time>
      </trkpt>
      <trkpt lat="59.3743480" lon="16.8052120">
        <ele>28.9800000</ele>
        <time>2010-12-04T02:27:23Z</time>
      </trkpt>
      <trkpt lat="59.3743970" lon="16.8041610">
        <ele>25.6100000</ele>
        <time>2010-12-04T02:27:30Z</time>
      </trkpt>
      <trkpt lat="59.3744620" lon="16.8028340">
        <ele>22.2500000</ele>
        <time>2010-12-04T02:27:38Z</time>
      </trkpt>
      <trkpt lat="59.3745920" lon="16.8005310">
        <ele>20.3200000</ele>
        <time>2010-12-04T02:27:53Z</time>
      </trkpt>
      <trkpt lat="59.3747480" lon="16.7989960">
        <ele>18.8800000</ele>
        <time>2010-12-04T02:28:05Z</time>
      </trkpt>
      <trkpt lat="59.3749580" lon="16.7978080">
        <ele>19.8400000</ele>
        <time>2010-12-04T02:28:16Z</time>
      </trkpt>
      <trkpt lat="59.3752860" lon="16.7965320">
        <ele>22.7300000</ele>
        <time>2010-12-04T02:28:30Z</time>
      </trkpt>
      <trkpt lat="59.3755650" lon="16.7955880">
        <ele>24.1700000</ele>
        <time>2010-12-04T02:28:42Z</time>
      </trkpt>
      <trkpt lat="59.3759310" lon="16.7944720">
        <ele>23.2100000</ele>
        <time>2010-12-04T02:28:55Z</time>
      </trkpt>
      <trkpt lat="59.3763310" lon="16.7931520">
        <ele>19.8400000</ele>
        <time>2010-12-04T02:29:07Z</time>
      </trkpt>
      <trkpt lat="59.3764650" lon="16.7925360">
        <ele>18.4000000</ele>
        <time>2010-12-04T02:29:12Z</time>
      </trkpt>
      <trkpt lat="59.3766520" lon="16.7910060">
        <ele>16.0000000</ele>
        <time>2010-12-04T02:29:24Z</time>
      </trkpt>
      <trkpt lat="59.3767780" lon="16.7890930">
        <ele>16.0000000</ele>
        <time>2010-12-04T02:29:40Z</time>
      </trkpt>
      <trkpt lat="59.3769070" lon="16.7872120">
        <ele>14.5600000</ele>
        <time>2010-12-04T02:29:56Z</time>
      </trkpt>
      <trkpt lat="59.3770370" lon="16.7853720">
        <ele>14.5600000</ele>
        <time>2010-12-04T02:30:13Z</time>
      </trkpt>
      <trkpt lat="59.3771290" lon="16.7840480">
        <ele>16.4800000</ele>
        <time>2010-12-04T02:30:27Z</time>
      </trkpt>
      <trkpt lat="59.3772430" lon="16.7826000">
        <ele>17.4400000</ele>
        <time>2010-12-04T02:30:43Z</time>
      </trkpt>
      <trkpt lat="59.3774380" lon="16.7813170">
        <ele>19.8400000</ele>
        <time>2010-12-04T02:30:58Z</time>
      </trkpt>
      <trkpt lat="59.3777890" lon="16.7800790">
        <ele>18.8800000</ele>
        <time>2010-12-04T02:31:12Z</time>
      </trkpt>
      <trkpt lat="59.3782840" lon="16.7790050">
        <ele>16.9600000</ele>
        <time>2010-12-04T02:31:24Z</time>
      </trkpt>
      <trkpt lat="59.3788760" lon="16.7782230">
        <ele>13.1200000</ele>
        <time>2010-12-04T02:31:34Z</time>
      </trkpt>
      <trkpt lat="59.3791850" lon="16.7779310">
        <ele>10.7100000</ele>
        <time>2010-12-04T02:31:38Z</time>
      </trkpt>
      <trkpt lat="59.3795970" lon="16.7775860">
        <ele>7.3500000</ele>
        <time>2010-12-04T02:31:43Z</time>
      </trkpt>
      <trkpt lat="59.3797680" lon="16.7774430">
        <ele>6.3900000</ele>
        <time>2010-12-04T02:31:45Z</time>
      </trkpt>
      <trkpt lat="59.3799480" lon="16.7772750">
        <ele>5.4200000</ele>
        <time>2010-12-04T02:31:47Z</time>
      </trkpt>
      <trkpt lat="59.3801190" lon="16.7770810">
        <ele>3.5000000</ele>
        <time>2010-12-04T02:31:49Z</time>
      </trkpt>
      <trkpt lat="59.3808140" lon="16.7759720">
        <ele>0.6200000</ele>
        <time>2010-12-04T02:31:59Z</time>
      </trkpt>
      <trkpt lat="59.3812140" lon="16.7748450">
        <ele>2.5400000</ele>
        <time>2010-12-04T02:32:09Z</time>
      </trkpt>
      <trkpt lat="59.3815570" lon="16.7734580">
        <ele>3.0200000</ele>
        <time>2010-12-04T02:32:22Z</time>
      </trkpt>
      <trkpt lat="59.3819240" lon="16.7719020">
        <ele>4.9400000</ele>
        <time>2010-12-04T02:32:38Z</time>
      </trkpt>
      <trkpt lat="59.3821830" lon="16.7706850">
        <ele>6.8700000</ele>
        <time>2010-12-04T02:32:52Z</time>
      </trkpt>
      <trkpt lat="59.3823780" lon="16.7691520">
        <ele>7.3500000</ele>
        <time>2010-12-04T02:33:08Z</time>
      </trkpt>
      <trkpt lat="59.3824500" lon="16.7676510">
        <ele>4.4600000</ele>
        <time>2010-12-04T02:33:20Z</time>
      </trkpt>
      <trkpt lat="59.3824770" lon="16.7664600">
        <ele>1.1000000</ele>
        <time>2010-12-04T02:33:28Z</time>
      </trkpt>
      <trkpt lat="59.3825190" lon="16.7647000">
        <ele>0.6200000</ele>
        <time>2010-12-04T02:33:41Z</time>
      </trkpt>
      <trkpt lat="59.3825530" lon="16.7631990">
        <ele>0.1400000</ele>
        <time>2010-12-04T02:33:54Z</time>
      </trkpt>
      <trkpt lat="59.3826100" lon="16.7613600">
        <ele>1.1000000</ele>
        <time>2010-12-04T02:34:11Z</time>
      </trkpt>
      <trkpt lat="59.3826480" lon="16.7597900">
        <ele>1.5800000</ele>
        <time>2010-12-04T02:34:26Z</time>
      </trkpt>
      <trkpt lat="59.3826940" lon="16.7581440">
        <ele>1.5800000</ele>
        <time>2010-12-04T02:34:41Z</time>
      </trkpt>
      <trkpt lat="59.3827250" lon="16.7565400">
        <ele>2.0600000</ele>
        <time>2010-12-04T02:34:56Z</time>
      </trkpt>
      <trkpt lat="59.3827630" lon="16.7551920">
        <ele>2.5400000</ele>
        <time>2010-12-04T02:35:09Z</time>
      </trkpt>
      <trkpt lat="59.3828010" lon="16.7536740">
        <ele>3.0200000</ele>
        <time>2010-12-04T02:35:24Z</time>
      </trkpt>
      <trkpt lat="59.3828390" lon="16.7521710">
        <ele>3.5000000</ele>
        <time>2010-12-04T02:35:39Z</time>
      </trkpt>
      <trkpt lat="59.3828740" lon="16.7509230">
        <ele>4.4600000</ele>
        <time>2010-12-04T02:35:51Z</time>
      </trkpt>
      <trkpt lat="59.3829120" lon="16.7494110">
        <ele>5.9100000</ele>
        <time>2010-12-04T02:36:06Z</time>
      </trkpt>
      <trkpt lat="59.3829540" lon="16.7478710">
        <ele>6.3900000</ele>
        <time>2010-12-04T02:36:21Z</time>
      </trkpt>
      <trkpt lat="59.3830300" lon="16.7461950">
        <ele>6.8700000</ele>
        <time>2010-12-04T02:36:37Z</time>
      </trkpt>
      <trkpt lat="59.3831710" lon="16.7444710">
        <ele>7.3500000</ele>
        <time>2010-12-04T02:36:53Z</time>
      </trkpt>
      <trkpt lat="59.3833120" lon="16.7429940">
        <ele>7.3500000</ele>
        <time>2010-12-04T02:37:07Z</time>
      </trkpt>
      <trkpt lat="59.3834610" lon="16.7414530">
        <ele>7.8300000</ele>
        <time>2010-12-04T02:37:21Z</time>
      </trkpt>
      <trkpt lat="59.3836400" lon="16.7396720">
        <ele>9.2700000</ele>
        <time>2010-12-04T02:37:37Z</time>
      </trkpt>
      <trkpt lat="59.3838080" lon="16.7379230">
        <ele>8.7900000</ele>
        <time>2010-12-04T02:37:52Z</time>
      </trkpt>
      <trkpt lat="59.3839950" lon="16.7360270">
        <ele>8.3100000</ele>
        <time>2010-12-04T02:38:08Z</time>
      </trkpt>
      <trkpt lat="59.3841780" lon="16.7342340">
        <ele>7.3500000</ele>
        <time>2010-12-04T02:38:23Z</time>
      </trkpt>
      <trkpt lat="59.3843540" lon="16.7324850">
        <ele>6.8700000</ele>
        <time>2010-12-04T02:38:38Z</time>
      </trkpt>
      <trkpt lat="59.3844600" lon="16.7313100">
        <ele>6.3900000</ele>
        <time>2010-12-04T02:38:50Z</time>
      </trkpt>
      <trkpt lat="59.3845940" lon="16.7299330">
        <ele>6.8700000</ele>
        <time>2010-12-04T02:39:04Z</time>
      </trkpt>
      <trkpt lat="59.3847010" lon="16.7287500">
        <ele>6.8700000</ele>
        <time>2010-12-04T02:39:16Z</time>
      </trkpt>
      <trkpt lat="59.3848110" lon="16.7275750">
        <ele>6.8700000</ele>
        <time>2010-12-04T02:39:28Z</time>
      </trkpt>
      <trkpt lat="59.3849490" lon="16.7260970">
        <ele>7.8300000</ele>
        <time>2010-12-04T02:39:44Z</time>
      </trkpt>
      <trkpt lat="59.3850820" lon="16.7246510">
        <ele>8.3100000</ele>
        <time>2010-12-04T02:40:00Z</time>
      </trkpt>
      <trkpt lat="59.3852010" lon="16.7233770">
        <ele>8.3100000</ele>
        <time>2010-12-04T02:40:15Z</time>
      </trkpt>
      <trkpt lat="59.3853230" lon="16.7221030">
        <ele>9.2700000</ele>
        <time>2010-12-04T02:40:30Z</time>
      </trkpt>
      <trkpt lat="59.3854330" lon="16.7208270">
        <ele>9.7500000</ele>
        <time>2010-12-04T02:40:45Z</time>
      </trkpt>
      <trkpt lat="59.3855970" lon="16.7193150">
        <ele>10.2300000</ele>
        <time>2010-12-04T02:41:02Z</time>
      </trkpt>
      <trkpt lat="59.3857230" lon="16.7185000">
        <ele>10.7100000</ele>
        <time>2010-12-04T02:41:11Z</time>
      </trkpt>
      <trkpt lat="59.3860360" lon="16.7170940">
        <ele>11.1900000</ele>
        <time>2010-12-04T02:41:27Z</time>
      </trkpt>
      <trkpt lat="59.3863680" lon="16.7156750">
        <ele>12.1500000</ele>
        <time>2010-12-04T02:41:44Z</time>
      </trkpt>
      <trkpt lat="59.3865850" lon="16.7143840">
        <ele>11.6700000</ele>
        <time>2010-12-04T02:41:58Z</time>
      </trkpt>
      <trkpt lat="59.3867420" lon="16.7128200">
        <ele>9.7500000</ele>
        <time>2010-12-04T02:42:13Z</time>
      </trkpt>
      <trkpt lat="59.3868480" lon="16.7113320">
        <ele>10.7100000</ele>
        <time>2010-12-04T02:42:28Z</time>
      </trkpt>
      <trkpt lat="59.3869250" lon="16.7097470">
        <ele>10.7100000</ele>
        <time>2010-12-04T02:42:44Z</time>
      </trkpt>
      <trkpt lat="59.3868830" lon="16.7084220">
        <ele>11.1900000</ele>
        <time>2010-12-04T02:42:58Z</time>
      </trkpt>
      <trkpt lat="59.3867530" lon="16.7068310">
        <ele>10.2300000</ele>
        <time>2010-12-04T02:43:14Z</time>
      </trkpt>
      <trkpt lat="59.3865970" lon="16.7051280">
        <ele>8.3100000</ele>
        <time>2010-12-04T02:43:30Z</time>
      </trkpt>
      <trkpt lat="59.3864630" lon="16.7036460">
        <ele>7.8300000</ele>
        <time>2010-12-04T02:43:44Z</time>
      </trkpt>
      <trkpt lat="59.3863220" lon="16.7021240">
        <ele>7.8300000</ele>
        <time>2010-12-04T02:43:59Z</time>
      </trkpt>
      <trkpt lat="59.3862690" lon="16.7016580">
        <ele>8.3100000</ele>
        <time>2010-12-04T02:44:04Z</time>
      </trkpt>
      <trkpt lat="59.3862340" lon="16.7012350">
        <ele>8.3100000</ele>
        <time>2010-12-04T02:44:09Z</time>
      </trkpt>
      <trkpt lat="59.3861270" lon="16.6999970">
        <ele>8.3100000</ele>
        <time>2010-12-04T02:44:22Z</time>
      </trkpt>
      <trkpt lat="59.3859900" lon="16.6984690">
        <ele>8.7900000</ele>
        <time>2010-12-04T02:44:37Z</time>
      </trkpt>
      <trkpt lat="59.3858530" lon="16.6968610">
        <ele>9.2700000</ele>
        <time>2010-12-04T02:44:54Z</time>
      </trkpt>
      <trkpt lat="59.3857270" lon="16.6954480">
        <ele>9.7500000</ele>
        <time>2010-12-04T02:45:09Z</time>
      </trkpt>
      <trkpt lat="59.3856010" lon="16.6941550">
        <ele>10.2300000</ele>
        <time>2010-12-04T02:45:23Z</time>
      </trkpt>
      <trkpt lat="59.3854870" lon="16.6928730">
        <ele>10.2300000</ele>
        <time>2010-12-04T02:45:37Z</time>
      </trkpt>
      <trkpt lat="59.3853840" lon="16.6917190">
        <ele>11.1900000</ele>
        <time>2010-12-04T02:45:50Z</time>
      </trkpt>
      <trkpt lat="59.3852730" lon="16.6905940">
        <ele>12.1500000</ele>
        <time>2010-12-04T02:46:03Z</time>
      </trkpt>
      <trkpt lat="59.3851700" lon="16.6897980">
        <ele>12.6300000</ele>
        <time>2010-12-04T02:46:13Z</time>
      </trkpt>
      <trkpt lat="59.3850170" lon="16.6888180">
        <ele>13.6000000</ele>
        <time>2010-12-04T02:46:25Z</time>
      </trkpt>
      <trkpt lat="59.3848190" lon="16.6875740">
        <ele>13.1200000</ele>
        <time>2010-12-04T02:46:40Z</time>
      </trkpt>
      <trkpt lat="59.3846050" lon="16.6863270">
        <ele>12.1500000</ele>
        <time>2010-12-04T02:46:53Z</time>
      </trkpt>
      <trkpt lat="59.3844070" lon="16.6852070">
        <ele>12.1500000</ele>
        <time>2010-12-04T02:47:05Z</time>
      </trkpt>
      <trkpt lat="59.3841860" lon="16.6839140">
        <ele>12.1500000</ele>
        <time>2010-12-04T02:47:19Z</time>
      </trkpt>
      <trkpt lat="59.3839650" lon="16.6826270">
        <ele>12.6300000</ele>
        <time>2010-12-04T02:47:33Z</time>
      </trkpt>
      <trkpt lat="59.3837430" lon="16.6813850">
        <ele>13.6000000</ele>
        <time>2010-12-04T02:47:48Z</time>
      </trkpt>
      <trkpt lat="59.3835450" lon="16.6803720">
        <ele>15.5200000</ele>
        <time>2010-12-04T02:48:01Z</time>
      </trkpt>
      <trkpt lat="59.3832740" lon="16.6790220">
        <ele>15.5200000</ele>
        <time>2010-12-04T02:48:17Z</time>
      </trkpt>
      <trkpt lat="59.3830070" lon="16.6776710">
        <ele>15.5200000</ele>
        <time>2010-12-04T02:48:31Z</time>
      </trkpt>
      <trkpt lat="59.3827900" lon="16.6766870">
        <ele>17.4400000</ele>
        <time>2010-12-04T02:48:44Z</time>
      </trkpt>
      <trkpt lat="59.3825950" lon="16.6758790">
        <ele>19.8400000</ele>
        <time>2010-12-04T02:48:57Z</time>
      </trkpt>
      <trkpt lat="59.3825040" lon="16.6752450">
        <ele>21.2900000</ele>
        <time>2010-12-04T02:49:07Z</time>
      </trkpt>
      <trkpt lat="59.3824420" lon="16.6744770">
        <ele>24.1700000</ele>
        <time>2010-12-04T02:49:19Z</time>
      </trkpt>
      <trkpt lat="59.3824770" lon="16.6735570">
        <ele>27.0500000</ele>
        <time>2010-12-04T02:49:33Z</time>
      </trkpt>
      <trkpt lat="59.3825530" lon="16.6728970">
        <ele>27.5300000</ele>
        <time>2010-12-04T02:49:45Z</time>
      </trkpt>
      <trkpt lat="59.3825610" lon="16.6728380">
        <ele>27.5300000</ele>
        <time>2010-12-04T02:49:54Z</time>
      </trkpt>
      <trkpt lat="59.3825650" lon="16.6728130">
        <ele>27.5300000</ele>
        <time>2010-12-04T02:50:17Z</time>
      </trkpt>
      <trkpt lat="59.3825760" lon="16.6727070">
        <ele>27.5300000</ele>
        <time>2010-12-04T02:50:30Z</time>
      </trkpt>
      <trkpt lat="59.3825760" lon="16.6727070">
        <ele>28.0200000</ele>
        <time>2010-12-04T02:50:55Z</time>
      </trkpt>
      <trkpt lat="59.3825760" lon="16.6727090">
        <ele>28.0200000</ele>
        <time>2010-12-04T02:51:21Z</time>
      </trkpt>
      <trkpt lat="59.3825760" lon="16.6727090">
        <ele>28.0200000</ele>
        <time>2010-12-04T02:51:35Z</time>
      </trkpt>
      <trkpt lat="59.3825760" lon="16.6727090">
        <ele>27.5300000</ele>
        <time>2010-12-04T02:52:05Z</time>
      </trkpt>
      <trkpt lat="59.3825760" lon="16.6727070">
        <ele>28.5000000</ele>
        <time>2010-12-04T02:52:29Z</time>
      </trkpt>
      <trkpt lat="59.3825760" lon="16.6727070">
        <ele>28.5000000</ele>
        <time>2010-12-04T02:52:54Z</time>
      </trkpt>
      <trkpt lat="59.3825760" lon="16.6727070">
        <ele>28.5000000</ele>
        <time>2010-12-04T02:53:19Z</time>
      </trkpt>
      <trkpt lat="59.3825760" lon="16.6727070">
        <ele>28.5000000</ele>
        <time>2010-12-04T02:53:43Z</time>
      </trkpt>
      <trkpt lat="59.3825760" lon="16.6727070">
        <ele>28.5000000</ele>
        <time>2010-12-04T02:54:04Z</time>
      </trkpt>
      <trkpt lat="59.3825800" lon="16.6726820">
        <ele>28.5000000</ele>
        <time>2010-12-04T02:54:15Z</time>
      </trkpt>
      <trkpt lat="59.3825800" lon="16.6726820">
        <ele>28.5000000</ele>
        <time>2010-12-04T02:54:36Z</time>
      </trkpt>
      <trkpt lat="59.3825800" lon="16.6726820">
        <ele>28.5000000</ele>
        <time>2010-12-04T02:55:06Z</time>
      </trkpt>
      <trkpt lat="59.3826180" lon="16.6724890">
        <ele>28.9800000</ele>
        <time>2010-12-04T02:55:17Z</time>
      </trkpt>
      <trkpt lat="59.3827510" lon="16.6718640">
        <ele>28.0200000</ele>
        <time>2010-12-04T02:55:27Z</time>
      </trkpt>
      <trkpt lat="59.3830260" lon="16.6707880">
        <ele>25.1300000</ele>
        <time>2010-12-04T02:55:38Z</time>
      </trkpt>
      <trkpt lat="59.3833080" lon="16.6697440">
        <ele>22.2500000</ele>
        <time>2010-12-04T02:55:47Z</time>
      </trkpt>
      <trkpt lat="59.3837430" lon="16.6681880">
        <ele>21.2900000</ele>
        <time>2010-12-04T02:56:01Z</time>
      </trkpt>
      <trkpt lat="59.3840640" lon="16.6668680">
        <ele>23.2100000</ele>
        <time>2010-12-04T02:56:15Z</time>
      </trkpt>
      <trkpt lat="59.3842930" lon="16.6656530">
        <ele>23.2100000</ele>
        <time>2010-12-04T02:56:28Z</time>
      </trkpt>
      <trkpt lat="59.3845330" lon="16.6643700">
        <ele>22.7300000</ele>
        <time>2010-12-04T02:56:40Z</time>
      </trkpt>
      <trkpt lat="59.3848150" lon="16.6628300">
        <ele>20.3200000</ele>
        <time>2010-12-04T02:56:53Z</time>
      </trkpt>
      <trkpt lat="59.3851130" lon="16.6611440">
        <ele>20.3200000</ele>
        <time>2010-12-04T02:57:08Z</time>
      </trkpt>
      <trkpt lat="59.3853800" lon="16.6597210">
        <ele>21.2900000</ele>
        <time>2010-12-04T02:57:22Z</time>
      </trkpt>
      <trkpt lat="59.3856350" lon="16.6583230">
        <ele>22.2500000</ele>
        <time>2010-12-04T02:57:37Z</time>
      </trkpt>
      <trkpt lat="59.3859330" lon="16.6566850">
        <ele>22.2500000</ele>
        <time>2010-12-04T02:57:54Z</time>
      </trkpt>
      <trkpt lat="59.3861350" lon="16.6556150">
        <ele>21.7700000</ele>
        <time>2010-12-04T02:58:05Z</time>
      </trkpt>
      <trkpt lat="59.3863600" lon="16.6543640">
        <ele>22.2500000</ele>
        <time>2010-12-04T02:58:18Z</time>
      </trkpt>
      <trkpt lat="59.3866350" lon="16.6531070">
        <ele>21.2900000</ele>
        <time>2010-12-04T02:58:30Z</time>
      </trkpt>
      <trkpt lat="59.3870470" lon="16.6516250">
        <ele>18.8800000</ele>
        <time>2010-12-04T02:58:43Z</time>
      </trkpt>
      <trkpt lat="59.3876420" lon="16.6497020">
        <ele>16.0000000</ele>
        <time>2010-12-04T02:58:59Z</time>
      </trkpt>
      <trkpt lat="59.3881530" lon="16.6480670">
        <ele>13.6000000</ele>
        <time>2010-12-04T02:59:13Z</time>
      </trkpt>
      <trkpt lat="59.3885420" lon="16.6465640">
        <ele>12.6300000</ele>
        <time>2010-12-04T02:59:27Z</time>
      </trkpt>
      <trkpt lat="59.3887670" lon="16.6452010">
        <ele>12.6300000</ele>
        <time>2010-12-04T02:59:40Z</time>
      </trkpt>
      <trkpt lat="59.3889730" lon="16.6438640">
        <ele>12.1500000</ele>
        <time>2010-12-04T02:59:53Z</time>
      </trkpt>
      <trkpt lat="59.3892060" lon="16.6422460">
        <ele>12.1500000</ele>
        <time>2010-12-04T03:00:09Z</time>
      </trkpt>
      <trkpt lat="59.3894080" lon="16.6408250">
        <ele>12.6300000</ele>
        <time>2010-12-04T03:00:23Z</time>
      </trkpt>
      <trkpt lat="59.3896370" lon="16.6392590">
        <ele>12.1500000</ele>
        <time>2010-12-04T03:00:38Z</time>
      </trkpt>
      <trkpt lat="59.3898390" lon="16.6379130">
        <ele>12.1500000</ele>
        <time>2010-12-04T03:00:51Z</time>
      </trkpt>
      <trkpt lat="59.3899990" lon="16.6362950">
        <ele>12.1500000</ele>
        <time>2010-12-04T03:01:06Z</time>
      </trkpt>
      <trkpt lat="59.3900340" lon="16.6347660">
        <ele>12.6300000</ele>
        <time>2010-12-04T03:01:21Z</time>
      </trkpt>
      <trkpt lat="59.3899570" lon="16.6333500">
        <ele>14.0800000</ele>
        <time>2010-12-04T03:01:36Z</time>
      </trkpt>
      <trkpt lat="59.3899540" lon="16.6332590">
        <ele>13.6000000</ele>
        <time>2010-12-04T03:01:37Z</time>
      </trkpt>
      <trkpt lat="59.3897780" lon="16.6319220">
        <ele>15.0400000</ele>
        <time>2010-12-04T03:01:52Z</time>
      </trkpt>
      <trkpt lat="59.3895230" lon="16.6306420">
        <ele>16.0000000</ele>
        <time>2010-12-04T03:02:07Z</time>
      </trkpt>
      <trkpt lat="59.3892020" lon="16.6294190">
        <ele>17.4400000</ele>
        <time>2010-12-04T03:02:22Z</time>
      </trkpt>
      <trkpt lat="59.3887440" lon="16.6281550">
        <ele>19.3600000</ele>
        <time>2010-12-04T03:02:39Z</time>
      </trkpt>
      <trkpt lat="59.3883710" lon="16.6273670">
        <ele>19.8400000</ele>
        <time>2010-12-04T03:02:51Z</time>
      </trkpt>
      <trkpt lat="59.3878820" lon="16.6264930">
        <ele>20.3200000</ele>
        <time>2010-12-04T03:03:05Z</time>
      </trkpt>
      <trkpt lat="59.3874050" lon="16.6256280">
        <ele>21.2900000</ele>
        <time>2010-12-04T03:03:19Z</time>
      </trkpt>
      <trkpt lat="59.3868980" lon="16.6246950">
        <ele>21.2900000</ele>
        <time>2010-12-04T03:03:34Z</time>
      </trkpt>
      <trkpt lat="59.3864440" lon="16.6238570">
        <ele>21.7700000</ele>
        <time>2010-12-04T03:03:47Z</time>
      </trkpt>
      <trkpt lat="59.3859100" lon="16.6228730">
        <ele>21.7700000</ele>
        <time>2010-12-04T03:04:02Z</time>
      </trkpt>
      <trkpt lat="59.3854870" lon="16.6220870">
        <ele>21.7700000</ele>
        <time>2010-12-04T03:04:14Z</time>
      </trkpt>
      <trkpt lat="59.3849680" lon="16.6210500">
        <ele>20.8100000</ele>
        <time>2010-12-04T03:04:28Z</time>
      </trkpt>
      <trkpt lat="59.3846400" lon="16.6202660">
        <ele>21.2900000</ele>
        <time>2010-12-04T03:04:38Z</time>
      </trkpt>
      <trkpt lat="59.3843570" lon="16.6192800">
        <ele>23.2100000</ele>
        <time>2010-12-04T03:04:52Z</time>
      </trkpt>
      <trkpt lat="59.3841630" lon="16.6184940">
        <ele>25.1300000</ele>
        <time>2010-12-04T03:05:05Z</time>
      </trkpt>
      <trkpt lat="59.3840030" lon="16.6178150">
        <ele>26.0900000</ele>
        <time>2010-12-04T03:05:16Z</time>
      </trkpt>
      <trkpt lat="59.3838270" lon="16.6170370">
        <ele>26.5700000</ele>
        <time>2010-12-04T03:05:28Z</time>
      </trkpt>
      <trkpt lat="59.3836250" lon="16.6161420">
        <ele>27.0500000</ele>
        <time>2010-12-04T03:05:40Z</time>
      </trkpt>
      <trkpt lat="59.3833620" lon="16.6150550">
        <ele>26.5700000</ele>
        <time>2010-12-04T03:05:54Z</time>
      </trkpt>
      <trkpt lat="59.3830760" lon="16.6140800">
        <ele>27.0500000</ele>
        <time>2010-12-04T03:06:06Z</time>
      </trkpt>
      <trkpt lat="59.3826180" lon="16.6127400">
        <ele>28.0200000</ele>
        <time>2010-12-04T03:06:23Z</time>
      </trkpt>
      <trkpt lat="59.3822060" lon="16.6116470">
        <ele>28.9800000</ele>
        <time>2010-12-04T03:06:38Z</time>
      </trkpt>
      <trkpt lat="59.3817560" lon="16.6105440">
        <ele>28.9800000</ele>
        <time>2010-12-04T03:06:53Z</time>
      </trkpt>
      <trkpt lat="59.3812980" lon="16.6096040">
        <ele>28.5000000</ele>
        <time>2010-12-04T03:07:06Z</time>
      </trkpt>
      <trkpt lat="59.3808360" lon="16.6087970">
        <ele>28.0200000</ele>
        <time>2010-12-04T03:07:18Z</time>
      </trkpt>
      <trkpt lat="59.3803220" lon="16.6079560">
        <ele>28.0200000</ele>
        <time>2010-12-04T03:07:31Z</time>
      </trkpt>
      <trkpt lat="59.3797870" lon="16.6069980">
        <ele>27.5300000</ele>
        <time>2010-12-04T03:07:45Z</time>
      </trkpt>
      <trkpt lat="59.3794250" lon="16.6060160">
        <ele>26.5700000</ele>
        <time>2010-12-04T03:07:57Z</time>
      </trkpt>
      <trkpt lat="59.3792300" lon="16.6048280">
        <ele>26.0900000</ele>
        <time>2010-12-04T03:08:09Z</time>
      </trkpt>
      <trkpt lat="59.3792190" lon="16.6033440">
        <ele>25.6100000</ele>
        <time>2010-12-04T03:08:23Z</time>
      </trkpt>
      <trkpt lat="59.3792150" lon="16.6017040">
        <ele>26.0900000</ele>
        <time>2010-12-04T03:08:39Z</time>
      </trkpt>
      <trkpt lat="59.3792420" lon="16.6003490">
        <ele>26.0900000</ele>
        <time>2010-12-04T03:08:53Z</time>
      </trkpt>
      <trkpt lat="59.3794060" lon="16.5990260">
        <ele>26.0900000</ele>
        <time>2010-12-04T03:09:08Z</time>
      </trkpt>
      <trkpt lat="59.3795810" lon="16.5979840">
        <ele>26.0900000</ele>
        <time>2010-12-04T03:09:20Z</time>
      </trkpt>
      <trkpt lat="59.3798330" lon="16.5964490">
        <ele>26.0900000</ele>
        <time>2010-12-04T03:09:37Z</time>
      </trkpt>
      <trkpt lat="59.3799060" lon="16.5952870">
        <ele>26.5700000</ele>
        <time>2010-12-04T03:09:50Z</time>
      </trkpt>
      <trkpt lat="59.3798220" lon="16.5938970">
        <ele>27.0500000</ele>
        <time>2010-12-04T03:10:06Z</time>
      </trkpt>
      <trkpt lat="59.3798140" lon="16.5938110">
        <ele>27.0500000</ele>
        <time>2010-12-04T03:10:07Z</time>
      </trkpt>
      <trkpt lat="59.3798100" lon="16.5936410">
        <ele>26.5700000</ele>
        <time>2010-12-04T03:10:09Z</time>
      </trkpt>
      <trkpt lat="59.3798140" lon="16.5935550">
        <ele>27.0500000</ele>
        <time>2010-12-04T03:10:10Z</time>
      </trkpt>
      <trkpt lat="59.3798220" lon="16.5934720">
        <ele>27.0500000</ele>
        <time>2010-12-04T03:10:11Z</time>
      </trkpt>
      <trkpt lat="59.3798370" lon="16.5933060">
        <ele>27.0500000</ele>
        <time>2010-12-04T03:10:13Z</time>
      </trkpt>
      <trkpt lat="59.3798370" lon="16.5932250">
        <ele>27.0500000</ele>
        <time>2010-12-04T03:10:14Z</time>
      </trkpt>
      <trkpt lat="59.3798220" lon="16.5931450">
        <ele>27.0500000</ele>
        <time>2010-12-04T03:10:15Z</time>
      </trkpt>
      <trkpt lat="59.3797990" lon="16.5930710">
        <ele>27.0500000</ele>
        <time>2010-12-04T03:10:16Z</time>
      </trkpt>
      <trkpt lat="59.3797720" lon="16.5930040">
        <ele>27.0500000</ele>
        <time>2010-12-04T03:10:17Z</time>
      </trkpt>
      <trkpt lat="59.3797340" lon="16.5929410">
        <ele>27.0500000</ele>
        <time>2010-12-04T03:10:18Z</time>
      </trkpt>
      <trkpt lat="59.3796960" lon="16.5928860">
        <ele>27.0500000</ele>
        <time>2010-12-04T03:10:19Z</time>
      </trkpt>
      <trkpt lat="59.3795010" lon="16.5923730">
        <ele>26.5700000</ele>
        <time>2010-12-04T03:10:28Z</time>
      </trkpt>
      <trkpt lat="59.3794290" lon="16.5919840">
        <ele>27.5300000</ele>
        <time>2010-12-04T03:10:35Z</time>
      </trkpt>
      <trkpt lat="59.3789750" lon="16.5907840">
        <ele>28.0200000</ele>
        <time>2010-12-04T03:10:49Z</time>
      </trkpt>
      <trkpt lat="59.3783720" lon="16.5893330">
        <ele>27.5300000</ele>
        <time>2010-12-04T03:11:06Z</time>
      </trkpt>
      <trkpt lat="59.3778920" lon="16.5880930">
        <ele>26.5700000</ele>
        <time>2010-12-04T03:11:21Z</time>
      </trkpt>
      <trkpt lat="59.3775790" lon="16.5869900">
        <ele>23.6900000</ele>
        <time>2010-12-04T03:11:32Z</time>
      </trkpt>
      <trkpt lat="59.3772200" lon="16.5850750">
        <ele>20.8100000</ele>
        <time>2010-12-04T03:11:48Z</time>
      </trkpt>
      <trkpt lat="59.3769450" lon="16.5832210">
        <ele>17.9200000</ele>
        <time>2010-12-04T03:12:03Z</time>
      </trkpt>
      <trkpt lat="59.3768350" lon="16.5823060">
        <ele>17.4400000</ele>
        <time>2010-12-04T03:12:11Z</time>
      </trkpt>
      <trkpt lat="59.3768310" lon="16.5821930">
        <ele>17.4400000</ele>
        <time>2010-12-04T03:12:12Z</time>
      </trkpt>
      <trkpt lat="59.3768390" lon="16.5820830">
        <ele>16.9600000</ele>
        <time>2010-12-04T03:12:13Z</time>
      </trkpt>
      <trkpt lat="59.3768460" lon="16.5818630">
        <ele>16.4800000</ele>
        <time>2010-12-04T03:12:15Z</time>
      </trkpt>
      <trkpt lat="59.3768390" lon="16.5817570">
        <ele>16.9600000</ele>
        <time>2010-12-04T03:12:16Z</time>
      </trkpt>
      <trkpt lat="59.3768230" lon="16.5816520">
        <ele>16.9600000</ele>
        <time>2010-12-04T03:12:17Z</time>
      </trkpt>
      <trkpt lat="59.3768010" lon="16.5815540">
        <ele>16.9600000</ele>
        <time>2010-12-04T03:12:18Z</time>
      </trkpt>
      <trkpt lat="59.3767740" lon="16.5814670">
        <ele>17.4400000</ele>
        <time>2010-12-04T03:12:19Z</time>
      </trkpt>
      <trkpt lat="59.3767470" lon="16.5813810">
        <ele>16.9600000</ele>
        <time>2010-12-04T03:12:20Z</time>
      </trkpt>
      <trkpt lat="59.3767240" lon="16.5812890">
        <ele>17.4400000</ele>
        <time>2010-12-04T03:12:21Z</time>
      </trkpt>
      <trkpt lat="59.3767050" lon="16.5811920">
        <ele>16.9600000</ele>
        <time>2010-12-04T03:12:22Z</time>
      </trkpt>
      <trkpt lat="59.3766940" lon="16.5810910">
        <ele>16.9600000</ele>
        <time>2010-12-04T03:12:23Z</time>
      </trkpt>
      <trkpt lat="59.3766750" lon="16.5808790">
        <ele>16.4800000</ele>
        <time>2010-12-04T03:12:25Z</time>
      </trkpt>
      <trkpt lat="59.3766630" lon="16.5807720">
        <ele>16.4800000</ele>
        <time>2010-12-04T03:12:26Z</time>
      </trkpt>
      <trkpt lat="59.3765300" lon="16.5791440">
        <ele>16.9600000</ele>
        <time>2010-12-04T03:12:41Z</time>
      </trkpt>
      <trkpt lat="59.3765300" lon="16.5790330">
        <ele>16.4800000</ele>
        <time>2010-12-04T03:12:42Z</time>
      </trkpt>
      <trkpt lat="59.3765370" lon="16.5789240">
        <ele>16.9600000</ele>
        <time>2010-12-04T03:12:43Z</time>
      </trkpt>
      <trkpt lat="59.3765680" lon="16.5784930">
        <ele>16.0000000</ele>
        <time>2010-12-04T03:12:47Z</time>
      </trkpt>
      <trkpt lat="59.3765600" lon="16.5783840">
        <ele>16.4800000</ele>
        <time>2010-12-04T03:12:48Z</time>
      </trkpt>
      <trkpt lat="59.3765530" lon="16.5782760">
        <ele>16.0000000</ele>
        <time>2010-12-04T03:12:49Z</time>
      </trkpt>
      <trkpt lat="59.3764460" lon="16.5768030">
        <ele>14.5600000</ele>
        <time>2010-12-04T03:13:02Z</time>
      </trkpt>
      <trkpt lat="59.3763890" lon="16.5750200">
        <ele>12.6300000</ele>
        <time>2010-12-04T03:13:18Z</time>
      </trkpt>
      <trkpt lat="59.3762860" lon="16.5733490">
        <ele>10.7100000</ele>
        <time>2010-12-04T03:13:33Z</time>
      </trkpt>
      <trkpt lat="59.3762090" lon="16.5717200">
        <ele>11.6700000</ele>
        <time>2010-12-04T03:13:48Z</time>
      </trkpt>
      <trkpt lat="59.3761440" lon="16.5703450">
        <ele>11.1900000</ele>
        <time>2010-12-04T03:14:02Z</time>
      </trkpt>
      <trkpt lat="59.3760800" lon="16.5689540">
        <ele>11.1900000</ele>
        <time>2010-12-04T03:14:16Z</time>
      </trkpt>
      <trkpt lat="59.3759770" lon="16.5677380">
        <ele>12.1500000</ele>
        <time>2010-12-04T03:14:29Z</time>
      </trkpt>
      <trkpt lat="59.3758010" lon="16.5665760">
        <ele>14.5600000</ele>
        <time>2010-12-04T03:14:43Z</time>
      </trkpt>
      <trkpt lat="59.3755380" lon="16.5652750">
        <ele>15.0400000</ele>
        <time>2010-12-04T03:14:59Z</time>
      </trkpt>
      <trkpt lat="59.3751980" lon="16.5639500">
        <ele>14.5600000</ele>
        <time>2010-12-04T03:15:14Z</time>
      </trkpt>
      <trkpt lat="59.3748510" lon="16.5626750">
        <ele>13.1200000</ele>
        <time>2010-12-04T03:15:28Z</time>
      </trkpt>
      <trkpt lat="59.3747750" lon="16.5624280">
        <ele>13.6000000</ele>
        <time>2010-12-04T03:15:31Z</time>
      </trkpt>
      <trkpt lat="59.3747410" lon="16.5623590">
        <ele>13.1200000</ele>
        <time>2010-12-04T03:15:32Z</time>
      </trkpt>
      <trkpt lat="59.3747020" lon="16.5622940">
        <ele>13.6000000</ele>
        <time>2010-12-04T03:15:33Z</time>
      </trkpt>
      <trkpt lat="59.3745420" lon="16.5620290">
        <ele>13.6000000</ele>
        <time>2010-12-04T03:15:37Z</time>
      </trkpt>
      <trkpt lat="59.3741190" lon="16.5609800">
        <ele>13.1200000</ele>
        <time>2010-12-04T03:15:50Z</time>
      </trkpt>
      <trkpt lat="59.3736650" lon="16.5598550">
        <ele>13.1200000</ele>
        <time>2010-12-04T03:16:04Z</time>
      </trkpt>
      <trkpt lat="59.3731960" lon="16.5587140">
        <ele>13.6000000</ele>
        <time>2010-12-04T03:16:18Z</time>
      </trkpt>
      <trkpt lat="59.3726920" lon="16.5574740">
        <ele>12.1500000</ele>
        <time>2010-12-04T03:16:33Z</time>
      </trkpt>
      <trkpt lat="59.3721120" lon="16.5560720">
        <ele>12.1500000</ele>
        <time>2010-12-04T03:16:50Z</time>
      </trkpt>
      <trkpt lat="59.3718260" lon="16.5551110">
        <ele>12.1500000</ele>
        <time>2010-12-04T03:17:02Z</time>
      </trkpt>
      <trkpt lat="59.3716430" lon="16.5548710">
        <ele>12.6300000</ele>
        <time>2010-12-04T03:17:08Z</time>
      </trkpt>
      <trkpt lat="59.3716090" lon="16.5548230">
        <ele>12.6300000</ele>
        <time>2010-12-04T03:17:09Z</time>
      </trkpt>
      <trkpt lat="59.3715780" lon="16.5547640">
        <ele>12.1500000</ele>
        <time>2010-12-04T03:17:10Z</time>
      </trkpt>
      <trkpt lat="59.3711700" lon="16.5538010">
        <ele>11.1900000</ele>
        <time>2010-12-04T03:17:23Z</time>
      </trkpt>
      <trkpt lat="59.3706360" lon="16.5524920">
        <ele>10.7100000</ele>
        <time>2010-12-04T03:17:39Z</time>
      </trkpt>
      <trkpt lat="59.3701900" lon="16.5514030">
        <ele>11.1900000</ele>
        <time>2010-12-04T03:17:53Z</time>
      </trkpt>
      <trkpt lat="59.3697320" lon="16.5502360">
        <ele>10.7100000</ele>
        <time>2010-12-04T03:18:07Z</time>
      </trkpt>
      <trkpt lat="59.3694270" lon="16.5494230">
        <ele>11.6700000</ele>
        <time>2010-12-04T03:18:17Z</time>
      </trkpt>
      <trkpt lat="59.3690680" lon="16.5484580">
        <ele>12.1500000</ele>
        <time>2010-12-04T03:18:31Z</time>
      </trkpt>
      <trkpt lat="59.3687710" lon="16.5476070">
        <ele>12.6300000</ele>
        <time>2010-12-04T03:18:44Z</time>
      </trkpt>
      <trkpt lat="59.3686870" lon="16.5473380">
        <ele>13.1200000</ele>
        <time>2010-12-04T03:18:48Z</time>
      </trkpt>
      <trkpt lat="59.3686640" lon="16.5472740">
        <ele>12.6300000</ele>
        <time>2010-12-04T03:18:49Z</time>
      </trkpt>
      <trkpt lat="59.3683930" lon="16.5464020">
        <ele>13.6000000</ele>
        <time>2010-12-04T03:19:02Z</time>
      </trkpt>
      <trkpt lat="59.3681180" lon="16.5454770">
        <ele>14.5600000</ele>
        <time>2010-12-04T03:19:17Z</time>
      </trkpt>
      <trkpt lat="59.3678740" lon="16.5446470">
        <ele>14.5600000</ele>
        <time>2010-12-04T03:19:30Z</time>
      </trkpt>
      <trkpt lat="59.3675880" lon="16.5436900">
        <ele>14.5600000</ele>
        <time>2010-12-04T03:19:44Z</time>
      </trkpt>
      <trkpt lat="59.3673250" lon="16.5428120">
        <ele>15.0400000</ele>
        <time>2010-12-04T03:19:57Z</time>
      </trkpt>
      <trkpt lat="59.3670540" lon="16.5419120">
        <ele>15.0400000</ele>
        <time>2010-12-04T03:20:11Z</time>
      </trkpt>
      <trkpt lat="59.3667950" lon="16.5410540">
        <ele>15.5200000</ele>
        <time>2010-12-04T03:20:24Z</time>
      </trkpt>
      <trkpt lat="59.3665390" lon="16.5400510">
        <ele>15.5200000</ele>
        <time>2010-12-04T03:20:38Z</time>
      </trkpt>
      <trkpt lat="59.3663480" lon="16.5389120">
        <ele>14.5600000</ele>
        <time>2010-12-04T03:20:52Z</time>
      </trkpt>
      <trkpt lat="59.3662380" lon="16.5376220">
        <ele>14.0800000</ele>
        <time>2010-12-04T03:21:07Z</time>
      </trkpt>
      <trkpt lat="59.3662410" lon="16.5363240">
        <ele>13.6000000</ele>
        <time>2010-12-04T03:21:21Z</time>
      </trkpt>
      <trkpt lat="59.3663600" lon="16.5349540">
        <ele>11.6700000</ele>
        <time>2010-12-04T03:21:36Z</time>
      </trkpt>
      <trkpt lat="59.3665700" lon="16.5337540">
        <ele>11.6700000</ele>
        <time>2010-12-04T03:21:50Z</time>
      </trkpt>
      <trkpt lat="59.3668290" lon="16.5324330">
        <ele>11.1900000</ele>
        <time>2010-12-04T03:22:06Z</time>
      </trkpt>
      <trkpt lat="59.3670310" lon="16.5315300">
        <ele>11.6700000</ele>
        <time>2010-12-04T03:22:20Z</time>
      </trkpt>
      <trkpt lat="59.3671110" lon="16.5312000">
        <ele>11.6700000</ele>
        <time>2010-12-04T03:22:28Z</time>
      </trkpt>
      <trkpt lat="59.3671260" lon="16.5311830">
        <ele>11.1900000</ele>
        <time>2010-12-04T03:22:29Z</time>
      </trkpt>
      <trkpt lat="59.3671420" lon="16.5311780">
        <ele>11.6700000</ele>
        <time>2010-12-04T03:22:30Z</time>
      </trkpt>
      <trkpt lat="59.3671760" lon="16.5311030">
        <ele>11.6700000</ele>
        <time>2010-12-04T03:22:37Z</time>
      </trkpt>
      <trkpt lat="59.3671680" lon="16.5310820">
        <ele>11.6700000</ele>
        <time>2010-12-04T03:22:38Z</time>
      </trkpt>
      <trkpt lat="59.3670200" lon="16.5307220">
        <ele>11.6700000</ele>
        <time>2010-12-04T03:22:47Z</time>
      </trkpt>
      <trkpt lat="59.3669890" lon="16.5299820">
        <ele>11.6700000</ele>
        <time>2010-12-04T03:22:58Z</time>
      </trkpt>
      <trkpt lat="59.3669400" lon="16.5290810">
        <ele>12.6300000</ele>
        <time>2010-12-04T03:23:10Z</time>
      </trkpt>
      <trkpt lat="59.3669130" lon="16.5281790">
        <ele>12.6300000</ele>
        <time>2010-12-04T03:23:22Z</time>
      </trkpt>
      <trkpt lat="59.3668630" lon="16.5269240">
        <ele>13.1200000</ele>
        <time>2010-12-04T03:23:38Z</time>
      </trkpt>
      <trkpt lat="59.3668140" lon="16.5261760">
        <ele>12.1500000</ele>
        <time>2010-12-04T03:23:48Z</time>
      </trkpt>
      <trkpt lat="59.3668140" lon="16.5260930">
        <ele>12.1500000</ele>
        <time>2010-12-04T03:23:49Z</time>
      </trkpt>
      <trkpt lat="59.3668590" lon="16.5254690">
        <ele>12.1500000</ele>
        <time>2010-12-04T03:23:56Z</time>
      </trkpt>
      <trkpt lat="59.3671190" lon="16.5246370">
        <ele>12.1500000</ele>
        <time>2010-12-04T03:24:08Z</time>
      </trkpt>
      <trkpt lat="59.3673400" lon="16.5239350">
        <ele>13.1200000</ele>
        <time>2010-12-04T03:24:17Z</time>
      </trkpt>
      <trkpt lat="59.3673590" lon="16.5238550">
        <ele>13.1200000</ele>
        <time>2010-12-04T03:24:18Z</time>
      </trkpt>
      <trkpt lat="59.3676720" lon="16.5228650">
        <ele>13.1200000</ele>
        <time>2010-12-04T03:24:32Z</time>
      </trkpt>
      <trkpt lat="59.3676990" lon="16.5227990">
        <ele>12.6300000</ele>
        <time>2010-12-04T03:24:33Z</time>
      </trkpt>
      <trkpt lat="59.3677250" lon="16.5227320">
        <ele>13.1200000</ele>
        <time>2010-12-04T03:24:34Z</time>
      </trkpt>
      <trkpt lat="59.3679500" lon="16.5219310">
        <ele>12.6300000</ele>
        <time>2010-12-04T03:24:46Z</time>
      </trkpt>
      <trkpt lat="59.3679960" lon="16.5218050">
        <ele>12.6300000</ele>
        <time>2010-12-04T03:24:48Z</time>
      </trkpt>
      <trkpt lat="59.3680150" lon="16.5217400">
        <ele>13.1200000</ele>
        <time>2010-12-04T03:24:49Z</time>
      </trkpt>
      <trkpt lat="59.3680420" lon="16.5216790">
        <ele>12.6300000</ele>
        <time>2010-12-04T03:24:50Z</time>
      </trkpt>
      <trkpt lat="59.3680730" lon="16.5216160">
        <ele>12.6300000</ele>
        <time>2010-12-04T03:24:51Z</time>
      </trkpt>
      <trkpt lat="59.3680990" lon="16.5215440">
        <ele>13.1200000</ele>
        <time>2010-12-04T03:24:52Z</time>
      </trkpt>
      <trkpt lat="59.3681260" lon="16.5214650">
        <ele>12.1500000</ele>
        <time>2010-12-04T03:24:53Z</time>
      </trkpt>
      <trkpt lat="59.3681870" lon="16.5213260">
        <ele>13.1200000</ele>
        <time>2010-12-04T03:24:55Z</time>
      </trkpt>
      <trkpt lat="59.3683740" lon="16.5208380">
        <ele>13.1200000</ele>
        <time>2010-12-04T03:25:02Z</time>
      </trkpt>
      <trkpt lat="59.3687670" lon="16.5197450">
        <ele>11.1900000</ele>
        <time>2010-12-04T03:25:16Z</time>
      </trkpt>
      <trkpt lat="59.3691250" lon="16.5184820">
        <ele>10.7100000</ele>
        <time>2010-12-04T03:25:31Z</time>
      </trkpt>
      <trkpt lat="59.3693620" lon="16.5177590">
        <ele>9.7500000</ele>
        <time>2010-12-04T03:25:40Z</time>
      </trkpt>
      <trkpt lat="59.3693920" lon="16.5177000">
        <ele>10.2300000</ele>
        <time>2010-12-04T03:25:41Z</time>
      </trkpt>
      <trkpt lat="59.3694270" lon="16.5176580">
        <ele>10.2300000</ele>
        <time>2010-12-04T03:25:42Z</time>
      </trkpt>
      <trkpt lat="59.3694650" lon="16.5176320">
        <ele>10.7100000</ele>
        <time>2010-12-04T03:25:43Z</time>
      </trkpt>
      <trkpt lat="59.3695030" lon="16.5176110">
        <ele>10.2300000</ele>
        <time>2010-12-04T03:25:44Z</time>
      </trkpt>
      <trkpt lat="59.3696210" lon="16.5173240">
        <ele>10.2300000</ele>
        <time>2010-12-04T03:25:50Z</time>
      </trkpt>
      <trkpt lat="59.3696060" lon="16.5172670">
        <ele>10.2300000</ele>
        <time>2010-12-04T03:25:51Z</time>
      </trkpt>
      <trkpt lat="59.3695830" lon="16.5172180">
        <ele>10.2300000</ele>
        <time>2010-12-04T03:25:52Z</time>
      </trkpt>
      <trkpt lat="59.3695600" lon="16.5171810">
        <ele>9.7500000</ele>
        <time>2010-12-04T03:25:53Z</time>
      </trkpt>
      <trkpt lat="59.3695410" lon="16.5171470">
        <ele>10.2300000</ele>
        <time>2010-12-04T03:25:54Z</time>
      </trkpt>
      <trkpt lat="59.3695260" lon="16.5171090">
        <ele>10.2300000</ele>
        <time>2010-12-04T03:25:55Z</time>
      </trkpt>
      <trkpt lat="59.3695220" lon="16.5170750">
        <ele>10.2300000</ele>
        <time>2010-12-04T03:25:56Z</time>
      </trkpt>
      <trkpt lat="59.3695300" lon="16.5170330">
        <ele>10.2300000</ele>
        <time>2010-12-04T03:25:57Z</time>
      </trkpt>
      <trkpt lat="59.3695370" lon="16.5169890">
        <ele>10.2300000</ele>
        <time>2010-12-04T03:25:58Z</time>
      </trkpt>
      <trkpt lat="59.3696900" lon="16.5164970">
        <ele>10.7100000</ele>
        <time>2010-12-04T03:26:06Z</time>
      </trkpt>
      <trkpt lat="59.3699340" lon="16.5156940">
        <ele>10.7100000</ele>
        <time>2010-12-04T03:26:17Z</time>
      </trkpt>
      <trkpt lat="59.3700370" lon="16.5154500">
        <ele>10.7100000</ele>
        <time>2010-12-04T03:26:21Z</time>
      </trkpt>
      <trkpt lat="59.3702510" lon="16.5147590">
        <ele>11.1900000</ele>
        <time>2010-12-04T03:26:32Z</time>
      </trkpt>
      <trkpt lat="59.3705060" lon="16.5139830">
        <ele>11.1900000</ele>
        <time>2010-12-04T03:26:44Z</time>
      </trkpt>
      <trkpt lat="59.3707700" lon="16.5130810">
        <ele>11.6700000</ele>
        <time>2010-12-04T03:26:57Z</time>
      </trkpt>
      <trkpt lat="59.3710060" lon="16.5122850">
        <ele>12.1500000</ele>
        <time>2010-12-04T03:27:10Z</time>
      </trkpt>
      <trkpt lat="59.3712500" lon="16.5114210">
        <ele>12.1500000</ele>
        <time>2010-12-04T03:27:23Z</time>
      </trkpt>
      <trkpt lat="59.3713610" lon="16.5110440">
        <ele>12.1500000</ele>
        <time>2010-12-04T03:27:28Z</time>
      </trkpt>
      <trkpt lat="59.3717040" lon="16.5101340">
        <ele>12.1500000</ele>
        <time>2010-12-04T03:27:41Z</time>
      </trkpt>
      <trkpt lat="59.3720360" lon="16.5091710">
        <ele>12.1500000</ele>
        <time>2010-12-04T03:27:55Z</time>
      </trkpt>
      <trkpt lat="59.3723300" lon="16.5082970">
        <ele>13.1200000</ele>
        <time>2010-12-04T03:28:08Z</time>
      </trkpt>
      <trkpt lat="59.3725620" lon="16.5075720">
        <ele>12.1500000</ele>
        <time>2010-12-04T03:28:21Z</time>
      </trkpt>
      <trkpt lat="59.3725780" lon="16.5075360">
        <ele>12.1500000</ele>
        <time>2010-12-04T03:28:32Z</time>
      </trkpt>
      <trkpt lat="59.3725780" lon="16.5075360">
        <ele>12.1500000</ele>
        <time>2010-12-04T03:28:52Z</time>
      </trkpt>
      <trkpt lat="59.3725740" lon="16.5075490">
        <ele>12.1500000</ele>
        <time>2010-12-04T03:29:15Z</time>
      </trkpt>
      <trkpt lat="59.3725740" lon="16.5075490">
        <ele>12.6300000</ele>
        <time>2010-12-04T03:29:36Z</time>
      </trkpt>
      <trkpt lat="59.3725700" lon="16.5075450">
        <ele>12.6300000</ele>
        <time>2010-12-04T03:29:58Z</time>
      </trkpt>
      <trkpt lat="59.3725700" lon="16.5075150">
        <ele>13.1200000</ele>
        <time>2010-12-04T03:30:14Z</time>
      </trkpt>
      <trkpt lat="59.3725780" lon="16.5074750">
        <ele>12.6300000</ele>
        <time>2010-12-04T03:30:15Z</time>
      </trkpt>
      <trkpt lat="59.3727840" lon="16.5068780">
        <ele>13.1200000</ele>
        <time>2010-12-04T03:30:25Z</time>
      </trkpt>
      <trkpt lat="59.3731000" lon="16.5058400">
        <ele>13.1200000</ele>
        <time>2010-12-04T03:30:40Z</time>
      </trkpt>
      <trkpt lat="59.3733410" lon="16.5050280">
        <ele>12.6300000</ele>
        <time>2010-12-04T03:30:54Z</time>
      </trkpt>
      <trkpt lat="59.3736110" lon="16.5042250">
        <ele>12.6300000</ele>
        <time>2010-12-04T03:31:07Z</time>
      </trkpt>
      <trkpt lat="59.3739660" lon="16.5031450">
        <ele>12.6300000</ele>
        <time>2010-12-04T03:31:22Z</time>
      </trkpt>
      <trkpt lat="59.3740270" lon="16.5030060">
        <ele>12.6300000</ele>
        <time>2010-12-04T03:31:24Z</time>
      </trkpt>
      <trkpt lat="59.3745080" lon="16.5021860">
        <ele>12.6300000</ele>
        <time>2010-12-04T03:31:38Z</time>
      </trkpt>
      <trkpt lat="59.3750760" lon="16.5013520">
        <ele>11.6700000</ele>
        <time>2010-12-04T03:31:53Z</time>
      </trkpt>
      <trkpt lat="59.3755800" lon="16.5005950">
        <ele>10.7100000</ele>
        <time>2010-12-04T03:32:06Z</time>
      </trkpt>
      <trkpt lat="59.3762660" lon="16.4996240">
        <ele>10.7100000</ele>
        <time>2010-12-04T03:32:24Z</time>
      </trkpt>
      <trkpt lat="59.3767810" lon="16.4989240">
        <ele>10.7100000</ele>
        <time>2010-12-04T03:32:38Z</time>
      </trkpt>
      <trkpt lat="59.3772540" lon="16.4982530">
        <ele>11.1900000</ele>
        <time>2010-12-04T03:32:51Z</time>
      </trkpt>
      <trkpt lat="59.3778150" lon="16.4974170">
        <ele>11.1900000</ele>
        <time>2010-12-04T03:33:06Z</time>
      </trkpt>
      <trkpt lat="59.3784750" lon="16.4964730">
        <ele>10.7100000</ele>
        <time>2010-12-04T03:33:24Z</time>
      </trkpt>
      <trkpt lat="59.3789900" lon="16.4955960">
        <ele>10.7100000</ele>
        <time>2010-12-04T03:33:39Z</time>
      </trkpt>
      <trkpt lat="59.3791920" lon="16.4948140">
        <ele>10.7100000</ele>
        <time>2010-12-04T03:33:50Z</time>
      </trkpt>
      <trkpt lat="59.3794520" lon="16.4935490">
        <ele>10.2300000</ele>
        <time>2010-12-04T03:34:06Z</time>
      </trkpt>
      <trkpt lat="59.3797450" lon="16.4921860">
        <ele>10.2300000</ele>
        <time>2010-12-04T03:34:23Z</time>
      </trkpt>
      <trkpt lat="59.3799550" lon="16.4911370">
        <ele>9.7500000</ele>
        <time>2010-12-04T03:34:36Z</time>
      </trkpt>
      <trkpt lat="59.3802030" lon="16.4899850">
        <ele>10.2300000</ele>
        <time>2010-12-04T03:34:50Z</time>
      </trkpt>
      <trkpt lat="59.3805010" lon="16.4886210">
        <ele>10.2300000</ele>
        <time>2010-12-04T03:35:06Z</time>
      </trkpt>
      <trkpt lat="59.3807560" lon="16.4874230">
        <ele>10.7100000</ele>
        <time>2010-12-04T03:35:20Z</time>
      </trkpt>
      <trkpt lat="59.3809660" lon="16.4865250">
        <ele>10.2300000</ele>
        <time>2010-12-04T03:35:30Z</time>
      </trkpt>
      <trkpt lat="59.3812180" lon="16.4852730">
        <ele>10.7100000</ele>
        <time>2010-12-04T03:35:44Z</time>
      </trkpt>
      <trkpt lat="59.3813900" lon="16.4838600">
        <ele>10.7100000</ele>
        <time>2010-12-04T03:35:59Z</time>
      </trkpt>
      <trkpt lat="59.3814740" lon="16.4823570">
        <ele>9.7500000</ele>
        <time>2010-12-04T03:36:15Z</time>
      </trkpt>
      <trkpt lat="59.3815500" lon="16.4807820">
        <ele>10.2300000</ele>
        <time>2010-12-04T03:36:31Z</time>
      </trkpt>
      <trkpt lat="59.3816030" lon="16.4795950">
        <ele>10.2300000</ele>
        <time>2010-12-04T03:36:43Z</time>
      </trkpt>
      <trkpt lat="59.3816800" lon="16.4781880">
        <ele>10.2300000</ele>
        <time>2010-12-04T03:36:57Z</time>
      </trkpt>
      <trkpt lat="59.3817900" lon="16.4766220">
        <ele>10.7100000</ele>
        <time>2010-12-04T03:37:13Z</time>
      </trkpt>
      <trkpt lat="59.3819500" lon="16.4749340">
        <ele>10.7100000</ele>
        <time>2010-12-04T03:37:30Z</time>
      </trkpt>
      <trkpt lat="59.3820990" lon="16.4733410">
        <ele>10.2300000</ele>
        <time>2010-12-04T03:37:46Z</time>
      </trkpt>
      <trkpt lat="59.3821910" lon="16.4723210">
        <ele>10.7100000</ele>
        <time>2010-12-04T03:37:57Z</time>
      </trkpt>
      <trkpt lat="59.3823170" lon="16.4710670">
        <ele>10.7100000</ele>
        <time>2010-12-04T03:38:10Z</time>
      </trkpt>
      <trkpt lat="59.3825420" lon="16.4693470">
        <ele>10.2300000</ele>
        <time>2010-12-04T03:38:27Z</time>
      </trkpt>
      <trkpt lat="59.3828120" lon="16.4679570">
        <ele>10.7100000</ele>
        <time>2010-12-04T03:38:41Z</time>
      </trkpt>
      <trkpt lat="59.3829350" lon="16.4678840">
        <ele>11.6700000</ele>
        <time>2010-12-04T04:16:19Z</time>
      </trkpt>
      <trkpt lat="59.3829730" lon="16.4679260">
        <ele>10.7100000</ele>
        <time>2010-12-04T04:16:20Z</time>
      </trkpt>
      <trkpt lat="59.3830150" lon="16.4679580">
        <ele>10.7100000</ele>
        <time>2010-12-04T04:16:21Z</time>
      </trkpt>
      <trkpt lat="59.3830600" lon="16.4679870">
        <ele>10.7100000</ele>
        <time>2010-12-04T04:16:22Z</time>
      </trkpt>
      <trkpt lat="59.3836630" lon="16.4683150">
        <ele>12.1500000</ele>
        <time>2010-12-04T04:16:35Z</time>
      </trkpt>
      <trkpt lat="59.3839680" lon="16.4684220">
        <ele>12.6300000</ele>
        <time>2010-12-04T04:16:44Z</time>
      </trkpt>
      <trkpt lat="59.3844760" lon="16.4685750">
        <ele>12.1500000</ele>
        <time>2010-12-04T04:16:55Z</time>
      </trkpt>
      <trkpt lat="59.3851890" lon="16.4685970">
        <ele>10.7100000</ele>
        <time>2010-12-04T04:17:08Z</time>
      </trkpt>
      <trkpt lat="59.3858760" lon="16.4683670">
        <ele>10.7100000</ele>
        <time>2010-12-04T04:17:21Z</time>
      </trkpt>
      <trkpt lat="59.3864970" lon="16.4680080">
        <ele>12.1500000</ele>
        <time>2010-12-04T04:17:35Z</time>
      </trkpt>
      <trkpt lat="59.3871380" lon="16.4678480">
        <ele>10.7100000</ele>
        <time>2010-12-04T04:17:49Z</time>
      </trkpt>
      <trkpt lat="59.3875730" lon="16.4679300">
        <ele>10.7100000</ele>
        <time>2010-12-04T04:18:01Z</time>
      </trkpt>
      <trkpt lat="59.3875960" lon="16.4679090">
        <ele>10.7100000</ele>
        <time>2010-12-04T04:18:02Z</time>
      </trkpt>
      <trkpt lat="59.3876190" lon="16.4678760">
        <ele>10.2300000</ele>
        <time>2010-12-04T04:18:03Z</time>
      </trkpt>
      <trkpt lat="59.3876380" lon="16.4678330">
        <ele>10.7100000</ele>
        <time>2010-12-04T04:18:04Z</time>
      </trkpt>
      <trkpt lat="59.3876530" lon="16.4677790">
        <ele>10.7100000</ele>
        <time>2010-12-04T04:18:05Z</time>
      </trkpt>
      <trkpt lat="59.3876650" lon="16.4677180">
        <ele>10.7100000</ele>
        <time>2010-12-04T04:18:06Z</time>
      </trkpt>
      <trkpt lat="59.3876720" lon="16.4676550">
        <ele>9.2700000</ele>
        <time>2010-12-04T04:18:07Z</time>
      </trkpt>
      <trkpt lat="59.3876760" lon="16.4675900">
        <ele>10.2300000</ele>
        <time>2010-12-04T04:18:08Z</time>
      </trkpt>
      <trkpt lat="59.3878210" lon="16.4664550">
        <ele>10.2300000</ele>
        <time>2010-12-04T04:18:24Z</time>
      </trkpt>
      <trkpt lat="59.3880840" lon="16.4663240">
        <ele>10.2300000</ele>
        <time>2010-12-04T04:18:31Z</time>
      </trkpt>
      <trkpt lat="59.3887860" lon="16.4663600">
        <ele>10.7100000</ele>
        <time>2010-12-04T04:18:46Z</time>
      </trkpt>
      <trkpt lat="59.3895680" lon="16.4663730">
        <ele>11.1900000</ele>
        <time>2010-12-04T04:19:02Z</time>
      </trkpt>
      <trkpt lat="59.3903080" lon="16.4664100">
        <ele>11.1900000</ele>
        <time>2010-12-04T04:19:17Z</time>
      </trkpt>
      <trkpt lat="59.3906480" lon="16.4664590">
        <ele>6.8700000</ele>
        <time>2010-12-04T04:19:24Z</time>
      </trkpt>
      <trkpt lat="59.3906940" lon="16.4664650">
        <ele>11.1900000</ele>
        <time>2010-12-04T04:19:25Z</time>
      </trkpt>
      <trkpt lat="59.3912430" lon="16.4667190">
        <ele>10.7100000</ele>
        <time>2010-12-04T04:19:38Z</time>
      </trkpt>
      <trkpt lat="59.3912730" lon="16.4667680">
        <ele>10.2300000</ele>
        <time>2010-12-04T04:19:39Z</time>
      </trkpt>
      <trkpt lat="59.3913080" lon="16.4668180">
        <ele>10.2300000</ele>
        <time>2010-12-04T04:19:40Z</time>
      </trkpt>
      <trkpt lat="59.3913420" lon="16.4668600">
        <ele>10.2300000</ele>
        <time>2010-12-04T04:19:41Z</time>
      </trkpt>
      <trkpt lat="59.3913800" lon="16.4668900">
        <ele>10.2300000</ele>
        <time>2010-12-04T04:19:42Z</time>
      </trkpt>
      <trkpt lat="59.3914150" lon="16.4669080">
        <ele>10.7100000</ele>
        <time>2010-12-04T04:19:43Z</time>
      </trkpt>
      <trkpt lat="59.3914570" lon="16.4669090">
        <ele>10.2300000</ele>
        <time>2010-12-04T04:19:44Z</time>
      </trkpt>
      <trkpt lat="59.3914990" lon="16.4669040">
        <ele>10.2300000</ele>
        <time>2010-12-04T04:19:45Z</time>
      </trkpt>
      <trkpt lat="59.3915410" lon="16.4668880">
        <ele>9.7500000</ele>
        <time>2010-12-04T04:19:46Z</time>
      </trkpt>
      <trkpt lat="59.3915860" lon="16.4668710">
        <ele>9.7500000</ele>
        <time>2010-12-04T04:19:47Z</time>
      </trkpt>
      <trkpt lat="59.3921170" lon="16.4669270">
        <ele>9.2700000</ele>
        <time>2010-12-04T04:19:58Z</time>
      </trkpt>
      <trkpt lat="59.3928490" lon="16.4672780">
        <ele>8.7900000</ele>
        <time>2010-12-04T04:20:11Z</time>
      </trkpt>
      <trkpt lat="59.3933260" lon="16.4675480">
        <ele>9.2700000</ele>
        <time>2010-12-04T04:20:21Z</time>
      </trkpt>
      <trkpt lat="59.3935200" lon="16.4673900">
        <ele>9.2700000</ele>
        <time>2010-12-04T04:20:29Z</time>
      </trkpt>
      <trkpt lat="59.3935890" lon="16.4670120">
        <ele>14.0800000</ele>
        <time>2010-12-04T05:36:08Z</time>
      </trkpt>
      <trkpt lat="59.3934780" lon="16.4673790">
        <ele>13.1200000</ele>
        <time>2010-12-04T05:36:17Z</time>
      </trkpt>
      <trkpt lat="59.3932760" lon="16.4674450">
        <ele>13.1200000</ele>
        <time>2010-12-04T05:36:24Z</time>
      </trkpt>
      <trkpt lat="59.3929630" lon="16.4672260">
        <ele>12.6300000</ele>
        <time>2010-12-04T05:36:32Z</time>
      </trkpt>
      <trkpt lat="59.3923990" lon="16.4669270">
        <ele>12.1500000</ele>
        <time>2010-12-04T05:36:43Z</time>
      </trkpt>
      <trkpt lat="59.3916930" lon="16.4665490">
        <ele>13.1200000</ele>
        <time>2010-12-04T05:36:57Z</time>
      </trkpt>
      <trkpt lat="59.3916510" lon="16.4665010">
        <ele>12.6300000</ele>
        <time>2010-12-04T05:36:58Z</time>
      </trkpt>
      <trkpt lat="59.3914870" lon="16.4663110">
        <ele>13.1200000</ele>
        <time>2010-12-04T05:37:02Z</time>
      </trkpt>
      <trkpt lat="59.3914450" lon="16.4662900">
        <ele>13.1200000</ele>
        <time>2010-12-04T05:37:03Z</time>
      </trkpt>
      <trkpt lat="59.3913990" lon="16.4662780">
        <ele>13.1200000</ele>
        <time>2010-12-04T05:37:04Z</time>
      </trkpt>
      <trkpt lat="59.3913570" lon="16.4662800">
        <ele>13.1200000</ele>
        <time>2010-12-04T05:37:05Z</time>
      </trkpt>
      <trkpt lat="59.3913120" lon="16.4662930">
        <ele>13.1200000</ele>
        <time>2010-12-04T05:37:06Z</time>
      </trkpt>
      <trkpt lat="59.3912660" lon="16.4663160">
        <ele>13.6000000</ele>
        <time>2010-12-04T05:37:07Z</time>
      </trkpt>
      <trkpt lat="59.3912160" lon="16.4663410">
        <ele>13.6000000</ele>
        <time>2010-12-04T05:37:08Z</time>
      </trkpt>
      <trkpt lat="59.3906560" lon="16.4663430">
        <ele>13.6000000</ele>
        <time>2010-12-04T05:37:19Z</time>
      </trkpt>
      <trkpt lat="59.3900450" lon="16.4662880">
        <ele>13.1200000</ele>
        <time>2010-12-04T05:37:32Z</time>
      </trkpt>
      <trkpt lat="59.3892330" lon="16.4662720">
        <ele>13.1200000</ele>
        <time>2010-12-04T05:37:47Z</time>
      </trkpt>
      <trkpt lat="59.3883590" lon="16.4662380">
        <ele>11.6700000</ele>
        <time>2010-12-04T05:38:03Z</time>
      </trkpt>
      <trkpt lat="59.3880580" lon="16.4661600">
        <ele>11.6700000</ele>
        <time>2010-12-04T05:38:09Z</time>
      </trkpt>
      <trkpt lat="59.3880120" lon="16.4661220">
        <ele>12.1500000</ele>
        <time>2010-12-04T05:38:10Z</time>
      </trkpt>
      <trkpt lat="59.3879660" lon="16.4660700">
        <ele>12.1500000</ele>
        <time>2010-12-04T05:38:11Z</time>
      </trkpt>
      <trkpt lat="59.3879280" lon="16.4660050">
        <ele>12.1500000</ele>
        <time>2010-12-04T05:38:12Z</time>
      </trkpt>
      <trkpt lat="59.3878900" lon="16.4659350">
        <ele>11.6700000</ele>
        <time>2010-12-04T05:38:13Z</time>
      </trkpt>
      <trkpt lat="59.3878210" lon="16.4658090">
        <ele>11.6700000</ele>
        <time>2010-12-04T05:38:15Z</time>
      </trkpt>
      <trkpt lat="59.3877790" lon="16.4657670">
        <ele>12.1500000</ele>
        <time>2010-12-04T05:38:16Z</time>
      </trkpt>
      <trkpt lat="59.3877330" lon="16.4657460">
        <ele>11.6700000</ele>
        <time>2010-12-04T05:38:17Z</time>
      </trkpt>
      <trkpt lat="59.3876880" lon="16.4657500">
        <ele>11.1900000</ele>
        <time>2010-12-04T05:38:18Z</time>
      </trkpt>
      <trkpt lat="59.3876460" lon="16.4657760">
        <ele>11.6700000</ele>
        <time>2010-12-04T05:38:19Z</time>
      </trkpt>
      <trkpt lat="59.3876080" lon="16.4658180">
        <ele>12.1500000</ele>
        <time>2010-12-04T05:38:20Z</time>
      </trkpt>
      <trkpt lat="59.3875810" lon="16.4658720">
        <ele>12.1500000</ele>
        <time>2010-12-04T05:38:21Z</time>
      </trkpt>
      <trkpt lat="59.3875660" lon="16.4659330">
        <ele>12.1500000</ele>
        <time>2010-12-04T05:38:22Z</time>
      </trkpt>
      <trkpt lat="59.3875540" lon="16.4660020">
        <ele>12.1500000</ele>
        <time>2010-12-04T05:38:23Z</time>
      </trkpt>
      <trkpt lat="59.3875500" lon="16.4660720">
        <ele>12.1500000</ele>
        <time>2010-12-04T05:38:24Z</time>
      </trkpt>
      <trkpt lat="59.3875540" lon="16.4661430">
        <ele>12.1500000</ele>
        <time>2010-12-04T05:38:25Z</time>
      </trkpt>
      <trkpt lat="59.3875660" lon="16.4662170">
        <ele>12.1500000</ele>
        <time>2010-12-04T05:38:26Z</time>
      </trkpt>
      <trkpt lat="59.3875810" lon="16.4662970">
        <ele>12.6300000</ele>
        <time>2010-12-04T05:38:27Z</time>
      </trkpt>
      <trkpt lat="59.3876230" lon="16.4665450">
        <ele>12.1500000</ele>
        <time>2010-12-04T05:38:30Z</time>
      </trkpt>
      <trkpt lat="59.3876340" lon="16.4666390">
        <ele>12.1500000</ele>
        <time>2010-12-04T05:38:31Z</time>
      </trkpt>
      <trkpt lat="59.3876420" lon="16.4667320">
        <ele>12.1500000</ele>
        <time>2010-12-04T05:38:32Z</time>
      </trkpt>
      <trkpt lat="59.3876380" lon="16.4674780">
        <ele>12.1500000</ele>
        <time>2010-12-04T05:38:40Z</time>
      </trkpt>
      <trkpt lat="59.3876230" lon="16.4675620">
        <ele>12.1500000</ele>
        <time>2010-12-04T05:38:41Z</time>
      </trkpt>
      <trkpt lat="59.3875960" lon="16.4676400">
        <ele>12.6300000</ele>
        <time>2010-12-04T05:38:42Z</time>
      </trkpt>
      <trkpt lat="59.3875660" lon="16.4677030">
        <ele>12.6300000</ele>
        <time>2010-12-04T05:38:43Z</time>
      </trkpt>
      <trkpt lat="59.3875310" lon="16.4677510">
        <ele>12.1500000</ele>
        <time>2010-12-04T05:38:44Z</time>
      </trkpt>
      <trkpt lat="59.3874860" lon="16.4677770">
        <ele>12.6300000</ele>
        <time>2010-12-04T05:38:45Z</time>
      </trkpt>
      <trkpt lat="59.3874440" lon="16.4677890">
        <ele>12.6300000</ele>
        <time>2010-12-04T05:38:46Z</time>
      </trkpt>
      <trkpt lat="59.3873940" lon="16.4677930">
        <ele>12.6300000</ele>
        <time>2010-12-04T05:38:47Z</time>
      </trkpt>
      <trkpt lat="59.3873440" lon="16.4677870">
        <ele>12.1500000</ele>
        <time>2010-12-04T05:38:48Z</time>
      </trkpt>
      <trkpt lat="59.3872990" lon="16.4677790">
        <ele>12.1500000</ele>
        <time>2010-12-04T05:38:49Z</time>
      </trkpt>
      <trkpt lat="59.3871040" lon="16.4677580">
        <ele>12.1500000</ele>
        <time>2010-12-04T05:38:53Z</time>
      </trkpt>
      <trkpt lat="59.3864060" lon="16.4679580">
        <ele>13.1200000</ele>
        <time>2010-12-04T05:39:08Z</time>
      </trkpt>
      <trkpt lat="59.3856280" lon="16.4683700">
        <ele>12.1500000</ele>
        <time>2010-12-04T05:39:23Z</time>
      </trkpt>
      <trkpt lat="59.3848080" lon="16.4685250">
        <ele>12.1500000</ele>
        <time>2010-12-04T05:39:38Z</time>
      </trkpt>
      <trkpt lat="59.3841510" lon="16.4683690">
        <ele>12.6300000</ele>
        <time>2010-12-04T05:39:51Z</time>
      </trkpt>
      <trkpt lat="59.3832550" lon="16.4678690">
        <ele>11.1900000</ele>
        <time>2010-12-04T05:40:09Z</time>
      </trkpt>
      <trkpt lat="59.3830220" lon="16.4676650">
        <ele>11.1900000</ele>
        <time>2010-12-04T05:40:14Z</time>
      </trkpt>
      <trkpt lat="59.3829880" lon="16.4676020">
        <ele>11.6700000</ele>
        <time>2010-12-04T05:40:15Z</time>
      </trkpt>
      <trkpt lat="59.3829610" lon="16.4675310">
        <ele>11.1900000</ele>
        <time>2010-12-04T05:40:16Z</time>
      </trkpt>
      <trkpt lat="59.3829460" lon="16.4674530">
        <ele>11.6700000</ele>
        <time>2010-12-04T05:40:17Z</time>
      </trkpt>
      <trkpt lat="59.3829380" lon="16.4673670">
        <ele>11.1900000</ele>
        <time>2010-12-04T05:40:18Z</time>
      </trkpt>
      <trkpt lat="59.3829380" lon="16.4672830">
        <ele>11.6700000</ele>
        <time>2010-12-04T05:40:19Z</time>
      </trkpt>
      <trkpt lat="59.3829460" lon="16.4671960">
        <ele>11.1900000</ele>
        <time>2010-12-04T05:40:20Z</time>
      </trkpt>
      <trkpt lat="59.3829650" lon="16.4671060">
        <ele>11.1900000</ele>
        <time>2010-12-04T05:40:21Z</time>
      </trkpt>
      <trkpt lat="59.3829880" lon="16.4670120">
        <ele>11.1900000</ele>
        <time>2010-12-04T05:40:22Z</time>
      </trkpt>
      <trkpt lat="59.3832590" lon="16.4657360">
        <ele>10.7100000</ele>
        <time>2010-12-04T05:40:34Z</time>
      </trkpt>
      <trkpt lat="59.3835370" lon="16.4643920">
        <ele>9.2700000</ele>
        <time>2010-12-04T05:40:46Z</time>
      </trkpt>
      <trkpt lat="59.3838650" lon="16.4628470">
        <ele>9.7500000</ele>
        <time>2010-12-04T05:41:01Z</time>
      </trkpt>
      <trkpt lat="59.3841900" lon="16.4613340">
        <ele>9.2700000</ele>
        <time>2010-12-04T05:41:15Z</time>
      </trkpt>
      <trkpt lat="59.3844870" lon="16.4599880">
        <ele>9.7500000</ele>
        <time>2010-12-04T05:41:28Z</time>
      </trkpt>
      <trkpt lat="59.3847810" lon="16.4586490">
        <ele>9.7500000</ele>
        <time>2010-12-04T05:41:41Z</time>
      </trkpt>
      <trkpt lat="59.3851780" lon="16.4573310">
        <ele>10.7100000</ele>
        <time>2010-12-04T05:41:55Z</time>
      </trkpt>
      <trkpt lat="59.3857420" lon="16.4560780">
        <ele>10.2300000</ele>
        <time>2010-12-04T05:42:10Z</time>
      </trkpt>
      <trkpt lat="59.3864400" lon="16.4550500">
        <ele>9.2700000</ele>
        <time>2010-12-04T05:42:25Z</time>
      </trkpt>
      <trkpt lat="59.3872260" lon="16.4543320">
        <ele>8.3100000</ele>
        <time>2010-12-04T05:42:40Z</time>
      </trkpt>
      <trkpt lat="59.3880920" lon="16.4537120">
        <ele>8.7900000</ele>
        <time>2010-12-04T05:42:56Z</time>
      </trkpt>
      <trkpt lat="59.3889660" lon="16.4532360">
        <ele>9.2700000</ele>
        <time>2010-12-04T05:43:11Z</time>
      </trkpt>
      <trkpt lat="59.3898700" lon="16.4528450">
        <ele>9.7500000</ele>
        <time>2010-12-04T05:43:28Z</time>
      </trkpt>
      <trkpt lat="59.3906900" lon="16.4525510">
        <ele>10.2300000</ele>
        <time>2010-12-04T05:43:43Z</time>
      </trkpt>
      <trkpt lat="59.3915630" lon="16.4522780">
        <ele>9.2700000</ele>
        <time>2010-12-04T05:43:58Z</time>
      </trkpt>
      <trkpt lat="59.3924830" lon="16.4518720">
        <ele>8.3100000</ele>
        <time>2010-12-04T05:44:13Z</time>
      </trkpt>
      <trkpt lat="59.3933140" lon="16.4511590">
        <ele>8.3100000</ele>
        <time>2010-12-04T05:44:28Z</time>
      </trkpt>
      <trkpt lat="59.3939590" lon="16.4502640">
        <ele>8.3100000</ele>
        <time>2010-12-04T05:44:42Z</time>
      </trkpt>
      <trkpt lat="59.3944890" lon="16.4490870">
        <ele>8.7900000</ele>
        <time>2010-12-04T05:44:57Z</time>
      </trkpt>
      <trkpt lat="59.3949130" lon="16.4477140">
        <ele>8.7900000</ele>
        <time>2010-12-04T05:45:13Z</time>
      </trkpt>
      <trkpt lat="59.3951490" lon="16.4464630">
        <ele>9.2700000</ele>
        <time>2010-12-04T05:45:27Z</time>
      </trkpt>
      <trkpt lat="59.3953210" lon="16.4451580">
        <ele>10.2300000</ele>
        <time>2010-12-04T05:45:41Z</time>
      </trkpt>
      <trkpt lat="59.3954850" lon="16.4438060">
        <ele>11.1900000</ele>
        <time>2010-12-04T05:45:56Z</time>
      </trkpt>
      <trkpt lat="59.3955040" lon="16.4436380">
        <ele>11.6700000</ele>
        <time>2010-12-04T05:45:58Z</time>
      </trkpt>
      <trkpt lat="59.3956530" lon="16.4424880">
        <ele>14.0800000</ele>
        <time>2010-12-04T05:46:12Z</time>
      </trkpt>
      <trkpt lat="59.3958660" lon="16.4413910">
        <ele>16.4800000</ele>
        <time>2010-12-04T05:46:27Z</time>
      </trkpt>
      <trkpt lat="59.3960910" lon="16.4405380">
        <ele>18.8800000</ele>
        <time>2010-12-04T05:46:40Z</time>
      </trkpt>
      <trkpt lat="59.3963510" lon="16.4397220">
        <ele>20.8100000</ele>
        <time>2010-12-04T05:46:53Z</time>
      </trkpt>
      <trkpt lat="59.3967090" lon="16.4387320">
        <ele>20.3200000</ele>
        <time>2010-12-04T05:47:08Z</time>
      </trkpt>
      <trkpt lat="59.3970490" lon="16.4376950">
        <ele>18.8800000</ele>
        <time>2010-12-04T05:47:21Z</time>
      </trkpt>
      <trkpt lat="59.3973920" lon="16.4363690">
        <ele>16.9600000</ele>
        <time>2010-12-04T05:47:35Z</time>
      </trkpt>
      <trkpt lat="59.3976440" lon="16.4350260">
        <ele>17.9200000</ele>
        <time>2010-12-04T05:47:49Z</time>
      </trkpt>
      <trkpt lat="59.3979150" lon="16.4335690">
        <ele>18.4000000</ele>
        <time>2010-12-04T05:48:05Z</time>
      </trkpt>
      <trkpt lat="59.3982810" lon="16.4324820">
        <ele>17.9200000</ele>
        <time>2010-12-04T05:48:19Z</time>
      </trkpt>
      <trkpt lat="59.3987430" lon="16.4315200">
        <ele>17.9200000</ele>
        <time>2010-12-04T05:48:32Z</time>
      </trkpt>
      <trkpt lat="59.3992420" lon="16.4307060">
        <ele>19.3600000</ele>
        <time>2010-12-04T05:48:46Z</time>
      </trkpt>
      <trkpt lat="59.3998790" lon="16.4298110">
        <ele>20.3200000</ele>
        <time>2010-12-04T05:49:02Z</time>
      </trkpt>
      <trkpt lat="59.4004860" lon="16.4286920">
        <ele>19.8400000</ele>
        <time>2010-12-04T05:49:18Z</time>
      </trkpt>
      <trkpt lat="59.4010010" lon="16.4273450">
        <ele>18.8800000</ele>
        <time>2010-12-04T05:49:34Z</time>
      </trkpt>
      <trkpt lat="59.4012150" lon="16.4267220">
        <ele>17.9200000</ele>
        <time>2010-12-04T05:49:41Z</time>
      </trkpt>
      <trkpt lat="59.4017560" lon="16.4253790">
        <ele>17.9200000</ele>
        <time>2010-12-04T05:49:57Z</time>
      </trkpt>
      <trkpt lat="59.4024510" lon="16.4240510">
        <ele>18.4000000</ele>
        <time>2010-12-04T05:50:14Z</time>
      </trkpt>
      <trkpt lat="59.4030190" lon="16.4226970">
        <ele>17.9200000</ele>
        <time>2010-12-04T05:50:30Z</time>
      </trkpt>
      <trkpt lat="59.4034420" lon="16.4213430">
        <ele>19.8400000</ele>
        <time>2010-12-04T05:50:46Z</time>
      </trkpt>
      <trkpt lat="59.4035800" lon="16.4208600">
        <ele>20.8100000</ele>
        <time>2010-12-04T05:50:52Z</time>
      </trkpt>
      <trkpt lat="59.4036100" lon="16.4207970">
        <ele>20.8100000</ele>
        <time>2010-12-04T05:50:53Z</time>
      </trkpt>
      <trkpt lat="59.4036480" lon="16.4207500">
        <ele>21.2900000</ele>
        <time>2010-12-04T05:50:54Z</time>
      </trkpt>
      <trkpt lat="59.4036870" lon="16.4207080">
        <ele>22.2500000</ele>
        <time>2010-12-04T05:50:55Z</time>
      </trkpt>
      <trkpt lat="59.4037210" lon="16.4206700">
        <ele>21.7700000</ele>
        <time>2010-12-04T05:50:56Z</time>
      </trkpt>
      <trkpt lat="59.4037550" lon="16.4206240">
        <ele>22.2500000</ele>
        <time>2010-12-04T05:50:57Z</time>
      </trkpt>
      <trkpt lat="59.4037860" lon="16.4205680">
        <ele>22.7300000</ele>
        <time>2010-12-04T05:50:58Z</time>
      </trkpt>
      <trkpt lat="59.4038050" lon="16.4205040">
        <ele>22.2500000</ele>
        <time>2010-12-04T05:50:59Z</time>
      </trkpt>
      <trkpt lat="59.4038200" lon="16.4204290">
        <ele>22.2500000</ele>
        <time>2010-12-04T05:51:00Z</time>
      </trkpt>
      <trkpt lat="59.4038200" lon="16.4203550">
        <ele>22.2500000</ele>
        <time>2010-12-04T05:51:01Z</time>
      </trkpt>
      <trkpt lat="59.4038120" lon="16.4202790">
        <ele>21.7700000</ele>
        <time>2010-12-04T05:51:02Z</time>
      </trkpt>
      <trkpt lat="59.4037970" lon="16.4202100">
        <ele>21.7700000</ele>
        <time>2010-12-04T05:51:03Z</time>
      </trkpt>
      <trkpt lat="59.4037740" lon="16.4201470">
        <ele>21.7700000</ele>
        <time>2010-12-04T05:51:04Z</time>
      </trkpt>
      <trkpt lat="59.4037440" lon="16.4200950">
        <ele>21.7700000</ele>
        <time>2010-12-04T05:51:05Z</time>
      </trkpt>
      <trkpt lat="59.4037060" lon="16.4200670">
        <ele>21.2900000</ele>
        <time>2010-12-04T05:51:06Z</time>
      </trkpt>
      <trkpt lat="59.4036640" lon="16.4200570">
        <ele>21.7700000</ele>
        <time>2010-12-04T05:51:07Z</time>
      </trkpt>
      <trkpt lat="59.4036220" lon="16.4200570">
        <ele>21.2900000</ele>
        <time>2010-12-04T05:51:08Z</time>
      </trkpt>
      <trkpt lat="59.4035300" lon="16.4200520">
        <ele>21.2900000</ele>
        <time>2010-12-04T05:51:10Z</time>
      </trkpt>
      <trkpt lat="59.4033890" lon="16.4200020">
        <ele>20.8100000</ele>
        <time>2010-12-04T05:51:13Z</time>
      </trkpt>
      <trkpt lat="59.4028020" lon="16.4194240">
        <ele>20.3200000</ele>
        <time>2010-12-04T05:51:26Z</time>
      </trkpt>
      <trkpt lat="59.4021490" lon="16.4186130">
        <ele>20.3200000</ele>
        <time>2010-12-04T05:51:41Z</time>
      </trkpt>
      <trkpt lat="59.4016040" lon="16.4176160">
        <ele>21.7700000</ele>
        <time>2010-12-04T05:51:56Z</time>
      </trkpt>
      <trkpt lat="59.4012220" lon="16.4165940">
        <ele>22.2500000</ele>
        <time>2010-12-04T05:52:09Z</time>
      </trkpt>
      <trkpt lat="59.4008900" lon="16.4150910">
        <ele>20.3200000</ele>
        <time>2010-12-04T05:52:25Z</time>
      </trkpt>
      <trkpt lat="59.4007030" lon="16.4135510">
        <ele>21.7700000</ele>
        <time>2010-12-04T05:52:41Z</time>
      </trkpt>
      <trkpt lat="59.4005850" lon="16.4124470">
        <ele>24.1700000</ele>
        <time>2010-12-04T05:52:54Z</time>
      </trkpt>
      <trkpt lat="59.4004940" lon="16.4114670">
        <ele>27.5300000</ele>
        <time>2010-12-04T05:53:07Z</time>
      </trkpt>
      <trkpt lat="59.4004060" lon="16.4105570">
        <ele>29.9400000</ele>
        <time>2010-12-04T05:53:20Z</time>
      </trkpt>
      <trkpt lat="59.4003940" lon="16.4104160">
        <ele>31.3800000</ele>
        <time>2010-12-04T05:53:22Z</time>
      </trkpt>
      <trkpt lat="59.4003600" lon="16.4094010">
        <ele>32.8200000</ele>
        <time>2010-12-04T05:53:36Z</time>
      </trkpt>
      <trkpt lat="59.4004360" lon="16.4080660">
        <ele>34.7400000</ele>
        <time>2010-12-04T05:53:52Z</time>
      </trkpt>
      <trkpt lat="59.4006160" lon="16.4068300">
        <ele>35.7100000</ele>
        <time>2010-12-04T05:54:06Z</time>
      </trkpt>
      <trkpt lat="59.4008330" lon="16.4054470">
        <ele>37.1500000</ele>
        <time>2010-12-04T05:54:21Z</time>
      </trkpt>
      <trkpt lat="59.4010160" lon="16.4038790">
        <ele>36.6700000</ele>
        <time>2010-12-04T05:54:37Z</time>
      </trkpt>
      <trkpt lat="59.4011880" lon="16.4022810">
        <ele>37.1500000</ele>
        <time>2010-12-04T05:54:53Z</time>
      </trkpt>
      <trkpt lat="59.4013670" lon="16.4006520">
        <ele>37.1500000</ele>
        <time>2010-12-04T05:55:09Z</time>
      </trkpt>
      <trkpt lat="59.4014850" lon="16.3996560">
        <ele>37.6300000</ele>
        <time>2010-12-04T05:55:19Z</time>
      </trkpt>
      <trkpt lat="59.4017140" lon="16.3984740">
        <ele>35.7100000</ele>
        <time>2010-12-04T05:55:30Z</time>
      </trkpt>
      <trkpt lat="59.4020610" lon="16.3971610">
        <ele>34.7400000</ele>
        <time>2010-12-04T05:55:42Z</time>
      </trkpt>
      <trkpt lat="59.4024160" lon="16.3957730">
        <ele>33.3000000</ele>
        <time>2010-12-04T05:55:55Z</time>
      </trkpt>
      <trkpt lat="59.4028890" lon="16.3938920">
        <ele>34.2600000</ele>
        <time>2010-12-04T05:56:13Z</time>
      </trkpt>
      <trkpt lat="59.4032750" lon="16.3923470">
        <ele>33.7800000</ele>
        <time>2010-12-04T05:56:28Z</time>
      </trkpt>
      <trkpt lat="59.4036060" lon="16.3909530">
        <ele>35.2300000</ele>
        <time>2010-12-04T05:56:42Z</time>
      </trkpt>
      <trkpt lat="59.4038890" lon="16.3900510">
        <ele>36.1900000</ele>
        <time>2010-12-04T05:56:53Z</time>
      </trkpt>
      <trkpt lat="59.4042660" lon="16.3889430">
        <ele>39.5500000</ele>
        <time>2010-12-04T05:57:07Z</time>
      </trkpt>
      <trkpt lat="59.4046290" lon="16.3877280">
        <ele>38.5900000</ele>
        <time>2010-12-04T05:57:20Z</time>
      </trkpt>
      <trkpt lat="59.4050370" lon="16.3861480">
        <ele>37.1500000</ele>
        <time>2010-12-04T05:57:34Z</time>
      </trkpt>
      <trkpt lat="59.4054030" lon="16.3845060">
        <ele>35.7100000</ele>
        <time>2010-12-04T05:57:47Z</time>
      </trkpt>
      <trkpt lat="59.4055900" lon="16.3830380">
        <ele>32.3400000</ele>
        <time>2010-12-04T05:57:57Z</time>
      </trkpt>
      <trkpt lat="59.4055860" lon="16.3811490">
        <ele>30.9000000</ele>
        <time>2010-12-04T05:58:09Z</time>
      </trkpt>
      <trkpt lat="59.4053460" lon="16.3790720">
        <ele>28.0200000</ele>
        <time>2010-12-04T05:58:23Z</time>
      </trkpt>
      <trkpt lat="59.4052350" lon="16.3780730">
        <ele>28.0200000</ele>
        <time>2010-12-04T05:58:30Z</time>
      </trkpt>
      <trkpt lat="59.4052350" lon="16.3779410">
        <ele>28.0200000</ele>
        <time>2010-12-04T05:58:31Z</time>
      </trkpt>
      <trkpt lat="59.4052430" lon="16.3778130">
        <ele>28.0200000</ele>
        <time>2010-12-04T05:58:32Z</time>
      </trkpt>
      <trkpt lat="59.4052580" lon="16.3776870">
        <ele>28.0200000</ele>
        <time>2010-12-04T05:58:33Z</time>
      </trkpt>
      <trkpt lat="59.4052810" lon="16.3775650">
        <ele>27.5300000</ele>
        <time>2010-12-04T05:58:34Z</time>
      </trkpt>
      <trkpt lat="59.4053080" lon="16.3774550">
        <ele>28.0200000</ele>
        <time>2010-12-04T05:58:35Z</time>
      </trkpt>
      <trkpt lat="59.4053380" lon="16.3773570">
        <ele>28.0200000</ele>
        <time>2010-12-04T05:58:36Z</time>
      </trkpt>
      <trkpt lat="59.4053760" lon="16.3772750">
        <ele>28.5000000</ele>
        <time>2010-12-04T05:58:37Z</time>
      </trkpt>
      <trkpt lat="59.4054180" lon="16.3772070">
        <ele>28.5000000</ele>
        <time>2010-12-04T05:58:38Z</time>
      </trkpt>
      <trkpt lat="59.4054600" lon="16.3771500">
        <ele>28.5000000</ele>
        <time>2010-12-04T05:58:39Z</time>
      </trkpt>
      <trkpt lat="59.4055020" lon="16.3771040">
        <ele>28.9800000</ele>
        <time>2010-12-04T05:58:40Z</time>
      </trkpt>
      <trkpt lat="59.4055440" lon="16.3770730">
        <ele>28.5000000</ele>
        <time>2010-12-04T05:58:41Z</time>
      </trkpt>
      <trkpt lat="59.4055860" lon="16.3770500">
        <ele>28.5000000</ele>
        <time>2010-12-04T05:58:42Z</time>
      </trkpt>
      <trkpt lat="59.4056280" lon="16.3770310">
        <ele>28.9800000</ele>
        <time>2010-12-04T05:58:43Z</time>
      </trkpt>
      <trkpt lat="59.4058380" lon="16.3768370">
        <ele>28.5000000</ele>
        <time>2010-12-04T05:58:49Z</time>
      </trkpt>
      <trkpt lat="59.4058650" lon="16.3767680">
        <ele>28.0200000</ele>
        <time>2010-12-04T05:58:50Z</time>
      </trkpt>
      <trkpt lat="59.4058840" lon="16.3766860">
        <ele>27.5300000</ele>
        <time>2010-12-04T05:58:51Z</time>
      </trkpt>
      <trkpt lat="59.4059030" lon="16.3765980">
        <ele>28.0200000</ele>
        <time>2010-12-04T05:58:52Z</time>
      </trkpt>
      <trkpt lat="59.4059100" lon="16.3765070">
        <ele>27.5300000</ele>
        <time>2010-12-04T05:58:53Z</time>
      </trkpt>
      <trkpt lat="59.4059140" lon="16.3764110">
        <ele>27.5300000</ele>
        <time>2010-12-04T05:58:54Z</time>
      </trkpt>
      <trkpt lat="59.4059100" lon="16.3763120">
        <ele>27.5300000</ele>
        <time>2010-12-04T05:58:55Z</time>
      </trkpt>
      <trkpt lat="59.4059070" lon="16.3762090">
        <ele>27.5300000</ele>
        <time>2010-12-04T05:58:56Z</time>
      </trkpt>
      <trkpt lat="59.4059180" lon="16.3750170">
        <ele>27.0500000</ele>
        <time>2010-12-04T05:59:06Z</time>
      </trkpt>
      <trkpt lat="59.4061740" lon="16.3737890">
        <ele>27.0500000</ele>
        <time>2010-12-04T05:59:17Z</time>
      </trkpt>
      <trkpt lat="59.4066390" lon="16.3727990">
        <ele>27.0500000</ele>
        <time>2010-12-04T05:59:28Z</time>
      </trkpt>
      <trkpt lat="59.4073450" lon="16.3720230">
        <ele>27.5300000</ele>
        <time>2010-12-04T05:59:41Z</time>
      </trkpt>
      <trkpt lat="59.4075810" lon="16.3718760">
        <ele>27.0500000</ele>
        <time>2010-12-04T05:59:45Z</time>
      </trkpt>
      <trkpt lat="59.4076460" lon="16.3718590">
        <ele>27.0500000</ele>
        <time>2010-12-04T05:59:46Z</time>
      </trkpt>
      <trkpt lat="59.4084470" lon="16.3717590">
        <ele>27.0500000</ele>
        <time>2010-12-04T05:59:59Z</time>
      </trkpt>
      <trkpt lat="59.4087680" lon="16.3717650">
        <ele>27.0500000</ele>
        <time>2010-12-04T06:00:05Z</time>
      </trkpt>
      <trkpt lat="59.4088130" lon="16.3717880">
        <ele>27.0500000</ele>
        <time>2010-12-04T06:00:06Z</time>
      </trkpt>
      <trkpt lat="59.4088590" lon="16.3718200">
        <ele>27.0500000</ele>
        <time>2010-12-04T06:00:07Z</time>
      </trkpt>
      <trkpt lat="59.4089890" lon="16.3719220">
        <ele>27.5300000</ele>
        <time>2010-12-04T06:00:10Z</time>
      </trkpt>
      <trkpt lat="59.4090350" lon="16.3719370">
        <ele>27.5300000</ele>
        <time>2010-12-04T06:00:11Z</time>
      </trkpt>
      <trkpt lat="59.4090810" lon="16.3719330">
        <ele>27.5300000</ele>
        <time>2010-12-04T06:00:12Z</time>
      </trkpt>
      <trkpt lat="59.4091220" lon="16.3719180">
        <ele>27.5300000</ele>
        <time>2010-12-04T06:00:13Z</time>
      </trkpt>
      <trkpt lat="59.4091640" lon="16.3718930">
        <ele>28.0200000</ele>
        <time>2010-12-04T06:00:14Z</time>
      </trkpt>
      <trkpt lat="59.4092030" lon="16.3718610">
        <ele>28.0200000</ele>
        <time>2010-12-04T06:00:15Z</time>
      </trkpt>
      <trkpt lat="59.4092370" lon="16.3718200">
        <ele>27.5300000</ele>
        <time>2010-12-04T06:00:16Z</time>
      </trkpt>
      <trkpt lat="59.4092670" lon="16.3717730">
        <ele>28.0200000</ele>
        <time>2010-12-04T06:00:17Z</time>
      </trkpt>
      <trkpt lat="59.4092940" lon="16.3717270">
        <ele>28.0200000</ele>
        <time>2010-12-04T06:00:18Z</time>
      </trkpt>
      <trkpt lat="59.4093060" lon="16.3713190">
        <ele>27.5300000</ele>
        <time>2010-12-04T06:00:25Z</time>
      </trkpt>
      <trkpt lat="59.4090390" lon="16.3710060">
        <ele>27.5300000</ele>
        <time>2010-12-04T06:00:33Z</time>
      </trkpt>
      <trkpt lat="59.4089580" lon="16.3706930">
        <ele>28.0200000</ele>
        <time>2010-12-04T06:00:39Z</time>
      </trkpt>
      <trkpt lat="59.4089620" lon="16.3705410">
        <ele>28.0200000</ele>
        <time>2010-12-04T06:00:41Z</time>
      </trkpt>
      <trkpt lat="59.4089700" lon="16.3695340">
        <ele>28.5000000</ele>
        <time>2010-12-04T06:00:52Z</time>
      </trkpt>
      <trkpt lat="59.4090420" lon="16.3687880">
        <ele>29.9400000</ele>
        <time>2010-12-04T06:01:00Z</time>
      </trkpt>
      <trkpt lat="59.4090580" lon="16.3687000">
        <ele>29.9400000</ele>
        <time>2010-12-04T06:01:01Z</time>
      </trkpt>
      <trkpt lat="59.4092710" lon="16.3675540">
        <ele>30.9000000</ele>
        <time>2010-12-04T06:01:14Z</time>
      </trkpt>
      <trkpt lat="59.4095420" lon="16.3664880">
        <ele>28.5000000</ele>
        <time>2010-12-04T06:01:25Z</time>
      </trkpt>
      <trkpt lat="59.4099080" lon="16.3650590">
        <ele>27.5300000</ele>
        <time>2010-12-04T06:01:38Z</time>
      </trkpt>
      <trkpt lat="59.4100690" lon="16.3637280">
        <ele>27.5300000</ele>
        <time>2010-12-04T06:01:50Z</time>
      </trkpt>
      <trkpt lat="59.4100230" lon="16.3623960">
        <ele>26.0900000</ele>
        <time>2010-12-04T06:02:01Z</time>
      </trkpt>
      <trkpt lat="59.4098010" lon="16.3608650">
        <ele>25.6100000</ele>
        <time>2010-12-04T06:02:14Z</time>
      </trkpt>
      <trkpt lat="59.4097520" lon="16.3602830">
        <ele>25.1300000</ele>
        <time>2010-12-04T06:02:19Z</time>
      </trkpt>
      <trkpt lat="59.4098510" lon="16.3588010">
        <ele>23.6900000</ele>
        <time>2010-12-04T06:02:31Z</time>
      </trkpt>
      <trkpt lat="59.4101410" lon="16.3573460">
        <ele>23.6900000</ele>
        <time>2010-12-04T06:02:44Z</time>
      </trkpt>
      <trkpt lat="59.4105570" lon="16.3559470">
        <ele>23.2100000</ele>
        <time>2010-12-04T06:02:58Z</time>
      </trkpt>
      <trkpt lat="59.4110030" lon="16.3543550">
        <ele>23.2100000</ele>
        <time>2010-12-04T06:03:14Z</time>
      </trkpt>
      <trkpt lat="59.4113120" lon="16.3533950">
        <ele>20.3200000</ele>
        <time>2010-12-04T06:03:23Z</time>
      </trkpt>
      <trkpt lat="59.4118460" lon="16.3523810">
        <ele>17.9200000</ele>
        <time>2010-12-04T06:03:34Z</time>
      </trkpt>
      <trkpt lat="59.4124640" lon="16.3511850">
        <ele>18.8800000</ele>
        <time>2010-12-04T06:03:47Z</time>
      </trkpt>
      <trkpt lat="59.4127770" lon="16.3502080">
        <ele>19.8400000</ele>
        <time>2010-12-04T06:03:58Z</time>
      </trkpt>
      <trkpt lat="59.4130250" lon="16.3493230">
        <ele>17.4400000</ele>
        <time>2010-12-04T06:04:06Z</time>
      </trkpt>
      <trkpt lat="59.4132880" lon="16.3483310">
        <ele>14.0800000</ele>
        <time>2010-12-04T06:04:14Z</time>
      </trkpt>
      <trkpt lat="59.4133950" lon="16.3479420">
        <ele>12.6300000</ele>
        <time>2010-12-04T06:04:17Z</time>
      </trkpt>
      <trkpt lat="59.4137150" lon="16.3467410">
        <ele>14.5600000</ele>
        <time>2010-12-04T06:04:28Z</time>
      </trkpt>
      <trkpt lat="59.4140320" lon="16.3456080">
        <ele>16.0000000</ele>
        <time>2010-12-04T06:04:41Z</time>
      </trkpt>
      <trkpt lat="59.4144670" lon="16.3445320">
        <ele>16.4800000</ele>
        <time>2010-12-04T06:04:54Z</time>
      </trkpt>
      <trkpt lat="59.4150960" lon="16.3435990">
        <ele>17.4400000</ele>
        <time>2010-12-04T06:05:09Z</time>
      </trkpt>
      <trkpt lat="59.4158130" lon="16.3427770">
        <ele>16.0000000</ele>
        <time>2010-12-04T06:05:24Z</time>
      </trkpt>
      <trkpt lat="59.4165690" lon="16.3424470">
        <ele>15.5200000</ele>
        <time>2010-12-04T06:05:37Z</time>
      </trkpt>
      <trkpt lat="59.4172900" lon="16.3422450">
        <ele>15.0400000</ele>
        <time>2010-12-04T06:05:50Z</time>
      </trkpt>
      <trkpt lat="59.4181520" lon="16.3420370">
        <ele>15.0400000</ele>
        <time>2010-12-04T06:06:05Z</time>
      </trkpt>
      <trkpt lat="59.4189610" lon="16.3418140">
        <ele>16.9600000</ele>
        <time>2010-12-04T06:06:21Z</time>
      </trkpt>
      <trkpt lat="59.4195670" lon="16.3416020">
        <ele>19.3600000</ele>
        <time>2010-12-04T06:06:34Z</time>
      </trkpt>
      <trkpt lat="59.4203720" lon="16.3412900">
        <ele>17.4400000</ele>
        <time>2010-12-04T06:06:50Z</time>
      </trkpt>
      <trkpt lat="59.4212950" lon="16.3408050">
        <ele>17.9200000</ele>
        <time>2010-12-04T06:07:07Z</time>
      </trkpt>
      <trkpt lat="59.4218030" lon="16.3405090">
        <ele>16.9600000</ele>
        <time>2010-12-04T06:07:18Z</time>
      </trkpt>
      <trkpt lat="59.4218900" lon="16.3402330">
        <ele>16.4800000</ele>
        <time>2010-12-04T06:07:24Z</time>
      </trkpt>
      <trkpt lat="59.4219250" lon="16.3401870">
        <ele>16.4800000</ele>
        <time>2010-12-04T06:07:25Z</time>
      </trkpt>
      <trkpt lat="59.4219670" lon="16.3401430">
        <ele>16.4800000</ele>
        <time>2010-12-04T06:07:26Z</time>
      </trkpt>
      <trkpt lat="59.4223670" lon="16.3395650">
        <ele>14.5600000</ele>
        <time>2010-12-04T06:07:35Z</time>
      </trkpt>
      <trkpt lat="59.4226300" lon="16.3389400">
        <ele>11.6700000</ele>
        <time>2010-12-04T06:07:42Z</time>
      </trkpt>
      <trkpt lat="59.4228210" lon="16.3382840">
        <ele>9.2700000</ele>
        <time>2010-12-04T06:07:48Z</time>
      </trkpt>
      <trkpt lat="59.4230120" lon="16.3373470">
        <ele>7.8300000</ele>
        <time>2010-12-04T06:07:57Z</time>
      </trkpt>
      <trkpt lat="59.4230230" lon="16.3372610">
        <ele>8.3100000</ele>
        <time>2010-12-04T06:07:58Z</time>
      </trkpt>
      <trkpt lat="59.4230270" lon="16.3371810">
        <ele>8.3100000</ele>
        <time>2010-12-04T06:07:59Z</time>
      </trkpt>
      <trkpt lat="59.4230230" lon="16.3371010">
        <ele>8.3100000</ele>
        <time>2010-12-04T06:08:00Z</time>
      </trkpt>
      <trkpt lat="59.4230190" lon="16.3370130">
        <ele>9.2700000</ele>
        <time>2010-12-04T06:08:01Z</time>
      </trkpt>
      <trkpt lat="59.4230120" lon="16.3369180">
        <ele>8.3100000</ele>
        <time>2010-12-04T06:08:02Z</time>
      </trkpt>
      <trkpt lat="59.4228170" lon="16.3354300">
        <ele>8.7900000</ele>
        <time>2010-12-04T06:08:16Z</time>
      </trkpt>
      <trkpt lat="59.4224970" lon="16.3342300">
        <ele>9.7500000</ele>
        <time>2010-12-04T06:08:29Z</time>
      </trkpt>
      <trkpt lat="59.4220890" lon="16.3329490">
        <ele>12.1500000</ele>
        <time>2010-12-04T06:08:45Z</time>
      </trkpt>
      <trkpt lat="59.4217830" lon="16.3318410">
        <ele>13.6000000</ele>
        <time>2010-12-04T06:08:59Z</time>
      </trkpt>
      <trkpt lat="59.4215770" lon="16.3305610">
        <ele>14.5600000</ele>
        <time>2010-12-04T06:09:13Z</time>
      </trkpt>
      <trkpt lat="59.4215240" lon="16.3289280">
        <ele>15.0400000</ele>
        <time>2010-12-04T06:09:29Z</time>
      </trkpt>
      <trkpt lat="59.4217220" lon="16.3275490">
        <ele>18.4000000</ele>
        <time>2010-12-04T06:09:43Z</time>
      </trkpt>
      <trkpt lat="59.4220090" lon="16.3260780">
        <ele>19.3600000</ele>
        <time>2010-12-04T06:09:59Z</time>
      </trkpt>
      <trkpt lat="59.4221840" lon="16.3244510">
        <ele>18.8800000</ele>
        <time>2010-12-04T06:10:15Z</time>
      </trkpt>
      <trkpt lat="59.4222450" lon="16.3231950">
        <ele>20.3200000</ele>
        <time>2010-12-04T06:10:28Z</time>
      </trkpt>
      <trkpt lat="59.4222720" lon="16.3227500">
        <ele>21.2900000</ele>
        <time>2010-12-04T06:10:33Z</time>
      </trkpt>
      <trkpt lat="59.4222870" lon="16.3224050">
        <ele>21.7700000</ele>
        <time>2010-12-04T06:10:37Z</time>
      </trkpt>
      <trkpt lat="59.4222950" lon="16.3222430">
        <ele>21.7700000</ele>
        <time>2010-12-04T06:10:39Z</time>
      </trkpt>
      <trkpt lat="59.4223520" lon="16.3210090">
        <ele>24.1700000</ele>
        <time>2010-12-04T06:10:54Z</time>
      </trkpt>
      <trkpt lat="59.4224170" lon="16.3197880">
        <ele>25.1300000</ele>
        <time>2010-12-04T06:11:09Z</time>
      </trkpt>
      <trkpt lat="59.4224780" lon="16.3184360">
        <ele>25.6100000</ele>
        <time>2010-12-04T06:11:24Z</time>
      </trkpt>
      <trkpt lat="59.4224970" lon="16.3169920">
        <ele>26.0900000</ele>
        <time>2010-12-04T06:11:39Z</time>
      </trkpt>
      <trkpt lat="59.4224620" lon="16.3160130">
        <ele>28.0200000</ele>
        <time>2010-12-04T06:11:51Z</time>
      </trkpt>
      <trkpt lat="59.4223710" lon="16.3149760">
        <ele>30.4200000</ele>
        <time>2010-12-04T06:12:05Z</time>
      </trkpt>
      <trkpt lat="59.4222180" lon="16.3136650">
        <ele>32.8200000</ele>
        <time>2010-12-04T06:12:23Z</time>
      </trkpt>
      <trkpt lat="59.4220580" lon="16.3124790">
        <ele>35.2300000</ele>
        <time>2010-12-04T06:12:39Z</time>
      </trkpt>
      <trkpt lat="59.4219210" lon="16.3114990">
        <ele>36.1900000</ele>
        <time>2010-12-04T06:12:52Z</time>
      </trkpt>
      <trkpt lat="59.4217640" lon="16.3103260">
        <ele>36.6700000</ele>
        <time>2010-12-04T06:13:06Z</time>
      </trkpt>
      <trkpt lat="59.4216310" lon="16.3091930">
        <ele>34.2600000</ele>
        <time>2010-12-04T06:13:17Z</time>
      </trkpt>
      <trkpt lat="59.4216080" lon="16.3089580">
        <ele>33.7800000</ele>
        <time>2010-12-04T06:13:19Z</time>
      </trkpt>
      <trkpt lat="59.4215510" lon="16.3080640">
        <ele>31.3800000</ele>
        <time>2010-12-04T06:13:26Z</time>
      </trkpt>
      <trkpt lat="59.4215550" lon="16.3070160">
        <ele>28.0200000</ele>
        <time>2010-12-04T06:13:33Z</time>
      </trkpt>
      <trkpt lat="59.4215970" lon="16.3062040">
        <ele>24.6500000</ele>
        <time>2010-12-04T06:13:38Z</time>
      </trkpt>
      <trkpt lat="59.4216080" lon="16.3060400">
        <ele>24.6500000</ele>
        <time>2010-12-04T06:13:39Z</time>
      </trkpt>
      <trkpt lat="59.4218100" lon="16.3041110">
        <ele>22.7300000</ele>
        <time>2010-12-04T06:13:51Z</time>
      </trkpt>
      <trkpt lat="59.4219590" lon="16.3033370">
        <ele>24.6500000</ele>
        <time>2010-12-04T06:13:58Z</time>
      </trkpt>
      <trkpt lat="59.4220310" lon="16.3029630">
        <ele>26.0900000</ele>
        <time>2010-12-04T06:14:02Z</time>
      </trkpt>
      <trkpt lat="59.4220770" lon="16.3027990">
        <ele>26.5700000</ele>
        <time>2010-12-04T06:14:04Z</time>
      </trkpt>
      <trkpt lat="59.4222450" lon="16.3018910">
        <ele>27.5300000</ele>
        <time>2010-12-04T06:14:14Z</time>
      </trkpt>
      <trkpt lat="59.4223250" lon="16.3006020">
        <ele>28.0200000</ele>
        <time>2010-12-04T06:14:27Z</time>
      </trkpt>
      <trkpt lat="59.4221840" lon="16.2993580">
        <ele>26.0900000</ele>
        <time>2010-12-04T06:14:39Z</time>
      </trkpt>
      <trkpt lat="59.4220280" lon="16.2986050">
        <ele>22.7300000</ele>
        <time>2010-12-04T06:14:45Z</time>
      </trkpt>
      <trkpt lat="59.4219970" lon="16.2984750">
        <ele>22.7300000</ele>
        <time>2010-12-04T06:14:46Z</time>
      </trkpt>
      <trkpt lat="59.4218480" lon="16.2977790">
        <ele>20.8100000</ele>
        <time>2010-12-04T06:14:51Z</time>
      </trkpt>
      <trkpt lat="59.4216540" lon="16.2968940">
        <ele>17.4400000</ele>
        <time>2010-12-04T06:14:57Z</time>
      </trkpt>
      <trkpt lat="59.4212720" lon="16.2950630">
        <ele>16.0000000</ele>
        <time>2010-12-04T06:15:10Z</time>
      </trkpt>
      <trkpt lat="59.4210240" lon="16.2935750">
        <ele>17.4400000</ele>
        <time>2010-12-04T06:15:23Z</time>
      </trkpt>
      <trkpt lat="59.4207800" lon="16.2920070">
        <ele>17.9200000</ele>
        <time>2010-12-04T06:15:39Z</time>
      </trkpt>
      <trkpt lat="59.4205170" lon="16.2905450">
        <ele>16.0000000</ele>
        <time>2010-12-04T06:15:52Z</time>
      </trkpt>
      <trkpt lat="59.4201550" lon="16.2892530">
        <ele>16.0000000</ele>
        <time>2010-12-04T06:16:04Z</time>
      </trkpt>
      <trkpt lat="59.4196470" lon="16.2878800">
        <ele>15.5200000</ele>
        <time>2010-12-04T06:16:19Z</time>
      </trkpt>
      <trkpt lat="59.4190790" lon="16.2863520">
        <ele>16.4800000</ele>
        <time>2010-12-04T06:16:36Z</time>
      </trkpt>
      <trkpt lat="59.4185140" lon="16.2848850">
        <ele>16.0000000</ele>
        <time>2010-12-04T06:16:52Z</time>
      </trkpt>
      <trkpt lat="59.4179460" lon="16.2833880">
        <ele>14.0800000</ele>
        <time>2010-12-04T06:17:07Z</time>
      </trkpt>
      <trkpt lat="59.4174000" lon="16.2819900">
        <ele>16.0000000</ele>
        <time>2010-12-04T06:17:22Z</time>
      </trkpt>
      <trkpt lat="59.4169240" lon="16.2807900">
        <ele>15.5200000</ele>
        <time>2010-12-04T06:17:36Z</time>
      </trkpt>
      <trkpt lat="59.4166340" lon="16.2801320">
        <ele>12.6300000</ele>
        <time>2010-12-04T06:17:43Z</time>
      </trkpt>
      <trkpt lat="59.4160500" lon="16.2789820">
        <ele>13.1200000</ele>
        <time>2010-12-04T06:17:57Z</time>
      </trkpt>
      <trkpt lat="59.4159280" lon="16.2787720">
        <ele>13.1200000</ele>
        <time>2010-12-04T06:18:00Z</time>
      </trkpt>
      <trkpt lat="59.4158940" lon="16.2787080">
        <ele>14.0800000</ele>
        <time>2010-12-04T06:18:01Z</time>
      </trkpt>
      <trkpt lat="59.4158170" lon="16.2785780">
        <ele>14.0800000</ele>
        <time>2010-12-04T06:18:03Z</time>
      </trkpt>
      <trkpt lat="59.4157790" lon="16.2785070">
        <ele>14.5600000</ele>
        <time>2010-12-04T06:18:04Z</time>
      </trkpt>
      <trkpt lat="59.4157370" lon="16.2784420">
        <ele>15.0400000</ele>
        <time>2010-12-04T06:18:05Z</time>
      </trkpt>
      <trkpt lat="59.4156990" lon="16.2783780">
        <ele>15.0400000</ele>
        <time>2010-12-04T06:18:06Z</time>
      </trkpt>
      <trkpt lat="59.4156610" lon="16.2783130">
        <ele>15.0400000</ele>
        <time>2010-12-04T06:18:07Z</time>
      </trkpt>
      <trkpt lat="59.4150660" lon="16.2773170">
        <ele>16.4800000</ele>
        <time>2010-12-04T06:18:23Z</time>
      </trkpt>
      <trkpt lat="59.4144900" lon="16.2763690">
        <ele>17.4400000</ele>
        <time>2010-12-04T06:18:37Z</time>
      </trkpt>
      <trkpt lat="59.4138760" lon="16.2753620">
        <ele>15.0400000</ele>
        <time>2010-12-04T06:18:51Z</time>
      </trkpt>
      <trkpt lat="59.4131770" lon="16.2742520">
        <ele>13.1200000</ele>
        <time>2010-12-04T06:19:06Z</time>
      </trkpt>
      <trkpt lat="59.4124980" lon="16.2731570">
        <ele>10.7100000</ele>
        <time>2010-12-04T06:19:20Z</time>
      </trkpt>
      <trkpt lat="59.4118120" lon="16.2719820">
        <ele>10.7100000</ele>
        <time>2010-12-04T06:19:35Z</time>
      </trkpt>
      <trkpt lat="59.4112240" lon="16.2707580">
        <ele>10.2300000</ele>
        <time>2010-12-04T06:19:50Z</time>
      </trkpt>
      <trkpt lat="59.4107510" lon="16.2693650">
        <ele>8.3100000</ele>
        <time>2010-12-04T06:20:05Z</time>
      </trkpt>
      <trkpt lat="59.4104000" lon="16.2679100">
        <ele>5.4200000</ele>
        <time>2010-12-04T06:20:18Z</time>
      </trkpt>
      <trkpt lat="59.4101490" lon="16.2662120">
        <ele>3.0200000</ele>
        <time>2010-12-04T06:20:32Z</time>
      </trkpt>
      <trkpt lat="59.4099690" lon="16.2643510">
        <ele>3.0200000</ele>
        <time>2010-12-04T06:20:48Z</time>
      </trkpt>
      <trkpt lat="59.4098930" lon="16.2630440">
        <ele>3.0200000</ele>
        <time>2010-12-04T06:21:01Z</time>
      </trkpt>
      <trkpt lat="59.4098130" lon="16.2617840">
        <ele>4.4600000</ele>
        <time>2010-12-04T06:21:15Z</time>
      </trkpt>
      <trkpt lat="59.4097330" lon="16.2605530">
        <ele>7.3500000</ele>
        <time>2010-12-04T06:21:30Z</time>
      </trkpt>
      <trkpt lat="59.4096370" lon="16.2591860">
        <ele>8.7900000</ele>
        <time>2010-12-04T06:21:47Z</time>
      </trkpt>
      <trkpt lat="59.4095420" lon="16.2578740">
        <ele>9.7500000</ele>
        <time>2010-12-04T06:22:04Z</time>
      </trkpt>
      <trkpt lat="59.4094310" lon="16.2565080">
        <ele>11.1900000</ele>
        <time>2010-12-04T06:22:21Z</time>
      </trkpt>
      <trkpt lat="59.4092750" lon="16.2551710">
        <ele>11.6700000</ele>
        <time>2010-12-04T06:22:37Z</time>
      </trkpt>
      <trkpt lat="59.4090960" lon="16.2537380">
        <ele>11.1900000</ele>
        <time>2010-12-04T06:22:53Z</time>
      </trkpt>
      <trkpt lat="59.4088940" lon="16.2521780">
        <ele>11.1900000</ele>
        <time>2010-12-04T06:23:09Z</time>
      </trkpt>
      <trkpt lat="59.4087300" lon="16.2505000">
        <ele>10.7100000</ele>
        <time>2010-12-04T06:23:26Z</time>
      </trkpt>
      <trkpt lat="59.4086040" lon="16.2488040">
        <ele>10.2300000</ele>
        <time>2010-12-04T06:23:43Z</time>
      </trkpt>
      <trkpt lat="59.4083820" lon="16.2473260">
        <ele>10.2300000</ele>
        <time>2010-12-04T06:23:58Z</time>
      </trkpt>
      <trkpt lat="59.4079900" lon="16.2462710">
        <ele>10.7100000</ele>
        <time>2010-12-04T06:24:12Z</time>
      </trkpt>
      <trkpt lat="59.4076810" lon="16.2455140">
        <ele>11.6700000</ele>
        <time>2010-12-04T06:24:26Z</time>
      </trkpt>
      <trkpt lat="59.4076770" lon="16.2452220">
        <ele>11.1900000</ele>
        <time>2010-12-04T06:24:34Z</time>
      </trkpt>
      <trkpt lat="59.4076770" lon="16.2452180">
        <ele>11.6700000</ele>
        <time>2010-12-04T06:24:46Z</time>
      </trkpt>
      <trkpt lat="59.4076810" lon="16.2452260">
        <ele>11.6700000</ele>
        <time>2010-12-04T06:25:11Z</time>
      </trkpt>
      <trkpt lat="59.4076810" lon="16.2452260">
        <ele>11.1900000</ele>
        <time>2010-12-04T06:25:30Z</time>
      </trkpt>
      <trkpt lat="59.4076810" lon="16.2452260">
        <ele>11.6700000</ele>
        <time>2010-12-04T06:25:49Z</time>
      </trkpt>
      <trkpt lat="59.4077150" lon="16.2450240">
        <ele>11.6700000</ele>
        <time>2010-12-04T06:26:07Z</time>
      </trkpt>
      <trkpt lat="59.4078640" lon="16.2444310">
        <ele>11.6700000</ele>
        <time>2010-12-04T06:26:16Z</time>
      </trkpt>
      <trkpt lat="59.4081380" lon="16.2432670">
        <ele>10.7100000</ele>
        <time>2010-12-04T06:26:30Z</time>
      </trkpt>
      <trkpt lat="59.4084550" lon="16.2418800">
        <ele>9.7500000</ele>
        <time>2010-12-04T06:26:43Z</time>
      </trkpt>
      <trkpt lat="59.4087450" lon="16.2405680">
        <ele>8.7900000</ele>
        <time>2010-12-04T06:26:56Z</time>
      </trkpt>
      <trkpt lat="59.4091420" lon="16.2386950">
        <ele>7.3500000</ele>
        <time>2010-12-04T06:27:14Z</time>
      </trkpt>
      <trkpt lat="59.4094540" lon="16.2371640">
        <ele>8.3100000</ele>
        <time>2010-12-04T06:27:30Z</time>
      </trkpt>
      <trkpt lat="59.4096180" lon="16.2363570">
        <ele>10.7100000</ele>
        <time>2010-12-04T06:27:39Z</time>
      </trkpt>
      <trkpt lat="59.4098320" lon="16.2353440">
        <ele>11.1900000</ele>
        <time>2010-12-04T06:27:51Z</time>
      </trkpt>
      <trkpt lat="59.4100910" lon="16.2340740">
        <ele>11.6700000</ele>
        <time>2010-12-04T06:28:06Z</time>
      </trkpt>
      <trkpt lat="59.4103470" lon="16.2328280">
        <ele>12.6300000</ele>
        <time>2010-12-04T06:28:21Z</time>
      </trkpt>
      <trkpt lat="59.4105610" lon="16.2317640">
        <ele>12.6300000</ele>
        <time>2010-12-04T06:28:35Z</time>
      </trkpt>
      <trkpt lat="59.4108350" lon="16.2304500">
        <ele>11.6700000</ele>
        <time>2010-12-04T06:28:50Z</time>
      </trkpt>
      <trkpt lat="59.4111290" lon="16.2289940">
        <ele>10.7100000</ele>
        <time>2010-12-04T06:29:05Z</time>
      </trkpt>
      <trkpt lat="59.4114760" lon="16.2273500">
        <ele>11.1900000</ele>
        <time>2010-12-04T06:29:22Z</time>
      </trkpt>
      <trkpt lat="59.4117970" lon="16.2257840">
        <ele>11.6700000</ele>
        <time>2010-12-04T06:29:38Z</time>
      </trkpt>
      <trkpt lat="59.4120980" lon="16.2243250">
        <ele>12.1500000</ele>
        <time>2010-12-04T06:29:53Z</time>
      </trkpt>
      <trkpt lat="59.4123540" lon="16.2230760">
        <ele>12.6300000</ele>
        <time>2010-12-04T06:30:06Z</time>
      </trkpt>
      <trkpt lat="59.4125790" lon="16.2219890">
        <ele>14.5600000</ele>
        <time>2010-12-04T06:30:18Z</time>
      </trkpt>
      <trkpt lat="59.4127850" lon="16.2208520">
        <ele>16.0000000</ele>
        <time>2010-12-04T06:30:30Z</time>
      </trkpt>
      <trkpt lat="59.4130210" lon="16.2193740">
        <ele>16.0000000</ele>
        <time>2010-12-04T06:30:45Z</time>
      </trkpt>
      <trkpt lat="59.4131850" lon="16.2177960">
        <ele>14.5600000</ele>
        <time>2010-12-04T06:31:00Z</time>
      </trkpt>
      <trkpt lat="59.4133260" lon="16.2157880">
        <ele>12.1500000</ele>
        <time>2010-12-04T06:31:17Z</time>
      </trkpt>
      <trkpt lat="59.4134410" lon="16.2140660">
        <ele>10.2300000</ele>
        <time>2010-12-04T06:31:32Z</time>
      </trkpt>
      <trkpt lat="59.4135590" lon="16.2121330">
        <ele>8.7900000</ele>
        <time>2010-12-04T06:31:48Z</time>
      </trkpt>
      <trkpt lat="59.4136730" lon="16.2104700">
        <ele>7.8300000</ele>
        <time>2010-12-04T06:32:02Z</time>
      </trkpt>
      <trkpt lat="59.4137730" lon="16.2089540">
        <ele>6.8700000</ele>
        <time>2010-12-04T06:32:15Z</time>
      </trkpt>
      <trkpt lat="59.4139020" lon="16.2070560">
        <ele>6.8700000</ele>
        <time>2010-12-04T06:32:33Z</time>
      </trkpt>
      <trkpt lat="59.4140130" lon="16.2054440">
        <ele>6.8700000</ele>
        <time>2010-12-04T06:32:48Z</time>
      </trkpt>
      <trkpt lat="59.4141350" lon="16.2036720">
        <ele>6.3900000</ele>
        <time>2010-12-04T06:33:04Z</time>
      </trkpt>
      <trkpt lat="59.4142530" lon="16.2019520">
        <ele>6.8700000</ele>
        <time>2010-12-04T06:33:20Z</time>
      </trkpt>
      <trkpt lat="59.4143410" lon="16.2006650">
        <ele>6.3900000</ele>
        <time>2010-12-04T06:33:33Z</time>
      </trkpt>
      <trkpt lat="59.4144250" lon="16.1993640">
        <ele>6.3900000</ele>
        <time>2010-12-04T06:33:46Z</time>
      </trkpt>
      <trkpt lat="59.4145090" lon="16.1980320">
        <ele>6.8700000</ele>
        <time>2010-12-04T06:33:59Z</time>
      </trkpt>
      <trkpt lat="59.4146270" lon="16.1964020">
        <ele>6.3900000</ele>
        <time>2010-12-04T06:34:15Z</time>
      </trkpt>
      <trkpt lat="59.4147300" lon="16.1947770">
        <ele>5.9100000</ele>
        <time>2010-12-04T06:34:31Z</time>
      </trkpt>
      <trkpt lat="59.4148670" lon="16.1931020">
        <ele>5.4200000</ele>
        <time>2010-12-04T06:34:47Z</time>
      </trkpt>
      <trkpt lat="59.4150160" lon="16.1915720">
        <ele>5.9100000</ele>
        <time>2010-12-04T06:35:02Z</time>
      </trkpt>
      <trkpt lat="59.4151950" lon="16.1901230">
        <ele>5.4200000</ele>
        <time>2010-12-04T06:35:16Z</time>
      </trkpt>
      <trkpt lat="59.4153480" lon="16.1889080">
        <ele>5.9100000</ele>
        <time>2010-12-04T06:35:28Z</time>
      </trkpt>
      <trkpt lat="59.4155160" lon="16.1875610">
        <ele>5.4200000</ele>
        <time>2010-12-04T06:35:41Z</time>
      </trkpt>
      <trkpt lat="59.4157410" lon="16.1858580">
        <ele>4.9400000</ele>
        <time>2010-12-04T06:35:58Z</time>
      </trkpt>
      <trkpt lat="59.4159470" lon="16.1842080">
        <ele>3.9800000</ele>
        <time>2010-12-04T06:36:15Z</time>
      </trkpt>
      <trkpt lat="59.4161190" lon="16.1828690">
        <ele>3.5000000</ele>
        <time>2010-12-04T06:36:29Z</time>
      </trkpt>
      <trkpt lat="59.4162520" lon="16.1817760">
        <ele>3.5000000</ele>
        <time>2010-12-04T06:36:41Z</time>
      </trkpt>
      <trkpt lat="59.4163930" lon="16.1807160">
        <ele>3.9800000</ele>
        <time>2010-12-04T06:36:53Z</time>
      </trkpt>
      <trkpt lat="59.4165650" lon="16.1796510">
        <ele>3.9800000</ele>
        <time>2010-12-04T06:37:06Z</time>
      </trkpt>
      <trkpt lat="59.4167370" lon="16.1785450">
        <ele>3.5000000</ele>
        <time>2010-12-04T06:37:19Z</time>
      </trkpt>
      <trkpt lat="59.4169390" lon="16.1772170">
        <ele>3.0200000</ele>
        <time>2010-12-04T06:37:34Z</time>
      </trkpt>
      <trkpt lat="59.4171180" lon="16.1760690">
        <ele>3.5000000</ele>
        <time>2010-12-04T06:37:47Z</time>
      </trkpt>
      <trkpt lat="59.4173550" lon="16.1745130">
        <ele>3.0200000</ele>
        <time>2010-12-04T06:38:04Z</time>
      </trkpt>
      <trkpt lat="59.4176030" lon="16.1729050">
        <ele>3.5000000</ele>
        <time>2010-12-04T06:38:22Z</time>
      </trkpt>
      <trkpt lat="59.4178280" lon="16.1714460">
        <ele>3.5000000</ele>
        <time>2010-12-04T06:38:38Z</time>
      </trkpt>
      <trkpt lat="59.4180070" lon="16.1703130">
        <ele>3.0200000</ele>
        <time>2010-12-04T06:38:51Z</time>
      </trkpt>
      <trkpt lat="59.4181790" lon="16.1687260">
        <ele>3.5000000</ele>
        <time>2010-12-04T06:39:09Z</time>
      </trkpt>
      <trkpt lat="59.4182740" lon="16.1673220">
        <ele>3.5000000</ele>
        <time>2010-12-04T06:39:25Z</time>
      </trkpt>
      <trkpt lat="59.4183240" lon="16.1657600">
        <ele>3.5000000</ele>
        <time>2010-12-04T06:39:42Z</time>
      </trkpt>
      <trkpt lat="59.4183010" lon="16.1643370">
        <ele>4.4600000</ele>
        <time>2010-12-04T06:39:58Z</time>
      </trkpt>
      <trkpt lat="59.4183430" lon="16.1633700">
        <ele>4.9400000</ele>
        <time>2010-12-04T06:40:10Z</time>
      </trkpt>
      <trkpt lat="59.4185560" lon="16.1628040">
        <ele>5.9100000</ele>
        <time>2010-12-04T06:40:19Z</time>
      </trkpt>
      <trkpt lat="59.4185870" lon="16.1627520">
        <ele>5.9100000</ele>
        <time>2010-12-04T06:40:20Z</time>
      </trkpt>
      <trkpt lat="59.4190860" lon="16.1619780">
        <ele>6.8700000</ele>
        <time>2010-12-04T06:40:34Z</time>
      </trkpt>
      <trkpt lat="59.4191170" lon="16.1619090">
        <ele>6.3900000</ele>
        <time>2010-12-04T06:40:35Z</time>
      </trkpt>
      <trkpt lat="59.4194410" lon="16.1607510">
        <ele>7.3500000</ele>
        <time>2010-12-04T06:40:49Z</time>
      </trkpt>
      <trkpt lat="59.4196210" lon="16.1595710">
        <ele>7.8300000</ele>
        <time>2010-12-04T06:41:02Z</time>
      </trkpt>
      <trkpt lat="59.4198340" lon="16.1581950">
        <ele>7.3500000</ele>
        <time>2010-12-04T06:41:17Z</time>
      </trkpt>
      <trkpt lat="59.4200520" lon="16.1567480">
        <ele>5.4200000</ele>
        <time>2010-12-04T06:41:30Z</time>
      </trkpt>
      <trkpt lat="59.4203570" lon="16.1547340">
        <ele>3.0200000</ele>
        <time>2010-12-04T06:41:45Z</time>
      </trkpt>
      <trkpt lat="59.4206240" lon="16.1529980">
        <ele>1.5800000</ele>
        <time>2010-12-04T06:41:59Z</time>
      </trkpt>
      <trkpt lat="59.4208980" lon="16.1511970">
        <ele>2.0600000</ele>
        <time>2010-12-04T06:42:15Z</time>
      </trkpt>
      <trkpt lat="59.4211080" lon="16.1498030">
        <ele>1.5800000</ele>
        <time>2010-12-04T06:42:28Z</time>
      </trkpt>
      <trkpt lat="59.4213790" lon="16.1481000">
        <ele>1.5800000</ele>
        <time>2010-12-04T06:42:44Z</time>
      </trkpt>
      <trkpt lat="59.4216080" lon="16.1466240">
        <ele>3.0200000</ele>
        <time>2010-12-04T06:42:59Z</time>
      </trkpt>
      <trkpt lat="59.4217830" lon="16.1454730">
        <ele>3.9800000</ele>
        <time>2010-12-04T06:43:12Z</time>
      </trkpt>
      <trkpt lat="59.4219890" lon="16.1440850">
        <ele>3.9800000</ele>
        <time>2010-12-04T06:43:27Z</time>
      </trkpt>
      <trkpt lat="59.4221990" lon="16.1427330">
        <ele>4.9400000</ele>
        <time>2010-12-04T06:43:42Z</time>
      </trkpt>
      <trkpt lat="59.4224210" lon="16.1412890">
        <ele>5.4200000</ele>
        <time>2010-12-04T06:43:58Z</time>
      </trkpt>
      <trkpt lat="59.4226650" lon="16.1397290">
        <ele>4.9400000</ele>
        <time>2010-12-04T06:44:14Z</time>
      </trkpt>
      <trkpt lat="59.4229430" lon="16.1379360">
        <ele>3.9800000</ele>
        <time>2010-12-04T06:44:31Z</time>
      </trkpt>
      <trkpt lat="59.4230230" lon="16.1375470">
        <ele>3.9800000</ele>
        <time>2010-12-04T06:44:38Z</time>
      </trkpt>
      <trkpt lat="59.4230380" lon="16.1375270">
        <ele>3.9800000</ele>
        <time>2010-12-04T06:44:48Z</time>
      </trkpt>
      <trkpt lat="59.4230380" lon="16.1375270">
        <ele>3.5000000</ele>
        <time>2010-12-04T06:45:13Z</time>
      </trkpt>
      <trkpt lat="59.4230380" lon="16.1375290">
        <ele>3.9800000</ele>
        <time>2010-12-04T06:45:44Z</time>
      </trkpt>
      <trkpt lat="59.4230380" lon="16.1375270">
        <ele>3.5000000</ele>
        <time>2010-12-04T06:46:09Z</time>
      </trkpt>
      <trkpt lat="59.4230380" lon="16.1375270">
        <ele>3.9800000</ele>
        <time>2010-12-04T06:46:36Z</time>
      </trkpt>
      <trkpt lat="59.4230380" lon="16.1375270">
        <ele>4.4600000</ele>
        <time>2010-12-04T06:47:05Z</time>
      </trkpt>
      <trkpt lat="59.4230380" lon="16.1375240">
        <ele>3.9800000</ele>
        <time>2010-12-04T06:47:37Z</time>
      </trkpt>
      <trkpt lat="59.4230350" lon="16.1375100">
        <ele>4.4600000</ele>
        <time>2010-12-04T06:47:52Z</time>
      </trkpt>
      <trkpt lat="59.4230350" lon="16.1374990">
        <ele>4.4600000</ele>
        <time>2010-12-04T06:48:04Z</time>
      </trkpt>
      <trkpt lat="59.4230350" lon="16.1374990">
        <ele>4.4600000</ele>
        <time>2010-12-04T06:48:08Z</time>
      </trkpt>
      <trkpt lat="59.4230380" lon="16.1374680">
        <ele>4.4600000</ele>
        <time>2010-12-04T06:48:09Z</time>
      </trkpt>
      <trkpt lat="59.4230420" lon="16.1374360">
        <ele>4.4600000</ele>
        <time>2010-12-04T06:48:10Z</time>
      </trkpt>
      <trkpt lat="59.4230460" lon="16.1374000">
        <ele>4.9400000</ele>
        <time>2010-12-04T06:48:11Z</time>
      </trkpt>
      <trkpt lat="59.4230460" lon="16.1373620">
        <ele>3.9800000</ele>
        <time>2010-12-04T06:48:12Z</time>
      </trkpt>
      <trkpt lat="59.4230500" lon="16.1373200">
        <ele>4.4600000</ele>
        <time>2010-12-04T06:48:13Z</time>
      </trkpt>
      <trkpt lat="59.4230580" lon="16.1372780">
        <ele>4.4600000</ele>
        <time>2010-12-04T06:48:14Z</time>
      </trkpt>
      <trkpt lat="59.4230650" lon="16.1372300">
        <ele>4.4600000</ele>
        <time>2010-12-04T06:48:15Z</time>
      </trkpt>
      <trkpt lat="59.4231870" lon="16.1364210">
        <ele>4.4600000</ele>
        <time>2010-12-04T06:48:26Z</time>
      </trkpt>
      <trkpt lat="59.4233780" lon="16.1351720">
        <ele>3.9800000</ele>
        <time>2010-12-04T06:48:39Z</time>
      </trkpt>
      <trkpt lat="59.4236180" lon="16.1335890">
        <ele>4.9400000</ele>
        <time>2010-12-04T06:48:54Z</time>
      </trkpt>
      <trkpt lat="59.4238550" lon="16.1320230">
        <ele>4.9400000</ele>
        <time>2010-12-04T06:49:09Z</time>
      </trkpt>
      <trkpt lat="59.4240650" lon="16.1306630">
        <ele>4.9400000</ele>
        <time>2010-12-04T06:49:22Z</time>
      </trkpt>
      <trkpt lat="59.4243090" lon="16.1290700">
        <ele>4.4600000</ele>
        <time>2010-12-04T06:49:37Z</time>
      </trkpt>
      <trkpt lat="59.4245190" lon="16.1276440">
        <ele>5.9100000</ele>
        <time>2010-12-04T06:49:51Z</time>
      </trkpt>
      <trkpt lat="59.4247440" lon="16.1261980">
        <ele>6.8700000</ele>
        <time>2010-12-04T06:50:06Z</time>
      </trkpt>
      <trkpt lat="59.4249040" lon="16.1251850">
        <ele>10.7100000</ele>
        <time>2010-12-04T06:50:16Z</time>
      </trkpt>
      <trkpt lat="59.4249530" lon="16.1248660">
        <ele>7.3500000</ele>
        <time>2010-12-04T06:50:19Z</time>
      </trkpt>
      <trkpt lat="59.4251940" lon="16.1233650">
        <ele>5.9100000</ele>
        <time>2010-12-04T06:50:33Z</time>
      </trkpt>
      <trkpt lat="59.4254260" lon="16.1218530">
        <ele>4.9400000</ele>
        <time>2010-12-04T06:50:46Z</time>
      </trkpt>
      <trkpt lat="59.4255600" lon="16.1205390">
        <ele>3.0200000</ele>
        <time>2010-12-04T06:50:57Z</time>
      </trkpt>
      <trkpt lat="59.4256550" lon="16.1187990">
        <ele>2.0600000</ele>
        <time>2010-12-04T06:51:11Z</time>
      </trkpt>
      <trkpt lat="59.4257740" lon="16.1165710">
        <ele>1.1000000</ele>
        <time>2010-12-04T06:51:29Z</time>
      </trkpt>
      <trkpt lat="59.4259110" lon="16.1149180">
        <ele>2.5400000</ele>
        <time>2010-12-04T06:51:43Z</time>
      </trkpt>
      <trkpt lat="59.4261170" lon="16.1132790">
        <ele>3.0200000</ele>
        <time>2010-12-04T06:51:58Z</time>
      </trkpt>
      <trkpt lat="59.4262960" lon="16.1119170">
        <ele>2.0600000</ele>
        <time>2010-12-04T06:52:11Z</time>
      </trkpt>
      <trkpt lat="59.4265330" lon="16.1105420">
        <ele>1.1000000</ele>
        <time>2010-12-04T06:52:23Z</time>
      </trkpt>
      <trkpt lat="59.4268530" lon="16.1087950">
        <ele>1.1000000</ele>
        <time>2010-12-04T06:52:39Z</time>
      </trkpt>
      <trkpt lat="59.4271240" lon="16.1073090">
        <ele>2.0600000</ele>
        <time>2010-12-04T06:52:53Z</time>
      </trkpt>
      <trkpt lat="59.4272840" lon="16.1060830">
        <ele>2.0600000</ele>
        <time>2010-12-04T06:53:05Z</time>
      </trkpt>
      <trkpt lat="59.4273260" lon="16.1047380">
        <ele>2.5400000</ele>
        <time>2010-12-04T06:53:18Z</time>
      </trkpt>
      <trkpt lat="59.4272880" lon="16.1041410">
        <ele>3.0200000</ele>
        <time>2010-12-04T06:53:24Z</time>
      </trkpt>
      <trkpt lat="59.4271430" lon="16.1029110">
        <ele>2.5400000</ele>
        <time>2010-12-04T06:53:36Z</time>
      </trkpt>
      <trkpt lat="59.4269030" lon="16.1016850">
        <ele>3.9800000</ele>
        <time>2010-12-04T06:53:49Z</time>
      </trkpt>
      <trkpt lat="59.4267310" lon="16.1010060">
        <ele>6.8700000</ele>
        <time>2010-12-04T06:53:59Z</time>
      </trkpt>
      <trkpt lat="59.4267010" lon="16.1008830">
        <ele>7.3500000</ele>
        <time>2010-12-04T06:54:01Z</time>
      </trkpt>
      <trkpt lat="59.4265210" lon="16.1001720">
        <ele>9.7500000</ele>
        <time>2010-12-04T06:54:13Z</time>
      </trkpt>
      <trkpt lat="59.4264830" lon="16.1000020">
        <ele>11.1900000</ele>
        <time>2010-12-04T06:54:16Z</time>
      </trkpt>
      <trkpt lat="59.4263530" lon="16.0993520">
        <ele>14.0800000</ele>
        <time>2010-12-04T06:54:27Z</time>
      </trkpt>
      <trkpt lat="59.4262730" lon="16.0985070">
        <ele>15.5200000</ele>
        <time>2010-12-04T06:54:40Z</time>
      </trkpt>
      <trkpt lat="59.4261740" lon="16.0971570">
        <ele>15.5200000</ele>
        <time>2010-12-04T06:54:56Z</time>
      </trkpt>
      <trkpt lat="59.4260940" lon="16.0959360">
        <ele>15.5200000</ele>
        <time>2010-12-04T06:55:09Z</time>
      </trkpt>
      <trkpt lat="59.4259800" lon="16.0951160">
        <ele>14.5600000</ele>
        <time>2010-12-04T06:55:18Z</time>
      </trkpt>
      <trkpt lat="59.4257700" lon="16.0937580">
        <ele>13.1200000</ele>
        <time>2010-12-04T06:55:30Z</time>
      </trkpt>
      <trkpt lat="59.4258730" lon="16.0925870">
        <ele>11.6700000</ele>
        <time>2010-12-04T06:55:40Z</time>
      </trkpt>
      <trkpt lat="59.4260600" lon="16.0914020">
        <ele>8.3100000</ele>
        <time>2010-12-04T06:55:50Z</time>
      </trkpt>
      <trkpt lat="59.4260900" lon="16.0911660">
        <ele>7.3500000</ele>
        <time>2010-12-04T06:55:52Z</time>
      </trkpt>
      <trkpt lat="59.4261630" lon="16.0907290">
        <ele>5.9100000</ele>
        <time>2010-12-04T06:55:56Z</time>
      </trkpt>
      <trkpt lat="59.4262050" lon="16.0906490">
        <ele>5.4200000</ele>
        <time>2010-12-04T06:55:57Z</time>
      </trkpt>
      <trkpt lat="59.4262580" lon="16.0905780">
        <ele>5.4200000</ele>
        <time>2010-12-04T06:55:58Z</time>
      </trkpt>
      <trkpt lat="59.4263150" lon="16.0905190">
        <ele>5.4200000</ele>
        <time>2010-12-04T06:55:59Z</time>
      </trkpt>
      <trkpt lat="59.4263760" lon="16.0904670">
        <ele>4.4600000</ele>
        <time>2010-12-04T06:56:00Z</time>
      </trkpt>
      <trkpt lat="59.4272420" lon="16.0895900">
        <ele>2.5400000</ele>
        <time>2010-12-04T06:56:13Z</time>
      </trkpt>
      <trkpt lat="59.4279560" lon="16.0888290">
        <ele>0.6200000</ele>
        <time>2010-12-04T06:56:25Z</time>
      </trkpt>
      <trkpt lat="59.4288480" lon="16.0878790">
        <ele>2.0600000</ele>
        <time>2010-12-04T06:56:41Z</time>
      </trkpt>
      <trkpt lat="59.4296800" lon="16.0870020">
        <ele>3.0200000</ele>
        <time>2010-12-04T06:56:57Z</time>
      </trkpt>
      <trkpt lat="59.4304050" lon="16.0862370">
        <ele>1.5800000</ele>
        <time>2010-12-04T06:57:11Z</time>
      </trkpt>
      <trkpt lat="59.4312740" lon="16.0853200">
        <ele>0.6200000</ele>
        <time>2010-12-04T06:57:27Z</time>
      </trkpt>
      <trkpt lat="59.4320720" lon="16.0844750">
        <ele>0.6200000</ele>
        <time>2010-12-04T06:57:42Z</time>
      </trkpt>
      <trkpt lat="59.4328040" lon="16.0836450">
        <ele>1.1000000</ele>
        <time>2010-12-04T06:57:56Z</time>
      </trkpt>
      <trkpt lat="59.4334450" lon="16.0824760">
        <ele>-0.8200000</ele>
        <time>2010-12-04T06:58:10Z</time>
      </trkpt>
      <trkpt lat="59.4338340" lon="16.0810970">
        <ele>-0.8200000</ele>
        <time>2010-12-04T06:58:23Z</time>
      </trkpt>
      <trkpt lat="59.4340100" lon="16.0796320">
        <ele>-1.3000000</ele>
        <time>2010-12-04T06:58:36Z</time>
      </trkpt>
      <trkpt lat="59.4339680" lon="16.0781630">
        <ele>-0.8200000</ele>
        <time>2010-12-04T06:58:49Z</time>
      </trkpt>
      <trkpt lat="59.4338070" lon="16.0763360">
        <ele>-0.8200000</ele>
        <time>2010-12-04T06:59:05Z</time>
      </trkpt>
      <trkpt lat="59.4336320" lon="16.0745200">
        <ele>0.1400000</ele>
        <time>2010-12-04T06:59:21Z</time>
      </trkpt>
      <trkpt lat="59.4334640" lon="16.0727440">
        <ele>0.1400000</ele>
        <time>2010-12-04T06:59:37Z</time>
      </trkpt>
      <trkpt lat="59.4334140" lon="16.0711350">
        <ele>-0.3400000</ele>
        <time>2010-12-04T06:59:51Z</time>
      </trkpt>
      <trkpt lat="59.4335520" lon="16.0693840">
        <ele>-0.3400000</ele>
        <time>2010-12-04T07:00:06Z</time>
      </trkpt>
      <trkpt lat="59.4338300" lon="16.0680620">
        <ele>-0.3400000</ele>
        <time>2010-12-04T07:00:19Z</time>
      </trkpt>
      <trkpt lat="59.4340900" lon="16.0671220">
        <ele>1.1000000</ele>
        <time>2010-12-04T07:00:30Z</time>
      </trkpt>
      <trkpt lat="59.4344860" lon="16.0656890">
        <ele>1.1000000</ele>
        <time>2010-12-04T07:00:46Z</time>
      </trkpt>
      <trkpt lat="59.4347080" lon="16.0649010">
        <ele>2.5400000</ele>
        <time>2010-12-04T07:00:54Z</time>
      </trkpt>
      <trkpt lat="59.4351230" lon="16.0634480">
        <ele>2.0600000</ele>
        <time>2010-12-04T07:01:09Z</time>
      </trkpt>
      <trkpt lat="59.4354630" lon="16.0622690">
        <ele>2.0600000</ele>
        <time>2010-12-04T07:01:22Z</time>
      </trkpt>
      <trkpt lat="59.4358520" lon="16.0608430">
        <ele>1.1000000</ele>
        <time>2010-12-04T07:01:37Z</time>
      </trkpt>
      <trkpt lat="59.4362750" lon="16.0593130">
        <ele>1.5800000</ele>
        <time>2010-12-04T07:01:53Z</time>
      </trkpt>
      <trkpt lat="59.4366720" lon="16.0578800">
        <ele>2.0600000</ele>
        <time>2010-12-04T07:02:08Z</time>
      </trkpt>
      <trkpt lat="59.4370990" lon="16.0563640">
        <ele>3.0200000</ele>
        <time>2010-12-04T07:02:24Z</time>
      </trkpt>
      <trkpt lat="59.4374280" lon="16.0551280">
        <ele>2.0600000</ele>
        <time>2010-12-04T07:02:37Z</time>
      </trkpt>
      <trkpt lat="59.4379390" lon="16.0535470">
        <ele>1.1000000</ele>
        <time>2010-12-04T07:02:54Z</time>
      </trkpt>
      <trkpt lat="59.4384840" lon="16.0523110">
        <ele>1.5800000</ele>
        <time>2010-12-04T07:03:09Z</time>
      </trkpt>
      <trkpt lat="59.4390750" lon="16.0512910">
        <ele>2.5400000</ele>
        <time>2010-12-04T07:03:23Z</time>
      </trkpt>
      <trkpt lat="59.4398800" lon="16.0501350">
        <ele>2.0600000</ele>
        <time>2010-12-04T07:03:41Z</time>
      </trkpt>
      <trkpt lat="59.4405750" lon="16.0491640">
        <ele>2.0600000</ele>
        <time>2010-12-04T07:03:56Z</time>
      </trkpt>
      <trkpt lat="59.4413450" lon="16.0480790">
        <ele>2.5400000</ele>
        <time>2010-12-04T07:04:13Z</time>
      </trkpt>
      <trkpt lat="59.4419290" lon="16.0472450">
        <ele>3.0200000</ele>
        <time>2010-12-04T07:04:26Z</time>
      </trkpt>
      <trkpt lat="59.4425810" lon="16.0463920">
        <ele>3.5000000</ele>
        <time>2010-12-04T07:04:40Z</time>
      </trkpt>
      <trkpt lat="59.4434050" lon="16.0455820">
        <ele>3.0200000</ele>
        <time>2010-12-04T07:04:56Z</time>
      </trkpt>
      <trkpt lat="59.4443020" lon="16.0449830">
        <ele>2.0600000</ele>
        <time>2010-12-04T07:05:12Z</time>
      </trkpt>
      <trkpt lat="59.4452170" lon="16.0444340">
        <ele>3.9800000</ele>
        <time>2010-12-04T07:05:29Z</time>
      </trkpt>
      <trkpt lat="59.4460260" lon="16.0438960">
        <ele>4.4600000</ele>
        <time>2010-12-04T07:05:45Z</time>
      </trkpt>
      <trkpt lat="59.4467740" lon="16.0431900">
        <ele>5.9100000</ele>
        <time>2010-12-04T07:06:01Z</time>
      </trkpt>
      <trkpt lat="59.4474110" lon="16.0423680">
        <ele>6.8700000</ele>
        <time>2010-12-04T07:06:16Z</time>
      </trkpt>
      <trkpt lat="59.4479260" lon="16.0415120">
        <ele>6.8700000</ele>
        <time>2010-12-04T07:06:30Z</time>
      </trkpt>
      <trkpt lat="59.4484440" lon="16.0405120">
        <ele>8.3100000</ele>
        <time>2010-12-04T07:06:45Z</time>
      </trkpt>
      <trkpt lat="59.4489630" lon="16.0394520">
        <ele>8.7900000</ele>
        <time>2010-12-04T07:07:00Z</time>
      </trkpt>
      <trkpt lat="59.4495090" lon="16.0383430">
        <ele>10.7100000</ele>
        <time>2010-12-04T07:07:16Z</time>
      </trkpt>
      <trkpt lat="59.4500390" lon="16.0373060">
        <ele>11.6700000</ele>
        <time>2010-12-04T07:07:31Z</time>
      </trkpt>
      <trkpt lat="59.4505310" lon="16.0362300">
        <ele>12.1500000</ele>
        <time>2010-12-04T07:07:46Z</time>
      </trkpt>
      <trkpt lat="59.4510230" lon="16.0350480">
        <ele>10.7100000</ele>
        <time>2010-12-04T07:08:00Z</time>
      </trkpt>
      <trkpt lat="59.4514160" lon="16.0339410">
        <ele>7.8300000</ele>
        <time>2010-12-04T07:08:11Z</time>
      </trkpt>
      <trkpt lat="59.4519650" lon="16.0321580">
        <ele>5.9100000</ele>
        <time>2010-12-04T07:08:28Z</time>
      </trkpt>
      <trkpt lat="59.4523890" lon="16.0307730">
        <ele>5.9100000</ele>
        <time>2010-12-04T07:08:42Z</time>
      </trkpt>
      <trkpt lat="59.4529000" lon="16.0292280">
        <ele>4.9400000</ele>
        <time>2010-12-04T07:08:58Z</time>
      </trkpt>
      <trkpt lat="59.4534800" lon="16.0276850">
        <ele>4.9400000</ele>
        <time>2010-12-04T07:09:15Z</time>
      </trkpt>
      <trkpt lat="59.4540410" lon="16.0263690">
        <ele>4.4600000</ele>
        <time>2010-12-04T07:09:30Z</time>
      </trkpt>
      <trkpt lat="59.4547350" lon="16.0248260">
        <ele>3.5000000</ele>
        <time>2010-12-04T07:09:48Z</time>
      </trkpt>
      <trkpt lat="59.4554410" lon="16.0232140">
        <ele>3.5000000</ele>
        <time>2010-12-04T07:10:06Z</time>
      </trkpt>
      <trkpt lat="59.4559710" lon="16.0217860">
        <ele>3.9800000</ele>
        <time>2010-12-04T07:10:21Z</time>
      </trkpt>
      <trkpt lat="59.4566000" lon="16.0198400">
        <ele>2.5400000</ele>
        <time>2010-12-04T07:10:40Z</time>
      </trkpt>
      <trkpt lat="59.4570580" lon="16.0181390">
        <ele>2.0600000</ele>
        <time>2010-12-04T07:10:56Z</time>
      </trkpt>
      <trkpt lat="59.4574200" lon="16.0164910">
        <ele>1.1000000</ele>
        <time>2010-12-04T07:11:11Z</time>
      </trkpt>
      <trkpt lat="59.4576910" lon="16.0150600">
        <ele>1.1000000</ele>
        <time>2010-12-04T07:11:24Z</time>
      </trkpt>
      <trkpt lat="59.4580040" lon="16.0134070">
        <ele>0.6200000</ele>
        <time>2010-12-04T07:11:40Z</time>
      </trkpt>
      <trkpt lat="59.4582820" lon="16.0118920">
        <ele>0.6200000</ele>
        <time>2010-12-04T07:11:55Z</time>
      </trkpt>
      <trkpt lat="59.4585420" lon="16.0105000">
        <ele>1.1000000</ele>
        <time>2010-12-04T07:12:09Z</time>
      </trkpt>
      <trkpt lat="59.4588130" lon="16.0091150">
        <ele>1.1000000</ele>
        <time>2010-12-04T07:12:23Z</time>
      </trkpt>
      <trkpt lat="59.4591450" lon="16.0076220">
        <ele>1.1000000</ele>
        <time>2010-12-04T07:12:38Z</time>
      </trkpt>
      <trkpt lat="59.4594500" lon="16.0064370">
        <ele>0.6200000</ele>
        <time>2010-12-04T07:12:51Z</time>
      </trkpt>
      <trkpt lat="59.4598920" lon="16.0049760">
        <ele>0.6200000</ele>
        <time>2010-12-04T07:13:08Z</time>
      </trkpt>
      <trkpt lat="59.4602740" lon="16.0038200">
        <ele>0.6200000</ele>
        <time>2010-12-04T07:13:22Z</time>
      </trkpt>
      <trkpt lat="59.4607430" lon="16.0025600">
        <ele>1.1000000</ele>
        <time>2010-12-04T07:13:38Z</time>
      </trkpt>
      <trkpt lat="59.4612050" lon="16.0014190">
        <ele>1.5800000</ele>
        <time>2010-12-04T07:13:53Z</time>
      </trkpt>
      <trkpt lat="59.4617580" lon="16.0002020">
        <ele>1.5800000</ele>
        <time>2010-12-04T07:14:10Z</time>
      </trkpt>
      <trkpt lat="59.4623340" lon="15.9990920">
        <ele>2.0600000</ele>
        <time>2010-12-04T07:14:27Z</time>
      </trkpt>
      <trkpt lat="59.4629060" lon="15.9980680">
        <ele>3.5000000</ele>
        <time>2010-12-04T07:14:43Z</time>
      </trkpt>
      <trkpt lat="59.4630580" lon="15.9978210">
        <ele>-0.3400000</ele>
        <time>2010-12-04T07:14:47Z</time>
      </trkpt>
      <trkpt lat="59.4630970" lon="15.9977570">
        <ele>3.0200000</ele>
        <time>2010-12-04T07:14:48Z</time>
      </trkpt>
      <trkpt lat="59.4636540" lon="15.9969140">
        <ele>3.5000000</ele>
        <time>2010-12-04T07:15:03Z</time>
      </trkpt>
      <trkpt lat="59.4641990" lon="15.9961610">
        <ele>3.9800000</ele>
        <time>2010-12-04T07:15:17Z</time>
      </trkpt>
      <trkpt lat="59.4648900" lon="15.9952930">
        <ele>4.9400000</ele>
        <time>2010-12-04T07:15:34Z</time>
      </trkpt>
      <trkpt lat="59.4655190" lon="15.9945890">
        <ele>5.9100000</ele>
        <time>2010-12-04T07:15:49Z</time>
      </trkpt>
      <trkpt lat="59.4662400" lon="15.9938740">
        <ele>7.3500000</ele>
        <time>2010-12-04T07:16:06Z</time>
      </trkpt>
      <trkpt lat="59.4669610" lon="15.9932600">
        <ele>6.8700000</ele>
        <time>2010-12-04T07:16:22Z</time>
      </trkpt>
      <trkpt lat="59.4676320" lon="15.9927660">
        <ele>6.8700000</ele>
        <time>2010-12-04T07:16:36Z</time>
      </trkpt>
      <trkpt lat="59.4683230" lon="15.9923420">
        <ele>6.3900000</ele>
        <time>2010-12-04T07:16:50Z</time>
      </trkpt>
      <trkpt lat="59.4691350" lon="15.9919310">
        <ele>6.8700000</ele>
        <time>2010-12-04T07:17:06Z</time>
      </trkpt>
      <trkpt lat="59.4700050" lon="15.9915860">
        <ele>6.8700000</ele>
        <time>2010-12-04T07:17:23Z</time>
      </trkpt>
      <trkpt lat="59.4709430" lon="15.9913410">
        <ele>6.8700000</ele>
        <time>2010-12-04T07:17:41Z</time>
      </trkpt>
      <trkpt lat="59.4719160" lon="15.9911610">
        <ele>7.3500000</ele>
        <time>2010-12-04T07:17:59Z</time>
      </trkpt>
      <trkpt lat="59.4729190" lon="15.9910050">
        <ele>5.9100000</ele>
        <time>2010-12-04T07:18:16Z</time>
      </trkpt>
      <trkpt lat="59.4737090" lon="15.9908520">
        <ele>5.4200000</ele>
        <time>2010-12-04T07:18:29Z</time>
      </trkpt>
      <trkpt lat="59.4745600" lon="15.9906730">
        <ele>4.9400000</ele>
        <time>2010-12-04T07:18:43Z</time>
      </trkpt>
      <trkpt lat="59.4754220" lon="15.9904760">
        <ele>5.9100000</ele>
        <time>2010-12-04T07:18:58Z</time>
      </trkpt>
      <trkpt lat="59.4760740" lon="15.9902810">
        <ele>7.3500000</ele>
        <time>2010-12-04T07:19:11Z</time>
      </trkpt>
      <trkpt lat="59.4769440" lon="15.9898940">
        <ele>7.3500000</ele>
        <time>2010-12-04T07:19:28Z</time>
      </trkpt>
      <trkpt lat="59.4777870" lon="15.9894270">
        <ele>7.3500000</ele>
        <time>2010-12-04T07:19:44Z</time>
      </trkpt>
      <trkpt lat="59.4785770" lon="15.9889110">
        <ele>6.3900000</ele>
        <time>2010-12-04T07:19:59Z</time>
      </trkpt>
      <trkpt lat="59.4793660" lon="15.9883620">
        <ele>5.4200000</ele>
        <time>2010-12-04T07:20:14Z</time>
      </trkpt>
      <trkpt lat="59.4801980" lon="15.9876740">
        <ele>5.9100000</ele>
        <time>2010-12-04T07:20:31Z</time>
      </trkpt>
      <trkpt lat="59.4809110" lon="15.9869270">
        <ele>7.3500000</ele>
        <time>2010-12-04T07:20:46Z</time>
      </trkpt>
      <trkpt lat="59.4816470" lon="15.9860680">
        <ele>6.8700000</ele>
        <time>2010-12-04T07:21:02Z</time>
      </trkpt>
      <trkpt lat="59.4824180" lon="15.9853650">
        <ele>6.3900000</ele>
        <time>2010-12-04T07:21:18Z</time>
      </trkpt>
      <trkpt lat="59.4831200" lon="15.9849590">
        <ele>4.4600000</ele>
        <time>2010-12-04T07:21:32Z</time>
      </trkpt>
      <trkpt lat="59.4838330" lon="15.9847480">
        <ele>3.5000000</ele>
        <time>2010-12-04T07:21:45Z</time>
      </trkpt>
      <trkpt lat="59.4847410" lon="15.9847540">
        <ele>3.0200000</ele>
        <time>2010-12-04T07:22:01Z</time>
      </trkpt>
      <trkpt lat="59.4855350" lon="15.9850170">
        <ele>3.0200000</ele>
        <time>2010-12-04T07:22:15Z</time>
      </trkpt>
      <trkpt lat="59.4864620" lon="15.9855590">
        <ele>3.0200000</ele>
        <time>2010-12-04T07:22:32Z</time>
      </trkpt>
      <trkpt lat="59.4875110" lon="15.9861920">
        <ele>2.5400000</ele>
        <time>2010-12-04T07:22:51Z</time>
      </trkpt>
      <trkpt lat="59.4883500" lon="15.9867100">
        <ele>3.0200000</ele>
        <time>2010-12-04T07:23:07Z</time>
      </trkpt>
      <trkpt lat="59.4893040" lon="15.9873340">
        <ele>2.5400000</ele>
        <time>2010-12-04T07:23:25Z</time>
      </trkpt>
      <trkpt lat="59.4903300" lon="15.9880780">
        <ele>3.0200000</ele>
        <time>2010-12-04T07:23:45Z</time>
      </trkpt>
      <trkpt lat="59.4912610" lon="15.9887950">
        <ele>2.5400000</ele>
        <time>2010-12-04T07:24:03Z</time>
      </trkpt>
      <trkpt lat="59.4921110" lon="15.9894580">
        <ele>2.5400000</ele>
        <time>2010-12-04T07:24:20Z</time>
      </trkpt>
      <trkpt lat="59.4929160" lon="15.9900850">
        <ele>2.0600000</ele>
        <time>2010-12-04T07:24:36Z</time>
      </trkpt>
      <trkpt lat="59.4938200" lon="15.9907960">
        <ele>2.0600000</ele>
        <time>2010-12-04T07:24:54Z</time>
      </trkpt>
      <trkpt lat="59.4946020" lon="15.9914010">
        <ele>2.0600000</ele>
        <time>2010-12-04T07:25:10Z</time>
      </trkpt>
      <trkpt lat="59.4955790" lon="15.9921610">
        <ele>2.0600000</ele>
        <time>2010-12-04T07:25:30Z</time>
      </trkpt>
      <trkpt lat="59.4964790" lon="15.9928170">
        <ele>2.0600000</ele>
        <time>2010-12-04T07:25:48Z</time>
      </trkpt>
      <trkpt lat="59.4973530" lon="15.9933030">
        <ele>2.5400000</ele>
        <time>2010-12-04T07:26:05Z</time>
      </trkpt>
      <trkpt lat="59.4980890" lon="15.9935280">
        <ele>3.0200000</ele>
        <time>2010-12-04T07:26:20Z</time>
      </trkpt>
      <trkpt lat="59.4989430" lon="15.9937400">
        <ele>2.5400000</ele>
        <time>2010-12-04T07:26:36Z</time>
      </trkpt>
      <trkpt lat="59.4998360" lon="15.9938280">
        <ele>2.5400000</ele>
        <time>2010-12-04T07:26:52Z</time>
      </trkpt>
      <trkpt lat="59.5007250" lon="15.9938340">
        <ele>2.5400000</ele>
        <time>2010-12-04T07:27:08Z</time>
      </trkpt>
      <trkpt lat="59.5016630" lon="15.9938240">
        <ele>1.5800000</ele>
        <time>2010-12-04T07:27:25Z</time>
      </trkpt>
      <trkpt lat="59.5025520" lon="15.9938300">
        <ele>1.5800000</ele>
        <time>2010-12-04T07:27:42Z</time>
      </trkpt>
      <trkpt lat="59.5034330" lon="15.9939160">
        <ele>1.1000000</ele>
        <time>2010-12-04T07:27:58Z</time>
      </trkpt>
      <trkpt lat="59.5043140" lon="15.9939700">
        <ele>1.1000000</ele>
        <time>2010-12-04T07:28:14Z</time>
      </trkpt>
      <trkpt lat="59.5049400" lon="15.9940880">
        <ele>1.5800000</ele>
        <time>2010-12-04T07:28:26Z</time>
      </trkpt>
      <trkpt lat="59.5058400" lon="15.9943210">
        <ele>1.1000000</ele>
        <time>2010-12-04T07:28:43Z</time>
      </trkpt>
      <trkpt lat="59.5067330" lon="15.9943560">
        <ele>1.1000000</ele>
        <time>2010-12-04T07:29:00Z</time>
      </trkpt>
      <trkpt lat="59.5068740" lon="15.9943360">
        <ele>1.1000000</ele>
        <time>2010-12-04T07:29:03Z</time>
      </trkpt>
      <trkpt lat="59.5070420" lon="15.9942700">
        <ele>3.0200000</ele>
        <time>2010-12-04T07:29:07Z</time>
      </trkpt>
      <trkpt lat="59.5075040" lon="15.9941200">
        <ele>5.9100000</ele>
        <time>2010-12-04T07:29:19Z</time>
      </trkpt>
      <trkpt lat="59.5079150" lon="15.9938440">
        <ele>8.7900000</ele>
        <time>2010-12-04T07:29:31Z</time>
      </trkpt>
      <trkpt lat="59.5085870" lon="15.9932220">
        <ele>9.7500000</ele>
        <time>2010-12-04T07:29:51Z</time>
      </trkpt>
      <trkpt lat="59.5091360" lon="15.9925220">
        <ele>6.3900000</ele>
        <time>2010-12-04T07:30:04Z</time>
      </trkpt>
      <trkpt lat="59.5093350" lon="15.9922060">
        <ele>4.9400000</ele>
        <time>2010-12-04T07:30:08Z</time>
      </trkpt>
      <trkpt lat="59.5096820" lon="15.9915580">
        <ele>1.5800000</ele>
        <time>2010-12-04T07:30:15Z</time>
      </trkpt>
      <trkpt lat="59.5097270" lon="15.9914590">
        <ele>1.5800000</ele>
        <time>2010-12-04T07:30:16Z</time>
      </trkpt>
      <trkpt lat="59.5101890" lon="15.9903260">
        <ele>1.5800000</ele>
        <time>2010-12-04T07:30:28Z</time>
      </trkpt>
      <trkpt lat="59.5106470" lon="15.9892040">
        <ele>1.5800000</ele>
        <time>2010-12-04T07:30:42Z</time>
      </trkpt>
      <trkpt lat="59.5107690" lon="15.9889300">
        <ele>1.5800000</ele>
        <time>2010-12-04T07:30:46Z</time>
      </trkpt>
      <trkpt lat="59.5108030" lon="15.9888770">
        <ele>1.1000000</ele>
        <time>2010-12-04T07:30:47Z</time>
      </trkpt>
      <trkpt lat="59.5108380" lon="15.9888400">
        <ele>1.5800000</ele>
        <time>2010-12-04T07:30:48Z</time>
      </trkpt>
      <trkpt lat="59.5108800" lon="15.9888170">
        <ele>1.5800000</ele>
        <time>2010-12-04T07:30:49Z</time>
      </trkpt>
      <trkpt lat="59.5109250" lon="15.9888090">
        <ele>1.5800000</ele>
        <time>2010-12-04T07:30:50Z</time>
      </trkpt>
      <trkpt lat="59.5109710" lon="15.9888170">
        <ele>1.1000000</ele>
        <time>2010-12-04T07:30:51Z</time>
      </trkpt>
      <trkpt lat="59.5110170" lon="15.9888440">
        <ele>1.1000000</ele>
        <time>2010-12-04T07:30:52Z</time>
      </trkpt>
      <trkpt lat="59.5110630" lon="15.9888830">
        <ele>1.1000000</ele>
        <time>2010-12-04T07:30:53Z</time>
      </trkpt>
      <trkpt lat="59.5111050" lon="15.9889290">
        <ele>1.1000000</ele>
        <time>2010-12-04T07:30:54Z</time>
      </trkpt>
      <trkpt lat="59.5111470" lon="15.9889800">
        <ele>1.1000000</ele>
        <time>2010-12-04T07:30:55Z</time>
      </trkpt>
      <trkpt lat="59.5116540" lon="15.9897290">
        <ele>2.0600000</ele>
        <time>2010-12-04T07:31:09Z</time>
      </trkpt>
      <trkpt lat="59.5118870" lon="15.9900750">
        <ele>2.5400000</ele>
        <time>2010-12-04T07:31:19Z</time>
      </trkpt>
      <trkpt lat="59.5121350" lon="15.9903500">
        <ele>3.0200000</ele>
        <time>2010-12-04T07:31:28Z</time>
      </trkpt>
      <trkpt lat="59.5121840" lon="15.9904620">
        <ele>3.0200000</ele>
        <time>2010-12-04T07:31:30Z</time>
      </trkpt>
      <trkpt lat="59.5122340" lon="15.9905970">
        <ele>3.0200000</ele>
        <time>2010-12-04T07:31:32Z</time>
      </trkpt>
      <trkpt lat="59.5122640" lon="15.9906520">
        <ele>3.5000000</ele>
        <time>2010-12-04T07:31:33Z</time>
      </trkpt>
      <trkpt lat="59.5122990" lon="15.9906910">
        <ele>3.5000000</ele>
        <time>2010-12-04T07:31:34Z</time>
      </trkpt>
      <trkpt lat="59.5123370" lon="15.9907200">
        <ele>3.0200000</ele>
        <time>2010-12-04T07:31:35Z</time>
      </trkpt>
      <trkpt lat="59.5123790" lon="15.9907520">
        <ele>3.5000000</ele>
        <time>2010-12-04T07:31:36Z</time>
      </trkpt>
      <trkpt lat="59.5124210" lon="15.9907950">
        <ele>3.5000000</ele>
        <time>2010-12-04T07:31:37Z</time>
      </trkpt>
      <trkpt lat="59.5124630" lon="15.9908490">
        <ele>4.4600000</ele>
        <time>2010-12-04T07:31:38Z</time>
      </trkpt>
      <trkpt lat="59.5125050" lon="15.9909080">
        <ele>3.9800000</ele>
        <time>2010-12-04T07:31:39Z</time>
      </trkpt>
      <trkpt lat="59.5125470" lon="15.9909710">
        <ele>3.9800000</ele>
        <time>2010-12-04T07:31:40Z</time>
      </trkpt>
      <trkpt lat="59.5130690" lon="15.9918860">
        <ele>4.9400000</ele>
        <time>2010-12-04T07:31:53Z</time>
      </trkpt>
      <trkpt lat="59.5132900" lon="15.9925170">
        <ele>4.9400000</ele>
        <time>2010-12-04T07:32:02Z</time>
      </trkpt>
      <trkpt lat="59.5134580" lon="15.9931810">
        <ele>5.9100000</ele>
        <time>2010-12-04T07:33:46Z</time>
      </trkpt>
      <trkpt lat="59.5134090" lon="15.9931560">
        <ele>5.9100000</ele>
        <time>2010-12-04T07:33:54Z</time>
      </trkpt>
      <trkpt lat="59.5148320" lon="15.9978990">
        <ele>12.1500000</ele>
        <time>2010-12-04T08:11:36Z</time>
      </trkpt>
      <trkpt lat="59.5148930" lon="15.9987680">
        <ele>12.1500000</ele>
        <time>2010-12-04T08:11:49Z</time>
      </trkpt>
      <trkpt lat="59.5147090" lon="15.9996520">
        <ele>12.6300000</ele>
        <time>2010-12-04T08:12:02Z</time>
      </trkpt>
      <trkpt lat="59.5142970" lon="16.0003910">
        <ele>14.0800000</ele>
        <time>2010-12-04T08:12:16Z</time>
      </trkpt>
      <trkpt lat="59.5139160" lon="16.0012970">
        <ele>14.5600000</ele>
        <time>2010-12-04T08:12:30Z</time>
      </trkpt>
      <trkpt lat="59.5138470" lon="16.0016140">
        <ele>15.5200000</ele>
        <time>2010-12-04T08:12:34Z</time>
      </trkpt>
      <trkpt lat="59.5137940" lon="16.0028570">
        <ele>17.9200000</ele>
        <time>2010-12-04T08:12:49Z</time>
      </trkpt>
      <trkpt lat="59.5139770" lon="16.0041280">
        <ele>19.8400000</ele>
        <time>2010-12-04T08:13:04Z</time>
      </trkpt>
      <trkpt lat="59.5141370" lon="16.0056210">
        <ele>21.2900000</ele>
        <time>2010-12-04T08:13:20Z</time>
      </trkpt>
      <trkpt lat="59.5142630" lon="16.0074710">
        <ele>20.3200000</ele>
        <time>2010-12-04T08:13:37Z</time>
      </trkpt>
      <trkpt lat="59.5144350" lon="16.0099750">
        <ele>19.3600000</ele>
        <time>2010-12-04T08:13:57Z</time>
      </trkpt>
      <trkpt lat="59.5145870" lon="16.0121150">
        <ele>20.3200000</ele>
        <time>2010-12-04T08:14:14Z</time>
      </trkpt>
      <trkpt lat="59.5146330" lon="16.0139160">
        <ele>19.3600000</ele>
        <time>2010-12-04T08:14:28Z</time>
      </trkpt>
      <trkpt lat="59.5145720" lon="16.0161670">
        <ele>18.4000000</ele>
        <time>2010-12-04T08:14:44Z</time>
      </trkpt>
      <trkpt lat="59.5143930" lon="16.0182210">
        <ele>17.4400000</ele>
        <time>2010-12-04T08:14:59Z</time>
      </trkpt>
      <trkpt lat="59.5140650" lon="16.0202480">
        <ele>17.4400000</ele>
        <time>2010-12-04T08:15:15Z</time>
      </trkpt>
      <trkpt lat="59.5139470" lon="16.0208970">
        <ele>18.4000000</ele>
        <time>2010-12-04T08:15:20Z</time>
      </trkpt>
      <trkpt lat="59.5135500" lon="16.0233400">
        <ele>16.9600000</ele>
        <time>2010-12-04T08:15:39Z</time>
      </trkpt>
      <trkpt lat="59.5132410" lon="16.0257130">
        <ele>16.4800000</ele>
        <time>2010-12-04T08:15:56Z</time>
      </trkpt>
      <trkpt lat="59.5131260" lon="16.0271510">
        <ele>14.5600000</ele>
        <time>2010-12-04T08:16:06Z</time>
      </trkpt>
      <trkpt lat="59.5129850" lon="16.0294280">
        <ele>12.6300000</ele>
        <time>2010-12-04T08:16:21Z</time>
      </trkpt>
      <trkpt lat="59.5128360" lon="16.0318070">
        <ele>12.1500000</ele>
        <time>2010-12-04T08:16:37Z</time>
      </trkpt>
      <trkpt lat="59.5126910" lon="16.0342370">
        <ele>10.7100000</ele>
        <time>2010-12-04T08:16:54Z</time>
      </trkpt>
      <trkpt lat="59.5125730" lon="16.0362550">
        <ele>9.7500000</ele>
        <time>2010-12-04T08:17:08Z</time>
      </trkpt>
      <trkpt lat="59.5124050" lon="16.0391810">
        <ele>7.8300000</ele>
        <time>2010-12-04T08:17:27Z</time>
      </trkpt>
      <trkpt lat="59.5122530" lon="16.0417840">
        <ele>8.3100000</ele>
        <time>2010-12-04T08:17:45Z</time>
      </trkpt>
      <trkpt lat="59.5121120" lon="16.0441760">
        <ele>6.3900000</ele>
        <time>2010-12-04T08:18:01Z</time>
      </trkpt>
      <trkpt lat="59.5119550" lon="16.0468480">
        <ele>5.9100000</ele>
        <time>2010-12-04T08:18:18Z</time>
      </trkpt>
      <trkpt lat="59.5118030" lon="16.0494250">
        <ele>5.9100000</ele>
        <time>2010-12-04T08:18:36Z</time>
      </trkpt>
      <trkpt lat="59.5116540" lon="16.0518910">
        <ele>6.3900000</ele>
        <time>2010-12-04T08:18:54Z</time>
      </trkpt>
      <trkpt lat="59.5115430" lon="16.0537700">
        <ele>6.3900000</ele>
        <time>2010-12-04T08:19:09Z</time>
      </trkpt>
      <trkpt lat="59.5115010" lon="16.0540870">
        <ele>6.8700000</ele>
        <time>2010-12-04T08:19:12Z</time>
      </trkpt>
      <trkpt lat="59.5114780" lon="16.0541800">
        <ele>6.8700000</ele>
        <time>2010-12-04T08:19:13Z</time>
      </trkpt>
      <trkpt lat="59.5114480" lon="16.0542700">
        <ele>6.3900000</ele>
        <time>2010-12-04T08:19:14Z</time>
      </trkpt>
      <trkpt lat="59.5113330" lon="16.0546170">
        <ele>6.3900000</ele>
        <time>2010-12-04T08:19:18Z</time>
      </trkpt>
      <trkpt lat="59.5113140" lon="16.0546990">
        <ele>6.3900000</ele>
        <time>2010-12-04T08:19:19Z</time>
      </trkpt>
      <trkpt lat="59.5113030" lon="16.0547730">
        <ele>6.3900000</ele>
        <time>2010-12-04T08:19:20Z</time>
      </trkpt>
      <trkpt lat="59.5113030" lon="16.0548440">
        <ele>6.3900000</ele>
        <time>2010-12-04T08:19:21Z</time>
      </trkpt>
      <trkpt lat="59.5113030" lon="16.0549110">
        <ele>6.3900000</ele>
        <time>2010-12-04T08:19:22Z</time>
      </trkpt>
      <trkpt lat="59.5113140" lon="16.0549700">
        <ele>6.3900000</ele>
        <time>2010-12-04T08:19:23Z</time>
      </trkpt>
      <trkpt lat="59.5113330" lon="16.0550140">
        <ele>6.8700000</ele>
        <time>2010-12-04T08:19:24Z</time>
      </trkpt>
      <trkpt lat="59.5113530" lon="16.0550440">
        <ele>6.8700000</ele>
        <time>2010-12-04T08:19:25Z</time>
      </trkpt>
      <trkpt lat="59.5113720" lon="16.0550650">
        <ele>6.3900000</ele>
        <time>2010-12-04T08:19:26Z</time>
      </trkpt>
      <trkpt lat="59.5114480" lon="16.0550610">
        <ele>7.3500000</ele>
        <time>2010-12-04T08:19:34Z</time>
      </trkpt>
      <trkpt lat="59.5114630" lon="16.0550610">
        <ele>7.3500000</ele>
        <time>2010-12-04T08:19:36Z</time>
      </trkpt>
      <trkpt lat="59.5116880" lon="16.0551010">
        <ele>6.3900000</ele>
        <time>2010-12-04T08:19:45Z</time>
      </trkpt>
      <trkpt lat="59.5117650" lon="16.0552670">
        <ele>6.3900000</ele>
        <time>2010-12-04T08:19:48Z</time>
      </trkpt>
      <trkpt lat="59.5117680" lon="16.0553460">
        <ele>6.8700000</ele>
        <time>2010-12-04T08:19:49Z</time>
      </trkpt>
      <trkpt lat="59.5117650" lon="16.0554240">
        <ele>6.8700000</ele>
        <time>2010-12-04T08:19:50Z</time>
      </trkpt>
      <trkpt lat="59.5117490" lon="16.0555020">
        <ele>6.8700000</ele>
        <time>2010-12-04T08:19:51Z</time>
      </trkpt>
      <trkpt lat="59.5117300" lon="16.0555780">
        <ele>6.8700000</ele>
        <time>2010-12-04T08:19:52Z</time>
      </trkpt>
      <trkpt lat="59.5117030" lon="16.0556550">
        <ele>6.3900000</ele>
        <time>2010-12-04T08:19:53Z</time>
      </trkpt>
      <trkpt lat="59.5115740" lon="16.0560930">
        <ele>6.3900000</ele>
        <time>2010-12-04T08:19:58Z</time>
      </trkpt>
      <trkpt lat="59.5115620" lon="16.0561940">
        <ele>6.3900000</ele>
        <time>2010-12-04T08:19:59Z</time>
      </trkpt>
      <trkpt lat="59.5114940" lon="16.0575370">
        <ele>6.3900000</ele>
        <time>2010-12-04T08:20:10Z</time>
      </trkpt>
      <trkpt lat="59.5114940" lon="16.0594900">
        <ele>6.8700000</ele>
        <time>2010-12-04T08:20:25Z</time>
      </trkpt>
      <trkpt lat="59.5116770" lon="16.0609110">
        <ele>7.3500000</ele>
        <time>2010-12-04T08:20:37Z</time>
      </trkpt>
      <trkpt lat="59.5121380" lon="16.0621590">
        <ele>6.8700000</ele>
        <time>2010-12-04T08:20:49Z</time>
      </trkpt>
      <trkpt lat="59.5126650" lon="16.0637860">
        <ele>7.8300000</ele>
        <time>2010-12-04T08:21:04Z</time>
      </trkpt>
      <trkpt lat="59.5131420" lon="16.0658780">
        <ele>7.8300000</ele>
        <time>2010-12-04T08:21:22Z</time>
      </trkpt>
      <trkpt lat="59.5134470" lon="16.0671980">
        <ele>11.1900000</ele>
        <time>2010-12-04T08:21:34Z</time>
      </trkpt>
      <trkpt lat="59.5136530" lon="16.0679550">
        <ele>7.8300000</ele>
        <time>2010-12-04T08:21:41Z</time>
      </trkpt>
      <trkpt lat="59.5138660" lon="16.0688460">
        <ele>4.4600000</ele>
        <time>2010-12-04T08:21:48Z</time>
      </trkpt>
      <trkpt lat="59.5142970" lon="16.0709000">
        <ele>4.4600000</ele>
        <time>2010-12-04T08:22:03Z</time>
      </trkpt>
      <trkpt lat="59.5145610" lon="16.0723900">
        <ele>6.8700000</ele>
        <time>2010-12-04T08:22:16Z</time>
      </trkpt>
      <trkpt lat="59.5149080" lon="16.0739820">
        <ele>7.8300000</ele>
        <time>2010-12-04T08:22:32Z</time>
      </trkpt>
      <trkpt lat="59.5153620" lon="16.0760710">
        <ele>9.7500000</ele>
        <time>2010-12-04T08:22:53Z</time>
      </trkpt>
      <trkpt lat="59.5157280" lon="16.0774860">
        <ele>9.2700000</ele>
        <time>2010-12-04T08:23:07Z</time>
      </trkpt>
      <trkpt lat="59.5163310" lon="16.0793290">
        <ele>6.3900000</ele>
        <time>2010-12-04T08:23:24Z</time>
      </trkpt>
      <trkpt lat="59.5170590" lon="16.0810600">
        <ele>4.9400000</ele>
        <time>2010-12-04T08:23:41Z</time>
      </trkpt>
      <trkpt lat="59.5175860" lon="16.0822430">
        <ele>6.3900000</ele>
        <time>2010-12-04T08:23:55Z</time>
      </trkpt>
      <trkpt lat="59.5180020" lon="16.0832060">
        <ele>8.7900000</ele>
        <time>2010-12-04T08:24:09Z</time>
      </trkpt>
      <trkpt lat="59.5182080" lon="16.0836540">
        <ele>9.7500000</ele>
        <time>2010-12-04T08:24:20Z</time>
      </trkpt>
      <trkpt lat="59.5182230" lon="16.0836750">
        <ele>9.2700000</ele>
        <time>2010-12-04T08:24:21Z</time>
      </trkpt>
      <trkpt lat="59.5182340" lon="16.0837040">
        <ele>9.7500000</ele>
        <time>2010-12-04T08:24:22Z</time>
      </trkpt>
      <trkpt lat="59.5182500" lon="16.0837380">
        <ele>9.2700000</ele>
        <time>2010-12-04T08:24:23Z</time>
      </trkpt>
      <trkpt lat="59.5182610" lon="16.0837760">
        <ele>9.7500000</ele>
        <time>2010-12-04T08:24:24Z</time>
      </trkpt>
      <trkpt lat="59.5184330" lon="16.0841920">
        <ele>9.7500000</ele>
        <time>2010-12-04T08:24:35Z</time>
      </trkpt>
      <trkpt lat="59.5187950" lon="16.0850470">
        <ele>9.7500000</ele>
        <time>2010-12-04T08:24:49Z</time>
      </trkpt>
      <trkpt lat="59.5190510" lon="16.0856490">
        <ele>11.6700000</ele>
        <time>2010-12-04T08:25:00Z</time>
      </trkpt>
      <trkpt lat="59.5190540" lon="16.0856480">
        <ele>11.1900000</ele>
        <time>2010-12-04T08:25:10Z</time>
      </trkpt>
      <trkpt lat="59.5190540" lon="16.0856480">
        <ele>11.1900000</ele>
        <time>2010-12-04T08:25:36Z</time>
      </trkpt>
      <trkpt lat="59.5190580" lon="16.0856590">
        <ele>11.6700000</ele>
        <time>2010-12-04T08:25:47Z</time>
      </trkpt>
      <trkpt lat="59.5190620" lon="16.0856590">
        <ele>10.7100000</ele>
        <time>2010-12-04T08:26:00Z</time>
      </trkpt>
      <trkpt lat="59.5190620" lon="16.0856590">
        <ele>10.7100000</ele>
        <time>2010-12-04T08:26:26Z</time>
      </trkpt>
      <trkpt lat="59.5190660" lon="16.0856610">
        <ele>11.1900000</ele>
        <time>2010-12-04T08:26:37Z</time>
      </trkpt>
      <trkpt lat="59.5190660" lon="16.0856610">
        <ele>10.7100000</ele>
        <time>2010-12-04T08:27:00Z</time>
      </trkpt>
      <trkpt lat="59.5190770" lon="16.0856910">
        <ele>10.7100000</ele>
        <time>2010-12-04T08:27:22Z</time>
      </trkpt>
      <trkpt lat="59.5192150" lon="16.0860810">
        <ele>10.2300000</ele>
        <time>2010-12-04T08:27:31Z</time>
      </trkpt>
      <trkpt lat="59.5195690" lon="16.0870340">
        <ele>8.7900000</ele>
        <time>2010-12-04T08:27:43Z</time>
      </trkpt>
      <trkpt lat="59.5201530" lon="16.0886800">
        <ele>9.2700000</ele>
        <time>2010-12-04T08:28:00Z</time>
      </trkpt>
      <trkpt lat="59.5206870" lon="16.0902750">
        <ele>8.7900000</ele>
        <time>2010-12-04T08:28:16Z</time>
      </trkpt>
      <trkpt lat="59.5211640" lon="16.0917030">
        <ele>8.7900000</ele>
        <time>2010-12-04T08:28:31Z</time>
      </trkpt>
      <trkpt lat="59.5217090" lon="16.0933480">
        <ele>9.7500000</ele>
        <time>2010-12-04T08:28:46Z</time>
      </trkpt>
      <trkpt lat="59.5224110" lon="16.0954530">
        <ele>10.7100000</ele>
        <time>2010-12-04T08:29:06Z</time>
      </trkpt>
      <trkpt lat="59.5228610" lon="16.0968070">
        <ele>10.2300000</ele>
        <time>2010-12-04T08:29:19Z</time>
      </trkpt>
      <trkpt lat="59.5235250" lon="16.0988100">
        <ele>10.7100000</ele>
        <time>2010-12-04T08:29:37Z</time>
      </trkpt>
      <trkpt lat="59.5242960" lon="16.1011120">
        <ele>9.7500000</ele>
        <time>2010-12-04T08:29:58Z</time>
      </trkpt>
      <trkpt lat="59.5248910" lon="16.1029090">
        <ele>9.7500000</ele>
        <time>2010-12-04T08:30:14Z</time>
      </trkpt>
      <trkpt lat="59.5256200" lon="16.1051100">
        <ele>9.2700000</ele>
        <time>2010-12-04T08:30:34Z</time>
      </trkpt>
      <trkpt lat="59.5262530" lon="16.1070290">
        <ele>9.2700000</ele>
        <time>2010-12-04T08:30:52Z</time>
      </trkpt>
      <trkpt lat="59.5270350" lon="16.1093710">
        <ele>8.7900000</ele>
        <time>2010-12-04T08:31:14Z</time>
      </trkpt>
      <trkpt lat="59.5276570" lon="16.1112520">
        <ele>9.2700000</ele>
        <time>2010-12-04T08:31:32Z</time>
      </trkpt>
      <trkpt lat="59.5283280" lon="16.1132790">
        <ele>9.7500000</ele>
        <time>2010-12-04T08:31:52Z</time>
      </trkpt>
      <trkpt lat="59.5288930" lon="16.1150610">
        <ele>9.7500000</ele>
        <time>2010-12-04T08:32:09Z</time>
      </trkpt>
      <trkpt lat="59.5295260" lon="16.1172770">
        <ele>10.2300000</ele>
        <time>2010-12-04T08:32:29Z</time>
      </trkpt>
      <trkpt lat="59.5300480" lon="16.1193240">
        <ele>10.7100000</ele>
        <time>2010-12-04T08:32:47Z</time>
      </trkpt>
      <trkpt lat="59.5305900" lon="16.1216580">
        <ele>10.7100000</ele>
        <time>2010-12-04T08:33:07Z</time>
      </trkpt>
      <trkpt lat="59.5310330" lon="16.1231880">
        <ele>11.6700000</ele>
        <time>2010-12-04T08:33:21Z</time>
      </trkpt>
      <trkpt lat="59.5313680" lon="16.1238840">
        <ele>11.6700000</ele>
        <time>2010-12-04T08:33:29Z</time>
      </trkpt>
      <trkpt lat="59.5313910" lon="16.1239830">
        <ele>12.1500000</ele>
        <time>2010-12-04T08:33:30Z</time>
      </trkpt>
      <trkpt lat="59.5313990" lon="16.1240770">
        <ele>12.1500000</ele>
        <time>2010-12-04T08:33:31Z</time>
      </trkpt>
      <trkpt lat="59.5313990" lon="16.1241590">
        <ele>12.1500000</ele>
        <time>2010-12-04T08:33:32Z</time>
      </trkpt>
      <trkpt lat="59.5313870" lon="16.1242280">
        <ele>12.6300000</ele>
        <time>2010-12-04T08:33:33Z</time>
      </trkpt>
      <trkpt lat="59.5313760" lon="16.1242790">
        <ele>12.6300000</ele>
        <time>2010-12-04T08:33:34Z</time>
      </trkpt>
      <trkpt lat="59.5313570" lon="16.1243150">
        <ele>12.1500000</ele>
        <time>2010-12-04T08:33:35Z</time>
      </trkpt>
      <trkpt lat="59.5313420" lon="16.1243460">
        <ele>12.1500000</ele>
        <time>2010-12-04T08:33:36Z</time>
      </trkpt>
      <trkpt lat="59.5313110" lon="16.1243760">
        <ele>12.6300000</ele>
        <time>2010-12-04T08:33:38Z</time>
      </trkpt>
      <trkpt lat="59.5312960" lon="16.1243840">
        <ele>12.1500000</ele>
        <time>2010-12-04T08:33:39Z</time>
      </trkpt>
      <trkpt lat="59.5311280" lon="16.1245160">
        <ele>12.6300000</ele>
        <time>2010-12-04T08:33:50Z</time>
      </trkpt>
      <trkpt lat="59.5309330" lon="16.1247040">
        <ele>12.6300000</ele>
        <time>2010-12-04T08:34:02Z</time>
      </trkpt>
      <trkpt lat="59.5308110" lon="16.1250880">
        <ele>12.1500000</ele>
        <time>2010-12-04T08:34:10Z</time>
      </trkpt>
      <trkpt lat="59.5308150" lon="16.1251700">
        <ele>12.6300000</ele>
        <time>2010-12-04T08:34:11Z</time>
      </trkpt>
      <trkpt lat="59.5308230" lon="16.1252560">
        <ele>12.6300000</ele>
        <time>2010-12-04T08:34:12Z</time>
      </trkpt>
      <trkpt lat="59.5308380" lon="16.1253450">
        <ele>13.1200000</ele>
        <time>2010-12-04T08:34:13Z</time>
      </trkpt>
      <trkpt lat="59.5308530" lon="16.1254370">
        <ele>12.1500000</ele>
        <time>2010-12-04T08:34:14Z</time>
      </trkpt>
      <trkpt lat="59.5311360" lon="16.1268630">
        <ele>13.1200000</ele>
        <time>2010-12-04T08:34:27Z</time>
      </trkpt>
      <trkpt lat="59.5316770" lon="16.1291690">
        <ele>12.1500000</ele>
        <time>2010-12-04T08:34:46Z</time>
      </trkpt>
      <trkpt lat="59.5320850" lon="16.1308610">
        <ele>12.1500000</ele>
        <time>2010-12-04T08:35:00Z</time>
      </trkpt>
      <trkpt lat="59.5325970" lon="16.1329540">
        <ele>13.1200000</ele>
        <time>2010-12-04T08:35:18Z</time>
      </trkpt>
      <trkpt lat="59.5331500" lon="16.1351280">
        <ele>14.5600000</ele>
        <time>2010-12-04T08:35:37Z</time>
      </trkpt>
      <trkpt lat="59.5335270" lon="16.1364590">
        <ele>6.3900000</ele>
        <time>2010-12-04T08:35:49Z</time>
      </trkpt>
      <trkpt lat="59.5335580" lon="16.1365760">
        <ele>16.9600000</ele>
        <time>2010-12-04T08:35:50Z</time>
      </trkpt>
      <trkpt lat="59.5339550" lon="16.1385330">
        <ele>16.9600000</ele>
        <time>2010-12-04T08:36:06Z</time>
      </trkpt>
      <trkpt lat="59.5340040" lon="16.1398750">
        <ele>16.0000000</ele>
        <time>2010-12-04T08:36:17Z</time>
      </trkpt>
      <trkpt lat="59.5340000" lon="16.1412640">
        <ele>16.0000000</ele>
        <time>2010-12-04T08:36:29Z</time>
      </trkpt>
      <trkpt lat="59.5342060" lon="16.1423530">
        <ele>13.1200000</ele>
        <time>2010-12-04T08:36:38Z</time>
      </trkpt>
      <trkpt lat="59.5343590" lon="16.1426870">
        <ele>12.1500000</ele>
        <time>2010-12-04T08:36:41Z</time>
      </trkpt>
      <trkpt lat="59.5344240" lon="16.1427860">
        <ele>11.1900000</ele>
        <time>2010-12-04T08:36:42Z</time>
      </trkpt>
      <trkpt lat="59.5344920" lon="16.1428780">
        <ele>11.1900000</ele>
        <time>2010-12-04T08:36:43Z</time>
      </trkpt>
      <trkpt lat="59.5345650" lon="16.1429630">
        <ele>10.2300000</ele>
        <time>2010-12-04T08:36:44Z</time>
      </trkpt>
      <trkpt lat="59.5346450" lon="16.1430360">
        <ele>9.7500000</ele>
        <time>2010-12-04T08:36:45Z</time>
      </trkpt>
      <trkpt lat="59.5347290" lon="16.1430970">
        <ele>9.2700000</ele>
        <time>2010-12-04T08:36:46Z</time>
      </trkpt>
      <trkpt lat="59.5348130" lon="16.1431470">
        <ele>8.7900000</ele>
        <time>2010-12-04T08:36:47Z</time>
      </trkpt>
      <trkpt lat="59.5349010" lon="16.1431870">
        <ele>8.3100000</ele>
        <time>2010-12-04T08:36:48Z</time>
      </trkpt>
      <trkpt lat="59.5349850" lon="16.1432130">
        <ele>7.8300000</ele>
        <time>2010-12-04T08:36:49Z</time>
      </trkpt>
      <trkpt lat="59.5350690" lon="16.1432300">
        <ele>8.3100000</ele>
        <time>2010-12-04T08:36:50Z</time>
      </trkpt>
      <trkpt lat="59.5356480" lon="16.1433830">
        <ele>10.7100000</ele>
        <time>2010-12-04T08:36:58Z</time>
      </trkpt>
      <trkpt lat="59.5358010" lon="16.1434800">
        <ele>12.1500000</ele>
        <time>2010-12-04T08:37:01Z</time>
      </trkpt>
      <trkpt lat="59.5358430" lon="16.1435260">
        <ele>12.1500000</ele>
        <time>2010-12-04T08:37:02Z</time>
      </trkpt>
      <trkpt lat="59.5358850" lon="16.1435790">
        <ele>12.6300000</ele>
        <time>2010-12-04T08:37:03Z</time>
      </trkpt>
      <trkpt lat="59.5360220" lon="16.1438120">
        <ele>14.5600000</ele>
        <time>2010-12-04T08:37:07Z</time>
      </trkpt>
      <trkpt lat="59.5362890" lon="16.1447160">
        <ele>16.9600000</ele>
        <time>2010-12-04T08:37:18Z</time>
      </trkpt>
      <trkpt lat="59.5367280" lon="16.1466270">
        <ele>18.4000000</ele>
        <time>2010-12-04T08:37:37Z</time>
      </trkpt>
      <trkpt lat="59.5371360" lon="16.1482330">
        <ele>18.8800000</ele>
        <time>2010-12-04T08:37:52Z</time>
      </trkpt>
      <trkpt lat="59.5376170" lon="16.1500210">
        <ele>19.3600000</ele>
        <time>2010-12-04T08:38:09Z</time>
      </trkpt>
      <trkpt lat="59.5378910" lon="16.1512010">
        <ele>18.8800000</ele>
        <time>2010-12-04T08:38:19Z</time>
      </trkpt>
      <trkpt lat="59.5384250" lon="16.1535590">
        <ele>17.9200000</ele>
        <time>2010-12-04T08:38:37Z</time>
      </trkpt>
      <trkpt lat="59.5388760" lon="16.1552120">
        <ele>18.4000000</ele>
        <time>2010-12-04T08:38:51Z</time>
      </trkpt>
      <trkpt lat="59.5395470" lon="16.1568930">
        <ele>19.3600000</ele>
        <time>2010-12-04T08:39:07Z</time>
      </trkpt>
      <trkpt lat="59.5400430" lon="16.1581210">
        <ele>22.2500000</ele>
        <time>2010-12-04T08:39:20Z</time>
      </trkpt>
      <trkpt lat="59.5404890" lon="16.1592880">
        <ele>22.7300000</ele>
        <time>2010-12-04T08:39:32Z</time>
      </trkpt>
      <trkpt lat="59.5410080" lon="16.1608200">
        <ele>21.7700000</ele>
        <time>2010-12-04T08:39:46Z</time>
      </trkpt>
      <trkpt lat="59.5415230" lon="16.1624320">
        <ele>24.6500000</ele>
        <time>2010-12-04T08:40:02Z</time>
      </trkpt>
      <trkpt lat="59.5420230" lon="16.1637550">
        <ele>26.0900000</ele>
        <time>2010-12-04T08:40:17Z</time>
      </trkpt>
      <trkpt lat="59.5425950" lon="16.1647170">
        <ele>28.0200000</ele>
        <time>2010-12-04T08:40:31Z</time>
      </trkpt>
      <trkpt lat="59.5431980" lon="16.1658360">
        <ele>27.0500000</ele>
        <time>2010-12-04T08:40:44Z</time>
      </trkpt>
      <trkpt lat="59.5435220" lon="16.1666320">
        <ele>30.4200000</ele>
        <time>2010-12-04T08:40:54Z</time>
      </trkpt>
      <trkpt lat="59.5439450" lon="16.1678370">
        <ele>30.9000000</ele>
        <time>2010-12-04T08:41:07Z</time>
      </trkpt>
      <trkpt lat="59.5443420" lon="16.1692370">
        <ele>29.4600000</ele>
        <time>2010-12-04T08:41:19Z</time>
      </trkpt>
      <trkpt lat="59.5448610" lon="16.1708600">
        <ele>29.4600000</ele>
        <time>2010-12-04T08:41:32Z</time>
      </trkpt>
      <trkpt lat="59.5453610" lon="16.1722370">
        <ele>27.5300000</ele>
        <time>2010-12-04T08:41:43Z</time>
      </trkpt>
      <trkpt lat="59.5460090" lon="16.1742480">
        <ele>26.5700000</ele>
        <time>2010-12-04T08:41:58Z</time>
      </trkpt>
      <trkpt lat="59.5466080" lon="16.1763020">
        <ele>27.0500000</ele>
        <time>2010-12-04T08:42:14Z</time>
      </trkpt>
      <trkpt lat="59.5470240" lon="16.1777460">
        <ele>29.4600000</ele>
        <time>2010-12-04T08:42:27Z</time>
      </trkpt>
      <trkpt lat="59.5473480" lon="16.1789930">
        <ele>30.9000000</ele>
        <time>2010-12-04T08:42:39Z</time>
      </trkpt>
      <trkpt lat="59.5476300" lon="16.1806620">
        <ele>31.3800000</ele>
        <time>2010-12-04T08:42:53Z</time>
      </trkpt>
      <trkpt lat="59.5478060" lon="16.1821540">
        <ele>31.3800000</ele>
        <time>2010-12-04T08:43:05Z</time>
      </trkpt>
      <trkpt lat="59.5480310" lon="16.1835330">
        <ele>28.5000000</ele>
        <time>2010-12-04T08:43:15Z</time>
      </trkpt>
      <trkpt lat="59.5481720" lon="16.1841510">
        <ele>26.5700000</ele>
        <time>2010-12-04T08:43:19Z</time>
      </trkpt>
      <trkpt lat="59.5483590" lon="16.1847630">
        <ele>24.6500000</ele>
        <time>2010-12-04T08:43:23Z</time>
      </trkpt>
      <trkpt lat="59.5489960" lon="16.1865500">
        <ele>21.2900000</ele>
        <time>2010-12-04T08:43:35Z</time>
      </trkpt>
      <trkpt lat="59.5496710" lon="16.1883660">
        <ele>21.2900000</ele>
        <time>2010-12-04T08:43:49Z</time>
      </trkpt>
      <trkpt lat="59.5505100" lon="16.1904390">
        <ele>20.8100000</ele>
        <time>2010-12-04T08:44:06Z</time>
      </trkpt>
      <trkpt lat="59.5512540" lon="16.1922380">
        <ele>21.7700000</ele>
        <time>2010-12-04T08:44:21Z</time>
      </trkpt>
      <trkpt lat="59.5519940" lon="16.1940820">
        <ele>21.7700000</ele>
        <time>2010-12-04T08:44:36Z</time>
      </trkpt>
      <trkpt lat="59.5525970" lon="16.1958310">
        <ele>22.2500000</ele>
        <time>2010-12-04T08:44:50Z</time>
      </trkpt>
      <trkpt lat="59.5533680" lon="16.1982860">
        <ele>22.2500000</ele>
        <time>2010-12-04T08:45:09Z</time>
      </trkpt>
      <trkpt lat="59.5539090" lon="16.2000470">
        <ele>21.7700000</ele>
        <time>2010-12-04T08:45:23Z</time>
      </trkpt>
      <trkpt lat="59.5541500" lon="16.2008570">
        <ele>21.2900000</ele>
        <time>2010-12-04T08:45:32Z</time>
      </trkpt>
      <trkpt lat="59.5545120" lon="16.2022360">
        <ele>20.3200000</ele>
        <time>2010-12-04T08:45:44Z</time>
      </trkpt>
      <trkpt lat="59.5548710" lon="16.2043630">
        <ele>21.2900000</ele>
        <time>2010-12-04T08:45:59Z</time>
      </trkpt>
      <trkpt lat="59.5552410" lon="16.2068670">
        <ele>19.8400000</ele>
        <time>2010-12-04T08:46:16Z</time>
      </trkpt>
      <trkpt lat="59.5556070" lon="16.2093490">
        <ele>20.3200000</ele>
        <time>2010-12-04T08:46:32Z</time>
      </trkpt>
      <trkpt lat="59.5559880" lon="16.2118230">
        <ele>19.8400000</ele>
        <time>2010-12-04T08:46:48Z</time>
      </trkpt>
      <trkpt lat="59.5564270" lon="16.2136460">
        <ele>19.3600000</ele>
        <time>2010-12-04T08:47:00Z</time>
      </trkpt>
      <trkpt lat="59.5569610" lon="16.2154050">
        <ele>21.2900000</ele>
        <time>2010-12-04T08:47:13Z</time>
      </trkpt>
      <trkpt lat="59.5575980" lon="16.2172410">
        <ele>21.7700000</ele>
        <time>2010-12-04T08:47:29Z</time>
      </trkpt>
      <trkpt lat="59.5583720" lon="16.2192150">
        <ele>18.8800000</ele>
        <time>2010-12-04T08:47:45Z</time>
      </trkpt>
      <trkpt lat="59.5590320" lon="16.2207870">
        <ele>17.9200000</ele>
        <time>2010-12-04T08:47:58Z</time>
      </trkpt>
      <trkpt lat="59.5597990" lon="16.2225820">
        <ele>15.5200000</ele>
        <time>2010-12-04T08:48:13Z</time>
      </trkpt>
      <trkpt lat="59.5606350" lon="16.2244720">
        <ele>15.5200000</ele>
        <time>2010-12-04T08:48:30Z</time>
      </trkpt>
      <trkpt lat="59.5613170" lon="16.2260650">
        <ele>15.0400000</ele>
        <time>2010-12-04T08:48:45Z</time>
      </trkpt>
      <trkpt lat="59.5620000" lon="16.2273390">
        <ele>16.0000000</ele>
        <time>2010-12-04T08:48:59Z</time>
      </trkpt>
      <trkpt lat="59.5626180" lon="16.2284660">
        <ele>16.0000000</ele>
        <time>2010-12-04T08:49:12Z</time>
      </trkpt>
      <trkpt lat="59.5634000" lon="16.2300490">
        <ele>15.5200000</ele>
        <time>2010-12-04T08:49:29Z</time>
      </trkpt>
      <trkpt lat="59.5635300" lon="16.2303330">
        <ele>16.0000000</ele>
        <time>2010-12-04T08:49:32Z</time>
      </trkpt>
      <trkpt lat="59.5635720" lon="16.2304330">
        <ele>15.5200000</ele>
        <time>2010-12-04T08:49:33Z</time>
      </trkpt>
      <trkpt lat="59.5641170" lon="16.2316720">
        <ele>15.5200000</ele>
        <time>2010-12-04T08:49:46Z</time>
      </trkpt>
      <trkpt lat="59.5646780" lon="16.2332420">
        <ele>15.5200000</ele>
        <time>2010-12-04T08:50:01Z</time>
      </trkpt>
      <trkpt lat="59.5651360" lon="16.2347910">
        <ele>14.5600000</ele>
        <time>2010-12-04T08:50:15Z</time>
      </trkpt>
      <trkpt lat="59.5656130" lon="16.2364180">
        <ele>11.6700000</ele>
        <time>2010-12-04T08:50:28Z</time>
      </trkpt>
      <trkpt lat="59.5656660" lon="16.2366920">
        <ele>11.1900000</ele>
        <time>2010-12-04T08:50:30Z</time>
      </trkpt>
      <trkpt lat="59.5656780" lon="16.2368410">
        <ele>11.1900000</ele>
        <time>2010-12-04T08:50:31Z</time>
      </trkpt>
      <trkpt lat="59.5656850" lon="16.2369920">
        <ele>10.7100000</ele>
        <time>2010-12-04T08:50:32Z</time>
      </trkpt>
      <trkpt lat="59.5656780" lon="16.2371370">
        <ele>9.7500000</ele>
        <time>2010-12-04T08:50:33Z</time>
      </trkpt>
      <trkpt lat="59.5656590" lon="16.2372800">
        <ele>9.7500000</ele>
        <time>2010-12-04T08:50:34Z</time>
      </trkpt>
      <trkpt lat="59.5656320" lon="16.2374130">
        <ele>9.2700000</ele>
        <time>2010-12-04T08:50:35Z</time>
      </trkpt>
      <trkpt lat="59.5655940" lon="16.2375340">
        <ele>8.3100000</ele>
        <time>2010-12-04T08:50:36Z</time>
      </trkpt>
      <trkpt lat="59.5655480" lon="16.2376400">
        <ele>8.7900000</ele>
        <time>2010-12-04T08:50:37Z</time>
      </trkpt>
      <trkpt lat="59.5654980" lon="16.2377380">
        <ele>8.3100000</ele>
        <time>2010-12-04T08:50:38Z</time>
      </trkpt>
      <trkpt lat="59.5654410" lon="16.2378220">
        <ele>8.7900000</ele>
        <time>2010-12-04T08:50:39Z</time>
      </trkpt>
      <trkpt lat="59.5653840" lon="16.2378980">
        <ele>8.7900000</ele>
        <time>2010-12-04T08:50:40Z</time>
      </trkpt>
      <trkpt lat="59.5650140" lon="16.2384190">
        <ele>12.1500000</ele>
        <time>2010-12-04T08:50:47Z</time>
      </trkpt>
      <trkpt lat="59.5649680" lon="16.2384910">
        <ele>12.6300000</ele>
        <time>2010-12-04T08:50:48Z</time>
      </trkpt>
      <trkpt lat="59.5646510" lon="16.2391760">
        <ele>15.0400000</ele>
        <time>2010-12-04T08:50:58Z</time>
      </trkpt>
      <trkpt lat="59.5646290" lon="16.2392480">
        <ele>15.0400000</ele>
        <time>2010-12-04T08:50:59Z</time>
      </trkpt>
      <trkpt lat="59.5646100" lon="16.2393280">
        <ele>15.0400000</ele>
        <time>2010-12-04T08:51:00Z</time>
      </trkpt>
      <trkpt lat="59.5645140" lon="16.2404100">
        <ele>16.0000000</ele>
        <time>2010-12-04T08:51:12Z</time>
      </trkpt>
      <trkpt lat="59.5644490" lon="16.2421400">
        <ele>16.9600000</ele>
        <time>2010-12-04T08:51:29Z</time>
      </trkpt>
      <trkpt lat="59.5643650" lon="16.2435840">
        <ele>17.4400000</ele>
        <time>2010-12-04T08:51:43Z</time>
      </trkpt>
      <trkpt lat="59.5642590" lon="16.2454400">
        <ele>17.9200000</ele>
        <time>2010-12-04T08:52:00Z</time>
      </trkpt>
      <trkpt lat="59.5641670" lon="16.2471160">
        <ele>17.9200000</ele>
        <time>2010-12-04T08:52:14Z</time>
      </trkpt>
      <trkpt lat="59.5640140" lon="16.2495610">
        <ele>16.4800000</ele>
        <time>2010-12-04T08:52:33Z</time>
      </trkpt>
      <trkpt lat="59.5638920" lon="16.2516480">
        <ele>16.0000000</ele>
        <time>2010-12-04T08:52:49Z</time>
      </trkpt>
      <trkpt lat="59.5637780" lon="16.2536350">
        <ele>15.0400000</ele>
        <time>2010-12-04T08:53:04Z</time>
      </trkpt>
      <trkpt lat="59.5636750" lon="16.2554470">
        <ele>15.0400000</ele>
        <time>2010-12-04T08:53:18Z</time>
      </trkpt>
      <trkpt lat="59.5635600" lon="16.2573530">
        <ele>16.0000000</ele>
        <time>2010-12-04T08:53:33Z</time>
      </trkpt>
      <trkpt lat="59.5634460" lon="16.2593210">
        <ele>16.4800000</ele>
        <time>2010-12-04T08:53:49Z</time>
      </trkpt>
      <trkpt lat="59.5633130" lon="16.2615450">
        <ele>17.4400000</ele>
        <time>2010-12-04T08:54:08Z</time>
      </trkpt>
      <trkpt lat="59.5632360" lon="16.2636720">
        <ele>18.4000000</ele>
        <time>2010-12-04T08:54:25Z</time>
      </trkpt>
      <trkpt lat="59.5633470" lon="16.2655620">
        <ele>17.4400000</ele>
        <time>2010-12-04T08:54:39Z</time>
      </trkpt>
      <trkpt lat="59.5636560" lon="16.2676070">
        <ele>17.4400000</ele>
        <time>2010-12-04T08:54:54Z</time>
      </trkpt>
      <trkpt lat="59.5639690" lon="16.2699300">
        <ele>15.5200000</ele>
        <time>2010-12-04T08:55:10Z</time>
      </trkpt>
      <trkpt lat="59.5640450" lon="16.2722590">
        <ele>14.5600000</ele>
        <time>2010-12-04T08:55:25Z</time>
      </trkpt>
      <trkpt lat="59.5641140" lon="16.2747880">
        <ele>14.5600000</ele>
        <time>2010-12-04T08:55:42Z</time>
      </trkpt>
      <trkpt lat="59.5641670" lon="16.2772460">
        <ele>14.5600000</ele>
        <time>2010-12-04T08:55:59Z</time>
      </trkpt>
      <trkpt lat="59.5642010" lon="16.2797280">
        <ele>15.0400000</ele>
        <time>2010-12-04T08:56:17Z</time>
      </trkpt>
      <trkpt lat="59.5642090" lon="16.2813470">
        <ele>15.5200000</ele>
        <time>2010-12-04T08:56:29Z</time>
      </trkpt>
      <trkpt lat="59.5640530" lon="16.2829900">
        <ele>17.4400000</ele>
        <time>2010-12-04T08:56:42Z</time>
      </trkpt>
      <trkpt lat="59.5636980" lon="16.2846490">
        <ele>15.5200000</ele>
        <time>2010-12-04T08:56:56Z</time>
      </trkpt>
      <trkpt lat="59.5635760" lon="16.2852040">
        <ele>14.5600000</ele>
        <time>2010-12-04T08:57:00Z</time>
      </trkpt>
      <trkpt lat="59.5631790" lon="16.2873330">
        <ele>13.1200000</ele>
        <time>2010-12-04T08:57:15Z</time>
      </trkpt>
      <trkpt lat="59.5628740" lon="16.2894480">
        <ele>13.6000000</ele>
        <time>2010-12-04T08:57:30Z</time>
      </trkpt>
      <trkpt lat="59.5627100" lon="16.2916510">
        <ele>11.1900000</ele>
        <time>2010-12-04T08:57:45Z</time>
      </trkpt>
      <trkpt lat="59.5627440" lon="16.2942430">
        <ele>10.2300000</ele>
        <time>2010-12-04T08:58:02Z</time>
      </trkpt>
      <trkpt lat="59.5628810" lon="16.2969820">
        <ele>9.7500000</ele>
        <time>2010-12-04T08:58:20Z</time>
      </trkpt>
      <trkpt lat="59.5630070" lon="16.2995550">
        <ele>9.2700000</ele>
        <time>2010-12-04T08:58:37Z</time>
      </trkpt>
      <trkpt lat="59.5630300" lon="16.3000090">
        <ele>5.9100000</ele>
        <time>2010-12-04T08:58:40Z</time>
      </trkpt>
      <trkpt lat="59.5630420" lon="16.3001590">
        <ele>9.7500000</ele>
        <time>2010-12-04T08:58:41Z</time>
      </trkpt>
      <trkpt lat="59.5631450" lon="16.3022190">
        <ele>9.2700000</ele>
        <time>2010-12-04T08:58:55Z</time>
      </trkpt>
      <trkpt lat="59.5632400" lon="16.3041950">
        <ele>9.2700000</ele>
        <time>2010-12-04T08:59:09Z</time>
      </trkpt>
      <trkpt lat="59.5632320" lon="16.3063200">
        <ele>10.2300000</ele>
        <time>2010-12-04T08:59:24Z</time>
      </trkpt>
      <trkpt lat="59.5630490" lon="16.3083610">
        <ele>10.2300000</ele>
        <time>2010-12-04T08:59:39Z</time>
      </trkpt>
      <trkpt lat="59.5627520" lon="16.3101810">
        <ele>10.7100000</ele>
        <time>2010-12-04T08:59:53Z</time>
      </trkpt>
      <trkpt lat="59.5623660" lon="16.3121970">
        <ele>10.2300000</ele>
        <time>2010-12-04T09:00:08Z</time>
      </trkpt>
      <trkpt lat="59.5619390" lon="16.3144650">
        <ele>10.2300000</ele>
        <time>2010-12-04T09:00:25Z</time>
      </trkpt>
      <trkpt lat="59.5615500" lon="16.3164860">
        <ele>9.2700000</ele>
        <time>2010-12-04T09:00:40Z</time>
      </trkpt>
      <trkpt lat="59.5611420" lon="16.3185880">
        <ele>8.7900000</ele>
        <time>2010-12-04T09:00:56Z</time>
      </trkpt>
      <trkpt lat="59.5607680" lon="16.3205550">
        <ele>8.7900000</ele>
        <time>2010-12-04T09:01:11Z</time>
      </trkpt>
      <trkpt lat="59.5604130" lon="16.3223900">
        <ele>9.2700000</ele>
        <time>2010-12-04T09:01:25Z</time>
      </trkpt>
      <trkpt lat="59.5600400" lon="16.3241560">
        <ele>9.7500000</ele>
        <time>2010-12-04T09:01:39Z</time>
      </trkpt>
      <trkpt lat="59.5596160" lon="16.3258930">
        <ele>10.2300000</ele>
        <time>2010-12-04T09:01:53Z</time>
      </trkpt>
      <trkpt lat="59.5590930" lon="16.3279530">
        <ele>8.7900000</ele>
        <time>2010-12-04T09:02:08Z</time>
      </trkpt>
      <trkpt lat="59.5586280" lon="16.3299120">
        <ele>8.7900000</ele>
        <time>2010-12-04T09:02:23Z</time>
      </trkpt>
      <trkpt lat="59.5583110" lon="16.3317790">
        <ele>8.7900000</ele>
        <time>2010-12-04T09:02:37Z</time>
      </trkpt>
      <trkpt lat="59.5581440" lon="16.3329180">
        <ele>8.7900000</ele>
        <time>2010-12-04T09:02:48Z</time>
      </trkpt>
      <trkpt lat="59.5581050" lon="16.3331740">
        <ele>8.7900000</ele>
        <time>2010-12-04T09:02:55Z</time>
      </trkpt>
      <trkpt lat="59.5581050" lon="16.3331740">
        <ele>9.2700000</ele>
        <time>2010-12-04T09:03:20Z</time>
      </trkpt>
      <trkpt lat="59.5581050" lon="16.3331760">
        <ele>9.2700000</ele>
        <time>2010-12-04T09:03:39Z</time>
      </trkpt>
      <trkpt lat="59.5581050" lon="16.3331760">
        <ele>9.2700000</ele>
        <time>2010-12-04T09:04:03Z</time>
      </trkpt>
      <trkpt lat="59.5581050" lon="16.3331780">
        <ele>8.7900000</ele>
        <time>2010-12-04T09:04:27Z</time>
      </trkpt>
      <trkpt lat="59.5581050" lon="16.3331780">
        <ele>8.7900000</ele>
        <time>2010-12-04T09:04:45Z</time>
      </trkpt>
      <trkpt lat="59.5581050" lon="16.3331760">
        <ele>8.7900000</ele>
        <time>2010-12-04T09:05:10Z</time>
      </trkpt>
      <trkpt lat="59.5581050" lon="16.3331740">
        <ele>9.2700000</ele>
        <time>2010-12-04T09:05:33Z</time>
      </trkpt>
      <trkpt lat="59.5581050" lon="16.3331740">
        <ele>9.2700000</ele>
        <time>2010-12-04T09:05:46Z</time>
      </trkpt>
      <trkpt lat="59.5580830" lon="16.3333530">
        <ele>9.2700000</ele>
        <time>2010-12-04T09:05:59Z</time>
      </trkpt>
      <trkpt lat="59.5579910" lon="16.3340000">
        <ele>8.7900000</ele>
        <time>2010-12-04T09:06:08Z</time>
      </trkpt>
      <trkpt lat="59.5577510" lon="16.3356700">
        <ele>8.3100000</ele>
        <time>2010-12-04T09:06:24Z</time>
      </trkpt>
      <trkpt lat="59.5575370" lon="16.3373870">
        <ele>7.3500000</ele>
        <time>2010-12-04T09:06:39Z</time>
      </trkpt>
      <trkpt lat="59.5574460" lon="16.3388140">
        <ele>8.3100000</ele>
        <time>2010-12-04T09:06:52Z</time>
      </trkpt>
      <trkpt lat="59.5573310" lon="16.3395180">
        <ele>6.8700000</ele>
        <time>2010-12-04T09:07:01Z</time>
      </trkpt>
      <trkpt lat="59.5573160" lon="16.3396530">
        <ele>7.3500000</ele>
        <time>2010-12-04T09:07:08Z</time>
      </trkpt>
      <trkpt lat="59.5574040" lon="16.3398840">
        <ele>6.3900000</ele>
        <time>2010-12-04T09:07:13Z</time>
      </trkpt>
      <trkpt lat="59.5579380" lon="16.3405230">
        <ele>6.8700000</ele>
        <time>2010-12-04T09:07:25Z</time>
      </trkpt>
      <trkpt lat="59.5585560" lon="16.3414800">
        <ele>6.3900000</ele>
        <time>2010-12-04T09:07:38Z</time>
      </trkpt>
      <trkpt lat="59.5591470" lon="16.3426460">
        <ele>7.3500000</ele>
        <time>2010-12-04T09:07:52Z</time>
      </trkpt>
      <trkpt lat="59.5597920" lon="16.3440270">
        <ele>7.8300000</ele>
        <time>2010-12-04T09:08:08Z</time>
      </trkpt>
      <trkpt lat="59.5604670" lon="16.3451230">
        <ele>7.8300000</ele>
        <time>2010-12-04T09:08:23Z</time>
      </trkpt>
      <trkpt lat="59.5605160" lon="16.3451880">
        <ele>0.1400000</ele>
        <time>2010-12-04T09:08:24Z</time>
      </trkpt>
      <trkpt lat="59.5605660" lon="16.3452510">
        <ele>8.7900000</ele>
        <time>2010-12-04T09:08:25Z</time>
      </trkpt>
      <trkpt lat="59.5611530" lon="16.3458650">
        <ele>8.3100000</ele>
        <time>2010-12-04T09:08:37Z</time>
      </trkpt>
      <trkpt lat="59.5618550" lon="16.3463480">
        <ele>10.2300000</ele>
        <time>2010-12-04T09:08:52Z</time>
      </trkpt>
      <trkpt lat="59.5625760" lon="16.3467540">
        <ele>13.1200000</ele>
        <time>2010-12-04T09:09:09Z</time>
      </trkpt>
      <trkpt lat="59.5632740" lon="16.3471470">
        <ele>16.4800000</ele>
        <time>2010-12-04T09:09:26Z</time>
      </trkpt>
      <trkpt lat="59.5634880" lon="16.3472730">
        <ele>17.9200000</ele>
        <time>2010-12-04T09:09:31Z</time>
      </trkpt>
      <trkpt lat="59.5640220" lon="16.3476100">
        <ele>19.3600000</ele>
        <time>2010-12-04T09:09:44Z</time>
      </trkpt>
      <trkpt lat="59.5647160" lon="16.3480240">
        <ele>20.8100000</ele>
        <time>2010-12-04T09:10:00Z</time>
      </trkpt>
      <trkpt lat="59.5652620" lon="16.3483330">
        <ele>21.2900000</ele>
        <time>2010-12-04T09:10:12Z</time>
      </trkpt>
      <trkpt lat="59.5658260" lon="16.3487400">
        <ele>20.3200000</ele>
        <time>2010-12-04T09:10:23Z</time>
      </trkpt>
      <trkpt lat="59.5658720" lon="16.3488030">
        <ele>20.3200000</ele>
        <time>2010-12-04T09:10:24Z</time>
      </trkpt>
      <trkpt lat="59.5659180" lon="16.3488750">
        <ele>20.8100000</ele>
        <time>2010-12-04T09:10:25Z</time>
      </trkpt>
      <trkpt lat="59.5659560" lon="16.3489530">
        <ele>20.8100000</ele>
        <time>2010-12-04T09:10:26Z</time>
      </trkpt>
      <trkpt lat="59.5659940" lon="16.3490370">
        <ele>20.8100000</ele>
        <time>2010-12-04T09:10:27Z</time>
      </trkpt>
      <trkpt lat="59.5660290" lon="16.3491290">
        <ele>20.3200000</ele>
        <time>2010-12-04T09:10:28Z</time>
      </trkpt>
      <trkpt lat="59.5660630" lon="16.3492280">
        <ele>20.3200000</ele>
        <time>2010-12-04T09:10:29Z</time>
      </trkpt>
      <trkpt lat="59.5660900" lon="16.3493290">
        <ele>20.3200000</ele>
        <time>2010-12-04T09:10:30Z</time>
      </trkpt>
      <trkpt lat="59.5661510" lon="16.3496510">
        <ele>19.8400000</ele>
        <time>2010-12-04T09:10:33Z</time>
      </trkpt>
      <trkpt lat="59.5661890" lon="16.3504370">
        <ele>17.4400000</ele>
        <time>2010-12-04T09:10:39Z</time>
      </trkpt>
      <trkpt lat="59.5661850" lon="16.3526360">
        <ele>15.0400000</ele>
        <time>2010-12-04T09:10:54Z</time>
      </trkpt>
      <trkpt lat="59.5661850" lon="16.3547100">
        <ele>15.5200000</ele>
        <time>2010-12-04T09:11:10Z</time>
      </trkpt>
      <trkpt lat="59.5661770" lon="16.3569320">
        <ele>16.0000000</ele>
        <time>2010-12-04T09:11:27Z</time>
      </trkpt>
      <trkpt lat="59.5661770" lon="16.3587440">
        <ele>16.4800000</ele>
        <time>2010-12-04T09:11:41Z</time>
      </trkpt>
      <trkpt lat="59.5661740" lon="16.3611410">
        <ele>16.0000000</ele>
        <time>2010-12-04T09:11:58Z</time>
      </trkpt>
      <trkpt lat="59.5662160" lon="16.3636510">
        <ele>15.5200000</ele>
        <time>2010-12-04T09:12:15Z</time>
      </trkpt>
      <trkpt lat="59.5664440" lon="16.3662320">
        <ele>15.5200000</ele>
        <time>2010-12-04T09:12:33Z</time>
      </trkpt>
      <trkpt lat="59.5667920" lon="16.3684980">
        <ele>16.4800000</ele>
        <time>2010-12-04T09:12:50Z</time>
      </trkpt>
      <trkpt lat="59.5671390" lon="16.3705750">
        <ele>16.0000000</ele>
        <time>2010-12-04T09:13:06Z</time>
      </trkpt>
      <trkpt lat="59.5673070" lon="16.3717120">
        <ele>15.5200000</ele>
        <time>2010-12-04T09:13:16Z</time>
      </trkpt>
      <trkpt lat="59.5676120" lon="16.3734340">
        <ele>15.0400000</ele>
        <time>2010-12-04T09:13:30Z</time>
      </trkpt>
      <trkpt lat="59.5679970" lon="16.3752160">
        <ele>15.5200000</ele>
        <time>2010-12-04T09:13:45Z</time>
      </trkpt>
      <trkpt lat="59.5684890" lon="16.3773120">
        <ele>16.9600000</ele>
        <time>2010-12-04T09:14:04Z</time>
      </trkpt>
      <trkpt lat="59.5689390" lon="16.3792270">
        <ele>17.9200000</ele>
        <time>2010-12-04T09:14:22Z</time>
      </trkpt>
      <trkpt lat="59.5694200" lon="16.3813360">
        <ele>16.0000000</ele>
        <time>2010-12-04T09:14:39Z</time>
      </trkpt>
      <trkpt lat="59.5699460" lon="16.3836170">
        <ele>16.0000000</ele>
        <time>2010-12-04T09:14:57Z</time>
      </trkpt>
      <trkpt lat="59.5704230" lon="16.3855780">
        <ele>16.0000000</ele>
        <time>2010-12-04T09:15:13Z</time>
      </trkpt>
      <trkpt lat="59.5710910" lon="16.3879030">
        <ele>15.5200000</ele>
        <time>2010-12-04T09:15:33Z</time>
      </trkpt>
      <trkpt lat="59.5716550" lon="16.3894650">
        <ele>16.9600000</ele>
        <time>2010-12-04T09:15:48Z</time>
      </trkpt>
      <trkpt lat="59.5723190" lon="16.3911110">
        <ele>16.4800000</ele>
        <time>2010-12-04T09:16:04Z</time>
      </trkpt>
      <trkpt lat="59.5728720" lon="16.3925700">
        <ele>17.9200000</ele>
        <time>2010-12-04T09:16:18Z</time>
      </trkpt>
      <trkpt lat="59.5734140" lon="16.3941380">
        <ele>18.8800000</ele>
        <time>2010-12-04T09:16:33Z</time>
      </trkpt>
      <trkpt lat="59.5739710" lon="16.3956570">
        <ele>19.3600000</ele>
        <time>2010-12-04T09:16:48Z</time>
      </trkpt>
      <trkpt lat="59.5747410" lon="16.3972680">
        <ele>18.4000000</ele>
        <time>2010-12-04T09:17:04Z</time>
      </trkpt>
      <trkpt lat="59.5756030" lon="16.3989930">
        <ele>17.4400000</ele>
        <time>2010-12-04T09:17:20Z</time>
      </trkpt>
      <trkpt lat="59.5765840" lon="16.4009930">
        <ele>16.9600000</ele>
        <time>2010-12-04T09:17:38Z</time>
      </trkpt>
      <trkpt lat="59.5775380" lon="16.4029160">
        <ele>17.4400000</ele>
        <time>2010-12-04T09:17:55Z</time>
      </trkpt>
      <trkpt lat="59.5784910" lon="16.4050900">
        <ele>16.9600000</ele>
        <time>2010-12-04T09:18:13Z</time>
      </trkpt>
      <trkpt lat="59.5793720" lon="16.4072930">
        <ele>16.4800000</ele>
        <time>2010-12-04T09:18:31Z</time>
      </trkpt>
      <trkpt lat="59.5801770" lon="16.4092810">
        <ele>14.5600000</ele>
        <time>2010-12-04T09:18:47Z</time>
      </trkpt>
      <trkpt lat="59.5810200" lon="16.4113860">
        <ele>14.5600000</ele>
        <time>2010-12-04T09:19:04Z</time>
      </trkpt>
      <trkpt lat="59.5817950" lon="16.4136730">
        <ele>14.5600000</ele>
        <time>2010-12-04T09:19:22Z</time>
      </trkpt>
      <trkpt lat="59.5825610" lon="16.4161610">
        <ele>14.5600000</ele>
        <time>2010-12-04T09:19:41Z</time>
      </trkpt>
      <trkpt lat="59.5832440" lon="16.4186020">
        <ele>14.0800000</ele>
        <time>2010-12-04T09:19:59Z</time>
      </trkpt>
      <trkpt lat="59.5836830" lon="16.4210890">
        <ele>15.0400000</ele>
        <time>2010-12-04T09:20:16Z</time>
      </trkpt>
      <trkpt lat="59.5840530" lon="16.4236160">
        <ele>16.0000000</ele>
        <time>2010-12-04T09:20:34Z</time>
      </trkpt>
      <trkpt lat="59.5844350" lon="16.4261990">
        <ele>16.4800000</ele>
        <time>2010-12-04T09:20:53Z</time>
      </trkpt>
      <trkpt lat="59.5848080" lon="16.4284440">
        <ele>16.9600000</ele>
        <time>2010-12-04T09:21:10Z</time>
      </trkpt>
      <trkpt lat="59.5851440" lon="16.4302670">
        <ele>16.9600000</ele>
        <time>2010-12-04T09:21:24Z</time>
      </trkpt>
      <trkpt lat="59.5855290" lon="16.4319860">
        <ele>18.4000000</ele>
        <time>2010-12-04T09:21:38Z</time>
      </trkpt>
      <trkpt lat="59.5860290" lon="16.4336590">
        <ele>16.9600000</ele>
        <time>2010-12-04T09:21:51Z</time>
      </trkpt>
      <trkpt lat="59.5866700" lon="16.4356610">
        <ele>16.9600000</ele>
        <time>2010-12-04T09:22:06Z</time>
      </trkpt>
      <trkpt lat="59.5871960" lon="16.4373090">
        <ele>16.9600000</ele>
        <time>2010-12-04T09:22:20Z</time>
      </trkpt>
      <trkpt lat="59.5872650" lon="16.4375380">
        <ele>21.2900000</ele>
        <time>2010-12-04T09:22:22Z</time>
      </trkpt>
      <trkpt lat="59.5872990" lon="16.4376530">
        <ele>17.4400000</ele>
        <time>2010-12-04T09:22:23Z</time>
      </trkpt>
      <trkpt lat="59.5876810" lon="16.4391900">
        <ele>16.9600000</ele>
        <time>2010-12-04T09:22:35Z</time>
      </trkpt>
      <trkpt lat="59.5881610" lon="16.4415090">
        <ele>16.0000000</ele>
        <time>2010-12-04T09:22:52Z</time>
      </trkpt>
      <trkpt lat="59.5883410" lon="16.4425220">
        <ele>16.4800000</ele>
        <time>2010-12-04T09:23:00Z</time>
      </trkpt>
      <trkpt lat="59.5883370" lon="16.4426330">
        <ele>16.0000000</ele>
        <time>2010-12-04T09:23:01Z</time>
      </trkpt>
      <trkpt lat="59.5883260" lon="16.4427390">
        <ele>16.0000000</ele>
        <time>2010-12-04T09:23:02Z</time>
      </trkpt>
      <trkpt lat="59.5883030" lon="16.4428370">
        <ele>16.4800000</ele>
        <time>2010-12-04T09:23:03Z</time>
      </trkpt>
      <trkpt lat="59.5882800" lon="16.4429190">
        <ele>16.4800000</ele>
        <time>2010-12-04T09:23:04Z</time>
      </trkpt>
      <trkpt lat="59.5882490" lon="16.4429860">
        <ele>16.4800000</ele>
        <time>2010-12-04T09:23:05Z</time>
      </trkpt>
      <trkpt lat="59.5882150" lon="16.4430390">
        <ele>16.0000000</ele>
        <time>2010-12-04T09:23:06Z</time>
      </trkpt>
      <trkpt lat="59.5881810" lon="16.4430810">
        <ele>15.5200000</ele>
        <time>2010-12-04T09:23:07Z</time>
      </trkpt>
      <trkpt lat="59.5881390" lon="16.4431190">
        <ele>16.0000000</ele>
        <time>2010-12-04T09:23:08Z</time>
      </trkpt>
      <trkpt lat="59.5880890" lon="16.4431510">
        <ele>16.0000000</ele>
        <time>2010-12-04T09:23:09Z</time>
      </trkpt>
      <trkpt lat="59.5880360" lon="16.4431800">
        <ele>15.0400000</ele>
        <time>2010-12-04T09:23:10Z</time>
      </trkpt>
      <trkpt lat="59.5879780" lon="16.4432030">
        <ele>15.0400000</ele>
        <time>2010-12-04T09:23:11Z</time>
      </trkpt>
      <trkpt lat="59.5873790" lon="16.4433750">
        <ele>11.1900000</ele>
        <time>2010-12-04T09:23:20Z</time>
      </trkpt>
      <trkpt lat="59.5871430" lon="16.4434110">
        <ele>10.2300000</ele>
        <time>2010-12-04T09:23:24Z</time>
      </trkpt>
      <trkpt lat="59.5871010" lon="16.4434260">
        <ele>10.2300000</ele>
        <time>2010-12-04T09:23:25Z</time>
      </trkpt>
      <trkpt lat="59.5865360" lon="16.4435480">
        <ele>12.1500000</ele>
        <time>2010-12-04T09:23:36Z</time>
      </trkpt>
      <trkpt lat="59.5860820" lon="16.4436450">
        <ele>14.0800000</ele>
        <time>2010-12-04T09:23:46Z</time>
      </trkpt>
      <trkpt lat="59.5853310" lon="16.4438150">
        <ele>14.0800000</ele>
        <time>2010-12-04T09:24:00Z</time>
      </trkpt>
      <trkpt lat="59.5844730" lon="16.4440000">
        <ele>15.0400000</ele>
        <time>2010-12-04T09:24:14Z</time>
      </trkpt>
      <trkpt lat="59.5844190" lon="16.4440330">
        <ele>14.5600000</ele>
        <time>2010-12-04T09:24:15Z</time>
      </trkpt>
      <trkpt lat="59.5843700" lon="16.4440800">
        <ele>14.5600000</ele>
        <time>2010-12-04T09:24:16Z</time>
      </trkpt>
      <trkpt lat="59.5843320" lon="16.4441490">
        <ele>14.0800000</ele>
        <time>2010-12-04T09:24:17Z</time>
      </trkpt>
      <trkpt lat="59.5843010" lon="16.4442350">
        <ele>14.5600000</ele>
        <time>2010-12-04T09:24:18Z</time>
      </trkpt>
      <trkpt lat="59.5842860" lon="16.4443340">
        <ele>14.5600000</ele>
        <time>2010-12-04T09:24:19Z</time>
      </trkpt>
      <trkpt lat="59.5842780" lon="16.4444450">
        <ele>14.0800000</ele>
        <time>2010-12-04T09:24:20Z</time>
      </trkpt>
      <trkpt lat="59.5842780" lon="16.4445610">
        <ele>14.0800000</ele>
        <time>2010-12-04T09:24:21Z</time>
      </trkpt>
      <trkpt lat="59.5842860" lon="16.4446790">
        <ele>14.0800000</ele>
        <time>2010-12-04T09:24:22Z</time>
      </trkpt>
      <trkpt lat="59.5843010" lon="16.4447980">
        <ele>14.0800000</ele>
        <time>2010-12-04T09:24:23Z</time>
      </trkpt>
      <trkpt lat="59.5843160" lon="16.4449180">
        <ele>14.0800000</ele>
        <time>2010-12-04T09:24:24Z</time>
      </trkpt>
      <trkpt lat="59.5845450" lon="16.4466110">
        <ele>14.5600000</ele>
        <time>2010-12-04T09:24:37Z</time>
      </trkpt>
      <trkpt lat="59.5846670" lon="16.4487460">
        <ele>13.1200000</ele>
        <time>2010-12-04T09:24:52Z</time>
      </trkpt>
      <trkpt lat="59.5846940" lon="16.4509750">
        <ele>13.1200000</ele>
        <time>2010-12-04T09:25:07Z</time>
      </trkpt>
      <trkpt lat="59.5847090" lon="16.4531420">
        <ele>13.6000000</ele>
        <time>2010-12-04T09:25:22Z</time>
      </trkpt>
      <trkpt lat="59.5845570" lon="16.4548340">
        <ele>13.6000000</ele>
        <time>2010-12-04T09:25:34Z</time>
      </trkpt>
      <trkpt lat="59.5842290" lon="16.4570810">
        <ele>13.6000000</ele>
        <time>2010-12-04T09:25:50Z</time>
      </trkpt>
      <trkpt lat="59.5841140" lon="16.4591770">
        <ele>13.1200000</ele>
        <time>2010-12-04T09:26:04Z</time>
      </trkpt>
      <trkpt lat="59.5841330" lon="16.4617120">
        <ele>12.6300000</ele>
        <time>2010-12-04T09:26:21Z</time>
      </trkpt>
      <trkpt lat="59.5843470" lon="16.4645020">
        <ele>11.6700000</ele>
        <time>2010-12-04T09:26:40Z</time>
      </trkpt>
      <trkpt lat="59.5846630" lon="16.4669820">
        <ele>10.7100000</ele>
        <time>2010-12-04T09:26:57Z</time>
      </trkpt>
      <trkpt lat="59.5849190" lon="16.4687610">
        <ele>10.7100000</ele>
        <time>2010-12-04T09:27:11Z</time>
      </trkpt>
      <trkpt lat="59.5851480" lon="16.4703200">
        <ele>10.7100000</ele>
        <time>2010-12-04T09:27:24Z</time>
      </trkpt>
      <trkpt lat="59.5853390" lon="16.4717690">
        <ele>10.7100000</ele>
        <time>2010-12-04T09:27:37Z</time>
      </trkpt>
      <trkpt lat="59.5853200" lon="16.4719830">
        <ele>10.2300000</ele>
        <time>2010-12-04T09:27:45Z</time>
      </trkpt>
      <trkpt lat="59.5853160" lon="16.4719940">
        <ele>10.7100000</ele>
        <time>2010-12-04T09:28:00Z</time>
      </trkpt>
      <trkpt lat="59.5853160" lon="16.4719920">
        <ele>11.1900000</ele>
        <time>2010-12-04T09:28:33Z</time>
      </trkpt>
      <trkpt lat="59.5853160" lon="16.4719850">
        <ele>11.1900000</ele>
        <time>2010-12-04T09:29:09Z</time>
      </trkpt>
      <trkpt lat="59.5853160" lon="16.4719850">
        <ele>11.1900000</ele>
        <time>2010-12-04T09:29:38Z</time>
      </trkpt>
      <trkpt lat="59.5853160" lon="16.4719540">
        <ele>11.6700000</ele>
        <time>2010-12-04T09:30:02Z</time>
      </trkpt>
      <trkpt lat="59.5853120" lon="16.4719300">
        <ele>11.6700000</ele>
        <time>2010-12-04T09:30:14Z</time>
      </trkpt>
      <trkpt lat="59.5853120" lon="16.4719300">
        <ele>11.6700000</ele>
        <time>2010-12-04T09:30:31Z</time>
      </trkpt>
      <trkpt lat="59.5853270" lon="16.4719490">
        <ele>11.6700000</ele>
        <time>2010-12-04T09:30:33Z</time>
      </trkpt>
      <trkpt lat="59.5853390" lon="16.4719720">
        <ele>11.6700000</ele>
        <time>2010-12-04T09:30:34Z</time>
      </trkpt>
      <trkpt lat="59.5854110" lon="16.4723950">
        <ele>11.6700000</ele>
        <time>2010-12-04T09:30:41Z</time>
      </trkpt>
      <trkpt lat="59.5856320" lon="16.4738790">
        <ele>12.1500000</ele>
        <time>2010-12-04T09:30:55Z</time>
      </trkpt>
      <trkpt lat="59.5858420" lon="16.4751970">
        <ele>12.6300000</ele>
        <time>2010-12-04T09:31:07Z</time>
      </trkpt>
      <trkpt lat="59.5860860" lon="16.4768390">
        <ele>13.6000000</ele>
        <time>2010-12-04T09:31:21Z</time>
      </trkpt>
      <trkpt lat="59.5863530" lon="16.4787180">
        <ele>14.0800000</ele>
        <time>2010-12-04T09:31:37Z</time>
      </trkpt>
      <trkpt lat="59.5866090" lon="16.4804550">
        <ele>15.0400000</ele>
        <time>2010-12-04T09:31:52Z</time>
      </trkpt>
      <trkpt lat="59.5868910" lon="16.4824640">
        <ele>13.6000000</ele>
        <time>2010-12-04T09:32:08Z</time>
      </trkpt>
      <trkpt lat="59.5870510" lon="16.4834480">
        <ele>13.1200000</ele>
        <time>2010-12-04T09:32:16Z</time>
      </trkpt>
      <trkpt lat="59.5870820" lon="16.4835530">
        <ele>13.6000000</ele>
        <time>2010-12-04T09:32:17Z</time>
      </trkpt>
      <trkpt lat="59.5871240" lon="16.4836500">
        <ele>13.1200000</ele>
        <time>2010-12-04T09:32:18Z</time>
      </trkpt>
      <trkpt lat="59.5871660" lon="16.4837320">
        <ele>13.1200000</ele>
        <time>2010-12-04T09:32:19Z</time>
      </trkpt>
      <trkpt lat="59.5872120" lon="16.4838010">
        <ele>13.1200000</ele>
        <time>2010-12-04T09:32:20Z</time>
      </trkpt>
      <trkpt lat="59.5872610" lon="16.4838600">
        <ele>13.1200000</ele>
        <time>2010-12-04T09:32:21Z</time>
      </trkpt>
      <trkpt lat="59.5878070" lon="16.4842720">
        <ele>12.1500000</ele>
        <time>2010-12-04T09:32:32Z</time>
      </trkpt>
      <trkpt lat="59.5884360" lon="16.4847760">
        <ele>11.1900000</ele>
        <time>2010-12-04T09:32:43Z</time>
      </trkpt>
      <trkpt lat="59.5886000" lon="16.4850220">
        <ele>12.1500000</ele>
        <time>2010-12-04T09:32:46Z</time>
      </trkpt>
      <trkpt lat="59.5886500" lon="16.4851250">
        <ele>11.6700000</ele>
        <time>2010-12-04T09:32:47Z</time>
      </trkpt>
      <trkpt lat="59.5886920" lon="16.4852370">
        <ele>11.6700000</ele>
        <time>2010-12-04T09:32:48Z</time>
      </trkpt>
      <trkpt lat="59.5887300" lon="16.4853550">
        <ele>11.6700000</ele>
        <time>2010-12-04T09:32:49Z</time>
      </trkpt>
      <trkpt lat="59.5887640" lon="16.4854790">
        <ele>11.6700000</ele>
        <time>2010-12-04T09:32:50Z</time>
      </trkpt>
      <trkpt lat="59.5887950" lon="16.4856090">
        <ele>11.6700000</ele>
        <time>2010-12-04T09:32:51Z</time>
      </trkpt>
      <trkpt lat="59.5888210" lon="16.4857440">
        <ele>11.6700000</ele>
        <time>2010-12-04T09:32:52Z</time>
      </trkpt>
      <trkpt lat="59.5888440" lon="16.4858840">
        <ele>11.6700000</ele>
        <time>2010-12-04T09:32:53Z</time>
      </trkpt>
      <trkpt lat="59.5888630" lon="16.4860270">
        <ele>10.7100000</ele>
        <time>2010-12-04T09:32:54Z</time>
      </trkpt>
      <trkpt lat="59.5891380" lon="16.4883690">
        <ele>11.1900000</ele>
        <time>2010-12-04T09:33:10Z</time>
      </trkpt>
      <trkpt lat="59.5894390" lon="16.4909360">
        <ele>10.2300000</ele>
        <time>2010-12-04T09:33:27Z</time>
      </trkpt>
      <trkpt lat="59.5896530" lon="16.4929260">
        <ele>10.7100000</ele>
        <time>2010-12-04T09:33:40Z</time>
      </trkpt>
      <trkpt lat="59.5898480" lon="16.4951670">
        <ele>11.1900000</ele>
        <time>2010-12-04T09:33:55Z</time>
      </trkpt>
      <trkpt lat="59.5900500" lon="16.4974650">
        <ele>11.1900000</ele>
        <time>2010-12-04T09:34:10Z</time>
      </trkpt>
      <trkpt lat="59.5902630" lon="16.5000170">
        <ele>9.7500000</ele>
        <time>2010-12-04T09:34:26Z</time>
      </trkpt>
      <trkpt lat="59.5903740" lon="16.5012820">
        <ele>10.2300000</ele>
        <time>2010-12-04T09:34:35Z</time>
      </trkpt>
      <trkpt lat="59.5903700" lon="16.5014020">
        <ele>10.2300000</ele>
        <time>2010-12-04T09:34:36Z</time>
      </trkpt>
      <trkpt lat="59.5903550" lon="16.5015160">
        <ele>10.2300000</ele>
        <time>2010-12-04T09:34:37Z</time>
      </trkpt>
      <trkpt lat="59.5903360" lon="16.5016250">
        <ele>10.2300000</ele>
        <time>2010-12-04T09:34:38Z</time>
      </trkpt>
      <trkpt lat="59.5903050" lon="16.5017190">
        <ele>10.2300000</ele>
        <time>2010-12-04T09:34:39Z</time>
      </trkpt>
      <trkpt lat="59.5902630" lon="16.5017930">
        <ele>10.2300000</ele>
        <time>2010-12-04T09:34:40Z</time>
      </trkpt>
      <trkpt lat="59.5902140" lon="16.5018420">
        <ele>10.2300000</ele>
        <time>2010-12-04T09:34:41Z</time>
      </trkpt>
      <trkpt lat="59.5901530" lon="16.5018630">
        <ele>10.2300000</ele>
        <time>2010-12-04T09:34:42Z</time>
      </trkpt>
      <trkpt lat="59.5900920" lon="16.5018630">
        <ele>10.2300000</ele>
        <time>2010-12-04T09:34:43Z</time>
      </trkpt>
      <trkpt lat="59.5900310" lon="16.5018440">
        <ele>9.7500000</ele>
        <time>2010-12-04T09:34:44Z</time>
      </trkpt>
      <trkpt lat="59.5899660" lon="16.5018200">
        <ele>9.2700000</ele>
        <time>2010-12-04T09:34:45Z</time>
      </trkpt>
      <trkpt lat="59.5891150" lon="16.5015890">
        <ele>9.2700000</ele>
        <time>2010-12-04T09:34:57Z</time>
      </trkpt>
      <trkpt lat="59.5881540" lon="16.5016750">
        <ele>10.2300000</ele>
        <time>2010-12-04T09:35:11Z</time>
      </trkpt>
      <trkpt lat="59.5873070" lon="16.5020680">
        <ele>10.7100000</ele>
        <time>2010-12-04T09:35:24Z</time>
      </trkpt>
      <trkpt lat="59.5866970" lon="16.5025290">
        <ele>10.2300000</ele>
        <time>2010-12-04T09:35:35Z</time>
      </trkpt>
      <trkpt lat="59.5865020" lon="16.5027080">
        <ele>10.7100000</ele>
        <time>2010-12-04T09:35:42Z</time>
      </trkpt>
      <trkpt lat="59.5864910" lon="16.5027580">
        <ele>10.7100000</ele>
        <time>2010-12-04T09:35:43Z</time>
      </trkpt>
      <trkpt lat="59.5864830" lon="16.5028190">
        <ele>10.2300000</ele>
        <time>2010-12-04T09:35:44Z</time>
      </trkpt>
      <trkpt lat="59.5864830" lon="16.5028840">
        <ele>10.2300000</ele>
        <time>2010-12-04T09:35:45Z</time>
      </trkpt>
      <trkpt lat="59.5864910" lon="16.5029540">
        <ele>10.7100000</ele>
        <time>2010-12-04T09:35:46Z</time>
      </trkpt>
      <trkpt lat="59.5865020" lon="16.5030330">
        <ele>10.7100000</ele>
        <time>2010-12-04T09:35:47Z</time>
      </trkpt>
      <trkpt lat="59.5865250" lon="16.5031130">
        <ele>10.7100000</ele>
        <time>2010-12-04T09:35:48Z</time>
      </trkpt>
      <trkpt lat="59.5865480" lon="16.5031910">
        <ele>11.1900000</ele>
        <time>2010-12-04T09:35:49Z</time>
      </trkpt>
      <trkpt lat="59.5865970" lon="16.5033630">
        <ele>11.1900000</ele>
        <time>2010-12-04T09:35:51Z</time>
      </trkpt>
      <trkpt lat="59.5868910" lon="16.5047110">
        <ele>14.0800000</ele>
        <time>2010-12-04T09:36:05Z</time>
      </trkpt>
      <trkpt lat="59.5871470" lon="16.5059600">
        <ele>15.5200000</ele>
        <time>2010-12-04T09:36:18Z</time>
      </trkpt>
      <trkpt lat="59.5874600" lon="16.5075800">
        <ele>15.5200000</ele>
        <time>2010-12-04T09:36:33Z</time>
      </trkpt>
      <trkpt lat="59.5879020" lon="16.5095420">
        <ele>13.1200000</ele>
        <time>2010-12-04T09:36:48Z</time>
      </trkpt>
      <trkpt lat="59.5883520" lon="16.5109730">
        <ele>9.7500000</ele>
        <time>2010-12-04T09:36:58Z</time>
      </trkpt>
      <trkpt lat="59.5891460" lon="16.5128880">
        <ele>7.8300000</ele>
        <time>2010-12-04T09:37:12Z</time>
      </trkpt>
      <trkpt lat="59.5900420" lon="16.5145170">
        <ele>5.9100000</ele>
        <time>2010-12-04T09:37:26Z</time>
      </trkpt>
      <trkpt lat="59.5908930" lon="16.5159890">
        <ele>4.9400000</ele>
        <time>2010-12-04T09:37:40Z</time>
      </trkpt>
      <trkpt lat="59.5916750" lon="16.5173380">
        <ele>6.8700000</ele>
        <time>2010-12-04T09:37:54Z</time>
      </trkpt>
      <trkpt lat="59.5923690" lon="16.5185600">
        <ele>9.2700000</ele>
        <time>2010-12-04T09:38:09Z</time>
      </trkpt>
      <trkpt lat="59.5931050" lon="16.5198690">
        <ele>8.7900000</ele>
        <time>2010-12-04T09:38:24Z</time>
      </trkpt>
      <trkpt lat="59.5936360" lon="16.5208070">
        <ele>4.9400000</ele>
        <time>2010-12-04T09:38:33Z</time>
      </trkpt>
      <trkpt lat="59.5937000" lon="16.5209240">
        <ele>4.4600000</ele>
        <time>2010-12-04T09:38:34Z</time>
      </trkpt>
      <trkpt lat="59.5945550" lon="16.5224550">
        <ele>4.4600000</ele>
        <time>2010-12-04T09:38:47Z</time>
      </trkpt>
      <trkpt lat="59.5950930" lon="16.5233730">
        <ele>6.8700000</ele>
        <time>2010-12-04T09:38:58Z</time>
      </trkpt>
      <trkpt lat="59.5956570" lon="16.5242000">
        <ele>5.9100000</ele>
        <time>2010-12-04T09:39:10Z</time>
      </trkpt>
      <trkpt lat="59.5959090" lon="16.5246390">
        <ele>5.9100000</ele>
        <time>2010-12-04T09:39:15Z</time>
      </trkpt>
      <trkpt lat="59.5959470" lon="16.5247480">
        <ele>5.4200000</ele>
        <time>2010-12-04T09:39:16Z</time>
      </trkpt>
      <trkpt lat="59.5959820" lon="16.5248640">
        <ele>5.9100000</ele>
        <time>2010-12-04T09:39:17Z</time>
      </trkpt>
      <trkpt lat="59.5960120" lon="16.5249820">
        <ele>5.9100000</ele>
        <time>2010-12-04T09:39:18Z</time>
      </trkpt>
      <trkpt lat="59.5960540" lon="16.5250970">
        <ele>5.4200000</ele>
        <time>2010-12-04T09:39:19Z</time>
      </trkpt>
      <trkpt lat="59.5960960" lon="16.5252080">
        <ele>5.9100000</ele>
        <time>2010-12-04T09:39:20Z</time>
      </trkpt>
      <trkpt lat="59.5961460" lon="16.5253140">
        <ele>5.4200000</ele>
        <time>2010-12-04T09:39:21Z</time>
      </trkpt>
      <trkpt lat="59.5968400" lon="16.5265850">
        <ele>5.4200000</ele>
        <time>2010-12-04T09:39:34Z</time>
      </trkpt>
      <trkpt lat="59.5977550" lon="16.5282610">
        <ele>4.9400000</ele>
        <time>2010-12-04T09:39:51Z</time>
      </trkpt>
      <trkpt lat="59.5984760" lon="16.5297660">
        <ele>5.4200000</ele>
        <time>2010-12-04T09:40:05Z</time>
      </trkpt>
      <trkpt lat="59.5990910" lon="16.5315360">
        <ele>6.3900000</ele>
        <time>2010-12-04T09:40:20Z</time>
      </trkpt>
      <trkpt lat="59.5995860" lon="16.5334430">
        <ele>6.3900000</ele>
        <time>2010-12-04T09:40:35Z</time>
      </trkpt>
      <trkpt lat="59.6000020" lon="16.5353580">
        <ele>5.4200000</ele>
        <time>2010-12-04T09:40:48Z</time>
      </trkpt>
      <trkpt lat="59.6004520" lon="16.5374850">
        <ele>5.4200000</ele>
        <time>2010-12-04T09:41:02Z</time>
      </trkpt>
      <trkpt lat="59.6009750" lon="16.5390450">
        <ele>6.3900000</ele>
        <time>2010-12-04T09:41:14Z</time>
      </trkpt>
      <trkpt lat="59.6017190" lon="16.5406630">
        <ele>6.3900000</ele>
        <time>2010-12-04T09:41:29Z</time>
      </trkpt>
      <trkpt lat="59.6024130" lon="16.5421450">
        <ele>5.4200000</ele>
        <time>2010-12-04T09:41:43Z</time>
      </trkpt>
      <trkpt lat="59.6032910" lon="16.5440730">
        <ele>4.9400000</ele>
        <time>2010-12-04T09:42:01Z</time>
      </trkpt>
      <trkpt lat="59.6038090" lon="16.5455130">
        <ele>3.9800000</ele>
        <time>2010-12-04T09:42:13Z</time>
      </trkpt>
      <trkpt lat="59.6039580" lon="16.5468220">
        <ele>3.9800000</ele>
        <time>2010-12-04T09:42:22Z</time>
      </trkpt>
      <trkpt lat="59.6041150" lon="16.5486850">
        <ele>3.5000000</ele>
        <time>2010-12-04T09:42:36Z</time>
      </trkpt>
      <trkpt lat="59.6043510" lon="16.5501630">
        <ele>2.5400000</ele>
        <time>2010-12-04T09:42:47Z</time>
      </trkpt>
      <trkpt lat="59.6045420" lon="16.5509070">
        <ele>2.5400000</ele>
        <time>2010-12-04T09:42:53Z</time>
      </trkpt>
      <trkpt lat="59.6045840" lon="16.5510100">
        <ele>3.0200000</ele>
        <time>2010-12-04T09:42:54Z</time>
      </trkpt>
      <trkpt lat="59.6046300" lon="16.5511020">
        <ele>2.5400000</ele>
        <time>2010-12-04T09:42:55Z</time>
      </trkpt>
      <trkpt lat="59.6046790" lon="16.5511860">
        <ele>2.5400000</ele>
        <time>2010-12-04T09:42:56Z</time>
      </trkpt>
      <trkpt lat="59.6047330" lon="16.5512660">
        <ele>3.0200000</ele>
        <time>2010-12-04T09:42:57Z</time>
      </trkpt>
      <trkpt lat="59.6053010" lon="16.5523930">
        <ele>3.0200000</ele>
        <time>2010-12-04T09:43:09Z</time>
      </trkpt>
      <trkpt lat="59.6058500" lon="16.5535240">
        <ele>3.0200000</ele>
        <time>2010-12-04T09:43:21Z</time>
      </trkpt>
      <trkpt lat="59.6060980" lon="16.5540700">
        <ele>3.0200000</ele>
        <time>2010-12-04T09:43:27Z</time>
      </trkpt>
      <trkpt lat="59.6061210" lon="16.5541760">
        <ele>3.0200000</ele>
        <time>2010-12-04T09:43:28Z</time>
      </trkpt>
      <trkpt lat="59.6061710" lon="16.5543940">
        <ele>2.5400000</ele>
        <time>2010-12-04T09:43:30Z</time>
      </trkpt>
      <trkpt lat="59.6062050" lon="16.5544890">
        <ele>2.5400000</ele>
        <time>2010-12-04T09:43:31Z</time>
      </trkpt>
      <trkpt lat="59.6062430" lon="16.5545690">
        <ele>2.5400000</ele>
        <time>2010-12-04T09:43:32Z</time>
      </trkpt>
      <trkpt lat="59.6062930" lon="16.5546260">
        <ele>3.0200000</ele>
        <time>2010-12-04T09:43:33Z</time>
      </trkpt>
      <trkpt lat="59.6063500" lon="16.5546700">
        <ele>2.5400000</ele>
        <time>2010-12-04T09:43:34Z</time>
      </trkpt>
      <trkpt lat="59.6064070" lon="16.5547140">
        <ele>3.0200000</ele>
        <time>2010-12-04T09:43:35Z</time>
      </trkpt>
      <trkpt lat="59.6065180" lon="16.5548270">
        <ele>3.0200000</ele>
        <time>2010-12-04T09:43:37Z</time>
      </trkpt>
      <trkpt lat="59.6065640" lon="16.5549010">
        <ele>3.0200000</ele>
        <time>2010-12-04T09:43:38Z</time>
      </trkpt>
      <trkpt lat="59.6066090" lon="16.5549830">
        <ele>3.0200000</ele>
        <time>2010-12-04T09:43:39Z</time>
      </trkpt>
      <trkpt lat="59.6071780" lon="16.5561920">
        <ele>3.5000000</ele>
        <time>2010-12-04T09:43:53Z</time>
      </trkpt>
      <trkpt lat="59.6077920" lon="16.5575330">
        <ele>3.9800000</ele>
        <time>2010-12-04T09:44:08Z</time>
      </trkpt>
      <trkpt lat="59.6084440" lon="16.5587390">
        <ele>3.5000000</ele>
        <time>2010-12-04T09:44:22Z</time>
      </trkpt>
      <trkpt lat="59.6091650" lon="16.5601330">
        <ele>3.5000000</ele>
        <time>2010-12-04T09:44:38Z</time>
      </trkpt>
      <trkpt lat="59.6098250" lon="16.5614620">
        <ele>3.9800000</ele>
        <time>2010-12-04T09:44:53Z</time>
      </trkpt>
      <trkpt lat="59.6105840" lon="16.5629010">
        <ele>3.5000000</ele>
        <time>2010-12-04T09:45:09Z</time>
      </trkpt>
      <trkpt lat="59.6110990" lon="16.5638940">
        <ele>4.4600000</ele>
        <time>2010-12-04T09:45:21Z</time>
      </trkpt>
      <trkpt lat="59.6112370" lon="16.5641610">
        <ele>4.4600000</ele>
        <time>2010-12-04T09:45:28Z</time>
      </trkpt>
      <trkpt lat="59.6113400" lon="16.5644420">
        <ele>4.4600000</ele>
        <time>2010-12-04T09:45:33Z</time>
      </trkpt>
      <trkpt lat="59.6113470" lon="16.5645220">
        <ele>4.9400000</ele>
        <time>2010-12-04T09:45:34Z</time>
      </trkpt>
      <trkpt lat="59.6113430" lon="16.5646080">
        <ele>4.9400000</ele>
        <time>2010-12-04T09:45:35Z</time>
      </trkpt>
      <trkpt lat="59.6113320" lon="16.5646920">
        <ele>4.9400000</ele>
        <time>2010-12-04T09:45:36Z</time>
      </trkpt>
      <trkpt lat="59.6113090" lon="16.5647720">
        <ele>4.4600000</ele>
        <time>2010-12-04T09:45:37Z</time>
      </trkpt>
      <trkpt lat="59.6112750" lon="16.5648460">
        <ele>4.4600000</ele>
        <time>2010-12-04T09:45:38Z</time>
      </trkpt>
      <trkpt lat="59.6112370" lon="16.5649170">
        <ele>4.9400000</ele>
        <time>2010-12-04T09:45:39Z</time>
      </trkpt>
      <trkpt lat="59.6106530" lon="16.5660250">
        <ele>3.5000000</ele>
        <time>2010-12-04T09:45:52Z</time>
      </trkpt>
      <trkpt lat="59.6099470" lon="16.5674130">
        <ele>3.5000000</ele>
        <time>2010-12-04T09:46:07Z</time>
      </trkpt>
      <trkpt lat="59.6092680" lon="16.5687870">
        <ele>3.5000000</ele>
        <time>2010-12-04T09:46:22Z</time>
      </trkpt>
      <trkpt lat="59.6086460" lon="16.5700490">
        <ele>4.4600000</ele>
        <time>2010-12-04T09:46:36Z</time>
      </trkpt>
      <trkpt lat="59.6085660" lon="16.5702340">
        <ele>1.1000000</ele>
        <time>2010-12-04T09:46:38Z</time>
      </trkpt>
      <trkpt lat="59.6085280" lon="16.5703280">
        <ele>4.9400000</ele>
        <time>2010-12-04T09:46:39Z</time>
      </trkpt>
      <trkpt lat="59.6081160" lon="16.5713480">
        <ele>5.4200000</ele>
        <time>2010-12-04T09:46:50Z</time>
      </trkpt>
      <trkpt lat="59.6080400" lon="16.5715080">
        <ele>5.4200000</ele>
        <time>2010-12-04T09:46:52Z</time>
      </trkpt>
      <trkpt lat="59.6079940" lon="16.5715680">
        <ele>4.9400000</ele>
        <time>2010-12-04T09:46:53Z</time>
      </trkpt>
      <trkpt lat="59.6078910" lon="16.5716760">
        <ele>4.9400000</ele>
        <time>2010-12-04T09:46:55Z</time>
      </trkpt>
      <trkpt lat="59.6078490" lon="16.5717490">
        <ele>4.9400000</ele>
        <time>2010-12-04T09:46:56Z</time>
      </trkpt>
      <trkpt lat="59.6078150" lon="16.5718380">
        <ele>4.9400000</ele>
        <time>2010-12-04T09:46:57Z</time>
      </trkpt>
      <trkpt lat="59.6077880" lon="16.5719360">
        <ele>5.4200000</ele>
        <time>2010-12-04T09:46:58Z</time>
      </trkpt>
      <trkpt lat="59.6077650" lon="16.5720410">
        <ele>5.4200000</ele>
        <time>2010-12-04T09:46:59Z</time>
      </trkpt>
      <trkpt lat="59.6076510" lon="16.5725690">
        <ele>5.9100000</ele>
        <time>2010-12-04T09:47:04Z</time>
      </trkpt>
      <trkpt lat="59.6076200" lon="16.5726660">
        <ele>5.9100000</ele>
        <time>2010-12-04T09:47:05Z</time>
      </trkpt>
      <trkpt lat="59.6072080" lon="16.5739170">
        <ele>6.3900000</ele>
        <time>2010-12-04T09:47:18Z</time>
      </trkpt>
      <trkpt lat="59.6069410" lon="16.5750260">
        <ele>8.3100000</ele>
        <time>2010-12-04T09:47:29Z</time>
      </trkpt>
      <trkpt lat="59.6066590" lon="16.5765020">
        <ele>8.7900000</ele>
        <time>2010-12-04T09:47:43Z</time>
      </trkpt>
      <trkpt lat="59.6063840" lon="16.5780120">
        <ele>9.7500000</ele>
        <time>2010-12-04T09:47:57Z</time>
      </trkpt>
      <trkpt lat="59.6062510" lon="16.5786800">
        <ele>10.2300000</ele>
        <time>2010-12-04T09:48:06Z</time>
      </trkpt>
      <trkpt lat="59.6061900" lon="16.5790650">
        <ele>10.2300000</ele>
        <time>2010-12-04T09:48:12Z</time>
      </trkpt>
      <trkpt lat="59.6061740" lon="16.5791450">
        <ele>10.2300000</ele>
        <time>2010-12-04T09:48:13Z</time>
      </trkpt>
      <trkpt lat="59.6061590" lon="16.5792310">
        <ele>10.2300000</ele>
        <time>2010-12-04T09:48:14Z</time>
      </trkpt>
      <trkpt lat="59.6059650" lon="16.5803790">
        <ele>10.7100000</ele>
        <time>2010-12-04T09:48:25Z</time>
      </trkpt>
      <trkpt lat="59.6058730" lon="16.5808200">
        <ele>5.4200000</ele>
        <time>2010-12-04T09:48:29Z</time>
      </trkpt>
      <trkpt lat="59.6058540" lon="16.5809330">
        <ele>10.7100000</ele>
        <time>2010-12-04T09:48:30Z</time>
      </trkpt>
      <trkpt lat="59.6058310" lon="16.5810430">
        <ele>17.4400000</ele>
        <time>2010-12-04T09:48:31Z</time>
      </trkpt>
      <trkpt lat="59.6058080" lon="16.5811520">
        <ele>11.6700000</ele>
        <time>2010-12-04T09:48:32Z</time>
      </trkpt>
      <trkpt lat="59.6057620" lon="16.5813710">
        <ele>11.1900000</ele>
        <time>2010-12-04T09:48:34Z</time>
      </trkpt>
      <trkpt lat="59.6056370" lon="16.5818920">
        <ele>11.6700000</ele>
        <time>2010-12-04T09:48:39Z</time>
      </trkpt>
      <trkpt lat="59.6053390" lon="16.5827920">
        <ele>13.6000000</ele>
        <time>2010-12-04T09:48:49Z</time>
      </trkpt>
      <trkpt lat="59.6049000" lon="16.5837460">
        <ele>15.5200000</ele>
        <time>2010-12-04T09:49:02Z</time>
      </trkpt>
      <trkpt lat="59.6045270" lon="16.5844840">
        <ele>17.4400000</ele>
        <time>2010-12-04T09:49:13Z</time>
      </trkpt>
      <trkpt lat="59.6039700" lon="16.5855620">
        <ele>17.4400000</ele>
        <time>2010-12-04T09:49:29Z</time>
      </trkpt>
      <trkpt lat="59.6035230" lon="16.5864140">
        <ele>12.6300000</ele>
        <time>2010-12-04T09:49:40Z</time>
      </trkpt>
      <trkpt lat="59.6034810" lon="16.5864960">
        <ele>17.9200000</ele>
        <time>2010-12-04T09:49:41Z</time>
      </trkpt>
      <trkpt lat="59.6028440" lon="16.5877480">
        <ele>18.4000000</ele>
        <time>2010-12-04T09:49:57Z</time>
      </trkpt>
      <trkpt lat="59.6021540" lon="16.5891280">
        <ele>17.4400000</ele>
        <time>2010-12-04T09:50:14Z</time>
      </trkpt>
      <trkpt lat="59.6020090" lon="16.5893750">
        <ele>16.9600000</ele>
        <time>2010-12-04T09:50:18Z</time>
      </trkpt>
      <trkpt lat="59.6019670" lon="16.5894150">
        <ele>16.4800000</ele>
        <time>2010-12-04T09:50:19Z</time>
      </trkpt>
      <trkpt lat="59.6018330" lon="16.5895230">
        <ele>16.0000000</ele>
        <time>2010-12-04T09:50:22Z</time>
      </trkpt>
      <trkpt lat="59.6017990" lon="16.5895820">
        <ele>16.0000000</ele>
        <time>2010-12-04T09:50:23Z</time>
      </trkpt>
      <trkpt lat="59.6017800" lon="16.5896570">
        <ele>16.4800000</ele>
        <time>2010-12-04T09:50:24Z</time>
      </trkpt>
      <trkpt lat="59.6017720" lon="16.5897390">
        <ele>16.4800000</ele>
        <time>2010-12-04T09:50:25Z</time>
      </trkpt>
      <trkpt lat="59.6017800" lon="16.5898170">
        <ele>16.4800000</ele>
        <time>2010-12-04T09:50:26Z</time>
      </trkpt>
      <trkpt lat="59.6017990" lon="16.5898860">
        <ele>16.4800000</ele>
        <time>2010-12-04T09:50:27Z</time>
      </trkpt>
      <trkpt lat="59.6018300" lon="16.5899370">
        <ele>16.0000000</ele>
        <time>2010-12-04T09:50:28Z</time>
      </trkpt>
      <trkpt lat="59.6018710" lon="16.5899790">
        <ele>16.0000000</ele>
        <time>2010-12-04T09:50:29Z</time>
      </trkpt>
      <trkpt lat="59.6019130" lon="16.5900150">
        <ele>16.0000000</ele>
        <time>2010-12-04T09:50:30Z</time>
      </trkpt>
      <trkpt lat="59.6020430" lon="16.5901510">
        <ele>16.0000000</ele>
        <time>2010-12-04T09:50:33Z</time>
      </trkpt>
      <trkpt lat="59.6020850" lon="16.5902120">
        <ele>16.0000000</ele>
        <time>2010-12-04T09:50:34Z</time>
      </trkpt>
      <trkpt lat="59.6026460" lon="16.5913160">
        <ele>16.0000000</ele>
        <time>2010-12-04T09:50:48Z</time>
      </trkpt>
      <trkpt lat="59.6031490" lon="16.5926610">
        <ele>16.0000000</ele>
        <time>2010-12-04T09:51:01Z</time>
      </trkpt>
      <trkpt lat="59.6037750" lon="16.5946030">
        <ele>16.9600000</ele>
        <time>2010-12-04T09:51:19Z</time>
      </trkpt>
      <trkpt lat="59.6041110" lon="16.5957130">
        <ele>18.8800000</ele>
        <time>2010-12-04T09:51:31Z</time>
      </trkpt>
      <trkpt lat="59.6045000" lon="16.5967560">
        <ele>21.7700000</ele>
        <time>2010-12-04T09:51:45Z</time>
      </trkpt>
      <trkpt lat="59.6050530" lon="16.5978010">
        <ele>23.6900000</ele>
        <time>2010-12-04T09:52:01Z</time>
      </trkpt>
      <trkpt lat="59.6056790" lon="16.5985810">
        <ele>25.1300000</ele>
        <time>2010-12-04T09:52:15Z</time>
      </trkpt>
      <trkpt lat="59.6064150" lon="16.5991590">
        <ele>25.1300000</ele>
        <time>2010-12-04T09:52:29Z</time>
      </trkpt>
      <trkpt lat="59.6072880" lon="16.5996530">
        <ele>25.6100000</ele>
        <time>2010-12-04T09:52:45Z</time>
      </trkpt>
      <trkpt lat="59.6081120" lon="16.5999660">
        <ele>27.0500000</ele>
        <time>2010-12-04T09:53:00Z</time>
      </trkpt>
      <trkpt lat="59.6088940" lon="16.6001490">
        <ele>29.9400000</ele>
        <time>2010-12-04T09:53:15Z</time>
      </trkpt>
      <trkpt lat="59.6096920" lon="16.6002880">
        <ele>29.9400000</ele>
        <time>2010-12-04T09:53:30Z</time>
      </trkpt>
      <trkpt lat="59.6104770" lon="16.6005780">
        <ele>28.9800000</ele>
        <time>2010-12-04T09:53:43Z</time>
      </trkpt>
      <trkpt lat="59.6112790" lon="16.6012360">
        <ele>28.9800000</ele>
        <time>2010-12-04T09:53:56Z</time>
      </trkpt>
      <trkpt lat="59.6121560" lon="16.6019500">
        <ele>31.3800000</ele>
        <time>2010-12-04T09:54:11Z</time>
      </trkpt>
      <trkpt lat="59.6129840" lon="16.6022640">
        <ele>32.3400000</ele>
        <time>2010-12-04T09:54:25Z</time>
      </trkpt>
      <trkpt lat="59.6133000" lon="16.6023100">
        <ele>32.3400000</ele>
        <time>2010-12-04T09:54:33Z</time>
      </trkpt>
      <trkpt lat="59.6133160" lon="16.6023080">
        <ele>32.8200000</ele>
        <time>2010-12-04T09:54:43Z</time>
      </trkpt>
      <trkpt lat="59.6133650" lon="16.6023120">
        <ele>32.3400000</ele>
        <time>2010-12-04T09:54:56Z</time>
      </trkpt>
      <trkpt lat="59.6136780" lon="16.6023850">
        <ele>31.8600000</ele>
        <time>2010-12-04T09:55:04Z</time>
      </trkpt>
      <trkpt lat="59.6138230" lon="16.6025940">
        <ele>32.3400000</ele>
        <time>2010-12-04T09:55:10Z</time>
      </trkpt>
      <trkpt lat="59.6138340" lon="16.6027470">
        <ele>32.3400000</ele>
        <time>2010-12-04T09:55:12Z</time>
      </trkpt>
      <trkpt lat="59.6137920" lon="16.6038440">
        <ele>30.9000000</ele>
        <time>2010-12-04T09:55:22Z</time>
      </trkpt>
      <trkpt lat="59.6136930" lon="16.6054840">
        <ele>29.4600000</ele>
        <time>2010-12-04T09:55:34Z</time>
      </trkpt>
      <trkpt lat="59.6134300" lon="16.6074470">
        <ele>29.4600000</ele>
        <time>2010-12-04T09:55:49Z</time>
      </trkpt>
      <trkpt lat="59.6129910" lon="16.6096130">
        <ele>28.9800000</ele>
        <time>2010-12-04T09:56:06Z</time>
      </trkpt>
      <trkpt lat="59.6126820" lon="16.6114270">
        <ele>29.4600000</ele>
        <time>2010-12-04T09:56:21Z</time>
      </trkpt>
      <trkpt lat="59.6124080" lon="16.6129840">
        <ele>27.0500000</ele>
        <time>2010-12-04T09:56:34Z</time>
      </trkpt>
      <trkpt lat="59.6123090" lon="16.6135440">
        <ele>27.0500000</ele>
        <time>2010-12-04T09:56:39Z</time>
      </trkpt>
      <trkpt lat="59.6122780" lon="16.6136420">
        <ele>26.5700000</ele>
        <time>2010-12-04T09:56:40Z</time>
      </trkpt>
      <trkpt lat="59.6122440" lon="16.6137290">
        <ele>26.5700000</ele>
        <time>2010-12-04T09:56:41Z</time>
      </trkpt>
      <trkpt lat="59.6121710" lon="16.6138970">
        <ele>26.0900000</ele>
        <time>2010-12-04T09:56:43Z</time>
      </trkpt>
      <trkpt lat="59.6121480" lon="16.6139870">
        <ele>26.0900000</ele>
        <time>2010-12-04T09:56:44Z</time>
      </trkpt>
      <trkpt lat="59.6121410" lon="16.6140800">
        <ele>26.0900000</ele>
        <time>2010-12-04T09:56:45Z</time>
      </trkpt>
      <trkpt lat="59.6121480" lon="16.6141620">
        <ele>26.0900000</ele>
        <time>2010-12-04T09:56:46Z</time>
      </trkpt>
      <trkpt lat="59.6120720" lon="16.6145130">
        <ele>24.6500000</ele>
        <time>2010-12-04T11:04:01Z</time>
      </trkpt>
      <trkpt lat="59.6120640" lon="16.6145990">
        <ele>25.1300000</ele>
        <time>2010-12-04T11:04:02Z</time>
      </trkpt>
      <trkpt lat="59.6120530" lon="16.6146850">
        <ele>24.1700000</ele>
        <time>2010-12-04T11:04:03Z</time>
      </trkpt>
      <trkpt lat="59.6120380" lon="16.6147730">
        <ele>24.1700000</ele>
        <time>2010-12-04T11:04:04Z</time>
      </trkpt>
      <trkpt lat="59.6120220" lon="16.6148610">
        <ele>25.1300000</ele>
        <time>2010-12-04T11:04:05Z</time>
      </trkpt>
      <trkpt lat="59.6117780" lon="16.6163330">
        <ele>23.2100000</ele>
        <time>2010-12-04T11:04:21Z</time>
      </trkpt>
      <trkpt lat="59.6114920" lon="16.6179200">
        <ele>20.8100000</ele>
        <time>2010-12-04T11:04:36Z</time>
      </trkpt>
      <trkpt lat="59.6112750" lon="16.6188640">
        <ele>19.3600000</ele>
        <time>2010-12-04T11:04:45Z</time>
      </trkpt>
      <trkpt lat="59.6101420" lon="16.6253490">
        <ele>14.5600000</ele>
        <time>2010-12-04T11:07:45Z</time>
      </trkpt>
      <trkpt lat="59.6101260" lon="16.6254310">
        <ele>14.5600000</ele>
        <time>2010-12-04T11:07:46Z</time>
      </trkpt>
      <trkpt lat="59.6098560" lon="16.6267740">
        <ele>14.5600000</ele>
        <time>2010-12-04T11:08:00Z</time>
      </trkpt>
      <trkpt lat="59.6095470" lon="16.6281240">
        <ele>16.4800000</ele>
        <time>2010-12-04T11:08:14Z</time>
      </trkpt>
      <trkpt lat="59.6092070" lon="16.6292170">
        <ele>18.8800000</ele>
        <time>2010-12-04T11:08:28Z</time>
      </trkpt>
      <trkpt lat="59.6087190" lon="16.6305890">
        <ele>19.3600000</ele>
        <time>2010-12-04T11:08:46Z</time>
      </trkpt>
      <trkpt lat="59.6086650" lon="16.6307390">
        <ele>19.3600000</ele>
        <time>2010-12-04T11:08:48Z</time>
      </trkpt>
      <trkpt lat="59.6086310" lon="16.6308020">
        <ele>19.3600000</ele>
        <time>2010-12-04T11:08:49Z</time>
      </trkpt>
      <trkpt lat="59.6085890" lon="16.6308520">
        <ele>18.8800000</ele>
        <time>2010-12-04T11:08:50Z</time>
      </trkpt>
      <trkpt lat="59.6085400" lon="16.6308840">
        <ele>18.8800000</ele>
        <time>2010-12-04T11:08:51Z</time>
      </trkpt>
      <trkpt lat="59.6084860" lon="16.6309010">
        <ele>18.4000000</ele>
        <time>2010-12-04T11:08:52Z</time>
      </trkpt>
      <trkpt lat="59.6084330" lon="16.6309240">
        <ele>18.8800000</ele>
        <time>2010-12-04T11:08:53Z</time>
      </trkpt>
      <trkpt lat="59.6083830" lon="16.6309640">
        <ele>18.4000000</ele>
        <time>2010-12-04T11:08:54Z</time>
      </trkpt>
      <trkpt lat="59.6083410" lon="16.6310200">
        <ele>18.4000000</ele>
        <time>2010-12-04T11:08:55Z</time>
      </trkpt>
      <trkpt lat="59.6082990" lon="16.6310880">
        <ele>18.4000000</ele>
        <time>2010-12-04T11:08:56Z</time>
      </trkpt>
      <trkpt lat="59.6082690" lon="16.6311650">
        <ele>17.4400000</ele>
        <time>2010-12-04T11:08:57Z</time>
      </trkpt>
      <trkpt lat="59.6082460" lon="16.6312500">
        <ele>17.9200000</ele>
        <time>2010-12-04T11:08:58Z</time>
      </trkpt>
      <trkpt lat="59.6082270" lon="16.6313460">
        <ele>17.9200000</ele>
        <time>2010-12-04T11:08:59Z</time>
      </trkpt>
      <trkpt lat="59.6082230" lon="16.6314470">
        <ele>17.9200000</ele>
        <time>2010-12-04T11:09:00Z</time>
      </trkpt>
      <trkpt lat="59.6082270" lon="16.6315520">
        <ele>17.9200000</ele>
        <time>2010-12-04T11:09:01Z</time>
      </trkpt>
      <trkpt lat="59.6082310" lon="16.6316620">
        <ele>16.9600000</ele>
        <time>2010-12-04T11:09:02Z</time>
      </trkpt>
      <trkpt lat="59.6082000" lon="16.6328850">
        <ele>15.5200000</ele>
        <time>2010-12-04T11:09:12Z</time>
      </trkpt>
      <trkpt lat="59.6081500" lon="16.6337660">
        <ele>13.6000000</ele>
        <time>2010-12-04T11:09:18Z</time>
      </trkpt>
      <trkpt lat="59.6081620" lon="16.6350480">
        <ele>9.7500000</ele>
        <time>2010-12-04T11:09:26Z</time>
      </trkpt>
      <trkpt lat="59.6081770" lon="16.6375710">
        <ele>7.8300000</ele>
        <time>2010-12-04T11:09:41Z</time>
      </trkpt>
      <trkpt lat="59.6079830" lon="16.6394690">
        <ele>7.8300000</ele>
        <time>2010-12-04T11:09:54Z</time>
      </trkpt>
      <trkpt lat="59.6076050" lon="16.6415040">
        <ele>6.8700000</ele>
        <time>2010-12-04T11:10:10Z</time>
      </trkpt>
      <trkpt lat="59.6071740" lon="16.6435180">
        <ele>5.4200000</ele>
        <time>2010-12-04T11:10:27Z</time>
      </trkpt>
      <trkpt lat="59.6068270" lon="16.6451820">
        <ele>6.8700000</ele>
        <time>2010-12-04T11:10:42Z</time>
      </trkpt>
      <trkpt lat="59.6065250" lon="16.6466100">
        <ele>9.2700000</ele>
        <time>2010-12-04T11:10:56Z</time>
      </trkpt>
      <trkpt lat="59.6062740" lon="16.6476350">
        <ele>10.7100000</ele>
        <time>2010-12-04T11:11:09Z</time>
      </trkpt>
      <trkpt lat="59.6059490" lon="16.6487450">
        <ele>13.1200000</ele>
        <time>2010-12-04T11:11:25Z</time>
      </trkpt>
      <trkpt lat="59.6056860" lon="16.6495700">
        <ele>15.5200000</ele>
        <time>2010-12-04T11:11:38Z</time>
      </trkpt>
      <trkpt lat="59.6054120" lon="16.6503490">
        <ele>16.9600000</ele>
        <time>2010-12-04T11:11:51Z</time>
      </trkpt>
      <trkpt lat="59.6050910" lon="16.6513060">
        <ele>18.8800000</ele>
        <time>2010-12-04T11:12:07Z</time>
      </trkpt>
      <trkpt lat="59.6046790" lon="16.6525040">
        <ele>19.8400000</ele>
        <time>2010-12-04T11:12:24Z</time>
      </trkpt>
      <trkpt lat="59.6042670" lon="16.6536600">
        <ele>19.3600000</ele>
        <time>2010-12-04T11:12:38Z</time>
      </trkpt>
      <trkpt lat="59.6037670" lon="16.6550560">
        <ele>16.4800000</ele>
        <time>2010-12-04T11:12:51Z</time>
      </trkpt>
      <trkpt lat="59.6030880" lon="16.6567540">
        <ele>15.0400000</ele>
        <time>2010-12-04T11:13:07Z</time>
      </trkpt>
      <trkpt lat="59.6025010" lon="16.6581650">
        <ele>14.0800000</ele>
        <time>2010-12-04T11:13:21Z</time>
      </trkpt>
      <trkpt lat="59.6019170" lon="16.6596280">
        <ele>13.1200000</ele>
        <time>2010-12-04T11:13:36Z</time>
      </trkpt>
      <trkpt lat="59.6014140" lon="16.6613030">
        <ele>13.1200000</ele>
        <time>2010-12-04T11:13:52Z</time>
      </trkpt>
      <trkpt lat="59.6011090" lon="16.6628930">
        <ele>13.1200000</ele>
        <time>2010-12-04T11:14:06Z</time>
      </trkpt>
      <trkpt lat="59.6008910" lon="16.6648710">
        <ele>10.2300000</ele>
        <time>2010-12-04T11:14:21Z</time>
      </trkpt>
      <trkpt lat="59.6007120" lon="16.6667920">
        <ele>10.2300000</ele>
        <time>2010-12-04T11:14:36Z</time>
      </trkpt>
      <trkpt lat="59.6005520" lon="16.6685310">
        <ele>10.2300000</ele>
        <time>2010-12-04T11:14:50Z</time>
      </trkpt>
      <trkpt lat="59.6003610" lon="16.6705610">
        <ele>10.7100000</ele>
        <time>2010-12-04T11:15:07Z</time>
      </trkpt>
      <trkpt lat="59.6002240" lon="16.6719880">
        <ele>13.6000000</ele>
        <time>2010-12-04T11:15:20Z</time>
      </trkpt>
      <trkpt lat="59.6000980" lon="16.6733000">
        <ele>16.0000000</ele>
        <time>2010-12-04T11:15:33Z</time>
      </trkpt>
      <trkpt lat="59.5999370" lon="16.6750850">
        <ele>17.4400000</ele>
        <time>2010-12-04T11:15:50Z</time>
      </trkpt>
      <trkpt lat="59.5998000" lon="16.6770650">
        <ele>15.0400000</ele>
        <time>2010-12-04T11:16:07Z</time>
      </trkpt>
      <trkpt lat="59.5998040" lon="16.6780470">
        <ele>11.6700000</ele>
        <time>2010-12-04T11:16:14Z</time>
      </trkpt>
      <trkpt lat="59.5999070" lon="16.6805340">
        <ele>9.7500000</ele>
        <time>2010-12-04T11:16:31Z</time>
      </trkpt>
      <trkpt lat="59.6000250" lon="16.6828270">
        <ele>9.2700000</ele>
        <time>2010-12-04T11:16:48Z</time>
      </trkpt>
      <trkpt lat="59.6001280" lon="16.6849770">
        <ele>12.1500000</ele>
        <time>2010-12-04T11:17:05Z</time>
      </trkpt>
      <trkpt lat="59.6002430" lon="16.6872230">
        <ele>11.1900000</ele>
        <time>2010-12-04T11:17:23Z</time>
      </trkpt>
      <trkpt lat="59.6003530" lon="16.6895480">
        <ele>11.6700000</ele>
        <time>2010-12-04T11:17:41Z</time>
      </trkpt>
      <trkpt lat="59.6004520" lon="16.6917040">
        <ele>14.5600000</ele>
        <time>2010-12-04T11:17:59Z</time>
      </trkpt>
      <trkpt lat="59.6005330" lon="16.6940820">
        <ele>15.0400000</ele>
        <time>2010-12-04T11:18:18Z</time>
      </trkpt>
      <trkpt lat="59.6005860" lon="16.6958900">
        <ele>15.0400000</ele>
        <time>2010-12-04T11:18:32Z</time>
      </trkpt>
      <trkpt lat="59.6006240" lon="16.6978450">
        <ele>15.5200000</ele>
        <time>2010-12-04T11:18:47Z</time>
      </trkpt>
      <trkpt lat="59.6006240" lon="16.6982290">
        <ele>12.1500000</ele>
        <time>2010-12-04T11:18:50Z</time>
      </trkpt>
      <trkpt lat="59.6006160" lon="16.6984880">
        <ele>16.0000000</ele>
        <time>2010-12-04T11:18:52Z</time>
      </trkpt>
      <trkpt lat="59.6006090" lon="16.6986180">
        <ele>15.5200000</ele>
        <time>2010-12-04T11:18:53Z</time>
      </trkpt>
      <trkpt lat="59.6003910" lon="16.7002700">
        <ele>15.0400000</ele>
        <time>2010-12-04T11:19:06Z</time>
      </trkpt>
      <trkpt lat="59.5998730" lon="16.7020190">
        <ele>13.1200000</ele>
        <time>2010-12-04T11:19:21Z</time>
      </trkpt>
      <trkpt lat="59.5991480" lon="16.7036340">
        <ele>12.6300000</ele>
        <time>2010-12-04T11:19:37Z</time>
      </trkpt>
      <trkpt lat="59.5987590" lon="16.7044450">
        <ele>13.6000000</ele>
        <time>2010-12-04T11:19:46Z</time>
      </trkpt>
      <trkpt lat="59.5987170" lon="16.7045250">
        <ele>13.6000000</ele>
        <time>2010-12-04T11:19:47Z</time>
      </trkpt>
      <trkpt lat="59.5986790" lon="16.7046070">
        <ele>13.6000000</ele>
        <time>2010-12-04T11:19:48Z</time>
      </trkpt>
      <trkpt lat="59.5986400" lon="16.7046910">
        <ele>13.6000000</ele>
        <time>2010-12-04T11:19:49Z</time>
      </trkpt>
      <trkpt lat="59.5986020" lon="16.7047690">
        <ele>14.5600000</ele>
        <time>2010-12-04T11:19:50Z</time>
      </trkpt>
      <trkpt lat="59.5981370" lon="16.7057670">
        <ele>17.4400000</ele>
        <time>2010-12-04T11:20:03Z</time>
      </trkpt>
      <trkpt lat="59.5977400" lon="16.7067890">
        <ele>18.8800000</ele>
        <time>2010-12-04T11:20:15Z</time>
      </trkpt>
      <trkpt lat="59.5973660" lon="16.7083210">
        <ele>18.4000000</ele>
        <time>2010-12-04T11:20:30Z</time>
      </trkpt>
      <trkpt lat="59.5970150" lon="16.7104470">
        <ele>16.0000000</ele>
        <time>2010-12-04T11:20:47Z</time>
      </trkpt>
      <trkpt lat="59.5966570" lon="16.7127320">
        <ele>16.4800000</ele>
        <time>2010-12-04T11:21:05Z</time>
      </trkpt>
      <trkpt lat="59.5963360" lon="16.7146950">
        <ele>19.3600000</ele>
        <time>2010-12-04T11:21:22Z</time>
      </trkpt>
      <trkpt lat="59.5962520" lon="16.7152420">
        <ele>21.2900000</ele>
        <time>2010-12-04T11:21:27Z</time>
      </trkpt>
      <trkpt lat="59.5959510" lon="16.7168710">
        <ele>22.2500000</ele>
        <time>2010-12-04T11:21:42Z</time>
      </trkpt>
      <trkpt lat="59.5955510" lon="16.7184090">
        <ele>22.7300000</ele>
        <time>2010-12-04T11:21:56Z</time>
      </trkpt>
      <trkpt lat="59.5950660" lon="16.7201600">
        <ele>21.2900000</ele>
        <time>2010-12-04T11:22:11Z</time>
      </trkpt>
      <trkpt lat="59.5947460" lon="16.7220380">
        <ele>19.8400000</ele>
        <time>2010-12-04T11:22:25Z</time>
      </trkpt>
      <trkpt lat="59.5947230" lon="16.7234730">
        <ele>22.7300000</ele>
        <time>2010-12-04T11:22:37Z</time>
      </trkpt>
      <trkpt lat="59.5947880" lon="16.7250920">
        <ele>26.0900000</ele>
        <time>2010-12-04T11:22:52Z</time>
      </trkpt>
      <trkpt lat="59.5948980" lon="16.7266080">
        <ele>26.5700000</ele>
        <time>2010-12-04T11:23:05Z</time>
      </trkpt>
      <trkpt lat="59.5950470" lon="16.7282870">
        <ele>26.0900000</ele>
        <time>2010-12-04T11:23:18Z</time>
      </trkpt>
      <trkpt lat="59.5952300" lon="16.7303790">
        <ele>23.2100000</ele>
        <time>2010-12-04T11:23:32Z</time>
      </trkpt>
      <trkpt lat="59.5953600" lon="16.7326640">
        <ele>22.2500000</ele>
        <time>2010-12-04T11:23:47Z</time>
      </trkpt>
      <trkpt lat="59.5954320" lon="16.7346020">
        <ele>23.6900000</ele>
        <time>2010-12-04T11:24:01Z</time>
      </trkpt>
      <trkpt lat="59.5954900" lon="16.7361340">
        <ele>24.6500000</ele>
        <time>2010-12-04T11:24:13Z</time>
      </trkpt>
      <trkpt lat="59.5955770" lon="16.7387280">
        <ele>23.6900000</ele>
        <time>2010-12-04T11:24:32Z</time>
      </trkpt>
      <trkpt lat="59.5956540" lon="16.7409500">
        <ele>21.7700000</ele>
        <time>2010-12-04T11:24:47Z</time>
      </trkpt>
      <trkpt lat="59.5957300" lon="16.7430500">
        <ele>18.4000000</ele>
        <time>2010-12-04T11:25:00Z</time>
      </trkpt>
      <trkpt lat="59.5957370" lon="16.7433590">
        <ele>21.7700000</ele>
        <time>2010-12-04T11:25:02Z</time>
      </trkpt>
      <trkpt lat="59.5958210" lon="16.7460350">
        <ele>21.7700000</ele>
        <time>2010-12-04T11:25:20Z</time>
      </trkpt>
      <trkpt lat="59.5957180" lon="16.7481520">
        <ele>23.2100000</ele>
        <time>2010-12-04T11:25:35Z</time>
      </trkpt>
      <trkpt lat="59.5955540" lon="16.7499690">
        <ele>24.6500000</ele>
        <time>2010-12-04T11:25:50Z</time>
      </trkpt>
      <trkpt lat="59.5954510" lon="16.7511310">
        <ele>28.0200000</ele>
        <time>2010-12-04T11:26:01Z</time>
      </trkpt>
      <trkpt lat="59.5952910" lon="16.7527980">
        <ele>30.4200000</ele>
        <time>2010-12-04T11:26:17Z</time>
      </trkpt>
      <trkpt lat="59.5951160" lon="16.7547440">
        <ele>31.3800000</ele>
        <time>2010-12-04T11:26:34Z</time>
      </trkpt>
      <trkpt lat="59.5949710" lon="16.7564160">
        <ele>32.3400000</ele>
        <time>2010-12-04T11:26:48Z</time>
      </trkpt>
      <trkpt lat="59.5948260" lon="16.7581440">
        <ele>29.9400000</ele>
        <time>2010-12-04T11:27:02Z</time>
      </trkpt>
      <trkpt lat="59.5946690" lon="16.7601800">
        <ele>28.0200000</ele>
        <time>2010-12-04T11:27:16Z</time>
      </trkpt>
      <trkpt lat="59.5945280" lon="16.7624090">
        <ele>27.5300000</ele>
        <time>2010-12-04T11:27:32Z</time>
      </trkpt>
      <trkpt lat="59.5943180" lon="16.7653730">
        <ele>25.6100000</ele>
        <time>2010-12-04T11:27:53Z</time>
      </trkpt>
      <trkpt lat="59.5941010" lon="16.7674370">
        <ele>25.1300000</ele>
        <time>2010-12-04T11:28:08Z</time>
      </trkpt>
      <trkpt lat="59.5937040" lon="16.7692530">
        <ele>26.5700000</ele>
        <time>2010-12-04T11:28:23Z</time>
      </trkpt>
      <trkpt lat="59.5932960" lon="16.7707370">
        <ele>28.0200000</ele>
        <time>2010-12-04T11:28:38Z</time>
      </trkpt>
      <trkpt lat="59.5931510" lon="16.7713580">
        <ele>24.1700000</ele>
        <time>2010-12-04T11:28:44Z</time>
      </trkpt>
      <trkpt lat="59.5931280" lon="16.7714690">
        <ele>28.0200000</ele>
        <time>2010-12-04T11:28:45Z</time>
      </trkpt>
      <trkpt lat="59.5929300" lon="16.7731290">
        <ele>28.0200000</ele>
        <time>2010-12-04T11:28:59Z</time>
      </trkpt>
      <trkpt lat="59.5927930" lon="16.7753220">
        <ele>26.5700000</ele>
        <time>2010-12-04T11:29:16Z</time>
      </trkpt>
      <trkpt lat="59.5928190" lon="16.7768940">
        <ele>24.6500000</ele>
        <time>2010-12-04T11:29:27Z</time>
      </trkpt>
      <trkpt lat="59.5929530" lon="16.7776600">
        <ele>22.2500000</ele>
        <time>2010-12-04T11:29:32Z</time>
      </trkpt>
      <trkpt lat="59.5934140" lon="16.7788560">
        <ele>21.7700000</ele>
        <time>2010-12-04T11:29:41Z</time>
      </trkpt>
      <trkpt lat="59.5941890" lon="16.7800750">
        <ele>20.3200000</ele>
        <time>2010-12-04T11:29:54Z</time>
      </trkpt>
      <trkpt lat="59.5952450" lon="16.7816910">
        <ele>18.4000000</ele>
        <time>2010-12-04T11:30:12Z</time>
      </trkpt>
      <trkpt lat="59.5960770" lon="16.7829250">
        <ele>19.8400000</ele>
        <time>2010-12-04T11:30:28Z</time>
      </trkpt>
      <trkpt lat="59.5967900" lon="16.7838630">
        <ele>22.2500000</ele>
        <time>2010-12-04T11:30:44Z</time>
      </trkpt>
      <trkpt lat="59.5974690" lon="16.7847460">
        <ele>23.6900000</ele>
        <time>2010-12-04T11:31:01Z</time>
      </trkpt>
      <trkpt lat="59.5982400" lon="16.7857420">
        <ele>24.1700000</ele>
        <time>2010-12-04T11:31:18Z</time>
      </trkpt>
      <trkpt lat="59.5986750" lon="16.7863240">
        <ele>26.5700000</ele>
        <time>2010-12-04T11:31:30Z</time>
      </trkpt>
      <trkpt lat="59.5991020" lon="16.7868600">
        <ele>27.5300000</ele>
        <time>2010-12-04T11:31:44Z</time>
      </trkpt>
      <trkpt lat="59.5995520" lon="16.7874490">
        <ele>28.5000000</ele>
        <time>2010-12-04T11:31:56Z</time>
      </trkpt>
      <trkpt lat="59.6002310" lon="16.7883420">
        <ele>28.0200000</ele>
        <time>2010-12-04T11:32:12Z</time>
      </trkpt>
      <trkpt lat="59.6007230" lon="16.7889800">
        <ele>29.4600000</ele>
        <time>2010-12-04T11:32:25Z</time>
      </trkpt>
      <trkpt lat="59.6009030" lon="16.7892270">
        <ele>29.9400000</ele>
        <time>2010-12-04T11:32:30Z</time>
      </trkpt>
      <trkpt lat="59.6010970" lon="16.7894990">
        <ele>29.9400000</ele>
        <time>2010-12-04T11:32:39Z</time>
      </trkpt>
      <trkpt lat="59.6011010" lon="16.7895070">
        <ele>29.9400000</ele>
        <time>2010-12-04T11:32:52Z</time>
      </trkpt>
      <trkpt lat="59.6011010" lon="16.7895070">
        <ele>29.9400000</ele>
        <time>2010-12-04T11:33:17Z</time>
      </trkpt>
      <trkpt lat="59.6011050" lon="16.7895180">
        <ele>30.4200000</ele>
        <time>2010-12-04T11:33:36Z</time>
      </trkpt>
      <trkpt lat="59.6011050" lon="16.7895180">
        <ele>29.9400000</ele>
        <time>2010-12-04T11:33:59Z</time>
      </trkpt>
      <trkpt lat="59.6011050" lon="16.7895200">
        <ele>29.9400000</ele>
        <time>2010-12-04T11:34:30Z</time>
      </trkpt>
      <trkpt lat="59.6011090" lon="16.7895220">
        <ele>30.4200000</ele>
        <time>2010-12-04T11:34:55Z</time>
      </trkpt>
      <trkpt lat="59.6011200" lon="16.7895280">
        <ele>29.9400000</ele>
        <time>2010-12-04T11:35:05Z</time>
      </trkpt>
      <trkpt lat="59.6012690" lon="16.7897030">
        <ele>28.9800000</ele>
        <time>2010-12-04T11:35:13Z</time>
      </trkpt>
      <trkpt lat="59.6016310" lon="16.7901730">
        <ele>28.0200000</ele>
        <time>2010-12-04T11:35:23Z</time>
      </trkpt>
      <trkpt lat="59.6023560" lon="16.7911000">
        <ele>27.0500000</ele>
        <time>2010-12-04T11:35:37Z</time>
      </trkpt>
      <trkpt lat="59.6032410" lon="16.7922210">
        <ele>27.0500000</ele>
        <time>2010-12-04T11:35:53Z</time>
      </trkpt>
      <trkpt lat="59.6043590" lon="16.7936610">
        <ele>26.5700000</ele>
        <time>2010-12-04T11:36:13Z</time>
      </trkpt>
      <trkpt lat="59.6052210" lon="16.7947480">
        <ele>26.0900000</ele>
        <time>2010-12-04T11:36:29Z</time>
      </trkpt>
      <trkpt lat="59.6057820" lon="16.7954540">
        <ele>23.6900000</ele>
        <time>2010-12-04T11:36:41Z</time>
      </trkpt>
      <trkpt lat="59.6063160" lon="16.7961900">
        <ele>22.2500000</ele>
        <time>2010-12-04T11:36:52Z</time>
      </trkpt>
      <trkpt lat="59.6069030" lon="16.7969680">
        <ele>23.2100000</ele>
        <time>2010-12-04T11:37:04Z</time>
      </trkpt>
      <trkpt lat="59.6069910" lon="16.7970770">
        <ele>24.1700000</ele>
        <time>2010-12-04T11:37:06Z</time>
      </trkpt>
      <trkpt lat="59.6074680" lon="16.7977290">
        <ele>27.0500000</ele>
        <time>2010-12-04T11:37:17Z</time>
      </trkpt>
      <trkpt lat="59.6081280" lon="16.7986470">
        <ele>28.5000000</ele>
        <time>2010-12-04T11:37:31Z</time>
      </trkpt>
      <trkpt lat="59.6089740" lon="16.7999760">
        <ele>26.5700000</ele>
        <time>2010-12-04T11:37:47Z</time>
      </trkpt>
      <trkpt lat="59.6100200" lon="16.8017390">
        <ele>25.1300000</ele>
        <time>2010-12-04T11:38:06Z</time>
      </trkpt>
      <trkpt lat="59.6109010" lon="16.8032260">
        <ele>26.0900000</ele>
        <time>2010-12-04T11:38:22Z</time>
      </trkpt>
      <trkpt lat="59.6118160" lon="16.8047560">
        <ele>25.1300000</ele>
        <time>2010-12-04T11:38:39Z</time>
      </trkpt>
      <trkpt lat="59.6128390" lon="16.8064730">
        <ele>24.6500000</ele>
        <time>2010-12-04T11:38:58Z</time>
      </trkpt>
      <trkpt lat="59.6137470" lon="16.8079930">
        <ele>24.1700000</ele>
        <time>2010-12-04T11:39:15Z</time>
      </trkpt>
      <trkpt lat="59.6146700" lon="16.8095460">
        <ele>21.2900000</ele>
        <time>2010-12-04T11:39:31Z</time>
      </trkpt>
      <trkpt lat="59.6154480" lon="16.8110260">
        <ele>22.7300000</ele>
        <time>2010-12-04T11:39:46Z</time>
      </trkpt>
      <trkpt lat="59.6163410" lon="16.8131520">
        <ele>25.1300000</ele>
        <time>2010-12-04T11:40:06Z</time>
      </trkpt>
      <trkpt lat="59.6166000" lon="16.8137740">
        <ele>21.2900000</ele>
        <time>2010-12-04T11:40:12Z</time>
      </trkpt>
      <trkpt lat="59.6166460" lon="16.8138770">
        <ele>25.6100000</ele>
        <time>2010-12-04T11:40:13Z</time>
      </trkpt>
      <trkpt lat="59.6174050" lon="16.8157180">
        <ele>27.5300000</ele>
        <time>2010-12-04T11:40:31Z</time>
      </trkpt>
      <trkpt lat="59.6179310" lon="16.8171180">
        <ele>29.9400000</ele>
        <time>2010-12-04T11:40:46Z</time>
      </trkpt>
      <trkpt lat="59.6182330" lon="16.8186170">
        <ele>30.4200000</ele>
        <time>2010-12-04T11:41:00Z</time>
      </trkpt>
      <trkpt lat="59.6184310" lon="16.8208120">
        <ele>31.3800000</ele>
        <time>2010-12-04T11:41:19Z</time>
      </trkpt>
      <trkpt lat="59.6184730" lon="16.8226300">
        <ele>31.3800000</ele>
        <time>2010-12-04T11:41:34Z</time>
      </trkpt>
      <trkpt lat="59.6182440" lon="16.8241840">
        <ele>29.9400000</ele>
        <time>2010-12-04T11:41:46Z</time>
      </trkpt>
      <trkpt lat="59.6178400" lon="16.8262650">
        <ele>28.9800000</ele>
        <time>2010-12-04T11:42:02Z</time>
      </trkpt>
      <trkpt lat="59.6176490" lon="16.8279610">
        <ele>31.8600000</ele>
        <time>2010-12-04T11:42:16Z</time>
      </trkpt>
      <trkpt lat="59.6176030" lon="16.8284230">
        <ele>31.8600000</ele>
        <time>2010-12-04T11:42:20Z</time>
      </trkpt>
      <trkpt lat="59.6174200" lon="16.8301540">
        <ele>31.3800000</ele>
        <time>2010-12-04T11:42:35Z</time>
      </trkpt>
      <trkpt lat="59.6172520" lon="16.8316960">
        <ele>31.3800000</ele>
        <time>2010-12-04T11:42:48Z</time>
      </trkpt>
      <trkpt lat="59.6171190" lon="16.8334870">
        <ele>31.8600000</ele>
        <time>2010-12-04T11:43:03Z</time>
      </trkpt>
      <trkpt lat="59.6171420" lon="16.8353650">
        <ele>31.3800000</ele>
        <time>2010-12-04T11:43:18Z</time>
      </trkpt>
      <trkpt lat="59.6173210" lon="16.8373370">
        <ele>30.9000000</ele>
        <time>2010-12-04T11:43:33Z</time>
      </trkpt>
      <trkpt lat="59.6175540" lon="16.8395400">
        <ele>31.8600000</ele>
        <time>2010-12-04T11:43:50Z</time>
      </trkpt>
      <trkpt lat="59.6177710" lon="16.8416820">
        <ele>34.2600000</ele>
        <time>2010-12-04T11:44:07Z</time>
      </trkpt>
      <trkpt lat="59.6178700" lon="16.8435210">
        <ele>32.3400000</ele>
        <time>2010-12-04T11:44:21Z</time>
      </trkpt>
      <trkpt lat="59.6177480" lon="16.8456130">
        <ele>29.4600000</ele>
        <time>2010-12-04T11:44:35Z</time>
      </trkpt>
      <trkpt lat="59.6176640" lon="16.8473530">
        <ele>30.4200000</ele>
        <time>2010-12-04T11:44:47Z</time>
      </trkpt>
      <trkpt lat="59.6177250" lon="16.8491480">
        <ele>28.0200000</ele>
        <time>2010-12-04T11:44:59Z</time>
      </trkpt>
      <trkpt lat="59.6179540" lon="16.8518560">
        <ele>26.0900000</ele>
        <time>2010-12-04T11:45:16Z</time>
      </trkpt>
      <trkpt lat="59.6183130" lon="16.8541410">
        <ele>23.6900000</ele>
        <time>2010-12-04T11:45:31Z</time>
      </trkpt>
      <trkpt lat="59.6183470" lon="16.8542980">
        <ele>23.2100000</ele>
        <time>2010-12-04T11:45:32Z</time>
      </trkpt>
      <trkpt lat="59.6189580" lon="16.8565880">
        <ele>20.8100000</ele>
        <time>2010-12-04T11:45:47Z</time>
      </trkpt>
      <trkpt lat="59.6195110" lon="16.8587230">
        <ele>18.4000000</ele>
        <time>2010-12-04T11:46:01Z</time>
      </trkpt>
      <trkpt lat="59.6199950" lon="16.8605590">
        <ele>18.8800000</ele>
        <time>2010-12-04T11:46:14Z</time>
      </trkpt>
      <trkpt lat="59.6202320" lon="16.8612690">
        <ele>19.3600000</ele>
        <time>2010-12-04T11:46:20Z</time>
      </trkpt>
      <trkpt lat="59.6202810" lon="16.8613590">
        <ele>19.3600000</ele>
        <time>2010-12-04T11:46:21Z</time>
      </trkpt>
      <trkpt lat="59.6203350" lon="16.8614350">
        <ele>19.8400000</ele>
        <time>2010-12-04T11:46:22Z</time>
      </trkpt>
      <trkpt lat="59.6203920" lon="16.8615040">
        <ele>19.8400000</ele>
        <time>2010-12-04T11:46:23Z</time>
      </trkpt>
      <trkpt lat="59.6204490" lon="16.8615590">
        <ele>19.3600000</ele>
        <time>2010-12-04T11:46:24Z</time>
      </trkpt>
      <trkpt lat="59.6205100" lon="16.8615970">
        <ele>19.8400000</ele>
        <time>2010-12-04T11:46:25Z</time>
      </trkpt>
      <trkpt lat="59.6205750" lon="16.8616220">
        <ele>19.8400000</ele>
        <time>2010-12-04T11:46:26Z</time>
      </trkpt>
      <trkpt lat="59.6206360" lon="16.8616330">
        <ele>20.3200000</ele>
        <time>2010-12-04T11:46:27Z</time>
      </trkpt>
      <trkpt lat="59.6207010" lon="16.8616330">
        <ele>20.3200000</ele>
        <time>2010-12-04T11:46:28Z</time>
      </trkpt>
      <trkpt lat="59.6207660" lon="16.8616260">
        <ele>20.8100000</ele>
        <time>2010-12-04T11:46:29Z</time>
      </trkpt>
      <trkpt lat="59.6213340" lon="16.8613300">
        <ele>20.8100000</ele>
        <time>2010-12-04T11:46:39Z</time>
      </trkpt>
      <trkpt lat="59.6221620" lon="16.8609910">
        <ele>20.3200000</ele>
        <time>2010-12-04T11:46:54Z</time>
      </trkpt>
      <trkpt lat="59.6223030" lon="16.8610120">
        <ele>20.8100000</ele>
        <time>2010-12-04T11:46:57Z</time>
      </trkpt>
      <trkpt lat="59.6223450" lon="16.8610420">
        <ele>20.8100000</ele>
        <time>2010-12-04T11:46:58Z</time>
      </trkpt>
      <trkpt lat="59.6223750" lon="16.8610880">
        <ele>20.8100000</ele>
        <time>2010-12-04T11:46:59Z</time>
      </trkpt>
      <trkpt lat="59.6223980" lon="16.8611450">
        <ele>20.8100000</ele>
        <time>2010-12-04T11:47:00Z</time>
      </trkpt>
      <trkpt lat="59.6224140" lon="16.8612100">
        <ele>21.2900000</ele>
        <time>2010-12-04T11:47:01Z</time>
      </trkpt>
      <trkpt lat="59.6224170" lon="16.8612800">
        <ele>21.2900000</ele>
        <time>2010-12-04T11:47:02Z</time>
      </trkpt>
      <trkpt lat="59.6224140" lon="16.8613570">
        <ele>21.2900000</ele>
        <time>2010-12-04T11:47:03Z</time>
      </trkpt>
      <trkpt lat="59.6224060" lon="16.8614390">
        <ele>21.2900000</ele>
        <time>2010-12-04T11:47:04Z</time>
      </trkpt>
      <trkpt lat="59.6223950" lon="16.8615320">
        <ele>20.8100000</ele>
        <time>2010-12-04T11:47:05Z</time>
      </trkpt>
      <trkpt lat="59.6223110" lon="16.8623980">
        <ele>16.9600000</ele>
        <time>2010-12-04T11:47:13Z</time>
      </trkpt>
      <trkpt lat="59.6222950" lon="16.8625130">
        <ele>21.7700000</ele>
        <time>2010-12-04T11:47:14Z</time>
      </trkpt>
      <trkpt lat="59.6220550" lon="16.8639600">
        <ele>21.2900000</ele>
        <time>2010-12-04T11:47:26Z</time>
      </trkpt>
      <trkpt lat="59.6215590" lon="16.8656140">
        <ele>20.8100000</ele>
        <time>2010-12-04T11:47:40Z</time>
      </trkpt>
      <trkpt lat="59.6209530" lon="16.8673630">
        <ele>20.8100000</ele>
        <time>2010-12-04T11:47:55Z</time>
      </trkpt>
      <trkpt lat="59.6205060" lon="16.8691540">
        <ele>19.3600000</ele>
        <time>2010-12-04T11:48:09Z</time>
      </trkpt>
      <trkpt lat="59.6202850" lon="16.8709770">
        <ele>18.8800000</ele>
        <time>2010-12-04T11:48:22Z</time>
      </trkpt>
      <trkpt lat="59.6201170" lon="16.8732930">
        <ele>16.9600000</ele>
        <time>2010-12-04T11:48:38Z</time>
      </trkpt>
      <trkpt lat="59.6201210" lon="16.8748650">
        <ele>13.6000000</ele>
        <time>2010-12-04T11:48:48Z</time>
      </trkpt>
      <trkpt lat="59.6201930" lon="16.8759380">
        <ele>10.7100000</ele>
        <time>2010-12-04T11:48:54Z</time>
      </trkpt>
      <trkpt lat="59.6202890" lon="16.8768980">
        <ele>7.3500000</ele>
        <time>2010-12-04T11:48:59Z</time>
      </trkpt>
      <trkpt lat="59.6203310" lon="16.8772950">
        <ele>6.3900000</ele>
        <time>2010-12-04T11:49:01Z</time>
      </trkpt>
      <trkpt lat="59.6206090" lon="16.8797230">
        <ele>4.9400000</ele>
        <time>2010-12-04T11:49:14Z</time>
      </trkpt>
      <trkpt lat="59.6208650" lon="16.8819450">
        <ele>5.4200000</ele>
        <time>2010-12-04T11:49:27Z</time>
      </trkpt>
      <trkpt lat="59.6210400" lon="16.8833810">
        <ele>8.7900000</ele>
        <time>2010-12-04T11:49:38Z</time>
      </trkpt>
      <trkpt lat="59.6212010" lon="16.8846970">
        <ele>11.6700000</ele>
        <time>2010-12-04T11:49:50Z</time>
      </trkpt>
      <trkpt lat="59.6214070" lon="16.8863410">
        <ele>14.0800000</ele>
        <time>2010-12-04T11:50:06Z</time>
      </trkpt>
      <trkpt lat="59.6215710" lon="16.8877050">
        <ele>16.9600000</ele>
        <time>2010-12-04T11:50:20Z</time>
      </trkpt>
      <trkpt lat="59.6217160" lon="16.8888950">
        <ele>19.3600000</ele>
        <time>2010-12-04T11:50:33Z</time>
      </trkpt>
      <trkpt lat="59.6219020" lon="16.8903330">
        <ele>21.2900000</ele>
        <time>2010-12-04T11:50:48Z</time>
      </trkpt>
      <trkpt lat="59.6221010" lon="16.8919660">
        <ele>22.7300000</ele>
        <time>2010-12-04T11:51:04Z</time>
      </trkpt>
      <trkpt lat="59.6223140" lon="16.8937680">
        <ele>23.2100000</ele>
        <time>2010-12-04T11:51:21Z</time>
      </trkpt>
      <trkpt lat="59.6225240" lon="16.8955210">
        <ele>22.7300000</ele>
        <time>2010-12-04T11:51:37Z</time>
      </trkpt>
      <trkpt lat="59.6227110" lon="16.8974380">
        <ele>22.2500000</ele>
        <time>2010-12-04T11:51:53Z</time>
      </trkpt>
      <trkpt lat="59.6227990" lon="16.8994500">
        <ele>22.2500000</ele>
        <time>2010-12-04T11:52:09Z</time>
      </trkpt>
      <trkpt lat="59.6227650" lon="16.9015730">
        <ele>21.7700000</ele>
        <time>2010-12-04T11:52:25Z</time>
      </trkpt>
      <trkpt lat="59.6226270" lon="16.9038370">
        <ele>21.7700000</ele>
        <time>2010-12-04T11:52:42Z</time>
      </trkpt>
      <trkpt lat="59.6224780" lon="16.9056700">
        <ele>21.7700000</ele>
        <time>2010-12-04T11:52:56Z</time>
      </trkpt>
      <trkpt lat="59.6223140" lon="16.9078080">
        <ele>21.7700000</ele>
        <time>2010-12-04T11:53:13Z</time>
      </trkpt>
      <trkpt lat="59.6221690" lon="16.9097520">
        <ele>21.7700000</ele>
        <time>2010-12-04T11:53:28Z</time>
      </trkpt>
      <trkpt lat="59.6220130" lon="16.9117280">
        <ele>23.2100000</ele>
        <time>2010-12-04T11:53:44Z</time>
      </trkpt>
      <trkpt lat="59.6218640" lon="16.9137040">
        <ele>23.2100000</ele>
        <time>2010-12-04T11:54:00Z</time>
      </trkpt>
      <trkpt lat="59.6217120" lon="16.9155690">
        <ele>24.6500000</ele>
        <time>2010-12-04T11:54:15Z</time>
      </trkpt>
      <trkpt lat="59.6215520" lon="16.9176940">
        <ele>22.7300000</ele>
        <time>2010-12-04T11:54:31Z</time>
      </trkpt>
      <trkpt lat="59.6214140" lon="16.9195100">
        <ele>22.7300000</ele>
        <time>2010-12-04T11:54:44Z</time>
      </trkpt>
      <trkpt lat="59.6213260" lon="16.9218770">
        <ele>21.2900000</ele>
        <time>2010-12-04T11:55:00Z</time>
      </trkpt>
      <trkpt lat="59.6214070" lon="16.9242950">
        <ele>21.2900000</ele>
        <time>2010-12-04T11:55:17Z</time>
      </trkpt>
      <trkpt lat="59.6216550" lon="16.9263150">
        <ele>21.7700000</ele>
        <time>2010-12-04T11:55:32Z</time>
      </trkpt>
      <trkpt lat="59.6219560" lon="16.9278410">
        <ele>22.7300000</ele>
        <time>2010-12-04T11:55:44Z</time>
      </trkpt>
      <trkpt lat="59.6225010" lon="16.9300580">
        <ele>21.2900000</ele>
        <time>2010-12-04T11:56:01Z</time>
      </trkpt>
      <trkpt lat="59.6230350" lon="16.9322930">
        <ele>21.2900000</ele>
        <time>2010-12-04T11:56:18Z</time>
      </trkpt>
      <trkpt lat="59.6235010" lon="16.9342420">
        <ele>21.2900000</ele>
        <time>2010-12-04T11:56:33Z</time>
      </trkpt>
      <trkpt lat="59.6240770" lon="16.9366360">
        <ele>20.8100000</ele>
        <time>2010-12-04T11:56:52Z</time>
      </trkpt>
      <trkpt lat="59.6245000" lon="16.9384160">
        <ele>20.8100000</ele>
        <time>2010-12-04T11:57:07Z</time>
      </trkpt>
      <trkpt lat="59.6249620" lon="16.9403250">
        <ele>21.2900000</ele>
        <time>2010-12-04T11:57:24Z</time>
      </trkpt>
      <trkpt lat="59.6253660" lon="16.9419780">
        <ele>21.7700000</ele>
        <time>2010-12-04T11:57:39Z</time>
      </trkpt>
      <trkpt lat="59.6258240" lon="16.9438020">
        <ele>23.2100000</ele>
        <time>2010-12-04T11:57:57Z</time>
      </trkpt>
      <trkpt lat="59.6262090" lon="16.9454290">
        <ele>24.6500000</ele>
        <time>2010-12-04T11:58:14Z</time>
      </trkpt>
      <trkpt lat="59.6265870" lon="16.9469910">
        <ele>25.6100000</ele>
        <time>2010-12-04T11:58:30Z</time>
      </trkpt>
      <trkpt lat="59.6269610" lon="16.9485630">
        <ele>26.0900000</ele>
        <time>2010-12-04T11:58:46Z</time>
      </trkpt>
      <trkpt lat="59.6273500" lon="16.9501570">
        <ele>27.5300000</ele>
        <time>2010-12-04T11:59:03Z</time>
      </trkpt>
      <trkpt lat="59.6277080" lon="16.9515910">
        <ele>28.0200000</ele>
        <time>2010-12-04T11:59:18Z</time>
      </trkpt>
      <trkpt lat="59.6281360" lon="16.9533270">
        <ele>26.5700000</ele>
        <time>2010-12-04T11:59:33Z</time>
      </trkpt>
      <trkpt lat="59.6284520" lon="16.9550320">
        <ele>24.6500000</ele>
        <time>2010-12-04T11:59:46Z</time>
      </trkpt>
      <trkpt lat="59.6286960" lon="16.9573960">
        <ele>22.2500000</ele>
        <time>2010-12-04T12:00:03Z</time>
      </trkpt>
      <trkpt lat="59.6288950" lon="16.9595090">
        <ele>21.7700000</ele>
        <time>2010-12-04T12:00:18Z</time>
      </trkpt>
      <trkpt lat="59.6290820" lon="16.9614180">
        <ele>21.2900000</ele>
        <time>2010-12-04T12:00:32Z</time>
      </trkpt>
      <trkpt lat="59.6292920" lon="16.9635720">
        <ele>21.7700000</ele>
        <time>2010-12-04T12:00:48Z</time>
      </trkpt>
      <trkpt lat="59.6294860" lon="16.9655460">
        <ele>19.8400000</ele>
        <time>2010-12-04T12:01:02Z</time>
      </trkpt>
      <trkpt lat="59.6297000" lon="16.9676570">
        <ele>16.9600000</ele>
        <time>2010-12-04T12:01:16Z</time>
      </trkpt>
      <trkpt lat="59.6299590" lon="16.9702970">
        <ele>14.0800000</ele>
        <time>2010-12-04T12:01:33Z</time>
      </trkpt>
      <trkpt lat="59.6301990" lon="16.9728180">
        <ele>12.6300000</ele>
        <time>2010-12-04T12:01:49Z</time>
      </trkpt>
      <trkpt lat="59.6304440" lon="16.9753190">
        <ele>11.6700000</ele>
        <time>2010-12-04T12:02:05Z</time>
      </trkpt>
      <trkpt lat="59.6306650" lon="16.9775960">
        <ele>10.7100000</ele>
        <time>2010-12-04T12:02:20Z</time>
      </trkpt>
      <trkpt lat="59.6308860" lon="16.9799040">
        <ele>11.1900000</ele>
        <time>2010-12-04T12:02:36Z</time>
      </trkpt>
      <trkpt lat="59.6311230" lon="16.9822980">
        <ele>11.1900000</ele>
        <time>2010-12-04T12:02:54Z</time>
      </trkpt>
      <trkpt lat="59.6313400" lon="16.9845010">
        <ele>12.1500000</ele>
        <time>2010-12-04T12:03:11Z</time>
      </trkpt>
      <trkpt lat="59.6315350" lon="16.9864520">
        <ele>12.1500000</ele>
        <time>2010-12-04T12:03:26Z</time>
      </trkpt>
      <trkpt lat="59.6317440" lon="16.9886340">
        <ele>12.6300000</ele>
        <time>2010-12-04T12:03:43Z</time>
      </trkpt>
      <trkpt lat="59.6319470" lon="16.9906350">
        <ele>13.6000000</ele>
        <time>2010-12-04T12:04:00Z</time>
      </trkpt>
      <trkpt lat="59.6321370" lon="16.9925800">
        <ele>14.0800000</ele>
        <time>2010-12-04T12:04:17Z</time>
      </trkpt>
      <trkpt lat="59.6323620" lon="16.9949000">
        <ele>14.0800000</ele>
        <time>2010-12-04T12:04:37Z</time>
      </trkpt>
      <trkpt lat="59.6325720" lon="16.9970470">
        <ele>14.5600000</ele>
        <time>2010-12-04T12:04:56Z</time>
      </trkpt>
      <trkpt lat="59.6327930" lon="16.9993130">
        <ele>15.5200000</ele>
        <time>2010-12-04T12:05:16Z</time>
      </trkpt>
      <trkpt lat="59.6329880" lon="17.0012700">
        <ele>17.4400000</ele>
        <time>2010-12-04T12:05:34Z</time>
      </trkpt>
      <trkpt lat="59.6331600" lon="17.0029560">
        <ele>18.8800000</ele>
        <time>2010-12-04T12:05:50Z</time>
      </trkpt>
      <trkpt lat="59.6332700" lon="17.0041390">
        <ele>20.3200000</ele>
        <time>2010-12-04T12:06:05Z</time>
      </trkpt>
      <trkpt lat="59.6332930" lon="17.0045470">
        <ele>20.8100000</ele>
        <time>2010-12-04T12:06:15Z</time>
      </trkpt>
      <trkpt lat="59.6332930" lon="17.0045530">
        <ele>21.7700000</ele>
        <time>2010-12-04T12:06:26Z</time>
      </trkpt>
      <trkpt lat="59.6332820" lon="17.0045640">
        <ele>20.8100000</ele>
        <time>2010-12-04T12:06:35Z</time>
      </trkpt>
      <trkpt lat="59.6332820" lon="17.0045640">
        <ele>20.8100000</ele>
        <time>2010-12-04T12:06:49Z</time>
      </trkpt>
      <trkpt lat="59.6332860" lon="17.0045720">
        <ele>21.7700000</ele>
        <time>2010-12-04T12:07:22Z</time>
      </trkpt>
      <trkpt lat="59.6332820" lon="17.0045740">
        <ele>21.2900000</ele>
        <time>2010-12-04T12:07:50Z</time>
      </trkpt>
      <trkpt lat="59.6332820" lon="17.0045740">
        <ele>21.2900000</ele>
        <time>2010-12-04T12:08:23Z</time>
      </trkpt>
      <trkpt lat="59.6332860" lon="17.0045740">
        <ele>21.2900000</ele>
        <time>2010-12-04T12:08:58Z</time>
      </trkpt>
      <trkpt lat="59.6332860" lon="17.0045680">
        <ele>20.8100000</ele>
        <time>2010-12-04T12:09:24Z</time>
      </trkpt>
      <trkpt lat="59.6332970" lon="17.0045890">
        <ele>21.2900000</ele>
        <time>2010-12-04T12:09:34Z</time>
      </trkpt>
      <trkpt lat="59.6333010" lon="17.0045870">
        <ele>20.8100000</ele>
        <time>2010-12-04T12:09:49Z</time>
      </trkpt>
      <trkpt lat="59.6333010" lon="17.0046410">
        <ele>20.8100000</ele>
        <time>2010-12-04T12:09:55Z</time>
      </trkpt>
      <trkpt lat="59.6333500" lon="17.0051040">
        <ele>21.7700000</ele>
        <time>2010-12-04T12:10:04Z</time>
      </trkpt>
      <trkpt lat="59.6334500" lon="17.0060830">
        <ele>21.2900000</ele>
        <time>2010-12-04T12:10:17Z</time>
      </trkpt>
      <trkpt lat="59.6335370" lon="17.0069920">
        <ele>20.3200000</ele>
        <time>2010-12-04T12:10:26Z</time>
      </trkpt>
      <trkpt lat="59.6337170" lon="17.0087380">
        <ele>17.4400000</ele>
        <time>2010-12-04T12:10:40Z</time>
      </trkpt>
      <trkpt lat="59.6338960" lon="17.0108170">
        <ele>14.0800000</ele>
        <time>2010-12-04T12:10:54Z</time>
      </trkpt>
      <trkpt lat="59.6340450" lon="17.0132850">
        <ele>14.0800000</ele>
        <time>2010-12-04T12:11:10Z</time>
      </trkpt>
      <trkpt lat="59.6341020" lon="17.0155600">
        <ele>10.7100000</ele>
        <time>2010-12-04T12:11:24Z</time>
      </trkpt>
      <trkpt lat="59.6341020" lon="17.0159380">
        <ele>9.7500000</ele>
        <time>2010-12-04T12:11:26Z</time>
      </trkpt>
      <trkpt lat="59.6340560" lon="17.0186210">
        <ele>7.3500000</ele>
        <time>2010-12-04T12:11:41Z</time>
      </trkpt>
      <trkpt lat="59.6339530" lon="17.0210090">
        <ele>6.3900000</ele>
        <time>2010-12-04T12:11:56Z</time>
      </trkpt>
      <trkpt lat="59.6338160" lon="17.0237750">
        <ele>5.9100000</ele>
        <time>2010-12-04T12:12:14Z</time>
      </trkpt>
      <trkpt lat="59.6336780" lon="17.0263750">
        <ele>5.4200000</ele>
        <time>2010-12-04T12:12:31Z</time>
      </trkpt>
      <trkpt lat="59.6335220" lon="17.0293350">
        <ele>4.4600000</ele>
        <time>2010-12-04T12:12:50Z</time>
      </trkpt>
      <trkpt lat="59.6333920" lon="17.0320450">
        <ele>4.4600000</ele>
        <time>2010-12-04T12:13:08Z</time>
      </trkpt>
      <trkpt lat="59.6333690" lon="17.0344470">
        <ele>4.4600000</ele>
        <time>2010-12-04T12:13:24Z</time>
      </trkpt>
      <trkpt lat="59.6334460" lon="17.0368120">
        <ele>3.9800000</ele>
        <time>2010-12-04T12:13:40Z</time>
      </trkpt>
      <trkpt lat="59.6336290" lon="17.0392020">
        <ele>4.9400000</ele>
        <time>2010-12-04T12:13:57Z</time>
      </trkpt>
      <trkpt lat="59.6338880" lon="17.0414430">
        <ele>3.9800000</ele>
        <time>2010-12-04T12:14:13Z</time>
      </trkpt>
      <trkpt lat="59.6342890" lon="17.0438370">
        <ele>3.0200000</ele>
        <time>2010-12-04T12:14:30Z</time>
      </trkpt>
      <trkpt lat="59.6347810" lon="17.0462020">
        <ele>2.5400000</ele>
        <time>2010-12-04T12:14:47Z</time>
      </trkpt>
      <trkpt lat="59.6351470" lon="17.0478210">
        <ele>2.5400000</ele>
        <time>2010-12-04T12:15:01Z</time>
      </trkpt>
      <trkpt lat="59.6356050" lon="17.0496770">
        <ele>2.0600000</ele>
        <time>2010-12-04T12:15:17Z</time>
      </trkpt>
      <trkpt lat="59.6360280" lon="17.0511530">
        <ele>1.5800000</ele>
        <time>2010-12-04T12:15:32Z</time>
      </trkpt>
      <trkpt lat="59.6365780" lon="17.0525070">
        <ele>2.0600000</ele>
        <time>2010-12-04T12:15:46Z</time>
      </trkpt>
      <trkpt lat="59.6372410" lon="17.0538310">
        <ele>2.0600000</ele>
        <time>2010-12-04T12:16:00Z</time>
      </trkpt>
      <trkpt lat="59.6378970" lon="17.0551930">
        <ele>2.0600000</ele>
        <time>2010-12-04T12:16:16Z</time>
      </trkpt>
      <trkpt lat="59.6381840" lon="17.0562520">
        <ele>2.0600000</ele>
        <time>2010-12-04T12:16:26Z</time>
      </trkpt>
      <trkpt lat="59.6381760" lon="17.0575680">
        <ele>2.0600000</ele>
        <time>2010-12-04T12:16:37Z</time>
      </trkpt>
      <trkpt lat="59.6379590" lon="17.0594200">
        <ele>1.1000000</ele>
        <time>2010-12-04T12:16:53Z</time>
      </trkpt>
      <trkpt lat="59.6378290" lon="17.0604760">
        <ele>1.1000000</ele>
        <time>2010-12-04T12:17:04Z</time>
      </trkpt>
      <trkpt lat="59.6378170" lon="17.0605640">
        <ele>1.1000000</ele>
        <time>2010-12-04T12:17:13Z</time>
      </trkpt>
      <trkpt lat="59.6377940" lon="17.0607740">
        <ele>1.1000000</ele>
        <time>2010-12-04T12:17:30Z</time>
      </trkpt>
      <trkpt lat="59.6376610" lon="17.0619960">
        <ele>0.6200000</ele>
        <time>2010-12-04T12:17:44Z</time>
      </trkpt>
      <trkpt lat="59.6376040" lon="17.0626280">
        <ele>6.8700000</ele>
        <time>2010-12-04T12:17:50Z</time>
      </trkpt>
      <trkpt lat="59.6375920" lon="17.0627330">
        <ele>1.1000000</ele>
        <time>2010-12-04T12:17:51Z</time>
      </trkpt>
      <trkpt lat="59.6373940" lon="17.0644860">
        <ele>0.6200000</ele>
        <time>2010-12-04T12:18:07Z</time>
      </trkpt>
      <trkpt lat="59.6372720" lon="17.0662610">
        <ele>0.6200000</ele>
        <time>2010-12-04T12:18:22Z</time>
      </trkpt>
      <trkpt lat="59.6372300" lon="17.0680240">
        <ele>0.6200000</ele>
        <time>2010-12-04T12:18:37Z</time>
      </trkpt>
      <trkpt lat="59.6371570" lon="17.0701870">
        <ele>0.6200000</ele>
        <time>2010-12-04T12:18:56Z</time>
      </trkpt>
      <trkpt lat="59.6370470" lon="17.0722690">
        <ele>0.6200000</ele>
        <time>2010-12-04T12:19:14Z</time>
      </trkpt>
      <trkpt lat="59.6369740" lon="17.0734750">
        <ele>0.6200000</ele>
        <time>2010-12-04T12:19:27Z</time>
      </trkpt>
      <trkpt lat="59.6369440" lon="17.0737400">
        <ele>0.6200000</ele>
        <time>2010-12-04T12:19:36Z</time>
      </trkpt>
      <trkpt lat="59.6369250" lon="17.0741250">
        <ele>1.1000000</ele>
        <time>2010-12-04T12:19:44Z</time>
      </trkpt>
      <trkpt lat="59.6371460" lon="17.0745140">
        <ele>1.5800000</ele>
        <time>2010-12-04T12:19:52Z</time>
      </trkpt>
      <trkpt lat="59.6373020" lon="17.0751840">
        <ele>2.5400000</ele>
        <time>2010-12-04T12:20:03Z</time>
      </trkpt>
      <trkpt lat="59.6374320" lon="17.0753570">
        <ele>3.0200000</ele>
        <time>2010-12-04T12:20:11Z</time>
      </trkpt>
      <trkpt lat="59.6374860" lon="17.0754090">
        <ele>3.0200000</ele>
        <time>2010-12-04T12:22:40Z</time>
      </trkpt>
      <trkpt lat="59.6375010" lon="17.0754300">
        <ele>3.0200000</ele>
        <time>2010-12-04T12:22:41Z</time>
      </trkpt>
      <trkpt lat="59.6375160" lon="17.0754570">
        <ele>3.0200000</ele>
        <time>2010-12-04T12:22:42Z</time>
      </trkpt>
      <trkpt lat="59.6375430" lon="17.0754990">
        <ele>3.5000000</ele>
        <time>2010-12-04T12:22:43Z</time>
      </trkpt>
      <trkpt lat="59.6375660" lon="17.0755460">
        <ele>1.1000000</ele>
        <time>2010-12-04T12:22:44Z</time>
      </trkpt>
      <trkpt lat="59.6378440" lon="17.0760420">
        <ele>3.9800000</ele>
        <time>2010-12-04T12:22:54Z</time>
      </trkpt>
      <trkpt lat="59.6384350" lon="17.0770570">
        <ele>4.9400000</ele>
        <time>2010-12-04T12:23:13Z</time>
      </trkpt>
      <trkpt lat="59.6386340" lon="17.0774000">
        <ele>5.9100000</ele>
        <time>2010-12-04T12:23:23Z</time>
      </trkpt>
      <trkpt lat="59.6386410" lon="17.0774120">
        <ele>6.3900000</ele>
        <time>2010-12-04T12:23:36Z</time>
      </trkpt>
      <trkpt lat="59.6387250" lon="17.0775430">
        <ele>6.3900000</ele>
        <time>2010-12-04T12:23:50Z</time>
      </trkpt>
      <trkpt lat="59.6391490" lon="17.0780750">
        <ele>6.3900000</ele>
        <time>2010-12-04T12:24:02Z</time>
      </trkpt>
      <trkpt lat="59.6397550" lon="17.0788330">
        <ele>8.3100000</ele>
        <time>2010-12-04T12:24:17Z</time>
      </trkpt>
      <trkpt lat="59.6403770" lon="17.0795400">
        <ele>10.7100000</ele>
        <time>2010-12-04T12:24:32Z</time>
      </trkpt>
      <trkpt lat="59.6409680" lon="17.0800860">
        <ele>13.1200000</ele>
        <time>2010-12-04T12:24:46Z</time>
      </trkpt>
      <trkpt lat="59.6416130" lon="17.0806600">
        <ele>16.0000000</ele>
        <time>2010-12-04T12:25:02Z</time>
      </trkpt>
      <trkpt lat="59.6422230" lon="17.0810830">
        <ele>17.9200000</ele>
        <time>2010-12-04T12:25:17Z</time>
      </trkpt>
      <trkpt lat="59.6428990" lon="17.0814990">
        <ele>19.8400000</ele>
        <time>2010-12-04T12:25:33Z</time>
      </trkpt>
      <trkpt lat="59.6436690" lon="17.0819970">
        <ele>21.7700000</ele>
        <time>2010-12-04T12:25:51Z</time>
      </trkpt>
      <trkpt lat="59.6442570" lon="17.0823670">
        <ele>21.7700000</ele>
        <time>2010-12-04T12:26:04Z</time>
      </trkpt>
      <trkpt lat="59.6445120" lon="17.0826090">
        <ele>23.2100000</ele>
        <time>2010-12-04T12:26:10Z</time>
      </trkpt>
      <trkpt lat="59.6445470" lon="17.0826640">
        <ele>22.7300000</ele>
        <time>2010-12-04T12:26:11Z</time>
      </trkpt>
      <trkpt lat="59.6445770" lon="17.0827330">
        <ele>23.2100000</ele>
        <time>2010-12-04T12:26:12Z</time>
      </trkpt>
      <trkpt lat="59.6445960" lon="17.0828110">
        <ele>23.2100000</ele>
        <time>2010-12-04T12:26:13Z</time>
      </trkpt>
      <trkpt lat="59.6446080" lon="17.0828950">
        <ele>23.2100000</ele>
        <time>2010-12-04T12:26:14Z</time>
      </trkpt>
      <trkpt lat="59.6446150" lon="17.0829830">
        <ele>23.2100000</ele>
        <time>2010-12-04T12:26:15Z</time>
      </trkpt>
      <trkpt lat="59.6446800" lon="17.0840240">
        <ele>26.5700000</ele>
        <time>2010-12-04T12:26:29Z</time>
      </trkpt>
      <trkpt lat="59.6445770" lon="17.0845810">
        <ele>27.0500000</ele>
        <time>2010-12-04T12:27:53Z</time>
      </trkpt>
      <trkpt lat="59.6444470" lon="17.0852720">
        <ele>27.0500000</ele>
        <time>2010-12-04T12:28:04Z</time>
      </trkpt>
      <trkpt lat="59.6441610" lon="17.0865500">
        <ele>27.0500000</ele>
        <time>2010-12-04T12:28:22Z</time>
      </trkpt>
      <trkpt lat="59.6438410" lon="17.0872840">
        <ele>28.0200000</ele>
        <time>2010-12-04T12:28:36Z</time>
      </trkpt>
      <trkpt lat="59.6437230" lon="17.0877570">
        <ele>28.0200000</ele>
        <time>2010-12-04T12:28:43Z</time>
      </trkpt>
      <trkpt lat="59.6437000" lon="17.0878220">
        <ele>28.0200000</ele>
        <time>2010-12-04T12:28:44Z</time>
      </trkpt>
      <trkpt lat="59.6436080" lon="17.0880930">
        <ele>28.5000000</ele>
        <time>2010-12-04T12:28:48Z</time>
      </trkpt>
      <trkpt lat="59.6432990" lon="17.0891280">
        <ele>28.5000000</ele>
        <time>2010-12-04T12:29:02Z</time>
      </trkpt>
      <trkpt lat="59.6430820" lon="17.0902390">
        <ele>27.0500000</ele>
        <time>2010-12-04T12:29:15Z</time>
      </trkpt>
      <trkpt lat="59.6428490" lon="17.0914920">
        <ele>24.1700000</ele>
        <time>2010-12-04T12:29:29Z</time>
      </trkpt>
      <trkpt lat="59.6426890" lon="17.0922570">
        <ele>20.8100000</ele>
        <time>2010-12-04T12:29:36Z</time>
      </trkpt>
      <trkpt lat="59.6425170" lon="17.0928840">
        <ele>17.9200000</ele>
        <time>2010-12-04T12:29:42Z</time>
      </trkpt>
      <trkpt lat="59.6423800" lon="17.0932960">
        <ele>16.0000000</ele>
        <time>2010-12-04T12:29:46Z</time>
      </trkpt>
      <trkpt lat="59.6422160" lon="17.0938380">
        <ele>14.0800000</ele>
        <time>2010-12-04T12:29:51Z</time>
      </trkpt>
      <trkpt lat="59.6421130" lon="17.0941180">
        <ele>12.6300000</ele>
        <time>2010-12-04T12:29:54Z</time>
      </trkpt>
      <trkpt lat="59.6419110" lon="17.0946120">
        <ele>10.7100000</ele>
        <time>2010-12-04T12:30:02Z</time>
      </trkpt>
      <trkpt lat="59.6418910" lon="17.0946870">
        <ele>10.2300000</ele>
        <time>2010-12-04T12:30:03Z</time>
      </trkpt>
      <trkpt lat="59.6418760" lon="17.0947690">
        <ele>10.2300000</ele>
        <time>2010-12-04T12:30:04Z</time>
      </trkpt>
      <trkpt lat="59.6418690" lon="17.0948600">
        <ele>9.7500000</ele>
        <time>2010-12-04T12:30:05Z</time>
      </trkpt>
      <trkpt lat="59.6418650" lon="17.0949570">
        <ele>9.2700000</ele>
        <time>2010-12-04T12:30:06Z</time>
      </trkpt>
      <trkpt lat="59.6418690" lon="17.0950570">
        <ele>9.2700000</ele>
        <time>2010-12-04T12:30:07Z</time>
      </trkpt>
      <trkpt lat="59.6418760" lon="17.0951560">
        <ele>9.2700000</ele>
        <time>2010-12-04T12:30:08Z</time>
      </trkpt>
      <trkpt lat="59.6418840" lon="17.0952550">
        <ele>8.7900000</ele>
        <time>2010-12-04T12:30:09Z</time>
      </trkpt>
      <trkpt lat="59.6418800" lon="17.0953560">
        <ele>8.7900000</ele>
        <time>2010-12-04T12:30:10Z</time>
      </trkpt>
      <trkpt lat="59.6418500" lon="17.0959590">
        <ele>8.7900000</ele>
        <time>2010-12-04T12:30:16Z</time>
      </trkpt>
      <trkpt lat="59.6420060" lon="17.0969200">
        <ele>10.7100000</ele>
        <time>2010-12-04T12:30:27Z</time>
      </trkpt>
      <trkpt lat="59.6423000" lon="17.0977630">
        <ele>13.6000000</ele>
        <time>2010-12-04T12:30:41Z</time>
      </trkpt>
      <trkpt lat="59.6425590" lon="17.0984440">
        <ele>16.0000000</ele>
        <time>2010-12-04T12:30:54Z</time>
      </trkpt>
      <trkpt lat="59.6428450" lon="17.0991970">
        <ele>18.8800000</ele>
        <time>2010-12-04T12:31:09Z</time>
      </trkpt>
      <trkpt lat="59.6429900" lon="17.0997580">
        <ele>20.3200000</ele>
        <time>2010-12-04T12:31:19Z</time>
      </trkpt>
      <trkpt lat="59.6432270" lon="17.1003720">
        <ele>22.2500000</ele>
        <time>2010-12-04T12:31:30Z</time>
      </trkpt>
      <trkpt lat="59.6434330" lon="17.1009250">
        <ele>24.6500000</ele>
        <time>2010-12-04T12:31:41Z</time>
      </trkpt>
      <trkpt lat="59.6436650" lon="17.1016060">
        <ele>27.5300000</ele>
        <time>2010-12-04T12:31:55Z</time>
      </trkpt>
      <trkpt lat="59.6439630" lon="17.1024780">
        <ele>29.9400000</ele>
        <time>2010-12-04T12:32:12Z</time>
      </trkpt>
      <trkpt lat="59.6442380" lon="17.1032750">
        <ele>31.8600000</ele>
        <time>2010-12-04T12:32:27Z</time>
      </trkpt>
      <trkpt lat="59.6445660" lon="17.1042310">
        <ele>33.3000000</ele>
        <time>2010-12-04T12:32:42Z</time>
      </trkpt>
      <trkpt lat="59.6448750" lon="17.1052550">
        <ele>34.2600000</ele>
        <time>2010-12-04T12:32:56Z</time>
      </trkpt>
      <trkpt lat="59.6451070" lon="17.1062700">
        <ele>35.2300000</ele>
        <time>2010-12-04T12:33:09Z</time>
      </trkpt>
      <trkpt lat="59.6453020" lon="17.1075340">
        <ele>36.1900000</ele>
        <time>2010-12-04T12:33:24Z</time>
      </trkpt>
      <trkpt lat="59.6454470" lon="17.1090830">
        <ele>37.6300000</ele>
        <time>2010-12-04T12:33:41Z</time>
      </trkpt>
      <trkpt lat="59.6454660" lon="17.1107350">
        <ele>39.0700000</ele>
        <time>2010-12-04T12:33:59Z</time>
      </trkpt>
      <trkpt lat="59.6454390" lon="17.1122990">
        <ele>39.0700000</ele>
        <time>2010-12-04T12:34:14Z</time>
      </trkpt>
      <trkpt lat="59.6454050" lon="17.1139200">
        <ele>36.6700000</ele>
        <time>2010-12-04T12:34:28Z</time>
      </trkpt>
      <trkpt lat="59.6453590" lon="17.1159230">
        <ele>33.7800000</ele>
        <time>2010-12-04T12:34:42Z</time>
      </trkpt>
      <trkpt lat="59.6454050" lon="17.1177710">
        <ele>30.9000000</ele>
        <time>2010-12-04T12:34:54Z</time>
      </trkpt>
      <trkpt lat="59.6455540" lon="17.1201950">
        <ele>28.9800000</ele>
        <time>2010-12-04T12:35:10Z</time>
      </trkpt>
      <trkpt lat="59.6457710" lon="17.1222860">
        <ele>28.5000000</ele>
        <time>2010-12-04T12:35:25Z</time>
      </trkpt>
      <trkpt lat="59.6460080" lon="17.1244320">
        <ele>28.0200000</ele>
        <time>2010-12-04T12:35:41Z</time>
      </trkpt>
      <trkpt lat="59.6462780" lon="17.1264000">
        <ele>29.4600000</ele>
        <time>2010-12-04T12:35:57Z</time>
      </trkpt>
      <trkpt lat="59.6464880" lon="17.1283130">
        <ele>28.5000000</ele>
        <time>2010-12-04T12:36:12Z</time>
      </trkpt>
      <trkpt lat="59.6465800" lon="17.1306720">
        <ele>28.0200000</ele>
        <time>2010-12-04T12:36:30Z</time>
      </trkpt>
      <trkpt lat="59.6464540" lon="17.1328320">
        <ele>28.0200000</ele>
        <time>2010-12-04T12:36:47Z</time>
      </trkpt>
      <trkpt lat="59.6462780" lon="17.1346020">
        <ele>28.0200000</ele>
        <time>2010-12-04T12:37:01Z</time>
      </trkpt>
      <trkpt lat="59.6460720" lon="17.1365030">
        <ele>27.0500000</ele>
        <time>2010-12-04T12:37:16Z</time>
      </trkpt>
      <trkpt lat="59.6459500" lon="17.1387880">
        <ele>27.0500000</ele>
        <time>2010-12-04T12:37:34Z</time>
      </trkpt>
      <trkpt lat="59.6460300" lon="17.1404900">
        <ele>28.5000000</ele>
        <time>2010-12-04T12:37:48Z</time>
      </trkpt>
      <trkpt lat="59.6462480" lon="17.1419810">
        <ele>30.9000000</ele>
        <time>2010-12-04T12:38:02Z</time>
      </trkpt>
      <trkpt lat="59.6465230" lon="17.1431540">
        <ele>34.2600000</ele>
        <time>2010-12-04T12:38:15Z</time>
      </trkpt>
      <trkpt lat="59.6469920" lon="17.1444870">
        <ele>36.1900000</ele>
        <time>2010-12-04T12:38:32Z</time>
      </trkpt>
      <trkpt lat="59.6475830" lon="17.1456280">
        <ele>37.6300000</ele>
        <time>2010-12-04T12:38:48Z</time>
      </trkpt>
      <trkpt lat="59.6483040" lon="17.1468620">
        <ele>35.2300000</ele>
        <time>2010-12-04T12:39:04Z</time>
      </trkpt>
      <trkpt lat="59.6489870" lon="17.1484470">
        <ele>32.3400000</ele>
        <time>2010-12-04T12:39:19Z</time>
      </trkpt>
      <trkpt lat="59.6494520" lon="17.1503280">
        <ele>29.4600000</ele>
        <time>2010-12-04T12:39:33Z</time>
      </trkpt>
      <trkpt lat="59.6497120" lon="17.1522410">
        <ele>28.9800000</ele>
        <time>2010-12-04T12:39:47Z</time>
      </trkpt>
      <trkpt lat="59.6499370" lon="17.1541880">
        <ele>29.4600000</ele>
        <time>2010-12-04T12:40:02Z</time>
      </trkpt>
      <trkpt lat="59.6502300" lon="17.1565630">
        <ele>28.9800000</ele>
        <time>2010-12-04T12:40:20Z</time>
      </trkpt>
      <trkpt lat="59.6505890" lon="17.1588080">
        <ele>28.9800000</ele>
        <time>2010-12-04T12:40:37Z</time>
      </trkpt>
      <trkpt lat="59.6510350" lon="17.1610300">
        <ele>28.0200000</ele>
        <time>2010-12-04T12:40:54Z</time>
      </trkpt>
      <trkpt lat="59.6515850" lon="17.1635460">
        <ele>28.5000000</ele>
        <time>2010-12-04T12:41:14Z</time>
      </trkpt>
      <trkpt lat="59.6522480" lon="17.1665880">
        <ele>28.5000000</ele>
        <time>2010-12-04T12:41:38Z</time>
      </trkpt>
      <trkpt lat="59.6527860" lon="17.1690900">
        <ele>28.0200000</ele>
        <time>2010-12-04T12:41:58Z</time>
      </trkpt>
      <trkpt lat="59.6531600" lon="17.1713910">
        <ele>28.5000000</ele>
        <time>2010-12-04T12:42:16Z</time>
      </trkpt>
      <trkpt lat="59.6533850" lon="17.1736320">
        <ele>28.9800000</ele>
        <time>2010-12-04T12:42:33Z</time>
      </trkpt>
      <trkpt lat="59.6535030" lon="17.1761840">
        <ele>28.5000000</ele>
        <time>2010-12-04T12:42:52Z</time>
      </trkpt>
      <trkpt lat="59.6535300" lon="17.1784820">
        <ele>28.5000000</ele>
        <time>2010-12-04T12:43:09Z</time>
      </trkpt>
      <trkpt lat="59.6536290" lon="17.1806130">
        <ele>28.9800000</ele>
        <time>2010-12-04T12:43:25Z</time>
      </trkpt>
      <trkpt lat="59.6538700" lon="17.1827490">
        <ele>29.4600000</ele>
        <time>2010-12-04T12:43:41Z</time>
      </trkpt>
      <trkpt lat="59.6543200" lon="17.1851520">
        <ele>28.5000000</ele>
        <time>2010-12-04T12:43:59Z</time>
      </trkpt>
      <trkpt lat="59.6548770" lon="17.1875110">
        <ele>27.0500000</ele>
        <time>2010-12-04T12:44:17Z</time>
      </trkpt>
      <trkpt lat="59.6552660" lon="17.1896570">
        <ele>26.5700000</ele>
        <time>2010-12-04T12:44:33Z</time>
      </trkpt>
      <trkpt lat="59.6554990" lon="17.1917930">
        <ele>27.5300000</ele>
        <time>2010-12-04T12:44:49Z</time>
      </trkpt>
      <trkpt lat="59.6556740" lon="17.1938820">
        <ele>28.0200000</ele>
        <time>2010-12-04T12:45:04Z</time>
      </trkpt>
      <trkpt lat="59.6559100" lon="17.1967010">
        <ele>28.0200000</ele>
        <time>2010-12-04T12:45:24Z</time>
      </trkpt>
      <trkpt lat="59.6561130" lon="17.1990870">
        <ele>28.0200000</ele>
        <time>2010-12-04T12:45:41Z</time>
      </trkpt>
      <trkpt lat="59.6563220" lon="17.2015040">
        <ele>27.5300000</ele>
        <time>2010-12-04T12:45:58Z</time>
      </trkpt>
      <trkpt lat="59.6566050" lon="17.2042410">
        <ele>26.0900000</ele>
        <time>2010-12-04T12:46:17Z</time>
      </trkpt>
      <trkpt lat="59.6569900" lon="17.2073520">
        <ele>26.0900000</ele>
        <time>2010-12-04T12:46:39Z</time>
      </trkpt>
      <trkpt lat="59.6573070" lon="17.2098080">
        <ele>25.6100000</ele>
        <time>2010-12-04T12:46:57Z</time>
      </trkpt>
      <trkpt lat="59.6575810" lon="17.2119830">
        <ele>27.0500000</ele>
        <time>2010-12-04T12:47:13Z</time>
      </trkpt>
      <trkpt lat="59.6579860" lon="17.2147240">
        <ele>25.6100000</ele>
        <time>2010-12-04T12:47:33Z</time>
      </trkpt>
      <trkpt lat="59.6584050" lon="17.2171020">
        <ele>24.6500000</ele>
        <time>2010-12-04T12:47:50Z</time>
      </trkpt>
      <trkpt lat="59.6588060" lon="17.2193340">
        <ele>26.0900000</ele>
        <time>2010-12-04T12:48:07Z</time>
      </trkpt>
      <trkpt lat="59.6591530" lon="17.2212770">
        <ele>28.0200000</ele>
        <time>2010-12-04T12:48:23Z</time>
      </trkpt>
      <trkpt lat="59.6594620" lon="17.2229520">
        <ele>27.0500000</ele>
        <time>2010-12-04T12:48:37Z</time>
      </trkpt>
      <trkpt lat="59.6598280" lon="17.2250600">
        <ele>24.1700000</ele>
        <time>2010-12-04T12:48:52Z</time>
      </trkpt>
      <trkpt lat="59.6602480" lon="17.2274210">
        <ele>26.0900000</ele>
        <time>2010-12-04T12:49:09Z</time>
      </trkpt>
      <trkpt lat="59.6605950" lon="17.2295510">
        <ele>25.6100000</ele>
        <time>2010-12-04T12:49:25Z</time>
      </trkpt>
      <trkpt lat="59.6608390" lon="17.2321280">
        <ele>25.1300000</ele>
        <time>2010-12-04T12:49:43Z</time>
      </trkpt>
      <trkpt lat="59.6608960" lon="17.2345100">
        <ele>22.7300000</ele>
        <time>2010-12-04T12:49:58Z</time>
      </trkpt>
      <trkpt lat="59.6608620" lon="17.2370450">
        <ele>19.3600000</ele>
        <time>2010-12-04T12:50:13Z</time>
      </trkpt>
      <trkpt lat="59.6608160" lon="17.2398130">
        <ele>16.9600000</ele>
        <time>2010-12-04T12:50:29Z</time>
      </trkpt>
      <trkpt lat="59.6607700" lon="17.2420290">
        <ele>17.4400000</ele>
        <time>2010-12-04T12:50:44Z</time>
      </trkpt>
      <trkpt lat="59.6607440" lon="17.2447850">
        <ele>16.4800000</ele>
        <time>2010-12-04T12:51:03Z</time>
      </trkpt>
      <trkpt lat="59.6607090" lon="17.2470150">
        <ele>14.0800000</ele>
        <time>2010-12-04T12:51:18Z</time>
      </trkpt>
      <trkpt lat="59.6607510" lon="17.2493210">
        <ele>14.5600000</ele>
        <time>2010-12-04T12:51:33Z</time>
      </trkpt>
      <trkpt lat="59.6608770" lon="17.2511250">
        <ele>16.4800000</ele>
        <time>2010-12-04T12:51:47Z</time>
      </trkpt>
      <trkpt lat="59.6610530" lon="17.2531620">
        <ele>18.4000000</ele>
        <time>2010-12-04T12:52:04Z</time>
      </trkpt>
      <trkpt lat="59.6612170" lon="17.2550130">
        <ele>20.8100000</ele>
        <time>2010-12-04T12:52:21Z</time>
      </trkpt>
      <trkpt lat="59.6613730" lon="17.2568450">
        <ele>18.8800000</ele>
        <time>2010-12-04T12:52:36Z</time>
      </trkpt>
      <trkpt lat="59.6614840" lon="17.2584320">
        <ele>15.5200000</ele>
        <time>2010-12-04T12:52:47Z</time>
      </trkpt>
      <trkpt lat="59.6615640" lon="17.2606390">
        <ele>13.1200000</ele>
        <time>2010-12-04T12:53:01Z</time>
      </trkpt>
      <trkpt lat="59.6616170" lon="17.2628590">
        <ele>13.1200000</ele>
        <time>2010-12-04T12:53:17Z</time>
      </trkpt>
      <trkpt lat="59.6616820" lon="17.2645380">
        <ele>13.1200000</ele>
        <time>2010-12-04T12:53:30Z</time>
      </trkpt>
      <trkpt lat="59.6616740" lon="17.2646580">
        <ele>13.1200000</ele>
        <time>2010-12-04T12:53:31Z</time>
      </trkpt>
      <trkpt lat="59.6616550" lon="17.2647740">
        <ele>12.6300000</ele>
        <time>2010-12-04T12:53:32Z</time>
      </trkpt>
      <trkpt lat="59.6616210" lon="17.2648770">
        <ele>13.1200000</ele>
        <time>2010-12-04T12:53:33Z</time>
      </trkpt>
      <trkpt lat="59.6615790" lon="17.2649730">
        <ele>13.1200000</ele>
        <time>2010-12-04T12:53:34Z</time>
      </trkpt>
      <trkpt lat="59.6615450" lon="17.2650720">
        <ele>13.1200000</ele>
        <time>2010-12-04T12:53:35Z</time>
      </trkpt>
      <trkpt lat="59.6615140" lon="17.2651790">
        <ele>13.1200000</ele>
        <time>2010-12-04T12:53:36Z</time>
      </trkpt>
      <trkpt lat="59.6614990" lon="17.2652970">
        <ele>13.1200000</ele>
        <time>2010-12-04T12:53:37Z</time>
      </trkpt>
      <trkpt lat="59.6614910" lon="17.2654190">
        <ele>13.1200000</ele>
        <time>2010-12-04T12:53:38Z</time>
      </trkpt>
      <trkpt lat="59.6614990" lon="17.2655430">
        <ele>13.6000000</ele>
        <time>2010-12-04T12:53:39Z</time>
      </trkpt>
      <trkpt lat="59.6615100" lon="17.2656690">
        <ele>13.1200000</ele>
        <time>2010-12-04T12:53:40Z</time>
      </trkpt>
      <trkpt lat="59.6616780" lon="17.2676010">
        <ele>14.5600000</ele>
        <time>2010-12-04T12:53:56Z</time>
      </trkpt>
      <trkpt lat="59.6617130" lon="17.2690830">
        <ele>16.0000000</ele>
        <time>2010-12-04T12:54:10Z</time>
      </trkpt>
      <trkpt lat="59.6617280" lon="17.2701000">
        <ele>18.8800000</ele>
        <time>2010-12-04T12:54:21Z</time>
      </trkpt>
      <trkpt lat="59.6617360" lon="17.2712550">
        <ele>22.2500000</ele>
        <time>2010-12-04T12:54:36Z</time>
      </trkpt>
      <trkpt lat="59.6617470" lon="17.2723870">
        <ele>25.1300000</ele>
        <time>2010-12-04T12:54:51Z</time>
      </trkpt>
      <trkpt lat="59.6617660" lon="17.2735100">
        <ele>27.5300000</ele>
        <time>2010-12-04T12:55:06Z</time>
      </trkpt>
      <trkpt lat="59.6617890" lon="17.2744960">
        <ele>29.9400000</ele>
        <time>2010-12-04T12:55:19Z</time>
      </trkpt>
      <trkpt lat="59.6618080" lon="17.2755260">
        <ele>32.8200000</ele>
        <time>2010-12-04T12:55:33Z</time>
      </trkpt>
      <trkpt lat="59.6618120" lon="17.2766400">
        <ele>34.2600000</ele>
        <time>2010-12-04T12:55:48Z</time>
      </trkpt>
      <trkpt lat="59.6618350" lon="17.2776580">
        <ele>35.7100000</ele>
        <time>2010-12-04T12:56:01Z</time>
      </trkpt>
      <trkpt lat="59.6618500" lon="17.2787420">
        <ele>37.1500000</ele>
        <time>2010-12-04T12:56:14Z</time>
      </trkpt>
      <trkpt lat="59.6618920" lon="17.2804990">
        <ele>41.9500000</ele>
        <time>2010-12-04T12:56:33Z</time>
      </trkpt>
      <trkpt lat="59.6618920" lon="17.2805920">
        <ele>38.5900000</ele>
        <time>2010-12-04T12:56:34Z</time>
      </trkpt>
      <trkpt lat="59.6619110" lon="17.2818510">
        <ele>38.5900000</ele>
        <time>2010-12-04T12:56:48Z</time>
      </trkpt>
      <trkpt lat="59.6619380" lon="17.2833880">
        <ele>38.1100000</ele>
        <time>2010-12-04T12:57:03Z</time>
      </trkpt>
      <trkpt lat="59.6619680" lon="17.2852100">
        <ele>36.6700000</ele>
        <time>2010-12-04T12:57:18Z</time>
      </trkpt>
      <trkpt lat="59.6619760" lon="17.2867830">
        <ele>37.6300000</ele>
        <time>2010-12-04T12:57:32Z</time>
      </trkpt>
      <trkpt lat="59.6619680" lon="17.2879600">
        <ele>38.1100000</ele>
        <time>2010-12-04T12:57:44Z</time>
      </trkpt>
      <trkpt lat="59.6619070" lon="17.2893710">
        <ele>38.5900000</ele>
        <time>2010-12-04T12:57:59Z</time>
      </trkpt>
      <trkpt lat="59.6618540" lon="17.2906820">
        <ele>39.5500000</ele>
        <time>2010-12-04T12:58:12Z</time>
      </trkpt>
      <trkpt lat="59.6618000" lon="17.2921920">
        <ele>40.0300000</ele>
        <time>2010-12-04T12:58:27Z</time>
      </trkpt>
      <trkpt lat="59.6617320" lon="17.2938040">
        <ele>40.5100000</ele>
        <time>2010-12-04T12:58:42Z</time>
      </trkpt>
      <trkpt lat="59.6616710" lon="17.2953870">
        <ele>40.5100000</ele>
        <time>2010-12-04T12:58:56Z</time>
      </trkpt>
      <trkpt lat="59.6616290" lon="17.2971920">
        <ele>38.5900000</ele>
        <time>2010-12-04T12:59:10Z</time>
      </trkpt>
      <trkpt lat="59.6616210" lon="17.2990470">
        <ele>35.2300000</ele>
        <time>2010-12-04T12:59:22Z</time>
      </trkpt>
      <trkpt lat="59.6616170" lon="17.3007200">
        <ele>32.3400000</ele>
        <time>2010-12-04T12:59:32Z</time>
      </trkpt>
      <trkpt lat="59.6616100" lon="17.3030320">
        <ele>30.9000000</ele>
        <time>2010-12-04T12:59:47Z</time>
      </trkpt>
      <trkpt lat="59.6616060" lon="17.3052860">
        <ele>28.5000000</ele>
        <time>2010-12-04T13:00:02Z</time>
      </trkpt>
      <trkpt lat="59.6615870" lon="17.3078540">
        <ele>28.0200000</ele>
        <time>2010-12-04T13:00:19Z</time>
      </trkpt>
      <trkpt lat="59.6615940" lon="17.3100240">
        <ele>27.0500000</ele>
        <time>2010-12-04T13:00:34Z</time>
      </trkpt>
      <trkpt lat="59.6615940" lon="17.3122900">
        <ele>26.5700000</ele>
        <time>2010-12-04T13:00:50Z</time>
      </trkpt>
      <trkpt lat="59.6615940" lon="17.3143410">
        <ele>26.5700000</ele>
        <time>2010-12-04T13:01:05Z</time>
      </trkpt>
      <trkpt lat="59.6615940" lon="17.3161620">
        <ele>27.5300000</ele>
        <time>2010-12-04T13:01:20Z</time>
      </trkpt>
      <trkpt lat="59.6615830" lon="17.3178420">
        <ele>29.4600000</ele>
        <time>2010-12-04T13:01:35Z</time>
      </trkpt>
      <trkpt lat="59.6615370" lon="17.3196220">
        <ele>28.5000000</ele>
        <time>2010-12-04T13:01:50Z</time>
      </trkpt>
      <trkpt lat="59.6614150" lon="17.3207380">
        <ele>29.4600000</ele>
        <time>2010-12-04T13:06:40Z</time>
      </trkpt>
      <trkpt lat="59.6611980" lon="17.3221510">
        <ele>28.9800000</ele>
        <time>2010-12-04T13:06:55Z</time>
      </trkpt>
      <trkpt lat="59.6609120" lon="17.3238640">
        <ele>29.4600000</ele>
        <time>2010-12-04T13:07:11Z</time>
      </trkpt>
      <trkpt lat="59.6606140" lon="17.3256020">
        <ele>29.4600000</ele>
        <time>2010-12-04T13:07:27Z</time>
      </trkpt>
      <trkpt lat="59.6602780" lon="17.3275490">
        <ele>29.4600000</ele>
        <time>2010-12-04T13:07:45Z</time>
      </trkpt>
      <trkpt lat="59.6600110" lon="17.3290840">
        <ele>26.5700000</ele>
        <time>2010-12-04T13:07:57Z</time>
      </trkpt>
      <trkpt lat="59.6599310" lon="17.3295270">
        <ele>24.6500000</ele>
        <time>2010-12-04T13:08:00Z</time>
      </trkpt>
      <trkpt lat="59.6595690" lon="17.3316590">
        <ele>23.6900000</ele>
        <time>2010-12-04T13:08:14Z</time>
      </trkpt>
      <trkpt lat="59.6592030" lon="17.3338220">
        <ele>23.6900000</ele>
        <time>2010-12-04T13:08:30Z</time>
      </trkpt>
      <trkpt lat="59.6588710" lon="17.3357390">
        <ele>22.7300000</ele>
        <time>2010-12-04T13:08:44Z</time>
      </trkpt>
      <trkpt lat="59.6583940" lon="17.3385140">
        <ele>20.3200000</ele>
        <time>2010-12-04T13:09:03Z</time>
      </trkpt>
      <trkpt lat="59.6579480" lon="17.3410320">
        <ele>18.8800000</ele>
        <time>2010-12-04T13:09:20Z</time>
      </trkpt>
      <trkpt lat="59.6574630" lon="17.3432200">
        <ele>17.9200000</ele>
        <time>2010-12-04T13:09:36Z</time>
      </trkpt>
      <trkpt lat="59.6569750" lon="17.3453220">
        <ele>18.4000000</ele>
        <time>2010-12-04T13:09:52Z</time>
      </trkpt>
      <trkpt lat="59.6565480" lon="17.3471490">
        <ele>18.4000000</ele>
        <time>2010-12-04T13:10:07Z</time>
      </trkpt>
      <trkpt lat="59.6561050" lon="17.3490790">
        <ele>17.9200000</ele>
        <time>2010-12-04T13:10:23Z</time>
      </trkpt>
      <trkpt lat="59.6555560" lon="17.3514690">
        <ele>15.5200000</ele>
        <time>2010-12-04T13:10:41Z</time>
      </trkpt>
      <trkpt lat="59.6550370" lon="17.3536990">
        <ele>13.6000000</ele>
        <time>2010-12-04T13:10:57Z</time>
      </trkpt>
      <trkpt lat="59.6545330" lon="17.3559060">
        <ele>13.1200000</ele>
        <time>2010-12-04T13:11:13Z</time>
      </trkpt>
      <trkpt lat="59.6540410" lon="17.3580320">
        <ele>12.1500000</ele>
        <time>2010-12-04T13:11:29Z</time>
      </trkpt>
      <trkpt lat="59.6536030" lon="17.3599300">
        <ele>12.6300000</ele>
        <time>2010-12-04T13:11:44Z</time>
      </trkpt>
      <trkpt lat="59.6533130" lon="17.3615510">
        <ele>12.6300000</ele>
        <time>2010-12-04T13:11:57Z</time>
      </trkpt>
      <trkpt lat="59.6531220" lon="17.3634530">
        <ele>10.7100000</ele>
        <time>2010-12-04T13:12:11Z</time>
      </trkpt>
      <trkpt lat="59.6530650" lon="17.3656100">
        <ele>9.7500000</ele>
        <time>2010-12-04T13:12:26Z</time>
      </trkpt>
      <trkpt lat="59.6531140" lon="17.3679160">
        <ele>7.8300000</ele>
        <time>2010-12-04T13:12:41Z</time>
      </trkpt>
      <trkpt lat="59.6531560" lon="17.3698370">
        <ele>8.3100000</ele>
        <time>2010-12-04T13:12:54Z</time>
      </trkpt>
      <trkpt lat="59.6531680" lon="17.3718490">
        <ele>8.3100000</ele>
        <time>2010-12-04T13:13:09Z</time>
      </trkpt>
      <trkpt lat="59.6531140" lon="17.3731580">
        <ele>4.9400000</ele>
        <time>2010-12-04T13:13:18Z</time>
      </trkpt>
      <trkpt lat="59.6529200" lon="17.3750930">
        <ele>2.0600000</ele>
        <time>2010-12-04T13:13:30Z</time>
      </trkpt>
      <trkpt lat="59.6526830" lon="17.3765910">
        <ele>2.5400000</ele>
        <time>2010-12-04T13:13:41Z</time>
      </trkpt>
      <trkpt lat="59.6523900" lon="17.3785380">
        <ele>2.5400000</ele>
        <time>2010-12-04T13:13:56Z</time>
      </trkpt>
      <trkpt lat="59.6522100" lon="17.3807050">
        <ele>0.6200000</ele>
        <time>2010-12-04T13:14:12Z</time>
      </trkpt>
      <trkpt lat="59.6522180" lon="17.3828740">
        <ele>0.1400000</ele>
        <time>2010-12-04T13:14:28Z</time>
      </trkpt>
      <trkpt lat="59.6523860" lon="17.3847120">
        <ele>-0.8200000</ele>
        <time>2010-12-04T13:14:43Z</time>
      </trkpt>
      <trkpt lat="59.6526220" lon="17.3866000">
        <ele>1.1000000</ele>
        <time>2010-12-04T13:14:59Z</time>
      </trkpt>
      <trkpt lat="59.6528660" lon="17.3885380">
        <ele>-0.8200000</ele>
        <time>2010-12-04T13:15:16Z</time>
      </trkpt>
      <trkpt lat="59.6531410" lon="17.3906760">
        <ele>-3.2300000</ele>
        <time>2010-12-04T13:15:32Z</time>
      </trkpt>
      <trkpt lat="59.6534730" lon="17.3932110">
        <ele>-3.7100000</ele>
        <time>2010-12-04T13:15:52Z</time>
      </trkpt>
      <trkpt lat="59.6536900" lon="17.3949380">
        <ele>-1.3000000</ele>
        <time>2010-12-04T13:16:08Z</time>
      </trkpt>
      <trkpt lat="59.6538890" lon="17.3963760">
        <ele>0.6200000</ele>
        <time>2010-12-04T13:16:23Z</time>
      </trkpt>
      <trkpt lat="59.6540830" lon="17.3978770">
        <ele>2.0600000</ele>
        <time>2010-12-04T13:16:39Z</time>
      </trkpt>
      <trkpt lat="59.6542890" lon="17.3996070">
        <ele>-0.3400000</ele>
        <time>2010-12-04T13:16:54Z</time>
      </trkpt>
      <trkpt lat="59.6544040" lon="17.4017240">
        <ele>-2.7500000</ele>
        <time>2010-12-04T13:17:10Z</time>
      </trkpt>
      <trkpt lat="59.6543310" lon="17.4033360">
        <ele>-2.7500000</ele>
        <time>2010-12-04T13:17:23Z</time>
      </trkpt>
      <trkpt lat="59.6541370" lon="17.4048880">
        <ele>-3.2300000</ele>
        <time>2010-12-04T13:17:36Z</time>
      </trkpt>
      <trkpt lat="59.6537860" lon="17.4064250">
        <ele>-2.2700000</ele>
        <time>2010-12-04T13:17:51Z</time>
      </trkpt>
      <trkpt lat="59.6532210" lon="17.4080940">
        <ele>-1.7900000</ele>
        <time>2010-12-04T13:18:10Z</time>
      </trkpt>
      <trkpt lat="59.6527250" lon="17.4093880">
        <ele>-0.3400000</ele>
        <time>2010-12-04T13:18:26Z</time>
      </trkpt>
      <trkpt lat="59.6522600" lon="17.4106120">
        <ele>2.0600000</ele>
        <time>2010-12-04T13:18:43Z</time>
      </trkpt>
      <trkpt lat="59.6518780" lon="17.4115850">
        <ele>4.4600000</ele>
        <time>2010-12-04T13:18:58Z</time>
      </trkpt>
      <trkpt lat="59.6513750" lon="17.4128930">
        <ele>7.3500000</ele>
        <time>2010-12-04T13:19:18Z</time>
      </trkpt>
      <trkpt lat="59.6510280" lon="17.4140530">
        <ele>8.7900000</ele>
        <time>2010-12-04T13:19:34Z</time>
      </trkpt>
      <trkpt lat="59.6507720" lon="17.4154110">
        <ele>11.1900000</ele>
        <time>2010-12-04T13:19:51Z</time>
      </trkpt>
      <trkpt lat="59.6505780" lon="17.4165970">
        <ele>14.0800000</ele>
        <time>2010-12-04T13:20:07Z</time>
      </trkpt>
      <trkpt lat="59.6503330" lon="17.4180240">
        <ele>16.4800000</ele>
        <time>2010-12-04T13:20:25Z</time>
      </trkpt>
      <trkpt lat="59.6501200" lon="17.4193670">
        <ele>17.9200000</ele>
        <time>2010-12-04T13:20:41Z</time>
      </trkpt>
      <trkpt lat="59.6498950" lon="17.4208300">
        <ele>19.3600000</ele>
        <time>2010-12-04T13:20:58Z</time>
      </trkpt>
      <trkpt lat="59.6495510" lon="17.4224620">
        <ele>19.3600000</ele>
        <time>2010-12-04T13:21:16Z</time>
      </trkpt>
      <trkpt lat="59.6490820" lon="17.4237120">
        <ele>20.3200000</ele>
        <time>2010-12-04T13:21:32Z</time>
      </trkpt>
      <trkpt lat="59.6485140" lon="17.4249670">
        <ele>20.3200000</ele>
        <time>2010-12-04T13:21:49Z</time>
      </trkpt>
      <trkpt lat="59.6479720" lon="17.4261740">
        <ele>21.2900000</ele>
        <time>2010-12-04T13:22:06Z</time>
      </trkpt>
      <trkpt lat="59.6474110" lon="17.4274430">
        <ele>24.6500000</ele>
        <time>2010-12-04T13:22:25Z</time>
      </trkpt>
      <trkpt lat="59.6469960" lon="17.4283580">
        <ele>27.5300000</ele>
        <time>2010-12-04T13:22:40Z</time>
      </trkpt>
      <trkpt lat="59.6465420" lon="17.4293480">
        <ele>30.9000000</ele>
        <time>2010-12-04T13:22:57Z</time>
      </trkpt>
      <trkpt lat="59.6461790" lon="17.4301510">
        <ele>33.7800000</ele>
        <time>2010-12-04T13:23:12Z</time>
      </trkpt>
      <trkpt lat="59.6458240" lon="17.4309600">
        <ele>36.1900000</ele>
        <time>2010-12-04T13:23:27Z</time>
      </trkpt>
      <trkpt lat="59.6454930" lon="17.4317130">
        <ele>38.1100000</ele>
        <time>2010-12-04T13:23:41Z</time>
      </trkpt>
      <trkpt lat="59.6451030" lon="17.4325900">
        <ele>40.5100000</ele>
        <time>2010-12-04T13:23:57Z</time>
      </trkpt>
      <trkpt lat="59.6448210" lon="17.4332310">
        <ele>41.4700000</ele>
        <time>2010-12-04T13:24:08Z</time>
      </trkpt>
      <trkpt lat="59.6444090" lon="17.4341660">
        <ele>41.4700000</ele>
        <time>2010-12-04T13:24:21Z</time>
      </trkpt>
      <trkpt lat="59.6438640" lon="17.4354420">
        <ele>40.0300000</ele>
        <time>2010-12-04T13:24:37Z</time>
      </trkpt>
      <trkpt lat="59.6433260" lon="17.4367900">
        <ele>40.5100000</ele>
        <time>2010-12-04T13:24:53Z</time>
      </trkpt>
      <trkpt lat="59.6429900" lon="17.4380000">
        <ele>40.9900000</ele>
        <time>2010-12-04T13:25:07Z</time>
      </trkpt>
      <trkpt lat="59.6426850" lon="17.4394630">
        <ele>38.5900000</ele>
        <time>2010-12-04T13:25:20Z</time>
      </trkpt>
      <trkpt lat="59.6423610" lon="17.4409900">
        <ele>37.1500000</ele>
        <time>2010-12-04T13:25:33Z</time>
      </trkpt>
      <trkpt lat="59.6419640" lon="17.4428770">
        <ele>38.1100000</ele>
        <time>2010-12-04T13:25:49Z</time>
      </trkpt>
      <trkpt lat="59.6417010" lon="17.4443590">
        <ele>39.0700000</ele>
        <time>2010-12-04T13:26:02Z</time>
      </trkpt>
      <trkpt lat="59.6416280" lon="17.4457890">
        <ele>39.0700000</ele>
        <time>2010-12-04T13:26:14Z</time>
      </trkpt>
      <trkpt lat="59.6415750" lon="17.4476360">
        <ele>35.7100000</ele>
        <time>2010-12-04T13:26:27Z</time>
      </trkpt>
      <trkpt lat="59.6412960" lon="17.4494020">
        <ele>34.2600000</ele>
        <time>2010-12-04T13:26:39Z</time>
      </trkpt>
      <trkpt lat="59.6408310" lon="17.4511170">
        <ele>33.3000000</ele>
        <time>2010-12-04T13:26:52Z</time>
      </trkpt>
      <trkpt lat="59.6402170" lon="17.4524250">
        <ele>33.3000000</ele>
        <time>2010-12-04T13:27:04Z</time>
      </trkpt>
      <trkpt lat="59.6394540" lon="17.4539380">
        <ele>30.4200000</ele>
        <time>2010-12-04T13:27:18Z</time>
      </trkpt>
      <trkpt lat="59.6387060" lon="17.4558240">
        <ele>29.9400000</ele>
        <time>2010-12-04T13:27:34Z</time>
      </trkpt>
      <trkpt lat="59.6384580" lon="17.4574280">
        <ele>29.4600000</ele>
        <time>2010-12-04T13:27:45Z</time>
      </trkpt>
      <trkpt lat="59.6381380" lon="17.4603120">
        <ele>28.5000000</ele>
        <time>2010-12-04T13:28:04Z</time>
      </trkpt>
      <trkpt lat="59.6378820" lon="17.4625630">
        <ele>28.9800000</ele>
        <time>2010-12-04T13:28:20Z</time>
      </trkpt>
      <trkpt lat="59.6375890" lon="17.4649430">
        <ele>28.9800000</ele>
        <time>2010-12-04T13:28:37Z</time>
      </trkpt>
      <trkpt lat="59.6371650" lon="17.4668120">
        <ele>28.5000000</ele>
        <time>2010-12-04T13:28:52Z</time>
      </trkpt>
      <trkpt lat="59.6366420" lon="17.4682750">
        <ele>28.0200000</ele>
        <time>2010-12-04T13:29:06Z</time>
      </trkpt>
      <trkpt lat="59.6361430" lon="17.4694370">
        <ele>28.0200000</ele>
        <time>2010-12-04T13:29:19Z</time>
      </trkpt>
      <trkpt lat="59.6355210" lon="17.4708600">
        <ele>27.5300000</ele>
        <time>2010-12-04T13:29:35Z</time>
      </trkpt>
      <trkpt lat="59.6348880" lon="17.4722190">
        <ele>26.0900000</ele>
        <time>2010-12-04T13:29:50Z</time>
      </trkpt>
      <trkpt lat="59.6341630" lon="17.4734460">
        <ele>26.5700000</ele>
        <time>2010-12-04T13:30:07Z</time>
      </trkpt>
      <trkpt lat="59.6337280" lon="17.4740580">
        <ele>28.5000000</ele>
        <time>2010-12-04T13:30:19Z</time>
      </trkpt>
      <trkpt lat="59.6332780" lon="17.4748690">
        <ele>30.4200000</ele>
        <time>2010-12-04T13:30:33Z</time>
      </trkpt>
      <trkpt lat="59.6328390" lon="17.4760040">
        <ele>30.4200000</ele>
        <time>2010-12-04T13:30:48Z</time>
      </trkpt>
      <trkpt lat="59.6324620" lon="17.4774490">
        <ele>30.9000000</ele>
        <time>2010-12-04T13:31:04Z</time>
      </trkpt>
      <trkpt lat="59.6320610" lon="17.4791700">
        <ele>29.4600000</ele>
        <time>2010-12-04T13:31:20Z</time>
      </trkpt>
      <trkpt lat="59.6317410" lon="17.4806460">
        <ele>26.5700000</ele>
        <time>2010-12-04T13:31:32Z</time>
      </trkpt>
      <trkpt lat="59.6312600" lon="17.4826320">
        <ele>25.6100000</ele>
        <time>2010-12-04T13:31:49Z</time>
      </trkpt>
      <trkpt lat="59.6306840" lon="17.4841460">
        <ele>24.6500000</ele>
        <time>2010-12-04T13:32:05Z</time>
      </trkpt>
      <trkpt lat="59.6302070" lon="17.4850250">
        <ele>21.2900000</ele>
        <time>2010-12-04T13:32:15Z</time>
      </trkpt>
      <trkpt lat="59.6297300" lon="17.4858070">
        <ele>17.9200000</ele>
        <time>2010-12-04T13:32:23Z</time>
      </trkpt>
      <trkpt lat="59.6294710" lon="17.4862290">
        <ele>15.5200000</ele>
        <time>2010-12-04T13:32:27Z</time>
      </trkpt>
      <trkpt lat="59.6291310" lon="17.4867740">
        <ele>13.1200000</ele>
        <time>2010-12-04T13:32:32Z</time>
      </trkpt>
      <trkpt lat="59.6289250" lon="17.4871080">
        <ele>12.1500000</ele>
        <time>2010-12-04T13:32:35Z</time>
      </trkpt>
      <trkpt lat="59.6285740" lon="17.4876730">
        <ele>8.7900000</ele>
        <time>2010-12-04T13:32:40Z</time>
      </trkpt>
      <trkpt lat="59.6283570" lon="17.4880180">
        <ele>6.8700000</ele>
        <time>2010-12-04T13:32:43Z</time>
      </trkpt>
      <trkpt lat="59.6279910" lon="17.4885690">
        <ele>4.9400000</ele>
        <time>2010-12-04T13:32:48Z</time>
      </trkpt>
      <trkpt lat="59.6276780" lon="17.4889680">
        <ele>2.0600000</ele>
        <time>2010-12-04T13:32:52Z</time>
      </trkpt>
      <trkpt lat="59.6268650" lon="17.4897440">
        <ele>0.6200000</ele>
        <time>2010-12-04T13:33:03Z</time>
      </trkpt>
      <trkpt lat="59.6263660" lon="17.4904000">
        <ele>2.5400000</ele>
        <time>2010-12-04T13:33:13Z</time>
      </trkpt>
      <trkpt lat="59.6259610" lon="17.4912380">
        <ele>3.9800000</ele>
        <time>2010-12-04T13:33:27Z</time>
      </trkpt>
      <trkpt lat="59.6256330" lon="17.4920710">
        <ele>5.4200000</ele>
        <time>2010-12-04T13:33:41Z</time>
      </trkpt>
      <trkpt lat="59.6252710" lon="17.4930170">
        <ele>7.3500000</ele>
        <time>2010-12-04T13:33:57Z</time>
      </trkpt>
      <trkpt lat="59.6249850" lon="17.4937860">
        <ele>10.7100000</ele>
        <time>2010-12-04T13:34:12Z</time>
      </trkpt>
      <trkpt lat="59.6246030" lon="17.4946690">
        <ele>14.0800000</ele>
        <time>2010-12-04T13:34:30Z</time>
      </trkpt>
      <trkpt lat="59.6243020" lon="17.4951310">
        <ele>17.9200000</ele>
        <time>2010-12-04T13:34:43Z</time>
      </trkpt>
      <trkpt lat="59.6238710" lon="17.4955310">
        <ele>20.3200000</ele>
        <time>2010-12-04T13:34:59Z</time>
      </trkpt>
      <trkpt lat="59.6234510" lon="17.4958520">
        <ele>23.2100000</ele>
        <time>2010-12-04T13:35:14Z</time>
      </trkpt>
      <trkpt lat="59.6229860" lon="17.4962160">
        <ele>25.6100000</ele>
        <time>2010-12-04T13:35:30Z</time>
      </trkpt>
      <trkpt lat="59.6225010" lon="17.4965990">
        <ele>27.0500000</ele>
        <time>2010-12-04T13:35:46Z</time>
      </trkpt>
      <trkpt lat="59.6220170" lon="17.4969540">
        <ele>28.5000000</ele>
        <time>2010-12-04T13:36:00Z</time>
      </trkpt>
      <trkpt lat="59.6215550" lon="17.4972570">
        <ele>28.5000000</ele>
        <time>2010-12-04T13:36:12Z</time>
      </trkpt>
      <trkpt lat="59.6208040" lon="17.4975070">
        <ele>28.5000000</ele>
        <time>2010-12-04T13:36:31Z</time>
      </trkpt>
      <trkpt lat="59.6201520" lon="17.4975740">
        <ele>28.5000000</ele>
        <time>2010-12-04T13:36:48Z</time>
      </trkpt>
      <trkpt lat="59.6196060" lon="17.4975870">
        <ele>28.0200000</ele>
        <time>2010-12-04T13:37:02Z</time>
      </trkpt>
      <trkpt lat="59.6187400" lon="17.4977460">
        <ele>26.0900000</ele>
        <time>2010-12-04T13:37:20Z</time>
      </trkpt>
      <trkpt lat="59.6179160" lon="17.4981420">
        <ele>22.7300000</ele>
        <time>2010-12-04T13:37:34Z</time>
      </trkpt>
      <trkpt lat="59.6171040" lon="17.4986740">
        <ele>19.3600000</ele>
        <time>2010-12-04T13:37:46Z</time>
      </trkpt>
      <trkpt lat="59.6159900" lon="17.4993190">
        <ele>16.4800000</ele>
        <time>2010-12-04T13:38:02Z</time>
      </trkpt>
      <trkpt lat="59.6148950" lon="17.4998230">
        <ele>14.5600000</ele>
        <time>2010-12-04T13:38:18Z</time>
      </trkpt>
      <trkpt lat="59.6138690" lon="17.5001540">
        <ele>13.6000000</ele>
        <time>2010-12-04T13:38:34Z</time>
      </trkpt>
      <trkpt lat="59.6130490" lon="17.5002780">
        <ele>14.0800000</ele>
        <time>2010-12-04T13:38:48Z</time>
      </trkpt>
      <trkpt lat="59.6122700" lon="17.5003870">
        <ele>15.0400000</ele>
        <time>2010-12-04T13:39:03Z</time>
      </trkpt>
      <trkpt lat="59.6115610" lon="17.5004920">
        <ele>16.0000000</ele>
        <time>2010-12-04T13:39:18Z</time>
      </trkpt>
      <trkpt lat="59.6108590" lon="17.5005820">
        <ele>18.4000000</ele>
        <time>2010-12-04T13:39:35Z</time>
      </trkpt>
      <trkpt lat="59.6101760" lon="17.5006710">
        <ele>18.4000000</ele>
        <time>2010-12-04T13:39:51Z</time>
      </trkpt>
      <trkpt lat="59.6094020" lon="17.5008750">
        <ele>16.4800000</ele>
        <time>2010-12-04T13:40:06Z</time>
      </trkpt>
      <trkpt lat="59.6084630" lon="17.5014820">
        <ele>14.5600000</ele>
        <time>2010-12-04T13:40:23Z</time>
      </trkpt>
      <trkpt lat="59.6077960" lon="17.5021650">
        <ele>15.0400000</ele>
        <time>2010-12-04T13:40:37Z</time>
      </trkpt>
      <trkpt lat="59.6072040" lon="17.5030980">
        <ele>16.4800000</ele>
        <time>2010-12-04T13:40:52Z</time>
      </trkpt>
      <trkpt lat="59.6066930" lon="17.5041390">
        <ele>17.4400000</ele>
        <time>2010-12-04T13:41:07Z</time>
      </trkpt>
      <trkpt lat="59.6060370" lon="17.5051400">
        <ele>17.9200000</ele>
        <time>2010-12-04T13:41:24Z</time>
      </trkpt>
      <trkpt lat="59.6053310" lon="17.5059830">
        <ele>18.4000000</ele>
        <time>2010-12-04T13:41:41Z</time>
      </trkpt>
      <trkpt lat="59.6046870" lon="17.5065000">
        <ele>20.8100000</ele>
        <time>2010-12-04T13:41:57Z</time>
      </trkpt>
      <trkpt lat="59.6040270" lon="17.5068190">
        <ele>23.2100000</ele>
        <time>2010-12-04T13:42:14Z</time>
      </trkpt>
      <trkpt lat="59.6033630" lon="17.5069470">
        <ele>25.1300000</ele>
        <time>2010-12-04T13:42:31Z</time>
      </trkpt>
      <trkpt lat="59.6027790" lon="17.5069450">
        <ele>27.0500000</ele>
        <time>2010-12-04T13:42:46Z</time>
      </trkpt>
      <trkpt lat="59.6021690" lon="17.5070290">
        <ele>27.0500000</ele>
        <time>2010-12-04T13:43:02Z</time>
      </trkpt>
      <trkpt lat="59.6015430" lon="17.5073530">
        <ele>26.5700000</ele>
        <time>2010-12-04T13:43:17Z</time>
      </trkpt>
      <trkpt lat="59.6006360" lon="17.5079670">
        <ele>25.6100000</ele>
        <time>2010-12-04T13:43:36Z</time>
      </trkpt>
      <trkpt lat="59.5998920" lon="17.5084920">
        <ele>24.1700000</ele>
        <time>2010-12-04T13:43:51Z</time>
      </trkpt>
      <trkpt lat="59.5989000" lon="17.5089890">
        <ele>21.7700000</ele>
        <time>2010-12-04T13:44:08Z</time>
      </trkpt>
      <trkpt lat="59.5979880" lon="17.5093570">
        <ele>19.8400000</ele>
        <time>2010-12-04T13:44:23Z</time>
      </trkpt>
      <trkpt lat="59.5969160" lon="17.5098270">
        <ele>18.8800000</ele>
        <time>2010-12-04T13:44:41Z</time>
      </trkpt>
      <trkpt lat="59.5957600" lon="17.5103420">
        <ele>18.8800000</ele>
        <time>2010-12-04T13:45:01Z</time>
      </trkpt>
      <trkpt lat="59.5950090" lon="17.5106530">
        <ele>18.4000000</ele>
        <time>2010-12-04T13:45:15Z</time>
      </trkpt>
      <trkpt lat="59.5941960" lon="17.5108130">
        <ele>18.8800000</ele>
        <time>2010-12-04T13:45:30Z</time>
      </trkpt>
      <trkpt lat="59.5933230" lon="17.5107520">
        <ele>17.4400000</ele>
        <time>2010-12-04T13:45:45Z</time>
      </trkpt>
      <trkpt lat="59.5924610" lon="17.5104160">
        <ele>15.0400000</ele>
        <time>2010-12-04T13:45:58Z</time>
      </trkpt>
      <trkpt lat="59.5912780" lon="17.5101660">
        <ele>11.6700000</ele>
        <time>2010-12-04T13:46:14Z</time>
      </trkpt>
      <trkpt lat="59.5902180" lon="17.5097710">
        <ele>11.6700000</ele>
        <time>2010-12-04T13:46:29Z</time>
      </trkpt>
      <trkpt lat="59.5893670" lon="17.5093750">
        <ele>11.1900000</ele>
        <time>2010-12-04T13:46:43Z</time>
      </trkpt>
      <trkpt lat="59.5885310" lon="17.5089930">
        <ele>11.6700000</ele>
        <time>2010-12-04T13:46:58Z</time>
      </trkpt>
      <trkpt lat="59.5879100" lon="17.5086960">
        <ele>13.6000000</ele>
        <time>2010-12-04T13:47:11Z</time>
      </trkpt>
      <trkpt lat="59.5873450" lon="17.5084420">
        <ele>16.0000000</ele>
        <time>2010-12-04T13:47:24Z</time>
      </trkpt>
      <trkpt lat="59.5867040" lon="17.5081480">
        <ele>18.4000000</ele>
        <time>2010-12-04T13:47:41Z</time>
      </trkpt>
      <trkpt lat="59.5860630" lon="17.5078620">
        <ele>20.3200000</ele>
        <time>2010-12-04T13:47:58Z</time>
      </trkpt>
      <trkpt lat="59.5853880" lon="17.5075300">
        <ele>20.3200000</ele>
        <time>2010-12-04T13:48:14Z</time>
      </trkpt>
      <trkpt lat="59.5846750" lon="17.5071280">
        <ele>17.9200000</ele>
        <time>2010-12-04T13:48:29Z</time>
      </trkpt>
      <trkpt lat="59.5846290" lon="17.5070860">
        <ele>18.4000000</ele>
        <time>2010-12-04T13:48:30Z</time>
      </trkpt>
      <trkpt lat="59.5845870" lon="17.5070300">
        <ele>17.9200000</ele>
        <time>2010-12-04T13:48:31Z</time>
      </trkpt>
      <trkpt lat="59.5845530" lon="17.5069580">
        <ele>17.9200000</ele>
        <time>2010-12-04T13:48:32Z</time>
      </trkpt>
      <trkpt lat="59.5845260" lon="17.5068720">
        <ele>17.4400000</ele>
        <time>2010-12-04T13:48:33Z</time>
      </trkpt>
      <trkpt lat="59.5845150" lon="17.5067690">
        <ele>17.4400000</ele>
        <time>2010-12-04T13:48:34Z</time>
      </trkpt>
      <trkpt lat="59.5845150" lon="17.5066600">
        <ele>16.9600000</ele>
        <time>2010-12-04T13:48:35Z</time>
      </trkpt>
      <trkpt lat="59.5845220" lon="17.5065540">
        <ele>16.9600000</ele>
        <time>2010-12-04T13:48:36Z</time>
      </trkpt>
      <trkpt lat="59.5845220" lon="17.5064450">
        <ele>16.9600000</ele>
        <time>2010-12-04T13:48:37Z</time>
      </trkpt>
      <trkpt lat="59.5845150" lon="17.5063360">
        <ele>16.9600000</ele>
        <time>2010-12-04T13:48:38Z</time>
      </trkpt>
      <trkpt lat="59.5844990" lon="17.5062350">
        <ele>16.9600000</ele>
        <time>2010-12-04T13:48:39Z</time>
      </trkpt>
      <trkpt lat="59.5844730" lon="17.5061450">
        <ele>17.4400000</ele>
        <time>2010-12-04T13:48:40Z</time>
      </trkpt>
      <trkpt lat="59.5844380" lon="17.5060650">
        <ele>16.4800000</ele>
        <time>2010-12-04T13:48:41Z</time>
      </trkpt>
      <trkpt lat="59.5844040" lon="17.5059870">
        <ele>16.4800000</ele>
        <time>2010-12-04T13:48:42Z</time>
      </trkpt>
      <trkpt lat="59.5843120" lon="17.5057560">
        <ele>16.9600000</ele>
        <time>2010-12-04T13:48:45Z</time>
      </trkpt>
      <trkpt lat="59.5842900" lon="17.5056760">
        <ele>16.4800000</ele>
        <time>2010-12-04T13:48:46Z</time>
      </trkpt>
      <trkpt lat="59.5842700" lon="17.5055940">
        <ele>16.4800000</ele>
        <time>2010-12-04T13:48:47Z</time>
      </trkpt>
      <trkpt lat="59.5842590" lon="17.5055140">
        <ele>16.4800000</ele>
        <time>2010-12-04T13:48:48Z</time>
      </trkpt>
      <trkpt lat="59.5842590" lon="17.5054340">
        <ele>16.4800000</ele>
        <time>2010-12-04T13:48:49Z</time>
      </trkpt>
      <trkpt lat="59.5841940" lon="17.5053670">
        <ele>22.7300000</ele>
        <time>2010-12-04T14:17:37Z</time>
      </trkpt>
      <trkpt lat="59.5841710" lon="17.5060790">
        <ele>23.6900000</ele>
        <time>2010-12-04T14:17:48Z</time>
      </trkpt>
      <trkpt lat="59.5839000" lon="17.5067120">
        <ele>24.6500000</ele>
        <time>2010-12-04T14:18:00Z</time>
      </trkpt>
      <trkpt lat="59.5834270" lon="17.5072800">
        <ele>25.6100000</ele>
        <time>2010-12-04T14:18:14Z</time>
      </trkpt>
      <trkpt lat="59.5827830" lon="17.5079080">
        <ele>26.0900000</ele>
        <time>2010-12-04T14:18:29Z</time>
      </trkpt>
      <trkpt lat="59.5820540" lon="17.5084170">
        <ele>25.6100000</ele>
        <time>2010-12-04T14:18:45Z</time>
      </trkpt>
      <trkpt lat="59.5813870" lon="17.5088390">
        <ele>26.0900000</ele>
        <time>2010-12-04T14:19:00Z</time>
      </trkpt>
      <trkpt lat="59.5806160" lon="17.5093330">
        <ele>27.5300000</ele>
        <time>2010-12-04T14:19:17Z</time>
      </trkpt>
      <trkpt lat="59.5798990" lon="17.5097830">
        <ele>28.9800000</ele>
        <time>2010-12-04T14:19:33Z</time>
      </trkpt>
      <trkpt lat="59.5793530" lon="17.5104830">
        <ele>26.0900000</ele>
        <time>2010-12-04T14:19:45Z</time>
      </trkpt>
      <trkpt lat="59.5792270" lon="17.5107460">
        <ele>24.6500000</ele>
        <time>2010-12-04T14:19:48Z</time>
      </trkpt>
      <trkpt lat="59.5790440" lon="17.5111310">
        <ele>23.2100000</ele>
        <time>2010-12-04T14:19:52Z</time>
      </trkpt>
      <trkpt lat="59.5788270" lon="17.5114920">
        <ele>19.8400000</ele>
        <time>2010-12-04T14:19:56Z</time>
      </trkpt>
      <trkpt lat="59.5786210" lon="17.5117020">
        <ele>18.4000000</ele>
        <time>2010-12-04T14:19:59Z</time>
      </trkpt>
      <trkpt lat="59.5784720" lon="17.5118050">
        <ele>17.9200000</ele>
        <time>2010-12-04T14:20:01Z</time>
      </trkpt>
      <trkpt lat="59.5784030" lon="17.5118310">
        <ele>17.9200000</ele>
        <time>2010-12-04T14:20:02Z</time>
      </trkpt>
      <trkpt lat="59.5780410" lon="17.5118940">
        <ele>19.8400000</ele>
        <time>2010-12-04T14:20:08Z</time>
      </trkpt>
      <trkpt lat="59.5779880" lon="17.5119150">
        <ele>20.3200000</ele>
        <time>2010-12-04T14:20:09Z</time>
      </trkpt>
      <trkpt lat="59.5777780" lon="17.5120070">
        <ele>20.3200000</ele>
        <time>2010-12-04T14:20:13Z</time>
      </trkpt>
      <trkpt lat="59.5771450" lon="17.5126510">
        <ele>20.3200000</ele>
        <time>2010-12-04T14:20:25Z</time>
      </trkpt>
      <trkpt lat="59.5765800" lon="17.5136550">
        <ele>19.8400000</ele>
        <time>2010-12-04T14:20:38Z</time>
      </trkpt>
      <trkpt lat="59.5764540" lon="17.5139050">
        <ele>19.3600000</ele>
        <time>2010-12-04T14:20:41Z</time>
      </trkpt>
      <trkpt lat="59.5764120" lon="17.5139920">
        <ele>19.3600000</ele>
        <time>2010-12-04T14:20:42Z</time>
      </trkpt>
      <trkpt lat="59.5757600" lon="17.5152760">
        <ele>17.4400000</ele>
        <time>2010-12-04T14:20:57Z</time>
      </trkpt>
      <trkpt lat="59.5750270" lon="17.5166280">
        <ele>17.4400000</ele>
        <time>2010-12-04T14:21:13Z</time>
      </trkpt>
      <trkpt lat="59.5747070" lon="17.5171930">
        <ele>14.0800000</ele>
        <time>2010-12-04T14:21:20Z</time>
      </trkpt>
      <trkpt lat="59.5746610" lon="17.5172730">
        <ele>16.9600000</ele>
        <time>2010-12-04T14:21:21Z</time>
      </trkpt>
      <trkpt lat="59.5739940" lon="17.5185090">
        <ele>13.6000000</ele>
        <time>2010-12-04T14:21:35Z</time>
      </trkpt>
      <trkpt lat="59.5732150" lon="17.5201260">
        <ele>12.1500000</ele>
        <time>2010-12-04T14:21:52Z</time>
      </trkpt>
      <trkpt lat="59.5725360" lon="17.5216730">
        <ele>11.6700000</ele>
        <time>2010-12-04T14:22:09Z</time>
      </trkpt>
      <trkpt lat="59.5719720" lon="17.5231170">
        <ele>12.1500000</ele>
        <time>2010-12-04T14:22:24Z</time>
      </trkpt>
      <trkpt lat="59.5715640" lon="17.5245910">
        <ele>12.1500000</ele>
        <time>2010-12-04T14:22:38Z</time>
      </trkpt>
      <trkpt lat="59.5712660" lon="17.5254940">
        <ele>14.0800000</ele>
        <time>2010-12-04T14:22:48Z</time>
      </trkpt>
      <trkpt lat="59.5710750" lon="17.5258350">
        <ele>16.0000000</ele>
        <time>2010-12-04T14:22:54Z</time>
      </trkpt>
      <trkpt lat="59.5706060" lon="17.5266630">
        <ele>15.5200000</ele>
        <time>2010-12-04T14:23:06Z</time>
      </trkpt>
      <trkpt lat="59.5699080" lon="17.5279560">
        <ele>14.5600000</ele>
        <time>2010-12-04T14:23:22Z</time>
      </trkpt>
      <trkpt lat="59.5693020" lon="17.5291370">
        <ele>13.1200000</ele>
        <time>2010-12-04T14:23:37Z</time>
      </trkpt>
      <trkpt lat="59.5692630" lon="17.5291980">
        <ele>12.6300000</ele>
        <time>2010-12-04T14:23:38Z</time>
      </trkpt>
      <trkpt lat="59.5692250" lon="17.5292470">
        <ele>12.6300000</ele>
        <time>2010-12-04T14:23:39Z</time>
      </trkpt>
      <trkpt lat="59.5691800" lon="17.5292760">
        <ele>12.6300000</ele>
        <time>2010-12-04T14:23:40Z</time>
      </trkpt>
      <trkpt lat="59.5691340" lon="17.5292840">
        <ele>12.1500000</ele>
        <time>2010-12-04T14:23:41Z</time>
      </trkpt>
      <trkpt lat="59.5690840" lon="17.5292850">
        <ele>11.6700000</ele>
        <time>2010-12-04T14:23:42Z</time>
      </trkpt>
      <trkpt lat="59.5690310" lon="17.5292990">
        <ele>12.1500000</ele>
        <time>2010-12-04T14:23:43Z</time>
      </trkpt>
      <trkpt lat="59.5689810" lon="17.5293330">
        <ele>11.6700000</ele>
        <time>2010-12-04T14:23:44Z</time>
      </trkpt>
      <trkpt lat="59.5689350" lon="17.5293900">
        <ele>11.1900000</ele>
        <time>2010-12-04T14:23:45Z</time>
      </trkpt>
      <trkpt lat="59.5688930" lon="17.5294720">
        <ele>11.1900000</ele>
        <time>2010-12-04T14:23:46Z</time>
      </trkpt>
      <trkpt lat="59.5688550" lon="17.5295720">
        <ele>10.7100000</ele>
        <time>2010-12-04T14:23:47Z</time>
      </trkpt>
      <trkpt lat="59.5688210" lon="17.5296760">
        <ele>10.7100000</ele>
        <time>2010-12-04T14:23:48Z</time>
      </trkpt>
      <trkpt lat="59.5687870" lon="17.5297830">
        <ele>10.7100000</ele>
        <time>2010-12-04T14:23:49Z</time>
      </trkpt>
      <trkpt lat="59.5682640" lon="17.5308590">
        <ele>8.7900000</ele>
        <time>2010-12-04T14:24:00Z</time>
      </trkpt>
      <trkpt lat="59.5674510" lon="17.5321880">
        <ele>7.8300000</ele>
        <time>2010-12-04T14:24:16Z</time>
      </trkpt>
      <trkpt lat="59.5672680" lon="17.5324670">
        <ele>7.8300000</ele>
        <time>2010-12-04T14:24:20Z</time>
      </trkpt>
      <trkpt lat="59.5672230" lon="17.5325130">
        <ele>7.8300000</ele>
        <time>2010-12-04T14:24:21Z</time>
      </trkpt>
      <trkpt lat="59.5671770" lon="17.5325470">
        <ele>7.8300000</ele>
        <time>2010-12-04T14:24:22Z</time>
      </trkpt>
      <trkpt lat="59.5671270" lon="17.5325660">
        <ele>7.3500000</ele>
        <time>2010-12-04T14:24:23Z</time>
      </trkpt>
      <trkpt lat="59.5670810" lon="17.5325890">
        <ele>7.3500000</ele>
        <time>2010-12-04T14:24:24Z</time>
      </trkpt>
      <trkpt lat="59.5670360" lon="17.5326390">
        <ele>7.3500000</ele>
        <time>2010-12-04T14:24:25Z</time>
      </trkpt>
      <trkpt lat="59.5669980" lon="17.5327070">
        <ele>7.3500000</ele>
        <time>2010-12-04T14:24:26Z</time>
      </trkpt>
      <trkpt lat="59.5669670" lon="17.5327950">
        <ele>6.8700000</ele>
        <time>2010-12-04T14:24:27Z</time>
      </trkpt>
      <trkpt lat="59.5669360" lon="17.5328900">
        <ele>7.3500000</ele>
        <time>2010-12-04T14:24:28Z</time>
      </trkpt>
      <trkpt lat="59.5669060" lon="17.5329880">
        <ele>7.3500000</ele>
        <time>2010-12-04T14:24:29Z</time>
      </trkpt>
      <trkpt lat="59.5668680" lon="17.5330750">
        <ele>7.3500000</ele>
        <time>2010-12-04T14:24:30Z</time>
      </trkpt>
      <trkpt lat="59.5668220" lon="17.5331590">
        <ele>6.8700000</ele>
        <time>2010-12-04T14:24:31Z</time>
      </trkpt>
      <trkpt lat="59.5661850" lon="17.5341190">
        <ele>7.8300000</ele>
        <time>2010-12-04T14:24:44Z</time>
      </trkpt>
      <trkpt lat="59.5653420" lon="17.5353110">
        <ele>7.3500000</ele>
        <time>2010-12-04T14:25:01Z</time>
      </trkpt>
      <trkpt lat="59.5644300" lon="17.5365310">
        <ele>5.9100000</ele>
        <time>2010-12-04T14:25:19Z</time>
      </trkpt>
      <trkpt lat="59.5636370" lon="17.5375180">
        <ele>4.4600000</ele>
        <time>2010-12-04T14:25:34Z</time>
      </trkpt>
      <trkpt lat="59.5625380" lon="17.5387150">
        <ele>3.5000000</ele>
        <time>2010-12-04T14:25:54Z</time>
      </trkpt>
      <trkpt lat="59.5617830" lon="17.5396350">
        <ele>2.5400000</ele>
        <time>2010-12-04T14:26:08Z</time>
      </trkpt>
      <trkpt lat="59.5614130" lon="17.5405980">
        <ele>2.5400000</ele>
        <time>2010-12-04T14:26:18Z</time>
      </trkpt>
      <trkpt lat="59.5613480" lon="17.5407770">
        <ele>3.0200000</ele>
        <time>2010-12-04T14:26:20Z</time>
      </trkpt>
      <trkpt lat="59.5613140" lon="17.5408550">
        <ele>2.5400000</ele>
        <time>2010-12-04T14:26:21Z</time>
      </trkpt>
      <trkpt lat="59.5612680" lon="17.5409240">
        <ele>3.0200000</ele>
        <time>2010-12-04T14:26:22Z</time>
      </trkpt>
      <trkpt lat="59.5612220" lon="17.5409740">
        <ele>2.5400000</ele>
        <time>2010-12-04T14:26:23Z</time>
      </trkpt>
      <trkpt lat="59.5611760" lon="17.5410190">
        <ele>2.5400000</ele>
        <time>2010-12-04T14:26:24Z</time>
      </trkpt>
      <trkpt lat="59.5611340" lon="17.5410770">
        <ele>3.0200000</ele>
        <time>2010-12-04T14:26:25Z</time>
      </trkpt>
      <trkpt lat="59.5611040" lon="17.5411470">
        <ele>3.0200000</ele>
        <time>2010-12-04T14:26:26Z</time>
      </trkpt>
      <trkpt lat="59.5610810" lon="17.5412270">
        <ele>3.0200000</ele>
        <time>2010-12-04T14:26:27Z</time>
      </trkpt>
      <trkpt lat="59.5610730" lon="17.5413150">
        <ele>3.0200000</ele>
        <time>2010-12-04T14:26:28Z</time>
      </trkpt>
      <trkpt lat="59.5610690" lon="17.5414090">
        <ele>3.0200000</ele>
        <time>2010-12-04T14:26:29Z</time>
      </trkpt>
      <trkpt lat="59.5610620" lon="17.5415100">
        <ele>3.0200000</ele>
        <time>2010-12-04T14:26:30Z</time>
      </trkpt>
      <trkpt lat="59.5610470" lon="17.5416110">
        <ele>3.0200000</ele>
        <time>2010-12-04T14:26:31Z</time>
      </trkpt>
      <trkpt lat="59.5610240" lon="17.5417080">
        <ele>3.5000000</ele>
        <time>2010-12-04T14:26:32Z</time>
      </trkpt>
      <trkpt lat="59.5606380" lon="17.5429630">
        <ele>5.4200000</ele>
        <time>2010-12-04T14:26:46Z</time>
      </trkpt>
      <trkpt lat="59.5601690" lon="17.5436360">
        <ele>6.8700000</ele>
        <time>2010-12-04T14:26:57Z</time>
      </trkpt>
      <trkpt lat="59.5596690" lon="17.5441590">
        <ele>7.3500000</ele>
        <time>2010-12-04T14:27:08Z</time>
      </trkpt>
      <trkpt lat="59.5596240" lon="17.5441890">
        <ele>7.3500000</ele>
        <time>2010-12-04T14:27:09Z</time>
      </trkpt>
      <trkpt lat="59.5595740" lon="17.5442160">
        <ele>7.3500000</ele>
        <time>2010-12-04T14:27:10Z</time>
      </trkpt>
      <trkpt lat="59.5595210" lon="17.5442260">
        <ele>6.8700000</ele>
        <time>2010-12-04T14:27:11Z</time>
      </trkpt>
      <trkpt lat="59.5594670" lon="17.5442220">
        <ele>6.3900000</ele>
        <time>2010-12-04T14:27:12Z</time>
      </trkpt>
      <trkpt lat="59.5593030" lon="17.5442310">
        <ele>6.3900000</ele>
        <time>2010-12-04T14:27:15Z</time>
      </trkpt>
      <trkpt lat="59.5592500" lon="17.5442640">
        <ele>6.3900000</ele>
        <time>2010-12-04T14:27:16Z</time>
      </trkpt>
      <trkpt lat="59.5591960" lon="17.5443060">
        <ele>6.3900000</ele>
        <time>2010-12-04T14:27:17Z</time>
      </trkpt>
      <trkpt lat="59.5591430" lon="17.5443530">
        <ele>5.9100000</ele>
        <time>2010-12-04T14:27:18Z</time>
      </trkpt>
      <trkpt lat="59.5590970" lon="17.5444070">
        <ele>6.3900000</ele>
        <time>2010-12-04T14:27:19Z</time>
      </trkpt>
      <trkpt lat="59.5590480" lon="17.5444660">
        <ele>6.3900000</ele>
        <time>2010-12-04T14:27:20Z</time>
      </trkpt>
      <trkpt lat="59.5583610" lon="17.5450210">
        <ele>7.8300000</ele>
        <time>2010-12-04T14:27:33Z</time>
      </trkpt>
      <trkpt lat="59.5576550" lon="17.5453360">
        <ele>9.7500000</ele>
        <time>2010-12-04T14:27:47Z</time>
      </trkpt>
      <trkpt lat="59.5569380" lon="17.5454850">
        <ele>9.7500000</ele>
        <time>2010-12-04T14:28:00Z</time>
      </trkpt>
      <trkpt lat="59.5561410" lon="17.5456490">
        <ele>10.7100000</ele>
        <time>2010-12-04T14:28:14Z</time>
      </trkpt>
      <trkpt lat="59.5555000" lon="17.5459520">
        <ele>8.3100000</ele>
        <time>2010-12-04T14:28:25Z</time>
      </trkpt>
      <trkpt lat="59.5546880" lon="17.5464570">
        <ele>5.9100000</ele>
        <time>2010-12-04T14:28:38Z</time>
      </trkpt>
      <trkpt lat="59.5540730" lon="17.5472950">
        <ele>4.9400000</ele>
        <time>2010-12-04T14:28:49Z</time>
      </trkpt>
      <trkpt lat="59.5535960" lon="17.5481050">
        <ele>5.9100000</ele>
        <time>2010-12-04T14:28:59Z</time>
      </trkpt>
      <trkpt lat="59.5535580" lon="17.5482030">
        <ele>5.9100000</ele>
        <time>2010-12-04T14:29:00Z</time>
      </trkpt>
      <trkpt lat="59.5532760" lon="17.5494840">
        <ele>3.5000000</ele>
        <time>2010-12-04T14:29:11Z</time>
      </trkpt>
      <trkpt lat="59.5532040" lon="17.5505640">
        <ele>0.6200000</ele>
        <time>2010-12-04T14:29:19Z</time>
      </trkpt>
      <trkpt lat="59.5531690" lon="17.5519070">
        <ele>-2.2700000</ele>
        <time>2010-12-04T14:29:28Z</time>
      </trkpt>
      <trkpt lat="59.5529980" lon="17.5534060">
        <ele>-4.1900000</ele>
        <time>2010-12-04T14:29:38Z</time>
      </trkpt>
      <trkpt lat="59.5526160" lon="17.5542890">
        <ele>-4.1900000</ele>
        <time>2010-12-04T14:29:47Z</time>
      </trkpt>
      <trkpt lat="59.5519600" lon="17.5553760">
        <ele>-4.6700000</ele>
        <time>2010-12-04T14:30:01Z</time>
      </trkpt>
      <trkpt lat="59.5512240" lon="17.5565970">
        <ele>-4.6700000</ele>
        <time>2010-12-04T14:30:17Z</time>
      </trkpt>
      <trkpt lat="59.5504760" lon="17.5578060">
        <ele>-5.1500000</ele>
        <time>2010-12-04T14:30:33Z</time>
      </trkpt>
      <trkpt lat="59.5499150" lon="17.5585060">
        <ele>-5.1500000</ele>
        <time>2010-12-04T14:30:44Z</time>
      </trkpt>
      <trkpt lat="59.5492670" lon="17.5587010">
        <ele>-4.6700000</ele>
        <time>2010-12-04T14:30:55Z</time>
      </trkpt>
      <trkpt lat="59.5484810" lon="17.5587140">
        <ele>-5.1500000</ele>
        <time>2010-12-04T14:31:08Z</time>
      </trkpt>
      <trkpt lat="59.5477260" lon="17.5584180">
        <ele>-4.1900000</ele>
        <time>2010-12-04T14:31:21Z</time>
      </trkpt>
      <trkpt lat="59.5469860" lon="17.5584050">
        <ele>-3.7100000</ele>
        <time>2010-12-04T14:31:34Z</time>
      </trkpt>
      <trkpt lat="59.5462650" lon="17.5587060">
        <ele>-2.2700000</ele>
        <time>2010-12-04T14:31:48Z</time>
      </trkpt>
      <trkpt lat="59.5455440" lon="17.5590380">
        <ele>-0.3400000</ele>
        <time>2010-12-04T14:32:02Z</time>
      </trkpt>
      <trkpt lat="59.5447770" lon="17.5594230">
        <ele>2.0600000</ele>
        <time>2010-12-04T14:32:18Z</time>
      </trkpt>
      <trkpt lat="59.5441890" lon="17.5597020">
        <ele>3.5000000</ele>
        <time>2010-12-04T14:32:32Z</time>
      </trkpt>
      <trkpt lat="59.5436480" lon="17.5599580">
        <ele>5.9100000</ele>
        <time>2010-12-04T14:32:46Z</time>
      </trkpt>
      <trkpt lat="59.5430870" lon="17.5602760">
        <ele>8.3100000</ele>
        <time>2010-12-04T14:33:02Z</time>
      </trkpt>
      <trkpt lat="59.5426450" lon="17.5607620">
        <ele>11.1900000</ele>
        <time>2010-12-04T14:33:17Z</time>
      </trkpt>
      <trkpt lat="59.5423740" lon="17.5613060">
        <ele>13.1200000</ele>
        <time>2010-12-04T14:33:29Z</time>
      </trkpt>
      <trkpt lat="59.5420650" lon="17.5620460">
        <ele>16.4800000</ele>
        <time>2010-12-04T14:33:43Z</time>
      </trkpt>
      <trkpt lat="59.5417630" lon="17.5627880">
        <ele>18.4000000</ele>
        <time>2010-12-04T14:33:57Z</time>
      </trkpt>
      <trkpt lat="59.5414430" lon="17.5636010">
        <ele>20.3200000</ele>
        <time>2010-12-04T14:34:12Z</time>
      </trkpt>
      <trkpt lat="59.5411000" lon="17.5644630">
        <ele>21.2900000</ele>
        <time>2010-12-04T14:34:26Z</time>
      </trkpt>
      <trkpt lat="59.5406070" lon="17.5652690">
        <ele>18.4000000</ele>
        <time>2010-12-04T14:34:39Z</time>
      </trkpt>
      <trkpt lat="59.5402300" lon="17.5658110">
        <ele>17.9200000</ele>
        <time>2010-12-04T14:34:47Z</time>
      </trkpt>
      <trkpt lat="59.5401950" lon="17.5659070">
        <ele>17.9200000</ele>
        <time>2010-12-04T14:34:48Z</time>
      </trkpt>
      <trkpt lat="59.5400310" lon="17.5664220">
        <ele>16.9600000</ele>
        <time>2010-12-04T14:34:53Z</time>
      </trkpt>
      <trkpt lat="59.5399890" lon="17.5665040">
        <ele>16.9600000</ele>
        <time>2010-12-04T14:34:54Z</time>
      </trkpt>
      <trkpt lat="59.5399480" lon="17.5665720">
        <ele>16.4800000</ele>
        <time>2010-12-04T14:34:55Z</time>
      </trkpt>
      <trkpt lat="59.5398980" lon="17.5666330">
        <ele>16.4800000</ele>
        <time>2010-12-04T14:34:56Z</time>
      </trkpt>
      <trkpt lat="59.5398450" lon="17.5666890">
        <ele>16.0000000</ele>
        <time>2010-12-04T14:34:57Z</time>
      </trkpt>
      <trkpt lat="59.5390590" lon="17.5675510">
        <ele>15.5200000</ele>
        <time>2010-12-04T14:35:12Z</time>
      </trkpt>
      <trkpt lat="59.5384290" lon="17.5682530">
        <ele>13.6000000</ele>
        <time>2010-12-04T14:35:24Z</time>
      </trkpt>
      <trkpt lat="59.5379300" lon="17.5688230">
        <ele>13.1200000</ele>
        <time>2010-12-04T14:35:37Z</time>
      </trkpt>
      <trkpt lat="59.5372350" lon="17.5696220">
        <ele>12.6300000</ele>
        <time>2010-12-04T14:35:53Z</time>
      </trkpt>
      <trkpt lat="59.5365410" lon="17.5704250">
        <ele>14.0800000</ele>
        <time>2010-12-04T14:36:09Z</time>
      </trkpt>
      <trkpt lat="59.5357630" lon="17.5713410">
        <ele>15.5200000</ele>
        <time>2010-12-04T14:36:27Z</time>
      </trkpt>
      <trkpt lat="59.5350610" lon="17.5721780">
        <ele>15.5200000</ele>
        <time>2010-12-04T14:36:43Z</time>
      </trkpt>
      <trkpt lat="59.5344540" lon="17.5729060">
        <ele>16.4800000</ele>
        <time>2010-12-04T14:36:57Z</time>
      </trkpt>
      <trkpt lat="59.5337220" lon="17.5737690">
        <ele>17.4400000</ele>
        <time>2010-12-04T14:37:14Z</time>
      </trkpt>
      <trkpt lat="59.5330310" lon="17.5746060">
        <ele>18.8800000</ele>
        <time>2010-12-04T14:37:30Z</time>
      </trkpt>
      <trkpt lat="59.5323180" lon="17.5754410">
        <ele>19.3600000</ele>
        <time>2010-12-04T14:37:46Z</time>
      </trkpt>
      <trkpt lat="59.5316050" lon="17.5762290">
        <ele>19.8400000</ele>
        <time>2010-12-04T14:38:02Z</time>
      </trkpt>
      <trkpt lat="59.5309100" lon="17.5769940">
        <ele>21.7700000</ele>
        <time>2010-12-04T14:38:18Z</time>
      </trkpt>
      <trkpt lat="59.5301510" lon="17.5778330">
        <ele>22.7300000</ele>
        <time>2010-12-04T14:38:35Z</time>
      </trkpt>
      <trkpt lat="59.5293810" lon="17.5787140">
        <ele>22.7300000</ele>
        <time>2010-12-04T14:38:52Z</time>
      </trkpt>
      <trkpt lat="59.5287060" lon="17.5795250">
        <ele>22.2500000</ele>
        <time>2010-12-04T14:39:06Z</time>
      </trkpt>
      <trkpt lat="59.5279080" lon="17.5806480">
        <ele>19.8400000</ele>
        <time>2010-12-04T14:39:22Z</time>
      </trkpt>
      <trkpt lat="59.5271220" lon="17.5819780">
        <ele>18.8800000</ele>
        <time>2010-12-04T14:39:39Z</time>
      </trkpt>
      <trkpt lat="59.5265010" lon="17.5831990">
        <ele>19.3600000</ele>
        <time>2010-12-04T14:39:54Z</time>
      </trkpt>
      <trkpt lat="59.5259360" lon="17.5845470">
        <ele>19.3600000</ele>
        <time>2010-12-04T14:40:09Z</time>
      </trkpt>
      <trkpt lat="59.5253750" lon="17.5861430">
        <ele>19.3600000</ele>
        <time>2010-12-04T14:40:26Z</time>
      </trkpt>
      <trkpt lat="59.5247840" lon="17.5881820">
        <ele>21.2900000</ele>
        <time>2010-12-04T14:40:47Z</time>
      </trkpt>
      <trkpt lat="59.5243870" lon="17.5896850">
        <ele>22.7300000</ele>
        <time>2010-12-04T14:41:03Z</time>
      </trkpt>
      <trkpt lat="59.5239720" lon="17.5913030">
        <ele>22.2500000</ele>
        <time>2010-12-04T14:41:19Z</time>
      </trkpt>
      <trkpt lat="59.5235370" lon="17.5929780">
        <ele>20.3200000</ele>
        <time>2010-12-04T14:41:34Z</time>
      </trkpt>
      <trkpt lat="59.5230790" lon="17.5947230">
        <ele>18.8800000</ele>
        <time>2010-12-04T14:41:50Z</time>
      </trkpt>
      <trkpt lat="59.5226210" lon="17.5963840">
        <ele>19.3600000</ele>
        <time>2010-12-04T14:42:06Z</time>
      </trkpt>
      <trkpt lat="59.5221860" lon="17.5981120">
        <ele>19.3600000</ele>
        <time>2010-12-04T14:42:22Z</time>
      </trkpt>
      <trkpt lat="59.5217170" lon="17.5999680">
        <ele>19.8400000</ele>
        <time>2010-12-04T14:42:40Z</time>
      </trkpt>
      <trkpt lat="59.5212440" lon="17.6018280">
        <ele>19.3600000</ele>
        <time>2010-12-04T14:42:58Z</time>
      </trkpt>
      <trkpt lat="59.5207940" lon="17.6035710">
        <ele>18.8800000</ele>
        <time>2010-12-04T14:43:14Z</time>
      </trkpt>
      <trkpt lat="59.5202830" lon="17.6054420">
        <ele>17.4400000</ele>
        <time>2010-12-04T14:43:31Z</time>
      </trkpt>
      <trkpt lat="59.5197030" lon="17.6073170">
        <ele>16.9600000</ele>
        <time>2010-12-04T14:43:49Z</time>
      </trkpt>
      <trkpt lat="59.5191760" lon="17.6088140">
        <ele>16.0000000</ele>
        <time>2010-12-04T14:44:04Z</time>
      </trkpt>
      <trkpt lat="59.5186270" lon="17.6101000">
        <ele>16.0000000</ele>
        <time>2010-12-04T14:44:18Z</time>
      </trkpt>
      <trkpt lat="59.5179980" lon="17.6110840">
        <ele>16.4800000</ele>
        <time>2010-12-04T14:44:32Z</time>
      </trkpt>
      <trkpt lat="59.5172770" lon="17.6121580">
        <ele>17.9200000</ele>
        <time>2010-12-04T14:44:48Z</time>
      </trkpt>
      <trkpt lat="59.5170330" lon="17.6129000">
        <ele>26.0900000</ele>
        <time>2010-12-04T14:44:56Z</time>
      </trkpt>
      <trkpt lat="59.5170100" lon="17.6129970">
        <ele>18.8800000</ele>
        <time>2010-12-04T14:44:57Z</time>
      </trkpt>
      <trkpt lat="59.5169600" lon="17.6131940">
        <ele>18.8800000</ele>
        <time>2010-12-04T14:44:59Z</time>
      </trkpt>
      <trkpt lat="59.5169030" lon="17.6133710">
        <ele>18.8800000</ele>
        <time>2010-12-04T14:45:01Z</time>
      </trkpt>
      <trkpt lat="59.5168690" lon="17.6134470">
        <ele>19.3600000</ele>
        <time>2010-12-04T14:45:02Z</time>
      </trkpt>
      <trkpt lat="59.5168300" lon="17.6135140">
        <ele>19.8400000</ele>
        <time>2010-12-04T14:45:03Z</time>
      </trkpt>
      <trkpt lat="59.5167880" lon="17.6135730">
        <ele>19.8400000</ele>
        <time>2010-12-04T14:45:04Z</time>
      </trkpt>
      <trkpt lat="59.5167470" lon="17.6136320">
        <ele>19.3600000</ele>
        <time>2010-12-04T14:45:05Z</time>
      </trkpt>
      <trkpt lat="59.5161020" lon="17.6143990">
        <ele>17.9200000</ele>
        <time>2010-12-04T14:45:18Z</time>
      </trkpt>
      <trkpt lat="59.5153850" lon="17.6149350">
        <ele>17.9200000</ele>
        <time>2010-12-04T14:45:31Z</time>
      </trkpt>
      <trkpt lat="59.5147670" lon="17.6151030">
        <ele>19.8400000</ele>
        <time>2010-12-04T14:45:43Z</time>
      </trkpt>
      <trkpt lat="59.5140720" lon="17.6151070">
        <ele>20.8100000</ele>
        <time>2010-12-04T14:45:57Z</time>
      </trkpt>
      <trkpt lat="59.5133400" lon="17.6153320">
        <ele>20.3200000</ele>
        <time>2010-12-04T14:46:12Z</time>
      </trkpt>
      <trkpt lat="59.5131150" lon="17.6153340">
        <ele>19.3600000</ele>
        <time>2010-12-04T14:46:20Z</time>
      </trkpt>
      <trkpt lat="59.5130580" lon="17.6159290">
        <ele>19.3600000</ele>
        <time>2010-12-04T14:48:47Z</time>
      </trkpt>
      <trkpt lat="59.5130080" lon="17.6165940">
        <ele>17.4400000</ele>
        <time>2010-12-04T14:48:56Z</time>
      </trkpt>
      <trkpt lat="59.5128710" lon="17.6180460">
        <ele>15.0400000</ele>
        <time>2010-12-04T14:49:11Z</time>
      </trkpt>
      <trkpt lat="59.5126800" lon="17.6200160">
        <ele>13.1200000</ele>
        <time>2010-12-04T14:49:28Z</time>
      </trkpt>
      <trkpt lat="59.5123330" lon="17.6220360">
        <ele>9.2700000</ele>
        <time>2010-12-04T14:49:45Z</time>
      </trkpt>
      <trkpt lat="59.5119020" lon="17.6237180">
        <ele>11.6700000</ele>
        <time>2010-12-04T14:50:00Z</time>
      </trkpt>
      <trkpt lat="59.5115390" lon="17.6248020">
        <ele>12.1500000</ele>
        <time>2010-12-04T14:50:13Z</time>
      </trkpt>
      <trkpt lat="59.5113410" lon="17.6253700">
        <ele>11.1900000</ele>
        <time>2010-12-04T14:50:20Z</time>
      </trkpt>
      <trkpt lat="59.5108870" lon="17.6266570">
        <ele>8.3100000</ele>
        <time>2010-12-04T14:50:35Z</time>
      </trkpt>
      <trkpt lat="59.5103610" lon="17.6281300">
        <ele>7.8300000</ele>
        <time>2010-12-04T14:50:52Z</time>
      </trkpt>
      <trkpt lat="59.5098150" lon="17.6296630">
        <ele>7.8300000</ele>
        <time>2010-12-04T14:51:09Z</time>
      </trkpt>
      <trkpt lat="59.5094260" lon="17.6308000">
        <ele>5.9100000</ele>
        <time>2010-12-04T14:51:21Z</time>
      </trkpt>
      <trkpt lat="59.5088730" lon="17.6323720">
        <ele>4.9400000</ele>
        <time>2010-12-04T14:51:38Z</time>
      </trkpt>
      <trkpt lat="59.5083120" lon="17.6339440">
        <ele>4.4600000</ele>
        <time>2010-12-04T14:51:54Z</time>
      </trkpt>
      <trkpt lat="59.5077590" lon="17.6356770">
        <ele>3.0200000</ele>
        <time>2010-12-04T14:52:10Z</time>
      </trkpt>
      <trkpt lat="59.5075110" lon="17.6373790">
        <ele>2.0600000</ele>
        <time>2010-12-04T14:52:23Z</time>
      </trkpt>
      <trkpt lat="59.5075530" lon="17.6390780">
        <ele>3.0200000</ele>
        <time>2010-12-04T14:52:36Z</time>
      </trkpt>
      <trkpt lat="59.5077630" lon="17.6412560">
        <ele>3.9800000</ele>
        <time>2010-12-04T14:52:53Z</time>
      </trkpt>
      <trkpt lat="59.5079840" lon="17.6431350">
        <ele>4.9400000</ele>
        <time>2010-12-04T14:53:08Z</time>
      </trkpt>
      <trkpt lat="59.5081330" lon="17.6441760">
        <ele>8.3100000</ele>
        <time>2010-12-04T14:53:18Z</time>
      </trkpt>
      <trkpt lat="59.5082470" lon="17.6449340">
        <ele>11.6700000</ele>
        <time>2010-12-04T14:53:28Z</time>
      </trkpt>
      <trkpt lat="59.5083890" lon="17.6457290">
        <ele>14.0800000</ele>
        <time>2010-12-04T14:53:40Z</time>
      </trkpt>
      <trkpt lat="59.5085910" lon="17.6469360">
        <ele>13.1200000</ele>
        <time>2010-12-04T14:53:55Z</time>
      </trkpt>
      <trkpt lat="59.5087390" lon="17.6478000">
        <ele>9.7500000</ele>
        <time>2010-12-04T14:54:03Z</time>
      </trkpt>
      <trkpt lat="59.5088650" lon="17.6485290">
        <ele>6.8700000</ele>
        <time>2010-12-04T14:54:08Z</time>
      </trkpt>
      <trkpt lat="59.5089720" lon="17.6491390">
        <ele>3.5000000</ele>
        <time>2010-12-04T14:54:12Z</time>
      </trkpt>
      <trkpt lat="59.5093310" lon="17.6509670">
        <ele>1.5800000</ele>
        <time>2010-12-04T14:54:26Z</time>
      </trkpt>
      <trkpt lat="59.5097270" lon="17.6526640">
        <ele>2.5400000</ele>
        <time>2010-12-04T14:54:41Z</time>
      </trkpt>
      <trkpt lat="59.5099830" lon="17.6534460">
        <ele>3.5000000</ele>
        <time>2010-12-04T14:54:51Z</time>
      </trkpt>
      <trkpt lat="59.5099980" lon="17.6535450">
        <ele>3.9800000</ele>
        <time>2010-12-04T14:54:53Z</time>
      </trkpt>
      <trkpt lat="59.5099910" lon="17.6535950">
        <ele>3.5000000</ele>
        <time>2010-12-04T14:54:54Z</time>
      </trkpt>
      <trkpt lat="59.5099720" lon="17.6536460">
        <ele>3.5000000</ele>
        <time>2010-12-04T14:54:55Z</time>
      </trkpt>
      <trkpt lat="59.5096820" lon="17.6542450">
        <ele>2.0600000</ele>
        <time>2010-12-04T14:55:03Z</time>
      </trkpt>
      <trkpt lat="59.5089910" lon="17.6554360">
        <ele>2.0600000</ele>
        <time>2010-12-04T14:55:19Z</time>
      </trkpt>
      <trkpt lat="59.5081100" lon="17.6567540">
        <ele>1.5800000</ele>
        <time>2010-12-04T14:55:37Z</time>
      </trkpt>
      <trkpt lat="59.5076410" lon="17.6574630">
        <ele>1.5800000</ele>
        <time>2010-12-04T14:55:47Z</time>
      </trkpt>
      <trkpt lat="59.5075870" lon="17.6574950">
        <ele>1.1000000</ele>
        <time>2010-12-04T14:55:48Z</time>
      </trkpt>
      <trkpt lat="59.5075340" lon="17.6575110">
        <ele>1.5800000</ele>
        <time>2010-12-04T14:55:49Z</time>
      </trkpt>
      <trkpt lat="59.5074770" lon="17.6575160">
        <ele>1.1000000</ele>
        <time>2010-12-04T14:55:50Z</time>
      </trkpt>
      <trkpt lat="59.5074230" lon="17.6575240">
        <ele>1.1000000</ele>
        <time>2010-12-04T14:55:51Z</time>
      </trkpt>
      <trkpt lat="59.5073700" lon="17.6575410">
        <ele>1.1000000</ele>
        <time>2010-12-04T14:55:52Z</time>
      </trkpt>
      <trkpt lat="59.5073200" lon="17.6575780">
        <ele>1.5800000</ele>
        <time>2010-12-04T14:55:53Z</time>
      </trkpt>
      <trkpt lat="59.5072780" lon="17.6576290">
        <ele>1.5800000</ele>
        <time>2010-12-04T14:55:54Z</time>
      </trkpt>
      <trkpt lat="59.5072360" lon="17.6576940">
        <ele>2.0600000</ele>
        <time>2010-12-04T14:55:55Z</time>
      </trkpt>
      <trkpt lat="59.5072020" lon="17.6577640">
        <ele>2.0600000</ele>
        <time>2010-12-04T14:55:56Z</time>
      </trkpt>
      <trkpt lat="59.5071680" lon="17.6578350">
        <ele>2.0600000</ele>
        <time>2010-12-04T14:55:57Z</time>
      </trkpt>
      <trkpt lat="59.5071300" lon="17.6579060">
        <ele>2.5400000</ele>
        <time>2010-12-04T14:55:58Z</time>
      </trkpt>
      <trkpt lat="59.5070920" lon="17.6579760">
        <ele>2.5400000</ele>
        <time>2010-12-04T14:55:59Z</time>
      </trkpt>
      <trkpt lat="59.5070530" lon="17.6580510">
        <ele>3.0200000</ele>
        <time>2010-12-04T14:56:00Z</time>
      </trkpt>
      <trkpt lat="59.5070040" lon="17.6581170">
        <ele>3.5000000</ele>
        <time>2010-12-04T14:56:01Z</time>
      </trkpt>
      <trkpt lat="59.5069580" lon="17.6581690">
        <ele>3.5000000</ele>
        <time>2010-12-04T14:56:02Z</time>
      </trkpt>
      <trkpt lat="59.5069080" lon="17.6582070">
        <ele>3.9800000</ele>
        <time>2010-12-04T14:56:03Z</time>
      </trkpt>
      <trkpt lat="59.5067670" lon="17.6583480">
        <ele>3.5000000</ele>
        <time>2010-12-04T14:56:06Z</time>
      </trkpt>
      <trkpt lat="59.5065230" lon="17.6587660">
        <ele>3.9800000</ele>
        <time>2010-12-04T14:56:12Z</time>
      </trkpt>
      <trkpt lat="59.5064930" lon="17.6588440">
        <ele>3.9800000</ele>
        <time>2010-12-04T14:56:13Z</time>
      </trkpt>
      <trkpt lat="59.5060920" lon="17.6597500">
        <ele>2.0600000</ele>
        <time>2010-12-04T14:56:24Z</time>
      </trkpt>
      <trkpt lat="59.5056270" lon="17.6611190">
        <ele>0.6200000</ele>
        <time>2010-12-04T14:56:36Z</time>
      </trkpt>
      <trkpt lat="59.5050930" lon="17.6624110">
        <ele>1.5800000</ele>
        <time>2010-12-04T14:56:50Z</time>
      </trkpt>
      <trkpt lat="59.5046120" lon="17.6633360">
        <ele>1.1000000</ele>
        <time>2010-12-04T14:57:01Z</time>
      </trkpt>
      <trkpt lat="59.5039630" lon="17.6642590">
        <ele>0.6200000</ele>
        <time>2010-12-04T14:57:14Z</time>
      </trkpt>
      <trkpt lat="59.5029720" lon="17.6656170">
        <ele>0.1400000</ele>
        <time>2010-12-04T14:57:33Z</time>
      </trkpt>
      <trkpt lat="59.5022320" lon="17.6666600">
        <ele>0.1400000</ele>
        <time>2010-12-04T14:57:48Z</time>
      </trkpt>
      <trkpt lat="59.5014950" lon="17.6677070">
        <ele>0.1400000</ele>
        <time>2010-12-04T14:58:03Z</time>
      </trkpt>
      <trkpt lat="59.5010030" lon="17.6685640">
        <ele>0.6200000</ele>
        <time>2010-12-04T14:58:14Z</time>
      </trkpt>
      <trkpt lat="59.5004040" lon="17.6696720">
        <ele>0.1400000</ele>
        <time>2010-12-04T14:58:27Z</time>
      </trkpt>
      <trkpt lat="59.4995840" lon="17.6710990">
        <ele>0.1400000</ele>
        <time>2010-12-04T14:58:44Z</time>
      </trkpt>
      <trkpt lat="59.4988670" lon="17.6722470">
        <ele>0.6200000</ele>
        <time>2010-12-04T14:58:59Z</time>
      </trkpt>
      <trkpt lat="59.4982410" lon="17.6733210">
        <ele>-1.7900000</ele>
        <time>2010-12-04T14:59:12Z</time>
      </trkpt>
      <trkpt lat="59.4975170" lon="17.6745870">
        <ele>-1.7900000</ele>
        <time>2010-12-04T14:59:27Z</time>
      </trkpt>
      <trkpt lat="59.4969250" lon="17.6759490">
        <ele>-2.7500000</ele>
        <time>2010-12-04T14:59:41Z</time>
      </trkpt>
      <trkpt lat="59.4963260" lon="17.6772790">
        <ele>-0.3400000</ele>
        <time>2010-12-04T14:59:56Z</time>
      </trkpt>
      <trkpt lat="59.4961360" lon="17.6776940">
        <ele>1.5800000</ele>
        <time>2010-12-04T15:00:02Z</time>
      </trkpt>
      <trkpt lat="59.4958040" lon="17.6784250">
        <ele>3.5000000</ele>
        <time>2010-12-04T15:00:12Z</time>
      </trkpt>
      <trkpt lat="59.4953650" lon="17.6793460">
        <ele>3.5000000</ele>
        <time>2010-12-04T15:00:26Z</time>
      </trkpt>
      <trkpt lat="59.4949300" lon="17.6803840">
        <ele>1.5800000</ele>
        <time>2010-12-04T15:00:37Z</time>
      </trkpt>
      <trkpt lat="59.4948350" lon="17.6806720">
        <ele>1.1000000</ele>
        <time>2010-12-04T15:00:40Z</time>
      </trkpt>
      <trkpt lat="59.4947970" lon="17.6807560">
        <ele>1.1000000</ele>
        <time>2010-12-04T15:00:41Z</time>
      </trkpt>
      <trkpt lat="59.4944040" lon="17.6816160">
        <ele>-0.8200000</ele>
        <time>2010-12-04T15:00:50Z</time>
      </trkpt>
      <trkpt lat="59.4938930" lon="17.6831000">
        <ele>-3.2300000</ele>
        <time>2010-12-04T15:01:03Z</time>
      </trkpt>
      <trkpt lat="59.4933970" lon="17.6842590">
        <ele>-3.2300000</ele>
        <time>2010-12-04T15:01:15Z</time>
      </trkpt>
      <trkpt lat="59.4927640" lon="17.6854460">
        <ele>-3.7100000</ele>
        <time>2010-12-04T15:01:29Z</time>
      </trkpt>
      <trkpt lat="59.4921800" lon="17.6862890">
        <ele>-3.7100000</ele>
        <time>2010-12-04T15:01:41Z</time>
      </trkpt>
      <trkpt lat="59.4915160" lon="17.6868840">
        <ele>-3.7100000</ele>
        <time>2010-12-04T15:01:53Z</time>
      </trkpt>
      <trkpt lat="59.4907720" lon="17.6874540">
        <ele>-2.2700000</ele>
        <time>2010-12-04T15:02:07Z</time>
      </trkpt>
      <trkpt lat="59.4903340" lon="17.6879040">
        <ele>0.6200000</ele>
        <time>2010-12-04T15:02:18Z</time>
      </trkpt>
      <trkpt lat="59.4902230" lon="17.6879770">
        <ele>2.0600000</ele>
        <time>2010-12-04T15:02:21Z</time>
      </trkpt>
      <trkpt lat="59.4899670" lon="17.6880280">
        <ele>2.0600000</ele>
        <time>2010-12-04T15:02:30Z</time>
      </trkpt>
      <trkpt lat="59.4899560" lon="17.6880380">
        <ele>2.5400000</ele>
        <time>2010-12-04T15:02:41Z</time>
      </trkpt>
      <trkpt lat="59.4899600" lon="17.6880340">
        <ele>2.0600000</ele>
        <time>2010-12-04T15:02:52Z</time>
      </trkpt>
      <trkpt lat="59.4899600" lon="17.6880340">
        <ele>2.0600000</ele>
        <time>2010-12-04T15:03:13Z</time>
      </trkpt>
      <trkpt lat="59.4899600" lon="17.6880320">
        <ele>2.0600000</ele>
        <time>2010-12-04T15:03:41Z</time>
      </trkpt>
      <trkpt lat="59.4899600" lon="17.6880380">
        <ele>2.5400000</ele>
        <time>2010-12-04T15:04:07Z</time>
      </trkpt>
      <trkpt lat="59.4899600" lon="17.6880380">
        <ele>2.5400000</ele>
        <time>2010-12-04T15:04:32Z</time>
      </trkpt>
      <trkpt lat="59.4899410" lon="17.6880460">
        <ele>3.0200000</ele>
        <time>2010-12-04T15:04:51Z</time>
      </trkpt>
      <trkpt lat="59.4899290" lon="17.6880590">
        <ele>3.0200000</ele>
        <time>2010-12-04T15:04:52Z</time>
      </trkpt>
      <trkpt lat="59.4899100" lon="17.6880720">
        <ele>2.5400000</ele>
        <time>2010-12-04T15:04:53Z</time>
      </trkpt>
      <trkpt lat="59.4896660" lon="17.6883450">
        <ele>2.0600000</ele>
        <time>2010-12-04T15:05:02Z</time>
      </trkpt>
      <trkpt lat="59.4893150" lon="17.6888710">
        <ele>1.5800000</ele>
        <time>2010-12-04T15:05:12Z</time>
      </trkpt>
      <trkpt lat="59.4889680" lon="17.6892850">
        <ele>2.5400000</ele>
        <time>2010-12-04T15:05:24Z</time>
      </trkpt>
      <trkpt lat="59.4886970" lon="17.6897070">
        <ele>3.5000000</ele>
        <time>2010-12-04T15:05:34Z</time>
      </trkpt>
      <trkpt lat="59.4883650" lon="17.6902500">
        <ele>3.9800000</ele>
        <time>2010-12-04T15:05:45Z</time>
      </trkpt>
      <trkpt lat="59.4879110" lon="17.6910170">
        <ele>4.4600000</ele>
        <time>2010-12-04T15:05:58Z</time>
      </trkpt>
      <trkpt lat="59.4874650" lon="17.6917420">
        <ele>4.9400000</ele>
        <time>2010-12-04T15:06:11Z</time>
      </trkpt>
      <trkpt lat="59.4870570" lon="17.6924630">
        <ele>2.0600000</ele>
        <time>2010-12-04T15:06:20Z</time>
      </trkpt>
      <trkpt lat="59.4865300" lon="17.6933120">
        <ele>3.0200000</ele>
        <time>2010-12-04T15:06:31Z</time>
      </trkpt>
      <trkpt lat="59.4865000" lon="17.6933860">
        <ele>3.5000000</ele>
        <time>2010-12-04T15:06:32Z</time>
      </trkpt>
      <trkpt lat="59.4864730" lon="17.6934620">
        <ele>3.9800000</ele>
        <time>2010-12-04T15:06:33Z</time>
      </trkpt>
      <trkpt lat="59.4864580" lon="17.6935410">
        <ele>4.4600000</ele>
        <time>2010-12-04T15:06:34Z</time>
      </trkpt>
      <trkpt lat="59.4864540" lon="17.6936090">
        <ele>4.9400000</ele>
        <time>2010-12-04T15:06:35Z</time>
      </trkpt>
      <trkpt lat="59.4864540" lon="17.6936700">
        <ele>4.9400000</ele>
        <time>2010-12-04T15:06:36Z</time>
      </trkpt>
      <trkpt lat="59.4863240" lon="17.6940440">
        <ele>6.3900000</ele>
        <time>2010-12-04T15:06:43Z</time>
      </trkpt>
      <trkpt lat="59.4861070" lon="17.6945170">
        <ele>8.7900000</ele>
        <time>2010-12-04T15:06:52Z</time>
      </trkpt>
      <trkpt lat="59.4857940" lon="17.6951870">
        <ele>11.6700000</ele>
        <time>2010-12-04T15:07:05Z</time>
      </trkpt>
      <trkpt lat="59.4855080" lon="17.6958330">
        <ele>14.5600000</ele>
        <time>2010-12-04T15:07:18Z</time>
      </trkpt>
      <trkpt lat="59.4852070" lon="17.6964950">
        <ele>17.4400000</ele>
        <time>2010-12-04T15:07:32Z</time>
      </trkpt>
      <trkpt lat="59.4849430" lon="17.6970600">
        <ele>20.3200000</ele>
        <time>2010-12-04T15:07:45Z</time>
      </trkpt>
      <trkpt lat="59.4846880" lon="17.6976640">
        <ele>23.2100000</ele>
        <time>2010-12-04T15:07:59Z</time>
      </trkpt>
      <trkpt lat="59.4844630" lon="17.6981540">
        <ele>25.1300000</ele>
        <time>2010-12-04T15:08:10Z</time>
      </trkpt>
      <trkpt lat="59.4842030" lon="17.6987300">
        <ele>26.5700000</ele>
        <time>2010-12-04T15:08:22Z</time>
      </trkpt>
      <trkpt lat="59.4838070" lon="17.6995960">
        <ele>27.0500000</ele>
        <time>2010-12-04T15:08:37Z</time>
      </trkpt>
      <trkpt lat="59.4833600" lon="17.7005790">
        <ele>25.6100000</ele>
        <time>2010-12-04T15:08:51Z</time>
      </trkpt>
      <trkpt lat="59.4827880" lon="17.7018410">
        <ele>23.2100000</ele>
        <time>2010-12-04T15:09:07Z</time>
      </trkpt>
      <trkpt lat="59.4823190" lon="17.7028660">
        <ele>20.3200000</ele>
        <time>2010-12-04T15:09:19Z</time>
      </trkpt>
      <trkpt lat="59.4818080" lon="17.7040520">
        <ele>18.4000000</ele>
        <time>2010-12-04T15:09:32Z</time>
      </trkpt>
      <trkpt lat="59.4812620" lon="17.7056430">
        <ele>16.4800000</ele>
        <time>2010-12-04T15:09:48Z</time>
      </trkpt>
      <trkpt lat="59.4807510" lon="17.7072530">
        <ele>16.0000000</ele>
        <time>2010-12-04T15:10:04Z</time>
      </trkpt>
      <trkpt lat="59.4804570" lon="17.7080820">
        <ele>15.5200000</ele>
        <time>2010-12-04T15:10:13Z</time>
      </trkpt>
      <trkpt lat="59.4804310" lon="17.7081760">
        <ele>15.5200000</ele>
        <time>2010-12-04T15:10:14Z</time>
      </trkpt>
      <trkpt lat="59.4801180" lon="17.7092740">
        <ele>15.0400000</ele>
        <time>2010-12-04T15:10:25Z</time>
      </trkpt>
      <trkpt lat="59.4796750" lon="17.7107320">
        <ele>15.0400000</ele>
        <time>2010-12-04T15:10:40Z</time>
      </trkpt>
      <trkpt lat="59.4793240" lon="17.7121660">
        <ele>14.5600000</ele>
        <time>2010-12-04T15:10:54Z</time>
      </trkpt>
      <trkpt lat="59.4790230" lon="17.7140050">
        <ele>13.6000000</ele>
        <time>2010-12-04T15:11:10Z</time>
      </trkpt>
      <trkpt lat="59.4787450" lon="17.7158130">
        <ele>14.0800000</ele>
        <time>2010-12-04T15:11:26Z</time>
      </trkpt>
      <trkpt lat="59.4786950" lon="17.7162320">
        <ele>14.5600000</ele>
        <time>2010-12-04T15:11:30Z</time>
      </trkpt>
      <trkpt lat="59.4785650" lon="17.7176280">
        <ele>14.5600000</ele>
        <time>2010-12-04T15:11:43Z</time>
      </trkpt>
      <trkpt lat="59.4784620" lon="17.7191700">
        <ele>15.0400000</ele>
        <time>2010-12-04T15:11:57Z</time>
      </trkpt>
      <trkpt lat="59.4784620" lon="17.7208540">
        <ele>15.5200000</ele>
        <time>2010-12-04T15:12:12Z</time>
      </trkpt>
      <trkpt lat="59.4784970" lon="17.7227920">
        <ele>12.1500000</ele>
        <time>2010-12-04T15:12:28Z</time>
      </trkpt>
      <trkpt lat="59.4785080" lon="17.7240180">
        <ele>9.2700000</ele>
        <time>2010-12-04T15:12:37Z</time>
      </trkpt>
      <trkpt lat="59.4785160" lon="17.7260650">
        <ele>7.3500000</ele>
        <time>2010-12-04T15:12:53Z</time>
      </trkpt>
      <trkpt lat="59.4784850" lon="17.7266880">
        <ele>6.8700000</ele>
        <time>2010-12-04T15:12:59Z</time>
      </trkpt>
      <trkpt lat="59.4784700" lon="17.7276190">
        <ele>4.9400000</ele>
        <time>2010-12-04T15:13:07Z</time>
      </trkpt>
      <trkpt lat="59.4784620" lon="17.7283690">
        <ele>3.9800000</ele>
        <time>2010-12-04T15:13:13Z</time>
      </trkpt>
      <trkpt lat="59.4784510" lon="17.7284760">
        <ele>3.9800000</ele>
        <time>2010-12-04T15:13:14Z</time>
      </trkpt>
      <trkpt lat="59.4784280" lon="17.7285750">
        <ele>3.9800000</ele>
        <time>2010-12-04T15:13:15Z</time>
      </trkpt>
      <trkpt lat="59.4784010" lon="17.7286620">
        <ele>3.5000000</ele>
        <time>2010-12-04T15:13:16Z</time>
      </trkpt>
      <trkpt lat="59.4783780" lon="17.7287450">
        <ele>3.5000000</ele>
        <time>2010-12-04T15:13:17Z</time>
      </trkpt>
      <trkpt lat="59.4783670" lon="17.7288230">
        <ele>3.9800000</ele>
        <time>2010-12-04T15:13:18Z</time>
      </trkpt>
      <trkpt lat="59.4783630" lon="17.7289010">
        <ele>4.4600000</ele>
        <time>2010-12-04T15:13:19Z</time>
      </trkpt>
      <trkpt lat="59.4783630" lon="17.7289830">
        <ele>4.9400000</ele>
        <time>2010-12-04T15:13:20Z</time>
      </trkpt>
      <trkpt lat="59.4783670" lon="17.7290630">
        <ele>3.9800000</ele>
        <time>2010-12-04T15:13:21Z</time>
      </trkpt>
      <trkpt lat="59.4783740" lon="17.7291470">
        <ele>4.4600000</ele>
        <time>2010-12-04T15:13:22Z</time>
      </trkpt>
      <trkpt lat="59.4783970" lon="17.7292250">
        <ele>3.9800000</ele>
        <time>2010-12-04T15:13:23Z</time>
      </trkpt>
      <trkpt lat="59.4784240" lon="17.7292960">
        <ele>4.4600000</ele>
        <time>2010-12-04T15:13:24Z</time>
      </trkpt>
      <trkpt lat="59.4785390" lon="17.7295250">
        <ele>3.9800000</ele>
        <time>2010-12-04T15:13:29Z</time>
      </trkpt>
      <trkpt lat="59.4785920" lon="17.7295700">
        <ele>3.9800000</ele>
        <time>2010-12-04T15:13:32Z</time>
      </trkpt>
      <trkpt lat="59.4786030" lon="17.7296180">
        <ele>3.9800000</ele>
        <time>2010-12-04T15:13:33Z</time>
      </trkpt>
      <trkpt lat="59.4786070" lon="17.7296810">
        <ele>3.9800000</ele>
        <time>2010-12-04T15:13:34Z</time>
      </trkpt>
      <trkpt lat="59.4786110" lon="17.7297610">
        <ele>3.5000000</ele>
        <time>2010-12-04T15:13:35Z</time>
      </trkpt>
      <trkpt lat="59.4786110" lon="17.7298510">
        <ele>3.5000000</ele>
        <time>2010-12-04T15:13:36Z</time>
      </trkpt>
      <trkpt lat="59.4785960" lon="17.7310470">
        <ele>2.0600000</ele>
        <time>2010-12-04T15:13:46Z</time>
      </trkpt>
      <trkpt lat="59.4784660" lon="17.7329830">
        <ele>0.1400000</ele>
        <time>2010-12-04T15:14:02Z</time>
      </trkpt>
      <trkpt lat="59.4781720" lon="17.7348960">
        <ele>-1.7900000</ele>
        <time>2010-12-04T15:14:18Z</time>
      </trkpt>
      <trkpt lat="59.4777150" lon="17.7367190">
        <ele>-2.7500000</ele>
        <time>2010-12-04T15:14:34Z</time>
      </trkpt>
      <trkpt lat="59.4772000" lon="17.7383590">
        <ele>-3.2300000</ele>
        <time>2010-12-04T15:14:50Z</time>
      </trkpt>
      <trkpt lat="59.4767680" lon="17.7397440">
        <ele>-1.7900000</ele>
        <time>2010-12-04T15:15:04Z</time>
      </trkpt>
      <trkpt lat="59.4764250" lon="17.7412070">
        <ele>1.1000000</ele>
        <time>2010-12-04T15:15:20Z</time>
      </trkpt>
      <trkpt lat="59.4762840" lon="17.7420560">
        <ele>4.4600000</ele>
        <time>2010-12-04T15:15:31Z</time>
      </trkpt>
      <trkpt lat="59.4762730" lon="17.7421280">
        <ele>4.4600000</ele>
        <time>2010-12-04T15:15:32Z</time>
      </trkpt>
      <trkpt lat="59.4761770" lon="17.7431600">
        <ele>6.3900000</ele>
        <time>2010-12-04T15:15:46Z</time>
      </trkpt>
      <trkpt lat="59.4761310" lon="17.7442930">
        <ele>8.7900000</ele>
        <time>2010-12-04T15:16:00Z</time>
      </trkpt>
      <trkpt lat="59.4762230" lon="17.7455920">
        <ele>9.7500000</ele>
        <time>2010-12-04T15:16:15Z</time>
      </trkpt>
      <trkpt lat="59.4764820" lon="17.7470930">
        <ele>11.6700000</ele>
        <time>2010-12-04T15:16:32Z</time>
      </trkpt>
      <trkpt lat="59.4767880" lon="17.7483580">
        <ele>13.6000000</ele>
        <time>2010-12-04T15:16:47Z</time>
      </trkpt>
      <trkpt lat="59.4770620" lon="17.7491020">
        <ele>15.5200000</ele>
        <time>2010-12-04T15:16:58Z</time>
      </trkpt>
      <trkpt lat="59.4770770" lon="17.7491840">
        <ele>15.0400000</ele>
        <time>2010-12-04T15:16:59Z</time>
      </trkpt>
      <trkpt lat="59.4770930" lon="17.7492710">
        <ele>14.5600000</ele>
        <time>2010-12-04T15:17:00Z</time>
      </trkpt>
      <trkpt lat="59.4771160" lon="17.7493520">
        <ele>15.0400000</ele>
        <time>2010-12-04T15:17:01Z</time>
      </trkpt>
      <trkpt lat="59.4771420" lon="17.7494280">
        <ele>14.5600000</ele>
        <time>2010-12-04T15:17:02Z</time>
      </trkpt>
      <trkpt lat="59.4771730" lon="17.7494980">
        <ele>15.0400000</ele>
        <time>2010-12-04T15:17:03Z</time>
      </trkpt>
      <trkpt lat="59.4772070" lon="17.7495630">
        <ele>15.0400000</ele>
        <time>2010-12-04T15:17:04Z</time>
      </trkpt>
      <trkpt lat="59.4772450" lon="17.7496260">
        <ele>15.0400000</ele>
        <time>2010-12-04T15:17:05Z</time>
      </trkpt>
      <trkpt lat="59.4776000" lon="17.7505460">
        <ele>12.6300000</ele>
        <time>2010-12-04T15:17:15Z</time>
      </trkpt>
      <trkpt lat="59.4780040" lon="17.7516560">
        <ele>9.2700000</ele>
        <time>2010-12-04T15:17:25Z</time>
      </trkpt>
      <trkpt lat="59.4785160" lon="17.7527010">
        <ele>8.7900000</ele>
        <time>2010-12-04T15:17:36Z</time>
      </trkpt>
      <trkpt lat="59.4789510" lon="17.7537900">
        <ele>8.7900000</ele>
        <time>2010-12-04T15:17:48Z</time>
      </trkpt>
      <trkpt lat="59.4793740" lon="17.7548580">
        <ele>10.7100000</ele>
        <time>2010-12-04T15:18:01Z</time>
      </trkpt>
      <trkpt lat="59.4797480" lon="17.7557770">
        <ele>13.6000000</ele>
        <time>2010-12-04T15:18:15Z</time>
      </trkpt>
      <trkpt lat="59.4801640" lon="17.7568190">
        <ele>16.4800000</ele>
        <time>2010-12-04T15:18:31Z</time>
      </trkpt>
      <trkpt lat="59.4805340" lon="17.7576960">
        <ele>17.4400000</ele>
        <time>2010-12-04T15:18:44Z</time>
      </trkpt>
      <trkpt lat="59.4811170" lon="17.7590120">
        <ele>15.0400000</ele>
        <time>2010-12-04T15:19:00Z</time>
      </trkpt>
      <trkpt lat="59.4814800" lon="17.7595040">
        <ele>11.6700000</ele>
        <time>2010-12-04T15:19:06Z</time>
      </trkpt>
      <trkpt lat="59.4817770" lon="17.7597500">
        <ele>9.7500000</ele>
        <time>2010-12-04T15:19:10Z</time>
      </trkpt>
      <trkpt lat="59.4821930" lon="17.7599390">
        <ele>6.3900000</ele>
        <time>2010-12-04T15:19:15Z</time>
      </trkpt>
      <trkpt lat="59.4829030" lon="17.7603420">
        <ele>3.5000000</ele>
        <time>2010-12-04T15:19:24Z</time>
      </trkpt>
      <trkpt lat="59.4833640" lon="17.7612290">
        <ele>3.0200000</ele>
        <time>2010-12-04T15:19:32Z</time>
      </trkpt>
      <trkpt lat="59.4836040" lon="17.7624210">
        <ele>3.5000000</ele>
        <time>2010-12-04T15:19:41Z</time>
      </trkpt>
      <trkpt lat="59.4836080" lon="17.7627790">
        <ele>3.5000000</ele>
        <time>2010-12-04T15:19:44Z</time>
      </trkpt>
      <trkpt lat="59.4835090" lon="17.7635820">
        <ele>6.3900000</ele>
        <time>2010-12-04T15:19:53Z</time>
      </trkpt>
      <trkpt lat="59.4833950" lon="17.7642730">
        <ele>8.7900000</ele>
        <time>2010-12-04T15:20:04Z</time>
      </trkpt>
      <trkpt lat="59.4833110" lon="17.7649360">
        <ele>10.7100000</ele>
        <time>2010-12-04T15:20:16Z</time>
      </trkpt>
      <trkpt lat="59.4832080" lon="17.7656650">
        <ele>14.0800000</ele>
        <time>2010-12-04T15:20:30Z</time>
      </trkpt>
      <trkpt lat="59.4831350" lon="17.7663060">
        <ele>16.9600000</ele>
        <time>2010-12-04T15:20:43Z</time>
      </trkpt>
      <trkpt lat="59.4830780" lon="17.7667960">
        <ele>18.8800000</ele>
        <time>2010-12-04T15:20:54Z</time>
      </trkpt>
      <trkpt lat="59.4830020" lon="17.7673320">
        <ele>20.3200000</ele>
        <time>2010-12-04T15:21:06Z</time>
      </trkpt>
      <trkpt lat="59.4829220" lon="17.7680230">
        <ele>23.2100000</ele>
        <time>2010-12-04T15:21:21Z</time>
      </trkpt>
      <trkpt lat="59.4828410" lon="17.7686560">
        <ele>25.6100000</ele>
        <time>2010-12-04T15:21:35Z</time>
      </trkpt>
      <trkpt lat="59.4827650" lon="17.7692640">
        <ele>27.5300000</ele>
        <time>2010-12-04T15:21:48Z</time>
      </trkpt>
      <trkpt lat="59.4826850" lon="17.7699760">
        <ele>28.9800000</ele>
        <time>2010-12-04T15:22:02Z</time>
      </trkpt>
      <trkpt lat="59.4825670" lon="17.7709810">
        <ele>30.4200000</ele>
        <time>2010-12-04T15:22:20Z</time>
      </trkpt>
      <trkpt lat="59.4825330" lon="17.7715590">
        <ele>30.9000000</ele>
        <time>2010-12-04T15:22:31Z</time>
      </trkpt>
      <trkpt lat="59.4824140" lon="17.7724460">
        <ele>19.3600000</ele>
        <time>2010-12-04T15:22:42Z</time>
      </trkpt>
      <trkpt lat="59.4824070" lon="17.7725320">
        <ele>33.3000000</ele>
        <time>2010-12-04T15:22:43Z</time>
      </trkpt>
      <trkpt lat="59.4822460" lon="17.7738090">
        <ele>33.3000000</ele>
        <time>2010-12-04T15:22:58Z</time>
      </trkpt>
      <trkpt lat="59.4820480" lon="17.7753870">
        <ele>30.4200000</ele>
        <time>2010-12-04T15:23:13Z</time>
      </trkpt>
      <trkpt lat="59.4818920" lon="17.7764300">
        <ele>27.0500000</ele>
        <time>2010-12-04T15:23:21Z</time>
      </trkpt>
      <trkpt lat="59.4816930" lon="17.7773840">
        <ele>23.6900000</ele>
        <time>2010-12-04T15:23:28Z</time>
      </trkpt>
      <trkpt lat="59.4813500" lon="17.7787820">
        <ele>20.3200000</ele>
        <time>2010-12-04T15:23:38Z</time>
      </trkpt>
      <trkpt lat="59.4812470" lon="17.7792210">
        <ele>18.8800000</ele>
        <time>2010-12-04T15:23:41Z</time>
      </trkpt>
      <trkpt lat="59.4809490" lon="17.7804410">
        <ele>16.0000000</ele>
        <time>2010-12-04T15:23:49Z</time>
      </trkpt>
      <trkpt lat="59.4804840" lon="17.7822670">
        <ele>12.6300000</ele>
        <time>2010-12-04T15:24:01Z</time>
      </trkpt>
      <trkpt lat="59.4798580" lon="17.7839360">
        <ele>10.2300000</ele>
        <time>2010-12-04T15:24:14Z</time>
      </trkpt>
      <trkpt lat="59.4792820" lon="17.7848630">
        <ele>6.3900000</ele>
        <time>2010-12-04T15:24:23Z</time>
      </trkpt>
      <trkpt lat="59.4792100" lon="17.7849500">
        <ele>5.9100000</ele>
        <time>2010-12-04T15:24:24Z</time>
      </trkpt>
      <trkpt lat="59.4789010" lon="17.7852730">
        <ele>3.9800000</ele>
        <time>2010-12-04T15:24:28Z</time>
      </trkpt>
      <trkpt lat="59.4779360" lon="17.7859170">
        <ele>1.5800000</ele>
        <time>2010-12-04T15:24:40Z</time>
      </trkpt>
      <trkpt lat="59.4769550" lon="17.7862400">
        <ele>1.1000000</ele>
        <time>2010-12-04T15:24:53Z</time>
      </trkpt>
      <trkpt lat="59.4761850" lon="17.7864740">
        <ele>2.0600000</ele>
        <time>2010-12-04T15:25:05Z</time>
      </trkpt>
      <trkpt lat="59.4753880" lon="17.7867390">
        <ele>2.5400000</ele>
        <time>2010-12-04T15:25:19Z</time>
      </trkpt>
      <trkpt lat="59.4747280" lon="17.7871210">
        <ele>2.0600000</ele>
        <time>2010-12-04T15:25:32Z</time>
      </trkpt>
      <trkpt lat="59.4742360" lon="17.7874950">
        <ele>4.9400000</ele>
        <time>2010-12-04T15:25:45Z</time>
      </trkpt>
      <trkpt lat="59.4739840" lon="17.7877830">
        <ele>7.3500000</ele>
        <time>2010-12-04T15:25:54Z</time>
      </trkpt>
      <trkpt lat="59.4737590" lon="17.7882520">
        <ele>9.2700000</ele>
        <time>2010-12-04T15:26:04Z</time>
      </trkpt>
      <trkpt lat="59.4735450" lon="17.7892360">
        <ele>8.3100000</ele>
        <time>2010-12-04T15:26:18Z</time>
      </trkpt>
      <trkpt lat="59.4733510" lon="17.7899910">
        <ele>4.9400000</ele>
        <time>2010-12-04T15:26:25Z</time>
      </trkpt>
      <trkpt lat="59.4732740" lon="17.7902390">
        <ele>3.9800000</ele>
        <time>2010-12-04T15:26:27Z</time>
      </trkpt>
      <trkpt lat="59.4731100" lon="17.7907600">
        <ele>1.5800000</ele>
        <time>2010-12-04T15:26:31Z</time>
      </trkpt>
      <trkpt lat="59.4729120" lon="17.7916200">
        <ele>-1.7900000</ele>
        <time>2010-12-04T15:26:37Z</time>
      </trkpt>
      <trkpt lat="59.4726720" lon="17.7930930">
        <ele>-1.3000000</ele>
        <time>2010-12-04T15:26:48Z</time>
      </trkpt>
      <trkpt lat="59.4724120" lon="17.7943520">
        <ele>-0.8200000</ele>
        <time>2010-12-04T15:27:00Z</time>
      </trkpt>
      <trkpt lat="59.4723780" lon="17.7944370">
        <ele>-0.8200000</ele>
        <time>2010-12-04T15:27:01Z</time>
      </trkpt>
      <trkpt lat="59.4723400" lon="17.7945190">
        <ele>-0.8200000</ele>
        <time>2010-12-04T15:27:02Z</time>
      </trkpt>
      <trkpt lat="59.4722980" lon="17.7945940">
        <ele>-0.3400000</ele>
        <time>2010-12-04T15:27:03Z</time>
      </trkpt>
      <trkpt lat="59.4722520" lon="17.7946640">
        <ele>-0.8200000</ele>
        <time>2010-12-04T15:27:04Z</time>
      </trkpt>
      <trkpt lat="59.4721980" lon="17.7947270">
        <ele>-0.8200000</ele>
        <time>2010-12-04T15:27:05Z</time>
      </trkpt>
      <trkpt lat="59.4721450" lon="17.7947830">
        <ele>-0.3400000</ele>
        <time>2010-12-04T15:27:06Z</time>
      </trkpt>
      <trkpt lat="59.4720920" lon="17.7948300">
        <ele>0.1400000</ele>
        <time>2010-12-04T15:27:07Z</time>
      </trkpt>
      <trkpt lat="59.4720380" lon="17.7948680">
        <ele>0.1400000</ele>
        <time>2010-12-04T15:27:08Z</time>
      </trkpt>
      <trkpt lat="59.4719850" lon="17.7949030">
        <ele>0.1400000</ele>
        <time>2010-12-04T15:27:09Z</time>
      </trkpt>
      <trkpt lat="59.4713100" lon="17.7955090">
        <ele>1.5800000</ele>
        <time>2010-12-04T15:27:23Z</time>
      </trkpt>
      <trkpt lat="59.4705470" lon="17.7962060">
        <ele>2.0600000</ele>
        <time>2010-12-04T15:27:38Z</time>
      </trkpt>
      <trkpt lat="59.4698830" lon="17.7969280">
        <ele>3.0200000</ele>
        <time>2010-12-04T15:27:52Z</time>
      </trkpt>
      <trkpt lat="59.4691580" lon="17.7978360">
        <ele>1.5800000</ele>
        <time>2010-12-04T15:28:07Z</time>
      </trkpt>
      <trkpt lat="59.4691120" lon="17.7979220">
        <ele>1.1000000</ele>
        <time>2010-12-04T15:28:08Z</time>
      </trkpt>
      <trkpt lat="59.4690700" lon="17.7980180">
        <ele>1.1000000</ele>
        <time>2010-12-04T15:28:09Z</time>
      </trkpt>
      <trkpt lat="59.4690320" lon="17.7981190">
        <ele>0.6200000</ele>
        <time>2010-12-04T15:28:10Z</time>
      </trkpt>
      <trkpt lat="59.4689980" lon="17.7982270">
        <ele>1.1000000</ele>
        <time>2010-12-04T15:28:11Z</time>
      </trkpt>
      <trkpt lat="59.4689710" lon="17.7983400">
        <ele>0.6200000</ele>
        <time>2010-12-04T15:28:12Z</time>
      </trkpt>
      <trkpt lat="59.4689480" lon="17.7984580">
        <ele>0.6200000</ele>
        <time>2010-12-04T15:28:13Z</time>
      </trkpt>
      <trkpt lat="59.4689290" lon="17.7985780">
        <ele>0.1400000</ele>
        <time>2010-12-04T15:28:14Z</time>
      </trkpt>
      <trkpt lat="59.4689180" lon="17.7987020">
        <ele>0.1400000</ele>
        <time>2010-12-04T15:28:15Z</time>
      </trkpt>
      <trkpt lat="59.4689140" lon="17.7988320">
        <ele>0.1400000</ele>
        <time>2010-12-04T15:28:16Z</time>
      </trkpt>
      <trkpt lat="59.4689180" lon="17.7989640">
        <ele>-0.3400000</ele>
        <time>2010-12-04T15:28:17Z</time>
      </trkpt>
      <trkpt lat="59.4689250" lon="17.7990930">
        <ele>-0.3400000</ele>
        <time>2010-12-04T15:28:18Z</time>
      </trkpt>
      <trkpt lat="59.4689370" lon="17.7992250">
        <ele>-1.3000000</ele>
        <time>2010-12-04T15:28:19Z</time>
      </trkpt>
      <trkpt lat="59.4689560" lon="17.7993550">
        <ele>-1.3000000</ele>
        <time>2010-12-04T15:28:20Z</time>
      </trkpt>
      <trkpt lat="59.4689790" lon="17.7994750">
        <ele>-1.7900000</ele>
        <time>2010-12-04T15:28:21Z</time>
      </trkpt>
      <trkpt lat="59.4690090" lon="17.7995850">
        <ele>-1.7900000</ele>
        <time>2010-12-04T15:28:22Z</time>
      </trkpt>
      <trkpt lat="59.4690440" lon="17.7996920">
        <ele>-1.7900000</ele>
        <time>2010-12-04T15:28:23Z</time>
      </trkpt>
      <trkpt lat="59.4691200" lon="17.7998850">
        <ele>-1.7900000</ele>
        <time>2010-12-04T15:28:25Z</time>
      </trkpt>
      <trkpt lat="59.4695590" lon="17.8008040">
        <ele>-0.3400000</ele>
        <time>2010-12-04T15:28:36Z</time>
      </trkpt>
      <trkpt lat="59.4698910" lon="17.8016240">
        <ele>2.5400000</ele>
        <time>2010-12-04T15:28:47Z</time>
      </trkpt>
      <trkpt lat="59.4699970" lon="17.8021280">
        <ele>4.9400000</ele>
        <time>2010-12-04T15:28:55Z</time>
      </trkpt>
      <trkpt lat="59.4700200" lon="17.8025210">
        <ele>6.3900000</ele>
        <time>2010-12-04T15:29:01Z</time>
      </trkpt>
      <trkpt lat="59.4699670" lon="17.8032320">
        <ele>9.2700000</ele>
        <time>2010-12-04T15:29:12Z</time>
      </trkpt>
      <trkpt lat="59.4698140" lon="17.8040750">
        <ele>11.6700000</ele>
        <time>2010-12-04T15:29:25Z</time>
      </trkpt>
      <trkpt lat="59.4696200" lon="17.8049550">
        <ele>14.5600000</ele>
        <time>2010-12-04T15:29:40Z</time>
      </trkpt>
      <trkpt lat="59.4694370" lon="17.8057120">
        <ele>17.4400000</ele>
        <time>2010-12-04T15:29:53Z</time>
      </trkpt>
      <trkpt lat="59.4692500" lon="17.8065450">
        <ele>20.8100000</ele>
        <time>2010-12-04T15:30:07Z</time>
      </trkpt>
      <trkpt lat="59.4690930" lon="17.8075410">
        <ele>22.7300000</ele>
        <time>2010-12-04T15:30:22Z</time>
      </trkpt>
      <trkpt lat="59.4689640" lon="17.8085710">
        <ele>24.1700000</ele>
        <time>2010-12-04T15:30:35Z</time>
      </trkpt>
      <trkpt lat="59.4687810" lon="17.8092940">
        <ele>25.6100000</ele>
        <time>2010-12-04T15:30:46Z</time>
      </trkpt>
      <trkpt lat="59.4685750" lon="17.8094180">
        <ele>25.1300000</ele>
        <time>2010-12-04T15:30:54Z</time>
      </trkpt>
      <trkpt lat="59.4680140" lon="17.8092840">
        <ele>25.6100000</ele>
        <time>2010-12-04T15:31:06Z</time>
      </trkpt>
      <trkpt lat="59.4673810" lon="17.8092820">
        <ele>27.0500000</ele>
        <time>2010-12-04T15:31:20Z</time>
      </trkpt>
      <trkpt lat="59.4667850" lon="17.8097060">
        <ele>29.4600000</ele>
        <time>2010-12-04T15:31:35Z</time>
      </trkpt>
      <trkpt lat="59.4663050" lon="17.8104650">
        <ele>31.3800000</ele>
        <time>2010-12-04T15:31:49Z</time>
      </trkpt>
      <trkpt lat="59.4659580" lon="17.8113380">
        <ele>33.3000000</ele>
        <time>2010-12-04T15:32:01Z</time>
      </trkpt>
      <trkpt lat="59.4655530" lon="17.8124390">
        <ele>34.7400000</ele>
        <time>2010-12-04T15:32:16Z</time>
      </trkpt>
      <trkpt lat="59.4651790" lon="17.8134690">
        <ele>35.2300000</ele>
        <time>2010-12-04T15:32:29Z</time>
      </trkpt>
      <trkpt lat="59.4651220" lon="17.8136270">
        <ele>35.7100000</ele>
        <time>2010-12-04T15:32:31Z</time>
      </trkpt>
      <trkpt lat="59.4650960" lon="17.8137040">
        <ele>35.7100000</ele>
        <time>2010-12-04T15:32:32Z</time>
      </trkpt>
      <trkpt lat="59.4647640" lon="17.8146710">
        <ele>38.5900000</ele>
        <time>2010-12-04T15:32:46Z</time>
      </trkpt>
      <trkpt lat="59.4645270" lon="17.8153590">
        <ele>41.4700000</ele>
        <time>2010-12-04T15:32:57Z</time>
      </trkpt>
      <trkpt lat="59.4642790" lon="17.8163150">
        <ele>43.4000000</ele>
        <time>2010-12-04T15:33:11Z</time>
      </trkpt>
      <trkpt lat="59.4640850" lon="17.8175220">
        <ele>42.9200000</ele>
        <time>2010-12-04T15:33:24Z</time>
      </trkpt>
      <trkpt lat="59.4638860" lon="17.8187790">
        <ele>43.4000000</ele>
        <time>2010-12-04T15:33:37Z</time>
      </trkpt>
      <trkpt lat="59.4636730" lon="17.8200990">
        <ele>44.3600000</ele>
        <time>2010-12-04T15:33:51Z</time>
      </trkpt>
      <trkpt lat="59.4633710" lon="17.8212150">
        <ele>43.8800000</ele>
        <time>2010-12-04T15:34:03Z</time>
      </trkpt>
      <trkpt lat="59.4632640" lon="17.8214950">
        <ele>42.4400000</ele>
        <time>2010-12-04T15:34:06Z</time>
      </trkpt>
      <trkpt lat="59.4629330" lon="17.8222620">
        <ele>39.0700000</ele>
        <time>2010-12-04T15:34:13Z</time>
      </trkpt>
      <trkpt lat="59.4627110" lon="17.8227480">
        <ele>36.1900000</ele>
        <time>2010-12-04T15:34:17Z</time>
      </trkpt>
      <trkpt lat="59.4623720" lon="17.8232780">
        <ele>32.3400000</ele>
        <time>2010-12-04T15:34:22Z</time>
      </trkpt>
      <trkpt lat="59.4618230" lon="17.8237800">
        <ele>29.4600000</ele>
        <time>2010-12-04T15:34:29Z</time>
      </trkpt>
      <trkpt lat="59.4610480" lon="17.8240280">
        <ele>28.0200000</ele>
        <time>2010-12-04T15:34:39Z</time>
      </trkpt>
      <trkpt lat="59.4601060" lon="17.8240850">
        <ele>27.5300000</ele>
        <time>2010-12-04T15:34:53Z</time>
      </trkpt>
      <trkpt lat="59.4594690" lon="17.8242440">
        <ele>29.9400000</ele>
        <time>2010-12-04T15:35:05Z</time>
      </trkpt>
      <trkpt lat="59.4589390" lon="17.8245450">
        <ele>29.4600000</ele>
        <time>2010-12-04T15:35:15Z</time>
      </trkpt>
      <trkpt lat="59.4587710" lon="17.8246800">
        <ele>23.6900000</ele>
        <time>2010-12-04T15:35:18Z</time>
      </trkpt>
      <trkpt lat="59.4587140" lon="17.8247300">
        <ele>29.4600000</ele>
        <time>2010-12-04T15:35:19Z</time>
      </trkpt>
      <trkpt lat="59.4579850" lon="17.8255390">
        <ele>27.5300000</ele>
        <time>2010-12-04T15:35:32Z</time>
      </trkpt>
      <trkpt lat="59.4572940" lon="17.8263570">
        <ele>24.6500000</ele>
        <time>2010-12-04T15:35:43Z</time>
      </trkpt>
      <trkpt lat="59.4567790" lon="17.8267970">
        <ele>22.7300000</ele>
        <time>2010-12-04T15:35:52Z</time>
      </trkpt>
      <trkpt lat="59.4567410" lon="17.8267990">
        <ele>22.2500000</ele>
        <time>2010-12-04T15:35:53Z</time>
      </trkpt>
      <trkpt lat="59.4566990" lon="17.8267900">
        <ele>21.7700000</ele>
        <time>2010-12-04T15:35:54Z</time>
      </trkpt>
      <trkpt lat="59.4564170" lon="17.8269770">
        <ele>21.7700000</ele>
        <time>2010-12-04T15:36:02Z</time>
      </trkpt>
      <trkpt lat="59.4563710" lon="17.8270110">
        <ele>21.7700000</ele>
        <time>2010-12-04T15:36:03Z</time>
      </trkpt>
      <trkpt lat="59.4557270" lon="17.8273010">
        <ele>21.7700000</ele>
        <time>2010-12-04T15:36:15Z</time>
      </trkpt>
      <trkpt lat="59.4549940" lon="17.8277650">
        <ele>23.2100000</ele>
        <time>2010-12-04T15:36:29Z</time>
      </trkpt>
      <trkpt lat="59.4542770" lon="17.8282510">
        <ele>26.0900000</ele>
        <time>2010-12-04T15:36:44Z</time>
      </trkpt>
      <trkpt lat="59.4536710" lon="17.8287530">
        <ele>27.0500000</ele>
        <time>2010-12-04T15:36:57Z</time>
      </trkpt>
      <trkpt lat="59.4531100" lon="17.8293740">
        <ele>27.0500000</ele>
        <time>2010-12-04T15:37:09Z</time>
      </trkpt>
      <trkpt lat="59.4525600" lon="17.8302750">
        <ele>26.5700000</ele>
        <time>2010-12-04T15:37:23Z</time>
      </trkpt>
      <trkpt lat="59.4521220" lon="17.8311480">
        <ele>28.0200000</ele>
        <time>2010-12-04T15:37:34Z</time>
      </trkpt>
      <trkpt lat="59.4516530" lon="17.8321800">
        <ele>28.0200000</ele>
        <time>2010-12-04T15:37:47Z</time>
      </trkpt>
      <trkpt lat="59.4512180" lon="17.8331490">
        <ele>28.0200000</ele>
        <time>2010-12-04T15:37:59Z</time>
      </trkpt>
      <trkpt lat="59.4510460" lon="17.8335060">
        <ele>28.0200000</ele>
        <time>2010-12-04T15:38:04Z</time>
      </trkpt>
      <trkpt lat="59.4506570" lon="17.8340320">
        <ele>28.9800000</ele>
        <time>2010-12-04T15:38:14Z</time>
      </trkpt>
      <trkpt lat="59.4503360" lon="17.8344290">
        <ele>29.4600000</ele>
        <time>2010-12-04T15:38:23Z</time>
      </trkpt>
      <trkpt lat="59.4501910" lon="17.8347760">
        <ele>29.4600000</ele>
        <time>2010-12-04T15:38:30Z</time>
      </trkpt>
      <trkpt lat="59.4501690" lon="17.8348060">
        <ele>29.4600000</ele>
        <time>2010-12-04T15:38:38Z</time>
      </trkpt>
      <trkpt lat="59.4501230" lon="17.8348270">
        <ele>28.9800000</ele>
        <time>2010-12-04T15:38:44Z</time>
      </trkpt>
      <trkpt lat="59.4501080" lon="17.8348290">
        <ele>29.4600000</ele>
        <time>2010-12-04T15:38:45Z</time>
      </trkpt>
      <trkpt lat="59.4500920" lon="17.8348330">
        <ele>29.4600000</ele>
        <time>2010-12-04T15:38:46Z</time>
      </trkpt>
      <trkpt lat="59.4500730" lon="17.8348430">
        <ele>29.4600000</ele>
        <time>2010-12-04T15:38:47Z</time>
      </trkpt>
      <trkpt lat="59.4500540" lon="17.8348540">
        <ele>29.4600000</ele>
        <time>2010-12-04T15:38:48Z</time>
      </trkpt>
      <trkpt lat="59.4500270" lon="17.8348580">
        <ele>29.9400000</ele>
        <time>2010-12-04T15:38:49Z</time>
      </trkpt>
      <trkpt lat="59.4500050" lon="17.8348640">
        <ele>29.4600000</ele>
        <time>2010-12-04T15:38:50Z</time>
      </trkpt>
      <trkpt lat="59.4498330" lon="17.8351900">
        <ele>28.9800000</ele>
        <time>2010-12-04T15:38:57Z</time>
      </trkpt>
      <trkpt lat="59.4498060" lon="17.8352580">
        <ele>28.9800000</ele>
        <time>2010-12-04T15:38:58Z</time>
      </trkpt>
      <trkpt lat="59.4497720" lon="17.8353230">
        <ele>28.9800000</ele>
        <time>2010-12-04T15:38:59Z</time>
      </trkpt>
      <trkpt lat="59.4497340" lon="17.8353880">
        <ele>28.9800000</ele>
        <time>2010-12-04T15:39:00Z</time>
      </trkpt>
      <trkpt lat="59.4496920" lon="17.8354490">
        <ele>29.4600000</ele>
        <time>2010-12-04T15:39:01Z</time>
      </trkpt>
      <trkpt lat="59.4496460" lon="17.8355060">
        <ele>30.4200000</ele>
        <time>2010-12-04T15:39:02Z</time>
      </trkpt>
      <trkpt lat="59.4490170" lon="17.8362030">
        <ele>29.4600000</ele>
        <time>2010-12-04T15:39:14Z</time>
      </trkpt>
      <trkpt lat="59.4482610" lon="17.8369410">
        <ele>31.3800000</ele>
        <time>2010-12-04T15:39:29Z</time>
      </trkpt>
      <trkpt lat="59.4476320" lon="17.8375130">
        <ele>30.9000000</ele>
        <time>2010-12-04T15:39:41Z</time>
      </trkpt>
      <trkpt lat="59.4469490" lon="17.8381580">
        <ele>30.9000000</ele>
        <time>2010-12-04T15:39:54Z</time>
      </trkpt>
      <trkpt lat="59.4463200" lon="17.8387050">
        <ele>32.8200000</ele>
        <time>2010-12-04T15:40:07Z</time>
      </trkpt>
      <trkpt lat="59.4457860" lon="17.8390560">
        <ele>34.2600000</ele>
        <time>2010-12-04T15:40:18Z</time>
      </trkpt>
      <trkpt lat="59.4450870" lon="17.8393630">
        <ele>32.3400000</ele>
        <time>2010-12-04T15:40:31Z</time>
      </trkpt>
      <trkpt lat="59.4446910" lon="17.8393610">
        <ele>28.0200000</ele>
        <time>2010-12-04T15:40:37Z</time>
      </trkpt>
      <trkpt lat="59.4446260" lon="17.8393480">
        <ele>31.3800000</ele>
        <time>2010-12-04T15:40:38Z</time>
      </trkpt>
      <trkpt lat="59.4437640" lon="17.8390430">
        <ele>31.8600000</ele>
        <time>2010-12-04T15:40:52Z</time>
      </trkpt>
      <trkpt lat="59.4429550" lon="17.8389700">
        <ele>32.3400000</ele>
        <time>2010-12-04T15:41:06Z</time>
      </trkpt>
      <trkpt lat="59.4421540" lon="17.8391760">
        <ele>31.3800000</ele>
        <time>2010-12-04T15:41:19Z</time>
      </trkpt>
      <trkpt lat="59.4412800" lon="17.8394050">
        <ele>32.3400000</ele>
        <time>2010-12-04T15:41:34Z</time>
      </trkpt>
      <trkpt lat="59.4406320" lon="17.8397100">
        <ele>33.3000000</ele>
        <time>2010-12-04T15:41:46Z</time>
      </trkpt>
      <trkpt lat="59.4398120" lon="17.8401370">
        <ele>34.7400000</ele>
        <time>2010-12-04T15:42:01Z</time>
      </trkpt>
      <trkpt lat="59.4390910" lon="17.8405130">
        <ele>37.1500000</ele>
        <time>2010-12-04T15:42:16Z</time>
      </trkpt>
      <trkpt lat="59.4384990" lon="17.8408910">
        <ele>39.5500000</ele>
        <time>2010-12-04T15:42:30Z</time>
      </trkpt>
      <trkpt lat="59.4379460" lon="17.8415430">
        <ele>40.5100000</ele>
        <time>2010-12-04T15:42:43Z</time>
      </trkpt>
      <trkpt lat="59.4373780" lon="17.8422970">
        <ele>39.5500000</ele>
        <time>2010-12-04T15:42:55Z</time>
      </trkpt>
      <trkpt lat="59.4366300" lon="17.8431130">
        <ele>38.1100000</ele>
        <time>2010-12-04T15:43:09Z</time>
      </trkpt>
      <trkpt lat="59.4359930" lon="17.8433800">
        <ele>36.1900000</ele>
        <time>2010-12-04T15:43:20Z</time>
      </trkpt>
      <trkpt lat="59.4351920" lon="17.8434870">
        <ele>33.3000000</ele>
        <time>2010-12-04T15:43:32Z</time>
      </trkpt>
      <trkpt lat="59.4346470" lon="17.8438090">
        <ele>30.9000000</ele>
        <time>2010-12-04T15:43:40Z</time>
      </trkpt>
      <trkpt lat="59.4341930" lon="17.8441870">
        <ele>27.5300000</ele>
        <time>2010-12-04T15:43:46Z</time>
      </trkpt>
      <trkpt lat="59.4341130" lon="17.8442500">
        <ele>27.5300000</ele>
        <time>2010-12-04T15:43:47Z</time>
      </trkpt>
      <trkpt lat="59.4333040" lon="17.8449420">
        <ele>25.6100000</ele>
        <time>2010-12-04T15:43:58Z</time>
      </trkpt>
      <trkpt lat="59.4327160" lon="17.8453500">
        <ele>22.7300000</ele>
        <time>2010-12-04T15:44:06Z</time>
      </trkpt>
      <trkpt lat="59.4323730" lon="17.8454340">
        <ele>21.2900000</ele>
        <time>2010-12-04T15:44:10Z</time>
      </trkpt>
      <trkpt lat="59.4312100" lon="17.8455540">
        <ele>18.8800000</ele>
        <time>2010-12-04T15:44:24Z</time>
      </trkpt>
      <trkpt lat="59.4306220" lon="17.8456270">
        <ele>20.8100000</ele>
        <time>2010-12-04T15:44:33Z</time>
      </trkpt>
      <trkpt lat="59.4298740" lon="17.8457030">
        <ele>23.2100000</ele>
        <time>2010-12-04T15:44:47Z</time>
      </trkpt>
      <trkpt lat="59.4291460" lon="17.8458020">
        <ele>25.6100000</ele>
        <time>2010-12-04T15:45:01Z</time>
      </trkpt>
      <trkpt lat="59.4284860" lon="17.8459910">
        <ele>27.0500000</ele>
        <time>2010-12-04T15:45:13Z</time>
      </trkpt>
      <trkpt lat="59.4276240" lon="17.8463020">
        <ele>27.0500000</ele>
        <time>2010-12-04T15:45:29Z</time>
      </trkpt>
      <trkpt lat="59.4268110" lon="17.8466070">
        <ele>24.6500000</ele>
        <time>2010-12-04T15:45:43Z</time>
      </trkpt>
      <trkpt lat="59.4260670" lon="17.8469640">
        <ele>23.6900000</ele>
        <time>2010-12-04T15:45:55Z</time>
      </trkpt>
      <trkpt lat="59.4257390" lon="17.8471260">
        <ele>23.2100000</ele>
        <time>2010-12-04T15:46:01Z</time>
      </trkpt>
      <trkpt lat="59.4256860" lon="17.8471280">
        <ele>23.6900000</ele>
        <time>2010-12-04T15:46:02Z</time>
      </trkpt>
      <trkpt lat="59.4256400" lon="17.8471110">
        <ele>23.6900000</ele>
        <time>2010-12-04T15:46:03Z</time>
      </trkpt>
      <trkpt lat="59.4254950" lon="17.8470400">
        <ele>23.2100000</ele>
        <time>2010-12-04T15:46:06Z</time>
      </trkpt>
      <trkpt lat="59.4254490" lon="17.8470360">
        <ele>23.2100000</ele>
        <time>2010-12-04T15:46:07Z</time>
      </trkpt>
      <trkpt lat="59.4254040" lon="17.8470480">
        <ele>23.6900000</ele>
        <time>2010-12-04T15:46:08Z</time>
      </trkpt>
      <trkpt lat="59.4253620" lon="17.8470780">
        <ele>23.6900000</ele>
        <time>2010-12-04T15:46:09Z</time>
      </trkpt>
      <trkpt lat="59.4253270" lon="17.8471260">
        <ele>23.6900000</ele>
        <time>2010-12-04T15:46:10Z</time>
      </trkpt>
      <trkpt lat="59.4252970" lon="17.8471870">
        <ele>23.6900000</ele>
        <time>2010-12-04T15:46:11Z</time>
      </trkpt>
      <trkpt lat="59.4252780" lon="17.8472610">
        <ele>23.6900000</ele>
        <time>2010-12-04T15:46:12Z</time>
      </trkpt>
      <trkpt lat="59.4252700" lon="17.8473420">
        <ele>23.6900000</ele>
        <time>2010-12-04T15:46:13Z</time>
      </trkpt>
      <trkpt lat="59.4252780" lon="17.8474290">
        <ele>23.6900000</ele>
        <time>2010-12-04T15:46:14Z</time>
      </trkpt>
      <trkpt lat="59.4252930" lon="17.8475190">
        <ele>23.6900000</ele>
        <time>2010-12-04T15:46:15Z</time>
      </trkpt>
      <trkpt lat="59.4253120" lon="17.8476070">
        <ele>23.6900000</ele>
        <time>2010-12-04T15:46:16Z</time>
      </trkpt>
      <trkpt lat="59.4253390" lon="17.8476960">
        <ele>23.6900000</ele>
        <time>2010-12-04T15:46:17Z</time>
      </trkpt>
      <trkpt lat="59.4253880" lon="17.8478890">
        <ele>23.6900000</ele>
        <time>2010-12-04T15:46:19Z</time>
      </trkpt>
      <trkpt lat="59.4254070" lon="17.8479960">
        <ele>23.2100000</ele>
        <time>2010-12-04T15:46:20Z</time>
      </trkpt>
      <trkpt lat="59.4254260" lon="17.8481100">
        <ele>23.2100000</ele>
        <time>2010-12-04T15:46:21Z</time>
      </trkpt>
      <trkpt lat="59.4255370" lon="17.8496060">
        <ele>22.7300000</ele>
        <time>2010-12-04T15:46:32Z</time>
      </trkpt>
      <trkpt lat="59.4256250" lon="17.8514310">
        <ele>22.2500000</ele>
        <time>2010-12-04T15:46:45Z</time>
      </trkpt>
      <trkpt lat="59.4254880" lon="17.8528520">
        <ele>21.2900000</ele>
        <time>2010-12-04T15:46:56Z</time>
      </trkpt>
      <trkpt lat="59.4251020" lon="17.8539520">
        <ele>21.2900000</ele>
        <time>2010-12-04T15:47:07Z</time>
      </trkpt>
      <trkpt lat="59.4245340" lon="17.8547060">
        <ele>21.2900000</ele>
        <time>2010-12-04T15:47:19Z</time>
      </trkpt>
      <trkpt lat="59.4237440" lon="17.8553600">
        <ele>21.2900000</ele>
        <time>2010-12-04T15:47:34Z</time>
      </trkpt>
      <trkpt lat="59.4231760" lon="17.8556100">
        <ele>21.2900000</ele>
        <time>2010-12-04T15:47:47Z</time>
      </trkpt>
      <trkpt lat="59.4226840" lon="17.8556060">
        <ele>21.7700000</ele>
        <time>2010-12-04T15:47:58Z</time>
      </trkpt>
      <trkpt lat="59.4220310" lon="17.8555810">
        <ele>20.3200000</ele>
        <time>2010-12-04T15:48:10Z</time>
      </trkpt>
      <trkpt lat="59.4212110" lon="17.8552930">
        <ele>20.3200000</ele>
        <time>2010-12-04T15:48:25Z</time>
      </trkpt>
      <trkpt lat="59.4204790" lon="17.8548110">
        <ele>20.8100000</ele>
        <time>2010-12-04T15:48:39Z</time>
      </trkpt>
      <trkpt lat="59.4199100" lon="17.8543300">
        <ele>22.7300000</ele>
        <time>2010-12-04T15:48:51Z</time>
      </trkpt>
      <trkpt lat="59.4192920" lon="17.8539140">
        <ele>26.0900000</ele>
        <time>2010-12-04T15:49:05Z</time>
      </trkpt>
      <trkpt lat="59.4186520" lon="17.8536930">
        <ele>28.5000000</ele>
        <time>2010-12-04T15:49:20Z</time>
      </trkpt>
      <trkpt lat="59.4179380" lon="17.8537480">
        <ele>30.4200000</ele>
        <time>2010-12-04T15:49:35Z</time>
      </trkpt>
      <trkpt lat="59.4177510" lon="17.8537370">
        <ele>30.9000000</ele>
        <time>2010-12-04T15:49:39Z</time>
      </trkpt>
      <trkpt lat="59.4177060" lon="17.8537520">
        <ele>30.9000000</ele>
        <time>2010-12-04T15:49:40Z</time>
      </trkpt>
      <trkpt lat="59.4176600" lon="17.8537810">
        <ele>30.9000000</ele>
        <time>2010-12-04T15:49:41Z</time>
      </trkpt>
      <trkpt lat="59.4176140" lon="17.8538230">
        <ele>30.9000000</ele>
        <time>2010-12-04T15:49:42Z</time>
      </trkpt>
      <trkpt lat="59.4175640" lon="17.8538740">
        <ele>30.4200000</ele>
        <time>2010-12-04T15:49:43Z</time>
      </trkpt>
      <trkpt lat="59.4167560" lon="17.8546870">
        <ele>30.4200000</ele>
        <time>2010-12-04T15:49:59Z</time>
      </trkpt>
      <trkpt lat="59.4158290" lon="17.8555890">
        <ele>29.4600000</ele>
        <time>2010-12-04T15:50:16Z</time>
      </trkpt>
      <trkpt lat="59.4149930" lon="17.8564910">
        <ele>28.9800000</ele>
        <time>2010-12-04T15:50:32Z</time>
      </trkpt>
      <trkpt lat="59.4143680" lon="17.8571110">
        <ele>29.4600000</ele>
        <time>2010-12-04T15:50:45Z</time>
      </trkpt>
      <trkpt lat="59.4141010" lon="17.8573800">
        <ele>28.9800000</ele>
        <time>2010-12-04T15:50:54Z</time>
      </trkpt>
      <trkpt lat="59.4139670" lon="17.8575330">
        <ele>28.5000000</ele>
        <time>2010-12-04T15:51:02Z</time>
      </trkpt>
      <trkpt lat="59.4139060" lon="17.8576200">
        <ele>28.9800000</ele>
        <time>2010-12-04T15:51:12Z</time>
      </trkpt>
      <trkpt lat="59.4138410" lon="17.8577180">
        <ele>28.0200000</ele>
        <time>2010-12-04T15:51:31Z</time>
      </trkpt>
      <trkpt lat="59.4136050" lon="17.8582060">
        <ele>27.0500000</ele>
        <time>2010-12-04T15:51:41Z</time>
      </trkpt>
      <trkpt lat="59.4135510" lon="17.8582970">
        <ele>27.0500000</ele>
        <time>2010-12-04T15:51:46Z</time>
      </trkpt>
      <trkpt lat="59.4135440" lon="17.8583200">
        <ele>26.5700000</ele>
        <time>2010-12-04T15:51:47Z</time>
      </trkpt>
      <trkpt lat="59.4134640" lon="17.8585680">
        <ele>26.0900000</ele>
        <time>2010-12-04T15:51:58Z</time>
      </trkpt>
      <trkpt lat="59.4134370" lon="17.8585780">
        <ele>26.0900000</ele>
        <time>2010-12-04T15:52:00Z</time>
      </trkpt>
      <trkpt lat="59.4134140" lon="17.8585720">
        <ele>26.0900000</ele>
        <time>2010-12-04T15:52:01Z</time>
      </trkpt>
      <trkpt lat="59.4133910" lon="17.8585590">
        <ele>26.0900000</ele>
        <time>2010-12-04T15:52:02Z</time>
      </trkpt>
      <trkpt lat="59.4133680" lon="17.8585450">
        <ele>26.0900000</ele>
        <time>2010-12-04T15:52:03Z</time>
      </trkpt>
      <trkpt lat="59.4133420" lon="17.8585410">
        <ele>26.0900000</ele>
        <time>2010-12-04T15:52:04Z</time>
      </trkpt>
      <trkpt lat="59.4133110" lon="17.8585450">
        <ele>26.0900000</ele>
        <time>2010-12-04T15:52:05Z</time>
      </trkpt>
      <trkpt lat="59.4132800" lon="17.8585550">
        <ele>26.0900000</ele>
        <time>2010-12-04T15:52:06Z</time>
      </trkpt>
      <trkpt lat="59.4132460" lon="17.8585720">
        <ele>26.0900000</ele>
        <time>2010-12-04T15:52:07Z</time>
      </trkpt>
      <trkpt lat="59.4132160" lon="17.8586010">
        <ele>26.0900000</ele>
        <time>2010-12-04T15:52:08Z</time>
      </trkpt>
      <trkpt lat="59.4131770" lon="17.8586330">
        <ele>26.5700000</ele>
        <time>2010-12-04T15:52:09Z</time>
      </trkpt>
      <trkpt lat="59.4131430" lon="17.8586710">
        <ele>26.0900000</ele>
        <time>2010-12-04T15:52:10Z</time>
      </trkpt>
      <trkpt lat="59.4129560" lon="17.8588980">
        <ele>25.1300000</ele>
        <time>2010-12-04T15:52:15Z</time>
      </trkpt>
      <trkpt lat="59.4129220" lon="17.8589320">
        <ele>25.1300000</ele>
        <time>2010-12-04T15:52:16Z</time>
      </trkpt>
      <trkpt lat="59.4127040" lon="17.8588910">
        <ele>24.6500000</ele>
        <time>2010-12-04T15:52:23Z</time>
      </trkpt>
      <trkpt lat="59.4125860" lon="17.8587210">
        <ele>24.1700000</ele>
        <time>2010-12-04T15:52:32Z</time>
      </trkpt>
      <trkpt lat="59.4124720" lon="17.8588470">
        <ele>24.1700000</ele>
        <time>2010-12-04T15:52:40Z</time>
      </trkpt>
      <trkpt lat="59.4124790" lon="17.8590930">
        <ele>24.1700000</ele>
        <time>2010-12-04T15:52:44Z</time>
      </trkpt>
      <trkpt lat="59.4125440" lon="17.8594400">
        <ele>23.6900000</ele>
        <time>2010-12-04T15:52:48Z</time>
      </trkpt>
      <trkpt lat="59.4125480" lon="17.8595350">
        <ele>23.6900000</ele>
        <time>2010-12-04T15:52:49Z</time>
      </trkpt>
      <trkpt lat="59.4125480" lon="17.8596360">
        <ele>23.2100000</ele>
        <time>2010-12-04T15:52:50Z</time>
      </trkpt>
      <trkpt lat="59.4125400" lon="17.8597370">
        <ele>23.2100000</ele>
        <time>2010-12-04T15:52:51Z</time>
      </trkpt>
      <trkpt lat="59.4125250" lon="17.8598400">
        <ele>23.2100000</ele>
        <time>2010-12-04T15:52:52Z</time>
      </trkpt>
      <trkpt lat="59.4124980" lon="17.8599410">
        <ele>22.7300000</ele>
        <time>2010-12-04T15:52:53Z</time>
      </trkpt>
      <trkpt lat="59.4124680" lon="17.8600410">
        <ele>23.2100000</ele>
        <time>2010-12-04T15:52:54Z</time>
      </trkpt>
      <trkpt lat="59.4124260" lon="17.8601320">
        <ele>22.2500000</ele>
        <time>2010-12-04T15:52:55Z</time>
      </trkpt>
      <trkpt lat="59.4123800" lon="17.8602140">
        <ele>21.2900000</ele>
        <time>2010-12-04T15:52:56Z</time>
      </trkpt>
      <trkpt lat="59.4123230" lon="17.8602850">
        <ele>21.7700000</ele>
        <time>2010-12-04T15:52:57Z</time>
      </trkpt>
      <trkpt lat="59.4122620" lon="17.8603440">
        <ele>21.2900000</ele>
        <time>2010-12-04T15:52:58Z</time>
      </trkpt>
      <trkpt lat="59.4121970" lon="17.8603940">
        <ele>20.8100000</ele>
        <time>2010-12-04T15:52:59Z</time>
      </trkpt>
      <trkpt lat="59.4121320" lon="17.8604340">
        <ele>20.8100000</ele>
        <time>2010-12-04T15:53:00Z</time>
      </trkpt>
      <trkpt lat="59.4120640" lon="17.8604680">
        <ele>20.8100000</ele>
        <time>2010-12-04T15:53:01Z</time>
      </trkpt>
      <trkpt lat="59.4112700" lon="17.8610290">
        <ele>16.9600000</ele>
        <time>2010-12-04T15:53:13Z</time>
      </trkpt>
      <trkpt lat="59.4112050" lon="17.8611050">
        <ele>16.9600000</ele>
        <time>2010-12-04T15:53:14Z</time>
      </trkpt>
      <trkpt lat="59.4107700" lon="17.8617530">
        <ele>13.6000000</ele>
        <time>2010-12-04T15:53:21Z</time>
      </trkpt>
      <trkpt lat="59.4103890" lon="17.8623730">
        <ele>10.2300000</ele>
        <time>2010-12-04T15:53:27Z</time>
      </trkpt>
      <trkpt lat="59.4101870" lon="17.8627090">
        <ele>8.7900000</ele>
        <time>2010-12-04T15:53:30Z</time>
      </trkpt>
      <trkpt lat="59.4093020" lon="17.8641660">
        <ele>7.3500000</ele>
        <time>2010-12-04T15:53:44Z</time>
      </trkpt>
      <trkpt lat="59.4085810" lon="17.8653560">
        <ele>7.3500000</ele>
        <time>2010-12-04T15:53:57Z</time>
      </trkpt>
      <trkpt lat="59.4077800" lon="17.8666730">
        <ele>7.3500000</ele>
        <time>2010-12-04T15:54:13Z</time>
      </trkpt>
      <trkpt lat="59.4072460" lon="17.8675420">
        <ele>7.3500000</ele>
        <time>2010-12-04T15:54:24Z</time>
      </trkpt>
      <trkpt lat="59.4067190" lon="17.8683890">
        <ele>7.3500000</ele>
        <time>2010-12-04T15:54:36Z</time>
      </trkpt>
      <trkpt lat="59.4064830" lon="17.8687530">
        <ele>7.3500000</ele>
        <time>2010-12-04T15:54:45Z</time>
      </trkpt>
      <trkpt lat="59.4062610" lon="17.8685890">
        <ele>7.3500000</ele>
        <time>2010-12-04T15:54:51Z</time>
      </trkpt>
      <trkpt lat="59.4061470" lon="17.8684430">
        <ele>7.3500000</ele>
        <time>2010-12-04T15:54:54Z</time>
      </trkpt>
      <trkpt lat="59.4061050" lon="17.8684180">
        <ele>7.3500000</ele>
        <time>2010-12-04T15:54:55Z</time>
      </trkpt>
      <trkpt lat="59.4060630" lon="17.8684100">
        <ele>7.3500000</ele>
        <time>2010-12-04T15:54:56Z</time>
      </trkpt>
      <trkpt lat="59.4060210" lon="17.8684180">
        <ele>7.3500000</ele>
        <time>2010-12-04T15:54:57Z</time>
      </trkpt>
      <trkpt lat="59.4059750" lon="17.8684460">
        <ele>6.8700000</ele>
        <time>2010-12-04T15:54:58Z</time>
      </trkpt>
      <trkpt lat="59.4059330" lon="17.8684900">
        <ele>7.3500000</ele>
        <time>2010-12-04T15:54:59Z</time>
      </trkpt>
      <trkpt lat="59.4058880" lon="17.8685460">
        <ele>6.8700000</ele>
        <time>2010-12-04T15:55:00Z</time>
      </trkpt>
      <trkpt lat="59.4058460" lon="17.8686030">
        <ele>7.3500000</ele>
        <time>2010-12-04T15:55:01Z</time>
      </trkpt>
      <trkpt lat="59.4052730" lon="17.8691620">
        <ele>7.8300000</ele>
        <time>2010-12-04T15:55:14Z</time>
      </trkpt>
      <trkpt lat="59.4050100" lon="17.8694630">
        <ele>8.3100000</ele>
        <time>2010-12-04T15:55:23Z</time>
      </trkpt>
      <trkpt lat="59.4048730" lon="17.8698840">
        <ele>8.3100000</ele>
        <time>2010-12-04T15:55:33Z</time>
      </trkpt>
      <trkpt lat="59.4048540" lon="17.8699460">
        <ele>8.7900000</ele>
        <time>2010-12-04T15:55:36Z</time>
      </trkpt>
      <trkpt lat="59.4048420" lon="17.8699670">
        <ele>8.7900000</ele>
        <time>2010-12-04T15:55:37Z</time>
      </trkpt>
      <trkpt lat="59.4048350" lon="17.8699910">
        <ele>8.7900000</ele>
        <time>2010-12-04T15:55:38Z</time>
      </trkpt>
      <trkpt lat="59.4048270" lon="17.8700220">
        <ele>8.7900000</ele>
        <time>2010-12-04T15:55:39Z</time>
      </trkpt>
      <trkpt lat="59.4048190" lon="17.8700540">
        <ele>8.7900000</ele>
        <time>2010-12-04T15:55:40Z</time>
      </trkpt>
      <trkpt lat="59.4048080" lon="17.8700900">
        <ele>8.7900000</ele>
        <time>2010-12-04T15:55:41Z</time>
      </trkpt>
      <trkpt lat="59.4047970" lon="17.8701290">
        <ele>8.7900000</ele>
        <time>2010-12-04T15:55:42Z</time>
      </trkpt>
      <trkpt lat="59.4047850" lon="17.8701690">
        <ele>9.2700000</ele>
        <time>2010-12-04T15:55:43Z</time>
      </trkpt>
      <trkpt lat="59.4047010" lon="17.8702580">
        <ele>8.7900000</ele>
        <time>2010-12-04T15:55:47Z</time>
      </trkpt>
      <trkpt lat="59.4046710" lon="17.8702370">
        <ele>8.7900000</ele>
        <time>2010-12-04T15:55:48Z</time>
      </trkpt>
      <trkpt lat="59.4046400" lon="17.8702050">
        <ele>8.7900000</ele>
        <time>2010-12-04T15:55:49Z</time>
      </trkpt>
      <trkpt lat="59.4046100" lon="17.8701730">
        <ele>8.3100000</ele>
        <time>2010-12-04T15:55:50Z</time>
      </trkpt>
      <trkpt lat="59.4045750" lon="17.8701420">
        <ele>8.7900000</ele>
        <time>2010-12-04T15:55:51Z</time>
      </trkpt>
      <trkpt lat="59.4043120" lon="17.8701460">
        <ele>8.3100000</ele>
        <time>2010-12-04T15:56:00Z</time>
      </trkpt>
      <trkpt lat="59.4042740" lon="17.8701730">
        <ele>8.3100000</ele>
        <time>2010-12-04T15:56:02Z</time>
      </trkpt>
      <trkpt lat="59.4042510" lon="17.8702030">
        <ele>7.8300000</ele>
        <time>2010-12-04T15:56:03Z</time>
      </trkpt>
      <trkpt lat="59.4042240" lon="17.8702350">
        <ele>7.8300000</ele>
        <time>2010-12-04T15:56:04Z</time>
      </trkpt>
      <trkpt lat="59.4041940" lon="17.8702600">
        <ele>6.8700000</ele>
        <time>2010-12-04T15:56:05Z</time>
      </trkpt>
      <trkpt lat="59.4041520" lon="17.8702680">
        <ele>6.3900000</ele>
        <time>2010-12-04T15:56:06Z</time>
      </trkpt>
      <trkpt lat="59.4041020" lon="17.8702510">
        <ele>5.4200000</ele>
        <time>2010-12-04T15:56:07Z</time>
      </trkpt>
      <trkpt lat="59.4040530" lon="17.8702280">
        <ele>4.9400000</ele>
        <time>2010-12-04T15:56:08Z</time>
      </trkpt>
      <trkpt lat="59.4035680" lon="17.8699150">
        <ele>7.8300000</ele>
        <time>2010-12-04T15:56:19Z</time>
      </trkpt>
      <trkpt lat="59.4032550" lon="17.8695760">
        <ele>6.8700000</ele>
        <time>2010-12-04T15:56:29Z</time>
      </trkpt>
      <trkpt lat="59.4028130" lon="17.8682400">
        <ele>10.7100000</ele>
        <time>2010-12-04T15:57:16Z</time>
      </trkpt>
      <trkpt lat="59.4028890" lon="17.8682670">
        <ele>12.6300000</ele>
        <time>2010-12-04T15:57:26Z</time>
      </trkpt>
      <trkpt lat="59.4028850" lon="17.8681950">
        <ele>14.0800000</ele>
        <time>2010-12-04T15:57:37Z</time>
      </trkpt>
      <trkpt lat="59.4028780" lon="17.8681640">
        <ele>14.5600000</ele>
        <time>2010-12-04T15:57:40Z</time>
      </trkpt>
      <trkpt lat="59.4026370" lon="17.8677480">
        <ele>15.0400000</ele>
        <time>2010-12-04T15:57:51Z</time>
      </trkpt>
    </trkseg>
  </trk>

</gpx>
